<?xml version="1.0" encoding="UTF-8" standalone="no" ?>
<gpx xmlns="http://www.topografix.com/GPX/1/1" xmlns:xsi="http://www.w3.org/2001/XMLSchema-instance" xsi:schemaLocation="http://www.topografix.com/GPX/1/1 http://www.topografix.com/GPX/1/1/gpx.xsd" version="1.1" creator="VisuGPX - https://www.visugpx.com">
  <metadata>
    <name>Rontalon Yzeron</name>
    <desc><![CDATA[Un joli tour en VTTAE depuis Chaponost, sans grosse difficulté. 

Parcours varié et intéressant. ]]></desc>
  </metadata>
  <trk>
    <name><![CDATA[Chaponost Gravel bike_1]]></name>
    <extensions>
      <line xmlns="http://www.topografix.com/GPX/gpx_style/0/2">
        <color>0000FF</color>
        <width>4</width>
      </line>
    </extensions>
    <trkseg>
      <trkpt lat="45.71065" lon="4.75544">
        <ele>313.4</ele>
        <time>2025-08-06T06:54:06Z</time>
      </trkpt>
      <trkpt lat="45.71062" lon="4.75542">
        <ele>313.2</ele>
        <time>2025-08-06T06:54:07Z</time>
      </trkpt>
      <trkpt lat="45.71059" lon="4.7554">
        <ele>313</ele>
        <time>2025-08-06T06:54:08Z</time>
      </trkpt>
      <trkpt lat="45.71058" lon="4.75536">
        <ele>312.6</ele>
        <time>2025-08-06T06:54:09Z</time>
      </trkpt>
      <trkpt lat="45.71057" lon="4.75532">
        <ele>312.4</ele>
        <time>2025-08-06T06:54:10Z</time>
      </trkpt>
      <trkpt lat="45.71056" lon="4.75528">
        <ele>312.4</ele>
        <time>2025-08-06T06:54:11Z</time>
      </trkpt>
      <trkpt lat="45.71056" lon="4.75525">
        <ele>312.2</ele>
        <time>2025-08-06T06:54:12Z</time>
      </trkpt>
      <trkpt lat="45.71056" lon="4.75521">
        <ele>312.2</ele>
        <time>2025-08-06T06:54:13Z</time>
      </trkpt>
      <trkpt lat="45.71056" lon="4.75517">
        <ele>312.2</ele>
        <time>2025-08-06T06:54:14Z</time>
      </trkpt>
      <trkpt lat="45.71056" lon="4.75513">
        <ele>312.2</ele>
        <time>2025-08-06T06:54:15Z</time>
      </trkpt>
      <trkpt lat="45.71056" lon="4.75509">
        <ele>312</ele>
        <time>2025-08-06T06:54:16Z</time>
      </trkpt>
      <trkpt lat="45.71055" lon="4.75504">
        <ele>312</ele>
        <time>2025-08-06T06:54:17Z</time>
      </trkpt>
      <trkpt lat="45.71056" lon="4.755">
        <ele>311.8</ele>
        <time>2025-08-06T06:54:18Z</time>
      </trkpt>
      <trkpt lat="45.71056" lon="4.75496">
        <ele>311.8</ele>
        <time>2025-08-06T06:54:19Z</time>
      </trkpt>
      <trkpt lat="45.71056" lon="4.7549">
        <ele>311.8</ele>
        <time>2025-08-06T06:54:20Z</time>
      </trkpt>
      <trkpt lat="45.71056" lon="4.75485">
        <ele>311.6</ele>
        <time>2025-08-06T06:54:21Z</time>
      </trkpt>
      <trkpt lat="45.71056" lon="4.75479">
        <ele>311.4</ele>
        <time>2025-08-06T06:54:22Z</time>
      </trkpt>
      <trkpt lat="45.71056" lon="4.75473">
        <ele>311.4</ele>
        <time>2025-08-06T06:54:23Z</time>
      </trkpt>
      <trkpt lat="45.71056" lon="4.75467">
        <ele>311.2</ele>
        <time>2025-08-06T06:54:24Z</time>
      </trkpt>
      <trkpt lat="45.71056" lon="4.75462">
        <ele>311.2</ele>
        <time>2025-08-06T06:54:25Z</time>
      </trkpt>
      <trkpt lat="45.71056" lon="4.75456">
        <ele>311.2</ele>
        <time>2025-08-06T06:54:26Z</time>
      </trkpt>
      <trkpt lat="45.71056" lon="4.7545">
        <ele>311.4</ele>
        <time>2025-08-06T06:54:27Z</time>
      </trkpt>
      <trkpt lat="45.71056" lon="4.75445">
        <ele>311.6</ele>
        <time>2025-08-06T06:54:28Z</time>
      </trkpt>
      <trkpt lat="45.71057" lon="4.75439">
        <ele>311.8</ele>
        <time>2025-08-06T06:54:29Z</time>
      </trkpt>
      <trkpt lat="45.71057" lon="4.75434">
        <ele>311.8</ele>
        <time>2025-08-06T06:54:30Z</time>
      </trkpt>
      <trkpt lat="45.71058" lon="4.75429">
        <ele>312</ele>
        <time>2025-08-06T06:54:31Z</time>
      </trkpt>
      <trkpt lat="45.71059" lon="4.75424">
        <ele>312</ele>
        <time>2025-08-06T06:54:32Z</time>
      </trkpt>
      <trkpt lat="45.71059" lon="4.75418">
        <ele>312.2</ele>
        <time>2025-08-06T06:54:33Z</time>
      </trkpt>
      <trkpt lat="45.7106" lon="4.75413">
        <ele>312.6</ele>
        <time>2025-08-06T06:54:34Z</time>
      </trkpt>
      <trkpt lat="45.71061" lon="4.75407">
        <ele>312.8</ele>
        <time>2025-08-06T06:54:35Z</time>
      </trkpt>
      <trkpt lat="45.71063" lon="4.75401">
        <ele>313</ele>
        <time>2025-08-06T06:54:36Z</time>
      </trkpt>
      <trkpt lat="45.71064" lon="4.75394">
        <ele>313</ele>
        <time>2025-08-06T06:54:37Z</time>
      </trkpt>
      <trkpt lat="45.71066" lon="4.75386">
        <ele>312.6</ele>
        <time>2025-08-06T06:54:38Z</time>
      </trkpt>
      <trkpt lat="45.71069" lon="4.75379">
        <ele>312.2</ele>
        <time>2025-08-06T06:54:39Z</time>
      </trkpt>
      <trkpt lat="45.71071" lon="4.75371">
        <ele>311.6</ele>
        <time>2025-08-06T06:54:40Z</time>
      </trkpt>
      <trkpt lat="45.71074" lon="4.75362">
        <ele>311</ele>
        <time>2025-08-06T06:54:41Z</time>
      </trkpt>
      <trkpt lat="45.71078" lon="4.75353">
        <ele>310</ele>
        <time>2025-08-06T06:54:42Z</time>
      </trkpt>
      <trkpt lat="45.71081" lon="4.75342">
        <ele>309</ele>
        <time>2025-08-06T06:54:43Z</time>
      </trkpt>
      <trkpt lat="45.71084" lon="4.75331">
        <ele>307.8</ele>
        <time>2025-08-06T06:54:44Z</time>
      </trkpt>
      <trkpt lat="45.71089" lon="4.75318">
        <ele>306.4</ele>
        <time>2025-08-06T06:54:45Z</time>
      </trkpt>
      <trkpt lat="45.71093" lon="4.75306">
        <ele>304.8</ele>
        <time>2025-08-06T06:54:46Z</time>
      </trkpt>
      <trkpt lat="45.71099" lon="4.75292">
        <ele>303</ele>
        <time>2025-08-06T06:54:47Z</time>
      </trkpt>
      <trkpt lat="45.71105" lon="4.75279">
        <ele>301.2</ele>
        <time>2025-08-06T06:54:48Z</time>
      </trkpt>
      <trkpt lat="45.7111" lon="4.75265">
        <ele>299.4</ele>
        <time>2025-08-06T06:54:49Z</time>
      </trkpt>
      <trkpt lat="45.71114" lon="4.7525">
        <ele>298</ele>
        <time>2025-08-06T06:54:50Z</time>
      </trkpt>
      <trkpt lat="45.71117" lon="4.75235">
        <ele>296.8</ele>
        <time>2025-08-06T06:54:51Z</time>
      </trkpt>
      <trkpt lat="45.71118" lon="4.7522">
        <ele>296</ele>
        <time>2025-08-06T06:54:52Z</time>
      </trkpt>
      <trkpt lat="45.71118" lon="4.75205">
        <ele>295.4</ele>
        <time>2025-08-06T06:54:53Z</time>
      </trkpt>
      <trkpt lat="45.71117" lon="4.75191">
        <ele>295.4</ele>
        <time>2025-08-06T06:54:54Z</time>
      </trkpt>
      <trkpt lat="45.71116" lon="4.75178">
        <ele>295.4</ele>
        <time>2025-08-06T06:54:55Z</time>
      </trkpt>
      <trkpt lat="45.71113" lon="4.75166">
        <ele>295.8</ele>
        <time>2025-08-06T06:54:56Z</time>
      </trkpt>
      <trkpt lat="45.7111" lon="4.75155">
        <ele>296.4</ele>
        <time>2025-08-06T06:54:57Z</time>
      </trkpt>
      <trkpt lat="45.71108" lon="4.75145">
        <ele>297.2</ele>
        <time>2025-08-06T06:54:58Z</time>
      </trkpt>
      <trkpt lat="45.71107" lon="4.75136">
        <ele>297.8</ele>
        <time>2025-08-06T06:54:59Z</time>
      </trkpt>
      <trkpt lat="45.71106" lon="4.75128">
        <ele>298.8</ele>
        <time>2025-08-06T06:55:00Z</time>
      </trkpt>
      <trkpt lat="45.71106" lon="4.75121">
        <ele>299.6</ele>
        <time>2025-08-06T06:55:01Z</time>
      </trkpt>
      <trkpt lat="45.71106" lon="4.75115">
        <ele>300.6</ele>
        <time>2025-08-06T06:55:02Z</time>
      </trkpt>
      <trkpt lat="45.71107" lon="4.7511">
        <ele>301.6</ele>
        <time>2025-08-06T06:55:03Z</time>
      </trkpt>
      <trkpt lat="45.71108" lon="4.75105">
        <ele>302.4</ele>
        <time>2025-08-06T06:55:04Z</time>
      </trkpt>
      <trkpt lat="45.71108" lon="4.75101">
        <ele>303.2</ele>
        <time>2025-08-06T06:55:05Z</time>
      </trkpt>
      <trkpt lat="45.71108" lon="4.75097">
        <ele>303.8</ele>
        <time>2025-08-06T06:55:06Z</time>
      </trkpt>
      <trkpt lat="45.71109" lon="4.75093">
        <ele>304.6</ele>
        <time>2025-08-06T06:55:07Z</time>
      </trkpt>
      <trkpt lat="45.7111" lon="4.75089">
        <ele>305.2</ele>
        <time>2025-08-06T06:55:08Z</time>
      </trkpt>
      <trkpt lat="45.71112" lon="4.75084">
        <ele>305.6</ele>
        <time>2025-08-06T06:55:09Z</time>
      </trkpt>
      <trkpt lat="45.71113" lon="4.75079">
        <ele>306.2</ele>
        <time>2025-08-06T06:55:10Z</time>
      </trkpt>
      <trkpt lat="45.71115" lon="4.75075">
        <ele>306.6</ele>
        <time>2025-08-06T06:55:11Z</time>
      </trkpt>
      <trkpt lat="45.71116" lon="4.75071">
        <ele>307.2</ele>
        <time>2025-08-06T06:55:12Z</time>
      </trkpt>
      <trkpt lat="45.71118" lon="4.75067">
        <ele>307.8</ele>
        <time>2025-08-06T06:55:13Z</time>
      </trkpt>
      <trkpt lat="45.7112" lon="4.75063">
        <ele>308.2</ele>
        <time>2025-08-06T06:55:14Z</time>
      </trkpt>
      <trkpt lat="45.71122" lon="4.7506">
        <ele>308.8</ele>
        <time>2025-08-06T06:55:15Z</time>
      </trkpt>
      <trkpt lat="45.71123" lon="4.75057">
        <ele>309.2</ele>
        <time>2025-08-06T06:55:16Z</time>
      </trkpt>
      <trkpt lat="45.71125" lon="4.75053">
        <ele>309.6</ele>
        <time>2025-08-06T06:55:17Z</time>
      </trkpt>
      <trkpt lat="45.71127" lon="4.7505">
        <ele>309.8</ele>
        <time>2025-08-06T06:55:18Z</time>
      </trkpt>
      <trkpt lat="45.71128" lon="4.75045">
        <ele>310</ele>
        <time>2025-08-06T06:55:19Z</time>
      </trkpt>
      <trkpt lat="45.71129" lon="4.75041">
        <ele>310.2</ele>
        <time>2025-08-06T06:55:20Z</time>
      </trkpt>
      <trkpt lat="45.71129" lon="4.75037">
        <ele>310.2</ele>
        <time>2025-08-06T06:55:21Z</time>
      </trkpt>
      <trkpt lat="45.7113" lon="4.75033">
        <ele>310.4</ele>
        <time>2025-08-06T06:55:22Z</time>
      </trkpt>
      <trkpt lat="45.71131" lon="4.75029">
        <ele>310.6</ele>
        <time>2025-08-06T06:55:23Z</time>
      </trkpt>
      <trkpt lat="45.71132" lon="4.75025">
        <ele>311</ele>
        <time>2025-08-06T06:55:24Z</time>
      </trkpt>
      <trkpt lat="45.71133" lon="4.75021">
        <ele>311.2</ele>
        <time>2025-08-06T06:55:25Z</time>
      </trkpt>
      <trkpt lat="45.71134" lon="4.75017">
        <ele>311.4</ele>
        <time>2025-08-06T06:55:26Z</time>
      </trkpt>
      <trkpt lat="45.71135" lon="4.75013">
        <ele>311.6</ele>
        <time>2025-08-06T06:55:27Z</time>
      </trkpt>
      <trkpt lat="45.71136" lon="4.75008">
        <ele>311.6</ele>
        <time>2025-08-06T06:55:28Z</time>
      </trkpt>
      <trkpt lat="45.71136" lon="4.75004">
        <ele>311.8</ele>
        <time>2025-08-06T06:55:29Z</time>
      </trkpt>
      <trkpt lat="45.71136" lon="4.74999">
        <ele>312</ele>
        <time>2025-08-06T06:55:30Z</time>
      </trkpt>
      <trkpt lat="45.71137" lon="4.74994">
        <ele>312.2</ele>
        <time>2025-08-06T06:55:31Z</time>
      </trkpt>
      <trkpt lat="45.71137" lon="4.74988">
        <ele>312.4</ele>
        <time>2025-08-06T06:55:32Z</time>
      </trkpt>
      <trkpt lat="45.71139" lon="4.74984">
        <ele>312.6</ele>
        <time>2025-08-06T06:55:33Z</time>
      </trkpt>
      <trkpt lat="45.7114" lon="4.74979">
        <ele>313</ele>
        <time>2025-08-06T06:55:34Z</time>
      </trkpt>
      <trkpt lat="45.71142" lon="4.74974">
        <ele>313.4</ele>
        <time>2025-08-06T06:55:35Z</time>
      </trkpt>
      <trkpt lat="45.71145" lon="4.74971">
        <ele>313.6</ele>
        <time>2025-08-06T06:55:36Z</time>
      </trkpt>
      <trkpt lat="45.71148" lon="4.74968">
        <ele>313.8</ele>
        <time>2025-08-06T06:55:37Z</time>
      </trkpt>
      <trkpt lat="45.71152" lon="4.74966">
        <ele>314</ele>
        <time>2025-08-06T06:55:38Z</time>
      </trkpt>
      <trkpt lat="45.71156" lon="4.74964">
        <ele>314.2</ele>
        <time>2025-08-06T06:55:39Z</time>
      </trkpt>
      <trkpt lat="45.71159" lon="4.74963">
        <ele>314.4</ele>
        <time>2025-08-06T06:55:40Z</time>
      </trkpt>
      <trkpt lat="45.71163" lon="4.74961">
        <ele>314.6</ele>
        <time>2025-08-06T06:55:41Z</time>
      </trkpt>
      <trkpt lat="45.71167" lon="4.74959">
        <ele>314.8</ele>
        <time>2025-08-06T06:55:42Z</time>
      </trkpt>
      <trkpt lat="45.7117" lon="4.74957">
        <ele>314.8</ele>
        <time>2025-08-06T06:55:43Z</time>
      </trkpt>
      <trkpt lat="45.71174" lon="4.74956">
        <ele>315</ele>
        <time>2025-08-06T06:55:44Z</time>
      </trkpt>
      <trkpt lat="45.71178" lon="4.74954">
        <ele>315</ele>
        <time>2025-08-06T06:55:45Z</time>
      </trkpt>
      <trkpt lat="45.71182" lon="4.74952">
        <ele>315</ele>
        <time>2025-08-06T06:55:46Z</time>
      </trkpt>
      <trkpt lat="45.71185" lon="4.7495">
        <ele>315.2</ele>
        <time>2025-08-06T06:55:47Z</time>
      </trkpt>
      <trkpt lat="45.71189" lon="4.74948">
        <ele>315.2</ele>
        <time>2025-08-06T06:55:48Z</time>
      </trkpt>
      <trkpt lat="45.71192" lon="4.74945">
        <ele>315.6</ele>
        <time>2025-08-06T06:55:49Z</time>
      </trkpt>
      <trkpt lat="45.71196" lon="4.74943">
        <ele>315.8</ele>
        <time>2025-08-06T06:55:50Z</time>
      </trkpt>
      <trkpt lat="45.712" lon="4.74941">
        <ele>316</ele>
        <time>2025-08-06T06:55:51Z</time>
      </trkpt>
      <trkpt lat="45.71204" lon="4.74939">
        <ele>316.2</ele>
        <time>2025-08-06T06:55:52Z</time>
      </trkpt>
      <trkpt lat="45.71208" lon="4.74936">
        <ele>316.4</ele>
        <time>2025-08-06T06:55:53Z</time>
      </trkpt>
      <trkpt lat="45.71211" lon="4.74934">
        <ele>316.6</ele>
        <time>2025-08-06T06:55:54Z</time>
      </trkpt>
      <trkpt lat="45.71214" lon="4.74931">
        <ele>316.8</ele>
        <time>2025-08-06T06:55:55Z</time>
      </trkpt>
      <trkpt lat="45.71217" lon="4.74929">
        <ele>317</ele>
        <time>2025-08-06T06:55:56Z</time>
      </trkpt>
      <trkpt lat="45.7122" lon="4.74927">
        <ele>317.2</ele>
        <time>2025-08-06T06:55:57Z</time>
      </trkpt>
      <trkpt lat="45.71223" lon="4.74925">
        <ele>317.4</ele>
        <time>2025-08-06T06:55:58Z</time>
      </trkpt>
      <trkpt lat="45.71227" lon="4.74922">
        <ele>317.6</ele>
        <time>2025-08-06T06:55:59Z</time>
      </trkpt>
      <trkpt lat="45.71229" lon="4.74917">
        <ele>317.8</ele>
        <time>2025-08-06T06:56:00Z</time>
      </trkpt>
      <trkpt lat="45.7123" lon="4.74911">
        <ele>317.8</ele>
        <time>2025-08-06T06:56:01Z</time>
      </trkpt>
      <trkpt lat="45.71231" lon="4.74904">
        <ele>317.8</ele>
        <time>2025-08-06T06:56:02Z</time>
      </trkpt>
      <trkpt lat="45.71232" lon="4.74895">
        <ele>317.6</ele>
        <time>2025-08-06T06:56:03Z</time>
      </trkpt>
      <trkpt lat="45.71233" lon="4.74887">
        <ele>317.2</ele>
        <time>2025-08-06T06:56:04Z</time>
      </trkpt>
      <trkpt lat="45.71234" lon="4.74878">
        <ele>316.8</ele>
        <time>2025-08-06T06:56:05Z</time>
      </trkpt>
      <trkpt lat="45.71235" lon="4.74869">
        <ele>316.2</ele>
        <time>2025-08-06T06:56:06Z</time>
      </trkpt>
      <trkpt lat="45.71236" lon="4.7486">
        <ele>315.6</ele>
        <time>2025-08-06T06:56:07Z</time>
      </trkpt>
      <trkpt lat="45.71236" lon="4.74851">
        <ele>315.2</ele>
        <time>2025-08-06T06:56:08Z</time>
      </trkpt>
      <trkpt lat="45.71235" lon="4.74842">
        <ele>314.8</ele>
        <time>2025-08-06T06:56:09Z</time>
      </trkpt>
      <trkpt lat="45.71232" lon="4.74834">
        <ele>314.6</ele>
        <time>2025-08-06T06:56:10Z</time>
      </trkpt>
      <trkpt lat="45.7123" lon="4.74825">
        <ele>314.6</ele>
        <time>2025-08-06T06:56:11Z</time>
      </trkpt>
      <trkpt lat="45.71227" lon="4.74818">
        <ele>314.4</ele>
        <time>2025-08-06T06:56:12Z</time>
      </trkpt>
      <trkpt lat="45.71225" lon="4.7481">
        <ele>314.6</ele>
        <time>2025-08-06T06:56:13Z</time>
      </trkpt>
      <trkpt lat="45.71222" lon="4.74802">
        <ele>314.6</ele>
        <time>2025-08-06T06:56:14Z</time>
      </trkpt>
      <trkpt lat="45.7122" lon="4.74793">
        <ele>314.8</ele>
        <time>2025-08-06T06:56:15Z</time>
      </trkpt>
      <trkpt lat="45.71218" lon="4.74785">
        <ele>314.8</ele>
        <time>2025-08-06T06:56:16Z</time>
      </trkpt>
      <trkpt lat="45.71216" lon="4.74778">
        <ele>314.8</ele>
        <time>2025-08-06T06:56:17Z</time>
      </trkpt>
      <trkpt lat="45.71214" lon="4.7477">
        <ele>314.8</ele>
        <time>2025-08-06T06:56:18Z</time>
      </trkpt>
      <trkpt lat="45.71212" lon="4.74762">
        <ele>314.8</ele>
        <time>2025-08-06T06:56:19Z</time>
      </trkpt>
      <trkpt lat="45.7121" lon="4.74755">
        <ele>314.8</ele>
        <time>2025-08-06T06:56:20Z</time>
      </trkpt>
      <trkpt lat="45.71208" lon="4.74748">
        <ele>314.8</ele>
        <time>2025-08-06T06:56:21Z</time>
      </trkpt>
      <trkpt lat="45.71206" lon="4.7474">
        <ele>315</ele>
        <time>2025-08-06T06:56:22Z</time>
      </trkpt>
      <trkpt lat="45.71204" lon="4.74733">
        <ele>315.2</ele>
        <time>2025-08-06T06:56:23Z</time>
      </trkpt>
      <trkpt lat="45.71203" lon="4.74725">
        <ele>315.4</ele>
        <time>2025-08-06T06:56:24Z</time>
      </trkpt>
      <trkpt lat="45.71203" lon="4.74718">
        <ele>315.6</ele>
        <time>2025-08-06T06:56:25Z</time>
      </trkpt>
      <trkpt lat="45.71203" lon="4.74711">
        <ele>315.6</ele>
        <time>2025-08-06T06:56:26Z</time>
      </trkpt>
      <trkpt lat="45.71202" lon="4.74703">
        <ele>315.8</ele>
        <time>2025-08-06T06:56:27Z</time>
      </trkpt>
      <trkpt lat="45.71202" lon="4.74696">
        <ele>315.8</ele>
        <time>2025-08-06T06:56:28Z</time>
      </trkpt>
      <trkpt lat="45.71203" lon="4.74689">
        <ele>316</ele>
        <time>2025-08-06T06:56:29Z</time>
      </trkpt>
      <trkpt lat="45.71203" lon="4.74681">
        <ele>316</ele>
        <time>2025-08-06T06:56:30Z</time>
      </trkpt>
      <trkpt lat="45.71204" lon="4.74674">
        <ele>316.2</ele>
        <time>2025-08-06T06:56:31Z</time>
      </trkpt>
      <trkpt lat="45.71205" lon="4.74666">
        <ele>316.4</ele>
        <time>2025-08-06T06:56:32Z</time>
      </trkpt>
      <trkpt lat="45.71205" lon="4.74658">
        <ele>316.6</ele>
        <time>2025-08-06T06:56:33Z</time>
      </trkpt>
      <trkpt lat="45.71205" lon="4.7465">
        <ele>316.6</ele>
        <time>2025-08-06T06:56:34Z</time>
      </trkpt>
      <trkpt lat="45.71206" lon="4.74642">
        <ele>316.6</ele>
        <time>2025-08-06T06:56:35Z</time>
      </trkpt>
      <trkpt lat="45.71206" lon="4.74634">
        <ele>316.6</ele>
        <time>2025-08-06T06:56:36Z</time>
      </trkpt>
      <trkpt lat="45.71206" lon="4.74627">
        <ele>316.6</ele>
        <time>2025-08-06T06:56:37Z</time>
      </trkpt>
      <trkpt lat="45.71206" lon="4.74619">
        <ele>316.6</ele>
        <time>2025-08-06T06:56:38Z</time>
      </trkpt>
      <trkpt lat="45.71207" lon="4.74611">
        <ele>316.6</ele>
        <time>2025-08-06T06:56:39Z</time>
      </trkpt>
      <trkpt lat="45.71207" lon="4.74603">
        <ele>316.8</ele>
        <time>2025-08-06T06:56:40Z</time>
      </trkpt>
      <trkpt lat="45.71208" lon="4.74595">
        <ele>316.8</ele>
        <time>2025-08-06T06:56:41Z</time>
      </trkpt>
      <trkpt lat="45.71209" lon="4.74588">
        <ele>316.8</ele>
        <time>2025-08-06T06:56:42Z</time>
      </trkpt>
      <trkpt lat="45.7121" lon="4.7458">
        <ele>317</ele>
        <time>2025-08-06T06:56:43Z</time>
      </trkpt>
      <trkpt lat="45.71211" lon="4.74573">
        <ele>317</ele>
        <time>2025-08-06T06:56:44Z</time>
      </trkpt>
      <trkpt lat="45.71213" lon="4.74567">
        <ele>317.2</ele>
        <time>2025-08-06T06:56:45Z</time>
      </trkpt>
      <trkpt lat="45.71214" lon="4.74561">
        <ele>317.4</ele>
        <time>2025-08-06T06:56:46Z</time>
      </trkpt>
      <trkpt lat="45.71216" lon="4.74555">
        <ele>317.6</ele>
        <time>2025-08-06T06:56:47Z</time>
      </trkpt>
      <trkpt lat="45.71217" lon="4.74548">
        <ele>318</ele>
        <time>2025-08-06T06:56:48Z</time>
      </trkpt>
      <trkpt lat="45.71219" lon="4.74542">
        <ele>318.2</ele>
        <time>2025-08-06T06:56:49Z</time>
      </trkpt>
      <trkpt lat="45.7122" lon="4.74535">
        <ele>318.4</ele>
        <time>2025-08-06T06:56:50Z</time>
      </trkpt>
      <trkpt lat="45.71221" lon="4.74527">
        <ele>318.4</ele>
        <time>2025-08-06T06:56:51Z</time>
      </trkpt>
      <trkpt lat="45.71222" lon="4.7452">
        <ele>318.4</ele>
        <time>2025-08-06T06:56:52Z</time>
      </trkpt>
      <trkpt lat="45.71223" lon="4.74512">
        <ele>318.4</ele>
        <time>2025-08-06T06:56:53Z</time>
      </trkpt>
      <trkpt lat="45.71224" lon="4.74505">
        <ele>318.4</ele>
        <time>2025-08-06T06:56:54Z</time>
      </trkpt>
      <trkpt lat="45.71224" lon="4.74497">
        <ele>318.4</ele>
        <time>2025-08-06T06:56:55Z</time>
      </trkpt>
      <trkpt lat="45.71224" lon="4.7449">
        <ele>318.6</ele>
        <time>2025-08-06T06:56:56Z</time>
      </trkpt>
      <trkpt lat="45.71225" lon="4.74483">
        <ele>318.8</ele>
        <time>2025-08-06T06:56:57Z</time>
      </trkpt>
      <trkpt lat="45.71225" lon="4.74475">
        <ele>318.8</ele>
        <time>2025-08-06T06:56:58Z</time>
      </trkpt>
      <trkpt lat="45.71225" lon="4.74467">
        <ele>319</ele>
        <time>2025-08-06T06:56:59Z</time>
      </trkpt>
      <trkpt lat="45.71226" lon="4.74459">
        <ele>319</ele>
        <time>2025-08-06T06:57:00Z</time>
      </trkpt>
      <trkpt lat="45.71226" lon="4.7445">
        <ele>319</ele>
        <time>2025-08-06T06:57:01Z</time>
      </trkpt>
      <trkpt lat="45.71227" lon="4.74442">
        <ele>318.8</ele>
        <time>2025-08-06T06:57:02Z</time>
      </trkpt>
      <trkpt lat="45.71228" lon="4.74434">
        <ele>318.8</ele>
        <time>2025-08-06T06:57:03Z</time>
      </trkpt>
      <trkpt lat="45.71228" lon="4.74425">
        <ele>318.4</ele>
        <time>2025-08-06T06:57:04Z</time>
      </trkpt>
      <trkpt lat="45.71228" lon="4.74416">
        <ele>318.2</ele>
        <time>2025-08-06T06:57:05Z</time>
      </trkpt>
      <trkpt lat="45.71228" lon="4.74406">
        <ele>317.8</ele>
        <time>2025-08-06T06:57:06Z</time>
      </trkpt>
      <trkpt lat="45.71227" lon="4.74397">
        <ele>317.4</ele>
        <time>2025-08-06T06:57:07Z</time>
      </trkpt>
      <trkpt lat="45.71226" lon="4.74387">
        <ele>317</ele>
        <time>2025-08-06T06:57:08Z</time>
      </trkpt>
      <trkpt lat="45.71225" lon="4.74377">
        <ele>316.6</ele>
        <time>2025-08-06T06:57:09Z</time>
      </trkpt>
      <trkpt lat="45.71223" lon="4.74367">
        <ele>316.4</ele>
        <time>2025-08-06T06:57:10Z</time>
      </trkpt>
      <trkpt lat="45.71221" lon="4.74357">
        <ele>316</ele>
        <time>2025-08-06T06:57:11Z</time>
      </trkpt>
      <trkpt lat="45.71219" lon="4.74347">
        <ele>315.8</ele>
        <time>2025-08-06T06:57:12Z</time>
      </trkpt>
      <trkpt lat="45.71217" lon="4.74338">
        <ele>315.6</ele>
        <time>2025-08-06T06:57:13Z</time>
      </trkpt>
      <trkpt lat="45.71215" lon="4.74328">
        <ele>315.4</ele>
        <time>2025-08-06T06:57:14Z</time>
      </trkpt>
      <trkpt lat="45.71213" lon="4.74319">
        <ele>315</ele>
        <time>2025-08-06T06:57:15Z</time>
      </trkpt>
      <trkpt lat="45.7121" lon="4.7431">
        <ele>314.8</ele>
        <time>2025-08-06T06:57:16Z</time>
      </trkpt>
      <trkpt lat="45.71208" lon="4.743">
        <ele>314.8</ele>
        <time>2025-08-06T06:57:17Z</time>
      </trkpt>
      <trkpt lat="45.71205" lon="4.74291">
        <ele>314.6</ele>
        <time>2025-08-06T06:57:18Z</time>
      </trkpt>
      <trkpt lat="45.71202" lon="4.74282">
        <ele>314.6</ele>
        <time>2025-08-06T06:57:19Z</time>
      </trkpt>
      <trkpt lat="45.712" lon="4.74273">
        <ele>314.4</ele>
        <time>2025-08-06T06:57:20Z</time>
      </trkpt>
      <trkpt lat="45.71197" lon="4.74264">
        <ele>314.4</ele>
        <time>2025-08-06T06:57:21Z</time>
      </trkpt>
      <trkpt lat="45.71195" lon="4.74255">
        <ele>314.4</ele>
        <time>2025-08-06T06:57:22Z</time>
      </trkpt>
      <trkpt lat="45.71193" lon="4.74247">
        <ele>314.2</ele>
        <time>2025-08-06T06:57:23Z</time>
      </trkpt>
      <trkpt lat="45.71191" lon="4.74238">
        <ele>314.2</ele>
        <time>2025-08-06T06:57:24Z</time>
      </trkpt>
      <trkpt lat="45.7119" lon="4.7423">
        <ele>314.4</ele>
        <time>2025-08-06T06:57:25Z</time>
      </trkpt>
      <trkpt lat="45.71188" lon="4.74222">
        <ele>314.4</ele>
        <time>2025-08-06T06:57:26Z</time>
      </trkpt>
      <trkpt lat="45.71187" lon="4.74214">
        <ele>314.6</ele>
        <time>2025-08-06T06:57:27Z</time>
      </trkpt>
      <trkpt lat="45.71185" lon="4.74207">
        <ele>314.8</ele>
        <time>2025-08-06T06:57:28Z</time>
      </trkpt>
      <trkpt lat="45.71184" lon="4.74199">
        <ele>315</ele>
        <time>2025-08-06T06:57:29Z</time>
      </trkpt>
      <trkpt lat="45.71183" lon="4.74191">
        <ele>315.4</ele>
        <time>2025-08-06T06:57:30Z</time>
      </trkpt>
      <trkpt lat="45.71182" lon="4.74183">
        <ele>315.6</ele>
        <time>2025-08-06T06:57:31Z</time>
      </trkpt>
      <trkpt lat="45.7118" lon="4.74175">
        <ele>315.8</ele>
        <time>2025-08-06T06:57:32Z</time>
      </trkpt>
      <trkpt lat="45.71179" lon="4.74168">
        <ele>316</ele>
        <time>2025-08-06T06:57:33Z</time>
      </trkpt>
      <trkpt lat="45.71177" lon="4.7416">
        <ele>316.2</ele>
        <time>2025-08-06T06:57:34Z</time>
      </trkpt>
      <trkpt lat="45.71176" lon="4.74152">
        <ele>316.4</ele>
        <time>2025-08-06T06:57:35Z</time>
      </trkpt>
      <trkpt lat="45.71174" lon="4.74145">
        <ele>316.6</ele>
        <time>2025-08-06T06:57:36Z</time>
      </trkpt>
      <trkpt lat="45.71173" lon="4.74137">
        <ele>316.8</ele>
        <time>2025-08-06T06:57:37Z</time>
      </trkpt>
      <trkpt lat="45.71172" lon="4.74129">
        <ele>317</ele>
        <time>2025-08-06T06:57:38Z</time>
      </trkpt>
      <trkpt lat="45.71171" lon="4.74122">
        <ele>317</ele>
        <time>2025-08-06T06:57:39Z</time>
      </trkpt>
      <trkpt lat="45.7117" lon="4.74114">
        <ele>317.2</ele>
        <time>2025-08-06T06:57:40Z</time>
      </trkpt>
      <trkpt lat="45.71168" lon="4.74107">
        <ele>317.4</ele>
        <time>2025-08-06T06:57:41Z</time>
      </trkpt>
      <trkpt lat="45.71167" lon="4.741">
        <ele>317.6</ele>
        <time>2025-08-06T06:57:42Z</time>
      </trkpt>
      <trkpt lat="45.71166" lon="4.74092">
        <ele>317.8</ele>
        <time>2025-08-06T06:57:43Z</time>
      </trkpt>
      <trkpt lat="45.71164" lon="4.74084">
        <ele>317.8</ele>
        <time>2025-08-06T06:57:44Z</time>
      </trkpt>
      <trkpt lat="45.71164" lon="4.74077">
        <ele>318</ele>
        <time>2025-08-06T06:57:45Z</time>
      </trkpt>
      <trkpt lat="45.71164" lon="4.74069">
        <ele>318</ele>
        <time>2025-08-06T06:57:46Z</time>
      </trkpt>
      <trkpt lat="45.71165" lon="4.74061">
        <ele>318.2</ele>
        <time>2025-08-06T06:57:47Z</time>
      </trkpt>
      <trkpt lat="45.71166" lon="4.74053">
        <ele>318.4</ele>
        <time>2025-08-06T06:57:48Z</time>
      </trkpt>
      <trkpt lat="45.71167" lon="4.74046">
        <ele>318.4</ele>
        <time>2025-08-06T06:57:49Z</time>
      </trkpt>
      <trkpt lat="45.71167" lon="4.74038">
        <ele>318.6</ele>
        <time>2025-08-06T06:57:50Z</time>
      </trkpt>
      <trkpt lat="45.71168" lon="4.7403">
        <ele>318.6</ele>
        <time>2025-08-06T06:57:51Z</time>
      </trkpt>
      <trkpt lat="45.71169" lon="4.74022">
        <ele>318.6</ele>
        <time>2025-08-06T06:57:52Z</time>
      </trkpt>
      <trkpt lat="45.7117" lon="4.74015">
        <ele>318.8</ele>
        <time>2025-08-06T06:57:53Z</time>
      </trkpt>
      <trkpt lat="45.71171" lon="4.74007">
        <ele>318.8</ele>
        <time>2025-08-06T06:57:54Z</time>
      </trkpt>
      <trkpt lat="45.71171" lon="4.74">
        <ele>319</ele>
        <time>2025-08-06T06:57:55Z</time>
      </trkpt>
      <trkpt lat="45.71172" lon="4.73993">
        <ele>319.2</ele>
        <time>2025-08-06T06:57:56Z</time>
      </trkpt>
      <trkpt lat="45.71173" lon="4.73985">
        <ele>319.4</ele>
        <time>2025-08-06T06:57:57Z</time>
      </trkpt>
      <trkpt lat="45.71174" lon="4.73978">
        <ele>319.4</ele>
        <time>2025-08-06T06:57:58Z</time>
      </trkpt>
      <trkpt lat="45.71175" lon="4.73971">
        <ele>319.4</ele>
        <time>2025-08-06T06:57:59Z</time>
      </trkpt>
      <trkpt lat="45.71174" lon="4.73964">
        <ele>319.6</ele>
        <time>2025-08-06T06:58:00Z</time>
      </trkpt>
      <trkpt lat="45.71173" lon="4.73958">
        <ele>319.6</ele>
        <time>2025-08-06T06:58:01Z</time>
      </trkpt>
      <trkpt lat="45.71169" lon="4.73953">
        <ele>319.6</ele>
        <time>2025-08-06T06:58:02Z</time>
      </trkpt>
      <trkpt lat="45.71165" lon="4.73949">
        <ele>319.4</ele>
        <time>2025-08-06T06:58:03Z</time>
      </trkpt>
      <trkpt lat="45.7116" lon="4.73945">
        <ele>319.2</ele>
        <time>2025-08-06T06:58:04Z</time>
      </trkpt>
      <trkpt lat="45.71155" lon="4.73941">
        <ele>319</ele>
        <time>2025-08-06T06:58:05Z</time>
      </trkpt>
      <trkpt lat="45.7115" lon="4.73937">
        <ele>318.8</ele>
        <time>2025-08-06T06:58:06Z</time>
      </trkpt>
      <trkpt lat="45.71145" lon="4.73933">
        <ele>318.8</ele>
        <time>2025-08-06T06:58:07Z</time>
      </trkpt>
      <trkpt lat="45.7114" lon="4.73928">
        <ele>318.8</ele>
        <time>2025-08-06T06:58:08Z</time>
      </trkpt>
      <trkpt lat="45.71135" lon="4.73924">
        <ele>318.6</ele>
        <time>2025-08-06T06:58:09Z</time>
      </trkpt>
      <trkpt lat="45.71129" lon="4.73919">
        <ele>318.8</ele>
        <time>2025-08-06T06:58:10Z</time>
      </trkpt>
      <trkpt lat="45.71124" lon="4.73914">
        <ele>318.6</ele>
        <time>2025-08-06T06:58:11Z</time>
      </trkpt>
      <trkpt lat="45.71119" lon="4.7391">
        <ele>318.6</ele>
        <time>2025-08-06T06:58:12Z</time>
      </trkpt>
      <trkpt lat="45.71113" lon="4.73906">
        <ele>318.4</ele>
        <time>2025-08-06T06:58:13Z</time>
      </trkpt>
      <trkpt lat="45.71108" lon="4.73903">
        <ele>318.4</ele>
        <time>2025-08-06T06:58:14Z</time>
      </trkpt>
      <trkpt lat="45.71103" lon="4.739">
        <ele>318.2</ele>
        <time>2025-08-06T06:58:15Z</time>
      </trkpt>
      <trkpt lat="45.71097" lon="4.73896">
        <ele>317.8</ele>
        <time>2025-08-06T06:58:16Z</time>
      </trkpt>
      <trkpt lat="45.71093" lon="4.73891">
        <ele>317.6</ele>
        <time>2025-08-06T06:58:17Z</time>
      </trkpt>
      <trkpt lat="45.71089" lon="4.73884">
        <ele>317.4</ele>
        <time>2025-08-06T06:58:18Z</time>
      </trkpt>
      <trkpt lat="45.71085" lon="4.73879">
        <ele>317.2</ele>
        <time>2025-08-06T06:58:19Z</time>
      </trkpt>
      <trkpt lat="45.71081" lon="4.73874">
        <ele>317.2</ele>
        <time>2025-08-06T06:58:20Z</time>
      </trkpt>
      <trkpt lat="45.71076" lon="4.7387">
        <ele>317.2</ele>
        <time>2025-08-06T06:58:21Z</time>
      </trkpt>
      <trkpt lat="45.71071" lon="4.73866">
        <ele>317.2</ele>
        <time>2025-08-06T06:58:22Z</time>
      </trkpt>
      <trkpt lat="45.71065" lon="4.73861">
        <ele>317.2</ele>
        <time>2025-08-06T06:58:23Z</time>
      </trkpt>
      <trkpt lat="45.7106" lon="4.73856">
        <ele>317.2</ele>
        <time>2025-08-06T06:58:24Z</time>
      </trkpt>
      <trkpt lat="45.71055" lon="4.73851">
        <ele>317</ele>
        <time>2025-08-06T06:58:25Z</time>
      </trkpt>
      <trkpt lat="45.71049" lon="4.73846">
        <ele>317</ele>
        <time>2025-08-06T06:58:26Z</time>
      </trkpt>
      <trkpt lat="45.71043" lon="4.7384">
        <ele>316.8</ele>
        <time>2025-08-06T06:58:27Z</time>
      </trkpt>
      <trkpt lat="45.71038" lon="4.73834">
        <ele>316.6</ele>
        <time>2025-08-06T06:58:28Z</time>
      </trkpt>
      <trkpt lat="45.71033" lon="4.73828">
        <ele>316.4</ele>
        <time>2025-08-06T06:58:29Z</time>
      </trkpt>
      <trkpt lat="45.71028" lon="4.73823">
        <ele>316.2</ele>
        <time>2025-08-06T06:58:30Z</time>
      </trkpt>
      <trkpt lat="45.71023" lon="4.73817">
        <ele>316</ele>
        <time>2025-08-06T06:58:31Z</time>
      </trkpt>
      <trkpt lat="45.71018" lon="4.73811">
        <ele>315.8</ele>
        <time>2025-08-06T06:58:32Z</time>
      </trkpt>
      <trkpt lat="45.71013" lon="4.73805">
        <ele>315.6</ele>
        <time>2025-08-06T06:58:33Z</time>
      </trkpt>
      <trkpt lat="45.71008" lon="4.73799">
        <ele>315.4</ele>
        <time>2025-08-06T06:58:34Z</time>
      </trkpt>
      <trkpt lat="45.71003" lon="4.73793">
        <ele>315.2</ele>
        <time>2025-08-06T06:58:35Z</time>
      </trkpt>
      <trkpt lat="45.70998" lon="4.73787">
        <ele>314.8</ele>
        <time>2025-08-06T06:58:36Z</time>
      </trkpt>
      <trkpt lat="45.70993" lon="4.73781">
        <ele>314.6</ele>
        <time>2025-08-06T06:58:37Z</time>
      </trkpt>
      <trkpt lat="45.70988" lon="4.73776">
        <ele>314.4</ele>
        <time>2025-08-06T06:58:38Z</time>
      </trkpt>
      <trkpt lat="45.70982" lon="4.7377">
        <ele>314.2</ele>
        <time>2025-08-06T06:58:39Z</time>
      </trkpt>
      <trkpt lat="45.70977" lon="4.73764">
        <ele>314</ele>
        <time>2025-08-06T06:58:40Z</time>
      </trkpt>
      <trkpt lat="45.70972" lon="4.73758">
        <ele>313.6</ele>
        <time>2025-08-06T06:58:41Z</time>
      </trkpt>
      <trkpt lat="45.70967" lon="4.73751">
        <ele>313.4</ele>
        <time>2025-08-06T06:58:42Z</time>
      </trkpt>
      <trkpt lat="45.70962" lon="4.73746">
        <ele>313.2</ele>
        <time>2025-08-06T06:58:43Z</time>
      </trkpt>
      <trkpt lat="45.70957" lon="4.7374">
        <ele>313.2</ele>
        <time>2025-08-06T06:58:44Z</time>
      </trkpt>
      <trkpt lat="45.70952" lon="4.73735">
        <ele>313.2</ele>
        <time>2025-08-06T06:58:45Z</time>
      </trkpt>
      <trkpt lat="45.70947" lon="4.7373">
        <ele>313.4</ele>
        <time>2025-08-06T06:58:46Z</time>
      </trkpt>
      <trkpt lat="45.70943" lon="4.73724">
        <ele>313.4</ele>
        <time>2025-08-06T06:58:47Z</time>
      </trkpt>
      <trkpt lat="45.7094" lon="4.73719">
        <ele>313.4</ele>
        <time>2025-08-06T06:58:48Z</time>
      </trkpt>
      <trkpt lat="45.70938" lon="4.73714">
        <ele>313.4</ele>
        <time>2025-08-06T06:58:49Z</time>
      </trkpt>
      <trkpt lat="45.70937" lon="4.73712">
        <ele>313.4</ele>
        <time>2025-08-06T06:58:50Z</time>
      </trkpt>
      <trkpt lat="45.70936" lon="4.73711">
        <ele>313.6</ele>
        <time>2025-08-06T06:58:51Z</time>
      </trkpt>
      <trkpt lat="45.70936" lon="4.73711">
        <ele>313.6</ele>
        <time>2025-08-06T06:58:52Z</time>
      </trkpt>
      <trkpt lat="45.70936" lon="4.73711">
        <ele>313.8</ele>
        <time>2025-08-06T06:58:53Z</time>
      </trkpt>
      <trkpt lat="45.70934" lon="4.73708">
        <ele>314.4</ele>
        <time>2025-08-06T07:00:14Z</time>
      </trkpt>
      <trkpt lat="45.70931" lon="4.73706">
        <ele>315</ele>
        <time>2025-08-06T07:00:15Z</time>
      </trkpt>
      <trkpt lat="45.70928" lon="4.73704">
        <ele>314.8</ele>
        <time>2025-08-06T07:00:16Z</time>
      </trkpt>
      <trkpt lat="45.70924" lon="4.73701">
        <ele>314.6</ele>
        <time>2025-08-06T07:00:17Z</time>
      </trkpt>
      <trkpt lat="45.7092" lon="4.73698">
        <ele>314.6</ele>
        <time>2025-08-06T07:00:18Z</time>
      </trkpt>
      <trkpt lat="45.70917" lon="4.73695">
        <ele>314.4</ele>
        <time>2025-08-06T07:00:19Z</time>
      </trkpt>
      <trkpt lat="45.70913" lon="4.73692">
        <ele>314.4</ele>
        <time>2025-08-06T07:00:20Z</time>
      </trkpt>
      <trkpt lat="45.7091" lon="4.73689">
        <ele>314.4</ele>
        <time>2025-08-06T07:00:21Z</time>
      </trkpt>
      <trkpt lat="45.70906" lon="4.73686">
        <ele>314.4</ele>
        <time>2025-08-06T07:00:22Z</time>
      </trkpt>
      <trkpt lat="45.70902" lon="4.73684">
        <ele>314.4</ele>
        <time>2025-08-06T07:00:23Z</time>
      </trkpt>
      <trkpt lat="45.70898" lon="4.73681">
        <ele>314.4</ele>
        <time>2025-08-06T07:00:24Z</time>
      </trkpt>
      <trkpt lat="45.70893" lon="4.73678">
        <ele>314.2</ele>
        <time>2025-08-06T07:00:25Z</time>
      </trkpt>
      <trkpt lat="45.70889" lon="4.73674">
        <ele>314.2</ele>
        <time>2025-08-06T07:00:26Z</time>
      </trkpt>
      <trkpt lat="45.70886" lon="4.73669">
        <ele>314</ele>
        <time>2025-08-06T07:00:27Z</time>
      </trkpt>
      <trkpt lat="45.70882" lon="4.73664">
        <ele>314</ele>
        <time>2025-08-06T07:00:28Z</time>
      </trkpt>
      <trkpt lat="45.70879" lon="4.73658">
        <ele>313.8</ele>
        <time>2025-08-06T07:00:29Z</time>
      </trkpt>
      <trkpt lat="45.70875" lon="4.73652">
        <ele>313.6</ele>
        <time>2025-08-06T07:00:30Z</time>
      </trkpt>
      <trkpt lat="45.70871" lon="4.73647">
        <ele>313.6</ele>
        <time>2025-08-06T07:00:31Z</time>
      </trkpt>
      <trkpt lat="45.70867" lon="4.73642">
        <ele>313.4</ele>
        <time>2025-08-06T07:00:32Z</time>
      </trkpt>
      <trkpt lat="45.70863" lon="4.73637">
        <ele>313.4</ele>
        <time>2025-08-06T07:00:33Z</time>
      </trkpt>
      <trkpt lat="45.70858" lon="4.73633">
        <ele>313.4</ele>
        <time>2025-08-06T07:00:34Z</time>
      </trkpt>
      <trkpt lat="45.70854" lon="4.73628">
        <ele>313.2</ele>
        <time>2025-08-06T07:00:35Z</time>
      </trkpt>
      <trkpt lat="45.7085" lon="4.73623">
        <ele>313.2</ele>
        <time>2025-08-06T07:00:36Z</time>
      </trkpt>
      <trkpt lat="45.70845" lon="4.73618">
        <ele>313</ele>
        <time>2025-08-06T07:00:37Z</time>
      </trkpt>
      <trkpt lat="45.70841" lon="4.73613">
        <ele>313</ele>
        <time>2025-08-06T07:00:38Z</time>
      </trkpt>
      <trkpt lat="45.70837" lon="4.73608">
        <ele>313</ele>
        <time>2025-08-06T07:00:39Z</time>
      </trkpt>
      <trkpt lat="45.70832" lon="4.73604">
        <ele>313</ele>
        <time>2025-08-06T07:00:40Z</time>
      </trkpt>
      <trkpt lat="45.70828" lon="4.736">
        <ele>313</ele>
        <time>2025-08-06T07:00:41Z</time>
      </trkpt>
      <trkpt lat="45.70824" lon="4.73597">
        <ele>313.2</ele>
        <time>2025-08-06T07:00:42Z</time>
      </trkpt>
      <trkpt lat="45.70819" lon="4.73593">
        <ele>313.4</ele>
        <time>2025-08-06T07:00:43Z</time>
      </trkpt>
      <trkpt lat="45.70815" lon="4.73589">
        <ele>313.6</ele>
        <time>2025-08-06T07:00:44Z</time>
      </trkpt>
      <trkpt lat="45.7081" lon="4.73584">
        <ele>313.8</ele>
        <time>2025-08-06T07:00:45Z</time>
      </trkpt>
      <trkpt lat="45.70806" lon="4.7358">
        <ele>314</ele>
        <time>2025-08-06T07:00:46Z</time>
      </trkpt>
      <trkpt lat="45.70801" lon="4.73576">
        <ele>314.2</ele>
        <time>2025-08-06T07:00:47Z</time>
      </trkpt>
      <trkpt lat="45.70797" lon="4.73572">
        <ele>314.2</ele>
        <time>2025-08-06T07:00:48Z</time>
      </trkpt>
      <trkpt lat="45.70792" lon="4.73567">
        <ele>314.2</ele>
        <time>2025-08-06T07:00:49Z</time>
      </trkpt>
      <trkpt lat="45.70788" lon="4.73563">
        <ele>314</ele>
        <time>2025-08-06T07:00:50Z</time>
      </trkpt>
      <trkpt lat="45.70784" lon="4.73558">
        <ele>314</ele>
        <time>2025-08-06T07:00:51Z</time>
      </trkpt>
      <trkpt lat="45.70779" lon="4.73553">
        <ele>313.8</ele>
        <time>2025-08-06T07:00:52Z</time>
      </trkpt>
      <trkpt lat="45.70774" lon="4.73548">
        <ele>313.8</ele>
        <time>2025-08-06T07:00:53Z</time>
      </trkpt>
      <trkpt lat="45.70769" lon="4.73544">
        <ele>313.6</ele>
        <time>2025-08-06T07:00:54Z</time>
      </trkpt>
      <trkpt lat="45.70765" lon="4.73539">
        <ele>313.4</ele>
        <time>2025-08-06T07:00:55Z</time>
      </trkpt>
      <trkpt lat="45.7076" lon="4.73535">
        <ele>313.2</ele>
        <time>2025-08-06T07:00:56Z</time>
      </trkpt>
      <trkpt lat="45.70755" lon="4.73529">
        <ele>313</ele>
        <time>2025-08-06T07:00:57Z</time>
      </trkpt>
      <trkpt lat="45.7075" lon="4.73524">
        <ele>312.8</ele>
        <time>2025-08-06T07:00:58Z</time>
      </trkpt>
      <trkpt lat="45.70745" lon="4.73519">
        <ele>312.6</ele>
        <time>2025-08-06T07:00:59Z</time>
      </trkpt>
      <trkpt lat="45.7074" lon="4.73513">
        <ele>312.4</ele>
        <time>2025-08-06T07:01:00Z</time>
      </trkpt>
      <trkpt lat="45.70735" lon="4.73508">
        <ele>312.2</ele>
        <time>2025-08-06T07:01:01Z</time>
      </trkpt>
      <trkpt lat="45.7073" lon="4.73503">
        <ele>312</ele>
        <time>2025-08-06T07:01:02Z</time>
      </trkpt>
      <trkpt lat="45.70725" lon="4.73498">
        <ele>312</ele>
        <time>2025-08-06T07:01:03Z</time>
      </trkpt>
      <trkpt lat="45.7072" lon="4.73493">
        <ele>312</ele>
        <time>2025-08-06T07:01:04Z</time>
      </trkpt>
      <trkpt lat="45.70715" lon="4.73488">
        <ele>311.8</ele>
        <time>2025-08-06T07:01:05Z</time>
      </trkpt>
      <trkpt lat="45.70711" lon="4.73483">
        <ele>311.8</ele>
        <time>2025-08-06T07:01:06Z</time>
      </trkpt>
      <trkpt lat="45.70706" lon="4.73478">
        <ele>311.6</ele>
        <time>2025-08-06T07:01:07Z</time>
      </trkpt>
      <trkpt lat="45.70702" lon="4.73474">
        <ele>311.6</ele>
        <time>2025-08-06T07:01:08Z</time>
      </trkpt>
      <trkpt lat="45.70697" lon="4.73468">
        <ele>311.4</ele>
        <time>2025-08-06T07:01:09Z</time>
      </trkpt>
      <trkpt lat="45.70693" lon="4.73463">
        <ele>311.4</ele>
        <time>2025-08-06T07:01:10Z</time>
      </trkpt>
      <trkpt lat="45.70688" lon="4.73458">
        <ele>311.2</ele>
        <time>2025-08-06T07:01:11Z</time>
      </trkpt>
      <trkpt lat="45.70684" lon="4.73453">
        <ele>311.2</ele>
        <time>2025-08-06T07:01:12Z</time>
      </trkpt>
      <trkpt lat="45.70679" lon="4.73448">
        <ele>311</ele>
        <time>2025-08-06T07:01:13Z</time>
      </trkpt>
      <trkpt lat="45.70674" lon="4.73442">
        <ele>310.8</ele>
        <time>2025-08-06T07:01:14Z</time>
      </trkpt>
      <trkpt lat="45.7067" lon="4.73436">
        <ele>310.6</ele>
        <time>2025-08-06T07:01:15Z</time>
      </trkpt>
      <trkpt lat="45.70665" lon="4.7343">
        <ele>310.4</ele>
        <time>2025-08-06T07:01:16Z</time>
      </trkpt>
      <trkpt lat="45.70661" lon="4.73424">
        <ele>310.2</ele>
        <time>2025-08-06T07:01:17Z</time>
      </trkpt>
      <trkpt lat="45.70656" lon="4.73418">
        <ele>310.2</ele>
        <time>2025-08-06T07:01:18Z</time>
      </trkpt>
      <trkpt lat="45.70652" lon="4.73412">
        <ele>310</ele>
        <time>2025-08-06T07:01:19Z</time>
      </trkpt>
      <trkpt lat="45.70647" lon="4.73405">
        <ele>310</ele>
        <time>2025-08-06T07:01:20Z</time>
      </trkpt>
      <trkpt lat="45.70642" lon="4.73399">
        <ele>309.8</ele>
        <time>2025-08-06T07:01:21Z</time>
      </trkpt>
      <trkpt lat="45.70637" lon="4.73393">
        <ele>309.6</ele>
        <time>2025-08-06T07:01:22Z</time>
      </trkpt>
      <trkpt lat="45.70633" lon="4.73386">
        <ele>309.4</ele>
        <time>2025-08-06T07:01:23Z</time>
      </trkpt>
      <trkpt lat="45.70629" lon="4.7338">
        <ele>309.2</ele>
        <time>2025-08-06T07:01:24Z</time>
      </trkpt>
      <trkpt lat="45.70625" lon="4.73374">
        <ele>309</ele>
        <time>2025-08-06T07:01:25Z</time>
      </trkpt>
      <trkpt lat="45.70621" lon="4.73368">
        <ele>308.8</ele>
        <time>2025-08-06T07:01:26Z</time>
      </trkpt>
      <trkpt lat="45.70616" lon="4.73361">
        <ele>308.8</ele>
        <time>2025-08-06T07:01:27Z</time>
      </trkpt>
      <trkpt lat="45.70612" lon="4.73355">
        <ele>308.8</ele>
        <time>2025-08-06T07:01:28Z</time>
      </trkpt>
      <trkpt lat="45.70608" lon="4.73348">
        <ele>308.8</ele>
        <time>2025-08-06T07:01:29Z</time>
      </trkpt>
      <trkpt lat="45.70604" lon="4.73342">
        <ele>308.8</ele>
        <time>2025-08-06T07:01:30Z</time>
      </trkpt>
      <trkpt lat="45.706" lon="4.73336">
        <ele>308.8</ele>
        <time>2025-08-06T07:01:31Z</time>
      </trkpt>
      <trkpt lat="45.70596" lon="4.7333">
        <ele>308.8</ele>
        <time>2025-08-06T07:01:32Z</time>
      </trkpt>
      <trkpt lat="45.70592" lon="4.73324">
        <ele>308.8</ele>
        <time>2025-08-06T07:01:33Z</time>
      </trkpt>
      <trkpt lat="45.70587" lon="4.73319">
        <ele>308.8</ele>
        <time>2025-08-06T07:01:34Z</time>
      </trkpt>
      <trkpt lat="45.70583" lon="4.73313">
        <ele>308.8</ele>
        <time>2025-08-06T07:01:35Z</time>
      </trkpt>
      <trkpt lat="45.70579" lon="4.73308">
        <ele>308.6</ele>
        <time>2025-08-06T07:01:36Z</time>
      </trkpt>
      <trkpt lat="45.70575" lon="4.73302">
        <ele>308.6</ele>
        <time>2025-08-06T07:01:37Z</time>
      </trkpt>
      <trkpt lat="45.70571" lon="4.73297">
        <ele>308.6</ele>
        <time>2025-08-06T07:01:38Z</time>
      </trkpt>
      <trkpt lat="45.70566" lon="4.73291">
        <ele>308.6</ele>
        <time>2025-08-06T07:01:39Z</time>
      </trkpt>
      <trkpt lat="45.70562" lon="4.73286">
        <ele>308.6</ele>
        <time>2025-08-06T07:01:40Z</time>
      </trkpt>
      <trkpt lat="45.70557" lon="4.73282">
        <ele>308.6</ele>
        <time>2025-08-06T07:01:41Z</time>
      </trkpt>
      <trkpt lat="45.70552" lon="4.73278">
        <ele>308.6</ele>
        <time>2025-08-06T07:01:42Z</time>
      </trkpt>
      <trkpt lat="45.70547" lon="4.73274">
        <ele>308.8</ele>
        <time>2025-08-06T07:01:43Z</time>
      </trkpt>
      <trkpt lat="45.70542" lon="4.7327">
        <ele>308.8</ele>
        <time>2025-08-06T07:01:44Z</time>
      </trkpt>
      <trkpt lat="45.70537" lon="4.73266">
        <ele>308.8</ele>
        <time>2025-08-06T07:01:45Z</time>
      </trkpt>
      <trkpt lat="45.70532" lon="4.73262">
        <ele>308.8</ele>
        <time>2025-08-06T07:01:46Z</time>
      </trkpt>
      <trkpt lat="45.70527" lon="4.73258">
        <ele>308.8</ele>
        <time>2025-08-06T07:01:47Z</time>
      </trkpt>
      <trkpt lat="45.70522" lon="4.73254">
        <ele>308.6</ele>
        <time>2025-08-06T07:01:48Z</time>
      </trkpt>
      <trkpt lat="45.70516" lon="4.73251">
        <ele>308.6</ele>
        <time>2025-08-06T07:01:49Z</time>
      </trkpt>
      <trkpt lat="45.70511" lon="4.73247">
        <ele>308.6</ele>
        <time>2025-08-06T07:01:50Z</time>
      </trkpt>
      <trkpt lat="45.70506" lon="4.73243">
        <ele>308.6</ele>
        <time>2025-08-06T07:01:51Z</time>
      </trkpt>
      <trkpt lat="45.705" lon="4.73239">
        <ele>308.6</ele>
        <time>2025-08-06T07:01:52Z</time>
      </trkpt>
      <trkpt lat="45.70495" lon="4.73236">
        <ele>308.6</ele>
        <time>2025-08-06T07:01:53Z</time>
      </trkpt>
      <trkpt lat="45.70491" lon="4.73232">
        <ele>308.6</ele>
        <time>2025-08-06T07:01:54Z</time>
      </trkpt>
      <trkpt lat="45.70485" lon="4.73229">
        <ele>308.8</ele>
        <time>2025-08-06T07:01:55Z</time>
      </trkpt>
      <trkpt lat="45.7048" lon="4.73225">
        <ele>308.8</ele>
        <time>2025-08-06T07:01:56Z</time>
      </trkpt>
      <trkpt lat="45.70476" lon="4.73222">
        <ele>308.8</ele>
        <time>2025-08-06T07:01:57Z</time>
      </trkpt>
      <trkpt lat="45.70471" lon="4.73219">
        <ele>309</ele>
        <time>2025-08-06T07:01:58Z</time>
      </trkpt>
      <trkpt lat="45.70466" lon="4.73216">
        <ele>309</ele>
        <time>2025-08-06T07:01:59Z</time>
      </trkpt>
      <trkpt lat="45.7046" lon="4.73212">
        <ele>309</ele>
        <time>2025-08-06T07:02:00Z</time>
      </trkpt>
      <trkpt lat="45.70455" lon="4.73209">
        <ele>309</ele>
        <time>2025-08-06T07:02:01Z</time>
      </trkpt>
      <trkpt lat="45.7045" lon="4.73205">
        <ele>309</ele>
        <time>2025-08-06T07:02:02Z</time>
      </trkpt>
      <trkpt lat="45.70445" lon="4.73202">
        <ele>309</ele>
        <time>2025-08-06T07:02:03Z</time>
      </trkpt>
      <trkpt lat="45.7044" lon="4.73198">
        <ele>309</ele>
        <time>2025-08-06T07:02:04Z</time>
      </trkpt>
      <trkpt lat="45.70435" lon="4.73194">
        <ele>309</ele>
        <time>2025-08-06T07:02:05Z</time>
      </trkpt>
      <trkpt lat="45.70429" lon="4.73191">
        <ele>309</ele>
        <time>2025-08-06T07:02:06Z</time>
      </trkpt>
      <trkpt lat="45.70424" lon="4.73187">
        <ele>309</ele>
        <time>2025-08-06T07:02:07Z</time>
      </trkpt>
      <trkpt lat="45.70419" lon="4.73184">
        <ele>309</ele>
        <time>2025-08-06T07:02:08Z</time>
      </trkpt>
      <trkpt lat="45.70414" lon="4.7318">
        <ele>309</ele>
        <time>2025-08-06T07:02:09Z</time>
      </trkpt>
      <trkpt lat="45.70409" lon="4.73176">
        <ele>309</ele>
        <time>2025-08-06T07:02:10Z</time>
      </trkpt>
      <trkpt lat="45.70404" lon="4.73173">
        <ele>309.2</ele>
        <time>2025-08-06T07:02:11Z</time>
      </trkpt>
      <trkpt lat="45.70398" lon="4.73169">
        <ele>309.2</ele>
        <time>2025-08-06T07:02:12Z</time>
      </trkpt>
      <trkpt lat="45.70393" lon="4.73165">
        <ele>309.2</ele>
        <time>2025-08-06T07:02:13Z</time>
      </trkpt>
      <trkpt lat="45.70388" lon="4.73161">
        <ele>309.2</ele>
        <time>2025-08-06T07:02:14Z</time>
      </trkpt>
      <trkpt lat="45.70383" lon="4.73157">
        <ele>309.2</ele>
        <time>2025-08-06T07:02:15Z</time>
      </trkpt>
      <trkpt lat="45.70378" lon="4.73153">
        <ele>309.2</ele>
        <time>2025-08-06T07:02:16Z</time>
      </trkpt>
      <trkpt lat="45.70373" lon="4.73148">
        <ele>309.2</ele>
        <time>2025-08-06T07:02:17Z</time>
      </trkpt>
      <trkpt lat="45.70369" lon="4.73143">
        <ele>309.2</ele>
        <time>2025-08-06T07:02:18Z</time>
      </trkpt>
      <trkpt lat="45.70364" lon="4.73139">
        <ele>309.2</ele>
        <time>2025-08-06T07:02:19Z</time>
      </trkpt>
      <trkpt lat="45.7036" lon="4.73134">
        <ele>309.2</ele>
        <time>2025-08-06T07:02:20Z</time>
      </trkpt>
      <trkpt lat="45.70355" lon="4.73129">
        <ele>309.2</ele>
        <time>2025-08-06T07:02:21Z</time>
      </trkpt>
      <trkpt lat="45.70351" lon="4.73124">
        <ele>309.2</ele>
        <time>2025-08-06T07:02:22Z</time>
      </trkpt>
      <trkpt lat="45.70348" lon="4.73119">
        <ele>309.2</ele>
        <time>2025-08-06T07:02:23Z</time>
      </trkpt>
      <trkpt lat="45.70344" lon="4.73114">
        <ele>309.4</ele>
        <time>2025-08-06T07:02:24Z</time>
      </trkpt>
      <trkpt lat="45.7034" lon="4.73109">
        <ele>309.4</ele>
        <time>2025-08-06T07:02:25Z</time>
      </trkpt>
      <trkpt lat="45.70337" lon="4.73105">
        <ele>309.6</ele>
        <time>2025-08-06T07:02:26Z</time>
      </trkpt>
      <trkpt lat="45.70334" lon="4.731">
        <ele>309.8</ele>
        <time>2025-08-06T07:02:27Z</time>
      </trkpt>
      <trkpt lat="45.70331" lon="4.73096">
        <ele>309.8</ele>
        <time>2025-08-06T07:02:28Z</time>
      </trkpt>
      <trkpt lat="45.70329" lon="4.73092">
        <ele>310</ele>
        <time>2025-08-06T07:02:29Z</time>
      </trkpt>
      <trkpt lat="45.70327" lon="4.73089">
        <ele>310.2</ele>
        <time>2025-08-06T07:02:30Z</time>
      </trkpt>
      <trkpt lat="45.70325" lon="4.73086">
        <ele>310.4</ele>
        <time>2025-08-06T07:02:31Z</time>
      </trkpt>
      <trkpt lat="45.70323" lon="4.73082">
        <ele>310.6</ele>
        <time>2025-08-06T07:02:32Z</time>
      </trkpt>
      <trkpt lat="45.7032" lon="4.73078">
        <ele>310.6</ele>
        <time>2025-08-06T07:02:33Z</time>
      </trkpt>
      <trkpt lat="45.70317" lon="4.73073">
        <ele>310.6</ele>
        <time>2025-08-06T07:02:34Z</time>
      </trkpt>
      <trkpt lat="45.70313" lon="4.73068">
        <ele>310.4</ele>
        <time>2025-08-06T07:02:35Z</time>
      </trkpt>
      <trkpt lat="45.7031" lon="4.73063">
        <ele>310.4</ele>
        <time>2025-08-06T07:02:36Z</time>
      </trkpt>
      <trkpt lat="45.70306" lon="4.73058">
        <ele>310.2</ele>
        <time>2025-08-06T07:02:37Z</time>
      </trkpt>
      <trkpt lat="45.70302" lon="4.73052">
        <ele>310</ele>
        <time>2025-08-06T07:02:38Z</time>
      </trkpt>
      <trkpt lat="45.70299" lon="4.73047">
        <ele>310</ele>
        <time>2025-08-06T07:02:39Z</time>
      </trkpt>
      <trkpt lat="45.70296" lon="4.73041">
        <ele>309.8</ele>
        <time>2025-08-06T07:02:40Z</time>
      </trkpt>
      <trkpt lat="45.70292" lon="4.73036">
        <ele>309.8</ele>
        <time>2025-08-06T07:02:41Z</time>
      </trkpt>
      <trkpt lat="45.70289" lon="4.7303">
        <ele>309.8</ele>
        <time>2025-08-06T07:02:42Z</time>
      </trkpt>
      <trkpt lat="45.70285" lon="4.73024">
        <ele>309.6</ele>
        <time>2025-08-06T07:02:43Z</time>
      </trkpt>
      <trkpt lat="45.70281" lon="4.73019">
        <ele>309.8</ele>
        <time>2025-08-06T07:02:44Z</time>
      </trkpt>
      <trkpt lat="45.70278" lon="4.73013">
        <ele>309.8</ele>
        <time>2025-08-06T07:02:45Z</time>
      </trkpt>
      <trkpt lat="45.70274" lon="4.73008">
        <ele>310</ele>
        <time>2025-08-06T07:02:46Z</time>
      </trkpt>
      <trkpt lat="45.7027" lon="4.73002">
        <ele>310.2</ele>
        <time>2025-08-06T07:02:47Z</time>
      </trkpt>
      <trkpt lat="45.70266" lon="4.72997">
        <ele>310.2</ele>
        <time>2025-08-06T07:02:48Z</time>
      </trkpt>
      <trkpt lat="45.70263" lon="4.72991">
        <ele>310.2</ele>
        <time>2025-08-06T07:02:49Z</time>
      </trkpt>
      <trkpt lat="45.70259" lon="4.72985">
        <ele>310.2</ele>
        <time>2025-08-06T07:02:50Z</time>
      </trkpt>
      <trkpt lat="45.70255" lon="4.7298">
        <ele>310.2</ele>
        <time>2025-08-06T07:02:51Z</time>
      </trkpt>
      <trkpt lat="45.70251" lon="4.72974">
        <ele>310.2</ele>
        <time>2025-08-06T07:02:52Z</time>
      </trkpt>
      <trkpt lat="45.70246" lon="4.72968">
        <ele>310.4</ele>
        <time>2025-08-06T07:02:53Z</time>
      </trkpt>
      <trkpt lat="45.70242" lon="4.72962">
        <ele>310.2</ele>
        <time>2025-08-06T07:02:54Z</time>
      </trkpt>
      <trkpt lat="45.70238" lon="4.72956">
        <ele>310.2</ele>
        <time>2025-08-06T07:02:55Z</time>
      </trkpt>
      <trkpt lat="45.70234" lon="4.7295">
        <ele>310</ele>
        <time>2025-08-06T07:02:56Z</time>
      </trkpt>
      <trkpt lat="45.7023" lon="4.72944">
        <ele>309.8</ele>
        <time>2025-08-06T07:02:57Z</time>
      </trkpt>
      <trkpt lat="45.70227" lon="4.72938">
        <ele>309.6</ele>
        <time>2025-08-06T07:02:58Z</time>
      </trkpt>
      <trkpt lat="45.70223" lon="4.72932">
        <ele>309.6</ele>
        <time>2025-08-06T07:02:59Z</time>
      </trkpt>
      <trkpt lat="45.70219" lon="4.72925">
        <ele>309.4</ele>
        <time>2025-08-06T07:03:00Z</time>
      </trkpt>
      <trkpt lat="45.70216" lon="4.72919">
        <ele>309.4</ele>
        <time>2025-08-06T07:03:01Z</time>
      </trkpt>
      <trkpt lat="45.70212" lon="4.72912">
        <ele>309.4</ele>
        <time>2025-08-06T07:03:02Z</time>
      </trkpt>
      <trkpt lat="45.70209" lon="4.72906">
        <ele>309.4</ele>
        <time>2025-08-06T07:03:03Z</time>
      </trkpt>
      <trkpt lat="45.70205" lon="4.72899">
        <ele>309.6</ele>
        <time>2025-08-06T07:03:04Z</time>
      </trkpt>
      <trkpt lat="45.70202" lon="4.72893">
        <ele>309.6</ele>
        <time>2025-08-06T07:03:05Z</time>
      </trkpt>
      <trkpt lat="45.70198" lon="4.72887">
        <ele>309.6</ele>
        <time>2025-08-06T07:03:06Z</time>
      </trkpt>
      <trkpt lat="45.70195" lon="4.7288">
        <ele>309.6</ele>
        <time>2025-08-06T07:03:07Z</time>
      </trkpt>
      <trkpt lat="45.70192" lon="4.72873">
        <ele>309.4</ele>
        <time>2025-08-06T07:03:08Z</time>
      </trkpt>
      <trkpt lat="45.70188" lon="4.72867">
        <ele>309.4</ele>
        <time>2025-08-06T07:03:09Z</time>
      </trkpt>
      <trkpt lat="45.70185" lon="4.7286">
        <ele>309.4</ele>
        <time>2025-08-06T07:03:10Z</time>
      </trkpt>
      <trkpt lat="45.70183" lon="4.72854">
        <ele>309.4</ele>
        <time>2025-08-06T07:03:11Z</time>
      </trkpt>
      <trkpt lat="45.7018" lon="4.72847">
        <ele>309.6</ele>
        <time>2025-08-06T07:03:12Z</time>
      </trkpt>
      <trkpt lat="45.70176" lon="4.7284">
        <ele>309.6</ele>
        <time>2025-08-06T07:03:13Z</time>
      </trkpt>
      <trkpt lat="45.70173" lon="4.72832">
        <ele>309.6</ele>
        <time>2025-08-06T07:03:14Z</time>
      </trkpt>
      <trkpt lat="45.70171" lon="4.72825">
        <ele>309.6</ele>
        <time>2025-08-06T07:03:15Z</time>
      </trkpt>
      <trkpt lat="45.70168" lon="4.72819">
        <ele>309.6</ele>
        <time>2025-08-06T07:03:16Z</time>
      </trkpt>
      <trkpt lat="45.70165" lon="4.72812">
        <ele>309.6</ele>
        <time>2025-08-06T07:03:17Z</time>
      </trkpt>
      <trkpt lat="45.70162" lon="4.72804">
        <ele>309.4</ele>
        <time>2025-08-06T07:03:18Z</time>
      </trkpt>
      <trkpt lat="45.70159" lon="4.72797">
        <ele>309.4</ele>
        <time>2025-08-06T07:03:19Z</time>
      </trkpt>
      <trkpt lat="45.70156" lon="4.7279">
        <ele>309.2</ele>
        <time>2025-08-06T07:03:20Z</time>
      </trkpt>
      <trkpt lat="45.70154" lon="4.72783">
        <ele>309</ele>
        <time>2025-08-06T07:03:21Z</time>
      </trkpt>
      <trkpt lat="45.70151" lon="4.72776">
        <ele>309</ele>
        <time>2025-08-06T07:03:22Z</time>
      </trkpt>
      <trkpt lat="45.70149" lon="4.7277">
        <ele>308.8</ele>
        <time>2025-08-06T07:03:23Z</time>
      </trkpt>
      <trkpt lat="45.70146" lon="4.72763">
        <ele>308.8</ele>
        <time>2025-08-06T07:03:24Z</time>
      </trkpt>
      <trkpt lat="45.70143" lon="4.72756">
        <ele>309</ele>
        <time>2025-08-06T07:03:25Z</time>
      </trkpt>
      <trkpt lat="45.70141" lon="4.72749">
        <ele>309</ele>
        <time>2025-08-06T07:03:26Z</time>
      </trkpt>
      <trkpt lat="45.70138" lon="4.72742">
        <ele>309.2</ele>
        <time>2025-08-06T07:03:27Z</time>
      </trkpt>
      <trkpt lat="45.70135" lon="4.72735">
        <ele>309.2</ele>
        <time>2025-08-06T07:03:28Z</time>
      </trkpt>
      <trkpt lat="45.70132" lon="4.72728">
        <ele>309.2</ele>
        <time>2025-08-06T07:03:29Z</time>
      </trkpt>
      <trkpt lat="45.70129" lon="4.72721">
        <ele>309</ele>
        <time>2025-08-06T07:03:30Z</time>
      </trkpt>
      <trkpt lat="45.70127" lon="4.72714">
        <ele>309</ele>
        <time>2025-08-06T07:03:31Z</time>
      </trkpt>
      <trkpt lat="45.70124" lon="4.72707">
        <ele>308.8</ele>
        <time>2025-08-06T07:03:32Z</time>
      </trkpt>
      <trkpt lat="45.70121" lon="4.727">
        <ele>308.8</ele>
        <time>2025-08-06T07:03:33Z</time>
      </trkpt>
      <trkpt lat="45.70118" lon="4.72693">
        <ele>309</ele>
        <time>2025-08-06T07:03:34Z</time>
      </trkpt>
      <trkpt lat="45.70116" lon="4.72686">
        <ele>309</ele>
        <time>2025-08-06T07:03:35Z</time>
      </trkpt>
      <trkpt lat="45.70113" lon="4.7268">
        <ele>309</ele>
        <time>2025-08-06T07:03:36Z</time>
      </trkpt>
      <trkpt lat="45.7011" lon="4.72673">
        <ele>309</ele>
        <time>2025-08-06T07:03:37Z</time>
      </trkpt>
      <trkpt lat="45.70107" lon="4.72668">
        <ele>309</ele>
        <time>2025-08-06T07:03:38Z</time>
      </trkpt>
      <trkpt lat="45.70103" lon="4.72663">
        <ele>309</ele>
        <time>2025-08-06T07:03:39Z</time>
      </trkpt>
      <trkpt lat="45.70099" lon="4.7266">
        <ele>309</ele>
        <time>2025-08-06T07:03:40Z</time>
      </trkpt>
      <trkpt lat="45.70094" lon="4.72658">
        <ele>309.2</ele>
        <time>2025-08-06T07:03:41Z</time>
      </trkpt>
      <trkpt lat="45.70089" lon="4.72656">
        <ele>309.2</ele>
        <time>2025-08-06T07:03:42Z</time>
      </trkpt>
      <trkpt lat="45.70083" lon="4.72656">
        <ele>309.4</ele>
        <time>2025-08-06T07:03:43Z</time>
      </trkpt>
      <trkpt lat="45.70078" lon="4.72656">
        <ele>309.4</ele>
        <time>2025-08-06T07:03:44Z</time>
      </trkpt>
      <trkpt lat="45.70072" lon="4.72656">
        <ele>309.4</ele>
        <time>2025-08-06T07:03:45Z</time>
      </trkpt>
      <trkpt lat="45.70067" lon="4.72656">
        <ele>309.6</ele>
        <time>2025-08-06T07:03:46Z</time>
      </trkpt>
      <trkpt lat="45.70062" lon="4.72657">
        <ele>309.6</ele>
        <time>2025-08-06T07:03:47Z</time>
      </trkpt>
      <trkpt lat="45.70057" lon="4.72657">
        <ele>309.8</ele>
        <time>2025-08-06T07:03:48Z</time>
      </trkpt>
      <trkpt lat="45.70051" lon="4.72657">
        <ele>310</ele>
        <time>2025-08-06T07:03:49Z</time>
      </trkpt>
      <trkpt lat="45.70046" lon="4.72658">
        <ele>310</ele>
        <time>2025-08-06T07:03:50Z</time>
      </trkpt>
      <trkpt lat="45.7004" lon="4.72658">
        <ele>310</ele>
        <time>2025-08-06T07:03:51Z</time>
      </trkpt>
      <trkpt lat="45.70035" lon="4.72658">
        <ele>309.8</ele>
        <time>2025-08-06T07:03:52Z</time>
      </trkpt>
      <trkpt lat="45.70029" lon="4.72658">
        <ele>309.8</ele>
        <time>2025-08-06T07:03:53Z</time>
      </trkpt>
      <trkpt lat="45.70023" lon="4.72659">
        <ele>309.6</ele>
        <time>2025-08-06T07:03:54Z</time>
      </trkpt>
      <trkpt lat="45.70017" lon="4.7266">
        <ele>309.2</ele>
        <time>2025-08-06T07:03:55Z</time>
      </trkpt>
      <trkpt lat="45.70011" lon="4.72661">
        <ele>309.2</ele>
        <time>2025-08-06T07:03:56Z</time>
      </trkpt>
      <trkpt lat="45.70006" lon="4.72663">
        <ele>309</ele>
        <time>2025-08-06T07:03:57Z</time>
      </trkpt>
      <trkpt lat="45.7" lon="4.72665">
        <ele>308.6</ele>
        <time>2025-08-06T07:03:58Z</time>
      </trkpt>
      <trkpt lat="45.69995" lon="4.72668">
        <ele>308.6</ele>
        <time>2025-08-06T07:03:59Z</time>
      </trkpt>
      <trkpt lat="45.69989" lon="4.72671">
        <ele>308.6</ele>
        <time>2025-08-06T07:04:00Z</time>
      </trkpt>
      <trkpt lat="45.69984" lon="4.72675">
        <ele>308.6</ele>
        <time>2025-08-06T07:04:01Z</time>
      </trkpt>
      <trkpt lat="45.69979" lon="4.72679">
        <ele>308.6</ele>
        <time>2025-08-06T07:04:02Z</time>
      </trkpt>
      <trkpt lat="45.69974" lon="4.72683">
        <ele>308.6</ele>
        <time>2025-08-06T07:04:03Z</time>
      </trkpt>
      <trkpt lat="45.69969" lon="4.72688">
        <ele>308.4</ele>
        <time>2025-08-06T07:04:04Z</time>
      </trkpt>
      <trkpt lat="45.69964" lon="4.72692">
        <ele>308.2</ele>
        <time>2025-08-06T07:04:05Z</time>
      </trkpt>
      <trkpt lat="45.69958" lon="4.72697">
        <ele>308</ele>
        <time>2025-08-06T07:04:06Z</time>
      </trkpt>
      <trkpt lat="45.69953" lon="4.72701">
        <ele>307.8</ele>
        <time>2025-08-06T07:04:07Z</time>
      </trkpt>
      <trkpt lat="45.69947" lon="4.72706">
        <ele>307.6</ele>
        <time>2025-08-06T07:04:08Z</time>
      </trkpt>
      <trkpt lat="45.69942" lon="4.7271">
        <ele>307.2</ele>
        <time>2025-08-06T07:04:09Z</time>
      </trkpt>
      <trkpt lat="45.69936" lon="4.72715">
        <ele>306.8</ele>
        <time>2025-08-06T07:04:10Z</time>
      </trkpt>
      <trkpt lat="45.6993" lon="4.7272">
        <ele>306.4</ele>
        <time>2025-08-06T07:04:11Z</time>
      </trkpt>
      <trkpt lat="45.69924" lon="4.72725">
        <ele>306.2</ele>
        <time>2025-08-06T07:04:12Z</time>
      </trkpt>
      <trkpt lat="45.69919" lon="4.7273">
        <ele>305.8</ele>
        <time>2025-08-06T07:04:13Z</time>
      </trkpt>
      <trkpt lat="45.69913" lon="4.72734">
        <ele>305.6</ele>
        <time>2025-08-06T07:04:14Z</time>
      </trkpt>
      <trkpt lat="45.69907" lon="4.72739">
        <ele>305.4</ele>
        <time>2025-08-06T07:04:15Z</time>
      </trkpt>
      <trkpt lat="45.699" lon="4.72743">
        <ele>305</ele>
        <time>2025-08-06T07:04:16Z</time>
      </trkpt>
      <trkpt lat="45.69894" lon="4.72747">
        <ele>305</ele>
        <time>2025-08-06T07:04:17Z</time>
      </trkpt>
      <trkpt lat="45.69887" lon="4.7275">
        <ele>304.8</ele>
        <time>2025-08-06T07:04:18Z</time>
      </trkpt>
      <trkpt lat="45.6988" lon="4.72752">
        <ele>304.8</ele>
        <time>2025-08-06T07:04:19Z</time>
      </trkpt>
      <trkpt lat="45.69873" lon="4.72754">
        <ele>304.8</ele>
        <time>2025-08-06T07:04:20Z</time>
      </trkpt>
      <trkpt lat="45.69865" lon="4.72756">
        <ele>304.4</ele>
        <time>2025-08-06T07:04:21Z</time>
      </trkpt>
      <trkpt lat="45.69858" lon="4.72757">
        <ele>304.2</ele>
        <time>2025-08-06T07:04:22Z</time>
      </trkpt>
      <trkpt lat="45.69851" lon="4.72757">
        <ele>304</ele>
        <time>2025-08-06T07:04:23Z</time>
      </trkpt>
      <trkpt lat="45.69844" lon="4.72757">
        <ele>303.6</ele>
        <time>2025-08-06T07:04:24Z</time>
      </trkpt>
      <trkpt lat="45.69837" lon="4.72757">
        <ele>303.4</ele>
        <time>2025-08-06T07:04:25Z</time>
      </trkpt>
      <trkpt lat="45.69831" lon="4.72757">
        <ele>303.2</ele>
        <time>2025-08-06T07:04:26Z</time>
      </trkpt>
      <trkpt lat="45.69824" lon="4.72757">
        <ele>303</ele>
        <time>2025-08-06T07:04:27Z</time>
      </trkpt>
      <trkpt lat="45.69817" lon="4.72757">
        <ele>302.6</ele>
        <time>2025-08-06T07:04:28Z</time>
      </trkpt>
      <trkpt lat="45.69809" lon="4.72757">
        <ele>302.2</ele>
        <time>2025-08-06T07:04:29Z</time>
      </trkpt>
      <trkpt lat="45.69802" lon="4.72757">
        <ele>301.8</ele>
        <time>2025-08-06T07:04:30Z</time>
      </trkpt>
      <trkpt lat="45.69794" lon="4.72756">
        <ele>301.2</ele>
        <time>2025-08-06T07:04:31Z</time>
      </trkpt>
      <trkpt lat="45.69787" lon="4.72756">
        <ele>300.6</ele>
        <time>2025-08-06T07:04:32Z</time>
      </trkpt>
      <trkpt lat="45.69779" lon="4.72756">
        <ele>300.2</ele>
        <time>2025-08-06T07:04:33Z</time>
      </trkpt>
      <trkpt lat="45.69772" lon="4.72756">
        <ele>300</ele>
        <time>2025-08-06T07:04:34Z</time>
      </trkpt>
      <trkpt lat="45.69765" lon="4.72756">
        <ele>299.8</ele>
        <time>2025-08-06T07:04:35Z</time>
      </trkpt>
      <trkpt lat="45.69758" lon="4.72756">
        <ele>299.8</ele>
        <time>2025-08-06T07:04:36Z</time>
      </trkpt>
      <trkpt lat="45.69751" lon="4.72755">
        <ele>299.8</ele>
        <time>2025-08-06T07:04:37Z</time>
      </trkpt>
      <trkpt lat="45.69745" lon="4.72755">
        <ele>299.8</ele>
        <time>2025-08-06T07:04:38Z</time>
      </trkpt>
      <trkpt lat="45.69738" lon="4.72756">
        <ele>299.8</ele>
        <time>2025-08-06T07:04:39Z</time>
      </trkpt>
      <trkpt lat="45.69732" lon="4.72756">
        <ele>299.8</ele>
        <time>2025-08-06T07:04:40Z</time>
      </trkpt>
      <trkpt lat="45.69725" lon="4.72758">
        <ele>300</ele>
        <time>2025-08-06T07:04:41Z</time>
      </trkpt>
      <trkpt lat="45.69719" lon="4.7276">
        <ele>300.2</ele>
        <time>2025-08-06T07:04:42Z</time>
      </trkpt>
      <trkpt lat="45.69713" lon="4.72763">
        <ele>300.2</ele>
        <time>2025-08-06T07:04:43Z</time>
      </trkpt>
      <trkpt lat="45.69708" lon="4.72766">
        <ele>300.4</ele>
        <time>2025-08-06T07:04:44Z</time>
      </trkpt>
      <trkpt lat="45.69702" lon="4.72769">
        <ele>300.6</ele>
        <time>2025-08-06T07:04:45Z</time>
      </trkpt>
      <trkpt lat="45.69697" lon="4.72772">
        <ele>300.8</ele>
        <time>2025-08-06T07:04:46Z</time>
      </trkpt>
      <trkpt lat="45.69692" lon="4.72775">
        <ele>300.8</ele>
        <time>2025-08-06T07:04:47Z</time>
      </trkpt>
      <trkpt lat="45.69687" lon="4.72778">
        <ele>301.2</ele>
        <time>2025-08-06T07:04:48Z</time>
      </trkpt>
      <trkpt lat="45.69681" lon="4.72781">
        <ele>301.2</ele>
        <time>2025-08-06T07:04:49Z</time>
      </trkpt>
      <trkpt lat="45.69676" lon="4.72783">
        <ele>301.2</ele>
        <time>2025-08-06T07:04:50Z</time>
      </trkpt>
      <trkpt lat="45.6967" lon="4.72786">
        <ele>301.2</ele>
        <time>2025-08-06T07:04:51Z</time>
      </trkpt>
      <trkpt lat="45.69665" lon="4.7279">
        <ele>301.2</ele>
        <time>2025-08-06T07:04:52Z</time>
      </trkpt>
      <trkpt lat="45.69659" lon="4.72793">
        <ele>301</ele>
        <time>2025-08-06T07:04:53Z</time>
      </trkpt>
      <trkpt lat="45.69654" lon="4.72797">
        <ele>300.8</ele>
        <time>2025-08-06T07:04:54Z</time>
      </trkpt>
      <trkpt lat="45.69649" lon="4.72801">
        <ele>300.4</ele>
        <time>2025-08-06T07:04:55Z</time>
      </trkpt>
      <trkpt lat="45.69643" lon="4.72805">
        <ele>300.2</ele>
        <time>2025-08-06T07:04:56Z</time>
      </trkpt>
      <trkpt lat="45.69638" lon="4.72809">
        <ele>300</ele>
        <time>2025-08-06T07:04:57Z</time>
      </trkpt>
      <trkpt lat="45.69632" lon="4.72814">
        <ele>300</ele>
        <time>2025-08-06T07:04:58Z</time>
      </trkpt>
      <trkpt lat="45.69627" lon="4.72818">
        <ele>300</ele>
        <time>2025-08-06T07:04:59Z</time>
      </trkpt>
      <trkpt lat="45.69622" lon="4.72822">
        <ele>300</ele>
        <time>2025-08-06T07:05:00Z</time>
      </trkpt>
      <trkpt lat="45.69616" lon="4.72827">
        <ele>300</ele>
        <time>2025-08-06T07:05:01Z</time>
      </trkpt>
      <trkpt lat="45.69611" lon="4.72831">
        <ele>300</ele>
        <time>2025-08-06T07:05:02Z</time>
      </trkpt>
      <trkpt lat="45.69605" lon="4.72836">
        <ele>300</ele>
        <time>2025-08-06T07:05:03Z</time>
      </trkpt>
      <trkpt lat="45.696" lon="4.7284">
        <ele>299.8</ele>
        <time>2025-08-06T07:05:04Z</time>
      </trkpt>
      <trkpt lat="45.69595" lon="4.72845">
        <ele>299.4</ele>
        <time>2025-08-06T07:05:05Z</time>
      </trkpt>
      <trkpt lat="45.69589" lon="4.7285">
        <ele>299.2</ele>
        <time>2025-08-06T07:05:06Z</time>
      </trkpt>
      <trkpt lat="45.69584" lon="4.72854">
        <ele>298.8</ele>
        <time>2025-08-06T07:05:07Z</time>
      </trkpt>
      <trkpt lat="45.69578" lon="4.72859">
        <ele>298.6</ele>
        <time>2025-08-06T07:05:08Z</time>
      </trkpt>
      <trkpt lat="45.69572" lon="4.72864">
        <ele>298.4</ele>
        <time>2025-08-06T07:05:09Z</time>
      </trkpt>
      <trkpt lat="45.69567" lon="4.72868">
        <ele>298.2</ele>
        <time>2025-08-06T07:05:10Z</time>
      </trkpt>
      <trkpt lat="45.69562" lon="4.72873">
        <ele>298</ele>
        <time>2025-08-06T07:05:11Z</time>
      </trkpt>
      <trkpt lat="45.69557" lon="4.72878">
        <ele>297.8</ele>
        <time>2025-08-06T07:05:12Z</time>
      </trkpt>
      <trkpt lat="45.69552" lon="4.72882">
        <ele>297.6</ele>
        <time>2025-08-06T07:05:13Z</time>
      </trkpt>
      <trkpt lat="45.69546" lon="4.72886">
        <ele>297.4</ele>
        <time>2025-08-06T07:05:14Z</time>
      </trkpt>
      <trkpt lat="45.6954" lon="4.72889">
        <ele>297.2</ele>
        <time>2025-08-06T07:05:15Z</time>
      </trkpt>
      <trkpt lat="45.69534" lon="4.72893">
        <ele>296.8</ele>
        <time>2025-08-06T07:05:16Z</time>
      </trkpt>
      <trkpt lat="45.69529" lon="4.72896">
        <ele>296.6</ele>
        <time>2025-08-06T07:05:17Z</time>
      </trkpt>
      <trkpt lat="45.69523" lon="4.729">
        <ele>296.4</ele>
        <time>2025-08-06T07:05:18Z</time>
      </trkpt>
      <trkpt lat="45.69517" lon="4.72905">
        <ele>296</ele>
        <time>2025-08-06T07:05:19Z</time>
      </trkpt>
      <trkpt lat="45.69511" lon="4.72909">
        <ele>295.6</ele>
        <time>2025-08-06T07:05:20Z</time>
      </trkpt>
      <trkpt lat="45.69505" lon="4.72914">
        <ele>295</ele>
        <time>2025-08-06T07:05:21Z</time>
      </trkpt>
      <trkpt lat="45.69499" lon="4.72918">
        <ele>294.4</ele>
        <time>2025-08-06T07:05:22Z</time>
      </trkpt>
      <trkpt lat="45.69492" lon="4.72922">
        <ele>293.8</ele>
        <time>2025-08-06T07:05:23Z</time>
      </trkpt>
      <trkpt lat="45.69486" lon="4.72926">
        <ele>293.2</ele>
        <time>2025-08-06T07:05:24Z</time>
      </trkpt>
      <trkpt lat="45.69479" lon="4.7293">
        <ele>292.6</ele>
        <time>2025-08-06T07:05:25Z</time>
      </trkpt>
      <trkpt lat="45.69473" lon="4.72933">
        <ele>292</ele>
        <time>2025-08-06T07:05:26Z</time>
      </trkpt>
      <trkpt lat="45.69466" lon="4.72937">
        <ele>291.4</ele>
        <time>2025-08-06T07:05:27Z</time>
      </trkpt>
      <trkpt lat="45.6946" lon="4.72941">
        <ele>290.8</ele>
        <time>2025-08-06T07:05:28Z</time>
      </trkpt>
      <trkpt lat="45.69454" lon="4.72945">
        <ele>290.4</ele>
        <time>2025-08-06T07:05:29Z</time>
      </trkpt>
      <trkpt lat="45.69448" lon="4.72947">
        <ele>289.8</ele>
        <time>2025-08-06T07:05:30Z</time>
      </trkpt>
      <trkpt lat="45.69442" lon="4.72948">
        <ele>289.4</ele>
        <time>2025-08-06T07:05:31Z</time>
      </trkpt>
      <trkpt lat="45.69436" lon="4.72947">
        <ele>289</ele>
        <time>2025-08-06T07:05:32Z</time>
      </trkpt>
      <trkpt lat="45.6943" lon="4.72945">
        <ele>288.4</ele>
        <time>2025-08-06T07:05:33Z</time>
      </trkpt>
      <trkpt lat="45.69424" lon="4.72944">
        <ele>287.8</ele>
        <time>2025-08-06T07:05:34Z</time>
      </trkpt>
      <trkpt lat="45.69418" lon="4.72942">
        <ele>287.2</ele>
        <time>2025-08-06T07:05:35Z</time>
      </trkpt>
      <trkpt lat="45.69412" lon="4.72941">
        <ele>286.6</ele>
        <time>2025-08-06T07:05:36Z</time>
      </trkpt>
      <trkpt lat="45.69406" lon="4.72939">
        <ele>286</ele>
        <time>2025-08-06T07:05:37Z</time>
      </trkpt>
      <trkpt lat="45.694" lon="4.72937">
        <ele>285.4</ele>
        <time>2025-08-06T07:05:38Z</time>
      </trkpt>
      <trkpt lat="45.69394" lon="4.72936">
        <ele>284.8</ele>
        <time>2025-08-06T07:05:39Z</time>
      </trkpt>
      <trkpt lat="45.69387" lon="4.72934">
        <ele>284</ele>
        <time>2025-08-06T07:05:40Z</time>
      </trkpt>
      <trkpt lat="45.6938" lon="4.72933">
        <ele>283.4</ele>
        <time>2025-08-06T07:05:41Z</time>
      </trkpt>
      <trkpt lat="45.69374" lon="4.72931">
        <ele>282.6</ele>
        <time>2025-08-06T07:05:42Z</time>
      </trkpt>
      <trkpt lat="45.69367" lon="4.72929">
        <ele>281.8</ele>
        <time>2025-08-06T07:05:43Z</time>
      </trkpt>
      <trkpt lat="45.6936" lon="4.72927">
        <ele>281.2</ele>
        <time>2025-08-06T07:05:44Z</time>
      </trkpt>
      <trkpt lat="45.69353" lon="4.72924">
        <ele>280.6</ele>
        <time>2025-08-06T07:05:45Z</time>
      </trkpt>
      <trkpt lat="45.69347" lon="4.72923">
        <ele>280.2</ele>
        <time>2025-08-06T07:05:46Z</time>
      </trkpt>
      <trkpt lat="45.69341" lon="4.72921">
        <ele>279.8</ele>
        <time>2025-08-06T07:05:47Z</time>
      </trkpt>
      <trkpt lat="45.69336" lon="4.7292">
        <ele>279.6</ele>
        <time>2025-08-06T07:05:48Z</time>
      </trkpt>
      <trkpt lat="45.69332" lon="4.72918">
        <ele>279.6</ele>
        <time>2025-08-06T07:05:49Z</time>
      </trkpt>
      <trkpt lat="45.69329" lon="4.72916">
        <ele>279.6</ele>
        <time>2025-08-06T07:05:50Z</time>
      </trkpt>
      <trkpt lat="45.69327" lon="4.72914">
        <ele>279.6</ele>
        <time>2025-08-06T07:05:51Z</time>
      </trkpt>
      <trkpt lat="45.69326" lon="4.72911">
        <ele>279.6</ele>
        <time>2025-08-06T07:05:52Z</time>
      </trkpt>
      <trkpt lat="45.69324" lon="4.72908">
        <ele>279.6</ele>
        <time>2025-08-06T07:05:53Z</time>
      </trkpt>
      <trkpt lat="45.69323" lon="4.72904">
        <ele>279.6</ele>
        <time>2025-08-06T07:05:54Z</time>
      </trkpt>
      <trkpt lat="45.69323" lon="4.729">
        <ele>279.4</ele>
        <time>2025-08-06T07:05:55Z</time>
      </trkpt>
      <trkpt lat="45.69323" lon="4.72896">
        <ele>279.2</ele>
        <time>2025-08-06T07:05:56Z</time>
      </trkpt>
      <trkpt lat="45.69323" lon="4.72893">
        <ele>279</ele>
        <time>2025-08-06T07:05:57Z</time>
      </trkpt>
      <trkpt lat="45.69324" lon="4.7289">
        <ele>278.6</ele>
        <time>2025-08-06T07:05:58Z</time>
      </trkpt>
      <trkpt lat="45.69326" lon="4.72887">
        <ele>278.2</ele>
        <time>2025-08-06T07:05:59Z</time>
      </trkpt>
      <trkpt lat="45.69327" lon="4.72885">
        <ele>277.8</ele>
        <time>2025-08-06T07:06:00Z</time>
      </trkpt>
      <trkpt lat="45.69329" lon="4.72882">
        <ele>277.2</ele>
        <time>2025-08-06T07:06:01Z</time>
      </trkpt>
      <trkpt lat="45.69331" lon="4.72879">
        <ele>276.6</ele>
        <time>2025-08-06T07:06:02Z</time>
      </trkpt>
      <trkpt lat="45.69333" lon="4.72877">
        <ele>276.2</ele>
        <time>2025-08-06T07:06:03Z</time>
      </trkpt>
      <trkpt lat="45.69335" lon="4.72874">
        <ele>275.4</ele>
        <time>2025-08-06T07:06:04Z</time>
      </trkpt>
      <trkpt lat="45.69338" lon="4.72871">
        <ele>274.8</ele>
        <time>2025-08-06T07:06:05Z</time>
      </trkpt>
      <trkpt lat="45.69341" lon="4.7287">
        <ele>274</ele>
        <time>2025-08-06T07:06:06Z</time>
      </trkpt>
      <trkpt lat="45.69344" lon="4.72868">
        <ele>273.4</ele>
        <time>2025-08-06T07:06:07Z</time>
      </trkpt>
      <trkpt lat="45.69347" lon="4.72866">
        <ele>272.8</ele>
        <time>2025-08-06T07:06:08Z</time>
      </trkpt>
      <trkpt lat="45.6935" lon="4.72864">
        <ele>272</ele>
        <time>2025-08-06T07:06:09Z</time>
      </trkpt>
      <trkpt lat="45.69353" lon="4.72862">
        <ele>271.4</ele>
        <time>2025-08-06T07:06:10Z</time>
      </trkpt>
      <trkpt lat="45.69356" lon="4.7286">
        <ele>270.8</ele>
        <time>2025-08-06T07:06:11Z</time>
      </trkpt>
      <trkpt lat="45.69359" lon="4.72858">
        <ele>270.2</ele>
        <time>2025-08-06T07:06:12Z</time>
      </trkpt>
      <trkpt lat="45.69362" lon="4.72857">
        <ele>269.6</ele>
        <time>2025-08-06T07:06:13Z</time>
      </trkpt>
      <trkpt lat="45.69366" lon="4.72856">
        <ele>269.2</ele>
        <time>2025-08-06T07:06:14Z</time>
      </trkpt>
      <trkpt lat="45.69369" lon="4.72854">
        <ele>268.8</ele>
        <time>2025-08-06T07:06:15Z</time>
      </trkpt>
      <trkpt lat="45.69372" lon="4.72852">
        <ele>268.2</ele>
        <time>2025-08-06T07:06:16Z</time>
      </trkpt>
      <trkpt lat="45.69374" lon="4.72851">
        <ele>267.8</ele>
        <time>2025-08-06T07:06:17Z</time>
      </trkpt>
      <trkpt lat="45.69377" lon="4.7285">
        <ele>267.4</ele>
        <time>2025-08-06T07:06:18Z</time>
      </trkpt>
      <trkpt lat="45.69379" lon="4.72849">
        <ele>267</ele>
        <time>2025-08-06T07:06:19Z</time>
      </trkpt>
      <trkpt lat="45.69381" lon="4.72847">
        <ele>266.6</ele>
        <time>2025-08-06T07:06:20Z</time>
      </trkpt>
      <trkpt lat="45.69383" lon="4.72846">
        <ele>266.2</ele>
        <time>2025-08-06T07:06:21Z</time>
      </trkpt>
      <trkpt lat="45.69386" lon="4.72846">
        <ele>265.6</ele>
        <time>2025-08-06T07:06:22Z</time>
      </trkpt>
      <trkpt lat="45.69388" lon="4.72845">
        <ele>265.2</ele>
        <time>2025-08-06T07:06:23Z</time>
      </trkpt>
      <trkpt lat="45.69391" lon="4.72844">
        <ele>264.6</ele>
        <time>2025-08-06T07:06:24Z</time>
      </trkpt>
      <trkpt lat="45.69393" lon="4.72843">
        <ele>264.2</ele>
        <time>2025-08-06T07:06:25Z</time>
      </trkpt>
      <trkpt lat="45.69395" lon="4.72841">
        <ele>263.6</ele>
        <time>2025-08-06T07:06:26Z</time>
      </trkpt>
      <trkpt lat="45.69397" lon="4.72839">
        <ele>263.2</ele>
        <time>2025-08-06T07:06:27Z</time>
      </trkpt>
      <trkpt lat="45.69399" lon="4.72837">
        <ele>262.6</ele>
        <time>2025-08-06T07:06:28Z</time>
      </trkpt>
      <trkpt lat="45.69401" lon="4.72834">
        <ele>262</ele>
        <time>2025-08-06T07:06:29Z</time>
      </trkpt>
      <trkpt lat="45.69403" lon="4.72832">
        <ele>261.6</ele>
        <time>2025-08-06T07:06:30Z</time>
      </trkpt>
      <trkpt lat="45.69404" lon="4.7283">
        <ele>261.2</ele>
        <time>2025-08-06T07:06:31Z</time>
      </trkpt>
      <trkpt lat="45.69406" lon="4.72827">
        <ele>260.8</ele>
        <time>2025-08-06T07:06:32Z</time>
      </trkpt>
      <trkpt lat="45.69406" lon="4.72824">
        <ele>260.4</ele>
        <time>2025-08-06T07:06:33Z</time>
      </trkpt>
      <trkpt lat="45.69408" lon="4.72821">
        <ele>259.8</ele>
        <time>2025-08-06T07:06:34Z</time>
      </trkpt>
      <trkpt lat="45.69409" lon="4.72817">
        <ele>259.4</ele>
        <time>2025-08-06T07:06:35Z</time>
      </trkpt>
      <trkpt lat="45.6941" lon="4.72813">
        <ele>258.8</ele>
        <time>2025-08-06T07:06:36Z</time>
      </trkpt>
      <trkpt lat="45.69411" lon="4.72809">
        <ele>258.4</ele>
        <time>2025-08-06T07:06:37Z</time>
      </trkpt>
      <trkpt lat="45.69412" lon="4.72805">
        <ele>257.8</ele>
        <time>2025-08-06T07:06:38Z</time>
      </trkpt>
      <trkpt lat="45.69412" lon="4.72801">
        <ele>257</ele>
        <time>2025-08-06T07:06:39Z</time>
      </trkpt>
      <trkpt lat="45.69412" lon="4.72797">
        <ele>256.4</ele>
        <time>2025-08-06T07:06:40Z</time>
      </trkpt>
      <trkpt lat="45.69412" lon="4.72792">
        <ele>255.6</ele>
        <time>2025-08-06T07:06:41Z</time>
      </trkpt>
      <trkpt lat="45.69413" lon="4.72788">
        <ele>255</ele>
        <time>2025-08-06T07:06:42Z</time>
      </trkpt>
      <trkpt lat="45.69413" lon="4.72784">
        <ele>254.2</ele>
        <time>2025-08-06T07:06:43Z</time>
      </trkpt>
      <trkpt lat="45.69415" lon="4.7278">
        <ele>253.6</ele>
        <time>2025-08-06T07:06:44Z</time>
      </trkpt>
      <trkpt lat="45.69416" lon="4.72776">
        <ele>252.8</ele>
        <time>2025-08-06T07:06:45Z</time>
      </trkpt>
      <trkpt lat="45.69416" lon="4.72772">
        <ele>252.2</ele>
        <time>2025-08-06T07:06:46Z</time>
      </trkpt>
      <trkpt lat="45.69416" lon="4.72767">
        <ele>251.4</ele>
        <time>2025-08-06T07:06:47Z</time>
      </trkpt>
      <trkpt lat="45.69416" lon="4.72762">
        <ele>250.8</ele>
        <time>2025-08-06T07:06:48Z</time>
      </trkpt>
      <trkpt lat="45.69416" lon="4.72756">
        <ele>250.4</ele>
        <time>2025-08-06T07:06:49Z</time>
      </trkpt>
      <trkpt lat="45.69416" lon="4.7275">
        <ele>249.8</ele>
        <time>2025-08-06T07:06:50Z</time>
      </trkpt>
      <trkpt lat="45.69417" lon="4.72745">
        <ele>249.4</ele>
        <time>2025-08-06T07:06:51Z</time>
      </trkpt>
      <trkpt lat="45.69417" lon="4.7274">
        <ele>248.8</ele>
        <time>2025-08-06T07:06:52Z</time>
      </trkpt>
      <trkpt lat="45.69418" lon="4.72735">
        <ele>248.2</ele>
        <time>2025-08-06T07:06:53Z</time>
      </trkpt>
      <trkpt lat="45.69419" lon="4.72731">
        <ele>247.4</ele>
        <time>2025-08-06T07:06:54Z</time>
      </trkpt>
      <trkpt lat="45.6942" lon="4.72727">
        <ele>246.6</ele>
        <time>2025-08-06T07:06:55Z</time>
      </trkpt>
      <trkpt lat="45.69422" lon="4.72722">
        <ele>246.2</ele>
        <time>2025-08-06T07:06:56Z</time>
      </trkpt>
      <trkpt lat="45.69422" lon="4.72718">
        <ele>245.6</ele>
        <time>2025-08-06T07:06:57Z</time>
      </trkpt>
      <trkpt lat="45.69422" lon="4.72715">
        <ele>245</ele>
        <time>2025-08-06T07:06:58Z</time>
      </trkpt>
      <trkpt lat="45.69423" lon="4.7271">
        <ele>244.4</ele>
        <time>2025-08-06T07:06:59Z</time>
      </trkpt>
      <trkpt lat="45.69424" lon="4.72705">
        <ele>243.8</ele>
        <time>2025-08-06T07:07:00Z</time>
      </trkpt>
      <trkpt lat="45.69424" lon="4.72701">
        <ele>243.2</ele>
        <time>2025-08-06T07:07:01Z</time>
      </trkpt>
      <trkpt lat="45.69424" lon="4.72697">
        <ele>242.6</ele>
        <time>2025-08-06T07:07:02Z</time>
      </trkpt>
      <trkpt lat="45.69424" lon="4.72693">
        <ele>242</ele>
        <time>2025-08-06T07:07:03Z</time>
      </trkpt>
      <trkpt lat="45.69425" lon="4.72689">
        <ele>241.6</ele>
        <time>2025-08-06T07:07:04Z</time>
      </trkpt>
      <trkpt lat="45.69426" lon="4.72687">
        <ele>241</ele>
        <time>2025-08-06T07:07:05Z</time>
      </trkpt>
      <trkpt lat="45.69428" lon="4.72682">
        <ele>240.4</ele>
        <time>2025-08-06T07:07:06Z</time>
      </trkpt>
      <trkpt lat="45.69428" lon="4.72679">
        <ele>240</ele>
        <time>2025-08-06T07:07:07Z</time>
      </trkpt>
      <trkpt lat="45.69429" lon="4.72673">
        <ele>239.4</ele>
        <time>2025-08-06T07:07:08Z</time>
      </trkpt>
      <trkpt lat="45.69431" lon="4.72668">
        <ele>238.8</ele>
        <time>2025-08-06T07:07:09Z</time>
      </trkpt>
      <trkpt lat="45.69432" lon="4.72663">
        <ele>238.2</ele>
        <time>2025-08-06T07:07:10Z</time>
      </trkpt>
      <trkpt lat="45.69433" lon="4.72659">
        <ele>237.6</ele>
        <time>2025-08-06T07:07:11Z</time>
      </trkpt>
      <trkpt lat="45.69434" lon="4.72653">
        <ele>236.8</ele>
        <time>2025-08-06T07:07:12Z</time>
      </trkpt>
      <trkpt lat="45.69436" lon="4.72648">
        <ele>236.2</ele>
        <time>2025-08-06T07:07:13Z</time>
      </trkpt>
      <trkpt lat="45.69437" lon="4.72642">
        <ele>235.4</ele>
        <time>2025-08-06T07:07:14Z</time>
      </trkpt>
      <trkpt lat="45.69438" lon="4.72637">
        <ele>234.6</ele>
        <time>2025-08-06T07:07:15Z</time>
      </trkpt>
      <trkpt lat="45.69438" lon="4.72632">
        <ele>234</ele>
        <time>2025-08-06T07:07:16Z</time>
      </trkpt>
      <trkpt lat="45.69437" lon="4.72628">
        <ele>233.6</ele>
        <time>2025-08-06T07:07:17Z</time>
      </trkpt>
      <trkpt lat="45.69436" lon="4.72626">
        <ele>233.2</ele>
        <time>2025-08-06T07:07:18Z</time>
      </trkpt>
      <trkpt lat="45.69434" lon="4.72625">
        <ele>232.8</ele>
        <time>2025-08-06T07:07:19Z</time>
      </trkpt>
      <trkpt lat="45.69431" lon="4.72625">
        <ele>232.4</ele>
        <time>2025-08-06T07:07:20Z</time>
      </trkpt>
      <trkpt lat="45.69428" lon="4.72625">
        <ele>232</ele>
        <time>2025-08-06T07:07:21Z</time>
      </trkpt>
      <trkpt lat="45.69425" lon="4.72626">
        <ele>231.8</ele>
        <time>2025-08-06T07:07:22Z</time>
      </trkpt>
      <trkpt lat="45.69421" lon="4.72627">
        <ele>231.4</ele>
        <time>2025-08-06T07:07:23Z</time>
      </trkpt>
      <trkpt lat="45.69417" lon="4.72627">
        <ele>231.2</ele>
        <time>2025-08-06T07:07:24Z</time>
      </trkpt>
      <trkpt lat="45.69413" lon="4.72627">
        <ele>230.8</ele>
        <time>2025-08-06T07:07:25Z</time>
      </trkpt>
      <trkpt lat="45.69411" lon="4.72626">
        <ele>230.4</ele>
        <time>2025-08-06T07:07:26Z</time>
      </trkpt>
      <trkpt lat="45.69412" lon="4.72623">
        <ele>230.2</ele>
        <time>2025-08-06T07:07:27Z</time>
      </trkpt>
      <trkpt lat="45.69413" lon="4.72621">
        <ele>230</ele>
        <time>2025-08-06T07:07:28Z</time>
      </trkpt>
      <trkpt lat="45.69415" lon="4.7262">
        <ele>229.8</ele>
        <time>2025-08-06T07:07:29Z</time>
      </trkpt>
      <trkpt lat="45.69416" lon="4.72619">
        <ele>229.6</ele>
        <time>2025-08-06T07:07:30Z</time>
      </trkpt>
      <trkpt lat="45.69418" lon="4.72618">
        <ele>229.4</ele>
        <time>2025-08-06T07:07:31Z</time>
      </trkpt>
      <trkpt lat="45.69419" lon="4.72615">
        <ele>229.2</ele>
        <time>2025-08-06T07:07:32Z</time>
      </trkpt>
      <trkpt lat="45.6942" lon="4.72614">
        <ele>229</ele>
        <time>2025-08-06T07:07:33Z</time>
      </trkpt>
      <trkpt lat="45.69421" lon="4.72612">
        <ele>229</ele>
        <time>2025-08-06T07:07:34Z</time>
      </trkpt>
      <trkpt lat="45.69421" lon="4.7261">
        <ele>228.8</ele>
        <time>2025-08-06T07:07:35Z</time>
      </trkpt>
      <trkpt lat="45.6942" lon="4.72608">
        <ele>228.8</ele>
        <time>2025-08-06T07:07:36Z</time>
      </trkpt>
      <trkpt lat="45.69419" lon="4.72607">
        <ele>228.6</ele>
        <time>2025-08-06T07:07:37Z</time>
      </trkpt>
      <trkpt lat="45.69417" lon="4.72606">
        <ele>228.6</ele>
        <time>2025-08-06T07:07:38Z</time>
      </trkpt>
      <trkpt lat="45.69415" lon="4.72605">
        <ele>228.6</ele>
        <time>2025-08-06T07:07:39Z</time>
      </trkpt>
      <trkpt lat="45.69413" lon="4.72604">
        <ele>228.6</ele>
        <time>2025-08-06T07:07:40Z</time>
      </trkpt>
      <trkpt lat="45.69411" lon="4.72602">
        <ele>228.4</ele>
        <time>2025-08-06T07:07:41Z</time>
      </trkpt>
      <trkpt lat="45.69409" lon="4.72602">
        <ele>228.6</ele>
        <time>2025-08-06T07:07:42Z</time>
      </trkpt>
      <trkpt lat="45.69407" lon="4.72602">
        <ele>228.6</ele>
        <time>2025-08-06T07:07:43Z</time>
      </trkpt>
      <trkpt lat="45.69405" lon="4.72603">
        <ele>228.8</ele>
        <time>2025-08-06T07:07:44Z</time>
      </trkpt>
      <trkpt lat="45.69402" lon="4.72603">
        <ele>229</ele>
        <time>2025-08-06T07:07:45Z</time>
      </trkpt>
      <trkpt lat="45.694" lon="4.72602">
        <ele>229.2</ele>
        <time>2025-08-06T07:07:46Z</time>
      </trkpt>
      <trkpt lat="45.69399" lon="4.726">
        <ele>229.4</ele>
        <time>2025-08-06T07:07:47Z</time>
      </trkpt>
      <trkpt lat="45.694" lon="4.72597">
        <ele>229.6</ele>
        <time>2025-08-06T07:07:48Z</time>
      </trkpt>
      <trkpt lat="45.69401" lon="4.72595">
        <ele>229.8</ele>
        <time>2025-08-06T07:07:49Z</time>
      </trkpt>
      <trkpt lat="45.69402" lon="4.72592">
        <ele>230</ele>
        <time>2025-08-06T07:07:50Z</time>
      </trkpt>
      <trkpt lat="45.69403" lon="4.72589">
        <ele>230.2</ele>
        <time>2025-08-06T07:07:51Z</time>
      </trkpt>
      <trkpt lat="45.69404" lon="4.72585">
        <ele>230.4</ele>
        <time>2025-08-06T07:07:52Z</time>
      </trkpt>
      <trkpt lat="45.69405" lon="4.72581">
        <ele>230.6</ele>
        <time>2025-08-06T07:07:53Z</time>
      </trkpt>
      <trkpt lat="45.69407" lon="4.72577">
        <ele>230.6</ele>
        <time>2025-08-06T07:07:54Z</time>
      </trkpt>
      <trkpt lat="45.69408" lon="4.72573">
        <ele>230.6</ele>
        <time>2025-08-06T07:07:55Z</time>
      </trkpt>
      <trkpt lat="45.69409" lon="4.72569">
        <ele>230.6</ele>
        <time>2025-08-06T07:07:56Z</time>
      </trkpt>
      <trkpt lat="45.69409" lon="4.72566">
        <ele>230.6</ele>
        <time>2025-08-06T07:07:57Z</time>
      </trkpt>
      <trkpt lat="45.6941" lon="4.72563">
        <ele>230.6</ele>
        <time>2025-08-06T07:07:58Z</time>
      </trkpt>
      <trkpt lat="45.69412" lon="4.72561">
        <ele>230.6</ele>
        <time>2025-08-06T07:07:59Z</time>
      </trkpt>
      <trkpt lat="45.69413" lon="4.72559">
        <ele>230.8</ele>
        <time>2025-08-06T07:08:00Z</time>
      </trkpt>
      <trkpt lat="45.69413" lon="4.72558">
        <ele>230.8</ele>
        <time>2025-08-06T07:08:01Z</time>
      </trkpt>
      <trkpt lat="45.69413" lon="4.72558">
        <ele>231</ele>
        <time>2025-08-06T07:08:02Z</time>
      </trkpt>
      <trkpt lat="45.69414" lon="4.72558">
        <ele>231.2</ele>
        <time>2025-08-06T07:08:03Z</time>
      </trkpt>
      <trkpt lat="45.69418" lon="4.72554">
        <ele>231</ele>
        <time>2025-08-06T07:08:05Z</time>
      </trkpt>
      <trkpt lat="45.6942" lon="4.72551">
        <ele>230.8</ele>
        <time>2025-08-06T07:08:06Z</time>
      </trkpt>
      <trkpt lat="45.69421" lon="4.72546">
        <ele>230.6</ele>
        <time>2025-08-06T07:08:07Z</time>
      </trkpt>
      <trkpt lat="45.69422" lon="4.72542">
        <ele>230.4</ele>
        <time>2025-08-06T07:08:08Z</time>
      </trkpt>
      <trkpt lat="45.69422" lon="4.72537">
        <ele>230.2</ele>
        <time>2025-08-06T07:08:09Z</time>
      </trkpt>
      <trkpt lat="45.69422" lon="4.72531">
        <ele>230</ele>
        <time>2025-08-06T07:08:10Z</time>
      </trkpt>
      <trkpt lat="45.69422" lon="4.72525">
        <ele>230</ele>
        <time>2025-08-06T07:08:11Z</time>
      </trkpt>
      <trkpt lat="45.69421" lon="4.7252">
        <ele>230.2</ele>
        <time>2025-08-06T07:08:12Z</time>
      </trkpt>
      <trkpt lat="45.69421" lon="4.72514">
        <ele>230.2</ele>
        <time>2025-08-06T07:08:13Z</time>
      </trkpt>
      <trkpt lat="45.69421" lon="4.72509">
        <ele>230.2</ele>
        <time>2025-08-06T07:08:14Z</time>
      </trkpt>
      <trkpt lat="45.69421" lon="4.72503">
        <ele>230.4</ele>
        <time>2025-08-06T07:08:15Z</time>
      </trkpt>
      <trkpt lat="45.69421" lon="4.72497">
        <ele>230.6</ele>
        <time>2025-08-06T07:08:16Z</time>
      </trkpt>
      <trkpt lat="45.69421" lon="4.72491">
        <ele>230.6</ele>
        <time>2025-08-06T07:08:17Z</time>
      </trkpt>
      <trkpt lat="45.6942" lon="4.72487">
        <ele>230.8</ele>
        <time>2025-08-06T07:08:18Z</time>
      </trkpt>
      <trkpt lat="45.6942" lon="4.72482">
        <ele>231</ele>
        <time>2025-08-06T07:08:19Z</time>
      </trkpt>
      <trkpt lat="45.6942" lon="4.72478">
        <ele>231.2</ele>
        <time>2025-08-06T07:08:20Z</time>
      </trkpt>
      <trkpt lat="45.6942" lon="4.72474">
        <ele>231.2</ele>
        <time>2025-08-06T07:08:21Z</time>
      </trkpt>
      <trkpt lat="45.69419" lon="4.72469">
        <ele>231.4</ele>
        <time>2025-08-06T07:08:22Z</time>
      </trkpt>
      <trkpt lat="45.69418" lon="4.72465">
        <ele>231.6</ele>
        <time>2025-08-06T07:08:23Z</time>
      </trkpt>
      <trkpt lat="45.69417" lon="4.72461">
        <ele>231.6</ele>
        <time>2025-08-06T07:08:24Z</time>
      </trkpt>
      <trkpt lat="45.69416" lon="4.72457">
        <ele>231.6</ele>
        <time>2025-08-06T07:08:25Z</time>
      </trkpt>
      <trkpt lat="45.69415" lon="4.72453">
        <ele>231.8</ele>
        <time>2025-08-06T07:08:26Z</time>
      </trkpt>
      <trkpt lat="45.69415" lon="4.72449">
        <ele>231.8</ele>
        <time>2025-08-06T07:08:27Z</time>
      </trkpt>
      <trkpt lat="45.69414" lon="4.72445">
        <ele>232</ele>
        <time>2025-08-06T07:08:28Z</time>
      </trkpt>
      <trkpt lat="45.69414" lon="4.72442">
        <ele>232</ele>
        <time>2025-08-06T07:08:29Z</time>
      </trkpt>
      <trkpt lat="45.69414" lon="4.72438">
        <ele>232.2</ele>
        <time>2025-08-06T07:08:30Z</time>
      </trkpt>
      <trkpt lat="45.69413" lon="4.72433">
        <ele>232.4</ele>
        <time>2025-08-06T07:08:31Z</time>
      </trkpt>
      <trkpt lat="45.69412" lon="4.72429">
        <ele>232.6</ele>
        <time>2025-08-06T07:08:32Z</time>
      </trkpt>
      <trkpt lat="45.6941" lon="4.72425">
        <ele>232.8</ele>
        <time>2025-08-06T07:08:33Z</time>
      </trkpt>
      <trkpt lat="45.69409" lon="4.72422">
        <ele>233</ele>
        <time>2025-08-06T07:08:34Z</time>
      </trkpt>
      <trkpt lat="45.69408" lon="4.72419">
        <ele>233.2</ele>
        <time>2025-08-06T07:08:35Z</time>
      </trkpt>
      <trkpt lat="45.69408" lon="4.72415">
        <ele>233.2</ele>
        <time>2025-08-06T07:08:36Z</time>
      </trkpt>
      <trkpt lat="45.69407" lon="4.72411">
        <ele>233.4</ele>
        <time>2025-08-06T07:08:37Z</time>
      </trkpt>
      <trkpt lat="45.69407" lon="4.72408">
        <ele>233.6</ele>
        <time>2025-08-06T07:08:38Z</time>
      </trkpt>
      <trkpt lat="45.69406" lon="4.72403">
        <ele>233.8</ele>
        <time>2025-08-06T07:08:39Z</time>
      </trkpt>
      <trkpt lat="45.69405" lon="4.72401">
        <ele>233.8</ele>
        <time>2025-08-06T07:08:40Z</time>
      </trkpt>
      <trkpt lat="45.69405" lon="4.72398">
        <ele>234</ele>
        <time>2025-08-06T07:08:41Z</time>
      </trkpt>
      <trkpt lat="45.69405" lon="4.72396">
        <ele>234.2</ele>
        <time>2025-08-06T07:08:42Z</time>
      </trkpt>
      <trkpt lat="45.69405" lon="4.72392">
        <ele>234.4</ele>
        <time>2025-08-06T07:08:43Z</time>
      </trkpt>
      <trkpt lat="45.69403" lon="4.72388">
        <ele>234.6</ele>
        <time>2025-08-06T07:08:44Z</time>
      </trkpt>
      <trkpt lat="45.69401" lon="4.72385">
        <ele>234.8</ele>
        <time>2025-08-06T07:08:45Z</time>
      </trkpt>
      <trkpt lat="45.69398" lon="4.7238">
        <ele>235</ele>
        <time>2025-08-06T07:08:46Z</time>
      </trkpt>
      <trkpt lat="45.69395" lon="4.72376">
        <ele>235.2</ele>
        <time>2025-08-06T07:08:47Z</time>
      </trkpt>
      <trkpt lat="45.69393" lon="4.72373">
        <ele>235.4</ele>
        <time>2025-08-06T07:08:48Z</time>
      </trkpt>
      <trkpt lat="45.69391" lon="4.7237">
        <ele>235.6</ele>
        <time>2025-08-06T07:08:49Z</time>
      </trkpt>
      <trkpt lat="45.69389" lon="4.72367">
        <ele>235.8</ele>
        <time>2025-08-06T07:08:50Z</time>
      </trkpt>
      <trkpt lat="45.69386" lon="4.72364">
        <ele>235.8</ele>
        <time>2025-08-06T07:08:51Z</time>
      </trkpt>
      <trkpt lat="45.69384" lon="4.72361">
        <ele>236</ele>
        <time>2025-08-06T07:08:52Z</time>
      </trkpt>
      <trkpt lat="45.69382" lon="4.72357">
        <ele>236.2</ele>
        <time>2025-08-06T07:08:53Z</time>
      </trkpt>
      <trkpt lat="45.69379" lon="4.72352">
        <ele>236.2</ele>
        <time>2025-08-06T07:08:54Z</time>
      </trkpt>
      <trkpt lat="45.69377" lon="4.72349">
        <ele>236.2</ele>
        <time>2025-08-06T07:08:55Z</time>
      </trkpt>
      <trkpt lat="45.69374" lon="4.72346">
        <ele>236.2</ele>
        <time>2025-08-06T07:08:56Z</time>
      </trkpt>
      <trkpt lat="45.69372" lon="4.72343">
        <ele>236.4</ele>
        <time>2025-08-06T07:08:57Z</time>
      </trkpt>
      <trkpt lat="45.6937" lon="4.72339">
        <ele>236.4</ele>
        <time>2025-08-06T07:08:58Z</time>
      </trkpt>
      <trkpt lat="45.69367" lon="4.72335">
        <ele>236.4</ele>
        <time>2025-08-06T07:08:59Z</time>
      </trkpt>
      <trkpt lat="45.69365" lon="4.72332">
        <ele>236.6</ele>
        <time>2025-08-06T07:09:00Z</time>
      </trkpt>
      <trkpt lat="45.69363" lon="4.72328">
        <ele>236.8</ele>
        <time>2025-08-06T07:09:01Z</time>
      </trkpt>
      <trkpt lat="45.69361" lon="4.72325">
        <ele>237</ele>
        <time>2025-08-06T07:09:02Z</time>
      </trkpt>
      <trkpt lat="45.6936" lon="4.72321">
        <ele>237.4</ele>
        <time>2025-08-06T07:09:03Z</time>
      </trkpt>
      <trkpt lat="45.6936" lon="4.72318">
        <ele>237.6</ele>
        <time>2025-08-06T07:09:04Z</time>
      </trkpt>
      <trkpt lat="45.69359" lon="4.72314">
        <ele>238</ele>
        <time>2025-08-06T07:09:05Z</time>
      </trkpt>
      <trkpt lat="45.69358" lon="4.7231">
        <ele>238.2</ele>
        <time>2025-08-06T07:09:06Z</time>
      </trkpt>
      <trkpt lat="45.69357" lon="4.72307">
        <ele>238.6</ele>
        <time>2025-08-06T07:09:07Z</time>
      </trkpt>
      <trkpt lat="45.69356" lon="4.72303">
        <ele>239</ele>
        <time>2025-08-06T07:09:08Z</time>
      </trkpt>
      <trkpt lat="45.69356" lon="4.723">
        <ele>239.6</ele>
        <time>2025-08-06T07:09:09Z</time>
      </trkpt>
      <trkpt lat="45.69355" lon="4.72296">
        <ele>240</ele>
        <time>2025-08-06T07:09:10Z</time>
      </trkpt>
      <trkpt lat="45.69355" lon="4.72292">
        <ele>240.4</ele>
        <time>2025-08-06T07:09:11Z</time>
      </trkpt>
      <trkpt lat="45.69354" lon="4.72288">
        <ele>240.8</ele>
        <time>2025-08-06T07:09:12Z</time>
      </trkpt>
      <trkpt lat="45.69352" lon="4.72284">
        <ele>241.2</ele>
        <time>2025-08-06T07:09:13Z</time>
      </trkpt>
      <trkpt lat="45.69351" lon="4.7228">
        <ele>241.6</ele>
        <time>2025-08-06T07:09:14Z</time>
      </trkpt>
      <trkpt lat="45.6935" lon="4.72276">
        <ele>242</ele>
        <time>2025-08-06T07:09:15Z</time>
      </trkpt>
      <trkpt lat="45.69349" lon="4.72271">
        <ele>242.4</ele>
        <time>2025-08-06T07:09:16Z</time>
      </trkpt>
      <trkpt lat="45.69347" lon="4.72267">
        <ele>242.8</ele>
        <time>2025-08-06T07:09:17Z</time>
      </trkpt>
      <trkpt lat="45.69346" lon="4.72263">
        <ele>243.2</ele>
        <time>2025-08-06T07:09:18Z</time>
      </trkpt>
      <trkpt lat="45.69345" lon="4.72259">
        <ele>243.4</ele>
        <time>2025-08-06T07:09:19Z</time>
      </trkpt>
      <trkpt lat="45.69344" lon="4.72255">
        <ele>243.8</ele>
        <time>2025-08-06T07:09:20Z</time>
      </trkpt>
      <trkpt lat="45.69343" lon="4.72252">
        <ele>244.2</ele>
        <time>2025-08-06T07:09:21Z</time>
      </trkpt>
      <trkpt lat="45.69342" lon="4.72248">
        <ele>244.6</ele>
        <time>2025-08-06T07:09:22Z</time>
      </trkpt>
      <trkpt lat="45.69342" lon="4.72244">
        <ele>245</ele>
        <time>2025-08-06T07:09:23Z</time>
      </trkpt>
      <trkpt lat="45.69341" lon="4.7224">
        <ele>245.4</ele>
        <time>2025-08-06T07:09:24Z</time>
      </trkpt>
      <trkpt lat="45.6934" lon="4.72236">
        <ele>245.8</ele>
        <time>2025-08-06T07:09:25Z</time>
      </trkpt>
      <trkpt lat="45.69338" lon="4.72231">
        <ele>246.2</ele>
        <time>2025-08-06T07:09:26Z</time>
      </trkpt>
      <trkpt lat="45.69337" lon="4.72227">
        <ele>246.6</ele>
        <time>2025-08-06T07:09:27Z</time>
      </trkpt>
      <trkpt lat="45.69335" lon="4.72223">
        <ele>247</ele>
        <time>2025-08-06T07:09:28Z</time>
      </trkpt>
      <trkpt lat="45.69334" lon="4.72219">
        <ele>247.2</ele>
        <time>2025-08-06T07:09:29Z</time>
      </trkpt>
      <trkpt lat="45.69334" lon="4.72215">
        <ele>247.6</ele>
        <time>2025-08-06T07:09:30Z</time>
      </trkpt>
      <trkpt lat="45.69333" lon="4.72211">
        <ele>248</ele>
        <time>2025-08-06T07:09:31Z</time>
      </trkpt>
      <trkpt lat="45.69332" lon="4.72207">
        <ele>248.2</ele>
        <time>2025-08-06T07:09:32Z</time>
      </trkpt>
      <trkpt lat="45.69332" lon="4.72203">
        <ele>248.6</ele>
        <time>2025-08-06T07:09:33Z</time>
      </trkpt>
      <trkpt lat="45.69332" lon="4.722">
        <ele>249</ele>
        <time>2025-08-06T07:09:34Z</time>
      </trkpt>
      <trkpt lat="45.69332" lon="4.72196">
        <ele>249.4</ele>
        <time>2025-08-06T07:09:35Z</time>
      </trkpt>
      <trkpt lat="45.69332" lon="4.72192">
        <ele>249.6</ele>
        <time>2025-08-06T07:09:36Z</time>
      </trkpt>
      <trkpt lat="45.69333" lon="4.72188">
        <ele>250</ele>
        <time>2025-08-06T07:09:37Z</time>
      </trkpt>
      <trkpt lat="45.69333" lon="4.72184">
        <ele>250.4</ele>
        <time>2025-08-06T07:09:38Z</time>
      </trkpt>
      <trkpt lat="45.69333" lon="4.7218">
        <ele>250.8</ele>
        <time>2025-08-06T07:09:39Z</time>
      </trkpt>
      <trkpt lat="45.69334" lon="4.72176">
        <ele>251</ele>
        <time>2025-08-06T07:09:40Z</time>
      </trkpt>
      <trkpt lat="45.69334" lon="4.72173">
        <ele>251.4</ele>
        <time>2025-08-06T07:09:41Z</time>
      </trkpt>
      <trkpt lat="45.69334" lon="4.72169">
        <ele>251.8</ele>
        <time>2025-08-06T07:09:42Z</time>
      </trkpt>
      <trkpt lat="45.69333" lon="4.72165">
        <ele>252</ele>
        <time>2025-08-06T07:09:43Z</time>
      </trkpt>
      <trkpt lat="45.69332" lon="4.72162">
        <ele>252.4</ele>
        <time>2025-08-06T07:09:44Z</time>
      </trkpt>
      <trkpt lat="45.69331" lon="4.72158">
        <ele>252.6</ele>
        <time>2025-08-06T07:09:45Z</time>
      </trkpt>
      <trkpt lat="45.6933" lon="4.72156">
        <ele>253</ele>
        <time>2025-08-06T07:09:46Z</time>
      </trkpt>
      <trkpt lat="45.69329" lon="4.72153">
        <ele>253.2</ele>
        <time>2025-08-06T07:09:47Z</time>
      </trkpt>
      <trkpt lat="45.69327" lon="4.7215">
        <ele>253.6</ele>
        <time>2025-08-06T07:09:48Z</time>
      </trkpt>
      <trkpt lat="45.69326" lon="4.72147">
        <ele>254</ele>
        <time>2025-08-06T07:09:49Z</time>
      </trkpt>
      <trkpt lat="45.69325" lon="4.72144">
        <ele>254.4</ele>
        <time>2025-08-06T07:09:50Z</time>
      </trkpt>
      <trkpt lat="45.69324" lon="4.72141">
        <ele>254.8</ele>
        <time>2025-08-06T07:09:51Z</time>
      </trkpt>
      <trkpt lat="45.69322" lon="4.72138">
        <ele>255.2</ele>
        <time>2025-08-06T07:09:52Z</time>
      </trkpt>
      <trkpt lat="45.69321" lon="4.72134">
        <ele>255.4</ele>
        <time>2025-08-06T07:09:53Z</time>
      </trkpt>
      <trkpt lat="45.69319" lon="4.72131">
        <ele>255.8</ele>
        <time>2025-08-06T07:09:54Z</time>
      </trkpt>
      <trkpt lat="45.69319" lon="4.72128">
        <ele>256.2</ele>
        <time>2025-08-06T07:09:55Z</time>
      </trkpt>
      <trkpt lat="45.69318" lon="4.72125">
        <ele>256.4</ele>
        <time>2025-08-06T07:09:56Z</time>
      </trkpt>
      <trkpt lat="45.69317" lon="4.72122">
        <ele>256.8</ele>
        <time>2025-08-06T07:09:57Z</time>
      </trkpt>
      <trkpt lat="45.69316" lon="4.72119">
        <ele>257.2</ele>
        <time>2025-08-06T07:09:58Z</time>
      </trkpt>
      <trkpt lat="45.69315" lon="4.72116">
        <ele>257.4</ele>
        <time>2025-08-06T07:09:59Z</time>
      </trkpt>
      <trkpt lat="45.69314" lon="4.72112">
        <ele>257.8</ele>
        <time>2025-08-06T07:10:00Z</time>
      </trkpt>
      <trkpt lat="45.69312" lon="4.72109">
        <ele>258.2</ele>
        <time>2025-08-06T07:10:01Z</time>
      </trkpt>
      <trkpt lat="45.69311" lon="4.72105">
        <ele>258.4</ele>
        <time>2025-08-06T07:10:02Z</time>
      </trkpt>
      <trkpt lat="45.6931" lon="4.72101">
        <ele>258.8</ele>
        <time>2025-08-06T07:10:03Z</time>
      </trkpt>
      <trkpt lat="45.69309" lon="4.72097">
        <ele>259.2</ele>
        <time>2025-08-06T07:10:04Z</time>
      </trkpt>
      <trkpt lat="45.69309" lon="4.72093">
        <ele>259.4</ele>
        <time>2025-08-06T07:10:05Z</time>
      </trkpt>
      <trkpt lat="45.69308" lon="4.72089">
        <ele>259.8</ele>
        <time>2025-08-06T07:10:06Z</time>
      </trkpt>
      <trkpt lat="45.69307" lon="4.72085">
        <ele>260</ele>
        <time>2025-08-06T07:10:07Z</time>
      </trkpt>
      <trkpt lat="45.69306" lon="4.7208">
        <ele>260.4</ele>
        <time>2025-08-06T07:10:08Z</time>
      </trkpt>
      <trkpt lat="45.69306" lon="4.72076">
        <ele>260.6</ele>
        <time>2025-08-06T07:10:09Z</time>
      </trkpt>
      <trkpt lat="45.69306" lon="4.72072">
        <ele>261</ele>
        <time>2025-08-06T07:10:10Z</time>
      </trkpt>
      <trkpt lat="45.69305" lon="4.72068">
        <ele>261.2</ele>
        <time>2025-08-06T07:10:11Z</time>
      </trkpt>
      <trkpt lat="45.69305" lon="4.72064">
        <ele>261.6</ele>
        <time>2025-08-06T07:10:12Z</time>
      </trkpt>
      <trkpt lat="45.69304" lon="4.7206">
        <ele>262</ele>
        <time>2025-08-06T07:10:13Z</time>
      </trkpt>
      <trkpt lat="45.69303" lon="4.72057">
        <ele>262.2</ele>
        <time>2025-08-06T07:10:14Z</time>
      </trkpt>
      <trkpt lat="45.69302" lon="4.72054">
        <ele>262.6</ele>
        <time>2025-08-06T07:10:15Z</time>
      </trkpt>
      <trkpt lat="45.69301" lon="4.7205">
        <ele>263</ele>
        <time>2025-08-06T07:10:16Z</time>
      </trkpt>
      <trkpt lat="45.69301" lon="4.72046">
        <ele>263.4</ele>
        <time>2025-08-06T07:10:17Z</time>
      </trkpt>
      <trkpt lat="45.693" lon="4.72042">
        <ele>263.8</ele>
        <time>2025-08-06T07:10:18Z</time>
      </trkpt>
      <trkpt lat="45.69299" lon="4.72039">
        <ele>264.2</ele>
        <time>2025-08-06T07:10:19Z</time>
      </trkpt>
      <trkpt lat="45.69299" lon="4.72035">
        <ele>264.6</ele>
        <time>2025-08-06T07:10:20Z</time>
      </trkpt>
      <trkpt lat="45.69299" lon="4.72031">
        <ele>264.8</ele>
        <time>2025-08-06T07:10:21Z</time>
      </trkpt>
      <trkpt lat="45.69299" lon="4.72027">
        <ele>265.2</ele>
        <time>2025-08-06T07:10:22Z</time>
      </trkpt>
      <trkpt lat="45.69298" lon="4.72023">
        <ele>265.4</ele>
        <time>2025-08-06T07:10:23Z</time>
      </trkpt>
      <trkpt lat="45.69299" lon="4.72019">
        <ele>265.8</ele>
        <time>2025-08-06T07:10:24Z</time>
      </trkpt>
      <trkpt lat="45.69299" lon="4.72015">
        <ele>266</ele>
        <time>2025-08-06T07:10:25Z</time>
      </trkpt>
      <trkpt lat="45.69299" lon="4.72011">
        <ele>266.4</ele>
        <time>2025-08-06T07:10:26Z</time>
      </trkpt>
      <trkpt lat="45.693" lon="4.72007">
        <ele>266.6</ele>
        <time>2025-08-06T07:10:27Z</time>
      </trkpt>
      <trkpt lat="45.693" lon="4.72003">
        <ele>267</ele>
        <time>2025-08-06T07:10:28Z</time>
      </trkpt>
      <trkpt lat="45.69301" lon="4.72">
        <ele>267.4</ele>
        <time>2025-08-06T07:10:29Z</time>
      </trkpt>
      <trkpt lat="45.69301" lon="4.71997">
        <ele>267.8</ele>
        <time>2025-08-06T07:10:30Z</time>
      </trkpt>
      <trkpt lat="45.69301" lon="4.71993">
        <ele>268.2</ele>
        <time>2025-08-06T07:10:31Z</time>
      </trkpt>
      <trkpt lat="45.69301" lon="4.71989">
        <ele>268.4</ele>
        <time>2025-08-06T07:10:32Z</time>
      </trkpt>
      <trkpt lat="45.693" lon="4.71987">
        <ele>268.8</ele>
        <time>2025-08-06T07:10:33Z</time>
      </trkpt>
      <trkpt lat="45.693" lon="4.71984">
        <ele>269.2</ele>
        <time>2025-08-06T07:10:34Z</time>
      </trkpt>
      <trkpt lat="45.69299" lon="4.71982">
        <ele>269.6</ele>
        <time>2025-08-06T07:10:35Z</time>
      </trkpt>
      <trkpt lat="45.69297" lon="4.71981">
        <ele>270</ele>
        <time>2025-08-06T07:10:36Z</time>
      </trkpt>
      <trkpt lat="45.69295" lon="4.71979">
        <ele>270.2</ele>
        <time>2025-08-06T07:10:37Z</time>
      </trkpt>
      <trkpt lat="45.69293" lon="4.71978">
        <ele>270.6</ele>
        <time>2025-08-06T07:10:38Z</time>
      </trkpt>
      <trkpt lat="45.6929" lon="4.71976">
        <ele>270.8</ele>
        <time>2025-08-06T07:10:39Z</time>
      </trkpt>
      <trkpt lat="45.69287" lon="4.71974">
        <ele>271</ele>
        <time>2025-08-06T07:10:40Z</time>
      </trkpt>
      <trkpt lat="45.69284" lon="4.71972">
        <ele>271.4</ele>
        <time>2025-08-06T07:10:41Z</time>
      </trkpt>
      <trkpt lat="45.69281" lon="4.7197">
        <ele>271.6</ele>
        <time>2025-08-06T07:10:42Z</time>
      </trkpt>
      <trkpt lat="45.69278" lon="4.71968">
        <ele>272</ele>
        <time>2025-08-06T07:10:43Z</time>
      </trkpt>
      <trkpt lat="45.69276" lon="4.71966">
        <ele>272.2</ele>
        <time>2025-08-06T07:10:44Z</time>
      </trkpt>
      <trkpt lat="45.69274" lon="4.71964">
        <ele>272.6</ele>
        <time>2025-08-06T07:10:45Z</time>
      </trkpt>
      <trkpt lat="45.69272" lon="4.71959">
        <ele>272.8</ele>
        <time>2025-08-06T07:10:46Z</time>
      </trkpt>
      <trkpt lat="45.69271" lon="4.71955">
        <ele>273.2</ele>
        <time>2025-08-06T07:10:47Z</time>
      </trkpt>
      <trkpt lat="45.6927" lon="4.7195">
        <ele>273.4</ele>
        <time>2025-08-06T07:10:48Z</time>
      </trkpt>
      <trkpt lat="45.69271" lon="4.71946">
        <ele>273.8</ele>
        <time>2025-08-06T07:10:49Z</time>
      </trkpt>
      <trkpt lat="45.69271" lon="4.71942">
        <ele>274</ele>
        <time>2025-08-06T07:10:50Z</time>
      </trkpt>
      <trkpt lat="45.69272" lon="4.71938">
        <ele>274.2</ele>
        <time>2025-08-06T07:10:51Z</time>
      </trkpt>
      <trkpt lat="45.69273" lon="4.71935">
        <ele>274.6</ele>
        <time>2025-08-06T07:10:52Z</time>
      </trkpt>
      <trkpt lat="45.69274" lon="4.71932">
        <ele>274.8</ele>
        <time>2025-08-06T07:10:53Z</time>
      </trkpt>
      <trkpt lat="45.69275" lon="4.71928">
        <ele>275</ele>
        <time>2025-08-06T07:10:54Z</time>
      </trkpt>
      <trkpt lat="45.69275" lon="4.71923">
        <ele>275.2</ele>
        <time>2025-08-06T07:10:55Z</time>
      </trkpt>
      <trkpt lat="45.69275" lon="4.7192">
        <ele>275.6</ele>
        <time>2025-08-06T07:10:56Z</time>
      </trkpt>
      <trkpt lat="45.69273" lon="4.71917">
        <ele>275.8</ele>
        <time>2025-08-06T07:10:57Z</time>
      </trkpt>
      <trkpt lat="45.69271" lon="4.71913">
        <ele>276.2</ele>
        <time>2025-08-06T07:10:58Z</time>
      </trkpt>
      <trkpt lat="45.6927" lon="4.71911">
        <ele>276.4</ele>
        <time>2025-08-06T07:10:59Z</time>
      </trkpt>
      <trkpt lat="45.69268" lon="4.71909">
        <ele>276.8</ele>
        <time>2025-08-06T07:11:00Z</time>
      </trkpt>
      <trkpt lat="45.69266" lon="4.71907">
        <ele>277</ele>
        <time>2025-08-06T07:11:01Z</time>
      </trkpt>
      <trkpt lat="45.69264" lon="4.71903">
        <ele>277.4</ele>
        <time>2025-08-06T07:11:02Z</time>
      </trkpt>
      <trkpt lat="45.69261" lon="4.71899">
        <ele>277.6</ele>
        <time>2025-08-06T07:11:03Z</time>
      </trkpt>
      <trkpt lat="45.69258" lon="4.71897">
        <ele>278</ele>
        <time>2025-08-06T07:11:04Z</time>
      </trkpt>
      <trkpt lat="45.69254" lon="4.71894">
        <ele>278.4</ele>
        <time>2025-08-06T07:11:05Z</time>
      </trkpt>
      <trkpt lat="45.69252" lon="4.71892">
        <ele>278.6</ele>
        <time>2025-08-06T07:11:06Z</time>
      </trkpt>
      <trkpt lat="45.6925" lon="4.71891">
        <ele>279</ele>
        <time>2025-08-06T07:11:07Z</time>
      </trkpt>
      <trkpt lat="45.69248" lon="4.71888">
        <ele>279.4</ele>
        <time>2025-08-06T07:11:08Z</time>
      </trkpt>
      <trkpt lat="45.69245" lon="4.71886">
        <ele>279.6</ele>
        <time>2025-08-06T07:11:09Z</time>
      </trkpt>
      <trkpt lat="45.69243" lon="4.71885">
        <ele>280</ele>
        <time>2025-08-06T07:11:10Z</time>
      </trkpt>
      <trkpt lat="45.6924" lon="4.71883">
        <ele>280.2</ele>
        <time>2025-08-06T07:11:11Z</time>
      </trkpt>
      <trkpt lat="45.69238" lon="4.71882">
        <ele>280.6</ele>
        <time>2025-08-06T07:11:12Z</time>
      </trkpt>
      <trkpt lat="45.69236" lon="4.71882">
        <ele>280.8</ele>
        <time>2025-08-06T07:11:13Z</time>
      </trkpt>
      <trkpt lat="45.69233" lon="4.71882">
        <ele>281.2</ele>
        <time>2025-08-06T07:11:14Z</time>
      </trkpt>
      <trkpt lat="45.69231" lon="4.71881">
        <ele>281.6</ele>
        <time>2025-08-06T07:11:15Z</time>
      </trkpt>
      <trkpt lat="45.69229" lon="4.7188">
        <ele>281.8</ele>
        <time>2025-08-06T07:11:16Z</time>
      </trkpt>
      <trkpt lat="45.69226" lon="4.71879">
        <ele>282.2</ele>
        <time>2025-08-06T07:11:17Z</time>
      </trkpt>
      <trkpt lat="45.69224" lon="4.71878">
        <ele>282.6</ele>
        <time>2025-08-06T07:11:18Z</time>
      </trkpt>
      <trkpt lat="45.69222" lon="4.71877">
        <ele>282.8</ele>
        <time>2025-08-06T07:11:19Z</time>
      </trkpt>
      <trkpt lat="45.69219" lon="4.71877">
        <ele>283.2</ele>
        <time>2025-08-06T07:11:20Z</time>
      </trkpt>
      <trkpt lat="45.69217" lon="4.71876">
        <ele>283.4</ele>
        <time>2025-08-06T07:11:21Z</time>
      </trkpt>
      <trkpt lat="45.69214" lon="4.71875">
        <ele>283.8</ele>
        <time>2025-08-06T07:11:22Z</time>
      </trkpt>
      <trkpt lat="45.69212" lon="4.71874">
        <ele>284</ele>
        <time>2025-08-06T07:11:23Z</time>
      </trkpt>
      <trkpt lat="45.69211" lon="4.71872">
        <ele>284.4</ele>
        <time>2025-08-06T07:11:24Z</time>
      </trkpt>
      <trkpt lat="45.69209" lon="4.71871">
        <ele>284.6</ele>
        <time>2025-08-06T07:11:25Z</time>
      </trkpt>
      <trkpt lat="45.69207" lon="4.7187">
        <ele>284.8</ele>
        <time>2025-08-06T07:11:26Z</time>
      </trkpt>
      <trkpt lat="45.69205" lon="4.71867">
        <ele>285.2</ele>
        <time>2025-08-06T07:11:27Z</time>
      </trkpt>
      <trkpt lat="45.69202" lon="4.71865">
        <ele>285.6</ele>
        <time>2025-08-06T07:11:28Z</time>
      </trkpt>
      <trkpt lat="45.692" lon="4.71862">
        <ele>285.8</ele>
        <time>2025-08-06T07:11:29Z</time>
      </trkpt>
      <trkpt lat="45.69198" lon="4.71859">
        <ele>286.2</ele>
        <time>2025-08-06T07:11:30Z</time>
      </trkpt>
      <trkpt lat="45.69197" lon="4.71856">
        <ele>286.4</ele>
        <time>2025-08-06T07:11:31Z</time>
      </trkpt>
      <trkpt lat="45.69196" lon="4.71852">
        <ele>286.8</ele>
        <time>2025-08-06T07:11:32Z</time>
      </trkpt>
      <trkpt lat="45.69194" lon="4.71848">
        <ele>287</ele>
        <time>2025-08-06T07:11:33Z</time>
      </trkpt>
      <trkpt lat="45.69192" lon="4.71845">
        <ele>287.2</ele>
        <time>2025-08-06T07:11:34Z</time>
      </trkpt>
      <trkpt lat="45.69191" lon="4.71841">
        <ele>287.6</ele>
        <time>2025-08-06T07:11:35Z</time>
      </trkpt>
      <trkpt lat="45.69189" lon="4.71837">
        <ele>288</ele>
        <time>2025-08-06T07:11:36Z</time>
      </trkpt>
      <trkpt lat="45.69188" lon="4.71833">
        <ele>288.2</ele>
        <time>2025-08-06T07:11:37Z</time>
      </trkpt>
      <trkpt lat="45.69186" lon="4.7183">
        <ele>288.6</ele>
        <time>2025-08-06T07:11:38Z</time>
      </trkpt>
      <trkpt lat="45.69185" lon="4.71826">
        <ele>289</ele>
        <time>2025-08-06T07:11:39Z</time>
      </trkpt>
      <trkpt lat="45.69184" lon="4.71822">
        <ele>289.4</ele>
        <time>2025-08-06T07:11:40Z</time>
      </trkpt>
      <trkpt lat="45.69182" lon="4.71818">
        <ele>289.6</ele>
        <time>2025-08-06T07:11:41Z</time>
      </trkpt>
      <trkpt lat="45.6918" lon="4.71814">
        <ele>290</ele>
        <time>2025-08-06T07:11:42Z</time>
      </trkpt>
      <trkpt lat="45.69179" lon="4.7181">
        <ele>290.4</ele>
        <time>2025-08-06T07:11:43Z</time>
      </trkpt>
      <trkpt lat="45.69177" lon="4.71806">
        <ele>290.6</ele>
        <time>2025-08-06T07:11:44Z</time>
      </trkpt>
      <trkpt lat="45.69175" lon="4.71801">
        <ele>291</ele>
        <time>2025-08-06T07:11:45Z</time>
      </trkpt>
      <trkpt lat="45.69174" lon="4.71797">
        <ele>291.2</ele>
        <time>2025-08-06T07:11:46Z</time>
      </trkpt>
      <trkpt lat="45.69172" lon="4.71793">
        <ele>291.4</ele>
        <time>2025-08-06T07:11:47Z</time>
      </trkpt>
      <trkpt lat="45.69171" lon="4.71789">
        <ele>291.6</ele>
        <time>2025-08-06T07:11:48Z</time>
      </trkpt>
      <trkpt lat="45.6917" lon="4.71785">
        <ele>292</ele>
        <time>2025-08-06T07:11:49Z</time>
      </trkpt>
      <trkpt lat="45.6917" lon="4.71781">
        <ele>292.2</ele>
        <time>2025-08-06T07:11:50Z</time>
      </trkpt>
      <trkpt lat="45.69171" lon="4.71777">
        <ele>292.6</ele>
        <time>2025-08-06T07:11:51Z</time>
      </trkpt>
      <trkpt lat="45.69172" lon="4.71773">
        <ele>292.8</ele>
        <time>2025-08-06T07:11:52Z</time>
      </trkpt>
      <trkpt lat="45.69173" lon="4.71769">
        <ele>293</ele>
        <time>2025-08-06T07:11:53Z</time>
      </trkpt>
      <trkpt lat="45.69174" lon="4.71766">
        <ele>293.2</ele>
        <time>2025-08-06T07:11:54Z</time>
      </trkpt>
      <trkpt lat="45.69176" lon="4.71762">
        <ele>293.6</ele>
        <time>2025-08-06T07:11:55Z</time>
      </trkpt>
      <trkpt lat="45.69178" lon="4.71759">
        <ele>293.8</ele>
        <time>2025-08-06T07:11:56Z</time>
      </trkpt>
      <trkpt lat="45.69179" lon="4.71755">
        <ele>294</ele>
        <time>2025-08-06T07:11:57Z</time>
      </trkpt>
      <trkpt lat="45.69181" lon="4.71752">
        <ele>294.4</ele>
        <time>2025-08-06T07:11:58Z</time>
      </trkpt>
      <trkpt lat="45.69183" lon="4.71748">
        <ele>294.6</ele>
        <time>2025-08-06T07:11:59Z</time>
      </trkpt>
      <trkpt lat="45.69184" lon="4.71745">
        <ele>295</ele>
        <time>2025-08-06T07:12:00Z</time>
      </trkpt>
      <trkpt lat="45.69186" lon="4.71741">
        <ele>295.2</ele>
        <time>2025-08-06T07:12:01Z</time>
      </trkpt>
      <trkpt lat="45.69187" lon="4.71738">
        <ele>295.4</ele>
        <time>2025-08-06T07:12:02Z</time>
      </trkpt>
      <trkpt lat="45.69189" lon="4.71735">
        <ele>295.8</ele>
        <time>2025-08-06T07:12:03Z</time>
      </trkpt>
      <trkpt lat="45.6919" lon="4.71732">
        <ele>296</ele>
        <time>2025-08-06T07:12:04Z</time>
      </trkpt>
      <trkpt lat="45.69192" lon="4.71729">
        <ele>296.2</ele>
        <time>2025-08-06T07:12:05Z</time>
      </trkpt>
      <trkpt lat="45.69193" lon="4.71725">
        <ele>296.6</ele>
        <time>2025-08-06T07:12:06Z</time>
      </trkpt>
      <trkpt lat="45.69195" lon="4.71722">
        <ele>296.8</ele>
        <time>2025-08-06T07:12:07Z</time>
      </trkpt>
      <trkpt lat="45.69197" lon="4.71719">
        <ele>297</ele>
        <time>2025-08-06T07:12:08Z</time>
      </trkpt>
      <trkpt lat="45.69198" lon="4.71715">
        <ele>297.2</ele>
        <time>2025-08-06T07:12:09Z</time>
      </trkpt>
      <trkpt lat="45.692" lon="4.71712">
        <ele>297.4</ele>
        <time>2025-08-06T07:12:10Z</time>
      </trkpt>
      <trkpt lat="45.69202" lon="4.71708">
        <ele>297.6</ele>
        <time>2025-08-06T07:12:11Z</time>
      </trkpt>
      <trkpt lat="45.69203" lon="4.71705">
        <ele>297.8</ele>
        <time>2025-08-06T07:12:12Z</time>
      </trkpt>
      <trkpt lat="45.69205" lon="4.71701">
        <ele>297.8</ele>
        <time>2025-08-06T07:12:13Z</time>
      </trkpt>
      <trkpt lat="45.69207" lon="4.71697">
        <ele>298</ele>
        <time>2025-08-06T07:12:14Z</time>
      </trkpt>
      <trkpt lat="45.69209" lon="4.71693">
        <ele>298</ele>
        <time>2025-08-06T07:12:15Z</time>
      </trkpt>
      <trkpt lat="45.69211" lon="4.71689">
        <ele>298</ele>
        <time>2025-08-06T07:12:16Z</time>
      </trkpt>
      <trkpt lat="45.69213" lon="4.71686">
        <ele>298.2</ele>
        <time>2025-08-06T07:12:17Z</time>
      </trkpt>
      <trkpt lat="45.69215" lon="4.71682">
        <ele>298.2</ele>
        <time>2025-08-06T07:12:18Z</time>
      </trkpt>
      <trkpt lat="45.69217" lon="4.71679">
        <ele>298.2</ele>
        <time>2025-08-06T07:12:19Z</time>
      </trkpt>
      <trkpt lat="45.69218" lon="4.71676">
        <ele>298.2</ele>
        <time>2025-08-06T07:12:20Z</time>
      </trkpt>
      <trkpt lat="45.6922" lon="4.71673">
        <ele>298.2</ele>
        <time>2025-08-06T07:12:21Z</time>
      </trkpt>
      <trkpt lat="45.69222" lon="4.71669">
        <ele>298.2</ele>
        <time>2025-08-06T07:12:22Z</time>
      </trkpt>
      <trkpt lat="45.69224" lon="4.71666">
        <ele>298.4</ele>
        <time>2025-08-06T07:12:23Z</time>
      </trkpt>
      <trkpt lat="45.69225" lon="4.71663">
        <ele>298.4</ele>
        <time>2025-08-06T07:12:24Z</time>
      </trkpt>
      <trkpt lat="45.69227" lon="4.7166">
        <ele>298.6</ele>
        <time>2025-08-06T07:12:25Z</time>
      </trkpt>
      <trkpt lat="45.69229" lon="4.71656">
        <ele>298.6</ele>
        <time>2025-08-06T07:12:26Z</time>
      </trkpt>
      <trkpt lat="45.69231" lon="4.71653">
        <ele>298.6</ele>
        <time>2025-08-06T07:12:27Z</time>
      </trkpt>
      <trkpt lat="45.69232" lon="4.71649">
        <ele>298.6</ele>
        <time>2025-08-06T07:12:28Z</time>
      </trkpt>
      <trkpt lat="45.69234" lon="4.71646">
        <ele>298.6</ele>
        <time>2025-08-06T07:12:29Z</time>
      </trkpt>
      <trkpt lat="45.69236" lon="4.71642">
        <ele>298.6</ele>
        <time>2025-08-06T07:12:30Z</time>
      </trkpt>
      <trkpt lat="45.69237" lon="4.71638">
        <ele>298.8</ele>
        <time>2025-08-06T07:12:31Z</time>
      </trkpt>
      <trkpt lat="45.69237" lon="4.71634">
        <ele>299</ele>
        <time>2025-08-06T07:12:32Z</time>
      </trkpt>
      <trkpt lat="45.69236" lon="4.7163">
        <ele>299</ele>
        <time>2025-08-06T07:12:33Z</time>
      </trkpt>
      <trkpt lat="45.69235" lon="4.71625">
        <ele>299.2</ele>
        <time>2025-08-06T07:12:34Z</time>
      </trkpt>
      <trkpt lat="45.69233" lon="4.71621">
        <ele>299.2</ele>
        <time>2025-08-06T07:12:35Z</time>
      </trkpt>
      <trkpt lat="45.69231" lon="4.71617">
        <ele>299.4</ele>
        <time>2025-08-06T07:12:36Z</time>
      </trkpt>
      <trkpt lat="45.69229" lon="4.71613">
        <ele>299.4</ele>
        <time>2025-08-06T07:12:37Z</time>
      </trkpt>
      <trkpt lat="45.69226" lon="4.71609">
        <ele>299.4</ele>
        <time>2025-08-06T07:12:38Z</time>
      </trkpt>
      <trkpt lat="45.69225" lon="4.71605">
        <ele>299.6</ele>
        <time>2025-08-06T07:12:39Z</time>
      </trkpt>
      <trkpt lat="45.69223" lon="4.71602">
        <ele>299.6</ele>
        <time>2025-08-06T07:12:40Z</time>
      </trkpt>
      <trkpt lat="45.69221" lon="4.71598">
        <ele>299.8</ele>
        <time>2025-08-06T07:12:41Z</time>
      </trkpt>
      <trkpt lat="45.69219" lon="4.71596">
        <ele>299.8</ele>
        <time>2025-08-06T07:12:42Z</time>
      </trkpt>
      <trkpt lat="45.69218" lon="4.71594">
        <ele>299.8</ele>
        <time>2025-08-06T07:12:43Z</time>
      </trkpt>
      <trkpt lat="45.69216" lon="4.71591">
        <ele>299.8</ele>
        <time>2025-08-06T07:12:44Z</time>
      </trkpt>
      <trkpt lat="45.69215" lon="4.71588">
        <ele>299.8</ele>
        <time>2025-08-06T07:12:45Z</time>
      </trkpt>
      <trkpt lat="45.69215" lon="4.71585">
        <ele>300</ele>
        <time>2025-08-06T07:12:46Z</time>
      </trkpt>
      <trkpt lat="45.69216" lon="4.71581">
        <ele>300</ele>
        <time>2025-08-06T07:12:47Z</time>
      </trkpt>
      <trkpt lat="45.69218" lon="4.71578">
        <ele>300</ele>
        <time>2025-08-06T07:12:48Z</time>
      </trkpt>
      <trkpt lat="45.69219" lon="4.71575">
        <ele>300.2</ele>
        <time>2025-08-06T07:12:49Z</time>
      </trkpt>
      <trkpt lat="45.6922" lon="4.71571">
        <ele>300.4</ele>
        <time>2025-08-06T07:12:50Z</time>
      </trkpt>
      <trkpt lat="45.69222" lon="4.71566">
        <ele>300.6</ele>
        <time>2025-08-06T07:12:51Z</time>
      </trkpt>
      <trkpt lat="45.69223" lon="4.71562">
        <ele>300.8</ele>
        <time>2025-08-06T07:12:52Z</time>
      </trkpt>
      <trkpt lat="45.69224" lon="4.71557">
        <ele>301</ele>
        <time>2025-08-06T07:12:53Z</time>
      </trkpt>
      <trkpt lat="45.69225" lon="4.71553">
        <ele>301.2</ele>
        <time>2025-08-06T07:12:54Z</time>
      </trkpt>
      <trkpt lat="45.69227" lon="4.71548">
        <ele>301.2</ele>
        <time>2025-08-06T07:12:55Z</time>
      </trkpt>
      <trkpt lat="45.69229" lon="4.71544">
        <ele>301.4</ele>
        <time>2025-08-06T07:12:56Z</time>
      </trkpt>
      <trkpt lat="45.69231" lon="4.71541">
        <ele>301.2</ele>
        <time>2025-08-06T07:12:57Z</time>
      </trkpt>
      <trkpt lat="45.69233" lon="4.71537">
        <ele>301.2</ele>
        <time>2025-08-06T07:12:58Z</time>
      </trkpt>
      <trkpt lat="45.69235" lon="4.71534">
        <ele>301.2</ele>
        <time>2025-08-06T07:12:59Z</time>
      </trkpt>
      <trkpt lat="45.69238" lon="4.7153">
        <ele>301.2</ele>
        <time>2025-08-06T07:13:00Z</time>
      </trkpt>
      <trkpt lat="45.6924" lon="4.71527">
        <ele>301.2</ele>
        <time>2025-08-06T07:13:01Z</time>
      </trkpt>
      <trkpt lat="45.69242" lon="4.71523">
        <ele>301.4</ele>
        <time>2025-08-06T07:13:02Z</time>
      </trkpt>
      <trkpt lat="45.69243" lon="4.71519">
        <ele>301.6</ele>
        <time>2025-08-06T07:13:03Z</time>
      </trkpt>
      <trkpt lat="45.69245" lon="4.71515">
        <ele>301.8</ele>
        <time>2025-08-06T07:13:04Z</time>
      </trkpt>
      <trkpt lat="45.69246" lon="4.7151">
        <ele>302</ele>
        <time>2025-08-06T07:13:05Z</time>
      </trkpt>
      <trkpt lat="45.69246" lon="4.71505">
        <ele>302</ele>
        <time>2025-08-06T07:13:06Z</time>
      </trkpt>
      <trkpt lat="45.69247" lon="4.715">
        <ele>302.2</ele>
        <time>2025-08-06T07:13:07Z</time>
      </trkpt>
      <trkpt lat="45.69248" lon="4.71495">
        <ele>302.4</ele>
        <time>2025-08-06T07:13:08Z</time>
      </trkpt>
      <trkpt lat="45.69248" lon="4.7149">
        <ele>302.6</ele>
        <time>2025-08-06T07:13:09Z</time>
      </trkpt>
      <trkpt lat="45.69247" lon="4.71485">
        <ele>302.8</ele>
        <time>2025-08-06T07:13:10Z</time>
      </trkpt>
      <trkpt lat="45.69246" lon="4.71481">
        <ele>303.2</ele>
        <time>2025-08-06T07:13:11Z</time>
      </trkpt>
      <trkpt lat="45.69244" lon="4.71477">
        <ele>303.4</ele>
        <time>2025-08-06T07:13:12Z</time>
      </trkpt>
      <trkpt lat="45.69241" lon="4.71474">
        <ele>303.8</ele>
        <time>2025-08-06T07:13:13Z</time>
      </trkpt>
      <trkpt lat="45.69238" lon="4.71472">
        <ele>304</ele>
        <time>2025-08-06T07:13:14Z</time>
      </trkpt>
      <trkpt lat="45.69235" lon="4.7147">
        <ele>304.2</ele>
        <time>2025-08-06T07:13:15Z</time>
      </trkpt>
      <trkpt lat="45.69231" lon="4.71468">
        <ele>304.2</ele>
        <time>2025-08-06T07:13:16Z</time>
      </trkpt>
      <trkpt lat="45.69228" lon="4.71466">
        <ele>304.4</ele>
        <time>2025-08-06T07:13:17Z</time>
      </trkpt>
      <trkpt lat="45.69224" lon="4.71464">
        <ele>304.4</ele>
        <time>2025-08-06T07:13:18Z</time>
      </trkpt>
      <trkpt lat="45.69221" lon="4.71462">
        <ele>304.6</ele>
        <time>2025-08-06T07:13:19Z</time>
      </trkpt>
      <trkpt lat="45.69217" lon="4.7146">
        <ele>304.6</ele>
        <time>2025-08-06T07:13:20Z</time>
      </trkpt>
      <trkpt lat="45.69213" lon="4.71458">
        <ele>304.6</ele>
        <time>2025-08-06T07:13:21Z</time>
      </trkpt>
      <trkpt lat="45.69209" lon="4.71456">
        <ele>304.8</ele>
        <time>2025-08-06T07:13:22Z</time>
      </trkpt>
      <trkpt lat="45.69206" lon="4.71454">
        <ele>304.8</ele>
        <time>2025-08-06T07:13:23Z</time>
      </trkpt>
      <trkpt lat="45.69202" lon="4.71452">
        <ele>304.8</ele>
        <time>2025-08-06T07:13:24Z</time>
      </trkpt>
      <trkpt lat="45.69199" lon="4.71451">
        <ele>305</ele>
        <time>2025-08-06T07:13:25Z</time>
      </trkpt>
      <trkpt lat="45.69195" lon="4.71449">
        <ele>305</ele>
        <time>2025-08-06T07:13:26Z</time>
      </trkpt>
      <trkpt lat="45.69192" lon="4.71447">
        <ele>305.2</ele>
        <time>2025-08-06T07:13:27Z</time>
      </trkpt>
      <trkpt lat="45.69188" lon="4.71446">
        <ele>305.2</ele>
        <time>2025-08-06T07:13:28Z</time>
      </trkpt>
      <trkpt lat="45.69184" lon="4.71444">
        <ele>305.4</ele>
        <time>2025-08-06T07:13:29Z</time>
      </trkpt>
      <trkpt lat="45.69181" lon="4.71442">
        <ele>305.4</ele>
        <time>2025-08-06T07:13:30Z</time>
      </trkpt>
      <trkpt lat="45.69177" lon="4.71441">
        <ele>305.6</ele>
        <time>2025-08-06T07:13:31Z</time>
      </trkpt>
      <trkpt lat="45.69174" lon="4.71439">
        <ele>305.6</ele>
        <time>2025-08-06T07:13:32Z</time>
      </trkpt>
      <trkpt lat="45.69171" lon="4.71437">
        <ele>305.8</ele>
        <time>2025-08-06T07:13:33Z</time>
      </trkpt>
      <trkpt lat="45.69167" lon="4.71435">
        <ele>306</ele>
        <time>2025-08-06T07:13:34Z</time>
      </trkpt>
      <trkpt lat="45.69164" lon="4.71433">
        <ele>306.2</ele>
        <time>2025-08-06T07:13:35Z</time>
      </trkpt>
      <trkpt lat="45.69161" lon="4.71432">
        <ele>306.4</ele>
        <time>2025-08-06T07:13:36Z</time>
      </trkpt>
      <trkpt lat="45.69158" lon="4.7143">
        <ele>306.6</ele>
        <time>2025-08-06T07:13:37Z</time>
      </trkpt>
      <trkpt lat="45.69154" lon="4.71428">
        <ele>306.6</ele>
        <time>2025-08-06T07:13:38Z</time>
      </trkpt>
      <trkpt lat="45.69151" lon="4.71427">
        <ele>306.8</ele>
        <time>2025-08-06T07:13:39Z</time>
      </trkpt>
      <trkpt lat="45.69147" lon="4.71425">
        <ele>306.8</ele>
        <time>2025-08-06T07:13:40Z</time>
      </trkpt>
      <trkpt lat="45.69144" lon="4.71424">
        <ele>307</ele>
        <time>2025-08-06T07:13:41Z</time>
      </trkpt>
      <trkpt lat="45.6914" lon="4.71423">
        <ele>307.2</ele>
        <time>2025-08-06T07:13:42Z</time>
      </trkpt>
      <trkpt lat="45.69137" lon="4.71421">
        <ele>307.4</ele>
        <time>2025-08-06T07:13:43Z</time>
      </trkpt>
      <trkpt lat="45.69133" lon="4.7142">
        <ele>307.6</ele>
        <time>2025-08-06T07:13:44Z</time>
      </trkpt>
      <trkpt lat="45.69129" lon="4.71419">
        <ele>307.8</ele>
        <time>2025-08-06T07:13:45Z</time>
      </trkpt>
      <trkpt lat="45.69126" lon="4.71418">
        <ele>308</ele>
        <time>2025-08-06T07:13:46Z</time>
      </trkpt>
      <trkpt lat="45.69123" lon="4.71417">
        <ele>308</ele>
        <time>2025-08-06T07:13:47Z</time>
      </trkpt>
      <trkpt lat="45.69119" lon="4.71415">
        <ele>308.2</ele>
        <time>2025-08-06T07:13:48Z</time>
      </trkpt>
      <trkpt lat="45.69116" lon="4.71414">
        <ele>308.4</ele>
        <time>2025-08-06T07:13:49Z</time>
      </trkpt>
      <trkpt lat="45.69113" lon="4.71412">
        <ele>308.6</ele>
        <time>2025-08-06T07:13:50Z</time>
      </trkpt>
      <trkpt lat="45.69109" lon="4.71411">
        <ele>308.8</ele>
        <time>2025-08-06T07:13:51Z</time>
      </trkpt>
      <trkpt lat="45.69106" lon="4.7141">
        <ele>309</ele>
        <time>2025-08-06T07:13:52Z</time>
      </trkpt>
      <trkpt lat="45.69102" lon="4.71409">
        <ele>309.2</ele>
        <time>2025-08-06T07:13:53Z</time>
      </trkpt>
      <trkpt lat="45.69098" lon="4.71407">
        <ele>309.2</ele>
        <time>2025-08-06T07:13:54Z</time>
      </trkpt>
      <trkpt lat="45.69095" lon="4.71406">
        <ele>309.4</ele>
        <time>2025-08-06T07:13:55Z</time>
      </trkpt>
      <trkpt lat="45.69091" lon="4.71404">
        <ele>309.6</ele>
        <time>2025-08-06T07:13:56Z</time>
      </trkpt>
      <trkpt lat="45.69087" lon="4.71401">
        <ele>309.6</ele>
        <time>2025-08-06T07:13:57Z</time>
      </trkpt>
      <trkpt lat="45.69084" lon="4.71398">
        <ele>309.8</ele>
        <time>2025-08-06T07:13:58Z</time>
      </trkpt>
      <trkpt lat="45.69082" lon="4.71394">
        <ele>310</ele>
        <time>2025-08-06T07:13:59Z</time>
      </trkpt>
      <trkpt lat="45.6908" lon="4.7139">
        <ele>310</ele>
        <time>2025-08-06T07:14:00Z</time>
      </trkpt>
      <trkpt lat="45.6908" lon="4.71385">
        <ele>310</ele>
        <time>2025-08-06T07:14:01Z</time>
      </trkpt>
      <trkpt lat="45.69081" lon="4.7138">
        <ele>310.2</ele>
        <time>2025-08-06T07:14:02Z</time>
      </trkpt>
      <trkpt lat="45.69082" lon="4.71375">
        <ele>310.2</ele>
        <time>2025-08-06T07:14:03Z</time>
      </trkpt>
      <trkpt lat="45.69083" lon="4.71371">
        <ele>310.4</ele>
        <time>2025-08-06T07:14:04Z</time>
      </trkpt>
      <trkpt lat="45.69084" lon="4.71366">
        <ele>310.6</ele>
        <time>2025-08-06T07:14:05Z</time>
      </trkpt>
      <trkpt lat="45.69085" lon="4.7136">
        <ele>310.8</ele>
        <time>2025-08-06T07:14:06Z</time>
      </trkpt>
      <trkpt lat="45.69086" lon="4.71355">
        <ele>311</ele>
        <time>2025-08-06T07:14:07Z</time>
      </trkpt>
      <trkpt lat="45.69087" lon="4.7135">
        <ele>311</ele>
        <time>2025-08-06T07:14:08Z</time>
      </trkpt>
      <trkpt lat="45.69088" lon="4.71345">
        <ele>311.2</ele>
        <time>2025-08-06T07:14:09Z</time>
      </trkpt>
      <trkpt lat="45.69089" lon="4.7134">
        <ele>311.2</ele>
        <time>2025-08-06T07:14:10Z</time>
      </trkpt>
      <trkpt lat="45.6909" lon="4.71335">
        <ele>311.6</ele>
        <time>2025-08-06T07:14:11Z</time>
      </trkpt>
      <trkpt lat="45.69091" lon="4.7133">
        <ele>311.8</ele>
        <time>2025-08-06T07:14:12Z</time>
      </trkpt>
      <trkpt lat="45.69092" lon="4.71326">
        <ele>312</ele>
        <time>2025-08-06T07:14:13Z</time>
      </trkpt>
      <trkpt lat="45.69093" lon="4.71321">
        <ele>312.2</ele>
        <time>2025-08-06T07:14:14Z</time>
      </trkpt>
      <trkpt lat="45.69094" lon="4.71316">
        <ele>312.6</ele>
        <time>2025-08-06T07:14:15Z</time>
      </trkpt>
      <trkpt lat="45.69095" lon="4.71311">
        <ele>312.8</ele>
        <time>2025-08-06T07:14:16Z</time>
      </trkpt>
      <trkpt lat="45.69095" lon="4.71307">
        <ele>313</ele>
        <time>2025-08-06T07:14:17Z</time>
      </trkpt>
      <trkpt lat="45.69095" lon="4.71302">
        <ele>313.4</ele>
        <time>2025-08-06T07:14:18Z</time>
      </trkpt>
      <trkpt lat="45.69094" lon="4.71297">
        <ele>313.6</ele>
        <time>2025-08-06T07:14:19Z</time>
      </trkpt>
      <trkpt lat="45.69092" lon="4.71293">
        <ele>313.8</ele>
        <time>2025-08-06T07:14:20Z</time>
      </trkpt>
      <trkpt lat="45.6909" lon="4.71289">
        <ele>314.2</ele>
        <time>2025-08-06T07:14:21Z</time>
      </trkpt>
      <trkpt lat="45.69087" lon="4.71285">
        <ele>314.6</ele>
        <time>2025-08-06T07:14:22Z</time>
      </trkpt>
      <trkpt lat="45.69085" lon="4.7128">
        <ele>314.8</ele>
        <time>2025-08-06T07:14:23Z</time>
      </trkpt>
      <trkpt lat="45.69085" lon="4.71276">
        <ele>315.2</ele>
        <time>2025-08-06T07:14:24Z</time>
      </trkpt>
      <trkpt lat="45.69085" lon="4.71271">
        <ele>315.4</ele>
        <time>2025-08-06T07:14:25Z</time>
      </trkpt>
      <trkpt lat="45.69086" lon="4.71266">
        <ele>315.8</ele>
        <time>2025-08-06T07:14:26Z</time>
      </trkpt>
      <trkpt lat="45.69088" lon="4.71262">
        <ele>316</ele>
        <time>2025-08-06T07:14:27Z</time>
      </trkpt>
      <trkpt lat="45.69089" lon="4.71258">
        <ele>316.2</ele>
        <time>2025-08-06T07:14:28Z</time>
      </trkpt>
      <trkpt lat="45.6909" lon="4.71254">
        <ele>316.6</ele>
        <time>2025-08-06T07:14:29Z</time>
      </trkpt>
      <trkpt lat="45.69089" lon="4.71249">
        <ele>316.8</ele>
        <time>2025-08-06T07:14:30Z</time>
      </trkpt>
      <trkpt lat="45.69088" lon="4.71244">
        <ele>316.8</ele>
        <time>2025-08-06T07:14:31Z</time>
      </trkpt>
      <trkpt lat="45.69086" lon="4.71239">
        <ele>317</ele>
        <time>2025-08-06T07:14:32Z</time>
      </trkpt>
      <trkpt lat="45.69086" lon="4.71234">
        <ele>317</ele>
        <time>2025-08-06T07:14:33Z</time>
      </trkpt>
      <trkpt lat="45.69087" lon="4.71228">
        <ele>317</ele>
        <time>2025-08-06T07:14:34Z</time>
      </trkpt>
      <trkpt lat="45.69087" lon="4.71222">
        <ele>317</ele>
        <time>2025-08-06T07:14:35Z</time>
      </trkpt>
      <trkpt lat="45.69088" lon="4.71217">
        <ele>317</ele>
        <time>2025-08-06T07:14:36Z</time>
      </trkpt>
      <trkpt lat="45.69089" lon="4.71212">
        <ele>317</ele>
        <time>2025-08-06T07:14:37Z</time>
      </trkpt>
      <trkpt lat="45.6909" lon="4.71206">
        <ele>317</ele>
        <time>2025-08-06T07:14:38Z</time>
      </trkpt>
      <trkpt lat="45.6909" lon="4.712">
        <ele>317</ele>
        <time>2025-08-06T07:14:39Z</time>
      </trkpt>
      <trkpt lat="45.69091" lon="4.71195">
        <ele>317.2</ele>
        <time>2025-08-06T07:14:40Z</time>
      </trkpt>
      <trkpt lat="45.69092" lon="4.71189">
        <ele>317.2</ele>
        <time>2025-08-06T07:14:41Z</time>
      </trkpt>
      <trkpt lat="45.69092" lon="4.71183">
        <ele>317.2</ele>
        <time>2025-08-06T07:14:42Z</time>
      </trkpt>
      <trkpt lat="45.69093" lon="4.71178">
        <ele>317.4</ele>
        <time>2025-08-06T07:14:43Z</time>
      </trkpt>
      <trkpt lat="45.69092" lon="4.71173">
        <ele>317.4</ele>
        <time>2025-08-06T07:14:44Z</time>
      </trkpt>
      <trkpt lat="45.69091" lon="4.71169">
        <ele>317.4</ele>
        <time>2025-08-06T07:14:45Z</time>
      </trkpt>
      <trkpt lat="45.69089" lon="4.71166">
        <ele>317.6</ele>
        <time>2025-08-06T07:14:46Z</time>
      </trkpt>
      <trkpt lat="45.69086" lon="4.71164">
        <ele>317.8</ele>
        <time>2025-08-06T07:14:47Z</time>
      </trkpt>
      <trkpt lat="45.69083" lon="4.71162">
        <ele>318</ele>
        <time>2025-08-06T07:14:48Z</time>
      </trkpt>
      <trkpt lat="45.69079" lon="4.71159">
        <ele>318.2</ele>
        <time>2025-08-06T07:14:49Z</time>
      </trkpt>
      <trkpt lat="45.69075" lon="4.71157">
        <ele>318.2</ele>
        <time>2025-08-06T07:14:50Z</time>
      </trkpt>
      <trkpt lat="45.69071" lon="4.71154">
        <ele>318.4</ele>
        <time>2025-08-06T07:14:51Z</time>
      </trkpt>
      <trkpt lat="45.69067" lon="4.71152">
        <ele>318.4</ele>
        <time>2025-08-06T07:14:52Z</time>
      </trkpt>
      <trkpt lat="45.69063" lon="4.7115">
        <ele>318.4</ele>
        <time>2025-08-06T07:14:53Z</time>
      </trkpt>
      <trkpt lat="45.69059" lon="4.71148">
        <ele>318.2</ele>
        <time>2025-08-06T07:14:54Z</time>
      </trkpt>
      <trkpt lat="45.69055" lon="4.71145">
        <ele>318.2</ele>
        <time>2025-08-06T07:14:55Z</time>
      </trkpt>
      <trkpt lat="45.69051" lon="4.71143">
        <ele>318.2</ele>
        <time>2025-08-06T07:14:56Z</time>
      </trkpt>
      <trkpt lat="45.69047" lon="4.7114">
        <ele>318.2</ele>
        <time>2025-08-06T07:14:57Z</time>
      </trkpt>
      <trkpt lat="45.69043" lon="4.71138">
        <ele>318.4</ele>
        <time>2025-08-06T07:14:58Z</time>
      </trkpt>
      <trkpt lat="45.69039" lon="4.71135">
        <ele>318.4</ele>
        <time>2025-08-06T07:14:59Z</time>
      </trkpt>
      <trkpt lat="45.69035" lon="4.71133">
        <ele>318.4</ele>
        <time>2025-08-06T07:15:00Z</time>
      </trkpt>
      <trkpt lat="45.6903" lon="4.7113">
        <ele>318.6</ele>
        <time>2025-08-06T07:15:01Z</time>
      </trkpt>
      <trkpt lat="45.69026" lon="4.71128">
        <ele>318.6</ele>
        <time>2025-08-06T07:15:02Z</time>
      </trkpt>
      <trkpt lat="45.69022" lon="4.71126">
        <ele>318.8</ele>
        <time>2025-08-06T07:15:03Z</time>
      </trkpt>
      <trkpt lat="45.69018" lon="4.71123">
        <ele>319</ele>
        <time>2025-08-06T07:15:04Z</time>
      </trkpt>
      <trkpt lat="45.69014" lon="4.71121">
        <ele>319</ele>
        <time>2025-08-06T07:15:05Z</time>
      </trkpt>
      <trkpt lat="45.6901" lon="4.71119">
        <ele>319.2</ele>
        <time>2025-08-06T07:15:06Z</time>
      </trkpt>
      <trkpt lat="45.69005" lon="4.71116">
        <ele>319.2</ele>
        <time>2025-08-06T07:15:07Z</time>
      </trkpt>
      <trkpt lat="45.69001" lon="4.71114">
        <ele>319.4</ele>
        <time>2025-08-06T07:15:08Z</time>
      </trkpt>
      <trkpt lat="45.68997" lon="4.71111">
        <ele>319.4</ele>
        <time>2025-08-06T07:15:09Z</time>
      </trkpt>
      <trkpt lat="45.68992" lon="4.71109">
        <ele>319.6</ele>
        <time>2025-08-06T07:15:10Z</time>
      </trkpt>
      <trkpt lat="45.68988" lon="4.71107">
        <ele>319.6</ele>
        <time>2025-08-06T07:15:11Z</time>
      </trkpt>
      <trkpt lat="45.68984" lon="4.71104">
        <ele>319.8</ele>
        <time>2025-08-06T07:15:12Z</time>
      </trkpt>
      <trkpt lat="45.6898" lon="4.71102">
        <ele>320</ele>
        <time>2025-08-06T07:15:13Z</time>
      </trkpt>
      <trkpt lat="45.68975" lon="4.71099">
        <ele>320</ele>
        <time>2025-08-06T07:15:14Z</time>
      </trkpt>
      <trkpt lat="45.68971" lon="4.71097">
        <ele>320</ele>
        <time>2025-08-06T07:15:15Z</time>
      </trkpt>
      <trkpt lat="45.68967" lon="4.71094">
        <ele>320.2</ele>
        <time>2025-08-06T07:15:16Z</time>
      </trkpt>
      <trkpt lat="45.68963" lon="4.7109">
        <ele>320.2</ele>
        <time>2025-08-06T07:15:17Z</time>
      </trkpt>
      <trkpt lat="45.68959" lon="4.71087">
        <ele>320.2</ele>
        <time>2025-08-06T07:15:18Z</time>
      </trkpt>
      <trkpt lat="45.68955" lon="4.71083">
        <ele>320.2</ele>
        <time>2025-08-06T07:15:19Z</time>
      </trkpt>
      <trkpt lat="45.68951" lon="4.7108">
        <ele>320</ele>
        <time>2025-08-06T07:15:20Z</time>
      </trkpt>
      <trkpt lat="45.68947" lon="4.71076">
        <ele>320</ele>
        <time>2025-08-06T07:15:21Z</time>
      </trkpt>
      <trkpt lat="45.68943" lon="4.71073">
        <ele>320</ele>
        <time>2025-08-06T07:15:22Z</time>
      </trkpt>
      <trkpt lat="45.68938" lon="4.7107">
        <ele>320</ele>
        <time>2025-08-06T07:15:23Z</time>
      </trkpt>
      <trkpt lat="45.68934" lon="4.71067">
        <ele>320</ele>
        <time>2025-08-06T07:15:24Z</time>
      </trkpt>
      <trkpt lat="45.6893" lon="4.71063">
        <ele>320</ele>
        <time>2025-08-06T07:15:25Z</time>
      </trkpt>
      <trkpt lat="45.68926" lon="4.7106">
        <ele>320</ele>
        <time>2025-08-06T07:15:26Z</time>
      </trkpt>
      <trkpt lat="45.68922" lon="4.71056">
        <ele>320</ele>
        <time>2025-08-06T07:15:27Z</time>
      </trkpt>
      <trkpt lat="45.68918" lon="4.71053">
        <ele>319.8</ele>
        <time>2025-08-06T07:15:28Z</time>
      </trkpt>
      <trkpt lat="45.68914" lon="4.71049">
        <ele>319.8</ele>
        <time>2025-08-06T07:15:29Z</time>
      </trkpt>
      <trkpt lat="45.6891" lon="4.71045">
        <ele>319.8</ele>
        <time>2025-08-06T07:15:30Z</time>
      </trkpt>
      <trkpt lat="45.68906" lon="4.71042">
        <ele>319.8</ele>
        <time>2025-08-06T07:15:31Z</time>
      </trkpt>
      <trkpt lat="45.68902" lon="4.71038">
        <ele>319.8</ele>
        <time>2025-08-06T07:15:32Z</time>
      </trkpt>
      <trkpt lat="45.68898" lon="4.71034">
        <ele>319.8</ele>
        <time>2025-08-06T07:15:33Z</time>
      </trkpt>
      <trkpt lat="45.68893" lon="4.71031">
        <ele>319.8</ele>
        <time>2025-08-06T07:15:34Z</time>
      </trkpt>
      <trkpt lat="45.68889" lon="4.71028">
        <ele>319.8</ele>
        <time>2025-08-06T07:15:35Z</time>
      </trkpt>
      <trkpt lat="45.68885" lon="4.71024">
        <ele>319.8</ele>
        <time>2025-08-06T07:15:36Z</time>
      </trkpt>
      <trkpt lat="45.68881" lon="4.71021">
        <ele>319.8</ele>
        <time>2025-08-06T07:15:37Z</time>
      </trkpt>
      <trkpt lat="45.68877" lon="4.71017">
        <ele>320</ele>
        <time>2025-08-06T07:15:38Z</time>
      </trkpt>
      <trkpt lat="45.68873" lon="4.71014">
        <ele>320</ele>
        <time>2025-08-06T07:15:39Z</time>
      </trkpt>
      <trkpt lat="45.68869" lon="4.71011">
        <ele>320</ele>
        <time>2025-08-06T07:15:40Z</time>
      </trkpt>
      <trkpt lat="45.68864" lon="4.71008">
        <ele>320</ele>
        <time>2025-08-06T07:15:41Z</time>
      </trkpt>
      <trkpt lat="45.6886" lon="4.71005">
        <ele>320</ele>
        <time>2025-08-06T07:15:42Z</time>
      </trkpt>
      <trkpt lat="45.68856" lon="4.71002">
        <ele>320.2</ele>
        <time>2025-08-06T07:15:43Z</time>
      </trkpt>
      <trkpt lat="45.68852" lon="4.70999">
        <ele>320.2</ele>
        <time>2025-08-06T07:15:44Z</time>
      </trkpt>
      <trkpt lat="45.68847" lon="4.70996">
        <ele>320.2</ele>
        <time>2025-08-06T07:15:45Z</time>
      </trkpt>
      <trkpt lat="45.68843" lon="4.70993">
        <ele>320.2</ele>
        <time>2025-08-06T07:15:46Z</time>
      </trkpt>
      <trkpt lat="45.68839" lon="4.70991">
        <ele>320.2</ele>
        <time>2025-08-06T07:15:47Z</time>
      </trkpt>
      <trkpt lat="45.68835" lon="4.70988">
        <ele>320.4</ele>
        <time>2025-08-06T07:15:48Z</time>
      </trkpt>
      <trkpt lat="45.6883" lon="4.70986">
        <ele>320.4</ele>
        <time>2025-08-06T07:15:49Z</time>
      </trkpt>
      <trkpt lat="45.68826" lon="4.70985">
        <ele>320.6</ele>
        <time>2025-08-06T07:15:50Z</time>
      </trkpt>
      <trkpt lat="45.68822" lon="4.70983">
        <ele>320.8</ele>
        <time>2025-08-06T07:15:51Z</time>
      </trkpt>
      <trkpt lat="45.68817" lon="4.70981">
        <ele>320.8</ele>
        <time>2025-08-06T07:15:52Z</time>
      </trkpt>
      <trkpt lat="45.68813" lon="4.7098">
        <ele>321</ele>
        <time>2025-08-06T07:15:53Z</time>
      </trkpt>
      <trkpt lat="45.68809" lon="4.70978">
        <ele>321.2</ele>
        <time>2025-08-06T07:15:54Z</time>
      </trkpt>
      <trkpt lat="45.68804" lon="4.70977">
        <ele>321.2</ele>
        <time>2025-08-06T07:15:55Z</time>
      </trkpt>
      <trkpt lat="45.68799" lon="4.70976">
        <ele>321.4</ele>
        <time>2025-08-06T07:15:56Z</time>
      </trkpt>
      <trkpt lat="45.68795" lon="4.70974">
        <ele>321.4</ele>
        <time>2025-08-06T07:15:57Z</time>
      </trkpt>
      <trkpt lat="45.6879" lon="4.70972">
        <ele>321.6</ele>
        <time>2025-08-06T07:15:58Z</time>
      </trkpt>
      <trkpt lat="45.68786" lon="4.70971">
        <ele>321.6</ele>
        <time>2025-08-06T07:15:59Z</time>
      </trkpt>
      <trkpt lat="45.68781" lon="4.70969">
        <ele>321.8</ele>
        <time>2025-08-06T07:16:00Z</time>
      </trkpt>
      <trkpt lat="45.68777" lon="4.70968">
        <ele>322</ele>
        <time>2025-08-06T07:16:01Z</time>
      </trkpt>
      <trkpt lat="45.68772" lon="4.70966">
        <ele>322</ele>
        <time>2025-08-06T07:16:02Z</time>
      </trkpt>
      <trkpt lat="45.68768" lon="4.70965">
        <ele>322.2</ele>
        <time>2025-08-06T07:16:03Z</time>
      </trkpt>
      <trkpt lat="45.68764" lon="4.70963">
        <ele>322.4</ele>
        <time>2025-08-06T07:16:04Z</time>
      </trkpt>
      <trkpt lat="45.68759" lon="4.70962">
        <ele>322.4</ele>
        <time>2025-08-06T07:16:05Z</time>
      </trkpt>
      <trkpt lat="45.68755" lon="4.7096">
        <ele>322.6</ele>
        <time>2025-08-06T07:16:06Z</time>
      </trkpt>
      <trkpt lat="45.6875" lon="4.70958">
        <ele>322.6</ele>
        <time>2025-08-06T07:16:07Z</time>
      </trkpt>
      <trkpt lat="45.68745" lon="4.70957">
        <ele>322.8</ele>
        <time>2025-08-06T07:16:08Z</time>
      </trkpt>
      <trkpt lat="45.68741" lon="4.70955">
        <ele>322.8</ele>
        <time>2025-08-06T07:16:09Z</time>
      </trkpt>
      <trkpt lat="45.68736" lon="4.70954">
        <ele>323</ele>
        <time>2025-08-06T07:16:10Z</time>
      </trkpt>
      <trkpt lat="45.68731" lon="4.70952">
        <ele>323.2</ele>
        <time>2025-08-06T07:16:11Z</time>
      </trkpt>
      <trkpt lat="45.68727" lon="4.7095">
        <ele>323.2</ele>
        <time>2025-08-06T07:16:12Z</time>
      </trkpt>
      <trkpt lat="45.68723" lon="4.70948">
        <ele>323.2</ele>
        <time>2025-08-06T07:16:13Z</time>
      </trkpt>
      <trkpt lat="45.68719" lon="4.70946">
        <ele>323.4</ele>
        <time>2025-08-06T07:16:14Z</time>
      </trkpt>
      <trkpt lat="45.68714" lon="4.70944">
        <ele>323.4</ele>
        <time>2025-08-06T07:16:15Z</time>
      </trkpt>
      <trkpt lat="45.6871" lon="4.70941">
        <ele>323.4</ele>
        <time>2025-08-06T07:16:16Z</time>
      </trkpt>
      <trkpt lat="45.68705" lon="4.70939">
        <ele>323.4</ele>
        <time>2025-08-06T07:16:17Z</time>
      </trkpt>
      <trkpt lat="45.68701" lon="4.70935">
        <ele>323.4</ele>
        <time>2025-08-06T07:16:18Z</time>
      </trkpt>
      <trkpt lat="45.68697" lon="4.70932">
        <ele>323.4</ele>
        <time>2025-08-06T07:16:19Z</time>
      </trkpt>
      <trkpt lat="45.68693" lon="4.70928">
        <ele>323.4</ele>
        <time>2025-08-06T07:16:20Z</time>
      </trkpt>
      <trkpt lat="45.68689" lon="4.70925">
        <ele>323.6</ele>
        <time>2025-08-06T07:16:21Z</time>
      </trkpt>
      <trkpt lat="45.68685" lon="4.70922">
        <ele>323.6</ele>
        <time>2025-08-06T07:16:22Z</time>
      </trkpt>
      <trkpt lat="45.6868" lon="4.70918">
        <ele>323.8</ele>
        <time>2025-08-06T07:16:23Z</time>
      </trkpt>
      <trkpt lat="45.68676" lon="4.70915">
        <ele>324</ele>
        <time>2025-08-06T07:16:24Z</time>
      </trkpt>
      <trkpt lat="45.68672" lon="4.70912">
        <ele>324</ele>
        <time>2025-08-06T07:16:25Z</time>
      </trkpt>
      <trkpt lat="45.68668" lon="4.70908">
        <ele>324</ele>
        <time>2025-08-06T07:16:26Z</time>
      </trkpt>
      <trkpt lat="45.68664" lon="4.70905">
        <ele>324</ele>
        <time>2025-08-06T07:16:27Z</time>
      </trkpt>
      <trkpt lat="45.68659" lon="4.70901">
        <ele>324</ele>
        <time>2025-08-06T07:16:28Z</time>
      </trkpt>
      <trkpt lat="45.68655" lon="4.70898">
        <ele>324</ele>
        <time>2025-08-06T07:16:29Z</time>
      </trkpt>
      <trkpt lat="45.68652" lon="4.70894">
        <ele>324.2</ele>
        <time>2025-08-06T07:16:30Z</time>
      </trkpt>
      <trkpt lat="45.68648" lon="4.7089">
        <ele>324.2</ele>
        <time>2025-08-06T07:16:31Z</time>
      </trkpt>
      <trkpt lat="45.68644" lon="4.70887">
        <ele>324.4</ele>
        <time>2025-08-06T07:16:32Z</time>
      </trkpt>
      <trkpt lat="45.6864" lon="4.70883">
        <ele>324.4</ele>
        <time>2025-08-06T07:16:33Z</time>
      </trkpt>
      <trkpt lat="45.68637" lon="4.70879">
        <ele>324.6</ele>
        <time>2025-08-06T07:16:34Z</time>
      </trkpt>
      <trkpt lat="45.68634" lon="4.70875">
        <ele>325</ele>
        <time>2025-08-06T07:16:35Z</time>
      </trkpt>
      <trkpt lat="45.6863" lon="4.70871">
        <ele>325.2</ele>
        <time>2025-08-06T07:16:36Z</time>
      </trkpt>
      <trkpt lat="45.68627" lon="4.70868">
        <ele>325.6</ele>
        <time>2025-08-06T07:16:37Z</time>
      </trkpt>
      <trkpt lat="45.68623" lon="4.70864">
        <ele>325.8</ele>
        <time>2025-08-06T07:16:38Z</time>
      </trkpt>
      <trkpt lat="45.6862" lon="4.7086">
        <ele>326</ele>
        <time>2025-08-06T07:16:39Z</time>
      </trkpt>
      <trkpt lat="45.68616" lon="4.70857">
        <ele>326</ele>
        <time>2025-08-06T07:16:40Z</time>
      </trkpt>
      <trkpt lat="45.68613" lon="4.70853">
        <ele>326.2</ele>
        <time>2025-08-06T07:16:41Z</time>
      </trkpt>
      <trkpt lat="45.68609" lon="4.70849">
        <ele>326.2</ele>
        <time>2025-08-06T07:16:42Z</time>
      </trkpt>
      <trkpt lat="45.68605" lon="4.70846">
        <ele>326.4</ele>
        <time>2025-08-06T07:16:43Z</time>
      </trkpt>
      <trkpt lat="45.68602" lon="4.70842">
        <ele>326.4</ele>
        <time>2025-08-06T07:16:44Z</time>
      </trkpt>
      <trkpt lat="45.68598" lon="4.70839">
        <ele>326.6</ele>
        <time>2025-08-06T07:16:45Z</time>
      </trkpt>
      <trkpt lat="45.68595" lon="4.70836">
        <ele>326.8</ele>
        <time>2025-08-06T07:16:46Z</time>
      </trkpt>
      <trkpt lat="45.68591" lon="4.70832">
        <ele>327</ele>
        <time>2025-08-06T07:16:47Z</time>
      </trkpt>
      <trkpt lat="45.68587" lon="4.70829">
        <ele>327.4</ele>
        <time>2025-08-06T07:16:48Z</time>
      </trkpt>
      <trkpt lat="45.68584" lon="4.70825">
        <ele>327.6</ele>
        <time>2025-08-06T07:16:49Z</time>
      </trkpt>
      <trkpt lat="45.68581" lon="4.70821">
        <ele>327.8</ele>
        <time>2025-08-06T07:16:50Z</time>
      </trkpt>
      <trkpt lat="45.68577" lon="4.70817">
        <ele>328</ele>
        <time>2025-08-06T07:16:51Z</time>
      </trkpt>
      <trkpt lat="45.68574" lon="4.70813">
        <ele>328.4</ele>
        <time>2025-08-06T07:16:52Z</time>
      </trkpt>
      <trkpt lat="45.68571" lon="4.70809">
        <ele>328.6</ele>
        <time>2025-08-06T07:16:53Z</time>
      </trkpt>
      <trkpt lat="45.68568" lon="4.70805">
        <ele>328.8</ele>
        <time>2025-08-06T07:16:54Z</time>
      </trkpt>
      <trkpt lat="45.68565" lon="4.70801">
        <ele>329.2</ele>
        <time>2025-08-06T07:16:55Z</time>
      </trkpt>
      <trkpt lat="45.68562" lon="4.70797">
        <ele>329.4</ele>
        <time>2025-08-06T07:16:56Z</time>
      </trkpt>
      <trkpt lat="45.68559" lon="4.70792">
        <ele>329.6</ele>
        <time>2025-08-06T07:16:57Z</time>
      </trkpt>
      <trkpt lat="45.68555" lon="4.70788">
        <ele>330</ele>
        <time>2025-08-06T07:16:58Z</time>
      </trkpt>
      <trkpt lat="45.68552" lon="4.70784">
        <ele>330.2</ele>
        <time>2025-08-06T07:16:59Z</time>
      </trkpt>
      <trkpt lat="45.68549" lon="4.7078">
        <ele>330.4</ele>
        <time>2025-08-06T07:17:00Z</time>
      </trkpt>
      <trkpt lat="45.68546" lon="4.70776">
        <ele>330.6</ele>
        <time>2025-08-06T07:17:01Z</time>
      </trkpt>
      <trkpt lat="45.68543" lon="4.70772">
        <ele>330.8</ele>
        <time>2025-08-06T07:17:02Z</time>
      </trkpt>
      <trkpt lat="45.68541" lon="4.70767">
        <ele>331</ele>
        <time>2025-08-06T07:17:03Z</time>
      </trkpt>
      <trkpt lat="45.68538" lon="4.70763">
        <ele>331.4</ele>
        <time>2025-08-06T07:17:04Z</time>
      </trkpt>
      <trkpt lat="45.68535" lon="4.70759">
        <ele>331.6</ele>
        <time>2025-08-06T07:17:05Z</time>
      </trkpt>
      <trkpt lat="45.68532" lon="4.70755">
        <ele>332</ele>
        <time>2025-08-06T07:17:06Z</time>
      </trkpt>
      <trkpt lat="45.68528" lon="4.70751">
        <ele>332.2</ele>
        <time>2025-08-06T07:17:07Z</time>
      </trkpt>
      <trkpt lat="45.68525" lon="4.70747">
        <ele>332.6</ele>
        <time>2025-08-06T07:17:08Z</time>
      </trkpt>
      <trkpt lat="45.68522" lon="4.70742">
        <ele>332.8</ele>
        <time>2025-08-06T07:17:09Z</time>
      </trkpt>
      <trkpt lat="45.68519" lon="4.70738">
        <ele>333.2</ele>
        <time>2025-08-06T07:17:10Z</time>
      </trkpt>
      <trkpt lat="45.68516" lon="4.70734">
        <ele>333.6</ele>
        <time>2025-08-06T07:17:11Z</time>
      </trkpt>
      <trkpt lat="45.68513" lon="4.7073">
        <ele>333.8</ele>
        <time>2025-08-06T07:17:12Z</time>
      </trkpt>
      <trkpt lat="45.6851" lon="4.70726">
        <ele>334.2</ele>
        <time>2025-08-06T07:17:13Z</time>
      </trkpt>
      <trkpt lat="45.68507" lon="4.70723">
        <ele>334.8</ele>
        <time>2025-08-06T07:17:14Z</time>
      </trkpt>
      <trkpt lat="45.68504" lon="4.70719">
        <ele>335.2</ele>
        <time>2025-08-06T07:17:15Z</time>
      </trkpt>
      <trkpt lat="45.68501" lon="4.70715">
        <ele>335.6</ele>
        <time>2025-08-06T07:17:16Z</time>
      </trkpt>
      <trkpt lat="45.68499" lon="4.70712">
        <ele>336</ele>
        <time>2025-08-06T07:17:17Z</time>
      </trkpt>
      <trkpt lat="45.68496" lon="4.70708">
        <ele>336.4</ele>
        <time>2025-08-06T07:17:18Z</time>
      </trkpt>
      <trkpt lat="45.68493" lon="4.70704">
        <ele>336.6</ele>
        <time>2025-08-06T07:17:19Z</time>
      </trkpt>
      <trkpt lat="45.6849" lon="4.707">
        <ele>337</ele>
        <time>2025-08-06T07:17:20Z</time>
      </trkpt>
      <trkpt lat="45.68487" lon="4.70696">
        <ele>337.2</ele>
        <time>2025-08-06T07:17:21Z</time>
      </trkpt>
      <trkpt lat="45.68484" lon="4.70693">
        <ele>337.4</ele>
        <time>2025-08-06T07:17:22Z</time>
      </trkpt>
      <trkpt lat="45.68481" lon="4.70688">
        <ele>337.6</ele>
        <time>2025-08-06T07:17:23Z</time>
      </trkpt>
      <trkpt lat="45.68478" lon="4.70684">
        <ele>337.8</ele>
        <time>2025-08-06T07:17:24Z</time>
      </trkpt>
      <trkpt lat="45.68475" lon="4.7068">
        <ele>338</ele>
        <time>2025-08-06T07:17:25Z</time>
      </trkpt>
      <trkpt lat="45.68472" lon="4.70676">
        <ele>338.2</ele>
        <time>2025-08-06T07:17:26Z</time>
      </trkpt>
      <trkpt lat="45.6847" lon="4.70672">
        <ele>338.6</ele>
        <time>2025-08-06T07:17:27Z</time>
      </trkpt>
      <trkpt lat="45.68468" lon="4.70668">
        <ele>338.8</ele>
        <time>2025-08-06T07:17:28Z</time>
      </trkpt>
      <trkpt lat="45.68466" lon="4.70664">
        <ele>339.2</ele>
        <time>2025-08-06T07:17:29Z</time>
      </trkpt>
      <trkpt lat="45.68464" lon="4.70659">
        <ele>339.4</ele>
        <time>2025-08-06T07:17:30Z</time>
      </trkpt>
      <trkpt lat="45.68463" lon="4.70655">
        <ele>339.6</ele>
        <time>2025-08-06T07:17:31Z</time>
      </trkpt>
      <trkpt lat="45.68461" lon="4.7065">
        <ele>339.8</ele>
        <time>2025-08-06T07:17:32Z</time>
      </trkpt>
      <trkpt lat="45.6846" lon="4.70646">
        <ele>339.8</ele>
        <time>2025-08-06T07:17:33Z</time>
      </trkpt>
      <trkpt lat="45.68459" lon="4.70641">
        <ele>340</ele>
        <time>2025-08-06T07:17:34Z</time>
      </trkpt>
      <trkpt lat="45.68459" lon="4.70635">
        <ele>340</ele>
        <time>2025-08-06T07:17:35Z</time>
      </trkpt>
      <trkpt lat="45.68459" lon="4.70629">
        <ele>340</ele>
        <time>2025-08-06T07:17:36Z</time>
      </trkpt>
      <trkpt lat="45.68459" lon="4.70623">
        <ele>340</ele>
        <time>2025-08-06T07:17:37Z</time>
      </trkpt>
      <trkpt lat="45.68459" lon="4.70616">
        <ele>339.8</ele>
        <time>2025-08-06T07:17:38Z</time>
      </trkpt>
      <trkpt lat="45.68459" lon="4.70609">
        <ele>340</ele>
        <time>2025-08-06T07:17:39Z</time>
      </trkpt>
      <trkpt lat="45.68459" lon="4.70603">
        <ele>340.2</ele>
        <time>2025-08-06T07:17:40Z</time>
      </trkpt>
      <trkpt lat="45.68459" lon="4.70596">
        <ele>340.4</ele>
        <time>2025-08-06T07:17:41Z</time>
      </trkpt>
      <trkpt lat="45.68459" lon="4.7059">
        <ele>340.6</ele>
        <time>2025-08-06T07:17:42Z</time>
      </trkpt>
      <trkpt lat="45.68459" lon="4.70583">
        <ele>340.8</ele>
        <time>2025-08-06T07:17:43Z</time>
      </trkpt>
      <trkpt lat="45.68458" lon="4.70576">
        <ele>340.8</ele>
        <time>2025-08-06T07:17:44Z</time>
      </trkpt>
      <trkpt lat="45.68458" lon="4.70569">
        <ele>341</ele>
        <time>2025-08-06T07:17:45Z</time>
      </trkpt>
      <trkpt lat="45.68458" lon="4.70563">
        <ele>341</ele>
        <time>2025-08-06T07:17:46Z</time>
      </trkpt>
      <trkpt lat="45.68458" lon="4.70556">
        <ele>341</ele>
        <time>2025-08-06T07:17:47Z</time>
      </trkpt>
      <trkpt lat="45.68458" lon="4.70549">
        <ele>341</ele>
        <time>2025-08-06T07:17:48Z</time>
      </trkpt>
      <trkpt lat="45.68458" lon="4.70543">
        <ele>341</ele>
        <time>2025-08-06T07:17:49Z</time>
      </trkpt>
      <trkpt lat="45.68458" lon="4.70536">
        <ele>341</ele>
        <time>2025-08-06T07:17:50Z</time>
      </trkpt>
      <trkpt lat="45.68459" lon="4.70529">
        <ele>341.2</ele>
        <time>2025-08-06T07:17:51Z</time>
      </trkpt>
      <trkpt lat="45.68459" lon="4.70523">
        <ele>341.2</ele>
        <time>2025-08-06T07:17:52Z</time>
      </trkpt>
      <trkpt lat="45.6846" lon="4.70516">
        <ele>341.4</ele>
        <time>2025-08-06T07:17:53Z</time>
      </trkpt>
      <trkpt lat="45.68461" lon="4.7051">
        <ele>341.4</ele>
        <time>2025-08-06T07:17:54Z</time>
      </trkpt>
      <trkpt lat="45.68462" lon="4.70503">
        <ele>341.4</ele>
        <time>2025-08-06T07:17:55Z</time>
      </trkpt>
      <trkpt lat="45.68464" lon="4.70497">
        <ele>341.4</ele>
        <time>2025-08-06T07:17:56Z</time>
      </trkpt>
      <trkpt lat="45.68465" lon="4.7049">
        <ele>341.4</ele>
        <time>2025-08-06T07:17:57Z</time>
      </trkpt>
      <trkpt lat="45.68467" lon="4.70484">
        <ele>341.2</ele>
        <time>2025-08-06T07:17:58Z</time>
      </trkpt>
      <trkpt lat="45.6847" lon="4.70478">
        <ele>341.2</ele>
        <time>2025-08-06T07:17:59Z</time>
      </trkpt>
      <trkpt lat="45.68472" lon="4.70472">
        <ele>341</ele>
        <time>2025-08-06T07:18:00Z</time>
      </trkpt>
      <trkpt lat="45.68475" lon="4.70466">
        <ele>340.8</ele>
        <time>2025-08-06T07:18:01Z</time>
      </trkpt>
      <trkpt lat="45.68477" lon="4.7046">
        <ele>340.6</ele>
        <time>2025-08-06T07:18:02Z</time>
      </trkpt>
      <trkpt lat="45.68479" lon="4.70453">
        <ele>340.4</ele>
        <time>2025-08-06T07:18:03Z</time>
      </trkpt>
      <trkpt lat="45.68481" lon="4.70446">
        <ele>340.2</ele>
        <time>2025-08-06T07:18:04Z</time>
      </trkpt>
      <trkpt lat="45.68482" lon="4.70439">
        <ele>340</ele>
        <time>2025-08-06T07:18:05Z</time>
      </trkpt>
      <trkpt lat="45.68483" lon="4.70432">
        <ele>340</ele>
        <time>2025-08-06T07:18:06Z</time>
      </trkpt>
      <trkpt lat="45.68485" lon="4.70426">
        <ele>339.8</ele>
        <time>2025-08-06T07:18:07Z</time>
      </trkpt>
      <trkpt lat="45.68486" lon="4.70419">
        <ele>339.6</ele>
        <time>2025-08-06T07:18:08Z</time>
      </trkpt>
      <trkpt lat="45.68488" lon="4.70412">
        <ele>339.4</ele>
        <time>2025-08-06T07:18:09Z</time>
      </trkpt>
      <trkpt lat="45.6849" lon="4.70405">
        <ele>339.2</ele>
        <time>2025-08-06T07:18:10Z</time>
      </trkpt>
      <trkpt lat="45.68492" lon="4.70398">
        <ele>339</ele>
        <time>2025-08-06T07:18:11Z</time>
      </trkpt>
      <trkpt lat="45.68494" lon="4.70391">
        <ele>338.8</ele>
        <time>2025-08-06T07:18:12Z</time>
      </trkpt>
      <trkpt lat="45.68497" lon="4.70384">
        <ele>338.8</ele>
        <time>2025-08-06T07:18:13Z</time>
      </trkpt>
      <trkpt lat="45.685" lon="4.70378">
        <ele>338.8</ele>
        <time>2025-08-06T07:18:14Z</time>
      </trkpt>
      <trkpt lat="45.68504" lon="4.70372">
        <ele>338.8</ele>
        <time>2025-08-06T07:18:15Z</time>
      </trkpt>
      <trkpt lat="45.68507" lon="4.70366">
        <ele>339</ele>
        <time>2025-08-06T07:18:16Z</time>
      </trkpt>
      <trkpt lat="45.68509" lon="4.7036">
        <ele>339.4</ele>
        <time>2025-08-06T07:18:17Z</time>
      </trkpt>
      <trkpt lat="45.68511" lon="4.70353">
        <ele>339.6</ele>
        <time>2025-08-06T07:18:18Z</time>
      </trkpt>
      <trkpt lat="45.68512" lon="4.70346">
        <ele>340.2</ele>
        <time>2025-08-06T07:18:19Z</time>
      </trkpt>
      <trkpt lat="45.68513" lon="4.70339">
        <ele>340.6</ele>
        <time>2025-08-06T07:18:20Z</time>
      </trkpt>
      <trkpt lat="45.68514" lon="4.70333">
        <ele>341</ele>
        <time>2025-08-06T07:18:21Z</time>
      </trkpt>
      <trkpt lat="45.68515" lon="4.70327">
        <ele>341.4</ele>
        <time>2025-08-06T07:18:22Z</time>
      </trkpt>
      <trkpt lat="45.68515" lon="4.7032">
        <ele>341.8</ele>
        <time>2025-08-06T07:18:23Z</time>
      </trkpt>
      <trkpt lat="45.68515" lon="4.70314">
        <ele>342.2</ele>
        <time>2025-08-06T07:18:24Z</time>
      </trkpt>
      <trkpt lat="45.68516" lon="4.70308">
        <ele>342.6</ele>
        <time>2025-08-06T07:18:25Z</time>
      </trkpt>
      <trkpt lat="45.68517" lon="4.70302">
        <ele>342.8</ele>
        <time>2025-08-06T07:18:26Z</time>
      </trkpt>
      <trkpt lat="45.68517" lon="4.70296">
        <ele>343.2</ele>
        <time>2025-08-06T07:18:27Z</time>
      </trkpt>
      <trkpt lat="45.68517" lon="4.7029">
        <ele>343.6</ele>
        <time>2025-08-06T07:18:28Z</time>
      </trkpt>
      <trkpt lat="45.68516" lon="4.70285">
        <ele>344</ele>
        <time>2025-08-06T07:18:29Z</time>
      </trkpt>
      <trkpt lat="45.68516" lon="4.70279">
        <ele>344.6</ele>
        <time>2025-08-06T07:18:30Z</time>
      </trkpt>
      <trkpt lat="45.68515" lon="4.70273">
        <ele>345</ele>
        <time>2025-08-06T07:18:31Z</time>
      </trkpt>
      <trkpt lat="45.68515" lon="4.70268">
        <ele>345.2</ele>
        <time>2025-08-06T07:18:32Z</time>
      </trkpt>
      <trkpt lat="45.68514" lon="4.70262">
        <ele>345.6</ele>
        <time>2025-08-06T07:18:33Z</time>
      </trkpt>
      <trkpt lat="45.68513" lon="4.70256">
        <ele>345.8</ele>
        <time>2025-08-06T07:18:34Z</time>
      </trkpt>
      <trkpt lat="45.68511" lon="4.70249">
        <ele>345.8</ele>
        <time>2025-08-06T07:18:35Z</time>
      </trkpt>
      <trkpt lat="45.6851" lon="4.70242">
        <ele>345.8</ele>
        <time>2025-08-06T07:18:36Z</time>
      </trkpt>
      <trkpt lat="45.68508" lon="4.70235">
        <ele>345.8</ele>
        <time>2025-08-06T07:18:37Z</time>
      </trkpt>
      <trkpt lat="45.68506" lon="4.70228">
        <ele>345.6</ele>
        <time>2025-08-06T07:18:38Z</time>
      </trkpt>
      <trkpt lat="45.68505" lon="4.70221">
        <ele>345.6</ele>
        <time>2025-08-06T07:18:39Z</time>
      </trkpt>
      <trkpt lat="45.68503" lon="4.70213">
        <ele>345.6</ele>
        <time>2025-08-06T07:18:40Z</time>
      </trkpt>
      <trkpt lat="45.68502" lon="4.70206">
        <ele>345.8</ele>
        <time>2025-08-06T07:18:41Z</time>
      </trkpt>
      <trkpt lat="45.685" lon="4.70198">
        <ele>346</ele>
        <time>2025-08-06T07:18:42Z</time>
      </trkpt>
      <trkpt lat="45.68498" lon="4.70191">
        <ele>346.2</ele>
        <time>2025-08-06T07:18:43Z</time>
      </trkpt>
      <trkpt lat="45.68495" lon="4.70184">
        <ele>346.4</ele>
        <time>2025-08-06T07:18:44Z</time>
      </trkpt>
      <trkpt lat="45.68493" lon="4.70178">
        <ele>346.4</ele>
        <time>2025-08-06T07:18:45Z</time>
      </trkpt>
      <trkpt lat="45.68489" lon="4.70171">
        <ele>346.2</ele>
        <time>2025-08-06T07:18:46Z</time>
      </trkpt>
      <trkpt lat="45.68486" lon="4.70165">
        <ele>346.2</ele>
        <time>2025-08-06T07:18:47Z</time>
      </trkpt>
      <trkpt lat="45.68483" lon="4.7016">
        <ele>346.2</ele>
        <time>2025-08-06T07:18:48Z</time>
      </trkpt>
      <trkpt lat="45.68479" lon="4.70155">
        <ele>346.2</ele>
        <time>2025-08-06T07:18:49Z</time>
      </trkpt>
      <trkpt lat="45.68475" lon="4.70149">
        <ele>346.4</ele>
        <time>2025-08-06T07:18:50Z</time>
      </trkpt>
      <trkpt lat="45.68471" lon="4.70144">
        <ele>346.6</ele>
        <time>2025-08-06T07:18:51Z</time>
      </trkpt>
      <trkpt lat="45.68468" lon="4.70138">
        <ele>346.8</ele>
        <time>2025-08-06T07:18:52Z</time>
      </trkpt>
      <trkpt lat="45.68465" lon="4.70132">
        <ele>346.8</ele>
        <time>2025-08-06T07:18:53Z</time>
      </trkpt>
      <trkpt lat="45.68462" lon="4.70125">
        <ele>346.8</ele>
        <time>2025-08-06T07:18:54Z</time>
      </trkpt>
      <trkpt lat="45.6846" lon="4.70118">
        <ele>346.8</ele>
        <time>2025-08-06T07:18:55Z</time>
      </trkpt>
      <trkpt lat="45.68459" lon="4.7011">
        <ele>346.6</ele>
        <time>2025-08-06T07:18:56Z</time>
      </trkpt>
      <trkpt lat="45.68457" lon="4.70103">
        <ele>346.6</ele>
        <time>2025-08-06T07:18:57Z</time>
      </trkpt>
      <trkpt lat="45.68456" lon="4.70096">
        <ele>346.4</ele>
        <time>2025-08-06T07:18:58Z</time>
      </trkpt>
      <trkpt lat="45.68454" lon="4.70088">
        <ele>346.2</ele>
        <time>2025-08-06T07:18:59Z</time>
      </trkpt>
      <trkpt lat="45.68452" lon="4.70081">
        <ele>346.2</ele>
        <time>2025-08-06T07:19:00Z</time>
      </trkpt>
      <trkpt lat="45.68451" lon="4.70074">
        <ele>346.2</ele>
        <time>2025-08-06T07:19:01Z</time>
      </trkpt>
      <trkpt lat="45.68449" lon="4.70066">
        <ele>346</ele>
        <time>2025-08-06T07:19:02Z</time>
      </trkpt>
      <trkpt lat="45.68448" lon="4.70059">
        <ele>346</ele>
        <time>2025-08-06T07:19:03Z</time>
      </trkpt>
      <trkpt lat="45.68447" lon="4.70052">
        <ele>346</ele>
        <time>2025-08-06T07:19:04Z</time>
      </trkpt>
      <trkpt lat="45.68447" lon="4.70044">
        <ele>346.2</ele>
        <time>2025-08-06T07:19:05Z</time>
      </trkpt>
      <trkpt lat="45.68446" lon="4.70037">
        <ele>346.4</ele>
        <time>2025-08-06T07:19:06Z</time>
      </trkpt>
      <trkpt lat="45.68445" lon="4.70029">
        <ele>346.6</ele>
        <time>2025-08-06T07:19:07Z</time>
      </trkpt>
      <trkpt lat="45.68444" lon="4.70023">
        <ele>346.8</ele>
        <time>2025-08-06T07:19:08Z</time>
      </trkpt>
      <trkpt lat="45.68442" lon="4.70016">
        <ele>346.8</ele>
        <time>2025-08-06T07:19:09Z</time>
      </trkpt>
      <trkpt lat="45.6844" lon="4.70011">
        <ele>347</ele>
        <time>2025-08-06T07:19:10Z</time>
      </trkpt>
      <trkpt lat="45.68437" lon="4.70006">
        <ele>347.2</ele>
        <time>2025-08-06T07:19:11Z</time>
      </trkpt>
      <trkpt lat="45.68433" lon="4.70002">
        <ele>347.4</ele>
        <time>2025-08-06T07:19:12Z</time>
      </trkpt>
      <trkpt lat="45.68429" lon="4.69998">
        <ele>347.6</ele>
        <time>2025-08-06T07:19:13Z</time>
      </trkpt>
      <trkpt lat="45.68424" lon="4.69994">
        <ele>347.8</ele>
        <time>2025-08-06T07:19:14Z</time>
      </trkpt>
      <trkpt lat="45.6842" lon="4.6999">
        <ele>348</ele>
        <time>2025-08-06T07:19:15Z</time>
      </trkpt>
      <trkpt lat="45.68416" lon="4.69986">
        <ele>348.2</ele>
        <time>2025-08-06T07:19:16Z</time>
      </trkpt>
      <trkpt lat="45.68412" lon="4.69983">
        <ele>348.4</ele>
        <time>2025-08-06T07:19:17Z</time>
      </trkpt>
      <trkpt lat="45.68408" lon="4.69981">
        <ele>348.6</ele>
        <time>2025-08-06T07:19:18Z</time>
      </trkpt>
      <trkpt lat="45.68403" lon="4.69979">
        <ele>348.8</ele>
        <time>2025-08-06T07:19:19Z</time>
      </trkpt>
      <trkpt lat="45.68399" lon="4.69978">
        <ele>349</ele>
        <time>2025-08-06T07:19:20Z</time>
      </trkpt>
      <trkpt lat="45.68395" lon="4.69975">
        <ele>349.2</ele>
        <time>2025-08-06T07:19:21Z</time>
      </trkpt>
      <trkpt lat="45.68391" lon="4.69973">
        <ele>349.4</ele>
        <time>2025-08-06T07:19:22Z</time>
      </trkpt>
      <trkpt lat="45.68386" lon="4.69971">
        <ele>349.4</ele>
        <time>2025-08-06T07:19:23Z</time>
      </trkpt>
      <trkpt lat="45.68382" lon="4.69969">
        <ele>349.6</ele>
        <time>2025-08-06T07:19:24Z</time>
      </trkpt>
      <trkpt lat="45.68377" lon="4.69967">
        <ele>349.8</ele>
        <time>2025-08-06T07:19:25Z</time>
      </trkpt>
      <trkpt lat="45.68372" lon="4.69965">
        <ele>349.8</ele>
        <time>2025-08-06T07:19:26Z</time>
      </trkpt>
      <trkpt lat="45.68367" lon="4.69963">
        <ele>349.8</ele>
        <time>2025-08-06T07:19:27Z</time>
      </trkpt>
      <trkpt lat="45.68362" lon="4.69964">
        <ele>350</ele>
        <time>2025-08-06T07:19:28Z</time>
      </trkpt>
      <trkpt lat="45.68357" lon="4.69965">
        <ele>350</ele>
        <time>2025-08-06T07:19:29Z</time>
      </trkpt>
      <trkpt lat="45.68352" lon="4.69965">
        <ele>350</ele>
        <time>2025-08-06T07:19:30Z</time>
      </trkpt>
      <trkpt lat="45.68347" lon="4.69963">
        <ele>350</ele>
        <time>2025-08-06T07:19:31Z</time>
      </trkpt>
      <trkpt lat="45.68341" lon="4.6996">
        <ele>349.8</ele>
        <time>2025-08-06T07:19:32Z</time>
      </trkpt>
      <trkpt lat="45.68337" lon="4.69957">
        <ele>349.6</ele>
        <time>2025-08-06T07:19:33Z</time>
      </trkpt>
      <trkpt lat="45.68332" lon="4.69953">
        <ele>349.6</ele>
        <time>2025-08-06T07:19:34Z</time>
      </trkpt>
      <trkpt lat="45.68328" lon="4.69948">
        <ele>349.6</ele>
        <time>2025-08-06T07:19:35Z</time>
      </trkpt>
      <trkpt lat="45.68324" lon="4.69943">
        <ele>349.6</ele>
        <time>2025-08-06T07:19:36Z</time>
      </trkpt>
      <trkpt lat="45.6832" lon="4.69938">
        <ele>349.6</ele>
        <time>2025-08-06T07:19:37Z</time>
      </trkpt>
      <trkpt lat="45.68315" lon="4.69932">
        <ele>349.6</ele>
        <time>2025-08-06T07:19:38Z</time>
      </trkpt>
      <trkpt lat="45.68312" lon="4.69926">
        <ele>349.6</ele>
        <time>2025-08-06T07:19:39Z</time>
      </trkpt>
      <trkpt lat="45.68308" lon="4.6992">
        <ele>349.6</ele>
        <time>2025-08-06T07:19:40Z</time>
      </trkpt>
      <trkpt lat="45.68304" lon="4.69913">
        <ele>349.6</ele>
        <time>2025-08-06T07:19:41Z</time>
      </trkpt>
      <trkpt lat="45.683" lon="4.69907">
        <ele>349.4</ele>
        <time>2025-08-06T07:19:42Z</time>
      </trkpt>
      <trkpt lat="45.68296" lon="4.69901">
        <ele>349.4</ele>
        <time>2025-08-06T07:19:43Z</time>
      </trkpt>
      <trkpt lat="45.68292" lon="4.69895">
        <ele>349.2</ele>
        <time>2025-08-06T07:19:44Z</time>
      </trkpt>
      <trkpt lat="45.68288" lon="4.6989">
        <ele>349.2</ele>
        <time>2025-08-06T07:19:45Z</time>
      </trkpt>
      <trkpt lat="45.68284" lon="4.69884">
        <ele>349.2</ele>
        <time>2025-08-06T07:19:46Z</time>
      </trkpt>
      <trkpt lat="45.6828" lon="4.69879">
        <ele>349.2</ele>
        <time>2025-08-06T07:19:47Z</time>
      </trkpt>
      <trkpt lat="45.68275" lon="4.69873">
        <ele>349.4</ele>
        <time>2025-08-06T07:19:48Z</time>
      </trkpt>
      <trkpt lat="45.68271" lon="4.69868">
        <ele>349.4</ele>
        <time>2025-08-06T07:19:49Z</time>
      </trkpt>
      <trkpt lat="45.68267" lon="4.69863">
        <ele>349.6</ele>
        <time>2025-08-06T07:19:50Z</time>
      </trkpt>
      <trkpt lat="45.68262" lon="4.69858">
        <ele>349.6</ele>
        <time>2025-08-06T07:19:51Z</time>
      </trkpt>
      <trkpt lat="45.68258" lon="4.69854">
        <ele>349.8</ele>
        <time>2025-08-06T07:19:52Z</time>
      </trkpt>
      <trkpt lat="45.68253" lon="4.69849">
        <ele>350</ele>
        <time>2025-08-06T07:19:53Z</time>
      </trkpt>
      <trkpt lat="45.68248" lon="4.69845">
        <ele>350.2</ele>
        <time>2025-08-06T07:19:54Z</time>
      </trkpt>
      <trkpt lat="45.68244" lon="4.6984">
        <ele>350.4</ele>
        <time>2025-08-06T07:19:55Z</time>
      </trkpt>
      <trkpt lat="45.6824" lon="4.69836">
        <ele>350.8</ele>
        <time>2025-08-06T07:19:56Z</time>
      </trkpt>
      <trkpt lat="45.68235" lon="4.69832">
        <ele>351.2</ele>
        <time>2025-08-06T07:19:57Z</time>
      </trkpt>
      <trkpt lat="45.68231" lon="4.69828">
        <ele>351.4</ele>
        <time>2025-08-06T07:19:58Z</time>
      </trkpt>
      <trkpt lat="45.68226" lon="4.69824">
        <ele>351.8</ele>
        <time>2025-08-06T07:19:59Z</time>
      </trkpt>
      <trkpt lat="45.68222" lon="4.6982">
        <ele>352</ele>
        <time>2025-08-06T07:20:00Z</time>
      </trkpt>
      <trkpt lat="45.68218" lon="4.69816">
        <ele>352.2</ele>
        <time>2025-08-06T07:20:01Z</time>
      </trkpt>
      <trkpt lat="45.68213" lon="4.69812">
        <ele>352.4</ele>
        <time>2025-08-06T07:20:02Z</time>
      </trkpt>
      <trkpt lat="45.68209" lon="4.69808">
        <ele>352.6</ele>
        <time>2025-08-06T07:20:03Z</time>
      </trkpt>
      <trkpt lat="45.68205" lon="4.69805">
        <ele>352.8</ele>
        <time>2025-08-06T07:20:04Z</time>
      </trkpt>
      <trkpt lat="45.682" lon="4.69801">
        <ele>353</ele>
        <time>2025-08-06T07:20:05Z</time>
      </trkpt>
      <trkpt lat="45.68196" lon="4.69797">
        <ele>353.2</ele>
        <time>2025-08-06T07:20:06Z</time>
      </trkpt>
      <trkpt lat="45.68191" lon="4.69794">
        <ele>353.4</ele>
        <time>2025-08-06T07:20:07Z</time>
      </trkpt>
      <trkpt lat="45.68187" lon="4.6979">
        <ele>353.6</ele>
        <time>2025-08-06T07:20:08Z</time>
      </trkpt>
      <trkpt lat="45.68183" lon="4.69787">
        <ele>353.8</ele>
        <time>2025-08-06T07:20:09Z</time>
      </trkpt>
      <trkpt lat="45.68179" lon="4.69784">
        <ele>354</ele>
        <time>2025-08-06T07:20:10Z</time>
      </trkpt>
      <trkpt lat="45.68174" lon="4.69781">
        <ele>354.2</ele>
        <time>2025-08-06T07:20:11Z</time>
      </trkpt>
      <trkpt lat="45.6817" lon="4.69779">
        <ele>354.6</ele>
        <time>2025-08-06T07:20:12Z</time>
      </trkpt>
      <trkpt lat="45.68165" lon="4.69776">
        <ele>354.8</ele>
        <time>2025-08-06T07:20:13Z</time>
      </trkpt>
      <trkpt lat="45.68161" lon="4.69772">
        <ele>355</ele>
        <time>2025-08-06T07:20:14Z</time>
      </trkpt>
      <trkpt lat="45.68156" lon="4.69769">
        <ele>355.2</ele>
        <time>2025-08-06T07:20:15Z</time>
      </trkpt>
      <trkpt lat="45.68151" lon="4.69767">
        <ele>355.4</ele>
        <time>2025-08-06T07:20:16Z</time>
      </trkpt>
      <trkpt lat="45.68147" lon="4.69763">
        <ele>355.6</ele>
        <time>2025-08-06T07:20:17Z</time>
      </trkpt>
      <trkpt lat="45.68142" lon="4.6976">
        <ele>355.8</ele>
        <time>2025-08-06T07:20:18Z</time>
      </trkpt>
      <trkpt lat="45.68138" lon="4.69757">
        <ele>356.2</ele>
        <time>2025-08-06T07:20:19Z</time>
      </trkpt>
      <trkpt lat="45.68133" lon="4.69754">
        <ele>356.4</ele>
        <time>2025-08-06T07:20:20Z</time>
      </trkpt>
      <trkpt lat="45.68129" lon="4.69752">
        <ele>356.8</ele>
        <time>2025-08-06T07:20:21Z</time>
      </trkpt>
      <trkpt lat="45.68124" lon="4.69749">
        <ele>357.2</ele>
        <time>2025-08-06T07:20:22Z</time>
      </trkpt>
      <trkpt lat="45.6812" lon="4.69746">
        <ele>357.4</ele>
        <time>2025-08-06T07:20:23Z</time>
      </trkpt>
      <trkpt lat="45.68116" lon="4.69744">
        <ele>357.6</ele>
        <time>2025-08-06T07:20:24Z</time>
      </trkpt>
      <trkpt lat="45.68112" lon="4.69741">
        <ele>357.8</ele>
        <time>2025-08-06T07:20:25Z</time>
      </trkpt>
      <trkpt lat="45.68108" lon="4.69738">
        <ele>358</ele>
        <time>2025-08-06T07:20:26Z</time>
      </trkpt>
      <trkpt lat="45.68103" lon="4.69736">
        <ele>358.4</ele>
        <time>2025-08-06T07:20:27Z</time>
      </trkpt>
      <trkpt lat="45.68099" lon="4.69733">
        <ele>358.6</ele>
        <time>2025-08-06T07:20:28Z</time>
      </trkpt>
      <trkpt lat="45.68095" lon="4.6973">
        <ele>358.8</ele>
        <time>2025-08-06T07:20:29Z</time>
      </trkpt>
      <trkpt lat="45.68091" lon="4.69727">
        <ele>359.2</ele>
        <time>2025-08-06T07:20:30Z</time>
      </trkpt>
      <trkpt lat="45.68087" lon="4.69724">
        <ele>359.4</ele>
        <time>2025-08-06T07:20:31Z</time>
      </trkpt>
      <trkpt lat="45.68083" lon="4.6972">
        <ele>359.6</ele>
        <time>2025-08-06T07:20:32Z</time>
      </trkpt>
      <trkpt lat="45.68079" lon="4.69715">
        <ele>359.8</ele>
        <time>2025-08-06T07:20:33Z</time>
      </trkpt>
      <trkpt lat="45.68075" lon="4.6971">
        <ele>360</ele>
        <time>2025-08-06T07:20:34Z</time>
      </trkpt>
      <trkpt lat="45.68071" lon="4.69705">
        <ele>360.2</ele>
        <time>2025-08-06T07:20:35Z</time>
      </trkpt>
      <trkpt lat="45.68068" lon="4.69699">
        <ele>360.4</ele>
        <time>2025-08-06T07:20:36Z</time>
      </trkpt>
      <trkpt lat="45.68064" lon="4.69693">
        <ele>360.6</ele>
        <time>2025-08-06T07:20:37Z</time>
      </trkpt>
      <trkpt lat="45.6806" lon="4.69687">
        <ele>360.8</ele>
        <time>2025-08-06T07:20:38Z</time>
      </trkpt>
      <trkpt lat="45.68057" lon="4.69681">
        <ele>360.8</ele>
        <time>2025-08-06T07:20:39Z</time>
      </trkpt>
      <trkpt lat="45.68053" lon="4.69676">
        <ele>361</ele>
        <time>2025-08-06T07:20:40Z</time>
      </trkpt>
      <trkpt lat="45.6805" lon="4.6967">
        <ele>361</ele>
        <time>2025-08-06T07:20:41Z</time>
      </trkpt>
      <trkpt lat="45.68046" lon="4.69665">
        <ele>361</ele>
        <time>2025-08-06T07:20:42Z</time>
      </trkpt>
      <trkpt lat="45.68042" lon="4.69659">
        <ele>361</ele>
        <time>2025-08-06T07:20:43Z</time>
      </trkpt>
      <trkpt lat="45.68039" lon="4.69654">
        <ele>361.2</ele>
        <time>2025-08-06T07:20:44Z</time>
      </trkpt>
      <trkpt lat="45.68035" lon="4.69648">
        <ele>361.6</ele>
        <time>2025-08-06T07:20:45Z</time>
      </trkpt>
      <trkpt lat="45.68032" lon="4.69642">
        <ele>361.8</ele>
        <time>2025-08-06T07:20:46Z</time>
      </trkpt>
      <trkpt lat="45.68028" lon="4.69636">
        <ele>362.2</ele>
        <time>2025-08-06T07:20:47Z</time>
      </trkpt>
      <trkpt lat="45.68025" lon="4.69631">
        <ele>362.4</ele>
        <time>2025-08-06T07:20:48Z</time>
      </trkpt>
      <trkpt lat="45.68022" lon="4.69626">
        <ele>362.8</ele>
        <time>2025-08-06T07:20:49Z</time>
      </trkpt>
      <trkpt lat="45.68018" lon="4.69621">
        <ele>362.8</ele>
        <time>2025-08-06T07:20:50Z</time>
      </trkpt>
      <trkpt lat="45.68015" lon="4.69616">
        <ele>363</ele>
        <time>2025-08-06T07:20:51Z</time>
      </trkpt>
      <trkpt lat="45.68012" lon="4.6961">
        <ele>363</ele>
        <time>2025-08-06T07:20:52Z</time>
      </trkpt>
      <trkpt lat="45.68008" lon="4.69605">
        <ele>363.2</ele>
        <time>2025-08-06T07:20:53Z</time>
      </trkpt>
      <trkpt lat="45.68005" lon="4.696">
        <ele>363</ele>
        <time>2025-08-06T07:20:54Z</time>
      </trkpt>
      <trkpt lat="45.68001" lon="4.69594">
        <ele>363</ele>
        <time>2025-08-06T07:20:55Z</time>
      </trkpt>
      <trkpt lat="45.67998" lon="4.69588">
        <ele>363</ele>
        <time>2025-08-06T07:20:56Z</time>
      </trkpt>
      <trkpt lat="45.67995" lon="4.69582">
        <ele>363</ele>
        <time>2025-08-06T07:20:57Z</time>
      </trkpt>
      <trkpt lat="45.67991" lon="4.69576">
        <ele>363</ele>
        <time>2025-08-06T07:20:58Z</time>
      </trkpt>
      <trkpt lat="45.67987" lon="4.6957">
        <ele>363</ele>
        <time>2025-08-06T07:20:59Z</time>
      </trkpt>
      <trkpt lat="45.67984" lon="4.69564">
        <ele>363</ele>
        <time>2025-08-06T07:21:00Z</time>
      </trkpt>
      <trkpt lat="45.6798" lon="4.69558">
        <ele>363</ele>
        <time>2025-08-06T07:21:01Z</time>
      </trkpt>
      <trkpt lat="45.67976" lon="4.69552">
        <ele>363</ele>
        <time>2025-08-06T07:21:02Z</time>
      </trkpt>
      <trkpt lat="45.67972" lon="4.69546">
        <ele>363</ele>
        <time>2025-08-06T07:21:03Z</time>
      </trkpt>
      <trkpt lat="45.67968" lon="4.69541">
        <ele>363.2</ele>
        <time>2025-08-06T07:21:04Z</time>
      </trkpt>
      <trkpt lat="45.67964" lon="4.69535">
        <ele>363.2</ele>
        <time>2025-08-06T07:21:05Z</time>
      </trkpt>
      <trkpt lat="45.6796" lon="4.69529">
        <ele>363.4</ele>
        <time>2025-08-06T07:21:06Z</time>
      </trkpt>
      <trkpt lat="45.67956" lon="4.69523">
        <ele>363.6</ele>
        <time>2025-08-06T07:21:07Z</time>
      </trkpt>
      <trkpt lat="45.67952" lon="4.69517">
        <ele>363.8</ele>
        <time>2025-08-06T07:21:08Z</time>
      </trkpt>
      <trkpt lat="45.67948" lon="4.6951">
        <ele>363.8</ele>
        <time>2025-08-06T07:21:09Z</time>
      </trkpt>
      <trkpt lat="45.67944" lon="4.69504">
        <ele>363.8</ele>
        <time>2025-08-06T07:21:10Z</time>
      </trkpt>
      <trkpt lat="45.6794" lon="4.69498">
        <ele>363.6</ele>
        <time>2025-08-06T07:21:11Z</time>
      </trkpt>
      <trkpt lat="45.67936" lon="4.69493">
        <ele>363.6</ele>
        <time>2025-08-06T07:21:12Z</time>
      </trkpt>
      <trkpt lat="45.67932" lon="4.69487">
        <ele>363.6</ele>
        <time>2025-08-06T07:21:13Z</time>
      </trkpt>
      <trkpt lat="45.67928" lon="4.69482">
        <ele>363.6</ele>
        <time>2025-08-06T07:21:14Z</time>
      </trkpt>
      <trkpt lat="45.67923" lon="4.69477">
        <ele>363.6</ele>
        <time>2025-08-06T07:21:15Z</time>
      </trkpt>
      <trkpt lat="45.67919" lon="4.69471">
        <ele>363.8</ele>
        <time>2025-08-06T07:21:16Z</time>
      </trkpt>
      <trkpt lat="45.67915" lon="4.69466">
        <ele>363.8</ele>
        <time>2025-08-06T07:21:17Z</time>
      </trkpt>
      <trkpt lat="45.67911" lon="4.69461">
        <ele>363.8</ele>
        <time>2025-08-06T07:21:18Z</time>
      </trkpt>
      <trkpt lat="45.67906" lon="4.69456">
        <ele>364</ele>
        <time>2025-08-06T07:21:19Z</time>
      </trkpt>
      <trkpt lat="45.67902" lon="4.69451">
        <ele>364</ele>
        <time>2025-08-06T07:21:20Z</time>
      </trkpt>
      <trkpt lat="45.67897" lon="4.69445">
        <ele>364</ele>
        <time>2025-08-06T07:21:21Z</time>
      </trkpt>
      <trkpt lat="45.67893" lon="4.6944">
        <ele>364</ele>
        <time>2025-08-06T07:21:22Z</time>
      </trkpt>
      <trkpt lat="45.67888" lon="4.69435">
        <ele>364</ele>
        <time>2025-08-06T07:21:23Z</time>
      </trkpt>
      <trkpt lat="45.67883" lon="4.69431">
        <ele>364</ele>
        <time>2025-08-06T07:21:24Z</time>
      </trkpt>
      <trkpt lat="45.67878" lon="4.69427">
        <ele>363.8</ele>
        <time>2025-08-06T07:21:25Z</time>
      </trkpt>
      <trkpt lat="45.67873" lon="4.69424">
        <ele>363.8</ele>
        <time>2025-08-06T07:21:26Z</time>
      </trkpt>
      <trkpt lat="45.67867" lon="4.69421">
        <ele>363.8</ele>
        <time>2025-08-06T07:21:27Z</time>
      </trkpt>
      <trkpt lat="45.67862" lon="4.69418">
        <ele>364</ele>
        <time>2025-08-06T07:21:28Z</time>
      </trkpt>
      <trkpt lat="45.67857" lon="4.69415">
        <ele>364</ele>
        <time>2025-08-06T07:21:29Z</time>
      </trkpt>
      <trkpt lat="45.67852" lon="4.69412">
        <ele>364</ele>
        <time>2025-08-06T07:21:30Z</time>
      </trkpt>
      <trkpt lat="45.67846" lon="4.69409">
        <ele>364</ele>
        <time>2025-08-06T07:21:31Z</time>
      </trkpt>
      <trkpt lat="45.67841" lon="4.69406">
        <ele>364</ele>
        <time>2025-08-06T07:21:32Z</time>
      </trkpt>
      <trkpt lat="45.67836" lon="4.69404">
        <ele>364.2</ele>
        <time>2025-08-06T07:21:33Z</time>
      </trkpt>
      <trkpt lat="45.67831" lon="4.69401">
        <ele>364.2</ele>
        <time>2025-08-06T07:21:34Z</time>
      </trkpt>
      <trkpt lat="45.67826" lon="4.69398">
        <ele>364.4</ele>
        <time>2025-08-06T07:21:35Z</time>
      </trkpt>
      <trkpt lat="45.67821" lon="4.69395">
        <ele>364.4</ele>
        <time>2025-08-06T07:21:36Z</time>
      </trkpt>
      <trkpt lat="45.67816" lon="4.69393">
        <ele>364.6</ele>
        <time>2025-08-06T07:21:37Z</time>
      </trkpt>
      <trkpt lat="45.67812" lon="4.69389">
        <ele>364.6</ele>
        <time>2025-08-06T07:21:38Z</time>
      </trkpt>
      <trkpt lat="45.67806" lon="4.69386">
        <ele>364.8</ele>
        <time>2025-08-06T07:21:39Z</time>
      </trkpt>
      <trkpt lat="45.67801" lon="4.69384">
        <ele>364.8</ele>
        <time>2025-08-06T07:21:40Z</time>
      </trkpt>
      <trkpt lat="45.67796" lon="4.69381">
        <ele>364.8</ele>
        <time>2025-08-06T07:21:41Z</time>
      </trkpt>
      <trkpt lat="45.67791" lon="4.69379">
        <ele>364.8</ele>
        <time>2025-08-06T07:21:42Z</time>
      </trkpt>
      <trkpt lat="45.67786" lon="4.69376">
        <ele>364.6</ele>
        <time>2025-08-06T07:21:43Z</time>
      </trkpt>
      <trkpt lat="45.67782" lon="4.69371">
        <ele>364.6</ele>
        <time>2025-08-06T07:21:44Z</time>
      </trkpt>
      <trkpt lat="45.67779" lon="4.69365">
        <ele>364.4</ele>
        <time>2025-08-06T07:21:45Z</time>
      </trkpt>
      <trkpt lat="45.67776" lon="4.69358">
        <ele>364.2</ele>
        <time>2025-08-06T07:21:46Z</time>
      </trkpt>
      <trkpt lat="45.67773" lon="4.69351">
        <ele>364.2</ele>
        <time>2025-08-06T07:21:47Z</time>
      </trkpt>
      <trkpt lat="45.67769" lon="4.69345">
        <ele>364</ele>
        <time>2025-08-06T07:21:48Z</time>
      </trkpt>
      <trkpt lat="45.67766" lon="4.69338">
        <ele>363.8</ele>
        <time>2025-08-06T07:21:49Z</time>
      </trkpt>
      <trkpt lat="45.67764" lon="4.69331">
        <ele>363.6</ele>
        <time>2025-08-06T07:21:50Z</time>
      </trkpt>
      <trkpt lat="45.67763" lon="4.69324">
        <ele>363.4</ele>
        <time>2025-08-06T07:21:51Z</time>
      </trkpt>
      <trkpt lat="45.67763" lon="4.69316">
        <ele>363.2</ele>
        <time>2025-08-06T07:21:52Z</time>
      </trkpt>
      <trkpt lat="45.67763" lon="4.6931">
        <ele>363</ele>
        <time>2025-08-06T07:21:53Z</time>
      </trkpt>
      <trkpt lat="45.67761" lon="4.69304">
        <ele>363</ele>
        <time>2025-08-06T07:21:54Z</time>
      </trkpt>
      <trkpt lat="45.67758" lon="4.69299">
        <ele>363.2</ele>
        <time>2025-08-06T07:21:55Z</time>
      </trkpt>
      <trkpt lat="45.67754" lon="4.69295">
        <ele>363.4</ele>
        <time>2025-08-06T07:21:56Z</time>
      </trkpt>
      <trkpt lat="45.6775" lon="4.69292">
        <ele>363.6</ele>
        <time>2025-08-06T07:21:57Z</time>
      </trkpt>
      <trkpt lat="45.67745" lon="4.69287">
        <ele>363.8</ele>
        <time>2025-08-06T07:21:58Z</time>
      </trkpt>
      <trkpt lat="45.67741" lon="4.69282">
        <ele>364</ele>
        <time>2025-08-06T07:21:59Z</time>
      </trkpt>
      <trkpt lat="45.67737" lon="4.69276">
        <ele>364</ele>
        <time>2025-08-06T07:22:00Z</time>
      </trkpt>
      <trkpt lat="45.67733" lon="4.69269">
        <ele>364.2</ele>
        <time>2025-08-06T07:22:01Z</time>
      </trkpt>
      <trkpt lat="45.67729" lon="4.69263">
        <ele>364.2</ele>
        <time>2025-08-06T07:22:02Z</time>
      </trkpt>
      <trkpt lat="45.67726" lon="4.69258">
        <ele>364.4</ele>
        <time>2025-08-06T07:22:03Z</time>
      </trkpt>
      <trkpt lat="45.67722" lon="4.69252">
        <ele>364.4</ele>
        <time>2025-08-06T07:22:04Z</time>
      </trkpt>
      <trkpt lat="45.67718" lon="4.69246">
        <ele>364.8</ele>
        <time>2025-08-06T07:22:05Z</time>
      </trkpt>
      <trkpt lat="45.67714" lon="4.6924">
        <ele>365.2</ele>
        <time>2025-08-06T07:22:06Z</time>
      </trkpt>
      <trkpt lat="45.6771" lon="4.69234">
        <ele>365.4</ele>
        <time>2025-08-06T07:22:07Z</time>
      </trkpt>
      <trkpt lat="45.67706" lon="4.69228">
        <ele>365.8</ele>
        <time>2025-08-06T07:22:08Z</time>
      </trkpt>
      <trkpt lat="45.67702" lon="4.69222">
        <ele>366.2</ele>
        <time>2025-08-06T07:22:09Z</time>
      </trkpt>
      <trkpt lat="45.67698" lon="4.69217">
        <ele>366.4</ele>
        <time>2025-08-06T07:22:10Z</time>
      </trkpt>
      <trkpt lat="45.67694" lon="4.69213">
        <ele>366.6</ele>
        <time>2025-08-06T07:22:11Z</time>
      </trkpt>
      <trkpt lat="45.6769" lon="4.69208">
        <ele>366.8</ele>
        <time>2025-08-06T07:22:12Z</time>
      </trkpt>
      <trkpt lat="45.67686" lon="4.69204">
        <ele>367</ele>
        <time>2025-08-06T07:22:13Z</time>
      </trkpt>
      <trkpt lat="45.67681" lon="4.692">
        <ele>367.2</ele>
        <time>2025-08-06T07:22:14Z</time>
      </trkpt>
      <trkpt lat="45.67677" lon="4.69196">
        <ele>367.4</ele>
        <time>2025-08-06T07:22:15Z</time>
      </trkpt>
      <trkpt lat="45.67672" lon="4.69192">
        <ele>367.6</ele>
        <time>2025-08-06T07:22:16Z</time>
      </trkpt>
      <trkpt lat="45.67667" lon="4.69188">
        <ele>368</ele>
        <time>2025-08-06T07:22:17Z</time>
      </trkpt>
      <trkpt lat="45.67662" lon="4.69185">
        <ele>368.2</ele>
        <time>2025-08-06T07:22:18Z</time>
      </trkpt>
      <trkpt lat="45.67657" lon="4.69182">
        <ele>368.4</ele>
        <time>2025-08-06T07:22:19Z</time>
      </trkpt>
      <trkpt lat="45.67652" lon="4.69179">
        <ele>368.6</ele>
        <time>2025-08-06T07:22:20Z</time>
      </trkpt>
      <trkpt lat="45.67646" lon="4.69176">
        <ele>368.8</ele>
        <time>2025-08-06T07:22:21Z</time>
      </trkpt>
      <trkpt lat="45.67641" lon="4.69173">
        <ele>368.8</ele>
        <time>2025-08-06T07:22:22Z</time>
      </trkpt>
      <trkpt lat="45.67635" lon="4.6917">
        <ele>369</ele>
        <time>2025-08-06T07:22:23Z</time>
      </trkpt>
      <trkpt lat="45.6763" lon="4.69167">
        <ele>369.2</ele>
        <time>2025-08-06T07:22:24Z</time>
      </trkpt>
      <trkpt lat="45.67625" lon="4.69164">
        <ele>369.2</ele>
        <time>2025-08-06T07:22:25Z</time>
      </trkpt>
      <trkpt lat="45.67619" lon="4.69161">
        <ele>369.4</ele>
        <time>2025-08-06T07:22:26Z</time>
      </trkpt>
      <trkpt lat="45.67614" lon="4.69158">
        <ele>369.6</ele>
        <time>2025-08-06T07:22:27Z</time>
      </trkpt>
      <trkpt lat="45.67609" lon="4.69155">
        <ele>369.6</ele>
        <time>2025-08-06T07:22:28Z</time>
      </trkpt>
      <trkpt lat="45.67603" lon="4.69152">
        <ele>369.8</ele>
        <time>2025-08-06T07:22:29Z</time>
      </trkpt>
      <trkpt lat="45.67598" lon="4.69149">
        <ele>370</ele>
        <time>2025-08-06T07:22:30Z</time>
      </trkpt>
      <trkpt lat="45.67593" lon="4.69146">
        <ele>370.2</ele>
        <time>2025-08-06T07:22:31Z</time>
      </trkpt>
      <trkpt lat="45.67588" lon="4.69143">
        <ele>370.4</ele>
        <time>2025-08-06T07:22:32Z</time>
      </trkpt>
      <trkpt lat="45.67583" lon="4.69139">
        <ele>370.6</ele>
        <time>2025-08-06T07:22:33Z</time>
      </trkpt>
      <trkpt lat="45.67578" lon="4.69135">
        <ele>370.8</ele>
        <time>2025-08-06T07:22:34Z</time>
      </trkpt>
      <trkpt lat="45.67573" lon="4.69131">
        <ele>371</ele>
        <time>2025-08-06T07:22:35Z</time>
      </trkpt>
      <trkpt lat="45.67568" lon="4.69127">
        <ele>371.2</ele>
        <time>2025-08-06T07:22:36Z</time>
      </trkpt>
      <trkpt lat="45.67563" lon="4.69123">
        <ele>371.4</ele>
        <time>2025-08-06T07:22:37Z</time>
      </trkpt>
      <trkpt lat="45.67559" lon="4.69118">
        <ele>371.6</ele>
        <time>2025-08-06T07:22:38Z</time>
      </trkpt>
      <trkpt lat="45.67554" lon="4.69114">
        <ele>371.8</ele>
        <time>2025-08-06T07:22:39Z</time>
      </trkpt>
      <trkpt lat="45.6755" lon="4.6911">
        <ele>372.2</ele>
        <time>2025-08-06T07:22:40Z</time>
      </trkpt>
      <trkpt lat="45.67545" lon="4.69105">
        <ele>372.4</ele>
        <time>2025-08-06T07:22:41Z</time>
      </trkpt>
      <trkpt lat="45.67541" lon="4.69101">
        <ele>372.6</ele>
        <time>2025-08-06T07:22:42Z</time>
      </trkpt>
      <trkpt lat="45.67536" lon="4.69097">
        <ele>372.8</ele>
        <time>2025-08-06T07:22:43Z</time>
      </trkpt>
      <trkpt lat="45.67532" lon="4.69092">
        <ele>373</ele>
        <time>2025-08-06T07:22:44Z</time>
      </trkpt>
      <trkpt lat="45.67527" lon="4.69088">
        <ele>373.2</ele>
        <time>2025-08-06T07:22:45Z</time>
      </trkpt>
      <trkpt lat="45.67522" lon="4.69083">
        <ele>373.4</ele>
        <time>2025-08-06T07:22:46Z</time>
      </trkpt>
      <trkpt lat="45.67516" lon="4.69079">
        <ele>373.4</ele>
        <time>2025-08-06T07:22:47Z</time>
      </trkpt>
      <trkpt lat="45.67512" lon="4.69074">
        <ele>373.6</ele>
        <time>2025-08-06T07:22:48Z</time>
      </trkpt>
      <trkpt lat="45.67507" lon="4.69069">
        <ele>373.6</ele>
        <time>2025-08-06T07:22:49Z</time>
      </trkpt>
      <trkpt lat="45.67502" lon="4.69064">
        <ele>373.6</ele>
        <time>2025-08-06T07:22:50Z</time>
      </trkpt>
      <trkpt lat="45.67498" lon="4.69059">
        <ele>373.8</ele>
        <time>2025-08-06T07:22:51Z</time>
      </trkpt>
      <trkpt lat="45.67493" lon="4.69054">
        <ele>373.8</ele>
        <time>2025-08-06T07:22:52Z</time>
      </trkpt>
      <trkpt lat="45.67489" lon="4.69048">
        <ele>374</ele>
        <time>2025-08-06T07:22:53Z</time>
      </trkpt>
      <trkpt lat="45.67484" lon="4.69043">
        <ele>374</ele>
        <time>2025-08-06T07:22:54Z</time>
      </trkpt>
      <trkpt lat="45.6748" lon="4.69039">
        <ele>374</ele>
        <time>2025-08-06T07:22:55Z</time>
      </trkpt>
      <trkpt lat="45.67476" lon="4.69033">
        <ele>374.2</ele>
        <time>2025-08-06T07:22:56Z</time>
      </trkpt>
      <trkpt lat="45.67472" lon="4.69028">
        <ele>374.2</ele>
        <time>2025-08-06T07:22:57Z</time>
      </trkpt>
      <trkpt lat="45.67469" lon="4.69022">
        <ele>374.2</ele>
        <time>2025-08-06T07:22:58Z</time>
      </trkpt>
      <trkpt lat="45.67466" lon="4.69016">
        <ele>374.2</ele>
        <time>2025-08-06T07:22:59Z</time>
      </trkpt>
      <trkpt lat="45.67462" lon="4.69009">
        <ele>374.2</ele>
        <time>2025-08-06T07:23:00Z</time>
      </trkpt>
      <trkpt lat="45.67459" lon="4.69003">
        <ele>374.2</ele>
        <time>2025-08-06T07:23:01Z</time>
      </trkpt>
      <trkpt lat="45.67457" lon="4.68996">
        <ele>374.2</ele>
        <time>2025-08-06T07:23:02Z</time>
      </trkpt>
      <trkpt lat="45.67454" lon="4.68989">
        <ele>374.2</ele>
        <time>2025-08-06T07:23:03Z</time>
      </trkpt>
      <trkpt lat="45.67452" lon="4.68981">
        <ele>374.2</ele>
        <time>2025-08-06T07:23:04Z</time>
      </trkpt>
      <trkpt lat="45.6745" lon="4.68973">
        <ele>374</ele>
        <time>2025-08-06T07:23:05Z</time>
      </trkpt>
      <trkpt lat="45.67449" lon="4.68966">
        <ele>374</ele>
        <time>2025-08-06T07:23:06Z</time>
      </trkpt>
      <trkpt lat="45.67447" lon="4.68958">
        <ele>374</ele>
        <time>2025-08-06T07:23:07Z</time>
      </trkpt>
      <trkpt lat="45.67445" lon="4.68951">
        <ele>374</ele>
        <time>2025-08-06T07:23:08Z</time>
      </trkpt>
      <trkpt lat="45.67443" lon="4.68944">
        <ele>374</ele>
        <time>2025-08-06T07:23:09Z</time>
      </trkpt>
      <trkpt lat="45.67442" lon="4.68936">
        <ele>374</ele>
        <time>2025-08-06T07:23:10Z</time>
      </trkpt>
      <trkpt lat="45.6744" lon="4.68929">
        <ele>374.2</ele>
        <time>2025-08-06T07:23:11Z</time>
      </trkpt>
      <trkpt lat="45.67438" lon="4.68922">
        <ele>374.2</ele>
        <time>2025-08-06T07:23:12Z</time>
      </trkpt>
      <trkpt lat="45.67436" lon="4.68914">
        <ele>374</ele>
        <time>2025-08-06T07:23:13Z</time>
      </trkpt>
      <trkpt lat="45.67435" lon="4.68906">
        <ele>374</ele>
        <time>2025-08-06T07:23:14Z</time>
      </trkpt>
      <trkpt lat="45.67433" lon="4.68899">
        <ele>373.8</ele>
        <time>2025-08-06T07:23:15Z</time>
      </trkpt>
      <trkpt lat="45.67432" lon="4.6889">
        <ele>373.8</ele>
        <time>2025-08-06T07:23:16Z</time>
      </trkpt>
      <trkpt lat="45.67431" lon="4.68882">
        <ele>373.6</ele>
        <time>2025-08-06T07:23:17Z</time>
      </trkpt>
      <trkpt lat="45.67431" lon="4.68874">
        <ele>373.4</ele>
        <time>2025-08-06T07:23:18Z</time>
      </trkpt>
      <trkpt lat="45.6743" lon="4.68866">
        <ele>373.2</ele>
        <time>2025-08-06T07:23:19Z</time>
      </trkpt>
      <trkpt lat="45.67429" lon="4.68857">
        <ele>373.2</ele>
        <time>2025-08-06T07:23:20Z</time>
      </trkpt>
      <trkpt lat="45.67429" lon="4.68848">
        <ele>373</ele>
        <time>2025-08-06T07:23:21Z</time>
      </trkpt>
      <trkpt lat="45.67428" lon="4.6884">
        <ele>372.8</ele>
        <time>2025-08-06T07:23:22Z</time>
      </trkpt>
      <trkpt lat="45.67426" lon="4.68831">
        <ele>372.8</ele>
        <time>2025-08-06T07:23:23Z</time>
      </trkpt>
      <trkpt lat="45.67424" lon="4.68823">
        <ele>372.6</ele>
        <time>2025-08-06T07:23:24Z</time>
      </trkpt>
      <trkpt lat="45.67422" lon="4.68814">
        <ele>372.4</ele>
        <time>2025-08-06T07:23:25Z</time>
      </trkpt>
      <trkpt lat="45.67419" lon="4.68806">
        <ele>372.4</ele>
        <time>2025-08-06T07:23:26Z</time>
      </trkpt>
      <trkpt lat="45.67416" lon="4.68799">
        <ele>372.2</ele>
        <time>2025-08-06T07:23:27Z</time>
      </trkpt>
      <trkpt lat="45.67413" lon="4.68791">
        <ele>372.2</ele>
        <time>2025-08-06T07:23:28Z</time>
      </trkpt>
      <trkpt lat="45.67409" lon="4.68783">
        <ele>372</ele>
        <time>2025-08-06T07:23:29Z</time>
      </trkpt>
      <trkpt lat="45.67406" lon="4.68775">
        <ele>372</ele>
        <time>2025-08-06T07:23:30Z</time>
      </trkpt>
      <trkpt lat="45.67403" lon="4.68767">
        <ele>371.8</ele>
        <time>2025-08-06T07:23:31Z</time>
      </trkpt>
      <trkpt lat="45.674" lon="4.68759">
        <ele>371.6</ele>
        <time>2025-08-06T07:23:32Z</time>
      </trkpt>
      <trkpt lat="45.67396" lon="4.68751">
        <ele>371.4</ele>
        <time>2025-08-06T07:23:33Z</time>
      </trkpt>
      <trkpt lat="45.67393" lon="4.68743">
        <ele>371.2</ele>
        <time>2025-08-06T07:23:34Z</time>
      </trkpt>
      <trkpt lat="45.6739" lon="4.68735">
        <ele>371.2</ele>
        <time>2025-08-06T07:23:35Z</time>
      </trkpt>
      <trkpt lat="45.67386" lon="4.68728">
        <ele>371</ele>
        <time>2025-08-06T07:23:36Z</time>
      </trkpt>
      <trkpt lat="45.67383" lon="4.6872">
        <ele>371</ele>
        <time>2025-08-06T07:23:37Z</time>
      </trkpt>
      <trkpt lat="45.6738" lon="4.68713">
        <ele>371</ele>
        <time>2025-08-06T07:23:38Z</time>
      </trkpt>
      <trkpt lat="45.67377" lon="4.68705">
        <ele>371</ele>
        <time>2025-08-06T07:23:39Z</time>
      </trkpt>
      <trkpt lat="45.67374" lon="4.68697">
        <ele>371.2</ele>
        <time>2025-08-06T07:23:40Z</time>
      </trkpt>
      <trkpt lat="45.67371" lon="4.6869">
        <ele>371.2</ele>
        <time>2025-08-06T07:23:41Z</time>
      </trkpt>
      <trkpt lat="45.67368" lon="4.68682">
        <ele>371.2</ele>
        <time>2025-08-06T07:23:42Z</time>
      </trkpt>
      <trkpt lat="45.67365" lon="4.68675">
        <ele>371.2</ele>
        <time>2025-08-06T07:23:43Z</time>
      </trkpt>
      <trkpt lat="45.67362" lon="4.68667">
        <ele>371.4</ele>
        <time>2025-08-06T07:23:44Z</time>
      </trkpt>
      <trkpt lat="45.6736" lon="4.6866">
        <ele>371.4</ele>
        <time>2025-08-06T07:23:45Z</time>
      </trkpt>
      <trkpt lat="45.67357" lon="4.68652">
        <ele>371.4</ele>
        <time>2025-08-06T07:23:46Z</time>
      </trkpt>
      <trkpt lat="45.67354" lon="4.68645">
        <ele>371.4</ele>
        <time>2025-08-06T07:23:47Z</time>
      </trkpt>
      <trkpt lat="45.67351" lon="4.68637">
        <ele>371.4</ele>
        <time>2025-08-06T07:23:48Z</time>
      </trkpt>
      <trkpt lat="45.67348" lon="4.6863">
        <ele>371.4</ele>
        <time>2025-08-06T07:23:49Z</time>
      </trkpt>
      <trkpt lat="45.67345" lon="4.68622">
        <ele>371.4</ele>
        <time>2025-08-06T07:23:50Z</time>
      </trkpt>
      <trkpt lat="45.67341" lon="4.68615">
        <ele>371.6</ele>
        <time>2025-08-06T07:23:51Z</time>
      </trkpt>
      <trkpt lat="45.67338" lon="4.68607">
        <ele>371.6</ele>
        <time>2025-08-06T07:23:52Z</time>
      </trkpt>
      <trkpt lat="45.67336" lon="4.686">
        <ele>371.6</ele>
        <time>2025-08-06T07:23:53Z</time>
      </trkpt>
      <trkpt lat="45.67333" lon="4.68592">
        <ele>371.8</ele>
        <time>2025-08-06T07:23:54Z</time>
      </trkpt>
      <trkpt lat="45.6733" lon="4.68585">
        <ele>371.8</ele>
        <time>2025-08-06T07:23:55Z</time>
      </trkpt>
      <trkpt lat="45.67327" lon="4.68578">
        <ele>372</ele>
        <time>2025-08-06T07:23:56Z</time>
      </trkpt>
      <trkpt lat="45.67324" lon="4.68571">
        <ele>372</ele>
        <time>2025-08-06T07:23:57Z</time>
      </trkpt>
      <trkpt lat="45.67321" lon="4.68565">
        <ele>372.2</ele>
        <time>2025-08-06T07:23:58Z</time>
      </trkpt>
      <trkpt lat="45.67318" lon="4.68558">
        <ele>372.4</ele>
        <time>2025-08-06T07:23:59Z</time>
      </trkpt>
      <trkpt lat="45.67314" lon="4.68552">
        <ele>372.6</ele>
        <time>2025-08-06T07:24:00Z</time>
      </trkpt>
      <trkpt lat="45.67309" lon="4.68547">
        <ele>372.8</ele>
        <time>2025-08-06T07:24:01Z</time>
      </trkpt>
      <trkpt lat="45.67305" lon="4.68542">
        <ele>373</ele>
        <time>2025-08-06T07:24:02Z</time>
      </trkpt>
      <trkpt lat="45.673" lon="4.68538">
        <ele>373.2</ele>
        <time>2025-08-06T07:24:03Z</time>
      </trkpt>
      <trkpt lat="45.67295" lon="4.68535">
        <ele>373.4</ele>
        <time>2025-08-06T07:24:04Z</time>
      </trkpt>
      <trkpt lat="45.6729" lon="4.68532">
        <ele>373.6</ele>
        <time>2025-08-06T07:24:05Z</time>
      </trkpt>
      <trkpt lat="45.67284" lon="4.68529">
        <ele>373.8</ele>
        <time>2025-08-06T07:24:06Z</time>
      </trkpt>
      <trkpt lat="45.67279" lon="4.68526">
        <ele>374</ele>
        <time>2025-08-06T07:24:07Z</time>
      </trkpt>
      <trkpt lat="45.67274" lon="4.68524">
        <ele>374.2</ele>
        <time>2025-08-06T07:24:08Z</time>
      </trkpt>
      <trkpt lat="45.67268" lon="4.68522">
        <ele>374.4</ele>
        <time>2025-08-06T07:24:09Z</time>
      </trkpt>
      <trkpt lat="45.67263" lon="4.6852">
        <ele>374.8</ele>
        <time>2025-08-06T07:24:10Z</time>
      </trkpt>
      <trkpt lat="45.67258" lon="4.68517">
        <ele>375</ele>
        <time>2025-08-06T07:24:11Z</time>
      </trkpt>
      <trkpt lat="45.67253" lon="4.68514">
        <ele>375.2</ele>
        <time>2025-08-06T07:24:12Z</time>
      </trkpt>
      <trkpt lat="45.67249" lon="4.6851">
        <ele>375.4</ele>
        <time>2025-08-06T07:24:13Z</time>
      </trkpt>
      <trkpt lat="45.67245" lon="4.68506">
        <ele>375.8</ele>
        <time>2025-08-06T07:24:14Z</time>
      </trkpt>
      <trkpt lat="45.67241" lon="4.68501">
        <ele>376</ele>
        <time>2025-08-06T07:24:15Z</time>
      </trkpt>
      <trkpt lat="45.67237" lon="4.68495">
        <ele>376.2</ele>
        <time>2025-08-06T07:24:16Z</time>
      </trkpt>
      <trkpt lat="45.67233" lon="4.6849">
        <ele>376.4</ele>
        <time>2025-08-06T07:24:17Z</time>
      </trkpt>
      <trkpt lat="45.67229" lon="4.68485">
        <ele>376.4</ele>
        <time>2025-08-06T07:24:18Z</time>
      </trkpt>
      <trkpt lat="45.67225" lon="4.68481">
        <ele>376.6</ele>
        <time>2025-08-06T07:24:19Z</time>
      </trkpt>
      <trkpt lat="45.67221" lon="4.68476">
        <ele>376.8</ele>
        <time>2025-08-06T07:24:20Z</time>
      </trkpt>
      <trkpt lat="45.67216" lon="4.68472">
        <ele>377</ele>
        <time>2025-08-06T07:24:21Z</time>
      </trkpt>
      <trkpt lat="45.67211" lon="4.68469">
        <ele>377</ele>
        <time>2025-08-06T07:24:22Z</time>
      </trkpt>
      <trkpt lat="45.67207" lon="4.68466">
        <ele>377.2</ele>
        <time>2025-08-06T07:24:23Z</time>
      </trkpt>
      <trkpt lat="45.67203" lon="4.68462">
        <ele>377.4</ele>
        <time>2025-08-06T07:24:24Z</time>
      </trkpt>
      <trkpt lat="45.672" lon="4.68457">
        <ele>377.4</ele>
        <time>2025-08-06T07:24:25Z</time>
      </trkpt>
      <trkpt lat="45.67198" lon="4.68451">
        <ele>377.6</ele>
        <time>2025-08-06T07:24:26Z</time>
      </trkpt>
      <trkpt lat="45.67197" lon="4.68445">
        <ele>377.6</ele>
        <time>2025-08-06T07:24:27Z</time>
      </trkpt>
      <trkpt lat="45.67198" lon="4.68438">
        <ele>377.6</ele>
        <time>2025-08-06T07:24:28Z</time>
      </trkpt>
      <trkpt lat="45.67198" lon="4.68431">
        <ele>377.6</ele>
        <time>2025-08-06T07:24:29Z</time>
      </trkpt>
      <trkpt lat="45.67199" lon="4.68423">
        <ele>377.4</ele>
        <time>2025-08-06T07:24:30Z</time>
      </trkpt>
      <trkpt lat="45.672" lon="4.68415">
        <ele>377.4</ele>
        <time>2025-08-06T07:24:31Z</time>
      </trkpt>
      <trkpt lat="45.672" lon="4.68407">
        <ele>377.2</ele>
        <time>2025-08-06T07:24:32Z</time>
      </trkpt>
      <trkpt lat="45.672" lon="4.684">
        <ele>377.4</ele>
        <time>2025-08-06T07:24:33Z</time>
      </trkpt>
      <trkpt lat="45.67201" lon="4.68392">
        <ele>377.4</ele>
        <time>2025-08-06T07:24:34Z</time>
      </trkpt>
      <trkpt lat="45.67201" lon="4.68384">
        <ele>377.6</ele>
        <time>2025-08-06T07:24:35Z</time>
      </trkpt>
      <trkpt lat="45.67201" lon="4.68376">
        <ele>377.8</ele>
        <time>2025-08-06T07:24:36Z</time>
      </trkpt>
      <trkpt lat="45.67201" lon="4.68368">
        <ele>378</ele>
        <time>2025-08-06T07:24:37Z</time>
      </trkpt>
      <trkpt lat="45.67201" lon="4.68361">
        <ele>378.2</ele>
        <time>2025-08-06T07:24:38Z</time>
      </trkpt>
      <trkpt lat="45.67201" lon="4.68353">
        <ele>378.4</ele>
        <time>2025-08-06T07:24:39Z</time>
      </trkpt>
      <trkpt lat="45.672" lon="4.68345">
        <ele>378.4</ele>
        <time>2025-08-06T07:24:40Z</time>
      </trkpt>
      <trkpt lat="45.672" lon="4.68338">
        <ele>378.6</ele>
        <time>2025-08-06T07:24:41Z</time>
      </trkpt>
      <trkpt lat="45.67199" lon="4.6833">
        <ele>378.6</ele>
        <time>2025-08-06T07:24:42Z</time>
      </trkpt>
      <trkpt lat="45.67199" lon="4.68323">
        <ele>378.8</ele>
        <time>2025-08-06T07:24:43Z</time>
      </trkpt>
      <trkpt lat="45.67199" lon="4.68315">
        <ele>378.8</ele>
        <time>2025-08-06T07:24:44Z</time>
      </trkpt>
      <trkpt lat="45.67198" lon="4.68308">
        <ele>379</ele>
        <time>2025-08-06T07:24:45Z</time>
      </trkpt>
      <trkpt lat="45.67198" lon="4.683">
        <ele>379</ele>
        <time>2025-08-06T07:24:46Z</time>
      </trkpt>
      <trkpt lat="45.67198" lon="4.68293">
        <ele>379.2</ele>
        <time>2025-08-06T07:24:47Z</time>
      </trkpt>
      <trkpt lat="45.67197" lon="4.68285">
        <ele>379</ele>
        <time>2025-08-06T07:24:48Z</time>
      </trkpt>
      <trkpt lat="45.67197" lon="4.68278">
        <ele>379</ele>
        <time>2025-08-06T07:24:49Z</time>
      </trkpt>
      <trkpt lat="45.67197" lon="4.68271">
        <ele>379</ele>
        <time>2025-08-06T07:24:50Z</time>
      </trkpt>
      <trkpt lat="45.67197" lon="4.68264">
        <ele>379</ele>
        <time>2025-08-06T07:24:51Z</time>
      </trkpt>
      <trkpt lat="45.67197" lon="4.68257">
        <ele>379.2</ele>
        <time>2025-08-06T07:24:52Z</time>
      </trkpt>
      <trkpt lat="45.67197" lon="4.68249">
        <ele>379.6</ele>
        <time>2025-08-06T07:24:53Z</time>
      </trkpt>
      <trkpt lat="45.67196" lon="4.68242">
        <ele>379.8</ele>
        <time>2025-08-06T07:24:54Z</time>
      </trkpt>
      <trkpt lat="45.67196" lon="4.68234">
        <ele>380</ele>
        <time>2025-08-06T07:24:55Z</time>
      </trkpt>
      <trkpt lat="45.67196" lon="4.68227">
        <ele>380.2</ele>
        <time>2025-08-06T07:24:56Z</time>
      </trkpt>
      <trkpt lat="45.67196" lon="4.6822">
        <ele>380.2</ele>
        <time>2025-08-06T07:24:57Z</time>
      </trkpt>
      <trkpt lat="45.67196" lon="4.68213">
        <ele>380.4</ele>
        <time>2025-08-06T07:24:58Z</time>
      </trkpt>
      <trkpt lat="45.67196" lon="4.68206">
        <ele>380.4</ele>
        <time>2025-08-06T07:24:59Z</time>
      </trkpt>
      <trkpt lat="45.67197" lon="4.68199">
        <ele>380.6</ele>
        <time>2025-08-06T07:25:00Z</time>
      </trkpt>
      <trkpt lat="45.67197" lon="4.68193">
        <ele>380.8</ele>
        <time>2025-08-06T07:25:01Z</time>
      </trkpt>
      <trkpt lat="45.67199" lon="4.68186">
        <ele>381</ele>
        <time>2025-08-06T07:25:02Z</time>
      </trkpt>
      <trkpt lat="45.672" lon="4.6818">
        <ele>381.2</ele>
        <time>2025-08-06T07:25:03Z</time>
      </trkpt>
      <trkpt lat="45.67202" lon="4.68173">
        <ele>381.2</ele>
        <time>2025-08-06T07:25:04Z</time>
      </trkpt>
      <trkpt lat="45.67203" lon="4.68167">
        <ele>381.2</ele>
        <time>2025-08-06T07:25:05Z</time>
      </trkpt>
      <trkpt lat="45.67205" lon="4.6816">
        <ele>381.2</ele>
        <time>2025-08-06T07:25:06Z</time>
      </trkpt>
      <trkpt lat="45.67207" lon="4.68154">
        <ele>381.2</ele>
        <time>2025-08-06T07:25:07Z</time>
      </trkpt>
      <trkpt lat="45.67208" lon="4.68148">
        <ele>381.2</ele>
        <time>2025-08-06T07:25:08Z</time>
      </trkpt>
      <trkpt lat="45.6721" lon="4.68141">
        <ele>381.4</ele>
        <time>2025-08-06T07:25:09Z</time>
      </trkpt>
      <trkpt lat="45.67212" lon="4.68135">
        <ele>381.8</ele>
        <time>2025-08-06T07:25:10Z</time>
      </trkpt>
      <trkpt lat="45.67214" lon="4.68129">
        <ele>382</ele>
        <time>2025-08-06T07:25:11Z</time>
      </trkpt>
      <trkpt lat="45.67216" lon="4.68123">
        <ele>382.4</ele>
        <time>2025-08-06T07:25:12Z</time>
      </trkpt>
      <trkpt lat="45.67219" lon="4.68117">
        <ele>382.8</ele>
        <time>2025-08-06T07:25:13Z</time>
      </trkpt>
      <trkpt lat="45.67221" lon="4.68111">
        <ele>383</ele>
        <time>2025-08-06T07:25:14Z</time>
      </trkpt>
      <trkpt lat="45.67222" lon="4.68105">
        <ele>383.2</ele>
        <time>2025-08-06T07:25:15Z</time>
      </trkpt>
      <trkpt lat="45.67223" lon="4.68099">
        <ele>383.2</ele>
        <time>2025-08-06T07:25:16Z</time>
      </trkpt>
      <trkpt lat="45.67223" lon="4.68093">
        <ele>383.4</ele>
        <time>2025-08-06T07:25:17Z</time>
      </trkpt>
      <trkpt lat="45.67221" lon="4.68088">
        <ele>383.8</ele>
        <time>2025-08-06T07:25:18Z</time>
      </trkpt>
      <trkpt lat="45.6722" lon="4.68083">
        <ele>384</ele>
        <time>2025-08-06T07:25:19Z</time>
      </trkpt>
      <trkpt lat="45.67218" lon="4.68077">
        <ele>384.4</ele>
        <time>2025-08-06T07:25:20Z</time>
      </trkpt>
      <trkpt lat="45.67216" lon="4.68072">
        <ele>384.8</ele>
        <time>2025-08-06T07:25:21Z</time>
      </trkpt>
      <trkpt lat="45.67214" lon="4.68066">
        <ele>385.4</ele>
        <time>2025-08-06T07:25:22Z</time>
      </trkpt>
      <trkpt lat="45.67212" lon="4.68061">
        <ele>385.6</ele>
        <time>2025-08-06T07:25:23Z</time>
      </trkpt>
      <trkpt lat="45.6721" lon="4.68055">
        <ele>386</ele>
        <time>2025-08-06T07:25:24Z</time>
      </trkpt>
      <trkpt lat="45.67208" lon="4.6805">
        <ele>386.2</ele>
        <time>2025-08-06T07:25:25Z</time>
      </trkpt>
      <trkpt lat="45.67206" lon="4.68044">
        <ele>386.2</ele>
        <time>2025-08-06T07:25:26Z</time>
      </trkpt>
      <trkpt lat="45.67205" lon="4.68039">
        <ele>386.4</ele>
        <time>2025-08-06T07:25:27Z</time>
      </trkpt>
      <trkpt lat="45.67203" lon="4.68034">
        <ele>386.6</ele>
        <time>2025-08-06T07:25:28Z</time>
      </trkpt>
      <trkpt lat="45.67201" lon="4.68028">
        <ele>386.8</ele>
        <time>2025-08-06T07:25:29Z</time>
      </trkpt>
      <trkpt lat="45.67199" lon="4.68023">
        <ele>387.2</ele>
        <time>2025-08-06T07:25:30Z</time>
      </trkpt>
      <trkpt lat="45.67197" lon="4.68018">
        <ele>387.6</ele>
        <time>2025-08-06T07:25:31Z</time>
      </trkpt>
      <trkpt lat="45.67195" lon="4.68012">
        <ele>387.8</ele>
        <time>2025-08-06T07:25:32Z</time>
      </trkpt>
      <trkpt lat="45.67194" lon="4.68007">
        <ele>388.2</ele>
        <time>2025-08-06T07:25:33Z</time>
      </trkpt>
      <trkpt lat="45.67192" lon="4.68001">
        <ele>388.4</ele>
        <time>2025-08-06T07:25:34Z</time>
      </trkpt>
      <trkpt lat="45.6719" lon="4.67995">
        <ele>388.6</ele>
        <time>2025-08-06T07:25:35Z</time>
      </trkpt>
      <trkpt lat="45.67188" lon="4.67989">
        <ele>388.8</ele>
        <time>2025-08-06T07:25:36Z</time>
      </trkpt>
      <trkpt lat="45.67187" lon="4.67983">
        <ele>388.8</ele>
        <time>2025-08-06T07:25:37Z</time>
      </trkpt>
      <trkpt lat="45.67185" lon="4.67977">
        <ele>389</ele>
        <time>2025-08-06T07:25:38Z</time>
      </trkpt>
      <trkpt lat="45.67184" lon="4.67971">
        <ele>389</ele>
        <time>2025-08-06T07:25:39Z</time>
      </trkpt>
      <trkpt lat="45.67182" lon="4.67965">
        <ele>389.2</ele>
        <time>2025-08-06T07:25:40Z</time>
      </trkpt>
      <trkpt lat="45.67181" lon="4.67959">
        <ele>389.4</ele>
        <time>2025-08-06T07:25:41Z</time>
      </trkpt>
      <trkpt lat="45.6718" lon="4.67953">
        <ele>389.6</ele>
        <time>2025-08-06T07:25:42Z</time>
      </trkpt>
      <trkpt lat="45.67178" lon="4.67947">
        <ele>389.8</ele>
        <time>2025-08-06T07:25:43Z</time>
      </trkpt>
      <trkpt lat="45.67177" lon="4.67941">
        <ele>390</ele>
        <time>2025-08-06T07:25:44Z</time>
      </trkpt>
      <trkpt lat="45.67175" lon="4.67935">
        <ele>390.2</ele>
        <time>2025-08-06T07:25:45Z</time>
      </trkpt>
      <trkpt lat="45.67174" lon="4.6793">
        <ele>390.4</ele>
        <time>2025-08-06T07:25:46Z</time>
      </trkpt>
      <trkpt lat="45.67172" lon="4.67924">
        <ele>390.6</ele>
        <time>2025-08-06T07:25:47Z</time>
      </trkpt>
      <trkpt lat="45.67171" lon="4.67918">
        <ele>390.8</ele>
        <time>2025-08-06T07:25:48Z</time>
      </trkpt>
      <trkpt lat="45.67169" lon="4.67913">
        <ele>391.2</ele>
        <time>2025-08-06T07:25:49Z</time>
      </trkpt>
      <trkpt lat="45.67168" lon="4.67907">
        <ele>391.4</ele>
        <time>2025-08-06T07:25:50Z</time>
      </trkpt>
      <trkpt lat="45.67166" lon="4.67902">
        <ele>391.8</ele>
        <time>2025-08-06T07:25:51Z</time>
      </trkpt>
      <trkpt lat="45.67165" lon="4.67897">
        <ele>392</ele>
        <time>2025-08-06T07:25:52Z</time>
      </trkpt>
      <trkpt lat="45.67163" lon="4.67891">
        <ele>392.4</ele>
        <time>2025-08-06T07:25:53Z</time>
      </trkpt>
      <trkpt lat="45.67162" lon="4.67885">
        <ele>392.6</ele>
        <time>2025-08-06T07:25:54Z</time>
      </trkpt>
      <trkpt lat="45.67161" lon="4.67879">
        <ele>392.8</ele>
        <time>2025-08-06T07:25:55Z</time>
      </trkpt>
      <trkpt lat="45.6716" lon="4.67873">
        <ele>393.2</ele>
        <time>2025-08-06T07:25:56Z</time>
      </trkpt>
      <trkpt lat="45.67159" lon="4.67867">
        <ele>393.4</ele>
        <time>2025-08-06T07:25:57Z</time>
      </trkpt>
      <trkpt lat="45.67158" lon="4.67862">
        <ele>393.8</ele>
        <time>2025-08-06T07:25:58Z</time>
      </trkpt>
      <trkpt lat="45.67157" lon="4.67856">
        <ele>394</ele>
        <time>2025-08-06T07:25:59Z</time>
      </trkpt>
      <trkpt lat="45.67156" lon="4.67851">
        <ele>394.4</ele>
        <time>2025-08-06T07:26:00Z</time>
      </trkpt>
      <trkpt lat="45.67155" lon="4.67845">
        <ele>394.8</ele>
        <time>2025-08-06T07:26:01Z</time>
      </trkpt>
      <trkpt lat="45.67154" lon="4.6784">
        <ele>395</ele>
        <time>2025-08-06T07:26:02Z</time>
      </trkpt>
      <trkpt lat="45.67154" lon="4.67835">
        <ele>395.4</ele>
        <time>2025-08-06T07:26:03Z</time>
      </trkpt>
      <trkpt lat="45.67153" lon="4.67829">
        <ele>395.8</ele>
        <time>2025-08-06T07:26:04Z</time>
      </trkpt>
      <trkpt lat="45.67152" lon="4.67824">
        <ele>396</ele>
        <time>2025-08-06T07:26:05Z</time>
      </trkpt>
      <trkpt lat="45.67151" lon="4.67818">
        <ele>396.2</ele>
        <time>2025-08-06T07:26:06Z</time>
      </trkpt>
      <trkpt lat="45.67151" lon="4.67812">
        <ele>396.4</ele>
        <time>2025-08-06T07:26:07Z</time>
      </trkpt>
      <trkpt lat="45.6715" lon="4.67807">
        <ele>396.6</ele>
        <time>2025-08-06T07:26:08Z</time>
      </trkpt>
      <trkpt lat="45.67149" lon="4.67801">
        <ele>396.8</ele>
        <time>2025-08-06T07:26:09Z</time>
      </trkpt>
      <trkpt lat="45.67149" lon="4.67795">
        <ele>396.8</ele>
        <time>2025-08-06T07:26:10Z</time>
      </trkpt>
      <trkpt lat="45.67148" lon="4.67789">
        <ele>397</ele>
        <time>2025-08-06T07:26:11Z</time>
      </trkpt>
      <trkpt lat="45.67148" lon="4.67784">
        <ele>397.2</ele>
        <time>2025-08-06T07:26:12Z</time>
      </trkpt>
      <trkpt lat="45.67148" lon="4.67778">
        <ele>397.4</ele>
        <time>2025-08-06T07:26:13Z</time>
      </trkpt>
      <trkpt lat="45.67148" lon="4.67772">
        <ele>397.6</ele>
        <time>2025-08-06T07:26:14Z</time>
      </trkpt>
      <trkpt lat="45.67148" lon="4.67766">
        <ele>397.8</ele>
        <time>2025-08-06T07:26:15Z</time>
      </trkpt>
      <trkpt lat="45.67148" lon="4.67761">
        <ele>398</ele>
        <time>2025-08-06T07:26:16Z</time>
      </trkpt>
      <trkpt lat="45.67148" lon="4.67755">
        <ele>398.2</ele>
        <time>2025-08-06T07:26:17Z</time>
      </trkpt>
      <trkpt lat="45.67148" lon="4.67749">
        <ele>398.4</ele>
        <time>2025-08-06T07:26:18Z</time>
      </trkpt>
      <trkpt lat="45.67149" lon="4.67743">
        <ele>398.6</ele>
        <time>2025-08-06T07:26:19Z</time>
      </trkpt>
      <trkpt lat="45.67149" lon="4.67737">
        <ele>398.8</ele>
        <time>2025-08-06T07:26:20Z</time>
      </trkpt>
      <trkpt lat="45.67149" lon="4.67731">
        <ele>399</ele>
        <time>2025-08-06T07:26:21Z</time>
      </trkpt>
      <trkpt lat="45.67149" lon="4.67725">
        <ele>399.2</ele>
        <time>2025-08-06T07:26:22Z</time>
      </trkpt>
      <trkpt lat="45.67149" lon="4.67719">
        <ele>399.6</ele>
        <time>2025-08-06T07:26:23Z</time>
      </trkpt>
      <trkpt lat="45.67148" lon="4.67714">
        <ele>399.8</ele>
        <time>2025-08-06T07:26:24Z</time>
      </trkpt>
      <trkpt lat="45.67147" lon="4.67709">
        <ele>400.2</ele>
        <time>2025-08-06T07:26:25Z</time>
      </trkpt>
      <trkpt lat="45.67145" lon="4.67705">
        <ele>400.6</ele>
        <time>2025-08-06T07:26:26Z</time>
      </trkpt>
      <trkpt lat="45.67143" lon="4.677">
        <ele>400.8</ele>
        <time>2025-08-06T07:26:27Z</time>
      </trkpt>
      <trkpt lat="45.67142" lon="4.67695">
        <ele>401.2</ele>
        <time>2025-08-06T07:26:28Z</time>
      </trkpt>
      <trkpt lat="45.6714" lon="4.67691">
        <ele>401.6</ele>
        <time>2025-08-06T07:26:29Z</time>
      </trkpt>
      <trkpt lat="45.67138" lon="4.67686">
        <ele>401.8</ele>
        <time>2025-08-06T07:26:30Z</time>
      </trkpt>
      <trkpt lat="45.67136" lon="4.6768">
        <ele>402.2</ele>
        <time>2025-08-06T07:26:31Z</time>
      </trkpt>
      <trkpt lat="45.67134" lon="4.67675">
        <ele>402.4</ele>
        <time>2025-08-06T07:26:32Z</time>
      </trkpt>
      <trkpt lat="45.67132" lon="4.6767">
        <ele>402.6</ele>
        <time>2025-08-06T07:26:33Z</time>
      </trkpt>
      <trkpt lat="45.6713" lon="4.67665">
        <ele>403</ele>
        <time>2025-08-06T07:26:34Z</time>
      </trkpt>
      <trkpt lat="45.67128" lon="4.6766">
        <ele>403.2</ele>
        <time>2025-08-06T07:26:35Z</time>
      </trkpt>
      <trkpt lat="45.67126" lon="4.67655">
        <ele>403.4</ele>
        <time>2025-08-06T07:26:36Z</time>
      </trkpt>
      <trkpt lat="45.67124" lon="4.67649">
        <ele>403.4</ele>
        <time>2025-08-06T07:26:37Z</time>
      </trkpt>
      <trkpt lat="45.67122" lon="4.67643">
        <ele>403.6</ele>
        <time>2025-08-06T07:26:38Z</time>
      </trkpt>
      <trkpt lat="45.67122" lon="4.67637">
        <ele>403.6</ele>
        <time>2025-08-06T07:26:39Z</time>
      </trkpt>
      <trkpt lat="45.67121" lon="4.6763">
        <ele>403.6</ele>
        <time>2025-08-06T07:26:40Z</time>
      </trkpt>
      <trkpt lat="45.67122" lon="4.67624">
        <ele>403.6</ele>
        <time>2025-08-06T07:26:41Z</time>
      </trkpt>
      <trkpt lat="45.67123" lon="4.67618">
        <ele>403.6</ele>
        <time>2025-08-06T07:26:42Z</time>
      </trkpt>
      <trkpt lat="45.67123" lon="4.67611">
        <ele>403.4</ele>
        <time>2025-08-06T07:26:43Z</time>
      </trkpt>
      <trkpt lat="45.67124" lon="4.67605">
        <ele>403.4</ele>
        <time>2025-08-06T07:26:44Z</time>
      </trkpt>
      <trkpt lat="45.67125" lon="4.67598">
        <ele>403.4</ele>
        <time>2025-08-06T07:26:45Z</time>
      </trkpt>
      <trkpt lat="45.67126" lon="4.67592">
        <ele>403.4</ele>
        <time>2025-08-06T07:26:46Z</time>
      </trkpt>
      <trkpt lat="45.67126" lon="4.67586">
        <ele>403.4</ele>
        <time>2025-08-06T07:26:47Z</time>
      </trkpt>
      <trkpt lat="45.67126" lon="4.6758">
        <ele>403.4</ele>
        <time>2025-08-06T07:26:48Z</time>
      </trkpt>
      <trkpt lat="45.67127" lon="4.67573">
        <ele>403.4</ele>
        <time>2025-08-06T07:26:49Z</time>
      </trkpt>
      <trkpt lat="45.67126" lon="4.67567">
        <ele>403.2</ele>
        <time>2025-08-06T07:26:50Z</time>
      </trkpt>
      <trkpt lat="45.67126" lon="4.6756">
        <ele>403.2</ele>
        <time>2025-08-06T07:26:51Z</time>
      </trkpt>
      <trkpt lat="45.67125" lon="4.67553">
        <ele>403</ele>
        <time>2025-08-06T07:26:52Z</time>
      </trkpt>
      <trkpt lat="45.67123" lon="4.67546">
        <ele>402.8</ele>
        <time>2025-08-06T07:26:53Z</time>
      </trkpt>
      <trkpt lat="45.67122" lon="4.6754">
        <ele>402.4</ele>
        <time>2025-08-06T07:26:54Z</time>
      </trkpt>
      <trkpt lat="45.67121" lon="4.67533">
        <ele>402.4</ele>
        <time>2025-08-06T07:26:55Z</time>
      </trkpt>
      <trkpt lat="45.67119" lon="4.67528">
        <ele>402.2</ele>
        <time>2025-08-06T07:26:56Z</time>
      </trkpt>
      <trkpt lat="45.67117" lon="4.67522">
        <ele>402.2</ele>
        <time>2025-08-06T07:26:57Z</time>
      </trkpt>
      <trkpt lat="45.67115" lon="4.67516">
        <ele>402.4</ele>
        <time>2025-08-06T07:26:58Z</time>
      </trkpt>
      <trkpt lat="45.67113" lon="4.6751">
        <ele>402.4</ele>
        <time>2025-08-06T07:26:59Z</time>
      </trkpt>
      <trkpt lat="45.67111" lon="4.67505">
        <ele>402.6</ele>
        <time>2025-08-06T07:27:00Z</time>
      </trkpt>
      <trkpt lat="45.67109" lon="4.67499">
        <ele>402.8</ele>
        <time>2025-08-06T07:27:01Z</time>
      </trkpt>
      <trkpt lat="45.67108" lon="4.67493">
        <ele>402.8</ele>
        <time>2025-08-06T07:27:02Z</time>
      </trkpt>
      <trkpt lat="45.67105" lon="4.67487">
        <ele>403</ele>
        <time>2025-08-06T07:27:03Z</time>
      </trkpt>
      <trkpt lat="45.67103" lon="4.67481">
        <ele>403.2</ele>
        <time>2025-08-06T07:27:04Z</time>
      </trkpt>
      <trkpt lat="45.67101" lon="4.67475">
        <ele>403.2</ele>
        <time>2025-08-06T07:27:05Z</time>
      </trkpt>
      <trkpt lat="45.67099" lon="4.67469">
        <ele>403.4</ele>
        <time>2025-08-06T07:27:06Z</time>
      </trkpt>
      <trkpt lat="45.67097" lon="4.67464">
        <ele>403.6</ele>
        <time>2025-08-06T07:27:07Z</time>
      </trkpt>
      <trkpt lat="45.67095" lon="4.67458">
        <ele>403.8</ele>
        <time>2025-08-06T07:27:08Z</time>
      </trkpt>
      <trkpt lat="45.67093" lon="4.67453">
        <ele>403.8</ele>
        <time>2025-08-06T07:27:09Z</time>
      </trkpt>
      <trkpt lat="45.67091" lon="4.67447">
        <ele>404</ele>
        <time>2025-08-06T07:27:10Z</time>
      </trkpt>
      <trkpt lat="45.67089" lon="4.67442">
        <ele>404.4</ele>
        <time>2025-08-06T07:27:11Z</time>
      </trkpt>
      <trkpt lat="45.67088" lon="4.67437">
        <ele>404.6</ele>
        <time>2025-08-06T07:27:12Z</time>
      </trkpt>
      <trkpt lat="45.67086" lon="4.67432">
        <ele>405</ele>
        <time>2025-08-06T07:27:13Z</time>
      </trkpt>
      <trkpt lat="45.67083" lon="4.67428">
        <ele>405.4</ele>
        <time>2025-08-06T07:27:14Z</time>
      </trkpt>
      <trkpt lat="45.67081" lon="4.67423">
        <ele>405.8</ele>
        <time>2025-08-06T07:27:15Z</time>
      </trkpt>
      <trkpt lat="45.67079" lon="4.67418">
        <ele>406.2</ele>
        <time>2025-08-06T07:27:16Z</time>
      </trkpt>
      <trkpt lat="45.67076" lon="4.67413">
        <ele>406.4</ele>
        <time>2025-08-06T07:27:17Z</time>
      </trkpt>
      <trkpt lat="45.67074" lon="4.67409">
        <ele>406.8</ele>
        <time>2025-08-06T07:27:18Z</time>
      </trkpt>
      <trkpt lat="45.67071" lon="4.67404">
        <ele>407</ele>
        <time>2025-08-06T07:27:19Z</time>
      </trkpt>
      <trkpt lat="45.67068" lon="4.67399">
        <ele>407.2</ele>
        <time>2025-08-06T07:27:20Z</time>
      </trkpt>
      <trkpt lat="45.67066" lon="4.67394">
        <ele>407.4</ele>
        <time>2025-08-06T07:27:21Z</time>
      </trkpt>
      <trkpt lat="45.67063" lon="4.67389">
        <ele>407.6</ele>
        <time>2025-08-06T07:27:22Z</time>
      </trkpt>
      <trkpt lat="45.6706" lon="4.67384">
        <ele>407.6</ele>
        <time>2025-08-06T07:27:23Z</time>
      </trkpt>
      <trkpt lat="45.67057" lon="4.67379">
        <ele>407.8</ele>
        <time>2025-08-06T07:27:24Z</time>
      </trkpt>
      <trkpt lat="45.67055" lon="4.67374">
        <ele>407.8</ele>
        <time>2025-08-06T07:27:25Z</time>
      </trkpt>
      <trkpt lat="45.67052" lon="4.67369">
        <ele>407.8</ele>
        <time>2025-08-06T07:27:26Z</time>
      </trkpt>
      <trkpt lat="45.6705" lon="4.67363">
        <ele>408</ele>
        <time>2025-08-06T07:27:27Z</time>
      </trkpt>
      <trkpt lat="45.67048" lon="4.67358">
        <ele>408</ele>
        <time>2025-08-06T07:27:28Z</time>
      </trkpt>
      <trkpt lat="45.67046" lon="4.67352">
        <ele>408</ele>
        <time>2025-08-06T07:27:29Z</time>
      </trkpt>
      <trkpt lat="45.67044" lon="4.67345">
        <ele>408</ele>
        <time>2025-08-06T07:27:30Z</time>
      </trkpt>
      <trkpt lat="45.67042" lon="4.67339">
        <ele>408.2</ele>
        <time>2025-08-06T07:27:31Z</time>
      </trkpt>
      <trkpt lat="45.67041" lon="4.67333">
        <ele>408.2</ele>
        <time>2025-08-06T07:27:32Z</time>
      </trkpt>
      <trkpt lat="45.67039" lon="4.67327">
        <ele>408.2</ele>
        <time>2025-08-06T07:27:33Z</time>
      </trkpt>
      <trkpt lat="45.67037" lon="4.6732">
        <ele>408.4</ele>
        <time>2025-08-06T07:27:34Z</time>
      </trkpt>
      <trkpt lat="45.67034" lon="4.67315">
        <ele>408.6</ele>
        <time>2025-08-06T07:27:35Z</time>
      </trkpt>
      <trkpt lat="45.67033" lon="4.67309">
        <ele>408.8</ele>
        <time>2025-08-06T07:27:36Z</time>
      </trkpt>
      <trkpt lat="45.67031" lon="4.67303">
        <ele>409</ele>
        <time>2025-08-06T07:27:37Z</time>
      </trkpt>
      <trkpt lat="45.6703" lon="4.67297">
        <ele>409.2</ele>
        <time>2025-08-06T07:27:38Z</time>
      </trkpt>
      <trkpt lat="45.67029" lon="4.67292">
        <ele>409.6</ele>
        <time>2025-08-06T07:27:39Z</time>
      </trkpt>
      <trkpt lat="45.67027" lon="4.67287">
        <ele>409.8</ele>
        <time>2025-08-06T07:27:40Z</time>
      </trkpt>
      <trkpt lat="45.67026" lon="4.67282">
        <ele>410</ele>
        <time>2025-08-06T07:27:41Z</time>
      </trkpt>
      <trkpt lat="45.67024" lon="4.67277">
        <ele>410.2</ele>
        <time>2025-08-06T07:27:42Z</time>
      </trkpt>
      <trkpt lat="45.67022" lon="4.67272">
        <ele>410.4</ele>
        <time>2025-08-06T07:27:43Z</time>
      </trkpt>
      <trkpt lat="45.67018" lon="4.67266">
        <ele>410.4</ele>
        <time>2025-08-06T07:27:44Z</time>
      </trkpt>
      <trkpt lat="45.67015" lon="4.6726">
        <ele>410.2</ele>
        <time>2025-08-06T07:27:45Z</time>
      </trkpt>
      <trkpt lat="45.67011" lon="4.67255">
        <ele>410</ele>
        <time>2025-08-06T07:27:46Z</time>
      </trkpt>
      <trkpt lat="45.67008" lon="4.6725">
        <ele>409.8</ele>
        <time>2025-08-06T07:27:47Z</time>
      </trkpt>
      <trkpt lat="45.67005" lon="4.67244">
        <ele>409.4</ele>
        <time>2025-08-06T07:27:48Z</time>
      </trkpt>
      <trkpt lat="45.67002" lon="4.67239">
        <ele>409.2</ele>
        <time>2025-08-06T07:27:49Z</time>
      </trkpt>
      <trkpt lat="45.66998" lon="4.67234">
        <ele>409.2</ele>
        <time>2025-08-06T07:27:50Z</time>
      </trkpt>
      <trkpt lat="45.66995" lon="4.67229">
        <ele>409</ele>
        <time>2025-08-06T07:27:51Z</time>
      </trkpt>
      <trkpt lat="45.66993" lon="4.67222">
        <ele>408.8</ele>
        <time>2025-08-06T07:27:52Z</time>
      </trkpt>
      <trkpt lat="45.6699" lon="4.67215">
        <ele>408.4</ele>
        <time>2025-08-06T07:27:53Z</time>
      </trkpt>
      <trkpt lat="45.66988" lon="4.67207">
        <ele>408</ele>
        <time>2025-08-06T07:27:54Z</time>
      </trkpt>
      <trkpt lat="45.66986" lon="4.67199">
        <ele>407.8</ele>
        <time>2025-08-06T07:27:55Z</time>
      </trkpt>
      <trkpt lat="45.66985" lon="4.67191">
        <ele>407.4</ele>
        <time>2025-08-06T07:27:56Z</time>
      </trkpt>
      <trkpt lat="45.66983" lon="4.67183">
        <ele>407.2</ele>
        <time>2025-08-06T07:27:57Z</time>
      </trkpt>
      <trkpt lat="45.66981" lon="4.67176">
        <ele>407.2</ele>
        <time>2025-08-06T07:27:58Z</time>
      </trkpt>
      <trkpt lat="45.66979" lon="4.67169">
        <ele>407.2</ele>
        <time>2025-08-06T07:27:59Z</time>
      </trkpt>
      <trkpt lat="45.66977" lon="4.67162">
        <ele>407.4</ele>
        <time>2025-08-06T07:28:00Z</time>
      </trkpt>
      <trkpt lat="45.66975" lon="4.67156">
        <ele>407.4</ele>
        <time>2025-08-06T07:28:01Z</time>
      </trkpt>
      <trkpt lat="45.66974" lon="4.6715">
        <ele>407.6</ele>
        <time>2025-08-06T07:28:02Z</time>
      </trkpt>
      <trkpt lat="45.66972" lon="4.67143">
        <ele>407.8</ele>
        <time>2025-08-06T07:28:03Z</time>
      </trkpt>
      <trkpt lat="45.6697" lon="4.67137">
        <ele>407.8</ele>
        <time>2025-08-06T07:28:04Z</time>
      </trkpt>
      <trkpt lat="45.66968" lon="4.67131">
        <ele>407.8</ele>
        <time>2025-08-06T07:28:05Z</time>
      </trkpt>
      <trkpt lat="45.66964" lon="4.67126">
        <ele>407.8</ele>
        <time>2025-08-06T07:28:06Z</time>
      </trkpt>
      <trkpt lat="45.66961" lon="4.67123">
        <ele>408</ele>
        <time>2025-08-06T07:28:07Z</time>
      </trkpt>
      <trkpt lat="45.66957" lon="4.67123">
        <ele>408.2</ele>
        <time>2025-08-06T07:28:08Z</time>
      </trkpt>
      <trkpt lat="45.66954" lon="4.67123">
        <ele>408.6</ele>
        <time>2025-08-06T07:28:09Z</time>
      </trkpt>
      <trkpt lat="45.6695" lon="4.67122">
        <ele>409</ele>
        <time>2025-08-06T07:28:10Z</time>
      </trkpt>
      <trkpt lat="45.66947" lon="4.6712">
        <ele>409.4</ele>
        <time>2025-08-06T07:28:11Z</time>
      </trkpt>
      <trkpt lat="45.66943" lon="4.67116">
        <ele>409.6</ele>
        <time>2025-08-06T07:28:12Z</time>
      </trkpt>
      <trkpt lat="45.6694" lon="4.67112">
        <ele>409.8</ele>
        <time>2025-08-06T07:28:13Z</time>
      </trkpt>
      <trkpt lat="45.66937" lon="4.67107">
        <ele>409.8</ele>
        <time>2025-08-06T07:28:14Z</time>
      </trkpt>
      <trkpt lat="45.66935" lon="4.67103">
        <ele>410</ele>
        <time>2025-08-06T07:28:15Z</time>
      </trkpt>
      <trkpt lat="45.66933" lon="4.67097">
        <ele>410.4</ele>
        <time>2025-08-06T07:28:16Z</time>
      </trkpt>
      <trkpt lat="45.66933" lon="4.67092">
        <ele>410.8</ele>
        <time>2025-08-06T07:28:17Z</time>
      </trkpt>
      <trkpt lat="45.66932" lon="4.67087">
        <ele>411.2</ele>
        <time>2025-08-06T07:28:18Z</time>
      </trkpt>
      <trkpt lat="45.66931" lon="4.67082">
        <ele>411.6</ele>
        <time>2025-08-06T07:28:19Z</time>
      </trkpt>
      <trkpt lat="45.6693" lon="4.67077">
        <ele>412</ele>
        <time>2025-08-06T07:28:20Z</time>
      </trkpt>
      <trkpt lat="45.66929" lon="4.67073">
        <ele>412.4</ele>
        <time>2025-08-06T07:28:21Z</time>
      </trkpt>
      <trkpt lat="45.66926" lon="4.67069">
        <ele>412.6</ele>
        <time>2025-08-06T07:28:22Z</time>
      </trkpt>
      <trkpt lat="45.66923" lon="4.67065">
        <ele>413</ele>
        <time>2025-08-06T07:28:23Z</time>
      </trkpt>
      <trkpt lat="45.66921" lon="4.67061">
        <ele>413.2</ele>
        <time>2025-08-06T07:28:24Z</time>
      </trkpt>
      <trkpt lat="45.66918" lon="4.67057">
        <ele>413.4</ele>
        <time>2025-08-06T07:28:25Z</time>
      </trkpt>
      <trkpt lat="45.66916" lon="4.67052">
        <ele>413.6</ele>
        <time>2025-08-06T07:28:26Z</time>
      </trkpt>
      <trkpt lat="45.66914" lon="4.67047">
        <ele>413.6</ele>
        <time>2025-08-06T07:28:27Z</time>
      </trkpt>
      <trkpt lat="45.66911" lon="4.67042">
        <ele>413.6</ele>
        <time>2025-08-06T07:28:28Z</time>
      </trkpt>
      <trkpt lat="45.66909" lon="4.67037">
        <ele>413.6</ele>
        <time>2025-08-06T07:28:29Z</time>
      </trkpt>
      <trkpt lat="45.66907" lon="4.67032">
        <ele>413.6</ele>
        <time>2025-08-06T07:28:30Z</time>
      </trkpt>
      <trkpt lat="45.66905" lon="4.67027">
        <ele>413.8</ele>
        <time>2025-08-06T07:28:31Z</time>
      </trkpt>
      <trkpt lat="45.66903" lon="4.67023">
        <ele>413.8</ele>
        <time>2025-08-06T07:28:32Z</time>
      </trkpt>
      <trkpt lat="45.66902" lon="4.6702">
        <ele>414</ele>
        <time>2025-08-06T07:28:33Z</time>
      </trkpt>
      <trkpt lat="45.669" lon="4.67016">
        <ele>414.2</ele>
        <time>2025-08-06T07:28:34Z</time>
      </trkpt>
      <trkpt lat="45.66898" lon="4.67012">
        <ele>414.2</ele>
        <time>2025-08-06T07:28:35Z</time>
      </trkpt>
      <trkpt lat="45.66896" lon="4.67008">
        <ele>414.4</ele>
        <time>2025-08-06T07:28:36Z</time>
      </trkpt>
      <trkpt lat="45.66894" lon="4.67003">
        <ele>414.4</ele>
        <time>2025-08-06T07:28:37Z</time>
      </trkpt>
      <trkpt lat="45.66891" lon="4.66998">
        <ele>414.4</ele>
        <time>2025-08-06T07:28:38Z</time>
      </trkpt>
      <trkpt lat="45.66889" lon="4.66993">
        <ele>414.4</ele>
        <time>2025-08-06T07:28:39Z</time>
      </trkpt>
      <trkpt lat="45.66887" lon="4.66987">
        <ele>414.4</ele>
        <time>2025-08-06T07:28:40Z</time>
      </trkpt>
      <trkpt lat="45.66885" lon="4.66983">
        <ele>414.6</ele>
        <time>2025-08-06T07:28:41Z</time>
      </trkpt>
      <trkpt lat="45.66883" lon="4.66978">
        <ele>414.8</ele>
        <time>2025-08-06T07:28:42Z</time>
      </trkpt>
      <trkpt lat="45.66881" lon="4.66973">
        <ele>415</ele>
        <time>2025-08-06T07:28:43Z</time>
      </trkpt>
      <trkpt lat="45.66879" lon="4.66968">
        <ele>415.2</ele>
        <time>2025-08-06T07:28:44Z</time>
      </trkpt>
      <trkpt lat="45.66877" lon="4.66964">
        <ele>415.4</ele>
        <time>2025-08-06T07:28:45Z</time>
      </trkpt>
      <trkpt lat="45.66875" lon="4.66959">
        <ele>415.6</ele>
        <time>2025-08-06T07:28:46Z</time>
      </trkpt>
      <trkpt lat="45.66873" lon="4.66956">
        <ele>415.8</ele>
        <time>2025-08-06T07:28:47Z</time>
      </trkpt>
      <trkpt lat="45.6687" lon="4.66953">
        <ele>416</ele>
        <time>2025-08-06T07:28:48Z</time>
      </trkpt>
      <trkpt lat="45.66868" lon="4.66949">
        <ele>416.4</ele>
        <time>2025-08-06T07:28:49Z</time>
      </trkpt>
      <trkpt lat="45.66866" lon="4.66945">
        <ele>416.8</ele>
        <time>2025-08-06T07:28:50Z</time>
      </trkpt>
      <trkpt lat="45.66863" lon="4.66941">
        <ele>417</ele>
        <time>2025-08-06T07:28:51Z</time>
      </trkpt>
      <trkpt lat="45.66861" lon="4.66937">
        <ele>417</ele>
        <time>2025-08-06T07:28:52Z</time>
      </trkpt>
      <trkpt lat="45.66859" lon="4.66934">
        <ele>417.2</ele>
        <time>2025-08-06T07:28:53Z</time>
      </trkpt>
      <trkpt lat="45.66857" lon="4.66931">
        <ele>417.2</ele>
        <time>2025-08-06T07:28:54Z</time>
      </trkpt>
      <trkpt lat="45.66855" lon="4.66928">
        <ele>417.2</ele>
        <time>2025-08-06T07:28:55Z</time>
      </trkpt>
      <trkpt lat="45.66853" lon="4.66925">
        <ele>417.4</ele>
        <time>2025-08-06T07:28:56Z</time>
      </trkpt>
      <trkpt lat="45.66851" lon="4.66921">
        <ele>417.6</ele>
        <time>2025-08-06T07:28:57Z</time>
      </trkpt>
      <trkpt lat="45.66849" lon="4.66918">
        <ele>417.6</ele>
        <time>2025-08-06T07:28:58Z</time>
      </trkpt>
      <trkpt lat="45.66848" lon="4.66915">
        <ele>417.8</ele>
        <time>2025-08-06T07:28:59Z</time>
      </trkpt>
      <trkpt lat="45.66846" lon="4.66911">
        <ele>418</ele>
        <time>2025-08-06T07:29:00Z</time>
      </trkpt>
      <trkpt lat="45.66845" lon="4.66908">
        <ele>418.2</ele>
        <time>2025-08-06T07:29:01Z</time>
      </trkpt>
      <trkpt lat="45.66844" lon="4.66904">
        <ele>418.6</ele>
        <time>2025-08-06T07:29:02Z</time>
      </trkpt>
      <trkpt lat="45.66844" lon="4.66901">
        <ele>418.8</ele>
        <time>2025-08-06T07:29:03Z</time>
      </trkpt>
      <trkpt lat="45.66843" lon="4.66897">
        <ele>419</ele>
        <time>2025-08-06T07:29:04Z</time>
      </trkpt>
      <trkpt lat="45.66841" lon="4.66894">
        <ele>419.2</ele>
        <time>2025-08-06T07:29:05Z</time>
      </trkpt>
      <trkpt lat="45.66839" lon="4.6689">
        <ele>419.2</ele>
        <time>2025-08-06T07:29:06Z</time>
      </trkpt>
      <trkpt lat="45.66837" lon="4.66886">
        <ele>419.2</ele>
        <time>2025-08-06T07:29:07Z</time>
      </trkpt>
      <trkpt lat="45.66835" lon="4.66882">
        <ele>419.2</ele>
        <time>2025-08-06T07:29:08Z</time>
      </trkpt>
      <trkpt lat="45.66833" lon="4.66878">
        <ele>419.2</ele>
        <time>2025-08-06T07:29:09Z</time>
      </trkpt>
      <trkpt lat="45.66831" lon="4.66874">
        <ele>419.2</ele>
        <time>2025-08-06T07:29:10Z</time>
      </trkpt>
      <trkpt lat="45.66829" lon="4.6687">
        <ele>419.2</ele>
        <time>2025-08-06T07:29:11Z</time>
      </trkpt>
      <trkpt lat="45.66826" lon="4.66866">
        <ele>419.2</ele>
        <time>2025-08-06T07:29:12Z</time>
      </trkpt>
      <trkpt lat="45.66824" lon="4.66863">
        <ele>419.2</ele>
        <time>2025-08-06T07:29:13Z</time>
      </trkpt>
      <trkpt lat="45.66821" lon="4.66859">
        <ele>419.4</ele>
        <time>2025-08-06T07:29:14Z</time>
      </trkpt>
      <trkpt lat="45.6682" lon="4.66857">
        <ele>419.6</ele>
        <time>2025-08-06T07:29:15Z</time>
      </trkpt>
      <trkpt lat="45.66818" lon="4.66855">
        <ele>419.8</ele>
        <time>2025-08-06T07:29:16Z</time>
      </trkpt>
      <trkpt lat="45.66816" lon="4.66853">
        <ele>420</ele>
        <time>2025-08-06T07:29:17Z</time>
      </trkpt>
      <trkpt lat="45.66814" lon="4.66851">
        <ele>420.2</ele>
        <time>2025-08-06T07:29:18Z</time>
      </trkpt>
      <trkpt lat="45.66813" lon="4.66849">
        <ele>420.4</ele>
        <time>2025-08-06T07:29:19Z</time>
      </trkpt>
      <trkpt lat="45.66812" lon="4.66847">
        <ele>420.6</ele>
        <time>2025-08-06T07:29:20Z</time>
      </trkpt>
      <trkpt lat="45.66811" lon="4.66846">
        <ele>420.8</ele>
        <time>2025-08-06T07:29:21Z</time>
      </trkpt>
      <trkpt lat="45.6681" lon="4.66846">
        <ele>421</ele>
        <time>2025-08-06T07:29:22Z</time>
      </trkpt>
      <trkpt lat="45.6681" lon="4.66846">
        <ele>421.2</ele>
        <time>2025-08-06T07:29:23Z</time>
      </trkpt>
      <trkpt lat="45.66805" lon="4.6684">
        <ele>421.8</ele>
        <time>2025-08-06T07:29:36Z</time>
      </trkpt>
      <trkpt lat="45.66804" lon="4.66839">
        <ele>421.8</ele>
        <time>2025-08-06T07:29:37Z</time>
      </trkpt>
      <trkpt lat="45.66803" lon="4.66838">
        <ele>421.8</ele>
        <time>2025-08-06T07:29:38Z</time>
      </trkpt>
      <trkpt lat="45.66803" lon="4.66837">
        <ele>421.8</ele>
        <time>2025-08-06T07:29:39Z</time>
      </trkpt>
      <trkpt lat="45.66802" lon="4.66835">
        <ele>421.8</ele>
        <time>2025-08-06T07:29:41Z</time>
      </trkpt>
      <trkpt lat="45.66801" lon="4.66834">
        <ele>422</ele>
        <time>2025-08-06T07:29:42Z</time>
      </trkpt>
      <trkpt lat="45.668" lon="4.66833">
        <ele>422</ele>
        <time>2025-08-06T07:29:43Z</time>
      </trkpt>
      <trkpt lat="45.66799" lon="4.66832">
        <ele>422</ele>
        <time>2025-08-06T07:29:44Z</time>
      </trkpt>
      <trkpt lat="45.66798" lon="4.66831">
        <ele>422</ele>
        <time>2025-08-06T07:29:45Z</time>
      </trkpt>
      <trkpt lat="45.66797" lon="4.6683">
        <ele>422</ele>
        <time>2025-08-06T07:29:46Z</time>
      </trkpt>
      <trkpt lat="45.66797" lon="4.66829">
        <ele>422</ele>
        <time>2025-08-06T07:29:47Z</time>
      </trkpt>
      <trkpt lat="45.66796" lon="4.66828">
        <ele>422</ele>
        <time>2025-08-06T07:29:48Z</time>
      </trkpt>
      <trkpt lat="45.66795" lon="4.66827">
        <ele>422.2</ele>
        <time>2025-08-06T07:29:49Z</time>
      </trkpt>
      <trkpt lat="45.66794" lon="4.66826">
        <ele>422.2</ele>
        <time>2025-08-06T07:29:50Z</time>
      </trkpt>
      <trkpt lat="45.66793" lon="4.66825">
        <ele>422.2</ele>
        <time>2025-08-06T07:29:51Z</time>
      </trkpt>
      <trkpt lat="45.66793" lon="4.66824">
        <ele>422.4</ele>
        <time>2025-08-06T07:29:52Z</time>
      </trkpt>
      <trkpt lat="45.66792" lon="4.66824">
        <ele>422.4</ele>
        <time>2025-08-06T07:29:53Z</time>
      </trkpt>
      <trkpt lat="45.66792" lon="4.66824">
        <ele>422.4</ele>
        <time>2025-08-06T07:29:54Z</time>
      </trkpt>
      <trkpt lat="45.66792" lon="4.66822">
        <ele>422.4</ele>
        <time>2025-08-06T07:29:55Z</time>
      </trkpt>
      <trkpt lat="45.66791" lon="4.66821">
        <ele>422.4</ele>
        <time>2025-08-06T07:29:56Z</time>
      </trkpt>
      <trkpt lat="45.66789" lon="4.66819">
        <ele>422.4</ele>
        <time>2025-08-06T07:29:57Z</time>
      </trkpt>
      <trkpt lat="45.66788" lon="4.66816">
        <ele>422.4</ele>
        <time>2025-08-06T07:29:58Z</time>
      </trkpt>
      <trkpt lat="45.66786" lon="4.66814">
        <ele>422.4</ele>
        <time>2025-08-06T07:29:59Z</time>
      </trkpt>
      <trkpt lat="45.66785" lon="4.66812">
        <ele>422.4</ele>
        <time>2025-08-06T07:30:00Z</time>
      </trkpt>
      <trkpt lat="45.66783" lon="4.66809">
        <ele>422.6</ele>
        <time>2025-08-06T07:30:01Z</time>
      </trkpt>
      <trkpt lat="45.66782" lon="4.66807">
        <ele>422.6</ele>
        <time>2025-08-06T07:30:02Z</time>
      </trkpt>
      <trkpt lat="45.6678" lon="4.66805">
        <ele>422.8</ele>
        <time>2025-08-06T07:30:03Z</time>
      </trkpt>
      <trkpt lat="45.66778" lon="4.66803">
        <ele>422.8</ele>
        <time>2025-08-06T07:30:04Z</time>
      </trkpt>
      <trkpt lat="45.66776" lon="4.66801">
        <ele>423</ele>
        <time>2025-08-06T07:30:05Z</time>
      </trkpt>
      <trkpt lat="45.66774" lon="4.66799">
        <ele>423.2</ele>
        <time>2025-08-06T07:30:06Z</time>
      </trkpt>
      <trkpt lat="45.66773" lon="4.66797">
        <ele>423.4</ele>
        <time>2025-08-06T07:30:07Z</time>
      </trkpt>
      <trkpt lat="45.66771" lon="4.66795">
        <ele>423.6</ele>
        <time>2025-08-06T07:30:08Z</time>
      </trkpt>
      <trkpt lat="45.66769" lon="4.66793">
        <ele>423.8</ele>
        <time>2025-08-06T07:30:09Z</time>
      </trkpt>
      <trkpt lat="45.66768" lon="4.66791">
        <ele>424</ele>
        <time>2025-08-06T07:30:10Z</time>
      </trkpt>
      <trkpt lat="45.66767" lon="4.66789">
        <ele>424</ele>
        <time>2025-08-06T07:30:11Z</time>
      </trkpt>
      <trkpt lat="45.66765" lon="4.66787">
        <ele>424.2</ele>
        <time>2025-08-06T07:30:12Z</time>
      </trkpt>
      <trkpt lat="45.66764" lon="4.66786">
        <ele>424.4</ele>
        <time>2025-08-06T07:30:13Z</time>
      </trkpt>
      <trkpt lat="45.66763" lon="4.66784">
        <ele>424.8</ele>
        <time>2025-08-06T07:30:14Z</time>
      </trkpt>
      <trkpt lat="45.66762" lon="4.66783">
        <ele>425</ele>
        <time>2025-08-06T07:30:15Z</time>
      </trkpt>
      <trkpt lat="45.66761" lon="4.66782">
        <ele>425.2</ele>
        <time>2025-08-06T07:30:16Z</time>
      </trkpt>
      <trkpt lat="45.6676" lon="4.6678">
        <ele>425.6</ele>
        <time>2025-08-06T07:30:17Z</time>
      </trkpt>
      <trkpt lat="45.66759" lon="4.6678">
        <ele>425.8</ele>
        <time>2025-08-06T07:30:18Z</time>
      </trkpt>
      <trkpt lat="45.66759" lon="4.6678">
        <ele>426</ele>
        <time>2025-08-06T07:30:19Z</time>
      </trkpt>
      <trkpt lat="45.66756" lon="4.66776">
        <ele>426.6</ele>
        <time>2025-08-06T07:30:24Z</time>
      </trkpt>
      <trkpt lat="45.66755" lon="4.66774">
        <ele>426.6</ele>
        <time>2025-08-06T07:30:25Z</time>
      </trkpt>
      <trkpt lat="45.66754" lon="4.66772">
        <ele>426.8</ele>
        <time>2025-08-06T07:30:26Z</time>
      </trkpt>
      <trkpt lat="45.66753" lon="4.66769">
        <ele>426.8</ele>
        <time>2025-08-06T07:30:27Z</time>
      </trkpt>
      <trkpt lat="45.66752" lon="4.66767">
        <ele>427</ele>
        <time>2025-08-06T07:30:28Z</time>
      </trkpt>
      <trkpt lat="45.6675" lon="4.66765">
        <ele>427.4</ele>
        <time>2025-08-06T07:30:29Z</time>
      </trkpt>
      <trkpt lat="45.66749" lon="4.66764">
        <ele>427.8</ele>
        <time>2025-08-06T07:30:30Z</time>
      </trkpt>
      <trkpt lat="45.66747" lon="4.66763">
        <ele>428.2</ele>
        <time>2025-08-06T07:30:31Z</time>
      </trkpt>
      <trkpt lat="45.66746" lon="4.66761">
        <ele>428.6</ele>
        <time>2025-08-06T07:30:32Z</time>
      </trkpt>
      <trkpt lat="45.66744" lon="4.66759">
        <ele>429</ele>
        <time>2025-08-06T07:30:33Z</time>
      </trkpt>
      <trkpt lat="45.66743" lon="4.66758">
        <ele>429.4</ele>
        <time>2025-08-06T07:30:34Z</time>
      </trkpt>
      <trkpt lat="45.66741" lon="4.66756">
        <ele>429.8</ele>
        <time>2025-08-06T07:30:35Z</time>
      </trkpt>
      <trkpt lat="45.6674" lon="4.66755">
        <ele>430</ele>
        <time>2025-08-06T07:30:36Z</time>
      </trkpt>
      <trkpt lat="45.66739" lon="4.66753">
        <ele>430.4</ele>
        <time>2025-08-06T07:30:37Z</time>
      </trkpt>
      <trkpt lat="45.66738" lon="4.66751">
        <ele>430.6</ele>
        <time>2025-08-06T07:30:38Z</time>
      </trkpt>
      <trkpt lat="45.66737" lon="4.6675">
        <ele>431</ele>
        <time>2025-08-06T07:30:39Z</time>
      </trkpt>
      <trkpt lat="45.66736" lon="4.6675">
        <ele>431.2</ele>
        <time>2025-08-06T07:30:40Z</time>
      </trkpt>
      <trkpt lat="45.66735" lon="4.66751">
        <ele>431.6</ele>
        <time>2025-08-06T07:30:41Z</time>
      </trkpt>
      <trkpt lat="45.66733" lon="4.66753">
        <ele>431.8</ele>
        <time>2025-08-06T07:30:42Z</time>
      </trkpt>
      <trkpt lat="45.66733" lon="4.66755">
        <ele>432</ele>
        <time>2025-08-06T07:30:43Z</time>
      </trkpt>
      <trkpt lat="45.66733" lon="4.66757">
        <ele>432.2</ele>
        <time>2025-08-06T07:30:44Z</time>
      </trkpt>
      <trkpt lat="45.66733" lon="4.66759">
        <ele>432.4</ele>
        <time>2025-08-06T07:30:45Z</time>
      </trkpt>
      <trkpt lat="45.66733" lon="4.6676">
        <ele>432.4</ele>
        <time>2025-08-06T07:30:46Z</time>
      </trkpt>
      <trkpt lat="45.66733" lon="4.6676">
        <ele>432.6</ele>
        <time>2025-08-06T07:30:47Z</time>
      </trkpt>
      <trkpt lat="45.66733" lon="4.6676">
        <ele>432.6</ele>
        <time>2025-08-06T07:30:48Z</time>
      </trkpt>
      <trkpt lat="45.66733" lon="4.66764">
        <ele>432.8</ele>
        <time>2025-08-06T07:31:02Z</time>
      </trkpt>
      <trkpt lat="45.66732" lon="4.66767">
        <ele>432.8</ele>
        <time>2025-08-06T07:31:03Z</time>
      </trkpt>
      <trkpt lat="45.66731" lon="4.6677">
        <ele>432.8</ele>
        <time>2025-08-06T07:31:04Z</time>
      </trkpt>
      <trkpt lat="45.66731" lon="4.66773">
        <ele>432.8</ele>
        <time>2025-08-06T07:31:05Z</time>
      </trkpt>
      <trkpt lat="45.6673" lon="4.66777">
        <ele>432.8</ele>
        <time>2025-08-06T07:31:06Z</time>
      </trkpt>
      <trkpt lat="45.6673" lon="4.66781">
        <ele>432.8</ele>
        <time>2025-08-06T07:31:07Z</time>
      </trkpt>
      <trkpt lat="45.66729" lon="4.66785">
        <ele>432.8</ele>
        <time>2025-08-06T07:31:08Z</time>
      </trkpt>
      <trkpt lat="45.66729" lon="4.66788">
        <ele>432.8</ele>
        <time>2025-08-06T07:31:09Z</time>
      </trkpt>
      <trkpt lat="45.66728" lon="4.66791">
        <ele>433</ele>
        <time>2025-08-06T07:31:10Z</time>
      </trkpt>
      <trkpt lat="45.66727" lon="4.66795">
        <ele>433</ele>
        <time>2025-08-06T07:31:11Z</time>
      </trkpt>
      <trkpt lat="45.66726" lon="4.66799">
        <ele>433.2</ele>
        <time>2025-08-06T07:31:12Z</time>
      </trkpt>
      <trkpt lat="45.66725" lon="4.66803">
        <ele>433.2</ele>
        <time>2025-08-06T07:31:13Z</time>
      </trkpt>
      <trkpt lat="45.66723" lon="4.66807">
        <ele>433</ele>
        <time>2025-08-06T07:31:14Z</time>
      </trkpt>
      <trkpt lat="45.66722" lon="4.66811">
        <ele>433</ele>
        <time>2025-08-06T07:31:15Z</time>
      </trkpt>
      <trkpt lat="45.66721" lon="4.66815">
        <ele>433</ele>
        <time>2025-08-06T07:31:16Z</time>
      </trkpt>
      <trkpt lat="45.66719" lon="4.6682">
        <ele>433</ele>
        <time>2025-08-06T07:31:17Z</time>
      </trkpt>
      <trkpt lat="45.66718" lon="4.66824">
        <ele>433</ele>
        <time>2025-08-06T07:31:18Z</time>
      </trkpt>
      <trkpt lat="45.66715" lon="4.66829">
        <ele>433</ele>
        <time>2025-08-06T07:31:19Z</time>
      </trkpt>
      <trkpt lat="45.66712" lon="4.66833">
        <ele>433</ele>
        <time>2025-08-06T07:31:20Z</time>
      </trkpt>
      <trkpt lat="45.66709" lon="4.66837">
        <ele>433</ele>
        <time>2025-08-06T07:31:21Z</time>
      </trkpt>
      <trkpt lat="45.66706" lon="4.66841">
        <ele>433</ele>
        <time>2025-08-06T07:31:22Z</time>
      </trkpt>
      <trkpt lat="45.66702" lon="4.66844">
        <ele>432.8</ele>
        <time>2025-08-06T07:31:23Z</time>
      </trkpt>
      <trkpt lat="45.66699" lon="4.66847">
        <ele>432.8</ele>
        <time>2025-08-06T07:31:24Z</time>
      </trkpt>
      <trkpt lat="45.66695" lon="4.66851">
        <ele>432.6</ele>
        <time>2025-08-06T07:31:25Z</time>
      </trkpt>
      <trkpt lat="45.66691" lon="4.66854">
        <ele>432.4</ele>
        <time>2025-08-06T07:31:26Z</time>
      </trkpt>
      <trkpt lat="45.66688" lon="4.66857">
        <ele>432.2</ele>
        <time>2025-08-06T07:31:27Z</time>
      </trkpt>
      <trkpt lat="45.66684" lon="4.66859">
        <ele>432</ele>
        <time>2025-08-06T07:31:28Z</time>
      </trkpt>
      <trkpt lat="45.6668" lon="4.66859">
        <ele>432</ele>
        <time>2025-08-06T07:31:29Z</time>
      </trkpt>
      <trkpt lat="45.66676" lon="4.66858">
        <ele>432</ele>
        <time>2025-08-06T07:31:30Z</time>
      </trkpt>
      <trkpt lat="45.66673" lon="4.66855">
        <ele>432</ele>
        <time>2025-08-06T07:31:31Z</time>
      </trkpt>
      <trkpt lat="45.6667" lon="4.66851">
        <ele>432.2</ele>
        <time>2025-08-06T07:31:32Z</time>
      </trkpt>
      <trkpt lat="45.66668" lon="4.66847">
        <ele>432.4</ele>
        <time>2025-08-06T07:31:33Z</time>
      </trkpt>
      <trkpt lat="45.66665" lon="4.66843">
        <ele>432.6</ele>
        <time>2025-08-06T07:31:34Z</time>
      </trkpt>
      <trkpt lat="45.66663" lon="4.66838">
        <ele>432.8</ele>
        <time>2025-08-06T07:31:35Z</time>
      </trkpt>
      <trkpt lat="45.66661" lon="4.66834">
        <ele>433</ele>
        <time>2025-08-06T07:31:36Z</time>
      </trkpt>
      <trkpt lat="45.66659" lon="4.6683">
        <ele>433.2</ele>
        <time>2025-08-06T07:31:37Z</time>
      </trkpt>
      <trkpt lat="45.66657" lon="4.66825">
        <ele>433.4</ele>
        <time>2025-08-06T07:31:38Z</time>
      </trkpt>
      <trkpt lat="45.66655" lon="4.6682">
        <ele>433.4</ele>
        <time>2025-08-06T07:31:39Z</time>
      </trkpt>
      <trkpt lat="45.66654" lon="4.66815">
        <ele>433.8</ele>
        <time>2025-08-06T07:31:40Z</time>
      </trkpt>
      <trkpt lat="45.66652" lon="4.66811">
        <ele>434</ele>
        <time>2025-08-06T07:31:41Z</time>
      </trkpt>
      <trkpt lat="45.66651" lon="4.66806">
        <ele>434.2</ele>
        <time>2025-08-06T07:31:42Z</time>
      </trkpt>
      <trkpt lat="45.6665" lon="4.66801">
        <ele>434.6</ele>
        <time>2025-08-06T07:31:43Z</time>
      </trkpt>
      <trkpt lat="45.6665" lon="4.66795">
        <ele>434.8</ele>
        <time>2025-08-06T07:31:44Z</time>
      </trkpt>
      <trkpt lat="45.6665" lon="4.6679">
        <ele>435</ele>
        <time>2025-08-06T07:31:45Z</time>
      </trkpt>
      <trkpt lat="45.6665" lon="4.66785">
        <ele>435.2</ele>
        <time>2025-08-06T07:31:46Z</time>
      </trkpt>
      <trkpt lat="45.66649" lon="4.66779">
        <ele>435.4</ele>
        <time>2025-08-06T07:31:47Z</time>
      </trkpt>
      <trkpt lat="45.66648" lon="4.66774">
        <ele>435.4</ele>
        <time>2025-08-06T07:31:48Z</time>
      </trkpt>
      <trkpt lat="45.66647" lon="4.66768">
        <ele>435.6</ele>
        <time>2025-08-06T07:31:49Z</time>
      </trkpt>
      <trkpt lat="45.66646" lon="4.66762">
        <ele>435.6</ele>
        <time>2025-08-06T07:31:50Z</time>
      </trkpt>
      <trkpt lat="45.66645" lon="4.66757">
        <ele>435.6</ele>
        <time>2025-08-06T07:31:51Z</time>
      </trkpt>
      <trkpt lat="45.66643" lon="4.66751">
        <ele>435.8</ele>
        <time>2025-08-06T07:31:52Z</time>
      </trkpt>
      <trkpt lat="45.66641" lon="4.66745">
        <ele>435.8</ele>
        <time>2025-08-06T07:31:53Z</time>
      </trkpt>
      <trkpt lat="45.66639" lon="4.66739">
        <ele>435.8</ele>
        <time>2025-08-06T07:31:54Z</time>
      </trkpt>
      <trkpt lat="45.66637" lon="4.66733">
        <ele>436</ele>
        <time>2025-08-06T07:31:55Z</time>
      </trkpt>
      <trkpt lat="45.66635" lon="4.66727">
        <ele>436</ele>
        <time>2025-08-06T07:31:56Z</time>
      </trkpt>
      <trkpt lat="45.66632" lon="4.66721">
        <ele>436</ele>
        <time>2025-08-06T07:31:57Z</time>
      </trkpt>
      <trkpt lat="45.6663" lon="4.66715">
        <ele>436.2</ele>
        <time>2025-08-06T07:31:58Z</time>
      </trkpt>
      <trkpt lat="45.66628" lon="4.6671">
        <ele>436.2</ele>
        <time>2025-08-06T07:31:59Z</time>
      </trkpt>
      <trkpt lat="45.66626" lon="4.66705">
        <ele>436.6</ele>
        <time>2025-08-06T07:32:00Z</time>
      </trkpt>
      <trkpt lat="45.66624" lon="4.66699">
        <ele>436.8</ele>
        <time>2025-08-06T07:32:01Z</time>
      </trkpt>
      <trkpt lat="45.66622" lon="4.66695">
        <ele>437</ele>
        <time>2025-08-06T07:32:02Z</time>
      </trkpt>
      <trkpt lat="45.6662" lon="4.6669">
        <ele>437.2</ele>
        <time>2025-08-06T07:32:03Z</time>
      </trkpt>
      <trkpt lat="45.66617" lon="4.66685">
        <ele>437.6</ele>
        <time>2025-08-06T07:32:04Z</time>
      </trkpt>
      <trkpt lat="45.66615" lon="4.66681">
        <ele>437.8</ele>
        <time>2025-08-06T07:32:05Z</time>
      </trkpt>
      <trkpt lat="45.66612" lon="4.66677">
        <ele>438.2</ele>
        <time>2025-08-06T07:32:06Z</time>
      </trkpt>
      <trkpt lat="45.6661" lon="4.66673">
        <ele>438.4</ele>
        <time>2025-08-06T07:32:07Z</time>
      </trkpt>
      <trkpt lat="45.66607" lon="4.6667">
        <ele>438.8</ele>
        <time>2025-08-06T07:32:08Z</time>
      </trkpt>
      <trkpt lat="45.66603" lon="4.66667">
        <ele>439.2</ele>
        <time>2025-08-06T07:32:09Z</time>
      </trkpt>
      <trkpt lat="45.666" lon="4.66664">
        <ele>439.8</ele>
        <time>2025-08-06T07:32:10Z</time>
      </trkpt>
      <trkpt lat="45.66597" lon="4.66661">
        <ele>440.2</ele>
        <time>2025-08-06T07:32:11Z</time>
      </trkpt>
      <trkpt lat="45.66594" lon="4.66658">
        <ele>440.6</ele>
        <time>2025-08-06T07:32:12Z</time>
      </trkpt>
      <trkpt lat="45.6659" lon="4.66655">
        <ele>440.8</ele>
        <time>2025-08-06T07:32:13Z</time>
      </trkpt>
      <trkpt lat="45.66587" lon="4.66652">
        <ele>441</ele>
        <time>2025-08-06T07:32:14Z</time>
      </trkpt>
      <trkpt lat="45.66583" lon="4.66649">
        <ele>441</ele>
        <time>2025-08-06T07:32:15Z</time>
      </trkpt>
      <trkpt lat="45.66579" lon="4.66646">
        <ele>441.2</ele>
        <time>2025-08-06T07:32:16Z</time>
      </trkpt>
      <trkpt lat="45.66575" lon="4.66643">
        <ele>441.2</ele>
        <time>2025-08-06T07:32:17Z</time>
      </trkpt>
      <trkpt lat="45.66572" lon="4.6664">
        <ele>441.2</ele>
        <time>2025-08-06T07:32:18Z</time>
      </trkpt>
      <trkpt lat="45.66568" lon="4.66637">
        <ele>441.4</ele>
        <time>2025-08-06T07:32:19Z</time>
      </trkpt>
      <trkpt lat="45.66564" lon="4.66635">
        <ele>441.4</ele>
        <time>2025-08-06T07:32:20Z</time>
      </trkpt>
      <trkpt lat="45.6656" lon="4.66632">
        <ele>441.6</ele>
        <time>2025-08-06T07:32:21Z</time>
      </trkpt>
      <trkpt lat="45.66556" lon="4.6663">
        <ele>441.6</ele>
        <time>2025-08-06T07:32:22Z</time>
      </trkpt>
      <trkpt lat="45.66552" lon="4.66627">
        <ele>441.8</ele>
        <time>2025-08-06T07:32:23Z</time>
      </trkpt>
      <trkpt lat="45.66548" lon="4.66624">
        <ele>442</ele>
        <time>2025-08-06T07:32:24Z</time>
      </trkpt>
      <trkpt lat="45.66544" lon="4.66622">
        <ele>442.2</ele>
        <time>2025-08-06T07:32:25Z</time>
      </trkpt>
      <trkpt lat="45.6654" lon="4.6662">
        <ele>442.2</ele>
        <time>2025-08-06T07:32:26Z</time>
      </trkpt>
      <trkpt lat="45.66536" lon="4.66617">
        <ele>442.4</ele>
        <time>2025-08-06T07:32:27Z</time>
      </trkpt>
      <trkpt lat="45.66533" lon="4.66614">
        <ele>442.6</ele>
        <time>2025-08-06T07:32:28Z</time>
      </trkpt>
      <trkpt lat="45.66529" lon="4.66611">
        <ele>442.8</ele>
        <time>2025-08-06T07:32:29Z</time>
      </trkpt>
      <trkpt lat="45.66525" lon="4.66608">
        <ele>443</ele>
        <time>2025-08-06T07:32:30Z</time>
      </trkpt>
      <trkpt lat="45.66521" lon="4.66604">
        <ele>443</ele>
        <time>2025-08-06T07:32:31Z</time>
      </trkpt>
      <trkpt lat="45.66517" lon="4.66601">
        <ele>443</ele>
        <time>2025-08-06T07:32:32Z</time>
      </trkpt>
      <trkpt lat="45.66513" lon="4.66597">
        <ele>443.2</ele>
        <time>2025-08-06T07:32:33Z</time>
      </trkpt>
      <trkpt lat="45.66509" lon="4.66594">
        <ele>443.2</ele>
        <time>2025-08-06T07:32:34Z</time>
      </trkpt>
      <trkpt lat="45.66505" lon="4.6659">
        <ele>443.2</ele>
        <time>2025-08-06T07:32:35Z</time>
      </trkpt>
      <trkpt lat="45.66501" lon="4.66586">
        <ele>443.2</ele>
        <time>2025-08-06T07:32:36Z</time>
      </trkpt>
      <trkpt lat="45.66497" lon="4.66582">
        <ele>443.2</ele>
        <time>2025-08-06T07:32:37Z</time>
      </trkpt>
      <trkpt lat="45.66493" lon="4.66579">
        <ele>443.2</ele>
        <time>2025-08-06T07:32:38Z</time>
      </trkpt>
      <trkpt lat="45.66489" lon="4.66576">
        <ele>443.2</ele>
        <time>2025-08-06T07:32:39Z</time>
      </trkpt>
      <trkpt lat="45.66484" lon="4.66574">
        <ele>443.2</ele>
        <time>2025-08-06T07:32:40Z</time>
      </trkpt>
      <trkpt lat="45.66479" lon="4.66574">
        <ele>443.2</ele>
        <time>2025-08-06T07:32:41Z</time>
      </trkpt>
      <trkpt lat="45.66473" lon="4.66575">
        <ele>443</ele>
        <time>2025-08-06T07:32:42Z</time>
      </trkpt>
      <trkpt lat="45.66468" lon="4.66577">
        <ele>442.8</ele>
        <time>2025-08-06T07:32:43Z</time>
      </trkpt>
      <trkpt lat="45.66463" lon="4.66578">
        <ele>442.8</ele>
        <time>2025-08-06T07:32:44Z</time>
      </trkpt>
      <trkpt lat="45.66458" lon="4.66579">
        <ele>442.6</ele>
        <time>2025-08-06T07:32:45Z</time>
      </trkpt>
      <trkpt lat="45.66452" lon="4.6658">
        <ele>442.4</ele>
        <time>2025-08-06T07:32:46Z</time>
      </trkpt>
      <trkpt lat="45.66447" lon="4.66582">
        <ele>442.2</ele>
        <time>2025-08-06T07:32:47Z</time>
      </trkpt>
      <trkpt lat="45.66441" lon="4.66583">
        <ele>442</ele>
        <time>2025-08-06T07:32:48Z</time>
      </trkpt>
      <trkpt lat="45.66435" lon="4.66585">
        <ele>442</ele>
        <time>2025-08-06T07:32:49Z</time>
      </trkpt>
      <trkpt lat="45.6643" lon="4.66586">
        <ele>442</ele>
        <time>2025-08-06T07:32:50Z</time>
      </trkpt>
      <trkpt lat="45.66424" lon="4.66588">
        <ele>442</ele>
        <time>2025-08-06T07:32:51Z</time>
      </trkpt>
      <trkpt lat="45.66419" lon="4.6659">
        <ele>442</ele>
        <time>2025-08-06T07:32:52Z</time>
      </trkpt>
      <trkpt lat="45.66413" lon="4.66592">
        <ele>442</ele>
        <time>2025-08-06T07:32:53Z</time>
      </trkpt>
      <trkpt lat="45.66407" lon="4.66593">
        <ele>442</ele>
        <time>2025-08-06T07:32:54Z</time>
      </trkpt>
      <trkpt lat="45.66402" lon="4.66593">
        <ele>442</ele>
        <time>2025-08-06T07:32:55Z</time>
      </trkpt>
      <trkpt lat="45.66397" lon="4.66593">
        <ele>442</ele>
        <time>2025-08-06T07:32:56Z</time>
      </trkpt>
      <trkpt lat="45.66391" lon="4.66592">
        <ele>442</ele>
        <time>2025-08-06T07:32:57Z</time>
      </trkpt>
      <trkpt lat="45.66386" lon="4.66591">
        <ele>442</ele>
        <time>2025-08-06T07:32:58Z</time>
      </trkpt>
      <trkpt lat="45.6638" lon="4.6659">
        <ele>442.2</ele>
        <time>2025-08-06T07:32:59Z</time>
      </trkpt>
      <trkpt lat="45.66375" lon="4.66589">
        <ele>442.2</ele>
        <time>2025-08-06T07:33:00Z</time>
      </trkpt>
      <trkpt lat="45.6637" lon="4.66588">
        <ele>442.4</ele>
        <time>2025-08-06T07:33:01Z</time>
      </trkpt>
      <trkpt lat="45.66364" lon="4.66587">
        <ele>442.4</ele>
        <time>2025-08-06T07:33:02Z</time>
      </trkpt>
      <trkpt lat="45.66359" lon="4.66586">
        <ele>442.6</ele>
        <time>2025-08-06T07:33:03Z</time>
      </trkpt>
      <trkpt lat="45.66354" lon="4.66585">
        <ele>442.8</ele>
        <time>2025-08-06T07:33:04Z</time>
      </trkpt>
      <trkpt lat="45.66349" lon="4.66585">
        <ele>443</ele>
        <time>2025-08-06T07:33:05Z</time>
      </trkpt>
      <trkpt lat="45.66345" lon="4.66586">
        <ele>443.4</ele>
        <time>2025-08-06T07:33:06Z</time>
      </trkpt>
      <trkpt lat="45.66341" lon="4.66589">
        <ele>443.4</ele>
        <time>2025-08-06T07:33:07Z</time>
      </trkpt>
      <trkpt lat="45.66337" lon="4.66593">
        <ele>443.6</ele>
        <time>2025-08-06T07:33:08Z</time>
      </trkpt>
      <trkpt lat="45.66334" lon="4.66598">
        <ele>443.8</ele>
        <time>2025-08-06T07:33:09Z</time>
      </trkpt>
      <trkpt lat="45.66331" lon="4.66603">
        <ele>443.8</ele>
        <time>2025-08-06T07:33:10Z</time>
      </trkpt>
      <trkpt lat="45.66328" lon="4.66608">
        <ele>443.8</ele>
        <time>2025-08-06T07:33:11Z</time>
      </trkpt>
      <trkpt lat="45.66325" lon="4.66612">
        <ele>443.8</ele>
        <time>2025-08-06T07:33:12Z</time>
      </trkpt>
      <trkpt lat="45.66322" lon="4.66616">
        <ele>443.8</ele>
        <time>2025-08-06T07:33:13Z</time>
      </trkpt>
      <trkpt lat="45.66319" lon="4.66617">
        <ele>443.8</ele>
        <time>2025-08-06T07:33:14Z</time>
      </trkpt>
      <trkpt lat="45.66316" lon="4.66616">
        <ele>443.8</ele>
        <time>2025-08-06T07:33:15Z</time>
      </trkpt>
      <trkpt lat="45.66313" lon="4.66613">
        <ele>444</ele>
        <time>2025-08-06T07:33:16Z</time>
      </trkpt>
      <trkpt lat="45.6631" lon="4.6661">
        <ele>444.2</ele>
        <time>2025-08-06T07:33:17Z</time>
      </trkpt>
      <trkpt lat="45.66307" lon="4.66607">
        <ele>444.6</ele>
        <time>2025-08-06T07:33:18Z</time>
      </trkpt>
      <trkpt lat="45.66305" lon="4.66605">
        <ele>444.8</ele>
        <time>2025-08-06T07:33:19Z</time>
      </trkpt>
      <trkpt lat="45.66302" lon="4.66604">
        <ele>445</ele>
        <time>2025-08-06T07:33:20Z</time>
      </trkpt>
      <trkpt lat="45.66299" lon="4.66603">
        <ele>445.2</ele>
        <time>2025-08-06T07:33:21Z</time>
      </trkpt>
      <trkpt lat="45.66297" lon="4.66603">
        <ele>445.2</ele>
        <time>2025-08-06T07:33:22Z</time>
      </trkpt>
      <trkpt lat="45.66294" lon="4.66602">
        <ele>445.4</ele>
        <time>2025-08-06T07:33:23Z</time>
      </trkpt>
      <trkpt lat="45.6629" lon="4.66601">
        <ele>445.6</ele>
        <time>2025-08-06T07:33:24Z</time>
      </trkpt>
      <trkpt lat="45.66287" lon="4.666">
        <ele>445.8</ele>
        <time>2025-08-06T07:33:25Z</time>
      </trkpt>
      <trkpt lat="45.66284" lon="4.66599">
        <ele>446</ele>
        <time>2025-08-06T07:33:26Z</time>
      </trkpt>
      <trkpt lat="45.66281" lon="4.66598">
        <ele>446.2</ele>
        <time>2025-08-06T07:33:27Z</time>
      </trkpt>
      <trkpt lat="45.66279" lon="4.66595">
        <ele>446.6</ele>
        <time>2025-08-06T07:33:28Z</time>
      </trkpt>
      <trkpt lat="45.66279" lon="4.66592">
        <ele>446.8</ele>
        <time>2025-08-06T07:33:29Z</time>
      </trkpt>
      <trkpt lat="45.6628" lon="4.66588">
        <ele>447.2</ele>
        <time>2025-08-06T07:33:30Z</time>
      </trkpt>
      <trkpt lat="45.66281" lon="4.66584">
        <ele>447.4</ele>
        <time>2025-08-06T07:33:31Z</time>
      </trkpt>
      <trkpt lat="45.66281" lon="4.6658">
        <ele>447.6</ele>
        <time>2025-08-06T07:33:32Z</time>
      </trkpt>
      <trkpt lat="45.66282" lon="4.66575">
        <ele>448</ele>
        <time>2025-08-06T07:33:33Z</time>
      </trkpt>
      <trkpt lat="45.66282" lon="4.66572">
        <ele>448</ele>
        <time>2025-08-06T07:33:34Z</time>
      </trkpt>
      <trkpt lat="45.66282" lon="4.66568">
        <ele>448.2</ele>
        <time>2025-08-06T07:33:35Z</time>
      </trkpt>
      <trkpt lat="45.66282" lon="4.66564">
        <ele>448.4</ele>
        <time>2025-08-06T07:33:36Z</time>
      </trkpt>
      <trkpt lat="45.66283" lon="4.66559">
        <ele>448.6</ele>
        <time>2025-08-06T07:33:37Z</time>
      </trkpt>
      <trkpt lat="45.66283" lon="4.66554">
        <ele>448.8</ele>
        <time>2025-08-06T07:33:38Z</time>
      </trkpt>
      <trkpt lat="45.66283" lon="4.66549">
        <ele>448.8</ele>
        <time>2025-08-06T07:33:39Z</time>
      </trkpt>
      <trkpt lat="45.66283" lon="4.66544">
        <ele>449</ele>
        <time>2025-08-06T07:33:40Z</time>
      </trkpt>
      <trkpt lat="45.66283" lon="4.66539">
        <ele>449</ele>
        <time>2025-08-06T07:33:41Z</time>
      </trkpt>
      <trkpt lat="45.66282" lon="4.66534">
        <ele>449.2</ele>
        <time>2025-08-06T07:33:42Z</time>
      </trkpt>
      <trkpt lat="45.66282" lon="4.66529">
        <ele>449.4</ele>
        <time>2025-08-06T07:33:43Z</time>
      </trkpt>
      <trkpt lat="45.66282" lon="4.66525">
        <ele>449.4</ele>
        <time>2025-08-06T07:33:44Z</time>
      </trkpt>
      <trkpt lat="45.66282" lon="4.6652">
        <ele>449.6</ele>
        <time>2025-08-06T07:33:45Z</time>
      </trkpt>
      <trkpt lat="45.66281" lon="4.66516">
        <ele>449.8</ele>
        <time>2025-08-06T07:33:46Z</time>
      </trkpt>
      <trkpt lat="45.66281" lon="4.66512">
        <ele>450</ele>
        <time>2025-08-06T07:33:47Z</time>
      </trkpt>
      <trkpt lat="45.66281" lon="4.66507">
        <ele>450.2</ele>
        <time>2025-08-06T07:33:48Z</time>
      </trkpt>
      <trkpt lat="45.66282" lon="4.66503">
        <ele>450.6</ele>
        <time>2025-08-06T07:33:49Z</time>
      </trkpt>
      <trkpt lat="45.66283" lon="4.66498">
        <ele>450.8</ele>
        <time>2025-08-06T07:33:50Z</time>
      </trkpt>
      <trkpt lat="45.66284" lon="4.66494">
        <ele>451</ele>
        <time>2025-08-06T07:33:51Z</time>
      </trkpt>
      <trkpt lat="45.66284" lon="4.6649">
        <ele>451.2</ele>
        <time>2025-08-06T07:33:52Z</time>
      </trkpt>
      <trkpt lat="45.66285" lon="4.66485">
        <ele>451.4</ele>
        <time>2025-08-06T07:33:53Z</time>
      </trkpt>
      <trkpt lat="45.66286" lon="4.66481">
        <ele>451.6</ele>
        <time>2025-08-06T07:33:54Z</time>
      </trkpt>
      <trkpt lat="45.66287" lon="4.66477">
        <ele>451.8</ele>
        <time>2025-08-06T07:33:55Z</time>
      </trkpt>
      <trkpt lat="45.66287" lon="4.66472">
        <ele>452</ele>
        <time>2025-08-06T07:33:56Z</time>
      </trkpt>
      <trkpt lat="45.66288" lon="4.66468">
        <ele>452.2</ele>
        <time>2025-08-06T07:33:57Z</time>
      </trkpt>
      <trkpt lat="45.66289" lon="4.66464">
        <ele>452.4</ele>
        <time>2025-08-06T07:33:58Z</time>
      </trkpt>
      <trkpt lat="45.6629" lon="4.6646">
        <ele>452.8</ele>
        <time>2025-08-06T07:33:59Z</time>
      </trkpt>
      <trkpt lat="45.66292" lon="4.66456">
        <ele>453</ele>
        <time>2025-08-06T07:34:00Z</time>
      </trkpt>
      <trkpt lat="45.66293" lon="4.66453">
        <ele>453.2</ele>
        <time>2025-08-06T07:34:01Z</time>
      </trkpt>
      <trkpt lat="45.66295" lon="4.66449">
        <ele>453.6</ele>
        <time>2025-08-06T07:34:02Z</time>
      </trkpt>
      <trkpt lat="45.66297" lon="4.66446">
        <ele>453.8</ele>
        <time>2025-08-06T07:34:03Z</time>
      </trkpt>
      <trkpt lat="45.66299" lon="4.66443">
        <ele>454</ele>
        <time>2025-08-06T07:34:04Z</time>
      </trkpt>
      <trkpt lat="45.663" lon="4.6644">
        <ele>454.2</ele>
        <time>2025-08-06T07:34:05Z</time>
      </trkpt>
      <trkpt lat="45.66302" lon="4.66437">
        <ele>454.4</ele>
        <time>2025-08-06T07:34:06Z</time>
      </trkpt>
      <trkpt lat="45.66303" lon="4.66434">
        <ele>454.6</ele>
        <time>2025-08-06T07:34:07Z</time>
      </trkpt>
      <trkpt lat="45.66304" lon="4.6643">
        <ele>454.8</ele>
        <time>2025-08-06T07:34:08Z</time>
      </trkpt>
      <trkpt lat="45.66303" lon="4.66426">
        <ele>455</ele>
        <time>2025-08-06T07:34:09Z</time>
      </trkpt>
      <trkpt lat="45.66302" lon="4.66423">
        <ele>455.2</ele>
        <time>2025-08-06T07:34:10Z</time>
      </trkpt>
      <trkpt lat="45.66301" lon="4.6642">
        <ele>455.6</ele>
        <time>2025-08-06T07:34:11Z</time>
      </trkpt>
      <trkpt lat="45.663" lon="4.66418">
        <ele>455.8</ele>
        <time>2025-08-06T07:34:12Z</time>
      </trkpt>
      <trkpt lat="45.66298" lon="4.66416">
        <ele>456.2</ele>
        <time>2025-08-06T07:34:13Z</time>
      </trkpt>
      <trkpt lat="45.66296" lon="4.66415">
        <ele>456.4</ele>
        <time>2025-08-06T07:34:14Z</time>
      </trkpt>
      <trkpt lat="45.66294" lon="4.66414">
        <ele>456.8</ele>
        <time>2025-08-06T07:34:15Z</time>
      </trkpt>
      <trkpt lat="45.66292" lon="4.66413">
        <ele>457</ele>
        <time>2025-08-06T07:34:16Z</time>
      </trkpt>
      <trkpt lat="45.66291" lon="4.66412">
        <ele>457.2</ele>
        <time>2025-08-06T07:34:17Z</time>
      </trkpt>
      <trkpt lat="45.66288" lon="4.66411">
        <ele>457.6</ele>
        <time>2025-08-06T07:34:18Z</time>
      </trkpt>
      <trkpt lat="45.66286" lon="4.66411">
        <ele>457.8</ele>
        <time>2025-08-06T07:34:19Z</time>
      </trkpt>
      <trkpt lat="45.66284" lon="4.6641">
        <ele>458</ele>
        <time>2025-08-06T07:34:20Z</time>
      </trkpt>
      <trkpt lat="45.66282" lon="4.66409">
        <ele>458.2</ele>
        <time>2025-08-06T07:34:21Z</time>
      </trkpt>
      <trkpt lat="45.66279" lon="4.66408">
        <ele>458.4</ele>
        <time>2025-08-06T07:34:22Z</time>
      </trkpt>
      <trkpt lat="45.66277" lon="4.66406">
        <ele>458.6</ele>
        <time>2025-08-06T07:34:23Z</time>
      </trkpt>
      <trkpt lat="45.66274" lon="4.66405">
        <ele>458.8</ele>
        <time>2025-08-06T07:34:24Z</time>
      </trkpt>
      <trkpt lat="45.66272" lon="4.66404">
        <ele>459</ele>
        <time>2025-08-06T07:34:25Z</time>
      </trkpt>
      <trkpt lat="45.66269" lon="4.66402">
        <ele>459.2</ele>
        <time>2025-08-06T07:34:26Z</time>
      </trkpt>
      <trkpt lat="45.66267" lon="4.66401">
        <ele>459.4</ele>
        <time>2025-08-06T07:34:27Z</time>
      </trkpt>
      <trkpt lat="45.66264" lon="4.66399">
        <ele>459.4</ele>
        <time>2025-08-06T07:34:28Z</time>
      </trkpt>
      <trkpt lat="45.66261" lon="4.66398">
        <ele>459.6</ele>
        <time>2025-08-06T07:34:29Z</time>
      </trkpt>
      <trkpt lat="45.66259" lon="4.66397">
        <ele>459.8</ele>
        <time>2025-08-06T07:34:30Z</time>
      </trkpt>
      <trkpt lat="45.66256" lon="4.66396">
        <ele>460</ele>
        <time>2025-08-06T07:34:31Z</time>
      </trkpt>
      <trkpt lat="45.66253" lon="4.66394">
        <ele>460.2</ele>
        <time>2025-08-06T07:34:32Z</time>
      </trkpt>
      <trkpt lat="45.66251" lon="4.66393">
        <ele>460.4</ele>
        <time>2025-08-06T07:34:33Z</time>
      </trkpt>
      <trkpt lat="45.66249" lon="4.66391">
        <ele>460.6</ele>
        <time>2025-08-06T07:34:34Z</time>
      </trkpt>
      <trkpt lat="45.66246" lon="4.66389">
        <ele>460.8</ele>
        <time>2025-08-06T07:34:35Z</time>
      </trkpt>
      <trkpt lat="45.66243" lon="4.66388">
        <ele>460.8</ele>
        <time>2025-08-06T07:34:36Z</time>
      </trkpt>
      <trkpt lat="45.66241" lon="4.66386">
        <ele>461</ele>
        <time>2025-08-06T07:34:37Z</time>
      </trkpt>
      <trkpt lat="45.66238" lon="4.66384">
        <ele>461</ele>
        <time>2025-08-06T07:34:38Z</time>
      </trkpt>
      <trkpt lat="45.66236" lon="4.66381">
        <ele>461.2</ele>
        <time>2025-08-06T07:34:39Z</time>
      </trkpt>
      <trkpt lat="45.66233" lon="4.66379">
        <ele>461.2</ele>
        <time>2025-08-06T07:34:40Z</time>
      </trkpt>
      <trkpt lat="45.66231" lon="4.66377">
        <ele>461.4</ele>
        <time>2025-08-06T07:34:41Z</time>
      </trkpt>
      <trkpt lat="45.66229" lon="4.66375">
        <ele>461.8</ele>
        <time>2025-08-06T07:34:42Z</time>
      </trkpt>
      <trkpt lat="45.66227" lon="4.66373">
        <ele>462</ele>
        <time>2025-08-06T07:34:43Z</time>
      </trkpt>
      <trkpt lat="45.66225" lon="4.6637">
        <ele>462</ele>
        <time>2025-08-06T07:34:44Z</time>
      </trkpt>
      <trkpt lat="45.66224" lon="4.66368">
        <ele>462.4</ele>
        <time>2025-08-06T07:34:45Z</time>
      </trkpt>
      <trkpt lat="45.66222" lon="4.66366">
        <ele>462.6</ele>
        <time>2025-08-06T07:34:46Z</time>
      </trkpt>
      <trkpt lat="45.6622" lon="4.66363">
        <ele>462.8</ele>
        <time>2025-08-06T07:34:47Z</time>
      </trkpt>
      <trkpt lat="45.66219" lon="4.66361">
        <ele>463</ele>
        <time>2025-08-06T07:34:48Z</time>
      </trkpt>
      <trkpt lat="45.66217" lon="4.66359">
        <ele>463.4</ele>
        <time>2025-08-06T07:34:49Z</time>
      </trkpt>
      <trkpt lat="45.66215" lon="4.66357">
        <ele>463.6</ele>
        <time>2025-08-06T07:34:50Z</time>
      </trkpt>
      <trkpt lat="45.66213" lon="4.66355">
        <ele>463.8</ele>
        <time>2025-08-06T07:34:51Z</time>
      </trkpt>
      <trkpt lat="45.66211" lon="4.66353">
        <ele>464.2</ele>
        <time>2025-08-06T07:34:52Z</time>
      </trkpt>
      <trkpt lat="45.66209" lon="4.66351">
        <ele>464.4</ele>
        <time>2025-08-06T07:34:53Z</time>
      </trkpt>
      <trkpt lat="45.66207" lon="4.66349">
        <ele>464.8</ele>
        <time>2025-08-06T07:34:54Z</time>
      </trkpt>
      <trkpt lat="45.66206" lon="4.66347">
        <ele>465</ele>
        <time>2025-08-06T07:34:55Z</time>
      </trkpt>
      <trkpt lat="45.66204" lon="4.66345">
        <ele>465.4</ele>
        <time>2025-08-06T07:34:56Z</time>
      </trkpt>
      <trkpt lat="45.66203" lon="4.66343">
        <ele>465.6</ele>
        <time>2025-08-06T07:34:57Z</time>
      </trkpt>
      <trkpt lat="45.66201" lon="4.66341">
        <ele>466</ele>
        <time>2025-08-06T07:34:58Z</time>
      </trkpt>
      <trkpt lat="45.662" lon="4.66339">
        <ele>466.2</ele>
        <time>2025-08-06T07:34:59Z</time>
      </trkpt>
      <trkpt lat="45.66198" lon="4.66337">
        <ele>466.6</ele>
        <time>2025-08-06T07:35:00Z</time>
      </trkpt>
      <trkpt lat="45.66197" lon="4.66336">
        <ele>466.8</ele>
        <time>2025-08-06T07:35:01Z</time>
      </trkpt>
      <trkpt lat="45.66195" lon="4.66334">
        <ele>467.2</ele>
        <time>2025-08-06T07:35:02Z</time>
      </trkpt>
      <trkpt lat="45.66194" lon="4.66333">
        <ele>467.6</ele>
        <time>2025-08-06T07:35:03Z</time>
      </trkpt>
      <trkpt lat="45.66192" lon="4.66331">
        <ele>467.8</ele>
        <time>2025-08-06T07:35:04Z</time>
      </trkpt>
      <trkpt lat="45.6619" lon="4.6633">
        <ele>468.2</ele>
        <time>2025-08-06T07:35:05Z</time>
      </trkpt>
      <trkpt lat="45.66189" lon="4.66328">
        <ele>468.4</ele>
        <time>2025-08-06T07:35:06Z</time>
      </trkpt>
      <trkpt lat="45.66187" lon="4.66327">
        <ele>468.8</ele>
        <time>2025-08-06T07:35:07Z</time>
      </trkpt>
      <trkpt lat="45.66185" lon="4.66326">
        <ele>469</ele>
        <time>2025-08-06T07:35:08Z</time>
      </trkpt>
      <trkpt lat="45.66184" lon="4.66325">
        <ele>469.4</ele>
        <time>2025-08-06T07:35:09Z</time>
      </trkpt>
      <trkpt lat="45.66182" lon="4.66323">
        <ele>469.8</ele>
        <time>2025-08-06T07:35:10Z</time>
      </trkpt>
      <trkpt lat="45.66181" lon="4.66323">
        <ele>470</ele>
        <time>2025-08-06T07:35:11Z</time>
      </trkpt>
      <trkpt lat="45.66179" lon="4.66322">
        <ele>470.4</ele>
        <time>2025-08-06T07:35:12Z</time>
      </trkpt>
      <trkpt lat="45.66178" lon="4.66321">
        <ele>470.8</ele>
        <time>2025-08-06T07:35:13Z</time>
      </trkpt>
      <trkpt lat="45.66176" lon="4.6632">
        <ele>471</ele>
        <time>2025-08-06T07:35:14Z</time>
      </trkpt>
      <trkpt lat="45.66175" lon="4.66319">
        <ele>471.4</ele>
        <time>2025-08-06T07:35:15Z</time>
      </trkpt>
      <trkpt lat="45.66173" lon="4.66318">
        <ele>471.6</ele>
        <time>2025-08-06T07:35:16Z</time>
      </trkpt>
      <trkpt lat="45.66171" lon="4.66317">
        <ele>472</ele>
        <time>2025-08-06T07:35:17Z</time>
      </trkpt>
      <trkpt lat="45.66169" lon="4.66316">
        <ele>472.2</ele>
        <time>2025-08-06T07:35:18Z</time>
      </trkpt>
      <trkpt lat="45.66168" lon="4.66315">
        <ele>472.4</ele>
        <time>2025-08-06T07:35:19Z</time>
      </trkpt>
      <trkpt lat="45.66166" lon="4.66313">
        <ele>472.8</ele>
        <time>2025-08-06T07:35:20Z</time>
      </trkpt>
      <trkpt lat="45.66165" lon="4.66312">
        <ele>473</ele>
        <time>2025-08-06T07:35:21Z</time>
      </trkpt>
      <trkpt lat="45.66163" lon="4.66311">
        <ele>473.2</ele>
        <time>2025-08-06T07:35:22Z</time>
      </trkpt>
      <trkpt lat="45.66161" lon="4.66309">
        <ele>473.6</ele>
        <time>2025-08-06T07:35:23Z</time>
      </trkpt>
      <trkpt lat="45.6616" lon="4.66309">
        <ele>473.8</ele>
        <time>2025-08-06T07:35:24Z</time>
      </trkpt>
      <trkpt lat="45.66158" lon="4.66307">
        <ele>474.2</ele>
        <time>2025-08-06T07:35:25Z</time>
      </trkpt>
      <trkpt lat="45.66157" lon="4.66306">
        <ele>474.4</ele>
        <time>2025-08-06T07:35:26Z</time>
      </trkpt>
      <trkpt lat="45.66155" lon="4.66305">
        <ele>474.6</ele>
        <time>2025-08-06T07:35:27Z</time>
      </trkpt>
      <trkpt lat="45.66154" lon="4.66304">
        <ele>474.8</ele>
        <time>2025-08-06T07:35:28Z</time>
      </trkpt>
      <trkpt lat="45.66152" lon="4.66304">
        <ele>475</ele>
        <time>2025-08-06T07:35:29Z</time>
      </trkpt>
      <trkpt lat="45.6615" lon="4.66303">
        <ele>475.2</ele>
        <time>2025-08-06T07:35:30Z</time>
      </trkpt>
      <trkpt lat="45.66149" lon="4.66302">
        <ele>475.4</ele>
        <time>2025-08-06T07:35:31Z</time>
      </trkpt>
      <trkpt lat="45.66147" lon="4.66301">
        <ele>475.6</ele>
        <time>2025-08-06T07:35:32Z</time>
      </trkpt>
      <trkpt lat="45.66146" lon="4.663">
        <ele>476</ele>
        <time>2025-08-06T07:35:33Z</time>
      </trkpt>
      <trkpt lat="45.66145" lon="4.66298">
        <ele>476.2</ele>
        <time>2025-08-06T07:35:34Z</time>
      </trkpt>
      <trkpt lat="45.66143" lon="4.66297">
        <ele>476.4</ele>
        <time>2025-08-06T07:35:35Z</time>
      </trkpt>
      <trkpt lat="45.66142" lon="4.66296">
        <ele>476.8</ele>
        <time>2025-08-06T07:35:36Z</time>
      </trkpt>
      <trkpt lat="45.6614" lon="4.66295">
        <ele>477</ele>
        <time>2025-08-06T07:35:37Z</time>
      </trkpt>
      <trkpt lat="45.66138" lon="4.66294">
        <ele>477.2</ele>
        <time>2025-08-06T07:35:38Z</time>
      </trkpt>
      <trkpt lat="45.66137" lon="4.66293">
        <ele>477.4</ele>
        <time>2025-08-06T07:35:39Z</time>
      </trkpt>
      <trkpt lat="45.66136" lon="4.66291">
        <ele>477.6</ele>
        <time>2025-08-06T07:35:40Z</time>
      </trkpt>
      <trkpt lat="45.66134" lon="4.6629">
        <ele>477.8</ele>
        <time>2025-08-06T07:35:41Z</time>
      </trkpt>
      <trkpt lat="45.66132" lon="4.66289">
        <ele>478.2</ele>
        <time>2025-08-06T07:35:42Z</time>
      </trkpt>
      <trkpt lat="45.66131" lon="4.66288">
        <ele>478.4</ele>
        <time>2025-08-06T07:35:43Z</time>
      </trkpt>
      <trkpt lat="45.66129" lon="4.66286">
        <ele>478.6</ele>
        <time>2025-08-06T07:35:44Z</time>
      </trkpt>
      <trkpt lat="45.66128" lon="4.66285">
        <ele>478.8</ele>
        <time>2025-08-06T07:35:45Z</time>
      </trkpt>
      <trkpt lat="45.66126" lon="4.66284">
        <ele>479</ele>
        <time>2025-08-06T07:35:46Z</time>
      </trkpt>
      <trkpt lat="45.66125" lon="4.66283">
        <ele>479.2</ele>
        <time>2025-08-06T07:35:47Z</time>
      </trkpt>
      <trkpt lat="45.66123" lon="4.66282">
        <ele>479.4</ele>
        <time>2025-08-06T07:35:48Z</time>
      </trkpt>
      <trkpt lat="45.66122" lon="4.6628">
        <ele>479.8</ele>
        <time>2025-08-06T07:35:49Z</time>
      </trkpt>
      <trkpt lat="45.66121" lon="4.66279">
        <ele>480</ele>
        <time>2025-08-06T07:35:50Z</time>
      </trkpt>
      <trkpt lat="45.6612" lon="4.66278">
        <ele>480.2</ele>
        <time>2025-08-06T07:35:51Z</time>
      </trkpt>
      <trkpt lat="45.66119" lon="4.66278">
        <ele>480.4</ele>
        <time>2025-08-06T07:35:52Z</time>
      </trkpt>
      <trkpt lat="45.66118" lon="4.66277">
        <ele>480.8</ele>
        <time>2025-08-06T07:35:53Z</time>
      </trkpt>
      <trkpt lat="45.66116" lon="4.66276">
        <ele>481</ele>
        <time>2025-08-06T07:35:54Z</time>
      </trkpt>
      <trkpt lat="45.66115" lon="4.66275">
        <ele>481.2</ele>
        <time>2025-08-06T07:35:55Z</time>
      </trkpt>
      <trkpt lat="45.66113" lon="4.66274">
        <ele>481.4</ele>
        <time>2025-08-06T07:35:56Z</time>
      </trkpt>
      <trkpt lat="45.66112" lon="4.66273">
        <ele>481.6</ele>
        <time>2025-08-06T07:35:57Z</time>
      </trkpt>
      <trkpt lat="45.6611" lon="4.66272">
        <ele>482</ele>
        <time>2025-08-06T07:35:58Z</time>
      </trkpt>
      <trkpt lat="45.66108" lon="4.66271">
        <ele>482.2</ele>
        <time>2025-08-06T07:35:59Z</time>
      </trkpt>
      <trkpt lat="45.66107" lon="4.6627">
        <ele>482.4</ele>
        <time>2025-08-06T07:36:00Z</time>
      </trkpt>
      <trkpt lat="45.66105" lon="4.66269">
        <ele>482.6</ele>
        <time>2025-08-06T07:36:01Z</time>
      </trkpt>
      <trkpt lat="45.66104" lon="4.66268">
        <ele>483</ele>
        <time>2025-08-06T07:36:02Z</time>
      </trkpt>
      <trkpt lat="45.66102" lon="4.66267">
        <ele>483.2</ele>
        <time>2025-08-06T07:36:03Z</time>
      </trkpt>
      <trkpt lat="45.661" lon="4.66266">
        <ele>483.4</ele>
        <time>2025-08-06T07:36:04Z</time>
      </trkpt>
      <trkpt lat="45.66098" lon="4.66264">
        <ele>483.6</ele>
        <time>2025-08-06T07:36:05Z</time>
      </trkpt>
      <trkpt lat="45.66097" lon="4.66263">
        <ele>483.8</ele>
        <time>2025-08-06T07:36:06Z</time>
      </trkpt>
      <trkpt lat="45.66095" lon="4.66262">
        <ele>484</ele>
        <time>2025-08-06T07:36:07Z</time>
      </trkpt>
      <trkpt lat="45.66094" lon="4.6626">
        <ele>484.2</ele>
        <time>2025-08-06T07:36:08Z</time>
      </trkpt>
      <trkpt lat="45.66093" lon="4.66259">
        <ele>484.6</ele>
        <time>2025-08-06T07:36:09Z</time>
      </trkpt>
      <trkpt lat="45.66091" lon="4.66258">
        <ele>484.8</ele>
        <time>2025-08-06T07:36:10Z</time>
      </trkpt>
      <trkpt lat="45.6609" lon="4.66257">
        <ele>485</ele>
        <time>2025-08-06T07:36:11Z</time>
      </trkpt>
      <trkpt lat="45.66088" lon="4.66256">
        <ele>485.2</ele>
        <time>2025-08-06T07:36:12Z</time>
      </trkpt>
      <trkpt lat="45.66087" lon="4.66254">
        <ele>485.6</ele>
        <time>2025-08-06T07:36:13Z</time>
      </trkpt>
      <trkpt lat="45.66086" lon="4.66253">
        <ele>485.8</ele>
        <time>2025-08-06T07:36:14Z</time>
      </trkpt>
      <trkpt lat="45.66084" lon="4.66252">
        <ele>486</ele>
        <time>2025-08-06T07:36:15Z</time>
      </trkpt>
      <trkpt lat="45.66083" lon="4.66251">
        <ele>486.2</ele>
        <time>2025-08-06T07:36:16Z</time>
      </trkpt>
      <trkpt lat="45.66081" lon="4.66249">
        <ele>486.4</ele>
        <time>2025-08-06T07:36:17Z</time>
      </trkpt>
      <trkpt lat="45.66079" lon="4.66248">
        <ele>486.8</ele>
        <time>2025-08-06T07:36:18Z</time>
      </trkpt>
      <trkpt lat="45.66078" lon="4.66247">
        <ele>487</ele>
        <time>2025-08-06T07:36:19Z</time>
      </trkpt>
      <trkpt lat="45.66076" lon="4.66246">
        <ele>487.2</ele>
        <time>2025-08-06T07:36:20Z</time>
      </trkpt>
      <trkpt lat="45.66075" lon="4.66245">
        <ele>487.4</ele>
        <time>2025-08-06T07:36:21Z</time>
      </trkpt>
      <trkpt lat="45.66074" lon="4.66243">
        <ele>487.6</ele>
        <time>2025-08-06T07:36:22Z</time>
      </trkpt>
      <trkpt lat="45.66073" lon="4.66242">
        <ele>487.8</ele>
        <time>2025-08-06T07:36:23Z</time>
      </trkpt>
      <trkpt lat="45.66072" lon="4.6624">
        <ele>488</ele>
        <time>2025-08-06T07:36:24Z</time>
      </trkpt>
      <trkpt lat="45.66071" lon="4.66238">
        <ele>488</ele>
        <time>2025-08-06T07:36:25Z</time>
      </trkpt>
      <trkpt lat="45.6607" lon="4.66236">
        <ele>488.2</ele>
        <time>2025-08-06T07:36:26Z</time>
      </trkpt>
      <trkpt lat="45.6607" lon="4.66234">
        <ele>488.2</ele>
        <time>2025-08-06T07:36:27Z</time>
      </trkpt>
      <trkpt lat="45.66069" lon="4.66232">
        <ele>488.4</ele>
        <time>2025-08-06T07:36:28Z</time>
      </trkpt>
      <trkpt lat="45.66068" lon="4.6623">
        <ele>488.4</ele>
        <time>2025-08-06T07:36:29Z</time>
      </trkpt>
      <trkpt lat="45.66068" lon="4.66227">
        <ele>488.4</ele>
        <time>2025-08-06T07:36:30Z</time>
      </trkpt>
      <trkpt lat="45.66069" lon="4.66225">
        <ele>488.4</ele>
        <time>2025-08-06T07:36:31Z</time>
      </trkpt>
      <trkpt lat="45.6607" lon="4.66223">
        <ele>488.4</ele>
        <time>2025-08-06T07:36:32Z</time>
      </trkpt>
      <trkpt lat="45.66072" lon="4.6622">
        <ele>488.4</ele>
        <time>2025-08-06T07:36:33Z</time>
      </trkpt>
      <trkpt lat="45.66074" lon="4.66219">
        <ele>488.6</ele>
        <time>2025-08-06T07:36:34Z</time>
      </trkpt>
      <trkpt lat="45.66075" lon="4.66217">
        <ele>488.8</ele>
        <time>2025-08-06T07:36:35Z</time>
      </trkpt>
      <trkpt lat="45.66077" lon="4.66215">
        <ele>489</ele>
        <time>2025-08-06T07:36:36Z</time>
      </trkpt>
      <trkpt lat="45.66078" lon="4.66213">
        <ele>489.2</ele>
        <time>2025-08-06T07:36:37Z</time>
      </trkpt>
      <trkpt lat="45.6608" lon="4.6621">
        <ele>489.6</ele>
        <time>2025-08-06T07:36:38Z</time>
      </trkpt>
      <trkpt lat="45.66081" lon="4.66208">
        <ele>490</ele>
        <time>2025-08-06T07:36:39Z</time>
      </trkpt>
      <trkpt lat="45.66082" lon="4.66206">
        <ele>490.4</ele>
        <time>2025-08-06T07:36:40Z</time>
      </trkpt>
      <trkpt lat="45.66084" lon="4.66203">
        <ele>490.8</ele>
        <time>2025-08-06T07:36:41Z</time>
      </trkpt>
      <trkpt lat="45.66085" lon="4.66201">
        <ele>491</ele>
        <time>2025-08-06T07:36:42Z</time>
      </trkpt>
      <trkpt lat="45.66087" lon="4.66198">
        <ele>491.4</ele>
        <time>2025-08-06T07:36:43Z</time>
      </trkpt>
      <trkpt lat="45.66088" lon="4.66195">
        <ele>491.8</ele>
        <time>2025-08-06T07:36:44Z</time>
      </trkpt>
      <trkpt lat="45.6609" lon="4.66193">
        <ele>492</ele>
        <time>2025-08-06T07:36:45Z</time>
      </trkpt>
      <trkpt lat="45.66091" lon="4.6619">
        <ele>492.4</ele>
        <time>2025-08-06T07:36:46Z</time>
      </trkpt>
      <trkpt lat="45.66092" lon="4.66188">
        <ele>492.8</ele>
        <time>2025-08-06T07:36:47Z</time>
      </trkpt>
      <trkpt lat="45.66093" lon="4.66185">
        <ele>493</ele>
        <time>2025-08-06T07:36:48Z</time>
      </trkpt>
      <trkpt lat="45.66094" lon="4.66182">
        <ele>493.2</ele>
        <time>2025-08-06T07:36:49Z</time>
      </trkpt>
      <trkpt lat="45.66095" lon="4.66179">
        <ele>493.6</ele>
        <time>2025-08-06T07:36:50Z</time>
      </trkpt>
      <trkpt lat="45.66096" lon="4.66176">
        <ele>493.8</ele>
        <time>2025-08-06T07:36:51Z</time>
      </trkpt>
      <trkpt lat="45.66097" lon="4.66173">
        <ele>494</ele>
        <time>2025-08-06T07:36:52Z</time>
      </trkpt>
      <trkpt lat="45.66097" lon="4.6617">
        <ele>494.4</ele>
        <time>2025-08-06T07:36:53Z</time>
      </trkpt>
      <trkpt lat="45.66098" lon="4.66167">
        <ele>494.6</ele>
        <time>2025-08-06T07:36:54Z</time>
      </trkpt>
      <trkpt lat="45.66097" lon="4.66163">
        <ele>494.8</ele>
        <time>2025-08-06T07:36:55Z</time>
      </trkpt>
      <trkpt lat="45.66097" lon="4.6616">
        <ele>494.8</ele>
        <time>2025-08-06T07:36:56Z</time>
      </trkpt>
      <trkpt lat="45.66097" lon="4.66156">
        <ele>495</ele>
        <time>2025-08-06T07:36:57Z</time>
      </trkpt>
      <trkpt lat="45.66097" lon="4.66152">
        <ele>495.2</ele>
        <time>2025-08-06T07:36:58Z</time>
      </trkpt>
      <trkpt lat="45.66096" lon="4.66149">
        <ele>495.4</ele>
        <time>2025-08-06T07:36:59Z</time>
      </trkpt>
      <trkpt lat="45.66096" lon="4.66145">
        <ele>495.6</ele>
        <time>2025-08-06T07:37:00Z</time>
      </trkpt>
      <trkpt lat="45.66095" lon="4.66142">
        <ele>495.8</ele>
        <time>2025-08-06T07:37:01Z</time>
      </trkpt>
      <trkpt lat="45.66095" lon="4.66138">
        <ele>496</ele>
        <time>2025-08-06T07:37:02Z</time>
      </trkpt>
      <trkpt lat="45.66094" lon="4.66134">
        <ele>496.2</ele>
        <time>2025-08-06T07:37:03Z</time>
      </trkpt>
      <trkpt lat="45.66094" lon="4.6613">
        <ele>496.4</ele>
        <time>2025-08-06T07:37:04Z</time>
      </trkpt>
      <trkpt lat="45.66094" lon="4.66126">
        <ele>496.4</ele>
        <time>2025-08-06T07:37:05Z</time>
      </trkpt>
      <trkpt lat="45.66094" lon="4.66122">
        <ele>496.6</ele>
        <time>2025-08-06T07:37:06Z</time>
      </trkpt>
      <trkpt lat="45.66094" lon="4.66118">
        <ele>497</ele>
        <time>2025-08-06T07:37:07Z</time>
      </trkpt>
      <trkpt lat="45.66094" lon="4.66115">
        <ele>497</ele>
        <time>2025-08-06T07:37:08Z</time>
      </trkpt>
      <trkpt lat="45.66094" lon="4.66111">
        <ele>497.2</ele>
        <time>2025-08-06T07:37:09Z</time>
      </trkpt>
      <trkpt lat="45.66093" lon="4.66108">
        <ele>497.4</ele>
        <time>2025-08-06T07:37:10Z</time>
      </trkpt>
      <trkpt lat="45.66093" lon="4.66104">
        <ele>497.6</ele>
        <time>2025-08-06T07:37:11Z</time>
      </trkpt>
      <trkpt lat="45.66092" lon="4.66101">
        <ele>497.8</ele>
        <time>2025-08-06T07:37:12Z</time>
      </trkpt>
      <trkpt lat="45.66091" lon="4.66097">
        <ele>498</ele>
        <time>2025-08-06T07:37:13Z</time>
      </trkpt>
      <trkpt lat="45.66091" lon="4.66094">
        <ele>498.2</ele>
        <time>2025-08-06T07:37:14Z</time>
      </trkpt>
      <trkpt lat="45.6609" lon="4.6609">
        <ele>498.4</ele>
        <time>2025-08-06T07:37:15Z</time>
      </trkpt>
      <trkpt lat="45.6609" lon="4.66087">
        <ele>498.6</ele>
        <time>2025-08-06T07:37:16Z</time>
      </trkpt>
      <trkpt lat="45.66089" lon="4.66083">
        <ele>498.8</ele>
        <time>2025-08-06T07:37:17Z</time>
      </trkpt>
      <trkpt lat="45.66089" lon="4.6608">
        <ele>499</ele>
        <time>2025-08-06T07:37:18Z</time>
      </trkpt>
      <trkpt lat="45.66089" lon="4.66076">
        <ele>499.2</ele>
        <time>2025-08-06T07:37:19Z</time>
      </trkpt>
      <trkpt lat="45.66089" lon="4.66072">
        <ele>499.4</ele>
        <time>2025-08-06T07:37:20Z</time>
      </trkpt>
      <trkpt lat="45.6609" lon="4.66068">
        <ele>499.6</ele>
        <time>2025-08-06T07:37:21Z</time>
      </trkpt>
      <trkpt lat="45.66091" lon="4.66065">
        <ele>499.8</ele>
        <time>2025-08-06T07:37:22Z</time>
      </trkpt>
      <trkpt lat="45.66091" lon="4.66061">
        <ele>500</ele>
        <time>2025-08-06T07:37:23Z</time>
      </trkpt>
      <trkpt lat="45.66091" lon="4.66057">
        <ele>500.2</ele>
        <time>2025-08-06T07:37:24Z</time>
      </trkpt>
      <trkpt lat="45.66091" lon="4.66054">
        <ele>500.4</ele>
        <time>2025-08-06T07:37:25Z</time>
      </trkpt>
      <trkpt lat="45.66091" lon="4.6605">
        <ele>500.6</ele>
        <time>2025-08-06T07:37:26Z</time>
      </trkpt>
      <trkpt lat="45.66092" lon="4.66047">
        <ele>501</ele>
        <time>2025-08-06T07:37:27Z</time>
      </trkpt>
      <trkpt lat="45.66091" lon="4.66043">
        <ele>501.2</ele>
        <time>2025-08-06T07:37:28Z</time>
      </trkpt>
      <trkpt lat="45.66091" lon="4.66039">
        <ele>501.4</ele>
        <time>2025-08-06T07:37:29Z</time>
      </trkpt>
      <trkpt lat="45.66091" lon="4.66036">
        <ele>501.6</ele>
        <time>2025-08-06T07:37:30Z</time>
      </trkpt>
      <trkpt lat="45.66091" lon="4.66032">
        <ele>501.8</ele>
        <time>2025-08-06T07:37:31Z</time>
      </trkpt>
      <trkpt lat="45.66091" lon="4.66028">
        <ele>502</ele>
        <time>2025-08-06T07:37:32Z</time>
      </trkpt>
      <trkpt lat="45.66091" lon="4.66024">
        <ele>502.4</ele>
        <time>2025-08-06T07:37:33Z</time>
      </trkpt>
      <trkpt lat="45.66091" lon="4.6602">
        <ele>502.6</ele>
        <time>2025-08-06T07:37:34Z</time>
      </trkpt>
      <trkpt lat="45.66091" lon="4.66017">
        <ele>502.8</ele>
        <time>2025-08-06T07:37:35Z</time>
      </trkpt>
      <trkpt lat="45.66091" lon="4.66013">
        <ele>503</ele>
        <time>2025-08-06T07:37:36Z</time>
      </trkpt>
      <trkpt lat="45.66091" lon="4.66009">
        <ele>503.2</ele>
        <time>2025-08-06T07:37:37Z</time>
      </trkpt>
      <trkpt lat="45.66091" lon="4.66005">
        <ele>503.4</ele>
        <time>2025-08-06T07:37:38Z</time>
      </trkpt>
      <trkpt lat="45.66091" lon="4.66001">
        <ele>503.4</ele>
        <time>2025-08-06T07:37:39Z</time>
      </trkpt>
      <trkpt lat="45.66091" lon="4.65997">
        <ele>503.6</ele>
        <time>2025-08-06T07:37:40Z</time>
      </trkpt>
      <trkpt lat="45.66091" lon="4.65993">
        <ele>503.8</ele>
        <time>2025-08-06T07:37:41Z</time>
      </trkpt>
      <trkpt lat="45.66091" lon="4.65989">
        <ele>504</ele>
        <time>2025-08-06T07:37:42Z</time>
      </trkpt>
      <trkpt lat="45.66091" lon="4.65985">
        <ele>504</ele>
        <time>2025-08-06T07:37:43Z</time>
      </trkpt>
      <trkpt lat="45.6609" lon="4.65981">
        <ele>504.2</ele>
        <time>2025-08-06T07:37:44Z</time>
      </trkpt>
      <trkpt lat="45.6609" lon="4.65977">
        <ele>504.4</ele>
        <time>2025-08-06T07:37:45Z</time>
      </trkpt>
      <trkpt lat="45.66089" lon="4.65973">
        <ele>504.6</ele>
        <time>2025-08-06T07:37:46Z</time>
      </trkpt>
      <trkpt lat="45.66089" lon="4.65969">
        <ele>504.8</ele>
        <time>2025-08-06T07:37:47Z</time>
      </trkpt>
      <trkpt lat="45.66088" lon="4.65965">
        <ele>505</ele>
        <time>2025-08-06T07:37:48Z</time>
      </trkpt>
      <trkpt lat="45.66088" lon="4.65961">
        <ele>505.2</ele>
        <time>2025-08-06T07:37:49Z</time>
      </trkpt>
      <trkpt lat="45.66087" lon="4.65957">
        <ele>505.4</ele>
        <time>2025-08-06T07:37:50Z</time>
      </trkpt>
      <trkpt lat="45.66087" lon="4.65952">
        <ele>505.6</ele>
        <time>2025-08-06T07:37:51Z</time>
      </trkpt>
      <trkpt lat="45.66086" lon="4.65948">
        <ele>505.6</ele>
        <time>2025-08-06T07:37:52Z</time>
      </trkpt>
      <trkpt lat="45.66086" lon="4.65943">
        <ele>505.8</ele>
        <time>2025-08-06T07:37:53Z</time>
      </trkpt>
      <trkpt lat="45.66085" lon="4.65939">
        <ele>506</ele>
        <time>2025-08-06T07:37:54Z</time>
      </trkpt>
      <trkpt lat="45.66084" lon="4.65935">
        <ele>506</ele>
        <time>2025-08-06T07:37:55Z</time>
      </trkpt>
      <trkpt lat="45.66083" lon="4.65931">
        <ele>506.2</ele>
        <time>2025-08-06T07:37:56Z</time>
      </trkpt>
      <trkpt lat="45.66082" lon="4.65927">
        <ele>506.4</ele>
        <time>2025-08-06T07:37:57Z</time>
      </trkpt>
      <trkpt lat="45.6608" lon="4.65924">
        <ele>506.4</ele>
        <time>2025-08-06T07:37:58Z</time>
      </trkpt>
      <trkpt lat="45.66079" lon="4.6592">
        <ele>506.4</ele>
        <time>2025-08-06T07:37:59Z</time>
      </trkpt>
      <trkpt lat="45.66077" lon="4.65916">
        <ele>506.6</ele>
        <time>2025-08-06T07:38:00Z</time>
      </trkpt>
      <trkpt lat="45.66076" lon="4.65912">
        <ele>506.8</ele>
        <time>2025-08-06T07:38:01Z</time>
      </trkpt>
      <trkpt lat="45.66074" lon="4.65909">
        <ele>506.8</ele>
        <time>2025-08-06T07:38:02Z</time>
      </trkpt>
      <trkpt lat="45.66073" lon="4.65905">
        <ele>507</ele>
        <time>2025-08-06T07:38:03Z</time>
      </trkpt>
      <trkpt lat="45.66071" lon="4.65901">
        <ele>507.2</ele>
        <time>2025-08-06T07:38:04Z</time>
      </trkpt>
      <trkpt lat="45.66071" lon="4.65897">
        <ele>507.4</ele>
        <time>2025-08-06T07:38:05Z</time>
      </trkpt>
      <trkpt lat="45.6607" lon="4.65893">
        <ele>507.4</ele>
        <time>2025-08-06T07:38:06Z</time>
      </trkpt>
      <trkpt lat="45.66068" lon="4.65889">
        <ele>507.6</ele>
        <time>2025-08-06T07:38:07Z</time>
      </trkpt>
      <trkpt lat="45.66067" lon="4.65886">
        <ele>507.6</ele>
        <time>2025-08-06T07:38:08Z</time>
      </trkpt>
      <trkpt lat="45.66065" lon="4.65882">
        <ele>507.8</ele>
        <time>2025-08-06T07:38:09Z</time>
      </trkpt>
      <trkpt lat="45.66063" lon="4.65877">
        <ele>507.8</ele>
        <time>2025-08-06T07:38:10Z</time>
      </trkpt>
      <trkpt lat="45.66061" lon="4.65873">
        <ele>507.6</ele>
        <time>2025-08-06T07:38:11Z</time>
      </trkpt>
      <trkpt lat="45.66059" lon="4.65868">
        <ele>507.6</ele>
        <time>2025-08-06T07:38:12Z</time>
      </trkpt>
      <trkpt lat="45.66057" lon="4.65863">
        <ele>507.4</ele>
        <time>2025-08-06T07:38:13Z</time>
      </trkpt>
      <trkpt lat="45.66055" lon="4.65858">
        <ele>507.2</ele>
        <time>2025-08-06T07:38:14Z</time>
      </trkpt>
      <trkpt lat="45.66053" lon="4.65853">
        <ele>507</ele>
        <time>2025-08-06T07:38:15Z</time>
      </trkpt>
      <trkpt lat="45.66051" lon="4.65847">
        <ele>506.8</ele>
        <time>2025-08-06T07:38:16Z</time>
      </trkpt>
      <trkpt lat="45.66049" lon="4.65842">
        <ele>506.6</ele>
        <time>2025-08-06T07:38:17Z</time>
      </trkpt>
      <trkpt lat="45.66047" lon="4.65836">
        <ele>506.4</ele>
        <time>2025-08-06T07:38:18Z</time>
      </trkpt>
      <trkpt lat="45.66045" lon="4.65831">
        <ele>506.2</ele>
        <time>2025-08-06T07:38:19Z</time>
      </trkpt>
      <trkpt lat="45.66043" lon="4.65825">
        <ele>506</ele>
        <time>2025-08-06T07:38:20Z</time>
      </trkpt>
      <trkpt lat="45.6604" lon="4.65819">
        <ele>506</ele>
        <time>2025-08-06T07:38:21Z</time>
      </trkpt>
      <trkpt lat="45.66038" lon="4.65814">
        <ele>505.6</ele>
        <time>2025-08-06T07:38:22Z</time>
      </trkpt>
      <trkpt lat="45.66036" lon="4.65809">
        <ele>505.6</ele>
        <time>2025-08-06T07:38:23Z</time>
      </trkpt>
      <trkpt lat="45.66033" lon="4.65804">
        <ele>505.4</ele>
        <time>2025-08-06T07:38:24Z</time>
      </trkpt>
      <trkpt lat="45.66031" lon="4.65799">
        <ele>505.2</ele>
        <time>2025-08-06T07:38:25Z</time>
      </trkpt>
      <trkpt lat="45.66028" lon="4.65794">
        <ele>505.2</ele>
        <time>2025-08-06T07:38:26Z</time>
      </trkpt>
      <trkpt lat="45.66025" lon="4.65789">
        <ele>505.2</ele>
        <time>2025-08-06T07:38:27Z</time>
      </trkpt>
      <trkpt lat="45.66021" lon="4.65785">
        <ele>505.2</ele>
        <time>2025-08-06T07:38:28Z</time>
      </trkpt>
      <trkpt lat="45.66018" lon="4.6578">
        <ele>505.2</ele>
        <time>2025-08-06T07:38:29Z</time>
      </trkpt>
      <trkpt lat="45.66015" lon="4.65776">
        <ele>505.2</ele>
        <time>2025-08-06T07:38:30Z</time>
      </trkpt>
      <trkpt lat="45.66012" lon="4.65771">
        <ele>505.2</ele>
        <time>2025-08-06T07:38:31Z</time>
      </trkpt>
      <trkpt lat="45.66009" lon="4.65767">
        <ele>505.4</ele>
        <time>2025-08-06T07:38:32Z</time>
      </trkpt>
      <trkpt lat="45.66006" lon="4.65763">
        <ele>505.2</ele>
        <time>2025-08-06T07:38:33Z</time>
      </trkpt>
      <trkpt lat="45.66003" lon="4.6576">
        <ele>505.2</ele>
        <time>2025-08-06T07:38:34Z</time>
      </trkpt>
      <trkpt lat="45.66001" lon="4.65757">
        <ele>505.2</ele>
        <time>2025-08-06T07:38:35Z</time>
      </trkpt>
      <trkpt lat="45.65998" lon="4.65754">
        <ele>505.4</ele>
        <time>2025-08-06T07:38:36Z</time>
      </trkpt>
      <trkpt lat="45.65996" lon="4.65751">
        <ele>505.4</ele>
        <time>2025-08-06T07:38:37Z</time>
      </trkpt>
      <trkpt lat="45.65993" lon="4.65748">
        <ele>505.4</ele>
        <time>2025-08-06T07:38:38Z</time>
      </trkpt>
      <trkpt lat="45.6599" lon="4.65745">
        <ele>505.4</ele>
        <time>2025-08-06T07:38:39Z</time>
      </trkpt>
      <trkpt lat="45.65987" lon="4.65742">
        <ele>505.4</ele>
        <time>2025-08-06T07:38:40Z</time>
      </trkpt>
      <trkpt lat="45.65984" lon="4.6574">
        <ele>505.4</ele>
        <time>2025-08-06T07:38:41Z</time>
      </trkpt>
      <trkpt lat="45.65981" lon="4.65738">
        <ele>505.4</ele>
        <time>2025-08-06T07:38:42Z</time>
      </trkpt>
      <trkpt lat="45.65978" lon="4.65736">
        <ele>505.4</ele>
        <time>2025-08-06T07:38:43Z</time>
      </trkpt>
      <trkpt lat="45.65975" lon="4.65734">
        <ele>505.4</ele>
        <time>2025-08-06T07:38:44Z</time>
      </trkpt>
      <trkpt lat="45.65971" lon="4.65731">
        <ele>505.6</ele>
        <time>2025-08-06T07:38:45Z</time>
      </trkpt>
      <trkpt lat="45.65968" lon="4.65728">
        <ele>505.6</ele>
        <time>2025-08-06T07:38:46Z</time>
      </trkpt>
      <trkpt lat="45.65965" lon="4.65725">
        <ele>505.6</ele>
        <time>2025-08-06T07:38:47Z</time>
      </trkpt>
      <trkpt lat="45.65962" lon="4.65722">
        <ele>505.6</ele>
        <time>2025-08-06T07:38:48Z</time>
      </trkpt>
      <trkpt lat="45.65958" lon="4.65719">
        <ele>505.4</ele>
        <time>2025-08-06T07:38:49Z</time>
      </trkpt>
      <trkpt lat="45.65955" lon="4.65715">
        <ele>505.4</ele>
        <time>2025-08-06T07:38:50Z</time>
      </trkpt>
      <trkpt lat="45.65952" lon="4.65712">
        <ele>505.4</ele>
        <time>2025-08-06T07:38:51Z</time>
      </trkpt>
      <trkpt lat="45.65949" lon="4.65709">
        <ele>505.4</ele>
        <time>2025-08-06T07:38:52Z</time>
      </trkpt>
      <trkpt lat="45.65946" lon="4.65706">
        <ele>505.4</ele>
        <time>2025-08-06T07:38:53Z</time>
      </trkpt>
      <trkpt lat="45.65943" lon="4.65702">
        <ele>505.6</ele>
        <time>2025-08-06T07:38:54Z</time>
      </trkpt>
      <trkpt lat="45.6594" lon="4.65699">
        <ele>505.8</ele>
        <time>2025-08-06T07:38:55Z</time>
      </trkpt>
      <trkpt lat="45.65937" lon="4.65695">
        <ele>506</ele>
        <time>2025-08-06T07:38:56Z</time>
      </trkpt>
      <trkpt lat="45.65934" lon="4.65691">
        <ele>506</ele>
        <time>2025-08-06T07:38:57Z</time>
      </trkpt>
      <trkpt lat="45.65931" lon="4.65687">
        <ele>506.2</ele>
        <time>2025-08-06T07:38:58Z</time>
      </trkpt>
      <trkpt lat="45.65928" lon="4.65683">
        <ele>506.2</ele>
        <time>2025-08-06T07:38:59Z</time>
      </trkpt>
      <trkpt lat="45.65925" lon="4.6568">
        <ele>506.4</ele>
        <time>2025-08-06T07:39:00Z</time>
      </trkpt>
      <trkpt lat="45.65922" lon="4.65676">
        <ele>506.6</ele>
        <time>2025-08-06T07:39:01Z</time>
      </trkpt>
      <trkpt lat="45.65919" lon="4.65673">
        <ele>506.6</ele>
        <time>2025-08-06T07:39:02Z</time>
      </trkpt>
      <trkpt lat="45.65916" lon="4.6567">
        <ele>506.8</ele>
        <time>2025-08-06T07:39:03Z</time>
      </trkpt>
      <trkpt lat="45.65913" lon="4.65667">
        <ele>507</ele>
        <time>2025-08-06T07:39:04Z</time>
      </trkpt>
      <trkpt lat="45.6591" lon="4.65665">
        <ele>507.2</ele>
        <time>2025-08-06T07:39:05Z</time>
      </trkpt>
      <trkpt lat="45.65908" lon="4.65662">
        <ele>507.4</ele>
        <time>2025-08-06T07:39:06Z</time>
      </trkpt>
      <trkpt lat="45.65906" lon="4.65659">
        <ele>507.6</ele>
        <time>2025-08-06T07:39:07Z</time>
      </trkpt>
      <trkpt lat="45.65903" lon="4.65658">
        <ele>508</ele>
        <time>2025-08-06T07:39:08Z</time>
      </trkpt>
      <trkpt lat="45.65901" lon="4.65656">
        <ele>508.2</ele>
        <time>2025-08-06T07:39:09Z</time>
      </trkpt>
      <trkpt lat="45.65899" lon="4.65655">
        <ele>508.6</ele>
        <time>2025-08-06T07:39:10Z</time>
      </trkpt>
      <trkpt lat="45.65897" lon="4.65653">
        <ele>508.8</ele>
        <time>2025-08-06T07:39:11Z</time>
      </trkpt>
      <trkpt lat="45.65895" lon="4.65652">
        <ele>509</ele>
        <time>2025-08-06T07:39:12Z</time>
      </trkpt>
      <trkpt lat="45.65893" lon="4.65649">
        <ele>509.4</ele>
        <time>2025-08-06T07:39:13Z</time>
      </trkpt>
      <trkpt lat="45.65891" lon="4.65647">
        <ele>509.6</ele>
        <time>2025-08-06T07:39:14Z</time>
      </trkpt>
      <trkpt lat="45.65889" lon="4.65645">
        <ele>509.8</ele>
        <time>2025-08-06T07:39:15Z</time>
      </trkpt>
      <trkpt lat="45.65887" lon="4.65643">
        <ele>510</ele>
        <time>2025-08-06T07:39:16Z</time>
      </trkpt>
      <trkpt lat="45.65885" lon="4.65641">
        <ele>510.2</ele>
        <time>2025-08-06T07:39:17Z</time>
      </trkpt>
      <trkpt lat="45.65883" lon="4.6564">
        <ele>510.4</ele>
        <time>2025-08-06T07:39:18Z</time>
      </trkpt>
      <trkpt lat="45.65881" lon="4.65638">
        <ele>510.6</ele>
        <time>2025-08-06T07:39:19Z</time>
      </trkpt>
      <trkpt lat="45.65879" lon="4.65635">
        <ele>510.8</ele>
        <time>2025-08-06T07:39:20Z</time>
      </trkpt>
      <trkpt lat="45.65877" lon="4.65633">
        <ele>511</ele>
        <time>2025-08-06T07:39:21Z</time>
      </trkpt>
      <trkpt lat="45.65876" lon="4.65631">
        <ele>511.4</ele>
        <time>2025-08-06T07:39:22Z</time>
      </trkpt>
      <trkpt lat="45.65874" lon="4.65628">
        <ele>511.6</ele>
        <time>2025-08-06T07:39:23Z</time>
      </trkpt>
      <trkpt lat="45.65872" lon="4.65626">
        <ele>511.8</ele>
        <time>2025-08-06T07:39:24Z</time>
      </trkpt>
      <trkpt lat="45.65871" lon="4.65623">
        <ele>512</ele>
        <time>2025-08-06T07:39:25Z</time>
      </trkpt>
      <trkpt lat="45.6587" lon="4.65621">
        <ele>512.4</ele>
        <time>2025-08-06T07:39:26Z</time>
      </trkpt>
      <trkpt lat="45.65869" lon="4.65618">
        <ele>512.6</ele>
        <time>2025-08-06T07:39:27Z</time>
      </trkpt>
      <trkpt lat="45.65868" lon="4.65616">
        <ele>513</ele>
        <time>2025-08-06T07:39:28Z</time>
      </trkpt>
      <trkpt lat="45.65867" lon="4.65613">
        <ele>513.4</ele>
        <time>2025-08-06T07:39:29Z</time>
      </trkpt>
      <trkpt lat="45.65866" lon="4.6561">
        <ele>513.6</ele>
        <time>2025-08-06T07:39:30Z</time>
      </trkpt>
      <trkpt lat="45.65865" lon="4.65608">
        <ele>514</ele>
        <time>2025-08-06T07:39:31Z</time>
      </trkpt>
      <trkpt lat="45.65864" lon="4.65606">
        <ele>514.2</ele>
        <time>2025-08-06T07:39:32Z</time>
      </trkpt>
      <trkpt lat="45.65863" lon="4.65603">
        <ele>514.4</ele>
        <time>2025-08-06T07:39:33Z</time>
      </trkpt>
      <trkpt lat="45.65862" lon="4.656">
        <ele>514.8</ele>
        <time>2025-08-06T07:39:34Z</time>
      </trkpt>
      <trkpt lat="45.65861" lon="4.65598">
        <ele>515</ele>
        <time>2025-08-06T07:39:35Z</time>
      </trkpt>
      <trkpt lat="45.65861" lon="4.65595">
        <ele>515.4</ele>
        <time>2025-08-06T07:39:36Z</time>
      </trkpt>
      <trkpt lat="45.6586" lon="4.65592">
        <ele>515.6</ele>
        <time>2025-08-06T07:39:37Z</time>
      </trkpt>
      <trkpt lat="45.6586" lon="4.65589">
        <ele>515.8</ele>
        <time>2025-08-06T07:39:38Z</time>
      </trkpt>
      <trkpt lat="45.6586" lon="4.65586">
        <ele>516.2</ele>
        <time>2025-08-06T07:39:39Z</time>
      </trkpt>
      <trkpt lat="45.6586" lon="4.65582">
        <ele>516.4</ele>
        <time>2025-08-06T07:39:40Z</time>
      </trkpt>
      <trkpt lat="45.65859" lon="4.65579">
        <ele>516.6</ele>
        <time>2025-08-06T07:39:41Z</time>
      </trkpt>
      <trkpt lat="45.65859" lon="4.65575">
        <ele>516.8</ele>
        <time>2025-08-06T07:39:42Z</time>
      </trkpt>
      <trkpt lat="45.65859" lon="4.65572">
        <ele>517</ele>
        <time>2025-08-06T07:39:43Z</time>
      </trkpt>
      <trkpt lat="45.65859" lon="4.65569">
        <ele>517.4</ele>
        <time>2025-08-06T07:39:44Z</time>
      </trkpt>
      <trkpt lat="45.65858" lon="4.65565">
        <ele>517.6</ele>
        <time>2025-08-06T07:39:45Z</time>
      </trkpt>
      <trkpt lat="45.65857" lon="4.65562">
        <ele>517.8</ele>
        <time>2025-08-06T07:39:46Z</time>
      </trkpt>
      <trkpt lat="45.65857" lon="4.65558">
        <ele>518</ele>
        <time>2025-08-06T07:39:47Z</time>
      </trkpt>
      <trkpt lat="45.65856" lon="4.65555">
        <ele>518</ele>
        <time>2025-08-06T07:39:48Z</time>
      </trkpt>
      <trkpt lat="45.65855" lon="4.65552">
        <ele>518.2</ele>
        <time>2025-08-06T07:39:49Z</time>
      </trkpt>
      <trkpt lat="45.65854" lon="4.65548">
        <ele>518.4</ele>
        <time>2025-08-06T07:39:50Z</time>
      </trkpt>
      <trkpt lat="45.65853" lon="4.65546">
        <ele>518.6</ele>
        <time>2025-08-06T07:39:51Z</time>
      </trkpt>
      <trkpt lat="45.65852" lon="4.65543">
        <ele>518.8</ele>
        <time>2025-08-06T07:39:52Z</time>
      </trkpt>
      <trkpt lat="45.65851" lon="4.6554">
        <ele>519</ele>
        <time>2025-08-06T07:39:53Z</time>
      </trkpt>
      <trkpt lat="45.6585" lon="4.65537">
        <ele>519.2</ele>
        <time>2025-08-06T07:39:54Z</time>
      </trkpt>
      <trkpt lat="45.65849" lon="4.65534">
        <ele>519.4</ele>
        <time>2025-08-06T07:39:55Z</time>
      </trkpt>
      <trkpt lat="45.65848" lon="4.65531">
        <ele>519.8</ele>
        <time>2025-08-06T07:39:56Z</time>
      </trkpt>
      <trkpt lat="45.65847" lon="4.65528">
        <ele>520</ele>
        <time>2025-08-06T07:39:57Z</time>
      </trkpt>
      <trkpt lat="45.65845" lon="4.65525">
        <ele>520.2</ele>
        <time>2025-08-06T07:39:58Z</time>
      </trkpt>
      <trkpt lat="45.65844" lon="4.65522">
        <ele>520.4</ele>
        <time>2025-08-06T07:39:59Z</time>
      </trkpt>
      <trkpt lat="45.65842" lon="4.65519">
        <ele>520.8</ele>
        <time>2025-08-06T07:40:00Z</time>
      </trkpt>
      <trkpt lat="45.65841" lon="4.65517">
        <ele>521</ele>
        <time>2025-08-06T07:40:01Z</time>
      </trkpt>
      <trkpt lat="45.65839" lon="4.65514">
        <ele>521.2</ele>
        <time>2025-08-06T07:40:02Z</time>
      </trkpt>
      <trkpt lat="45.65837" lon="4.65512">
        <ele>521.6</ele>
        <time>2025-08-06T07:40:03Z</time>
      </trkpt>
      <trkpt lat="45.65835" lon="4.65509">
        <ele>521.8</ele>
        <time>2025-08-06T07:40:04Z</time>
      </trkpt>
      <trkpt lat="45.65833" lon="4.65506">
        <ele>522</ele>
        <time>2025-08-06T07:40:05Z</time>
      </trkpt>
      <trkpt lat="45.65831" lon="4.65503">
        <ele>522.2</ele>
        <time>2025-08-06T07:40:06Z</time>
      </trkpt>
      <trkpt lat="45.65829" lon="4.65501">
        <ele>522.4</ele>
        <time>2025-08-06T07:40:07Z</time>
      </trkpt>
      <trkpt lat="45.65827" lon="4.65499">
        <ele>522.6</ele>
        <time>2025-08-06T07:40:08Z</time>
      </trkpt>
      <trkpt lat="45.65825" lon="4.65496">
        <ele>523</ele>
        <time>2025-08-06T07:40:09Z</time>
      </trkpt>
      <trkpt lat="45.65823" lon="4.65494">
        <ele>523.2</ele>
        <time>2025-08-06T07:40:10Z</time>
      </trkpt>
      <trkpt lat="45.65821" lon="4.65492">
        <ele>523.4</ele>
        <time>2025-08-06T07:40:11Z</time>
      </trkpt>
      <trkpt lat="45.6582" lon="4.6549">
        <ele>523.8</ele>
        <time>2025-08-06T07:40:12Z</time>
      </trkpt>
      <trkpt lat="45.65818" lon="4.65488">
        <ele>524</ele>
        <time>2025-08-06T07:40:13Z</time>
      </trkpt>
      <trkpt lat="45.65816" lon="4.65486">
        <ele>524.4</ele>
        <time>2025-08-06T07:40:14Z</time>
      </trkpt>
      <trkpt lat="45.65814" lon="4.65484">
        <ele>524.6</ele>
        <time>2025-08-06T07:40:15Z</time>
      </trkpt>
      <trkpt lat="45.65812" lon="4.65482">
        <ele>525</ele>
        <time>2025-08-06T07:40:16Z</time>
      </trkpt>
      <trkpt lat="45.6581" lon="4.6548">
        <ele>525.2</ele>
        <time>2025-08-06T07:40:17Z</time>
      </trkpt>
      <trkpt lat="45.65808" lon="4.65478">
        <ele>525.4</ele>
        <time>2025-08-06T07:40:18Z</time>
      </trkpt>
      <trkpt lat="45.65806" lon="4.65476">
        <ele>525.8</ele>
        <time>2025-08-06T07:40:19Z</time>
      </trkpt>
      <trkpt lat="45.65804" lon="4.65473">
        <ele>526</ele>
        <time>2025-08-06T07:40:20Z</time>
      </trkpt>
      <trkpt lat="45.65803" lon="4.6547">
        <ele>526.2</ele>
        <time>2025-08-06T07:40:21Z</time>
      </trkpt>
      <trkpt lat="45.65801" lon="4.65468">
        <ele>526.4</ele>
        <time>2025-08-06T07:40:22Z</time>
      </trkpt>
      <trkpt lat="45.65799" lon="4.65465">
        <ele>526.6</ele>
        <time>2025-08-06T07:40:23Z</time>
      </trkpt>
      <trkpt lat="45.65797" lon="4.65463">
        <ele>526.8</ele>
        <time>2025-08-06T07:40:24Z</time>
      </trkpt>
      <trkpt lat="45.65795" lon="4.65461">
        <ele>527</ele>
        <time>2025-08-06T07:40:25Z</time>
      </trkpt>
      <trkpt lat="45.65793" lon="4.65459">
        <ele>527.2</ele>
        <time>2025-08-06T07:40:26Z</time>
      </trkpt>
      <trkpt lat="45.65791" lon="4.65456">
        <ele>527.4</ele>
        <time>2025-08-06T07:40:27Z</time>
      </trkpt>
      <trkpt lat="45.65789" lon="4.65454">
        <ele>527.6</ele>
        <time>2025-08-06T07:40:28Z</time>
      </trkpt>
      <trkpt lat="45.65787" lon="4.65451">
        <ele>527.8</ele>
        <time>2025-08-06T07:40:29Z</time>
      </trkpt>
      <trkpt lat="45.65785" lon="4.65448">
        <ele>528</ele>
        <time>2025-08-06T07:40:30Z</time>
      </trkpt>
      <trkpt lat="45.65783" lon="4.65446">
        <ele>528.2</ele>
        <time>2025-08-06T07:40:31Z</time>
      </trkpt>
      <trkpt lat="45.65781" lon="4.65443">
        <ele>528.4</ele>
        <time>2025-08-06T07:40:32Z</time>
      </trkpt>
      <trkpt lat="45.65779" lon="4.6544">
        <ele>528.6</ele>
        <time>2025-08-06T07:40:33Z</time>
      </trkpt>
      <trkpt lat="45.65777" lon="4.65437">
        <ele>528.8</ele>
        <time>2025-08-06T07:40:34Z</time>
      </trkpt>
      <trkpt lat="45.65775" lon="4.65435">
        <ele>528.8</ele>
        <time>2025-08-06T07:40:35Z</time>
      </trkpt>
      <trkpt lat="45.65773" lon="4.65432">
        <ele>528.8</ele>
        <time>2025-08-06T07:40:36Z</time>
      </trkpt>
      <trkpt lat="45.65771" lon="4.65428">
        <ele>528.6</ele>
        <time>2025-08-06T07:40:37Z</time>
      </trkpt>
      <trkpt lat="45.65769" lon="4.65424">
        <ele>528.6</ele>
        <time>2025-08-06T07:40:38Z</time>
      </trkpt>
      <trkpt lat="45.65766" lon="4.6542">
        <ele>528.4</ele>
        <time>2025-08-06T07:40:39Z</time>
      </trkpt>
      <trkpt lat="45.65763" lon="4.65416">
        <ele>528.2</ele>
        <time>2025-08-06T07:40:40Z</time>
      </trkpt>
      <trkpt lat="45.6576" lon="4.65413">
        <ele>528</ele>
        <time>2025-08-06T07:40:41Z</time>
      </trkpt>
      <trkpt lat="45.65757" lon="4.65408">
        <ele>527.6</ele>
        <time>2025-08-06T07:40:42Z</time>
      </trkpt>
      <trkpt lat="45.65754" lon="4.65404">
        <ele>527.4</ele>
        <time>2025-08-06T07:40:43Z</time>
      </trkpt>
      <trkpt lat="45.65751" lon="4.65399">
        <ele>527.2</ele>
        <time>2025-08-06T07:40:44Z</time>
      </trkpt>
      <trkpt lat="45.65748" lon="4.65395">
        <ele>527</ele>
        <time>2025-08-06T07:40:45Z</time>
      </trkpt>
      <trkpt lat="45.65745" lon="4.65391">
        <ele>526.8</ele>
        <time>2025-08-06T07:40:46Z</time>
      </trkpt>
      <trkpt lat="45.65742" lon="4.65386">
        <ele>526.6</ele>
        <time>2025-08-06T07:40:47Z</time>
      </trkpt>
      <trkpt lat="45.65739" lon="4.65382">
        <ele>526.4</ele>
        <time>2025-08-06T07:40:48Z</time>
      </trkpt>
      <trkpt lat="45.65735" lon="4.65377">
        <ele>526.2</ele>
        <time>2025-08-06T07:40:49Z</time>
      </trkpt>
      <trkpt lat="45.65732" lon="4.65372">
        <ele>525.8</ele>
        <time>2025-08-06T07:40:50Z</time>
      </trkpt>
      <trkpt lat="45.65728" lon="4.65368">
        <ele>525.6</ele>
        <time>2025-08-06T07:40:51Z</time>
      </trkpt>
      <trkpt lat="45.65725" lon="4.65363">
        <ele>525.4</ele>
        <time>2025-08-06T07:40:52Z</time>
      </trkpt>
      <trkpt lat="45.65721" lon="4.65359">
        <ele>525</ele>
        <time>2025-08-06T07:40:53Z</time>
      </trkpt>
      <trkpt lat="45.65717" lon="4.65354">
        <ele>524.8</ele>
        <time>2025-08-06T07:40:54Z</time>
      </trkpt>
      <trkpt lat="45.65713" lon="4.6535">
        <ele>524.6</ele>
        <time>2025-08-06T07:40:55Z</time>
      </trkpt>
      <trkpt lat="45.65709" lon="4.65346">
        <ele>524.2</ele>
        <time>2025-08-06T07:40:56Z</time>
      </trkpt>
      <trkpt lat="45.65705" lon="4.65343">
        <ele>524</ele>
        <time>2025-08-06T07:40:57Z</time>
      </trkpt>
      <trkpt lat="45.65701" lon="4.65338">
        <ele>524</ele>
        <time>2025-08-06T07:40:58Z</time>
      </trkpt>
      <trkpt lat="45.65698" lon="4.65334">
        <ele>523.8</ele>
        <time>2025-08-06T07:40:59Z</time>
      </trkpt>
      <trkpt lat="45.65694" lon="4.65331">
        <ele>523.8</ele>
        <time>2025-08-06T07:41:00Z</time>
      </trkpt>
      <trkpt lat="45.65691" lon="4.65327">
        <ele>523.8</ele>
        <time>2025-08-06T07:41:01Z</time>
      </trkpt>
      <trkpt lat="45.65687" lon="4.65323">
        <ele>523.8</ele>
        <time>2025-08-06T07:41:02Z</time>
      </trkpt>
      <trkpt lat="45.65684" lon="4.65319">
        <ele>523.8</ele>
        <time>2025-08-06T07:41:03Z</time>
      </trkpt>
      <trkpt lat="45.6568" lon="4.65315">
        <ele>523.8</ele>
        <time>2025-08-06T07:41:04Z</time>
      </trkpt>
      <trkpt lat="45.65676" lon="4.65311">
        <ele>523.8</ele>
        <time>2025-08-06T07:41:05Z</time>
      </trkpt>
      <trkpt lat="45.65672" lon="4.65308">
        <ele>523.8</ele>
        <time>2025-08-06T07:41:06Z</time>
      </trkpt>
      <trkpt lat="45.65669" lon="4.65305">
        <ele>523.8</ele>
        <time>2025-08-06T07:41:07Z</time>
      </trkpt>
      <trkpt lat="45.65665" lon="4.65302">
        <ele>523.8</ele>
        <time>2025-08-06T07:41:08Z</time>
      </trkpt>
      <trkpt lat="45.65661" lon="4.65299">
        <ele>524</ele>
        <time>2025-08-06T07:41:09Z</time>
      </trkpt>
      <trkpt lat="45.65657" lon="4.65297">
        <ele>524</ele>
        <time>2025-08-06T07:41:10Z</time>
      </trkpt>
      <trkpt lat="45.65653" lon="4.65295">
        <ele>524.2</ele>
        <time>2025-08-06T07:41:11Z</time>
      </trkpt>
      <trkpt lat="45.65649" lon="4.65293">
        <ele>524.4</ele>
        <time>2025-08-06T07:41:12Z</time>
      </trkpt>
      <trkpt lat="45.65645" lon="4.65291">
        <ele>524.4</ele>
        <time>2025-08-06T07:41:13Z</time>
      </trkpt>
      <trkpt lat="45.65642" lon="4.65289">
        <ele>524.6</ele>
        <time>2025-08-06T07:41:14Z</time>
      </trkpt>
      <trkpt lat="45.65638" lon="4.65286">
        <ele>524.6</ele>
        <time>2025-08-06T07:41:15Z</time>
      </trkpt>
      <trkpt lat="45.65635" lon="4.65282">
        <ele>524.8</ele>
        <time>2025-08-06T07:41:16Z</time>
      </trkpt>
      <trkpt lat="45.65632" lon="4.65279">
        <ele>524.8</ele>
        <time>2025-08-06T07:41:17Z</time>
      </trkpt>
      <trkpt lat="45.65628" lon="4.65276">
        <ele>525</ele>
        <time>2025-08-06T07:41:18Z</time>
      </trkpt>
      <trkpt lat="45.65625" lon="4.65274">
        <ele>525.2</ele>
        <time>2025-08-06T07:41:19Z</time>
      </trkpt>
      <trkpt lat="45.65621" lon="4.65271">
        <ele>525.4</ele>
        <time>2025-08-06T07:41:20Z</time>
      </trkpt>
      <trkpt lat="45.65618" lon="4.65269">
        <ele>525.6</ele>
        <time>2025-08-06T07:41:21Z</time>
      </trkpt>
      <trkpt lat="45.65614" lon="4.65266">
        <ele>525.8</ele>
        <time>2025-08-06T07:41:22Z</time>
      </trkpt>
      <trkpt lat="45.65611" lon="4.65264">
        <ele>526</ele>
        <time>2025-08-06T07:41:23Z</time>
      </trkpt>
      <trkpt lat="45.65608" lon="4.65262">
        <ele>526.2</ele>
        <time>2025-08-06T07:41:24Z</time>
      </trkpt>
      <trkpt lat="45.65604" lon="4.65259">
        <ele>526.6</ele>
        <time>2025-08-06T07:41:25Z</time>
      </trkpt>
      <trkpt lat="45.65601" lon="4.65257">
        <ele>526.8</ele>
        <time>2025-08-06T07:41:26Z</time>
      </trkpt>
      <trkpt lat="45.65598" lon="4.65254">
        <ele>527</ele>
        <time>2025-08-06T07:41:27Z</time>
      </trkpt>
      <trkpt lat="45.65595" lon="4.65252">
        <ele>527.2</ele>
        <time>2025-08-06T07:41:28Z</time>
      </trkpt>
      <trkpt lat="45.65592" lon="4.6525">
        <ele>527.6</ele>
        <time>2025-08-06T07:41:29Z</time>
      </trkpt>
      <trkpt lat="45.65589" lon="4.65248">
        <ele>528</ele>
        <time>2025-08-06T07:41:30Z</time>
      </trkpt>
      <trkpt lat="45.65586" lon="4.65246">
        <ele>528.2</ele>
        <time>2025-08-06T07:41:31Z</time>
      </trkpt>
      <trkpt lat="45.65583" lon="4.65244">
        <ele>528.4</ele>
        <time>2025-08-06T07:41:32Z</time>
      </trkpt>
      <trkpt lat="45.65581" lon="4.65242">
        <ele>528.8</ele>
        <time>2025-08-06T07:41:33Z</time>
      </trkpt>
      <trkpt lat="45.65578" lon="4.6524">
        <ele>529</ele>
        <time>2025-08-06T07:41:34Z</time>
      </trkpt>
      <trkpt lat="45.65575" lon="4.65239">
        <ele>529.4</ele>
        <time>2025-08-06T07:41:35Z</time>
      </trkpt>
      <trkpt lat="45.65573" lon="4.65237">
        <ele>529.6</ele>
        <time>2025-08-06T07:41:36Z</time>
      </trkpt>
      <trkpt lat="45.6557" lon="4.65235">
        <ele>530</ele>
        <time>2025-08-06T07:41:37Z</time>
      </trkpt>
      <trkpt lat="45.65568" lon="4.65233">
        <ele>530.2</ele>
        <time>2025-08-06T07:41:38Z</time>
      </trkpt>
      <trkpt lat="45.65566" lon="4.65231">
        <ele>530.4</ele>
        <time>2025-08-06T07:41:39Z</time>
      </trkpt>
      <trkpt lat="45.65564" lon="4.65229">
        <ele>530.4</ele>
        <time>2025-08-06T07:41:40Z</time>
      </trkpt>
      <trkpt lat="45.65562" lon="4.65227">
        <ele>530.6</ele>
        <time>2025-08-06T07:41:41Z</time>
      </trkpt>
      <trkpt lat="45.6556" lon="4.65224">
        <ele>530.8</ele>
        <time>2025-08-06T07:41:42Z</time>
      </trkpt>
      <trkpt lat="45.6556" lon="4.6522">
        <ele>530.8</ele>
        <time>2025-08-06T07:41:43Z</time>
      </trkpt>
      <trkpt lat="45.65561" lon="4.65217">
        <ele>531</ele>
        <time>2025-08-06T07:41:44Z</time>
      </trkpt>
      <trkpt lat="45.65562" lon="4.65214">
        <ele>531</ele>
        <time>2025-08-06T07:41:45Z</time>
      </trkpt>
      <trkpt lat="45.65564" lon="4.6521">
        <ele>531</ele>
        <time>2025-08-06T07:41:46Z</time>
      </trkpt>
      <trkpt lat="45.65565" lon="4.65208">
        <ele>531</ele>
        <time>2025-08-06T07:41:47Z</time>
      </trkpt>
      <trkpt lat="45.65566" lon="4.65207">
        <ele>531</ele>
        <time>2025-08-06T07:41:48Z</time>
      </trkpt>
      <trkpt lat="45.65566" lon="4.65207">
        <ele>531</ele>
        <time>2025-08-06T07:41:49Z</time>
      </trkpt>
      <trkpt lat="45.65569" lon="4.65203">
        <ele>530.8</ele>
        <time>2025-08-06T07:45:45Z</time>
      </trkpt>
      <trkpt lat="45.6557" lon="4.65201">
        <ele>531.4</ele>
        <time>2025-08-06T07:45:46Z</time>
      </trkpt>
      <trkpt lat="45.65572" lon="4.65198">
        <ele>531.2</ele>
        <time>2025-08-06T07:45:47Z</time>
      </trkpt>
      <trkpt lat="45.65574" lon="4.65195">
        <ele>530.8</ele>
        <time>2025-08-06T07:45:48Z</time>
      </trkpt>
      <trkpt lat="45.65577" lon="4.65191">
        <ele>530.2</ele>
        <time>2025-08-06T07:45:49Z</time>
      </trkpt>
      <trkpt lat="45.6558" lon="4.65187">
        <ele>529.8</ele>
        <time>2025-08-06T07:45:50Z</time>
      </trkpt>
      <trkpt lat="45.65582" lon="4.65183">
        <ele>529.6</ele>
        <time>2025-08-06T07:45:51Z</time>
      </trkpt>
      <trkpt lat="45.65585" lon="4.65179">
        <ele>529.4</ele>
        <time>2025-08-06T07:45:52Z</time>
      </trkpt>
      <trkpt lat="45.65588" lon="4.65174">
        <ele>529.2</ele>
        <time>2025-08-06T07:45:53Z</time>
      </trkpt>
      <trkpt lat="45.65591" lon="4.65169">
        <ele>529.2</ele>
        <time>2025-08-06T07:45:54Z</time>
      </trkpt>
      <trkpt lat="45.65594" lon="4.65165">
        <ele>528.8</ele>
        <time>2025-08-06T07:45:55Z</time>
      </trkpt>
      <trkpt lat="45.65598" lon="4.6516">
        <ele>528.4</ele>
        <time>2025-08-06T07:45:56Z</time>
      </trkpt>
      <trkpt lat="45.65601" lon="4.65154">
        <ele>528</ele>
        <time>2025-08-06T07:45:57Z</time>
      </trkpt>
      <trkpt lat="45.65604" lon="4.65149">
        <ele>527.6</ele>
        <time>2025-08-06T07:45:58Z</time>
      </trkpt>
      <trkpt lat="45.65608" lon="4.65144">
        <ele>527</ele>
        <time>2025-08-06T07:45:59Z</time>
      </trkpt>
      <trkpt lat="45.65611" lon="4.65139">
        <ele>526.8</ele>
        <time>2025-08-06T07:46:00Z</time>
      </trkpt>
      <trkpt lat="45.65615" lon="4.65133">
        <ele>526.4</ele>
        <time>2025-08-06T07:46:01Z</time>
      </trkpt>
      <trkpt lat="45.65619" lon="4.65127">
        <ele>526.2</ele>
        <time>2025-08-06T07:46:02Z</time>
      </trkpt>
      <trkpt lat="45.65623" lon="4.65121">
        <ele>526</ele>
        <time>2025-08-06T07:46:03Z</time>
      </trkpt>
      <trkpt lat="45.65627" lon="4.65115">
        <ele>525.6</ele>
        <time>2025-08-06T07:46:04Z</time>
      </trkpt>
      <trkpt lat="45.65631" lon="4.65109">
        <ele>525.2</ele>
        <time>2025-08-06T07:46:05Z</time>
      </trkpt>
      <trkpt lat="45.65635" lon="4.65103">
        <ele>524.8</ele>
        <time>2025-08-06T07:46:06Z</time>
      </trkpt>
      <trkpt lat="45.65639" lon="4.65097">
        <ele>524.4</ele>
        <time>2025-08-06T07:46:07Z</time>
      </trkpt>
      <trkpt lat="45.65643" lon="4.65091">
        <ele>524</ele>
        <time>2025-08-06T07:46:08Z</time>
      </trkpt>
      <trkpt lat="45.65648" lon="4.65084">
        <ele>523.6</ele>
        <time>2025-08-06T07:46:09Z</time>
      </trkpt>
      <trkpt lat="45.65653" lon="4.65078">
        <ele>523</ele>
        <time>2025-08-06T07:46:10Z</time>
      </trkpt>
      <trkpt lat="45.65658" lon="4.65071">
        <ele>522.4</ele>
        <time>2025-08-06T07:46:11Z</time>
      </trkpt>
      <trkpt lat="45.65662" lon="4.65064">
        <ele>521.8</ele>
        <time>2025-08-06T07:46:12Z</time>
      </trkpt>
      <trkpt lat="45.65667" lon="4.65058">
        <ele>521.2</ele>
        <time>2025-08-06T07:46:13Z</time>
      </trkpt>
      <trkpt lat="45.65671" lon="4.65051">
        <ele>520.6</ele>
        <time>2025-08-06T07:46:14Z</time>
      </trkpt>
      <trkpt lat="45.65676" lon="4.65044">
        <ele>520</ele>
        <time>2025-08-06T07:46:15Z</time>
      </trkpt>
      <trkpt lat="45.65681" lon="4.65038">
        <ele>519.6</ele>
        <time>2025-08-06T07:46:16Z</time>
      </trkpt>
      <trkpt lat="45.65685" lon="4.65031">
        <ele>519.2</ele>
        <time>2025-08-06T07:46:17Z</time>
      </trkpt>
      <trkpt lat="45.6569" lon="4.65026">
        <ele>519</ele>
        <time>2025-08-06T07:46:18Z</time>
      </trkpt>
      <trkpt lat="45.65696" lon="4.6502">
        <ele>518.8</ele>
        <time>2025-08-06T07:46:19Z</time>
      </trkpt>
      <trkpt lat="45.65701" lon="4.65015">
        <ele>518.4</ele>
        <time>2025-08-06T07:46:20Z</time>
      </trkpt>
      <trkpt lat="45.65707" lon="4.65011">
        <ele>518</ele>
        <time>2025-08-06T07:46:21Z</time>
      </trkpt>
      <trkpt lat="45.65713" lon="4.65006">
        <ele>517.6</ele>
        <time>2025-08-06T07:46:22Z</time>
      </trkpt>
      <trkpt lat="45.65718" lon="4.65002">
        <ele>517.2</ele>
        <time>2025-08-06T07:46:23Z</time>
      </trkpt>
      <trkpt lat="45.65724" lon="4.64997">
        <ele>517</ele>
        <time>2025-08-06T07:46:24Z</time>
      </trkpt>
      <trkpt lat="45.6573" lon="4.64992">
        <ele>516.6</ele>
        <time>2025-08-06T07:46:25Z</time>
      </trkpt>
      <trkpt lat="45.65735" lon="4.64988">
        <ele>516.4</ele>
        <time>2025-08-06T07:46:26Z</time>
      </trkpt>
      <trkpt lat="45.65741" lon="4.64983">
        <ele>516.4</ele>
        <time>2025-08-06T07:46:27Z</time>
      </trkpt>
      <trkpt lat="45.65747" lon="4.64979">
        <ele>516.4</ele>
        <time>2025-08-06T07:46:28Z</time>
      </trkpt>
      <trkpt lat="45.65752" lon="4.64974">
        <ele>516.2</ele>
        <time>2025-08-06T07:46:29Z</time>
      </trkpt>
      <trkpt lat="45.65758" lon="4.6497">
        <ele>516.2</ele>
        <time>2025-08-06T07:46:30Z</time>
      </trkpt>
      <trkpt lat="45.65763" lon="4.64966">
        <ele>516.2</ele>
        <time>2025-08-06T07:46:31Z</time>
      </trkpt>
      <trkpt lat="45.65767" lon="4.64962">
        <ele>516.2</ele>
        <time>2025-08-06T07:46:32Z</time>
      </trkpt>
      <trkpt lat="45.65772" lon="4.64958">
        <ele>516.2</ele>
        <time>2025-08-06T07:46:33Z</time>
      </trkpt>
      <trkpt lat="45.65776" lon="4.64955">
        <ele>516.4</ele>
        <time>2025-08-06T07:46:34Z</time>
      </trkpt>
      <trkpt lat="45.65779" lon="4.6495">
        <ele>516.4</ele>
        <time>2025-08-06T07:46:35Z</time>
      </trkpt>
      <trkpt lat="45.65782" lon="4.64946">
        <ele>516.4</ele>
        <time>2025-08-06T07:46:36Z</time>
      </trkpt>
      <trkpt lat="45.65785" lon="4.64941">
        <ele>516.4</ele>
        <time>2025-08-06T07:46:37Z</time>
      </trkpt>
      <trkpt lat="45.65789" lon="4.64936">
        <ele>516.4</ele>
        <time>2025-08-06T07:46:38Z</time>
      </trkpt>
      <trkpt lat="45.65792" lon="4.64931">
        <ele>516.2</ele>
        <time>2025-08-06T07:46:39Z</time>
      </trkpt>
      <trkpt lat="45.65796" lon="4.64927">
        <ele>516</ele>
        <time>2025-08-06T07:46:40Z</time>
      </trkpt>
      <trkpt lat="45.658" lon="4.64922">
        <ele>515.6</ele>
        <time>2025-08-06T07:46:41Z</time>
      </trkpt>
      <trkpt lat="45.65804" lon="4.64918">
        <ele>515.2</ele>
        <time>2025-08-06T07:46:42Z</time>
      </trkpt>
      <trkpt lat="45.65808" lon="4.64913">
        <ele>514.8</ele>
        <time>2025-08-06T07:46:43Z</time>
      </trkpt>
      <trkpt lat="45.65813" lon="4.64909">
        <ele>514.2</ele>
        <time>2025-08-06T07:46:44Z</time>
      </trkpt>
      <trkpt lat="45.65818" lon="4.64905">
        <ele>513.4</ele>
        <time>2025-08-06T07:46:45Z</time>
      </trkpt>
      <trkpt lat="45.65823" lon="4.64902">
        <ele>512.8</ele>
        <time>2025-08-06T07:46:46Z</time>
      </trkpt>
      <trkpt lat="45.65827" lon="4.64898">
        <ele>512</ele>
        <time>2025-08-06T07:46:47Z</time>
      </trkpt>
      <trkpt lat="45.65832" lon="4.64894">
        <ele>511.4</ele>
        <time>2025-08-06T07:46:48Z</time>
      </trkpt>
      <trkpt lat="45.65836" lon="4.64889">
        <ele>510.8</ele>
        <time>2025-08-06T07:46:49Z</time>
      </trkpt>
      <trkpt lat="45.6584" lon="4.64884">
        <ele>510.2</ele>
        <time>2025-08-06T07:46:50Z</time>
      </trkpt>
      <trkpt lat="45.65845" lon="4.64879">
        <ele>509.6</ele>
        <time>2025-08-06T07:46:51Z</time>
      </trkpt>
      <trkpt lat="45.65849" lon="4.64875">
        <ele>509</ele>
        <time>2025-08-06T07:46:52Z</time>
      </trkpt>
      <trkpt lat="45.65853" lon="4.6487">
        <ele>508.6</ele>
        <time>2025-08-06T07:46:53Z</time>
      </trkpt>
      <trkpt lat="45.65857" lon="4.64865">
        <ele>508</ele>
        <time>2025-08-06T07:46:54Z</time>
      </trkpt>
      <trkpt lat="45.65862" lon="4.6486">
        <ele>507.4</ele>
        <time>2025-08-06T07:46:55Z</time>
      </trkpt>
      <trkpt lat="45.65866" lon="4.64855">
        <ele>506.8</ele>
        <time>2025-08-06T07:46:56Z</time>
      </trkpt>
      <trkpt lat="45.6587" lon="4.64848">
        <ele>506.2</ele>
        <time>2025-08-06T07:46:57Z</time>
      </trkpt>
      <trkpt lat="45.65875" lon="4.64842">
        <ele>505.6</ele>
        <time>2025-08-06T07:46:58Z</time>
      </trkpt>
      <trkpt lat="45.65879" lon="4.64836">
        <ele>505</ele>
        <time>2025-08-06T07:46:59Z</time>
      </trkpt>
      <trkpt lat="45.65884" lon="4.6483">
        <ele>504.2</ele>
        <time>2025-08-06T07:47:00Z</time>
      </trkpt>
      <trkpt lat="45.65889" lon="4.64824">
        <ele>503.8</ele>
        <time>2025-08-06T07:47:01Z</time>
      </trkpt>
      <trkpt lat="45.65893" lon="4.64818">
        <ele>503.4</ele>
        <time>2025-08-06T07:47:02Z</time>
      </trkpt>
      <trkpt lat="45.65897" lon="4.64812">
        <ele>503.2</ele>
        <time>2025-08-06T07:47:03Z</time>
      </trkpt>
      <trkpt lat="45.659" lon="4.64806">
        <ele>503</ele>
        <time>2025-08-06T07:47:04Z</time>
      </trkpt>
      <trkpt lat="45.65903" lon="4.648">
        <ele>502.8</ele>
        <time>2025-08-06T07:47:05Z</time>
      </trkpt>
      <trkpt lat="45.65905" lon="4.64793">
        <ele>502.8</ele>
        <time>2025-08-06T07:47:06Z</time>
      </trkpt>
      <trkpt lat="45.65907" lon="4.64784">
        <ele>502.4</ele>
        <time>2025-08-06T07:47:07Z</time>
      </trkpt>
      <trkpt lat="45.65908" lon="4.64775">
        <ele>501.8</ele>
        <time>2025-08-06T07:47:08Z</time>
      </trkpt>
      <trkpt lat="45.65909" lon="4.64766">
        <ele>501.2</ele>
        <time>2025-08-06T07:47:09Z</time>
      </trkpt>
      <trkpt lat="45.6591" lon="4.64757">
        <ele>500.6</ele>
        <time>2025-08-06T07:47:10Z</time>
      </trkpt>
      <trkpt lat="45.65912" lon="4.64747">
        <ele>499.8</ele>
        <time>2025-08-06T07:47:11Z</time>
      </trkpt>
      <trkpt lat="45.65914" lon="4.64738">
        <ele>499.4</ele>
        <time>2025-08-06T07:47:12Z</time>
      </trkpt>
      <trkpt lat="45.65915" lon="4.64729">
        <ele>499</ele>
        <time>2025-08-06T07:47:13Z</time>
      </trkpt>
      <trkpt lat="45.65917" lon="4.6472">
        <ele>498.8</ele>
        <time>2025-08-06T07:47:14Z</time>
      </trkpt>
      <trkpt lat="45.65918" lon="4.64711">
        <ele>498.8</ele>
        <time>2025-08-06T07:47:15Z</time>
      </trkpt>
      <trkpt lat="45.65918" lon="4.64703">
        <ele>498.8</ele>
        <time>2025-08-06T07:47:16Z</time>
      </trkpt>
      <trkpt lat="45.65918" lon="4.64695">
        <ele>498.8</ele>
        <time>2025-08-06T07:47:17Z</time>
      </trkpt>
      <trkpt lat="45.65918" lon="4.64687">
        <ele>498.6</ele>
        <time>2025-08-06T07:47:18Z</time>
      </trkpt>
      <trkpt lat="45.65918" lon="4.64679">
        <ele>498.6</ele>
        <time>2025-08-06T07:47:19Z</time>
      </trkpt>
      <trkpt lat="45.65918" lon="4.64671">
        <ele>498.4</ele>
        <time>2025-08-06T07:47:20Z</time>
      </trkpt>
      <trkpt lat="45.65917" lon="4.64662">
        <ele>498.2</ele>
        <time>2025-08-06T07:47:21Z</time>
      </trkpt>
      <trkpt lat="45.65918" lon="4.64654">
        <ele>497.8</ele>
        <time>2025-08-06T07:47:22Z</time>
      </trkpt>
      <trkpt lat="45.65919" lon="4.64645">
        <ele>497.4</ele>
        <time>2025-08-06T07:47:23Z</time>
      </trkpt>
      <trkpt lat="45.6592" lon="4.64637">
        <ele>497</ele>
        <time>2025-08-06T07:47:24Z</time>
      </trkpt>
      <trkpt lat="45.65921" lon="4.64629">
        <ele>496.4</ele>
        <time>2025-08-06T07:47:25Z</time>
      </trkpt>
      <trkpt lat="45.65923" lon="4.6462">
        <ele>495.8</ele>
        <time>2025-08-06T07:47:26Z</time>
      </trkpt>
      <trkpt lat="45.65924" lon="4.64611">
        <ele>495.2</ele>
        <time>2025-08-06T07:47:27Z</time>
      </trkpt>
      <trkpt lat="45.65926" lon="4.64602">
        <ele>494.2</ele>
        <time>2025-08-06T07:47:28Z</time>
      </trkpt>
      <trkpt lat="45.65927" lon="4.64594">
        <ele>493.4</ele>
        <time>2025-08-06T07:47:29Z</time>
      </trkpt>
      <trkpt lat="45.65928" lon="4.64587">
        <ele>492.4</ele>
        <time>2025-08-06T07:47:30Z</time>
      </trkpt>
      <trkpt lat="45.65928" lon="4.64579">
        <ele>491.6</ele>
        <time>2025-08-06T07:47:31Z</time>
      </trkpt>
      <trkpt lat="45.65928" lon="4.64571">
        <ele>490.6</ele>
        <time>2025-08-06T07:47:32Z</time>
      </trkpt>
      <trkpt lat="45.65927" lon="4.64564">
        <ele>489.8</ele>
        <time>2025-08-06T07:47:33Z</time>
      </trkpt>
      <trkpt lat="45.65926" lon="4.64557">
        <ele>489</ele>
        <time>2025-08-06T07:47:34Z</time>
      </trkpt>
      <trkpt lat="45.65924" lon="4.6455">
        <ele>488.2</ele>
        <time>2025-08-06T07:47:35Z</time>
      </trkpt>
      <trkpt lat="45.65922" lon="4.64544">
        <ele>487.4</ele>
        <time>2025-08-06T07:47:36Z</time>
      </trkpt>
      <trkpt lat="45.65921" lon="4.64538">
        <ele>486.8</ele>
        <time>2025-08-06T07:47:37Z</time>
      </trkpt>
      <trkpt lat="45.6592" lon="4.64534">
        <ele>486.2</ele>
        <time>2025-08-06T07:47:38Z</time>
      </trkpt>
      <trkpt lat="45.65918" lon="4.64529">
        <ele>485.6</ele>
        <time>2025-08-06T07:47:39Z</time>
      </trkpt>
      <trkpt lat="45.65917" lon="4.64524">
        <ele>485</ele>
        <time>2025-08-06T07:47:40Z</time>
      </trkpt>
      <trkpt lat="45.65916" lon="4.6452">
        <ele>484.6</ele>
        <time>2025-08-06T07:47:41Z</time>
      </trkpt>
      <trkpt lat="45.65916" lon="4.64516">
        <ele>484.2</ele>
        <time>2025-08-06T07:47:42Z</time>
      </trkpt>
      <trkpt lat="45.65916" lon="4.64512">
        <ele>483.8</ele>
        <time>2025-08-06T07:47:43Z</time>
      </trkpt>
      <trkpt lat="45.65916" lon="4.64509">
        <ele>483.2</ele>
        <time>2025-08-06T07:47:44Z</time>
      </trkpt>
      <trkpt lat="45.65915" lon="4.64505">
        <ele>482.8</ele>
        <time>2025-08-06T07:47:45Z</time>
      </trkpt>
      <trkpt lat="45.65915" lon="4.64501">
        <ele>482.2</ele>
        <time>2025-08-06T07:47:46Z</time>
      </trkpt>
      <trkpt lat="45.65914" lon="4.64496">
        <ele>481.8</ele>
        <time>2025-08-06T07:47:47Z</time>
      </trkpt>
      <trkpt lat="45.65914" lon="4.64491">
        <ele>481.2</ele>
        <time>2025-08-06T07:47:48Z</time>
      </trkpt>
      <trkpt lat="45.65915" lon="4.64487">
        <ele>480.6</ele>
        <time>2025-08-06T07:47:49Z</time>
      </trkpt>
      <trkpt lat="45.65915" lon="4.64483">
        <ele>480</ele>
        <time>2025-08-06T07:47:50Z</time>
      </trkpt>
      <trkpt lat="45.65917" lon="4.64479">
        <ele>479.4</ele>
        <time>2025-08-06T07:47:51Z</time>
      </trkpt>
      <trkpt lat="45.65919" lon="4.64476">
        <ele>478.8</ele>
        <time>2025-08-06T07:47:52Z</time>
      </trkpt>
      <trkpt lat="45.65921" lon="4.64473">
        <ele>478.2</ele>
        <time>2025-08-06T07:47:53Z</time>
      </trkpt>
      <trkpt lat="45.65924" lon="4.6447">
        <ele>477.4</ele>
        <time>2025-08-06T07:47:54Z</time>
      </trkpt>
      <trkpt lat="45.65927" lon="4.64468">
        <ele>477</ele>
        <time>2025-08-06T07:47:55Z</time>
      </trkpt>
      <trkpt lat="45.6593" lon="4.64467">
        <ele>476.4</ele>
        <time>2025-08-06T07:47:56Z</time>
      </trkpt>
      <trkpt lat="45.65933" lon="4.64465">
        <ele>475.6</ele>
        <time>2025-08-06T07:47:57Z</time>
      </trkpt>
      <trkpt lat="45.65935" lon="4.64464">
        <ele>475</ele>
        <time>2025-08-06T07:47:58Z</time>
      </trkpt>
      <trkpt lat="45.65938" lon="4.64462">
        <ele>474.4</ele>
        <time>2025-08-06T07:47:59Z</time>
      </trkpt>
      <trkpt lat="45.65941" lon="4.64459">
        <ele>473.8</ele>
        <time>2025-08-06T07:48:00Z</time>
      </trkpt>
      <trkpt lat="45.65943" lon="4.64456">
        <ele>473</ele>
        <time>2025-08-06T07:48:01Z</time>
      </trkpt>
      <trkpt lat="45.65946" lon="4.64453">
        <ele>472.4</ele>
        <time>2025-08-06T07:48:02Z</time>
      </trkpt>
      <trkpt lat="45.65949" lon="4.6445">
        <ele>472</ele>
        <time>2025-08-06T07:48:03Z</time>
      </trkpt>
      <trkpt lat="45.65952" lon="4.64445">
        <ele>471.4</ele>
        <time>2025-08-06T07:48:04Z</time>
      </trkpt>
      <trkpt lat="45.65954" lon="4.64438">
        <ele>470.8</ele>
        <time>2025-08-06T07:48:05Z</time>
      </trkpt>
      <trkpt lat="45.65957" lon="4.6443">
        <ele>470</ele>
        <time>2025-08-06T07:48:06Z</time>
      </trkpt>
      <trkpt lat="45.6596" lon="4.64422">
        <ele>469.2</ele>
        <time>2025-08-06T07:48:07Z</time>
      </trkpt>
      <trkpt lat="45.65963" lon="4.64413">
        <ele>468.2</ele>
        <time>2025-08-06T07:48:08Z</time>
      </trkpt>
      <trkpt lat="45.65965" lon="4.64404">
        <ele>467.2</ele>
        <time>2025-08-06T07:48:09Z</time>
      </trkpt>
      <trkpt lat="45.65968" lon="4.64396">
        <ele>466.2</ele>
        <time>2025-08-06T07:48:10Z</time>
      </trkpt>
      <trkpt lat="45.6597" lon="4.64388">
        <ele>465.4</ele>
        <time>2025-08-06T07:48:11Z</time>
      </trkpt>
      <trkpt lat="45.65972" lon="4.64381">
        <ele>464.6</ele>
        <time>2025-08-06T07:48:12Z</time>
      </trkpt>
      <trkpt lat="45.65973" lon="4.64375">
        <ele>464</ele>
        <time>2025-08-06T07:48:13Z</time>
      </trkpt>
      <trkpt lat="45.65974" lon="4.64371">
        <ele>463.6</ele>
        <time>2025-08-06T07:48:14Z</time>
      </trkpt>
      <trkpt lat="45.65975" lon="4.64367">
        <ele>463.2</ele>
        <time>2025-08-06T07:48:15Z</time>
      </trkpt>
      <trkpt lat="45.65976" lon="4.64363">
        <ele>463</ele>
        <time>2025-08-06T07:48:16Z</time>
      </trkpt>
      <trkpt lat="45.65977" lon="4.6436">
        <ele>462.8</ele>
        <time>2025-08-06T07:48:17Z</time>
      </trkpt>
      <trkpt lat="45.65977" lon="4.64356">
        <ele>462.4</ele>
        <time>2025-08-06T07:48:18Z</time>
      </trkpt>
      <trkpt lat="45.65978" lon="4.64353">
        <ele>462</ele>
        <time>2025-08-06T07:48:19Z</time>
      </trkpt>
      <trkpt lat="45.65978" lon="4.64349">
        <ele>461.6</ele>
        <time>2025-08-06T07:48:20Z</time>
      </trkpt>
      <trkpt lat="45.65979" lon="4.64345">
        <ele>461.2</ele>
        <time>2025-08-06T07:48:21Z</time>
      </trkpt>
      <trkpt lat="45.6598" lon="4.64341">
        <ele>460.6</ele>
        <time>2025-08-06T07:48:22Z</time>
      </trkpt>
      <trkpt lat="45.6598" lon="4.64338">
        <ele>460.2</ele>
        <time>2025-08-06T07:48:23Z</time>
      </trkpt>
      <trkpt lat="45.65981" lon="4.64333">
        <ele>459.8</ele>
        <time>2025-08-06T07:48:24Z</time>
      </trkpt>
      <trkpt lat="45.65981" lon="4.64329">
        <ele>459.4</ele>
        <time>2025-08-06T07:48:25Z</time>
      </trkpt>
      <trkpt lat="45.65982" lon="4.64324">
        <ele>458.8</ele>
        <time>2025-08-06T07:48:26Z</time>
      </trkpt>
      <trkpt lat="45.65982" lon="4.64319">
        <ele>458.4</ele>
        <time>2025-08-06T07:48:27Z</time>
      </trkpt>
      <trkpt lat="45.65981" lon="4.64314">
        <ele>458</ele>
        <time>2025-08-06T07:48:28Z</time>
      </trkpt>
      <trkpt lat="45.6598" lon="4.64309">
        <ele>457.6</ele>
        <time>2025-08-06T07:48:29Z</time>
      </trkpt>
      <trkpt lat="45.65978" lon="4.64304">
        <ele>457.2</ele>
        <time>2025-08-06T07:48:30Z</time>
      </trkpt>
      <trkpt lat="45.65975" lon="4.64299">
        <ele>456.8</ele>
        <time>2025-08-06T07:48:31Z</time>
      </trkpt>
      <trkpt lat="45.65972" lon="4.64294">
        <ele>456.2</ele>
        <time>2025-08-06T07:48:32Z</time>
      </trkpt>
      <trkpt lat="45.65969" lon="4.64289">
        <ele>456</ele>
        <time>2025-08-06T07:48:33Z</time>
      </trkpt>
      <trkpt lat="45.65966" lon="4.64285">
        <ele>455.6</ele>
        <time>2025-08-06T07:48:34Z</time>
      </trkpt>
      <trkpt lat="45.65963" lon="4.64281">
        <ele>455.2</ele>
        <time>2025-08-06T07:48:35Z</time>
      </trkpt>
      <trkpt lat="45.6596" lon="4.64278">
        <ele>455</ele>
        <time>2025-08-06T07:48:36Z</time>
      </trkpt>
      <trkpt lat="45.65959" lon="4.64274">
        <ele>454.8</ele>
        <time>2025-08-06T07:48:37Z</time>
      </trkpt>
      <trkpt lat="45.65957" lon="4.6427">
        <ele>454.4</ele>
        <time>2025-08-06T07:48:38Z</time>
      </trkpt>
      <trkpt lat="45.65956" lon="4.64266">
        <ele>454</ele>
        <time>2025-08-06T07:48:39Z</time>
      </trkpt>
      <trkpt lat="45.65955" lon="4.64262">
        <ele>453.8</ele>
        <time>2025-08-06T07:48:40Z</time>
      </trkpt>
      <trkpt lat="45.65954" lon="4.64258">
        <ele>453.4</ele>
        <time>2025-08-06T07:48:41Z</time>
      </trkpt>
      <trkpt lat="45.65952" lon="4.64254">
        <ele>452.8</ele>
        <time>2025-08-06T07:48:42Z</time>
      </trkpt>
      <trkpt lat="45.6595" lon="4.6425">
        <ele>452.4</ele>
        <time>2025-08-06T07:48:43Z</time>
      </trkpt>
      <trkpt lat="45.65948" lon="4.64246">
        <ele>452</ele>
        <time>2025-08-06T07:48:44Z</time>
      </trkpt>
      <trkpt lat="45.65946" lon="4.64243">
        <ele>451.4</ele>
        <time>2025-08-06T07:48:45Z</time>
      </trkpt>
      <trkpt lat="45.65943" lon="4.6424">
        <ele>451</ele>
        <time>2025-08-06T07:48:46Z</time>
      </trkpt>
      <trkpt lat="45.6594" lon="4.64238">
        <ele>450.4</ele>
        <time>2025-08-06T07:48:47Z</time>
      </trkpt>
      <trkpt lat="45.65938" lon="4.64236">
        <ele>449.8</ele>
        <time>2025-08-06T07:48:48Z</time>
      </trkpt>
      <trkpt lat="45.65936" lon="4.64235">
        <ele>449.4</ele>
        <time>2025-08-06T07:48:49Z</time>
      </trkpt>
      <trkpt lat="45.65933" lon="4.64233">
        <ele>448.8</ele>
        <time>2025-08-06T07:48:50Z</time>
      </trkpt>
      <trkpt lat="45.65931" lon="4.64231">
        <ele>448.4</ele>
        <time>2025-08-06T07:48:51Z</time>
      </trkpt>
      <trkpt lat="45.65928" lon="4.64228">
        <ele>447.8</ele>
        <time>2025-08-06T07:48:52Z</time>
      </trkpt>
      <trkpt lat="45.65926" lon="4.64225">
        <ele>447.2</ele>
        <time>2025-08-06T07:48:53Z</time>
      </trkpt>
      <trkpt lat="45.65924" lon="4.64223">
        <ele>446.6</ele>
        <time>2025-08-06T07:48:54Z</time>
      </trkpt>
      <trkpt lat="45.65922" lon="4.6422">
        <ele>446</ele>
        <time>2025-08-06T07:48:55Z</time>
      </trkpt>
      <trkpt lat="45.65921" lon="4.64216">
        <ele>445.2</ele>
        <time>2025-08-06T07:48:56Z</time>
      </trkpt>
      <trkpt lat="45.6592" lon="4.64212">
        <ele>444.6</ele>
        <time>2025-08-06T07:48:57Z</time>
      </trkpt>
      <trkpt lat="45.65919" lon="4.64207">
        <ele>444</ele>
        <time>2025-08-06T07:48:58Z</time>
      </trkpt>
      <trkpt lat="45.65919" lon="4.64203">
        <ele>443.4</ele>
        <time>2025-08-06T07:48:59Z</time>
      </trkpt>
      <trkpt lat="45.6592" lon="4.64198">
        <ele>442.8</ele>
        <time>2025-08-06T07:49:00Z</time>
      </trkpt>
      <trkpt lat="45.65922" lon="4.64193">
        <ele>442.4</ele>
        <time>2025-08-06T07:49:01Z</time>
      </trkpt>
      <trkpt lat="45.65923" lon="4.64189">
        <ele>442</ele>
        <time>2025-08-06T07:49:02Z</time>
      </trkpt>
      <trkpt lat="45.65923" lon="4.64185">
        <ele>441.6</ele>
        <time>2025-08-06T07:49:03Z</time>
      </trkpt>
      <trkpt lat="45.65924" lon="4.64182">
        <ele>441.2</ele>
        <time>2025-08-06T07:49:04Z</time>
      </trkpt>
      <trkpt lat="45.65924" lon="4.64178">
        <ele>440.8</ele>
        <time>2025-08-06T07:49:05Z</time>
      </trkpt>
      <trkpt lat="45.65925" lon="4.64174">
        <ele>440.2</ele>
        <time>2025-08-06T07:49:06Z</time>
      </trkpt>
      <trkpt lat="45.65926" lon="4.64171">
        <ele>439.6</ele>
        <time>2025-08-06T07:49:07Z</time>
      </trkpt>
      <trkpt lat="45.65926" lon="4.64167">
        <ele>439</ele>
        <time>2025-08-06T07:49:08Z</time>
      </trkpt>
      <trkpt lat="45.65927" lon="4.64164">
        <ele>438.4</ele>
        <time>2025-08-06T07:49:09Z</time>
      </trkpt>
      <trkpt lat="45.65928" lon="4.6416">
        <ele>437.8</ele>
        <time>2025-08-06T07:49:10Z</time>
      </trkpt>
      <trkpt lat="45.6593" lon="4.64157">
        <ele>437.4</ele>
        <time>2025-08-06T07:49:11Z</time>
      </trkpt>
      <trkpt lat="45.65931" lon="4.64153">
        <ele>437</ele>
        <time>2025-08-06T07:49:12Z</time>
      </trkpt>
      <trkpt lat="45.65933" lon="4.6415">
        <ele>436.6</ele>
        <time>2025-08-06T07:49:13Z</time>
      </trkpt>
      <trkpt lat="45.65936" lon="4.64148">
        <ele>436.2</ele>
        <time>2025-08-06T07:49:14Z</time>
      </trkpt>
      <trkpt lat="45.65938" lon="4.64145">
        <ele>435.8</ele>
        <time>2025-08-06T07:49:15Z</time>
      </trkpt>
      <trkpt lat="45.6594" lon="4.64142">
        <ele>435.4</ele>
        <time>2025-08-06T07:49:16Z</time>
      </trkpt>
      <trkpt lat="45.65942" lon="4.64139">
        <ele>435</ele>
        <time>2025-08-06T07:49:17Z</time>
      </trkpt>
      <trkpt lat="45.65946" lon="4.64137">
        <ele>434.6</ele>
        <time>2025-08-06T07:49:18Z</time>
      </trkpt>
      <trkpt lat="45.65949" lon="4.64135">
        <ele>434</ele>
        <time>2025-08-06T07:49:19Z</time>
      </trkpt>
      <trkpt lat="45.65951" lon="4.64133">
        <ele>433.6</ele>
        <time>2025-08-06T07:49:20Z</time>
      </trkpt>
      <trkpt lat="45.65954" lon="4.64131">
        <ele>433.2</ele>
        <time>2025-08-06T07:49:21Z</time>
      </trkpt>
      <trkpt lat="45.65956" lon="4.6413">
        <ele>432.8</ele>
        <time>2025-08-06T07:49:22Z</time>
      </trkpt>
      <trkpt lat="45.65958" lon="4.64129">
        <ele>432.4</ele>
        <time>2025-08-06T07:49:23Z</time>
      </trkpt>
      <trkpt lat="45.6596" lon="4.64128">
        <ele>432.2</ele>
        <time>2025-08-06T07:49:24Z</time>
      </trkpt>
      <trkpt lat="45.65962" lon="4.64127">
        <ele>432</ele>
        <time>2025-08-06T07:49:25Z</time>
      </trkpt>
      <trkpt lat="45.65964" lon="4.64126">
        <ele>431.6</ele>
        <time>2025-08-06T07:49:26Z</time>
      </trkpt>
      <trkpt lat="45.65966" lon="4.64126">
        <ele>431.4</ele>
        <time>2025-08-06T07:49:27Z</time>
      </trkpt>
      <trkpt lat="45.65968" lon="4.64125">
        <ele>431</ele>
        <time>2025-08-06T07:49:28Z</time>
      </trkpt>
      <trkpt lat="45.6597" lon="4.64124">
        <ele>430.6</ele>
        <time>2025-08-06T07:49:29Z</time>
      </trkpt>
      <trkpt lat="45.65972" lon="4.64121">
        <ele>430</ele>
        <time>2025-08-06T07:49:30Z</time>
      </trkpt>
      <trkpt lat="45.65975" lon="4.6412">
        <ele>429.6</ele>
        <time>2025-08-06T07:49:31Z</time>
      </trkpt>
      <trkpt lat="45.65977" lon="4.6412">
        <ele>429.2</ele>
        <time>2025-08-06T07:49:32Z</time>
      </trkpt>
      <trkpt lat="45.6598" lon="4.6412">
        <ele>428.6</ele>
        <time>2025-08-06T07:49:33Z</time>
      </trkpt>
      <trkpt lat="45.65982" lon="4.6412">
        <ele>428.2</ele>
        <time>2025-08-06T07:49:34Z</time>
      </trkpt>
      <trkpt lat="45.65984" lon="4.6412">
        <ele>427.8</ele>
        <time>2025-08-06T07:49:35Z</time>
      </trkpt>
      <trkpt lat="45.65986" lon="4.6412">
        <ele>427.4</ele>
        <time>2025-08-06T07:49:36Z</time>
      </trkpt>
      <trkpt lat="45.65989" lon="4.6412">
        <ele>426.8</ele>
        <time>2025-08-06T07:49:37Z</time>
      </trkpt>
      <trkpt lat="45.65991" lon="4.6412">
        <ele>426.4</ele>
        <time>2025-08-06T07:49:38Z</time>
      </trkpt>
      <trkpt lat="45.65993" lon="4.6412">
        <ele>425.8</ele>
        <time>2025-08-06T07:49:39Z</time>
      </trkpt>
      <trkpt lat="45.65996" lon="4.64119">
        <ele>425.4</ele>
        <time>2025-08-06T07:49:40Z</time>
      </trkpt>
      <trkpt lat="45.65999" lon="4.64118">
        <ele>425</ele>
        <time>2025-08-06T07:49:41Z</time>
      </trkpt>
      <trkpt lat="45.66002" lon="4.64118">
        <ele>424.2</ele>
        <time>2025-08-06T07:49:42Z</time>
      </trkpt>
      <trkpt lat="45.66005" lon="4.64117">
        <ele>423.6</ele>
        <time>2025-08-06T07:49:43Z</time>
      </trkpt>
      <trkpt lat="45.66008" lon="4.64117">
        <ele>423</ele>
        <time>2025-08-06T07:49:44Z</time>
      </trkpt>
      <trkpt lat="45.6601" lon="4.64116">
        <ele>422.4</ele>
        <time>2025-08-06T07:49:45Z</time>
      </trkpt>
      <trkpt lat="45.66014" lon="4.64115">
        <ele>421.8</ele>
        <time>2025-08-06T07:49:46Z</time>
      </trkpt>
      <trkpt lat="45.66018" lon="4.64115">
        <ele>421.4</ele>
        <time>2025-08-06T07:49:47Z</time>
      </trkpt>
      <trkpt lat="45.66022" lon="4.64113">
        <ele>420.8</ele>
        <time>2025-08-06T07:49:48Z</time>
      </trkpt>
      <trkpt lat="45.66025" lon="4.64109">
        <ele>420.2</ele>
        <time>2025-08-06T07:49:49Z</time>
      </trkpt>
      <trkpt lat="45.66027" lon="4.64105">
        <ele>419.6</ele>
        <time>2025-08-06T07:49:50Z</time>
      </trkpt>
      <trkpt lat="45.66028" lon="4.64101">
        <ele>419</ele>
        <time>2025-08-06T07:49:51Z</time>
      </trkpt>
      <trkpt lat="45.66028" lon="4.64096">
        <ele>418.4</ele>
        <time>2025-08-06T07:49:52Z</time>
      </trkpt>
      <trkpt lat="45.66027" lon="4.64091">
        <ele>417.8</ele>
        <time>2025-08-06T07:49:53Z</time>
      </trkpt>
      <trkpt lat="45.66026" lon="4.64087">
        <ele>417.4</ele>
        <time>2025-08-06T07:49:54Z</time>
      </trkpt>
      <trkpt lat="45.66024" lon="4.64083">
        <ele>416.8</ele>
        <time>2025-08-06T07:49:55Z</time>
      </trkpt>
      <trkpt lat="45.66023" lon="4.64079">
        <ele>416.2</ele>
        <time>2025-08-06T07:49:56Z</time>
      </trkpt>
      <trkpt lat="45.66022" lon="4.64074">
        <ele>415.6</ele>
        <time>2025-08-06T07:49:57Z</time>
      </trkpt>
      <trkpt lat="45.66021" lon="4.6407">
        <ele>414.8</ele>
        <time>2025-08-06T07:49:58Z</time>
      </trkpt>
      <trkpt lat="45.6602" lon="4.64066">
        <ele>414.2</ele>
        <time>2025-08-06T07:49:59Z</time>
      </trkpt>
      <trkpt lat="45.66019" lon="4.64061">
        <ele>413.8</ele>
        <time>2025-08-06T07:50:00Z</time>
      </trkpt>
      <trkpt lat="45.66018" lon="4.64057">
        <ele>413</ele>
        <time>2025-08-06T07:50:01Z</time>
      </trkpt>
      <trkpt lat="45.66016" lon="4.64051">
        <ele>412.6</ele>
        <time>2025-08-06T07:50:02Z</time>
      </trkpt>
      <trkpt lat="45.66015" lon="4.64046">
        <ele>412</ele>
        <time>2025-08-06T07:50:03Z</time>
      </trkpt>
      <trkpt lat="45.66014" lon="4.64041">
        <ele>411.4</ele>
        <time>2025-08-06T07:50:04Z</time>
      </trkpt>
      <trkpt lat="45.66012" lon="4.64037">
        <ele>411</ele>
        <time>2025-08-06T07:50:05Z</time>
      </trkpt>
      <trkpt lat="45.66011" lon="4.64034">
        <ele>410.8</ele>
        <time>2025-08-06T07:50:06Z</time>
      </trkpt>
      <trkpt lat="45.66009" lon="4.64031">
        <ele>410.4</ele>
        <time>2025-08-06T07:50:07Z</time>
      </trkpt>
      <trkpt lat="45.66008" lon="4.64029">
        <ele>410</ele>
        <time>2025-08-06T07:50:08Z</time>
      </trkpt>
      <trkpt lat="45.66006" lon="4.64026">
        <ele>409.8</ele>
        <time>2025-08-06T07:50:09Z</time>
      </trkpt>
      <trkpt lat="45.66005" lon="4.64023">
        <ele>409.4</ele>
        <time>2025-08-06T07:50:10Z</time>
      </trkpt>
      <trkpt lat="45.66003" lon="4.6402">
        <ele>409</ele>
        <time>2025-08-06T07:50:11Z</time>
      </trkpt>
      <trkpt lat="45.66001" lon="4.64017">
        <ele>408.8</ele>
        <time>2025-08-06T07:50:12Z</time>
      </trkpt>
      <trkpt lat="45.65999" lon="4.64014">
        <ele>408.2</ele>
        <time>2025-08-06T07:50:13Z</time>
      </trkpt>
      <trkpt lat="45.65996" lon="4.64011">
        <ele>407.8</ele>
        <time>2025-08-06T07:50:14Z</time>
      </trkpt>
      <trkpt lat="45.65994" lon="4.64008">
        <ele>407.2</ele>
        <time>2025-08-06T07:50:15Z</time>
      </trkpt>
      <trkpt lat="45.65992" lon="4.64004">
        <ele>406.8</ele>
        <time>2025-08-06T07:50:16Z</time>
      </trkpt>
      <trkpt lat="45.6599" lon="4.64">
        <ele>406.2</ele>
        <time>2025-08-06T07:50:17Z</time>
      </trkpt>
      <trkpt lat="45.65988" lon="4.63996">
        <ele>405.8</ele>
        <time>2025-08-06T07:50:18Z</time>
      </trkpt>
      <trkpt lat="45.65987" lon="4.63992">
        <ele>405.4</ele>
        <time>2025-08-06T07:50:19Z</time>
      </trkpt>
      <trkpt lat="45.65987" lon="4.63987">
        <ele>405</ele>
        <time>2025-08-06T07:50:20Z</time>
      </trkpt>
      <trkpt lat="45.65987" lon="4.63982">
        <ele>404.6</ele>
        <time>2025-08-06T07:50:21Z</time>
      </trkpt>
      <trkpt lat="45.65987" lon="4.63976">
        <ele>404.4</ele>
        <time>2025-08-06T07:50:22Z</time>
      </trkpt>
      <trkpt lat="45.65987" lon="4.63971">
        <ele>404.2</ele>
        <time>2025-08-06T07:50:23Z</time>
      </trkpt>
      <trkpt lat="45.65986" lon="4.63966">
        <ele>403.8</ele>
        <time>2025-08-06T07:50:24Z</time>
      </trkpt>
      <trkpt lat="45.65986" lon="4.63961">
        <ele>403.6</ele>
        <time>2025-08-06T07:50:25Z</time>
      </trkpt>
      <trkpt lat="45.65986" lon="4.63956">
        <ele>403.6</ele>
        <time>2025-08-06T07:50:26Z</time>
      </trkpt>
      <trkpt lat="45.65985" lon="4.63951">
        <ele>403.4</ele>
        <time>2025-08-06T07:50:27Z</time>
      </trkpt>
      <trkpt lat="45.65985" lon="4.63946">
        <ele>403</ele>
        <time>2025-08-06T07:50:28Z</time>
      </trkpt>
      <trkpt lat="45.65983" lon="4.6394">
        <ele>402.8</ele>
        <time>2025-08-06T07:50:29Z</time>
      </trkpt>
      <trkpt lat="45.65981" lon="4.63935">
        <ele>402.6</ele>
        <time>2025-08-06T07:50:30Z</time>
      </trkpt>
      <trkpt lat="45.65978" lon="4.6393">
        <ele>402.4</ele>
        <time>2025-08-06T07:50:31Z</time>
      </trkpt>
      <trkpt lat="45.65976" lon="4.63926">
        <ele>402</ele>
        <time>2025-08-06T07:50:32Z</time>
      </trkpt>
      <trkpt lat="45.65973" lon="4.63922">
        <ele>402</ele>
        <time>2025-08-06T07:50:33Z</time>
      </trkpt>
      <trkpt lat="45.65971" lon="4.63919">
        <ele>401.8</ele>
        <time>2025-08-06T07:50:34Z</time>
      </trkpt>
      <trkpt lat="45.6597" lon="4.63917">
        <ele>401.8</ele>
        <time>2025-08-06T07:50:35Z</time>
      </trkpt>
      <trkpt lat="45.6597" lon="4.63914">
        <ele>401.8</ele>
        <time>2025-08-06T07:50:36Z</time>
      </trkpt>
      <trkpt lat="45.6597" lon="4.63911">
        <ele>402</ele>
        <time>2025-08-06T07:50:37Z</time>
      </trkpt>
      <trkpt lat="45.65971" lon="4.63908">
        <ele>402</ele>
        <time>2025-08-06T07:50:38Z</time>
      </trkpt>
      <trkpt lat="45.65971" lon="4.63906">
        <ele>402.2</ele>
        <time>2025-08-06T07:50:39Z</time>
      </trkpt>
      <trkpt lat="45.65972" lon="4.63906">
        <ele>402.2</ele>
        <time>2025-08-06T07:50:40Z</time>
      </trkpt>
      <trkpt lat="45.65972" lon="4.63906">
        <ele>402.4</ele>
        <time>2025-08-06T07:50:41Z</time>
      </trkpt>
      <trkpt lat="45.65972" lon="4.63906">
        <ele>402.4</ele>
        <time>2025-08-06T07:50:42Z</time>
      </trkpt>
      <trkpt lat="45.65973" lon="4.63902">
        <ele>402.6</ele>
        <time>2025-08-06T07:52:30Z</time>
      </trkpt>
      <trkpt lat="45.65973" lon="4.639">
        <ele>402.8</ele>
        <time>2025-08-06T07:52:31Z</time>
      </trkpt>
      <trkpt lat="45.65972" lon="4.63898">
        <ele>402.6</ele>
        <time>2025-08-06T07:52:32Z</time>
      </trkpt>
      <trkpt lat="45.65971" lon="4.63896">
        <ele>402.6</ele>
        <time>2025-08-06T07:52:33Z</time>
      </trkpt>
      <trkpt lat="45.65969" lon="4.63895">
        <ele>402.8</ele>
        <time>2025-08-06T07:52:34Z</time>
      </trkpt>
      <trkpt lat="45.65966" lon="4.63894">
        <ele>402.8</ele>
        <time>2025-08-06T07:52:35Z</time>
      </trkpt>
      <trkpt lat="45.65964" lon="4.63893">
        <ele>403</ele>
        <time>2025-08-06T07:52:36Z</time>
      </trkpt>
      <trkpt lat="45.65963" lon="4.63891">
        <ele>403.2</ele>
        <time>2025-08-06T07:52:37Z</time>
      </trkpt>
      <trkpt lat="45.65961" lon="4.63891">
        <ele>403.4</ele>
        <time>2025-08-06T07:52:38Z</time>
      </trkpt>
      <trkpt lat="45.6596" lon="4.6389">
        <ele>403.6</ele>
        <time>2025-08-06T07:52:39Z</time>
      </trkpt>
      <trkpt lat="45.65958" lon="4.63889">
        <ele>403.8</ele>
        <time>2025-08-06T07:52:40Z</time>
      </trkpt>
      <trkpt lat="45.65956" lon="4.63887">
        <ele>404</ele>
        <time>2025-08-06T07:52:41Z</time>
      </trkpt>
      <trkpt lat="45.65954" lon="4.63886">
        <ele>404.2</ele>
        <time>2025-08-06T07:52:42Z</time>
      </trkpt>
      <trkpt lat="45.65953" lon="4.63885">
        <ele>404.4</ele>
        <time>2025-08-06T07:52:43Z</time>
      </trkpt>
      <trkpt lat="45.65952" lon="4.63883">
        <ele>404.8</ele>
        <time>2025-08-06T07:52:44Z</time>
      </trkpt>
      <trkpt lat="45.65951" lon="4.63881">
        <ele>405</ele>
        <time>2025-08-06T07:52:45Z</time>
      </trkpt>
      <trkpt lat="45.6595" lon="4.63878">
        <ele>405</ele>
        <time>2025-08-06T07:52:46Z</time>
      </trkpt>
      <trkpt lat="45.65948" lon="4.63875">
        <ele>405.2</ele>
        <time>2025-08-06T07:52:47Z</time>
      </trkpt>
      <trkpt lat="45.65945" lon="4.63871">
        <ele>405.6</ele>
        <time>2025-08-06T07:52:48Z</time>
      </trkpt>
      <trkpt lat="45.65943" lon="4.63869">
        <ele>406</ele>
        <time>2025-08-06T07:52:49Z</time>
      </trkpt>
      <trkpt lat="45.65942" lon="4.63868">
        <ele>406.4</ele>
        <time>2025-08-06T07:52:50Z</time>
      </trkpt>
      <trkpt lat="45.6594" lon="4.63867">
        <ele>407</ele>
        <time>2025-08-06T07:52:51Z</time>
      </trkpt>
      <trkpt lat="45.65939" lon="4.63866">
        <ele>407.4</ele>
        <time>2025-08-06T07:52:52Z</time>
      </trkpt>
      <trkpt lat="45.65938" lon="4.63863">
        <ele>407.8</ele>
        <time>2025-08-06T07:52:53Z</time>
      </trkpt>
      <trkpt lat="45.65936" lon="4.63861">
        <ele>408.2</ele>
        <time>2025-08-06T07:52:54Z</time>
      </trkpt>
      <trkpt lat="45.65935" lon="4.63858">
        <ele>408.4</ele>
        <time>2025-08-06T07:52:55Z</time>
      </trkpt>
      <trkpt lat="45.65935" lon="4.63858">
        <ele>408.8</ele>
        <time>2025-08-06T07:52:56Z</time>
      </trkpt>
      <trkpt lat="45.65935" lon="4.63858">
        <ele>409</ele>
        <time>2025-08-06T07:52:57Z</time>
      </trkpt>
      <trkpt lat="45.65926" lon="4.63852">
        <ele>411.2</ele>
        <time>2025-08-06T07:53:28Z</time>
      </trkpt>
      <trkpt lat="45.65924" lon="4.63851">
        <ele>411.2</ele>
        <time>2025-08-06T07:53:29Z</time>
      </trkpt>
      <trkpt lat="45.65922" lon="4.63849">
        <ele>411.2</ele>
        <time>2025-08-06T07:53:30Z</time>
      </trkpt>
      <trkpt lat="45.6592" lon="4.63848">
        <ele>411.4</ele>
        <time>2025-08-06T07:53:31Z</time>
      </trkpt>
      <trkpt lat="45.65917" lon="4.63846">
        <ele>411.6</ele>
        <time>2025-08-06T07:53:32Z</time>
      </trkpt>
      <trkpt lat="45.65914" lon="4.63844">
        <ele>411.6</ele>
        <time>2025-08-06T07:53:33Z</time>
      </trkpt>
      <trkpt lat="45.65912" lon="4.63842">
        <ele>411.8</ele>
        <time>2025-08-06T07:53:34Z</time>
      </trkpt>
      <trkpt lat="45.65909" lon="4.63839">
        <ele>412</ele>
        <time>2025-08-06T07:53:35Z</time>
      </trkpt>
      <trkpt lat="45.65907" lon="4.63836">
        <ele>412.2</ele>
        <time>2025-08-06T07:53:36Z</time>
      </trkpt>
      <trkpt lat="45.65905" lon="4.63833">
        <ele>412.4</ele>
        <time>2025-08-06T07:53:37Z</time>
      </trkpt>
      <trkpt lat="45.65903" lon="4.63831">
        <ele>412.6</ele>
        <time>2025-08-06T07:53:38Z</time>
      </trkpt>
      <trkpt lat="45.65902" lon="4.63829">
        <ele>412.8</ele>
        <time>2025-08-06T07:53:39Z</time>
      </trkpt>
      <trkpt lat="45.659" lon="4.63827">
        <ele>413</ele>
        <time>2025-08-06T07:53:40Z</time>
      </trkpt>
      <trkpt lat="45.65898" lon="4.63825">
        <ele>413.2</ele>
        <time>2025-08-06T07:53:41Z</time>
      </trkpt>
      <trkpt lat="45.65897" lon="4.63823">
        <ele>413.4</ele>
        <time>2025-08-06T07:53:42Z</time>
      </trkpt>
      <trkpt lat="45.65895" lon="4.63822">
        <ele>413.6</ele>
        <time>2025-08-06T07:53:43Z</time>
      </trkpt>
      <trkpt lat="45.65893" lon="4.6382">
        <ele>413.6</ele>
        <time>2025-08-06T07:53:44Z</time>
      </trkpt>
      <trkpt lat="45.65892" lon="4.63818">
        <ele>413.8</ele>
        <time>2025-08-06T07:53:45Z</time>
      </trkpt>
      <trkpt lat="45.6589" lon="4.63815">
        <ele>414</ele>
        <time>2025-08-06T07:53:46Z</time>
      </trkpt>
      <trkpt lat="45.65888" lon="4.63814">
        <ele>414.2</ele>
        <time>2025-08-06T07:53:47Z</time>
      </trkpt>
      <trkpt lat="45.65885" lon="4.63813">
        <ele>414.4</ele>
        <time>2025-08-06T07:53:48Z</time>
      </trkpt>
      <trkpt lat="45.65882" lon="4.63811">
        <ele>414.4</ele>
        <time>2025-08-06T07:53:49Z</time>
      </trkpt>
      <trkpt lat="45.6588" lon="4.63809">
        <ele>414.6</ele>
        <time>2025-08-06T07:53:50Z</time>
      </trkpt>
      <trkpt lat="45.65877" lon="4.63809">
        <ele>414.6</ele>
        <time>2025-08-06T07:53:51Z</time>
      </trkpt>
      <trkpt lat="45.65874" lon="4.63806">
        <ele>414.8</ele>
        <time>2025-08-06T07:53:52Z</time>
      </trkpt>
      <trkpt lat="45.65873" lon="4.63802">
        <ele>414.8</ele>
        <time>2025-08-06T07:53:53Z</time>
      </trkpt>
      <trkpt lat="45.6587" lon="4.63799">
        <ele>415</ele>
        <time>2025-08-06T07:53:54Z</time>
      </trkpt>
      <trkpt lat="45.65868" lon="4.63798">
        <ele>415.2</ele>
        <time>2025-08-06T07:53:55Z</time>
      </trkpt>
      <trkpt lat="45.65866" lon="4.63796">
        <ele>415.2</ele>
        <time>2025-08-06T07:53:56Z</time>
      </trkpt>
      <trkpt lat="45.65864" lon="4.63794">
        <ele>415.4</ele>
        <time>2025-08-06T07:53:57Z</time>
      </trkpt>
      <trkpt lat="45.65863" lon="4.63791">
        <ele>415.6</ele>
        <time>2025-08-06T07:53:58Z</time>
      </trkpt>
      <trkpt lat="45.6586" lon="4.63789">
        <ele>415.8</ele>
        <time>2025-08-06T07:53:59Z</time>
      </trkpt>
      <trkpt lat="45.65858" lon="4.63787">
        <ele>416</ele>
        <time>2025-08-06T07:54:00Z</time>
      </trkpt>
      <trkpt lat="45.65857" lon="4.63785">
        <ele>416</ele>
        <time>2025-08-06T07:54:01Z</time>
      </trkpt>
      <trkpt lat="45.65855" lon="4.63783">
        <ele>416.2</ele>
        <time>2025-08-06T07:54:02Z</time>
      </trkpt>
      <trkpt lat="45.65853" lon="4.63781">
        <ele>416.4</ele>
        <time>2025-08-06T07:54:03Z</time>
      </trkpt>
      <trkpt lat="45.65851" lon="4.63779">
        <ele>416.6</ele>
        <time>2025-08-06T07:54:04Z</time>
      </trkpt>
      <trkpt lat="45.65849" lon="4.63777">
        <ele>416.8</ele>
        <time>2025-08-06T07:54:05Z</time>
      </trkpt>
      <trkpt lat="45.65847" lon="4.63775">
        <ele>417</ele>
        <time>2025-08-06T07:54:06Z</time>
      </trkpt>
      <trkpt lat="45.65845" lon="4.63773">
        <ele>417.2</ele>
        <time>2025-08-06T07:54:07Z</time>
      </trkpt>
      <trkpt lat="45.65842" lon="4.63771">
        <ele>417.2</ele>
        <time>2025-08-06T07:54:08Z</time>
      </trkpt>
      <trkpt lat="45.6584" lon="4.63769">
        <ele>417.4</ele>
        <time>2025-08-06T07:54:09Z</time>
      </trkpt>
      <trkpt lat="45.65838" lon="4.63767">
        <ele>417.6</ele>
        <time>2025-08-06T07:54:10Z</time>
      </trkpt>
      <trkpt lat="45.65836" lon="4.63764">
        <ele>417.6</ele>
        <time>2025-08-06T07:54:11Z</time>
      </trkpt>
      <trkpt lat="45.65834" lon="4.63762">
        <ele>417.6</ele>
        <time>2025-08-06T07:54:12Z</time>
      </trkpt>
      <trkpt lat="45.65831" lon="4.63761">
        <ele>417.8</ele>
        <time>2025-08-06T07:54:13Z</time>
      </trkpt>
      <trkpt lat="45.65829" lon="4.63759">
        <ele>417.8</ele>
        <time>2025-08-06T07:54:14Z</time>
      </trkpt>
      <trkpt lat="45.65827" lon="4.63757">
        <ele>418</ele>
        <time>2025-08-06T07:54:15Z</time>
      </trkpt>
      <trkpt lat="45.65825" lon="4.63754">
        <ele>418.2</ele>
        <time>2025-08-06T07:54:16Z</time>
      </trkpt>
      <trkpt lat="45.65824" lon="4.63752">
        <ele>418.4</ele>
        <time>2025-08-06T07:54:17Z</time>
      </trkpt>
      <trkpt lat="45.65822" lon="4.6375">
        <ele>418.6</ele>
        <time>2025-08-06T07:54:18Z</time>
      </trkpt>
      <trkpt lat="45.65821" lon="4.63748">
        <ele>418.8</ele>
        <time>2025-08-06T07:54:19Z</time>
      </trkpt>
      <trkpt lat="45.65819" lon="4.63746">
        <ele>419</ele>
        <time>2025-08-06T07:54:20Z</time>
      </trkpt>
      <trkpt lat="45.65818" lon="4.63743">
        <ele>419</ele>
        <time>2025-08-06T07:54:21Z</time>
      </trkpt>
      <trkpt lat="45.65817" lon="4.6374">
        <ele>419.2</ele>
        <time>2025-08-06T07:54:22Z</time>
      </trkpt>
      <trkpt lat="45.65816" lon="4.63738">
        <ele>419.6</ele>
        <time>2025-08-06T07:54:23Z</time>
      </trkpt>
      <trkpt lat="45.65814" lon="4.63736">
        <ele>419.8</ele>
        <time>2025-08-06T07:54:24Z</time>
      </trkpt>
      <trkpt lat="45.65813" lon="4.63734">
        <ele>420</ele>
        <time>2025-08-06T07:54:25Z</time>
      </trkpt>
      <trkpt lat="45.65811" lon="4.63732">
        <ele>420.2</ele>
        <time>2025-08-06T07:54:26Z</time>
      </trkpt>
      <trkpt lat="45.65809" lon="4.63728">
        <ele>420.4</ele>
        <time>2025-08-06T07:54:27Z</time>
      </trkpt>
      <trkpt lat="45.65808" lon="4.63724">
        <ele>420.6</ele>
        <time>2025-08-06T07:54:28Z</time>
      </trkpt>
      <trkpt lat="45.65806" lon="4.63722">
        <ele>420.6</ele>
        <time>2025-08-06T07:54:29Z</time>
      </trkpt>
      <trkpt lat="45.65805" lon="4.63719">
        <ele>420.8</ele>
        <time>2025-08-06T07:54:30Z</time>
      </trkpt>
      <trkpt lat="45.65804" lon="4.63717">
        <ele>421</ele>
        <time>2025-08-06T07:54:31Z</time>
      </trkpt>
      <trkpt lat="45.65803" lon="4.63715">
        <ele>421.2</ele>
        <time>2025-08-06T07:54:32Z</time>
      </trkpt>
      <trkpt lat="45.65802" lon="4.63712">
        <ele>421.4</ele>
        <time>2025-08-06T07:54:33Z</time>
      </trkpt>
      <trkpt lat="45.65801" lon="4.6371">
        <ele>421.6</ele>
        <time>2025-08-06T07:54:34Z</time>
      </trkpt>
      <trkpt lat="45.658" lon="4.63709">
        <ele>421.8</ele>
        <time>2025-08-06T07:54:35Z</time>
      </trkpt>
      <trkpt lat="45.65799" lon="4.63707">
        <ele>422</ele>
        <time>2025-08-06T07:54:36Z</time>
      </trkpt>
      <trkpt lat="45.65798" lon="4.63704">
        <ele>422.2</ele>
        <time>2025-08-06T07:54:37Z</time>
      </trkpt>
      <trkpt lat="45.65797" lon="4.63701">
        <ele>422.4</ele>
        <time>2025-08-06T07:54:38Z</time>
      </trkpt>
      <trkpt lat="45.65796" lon="4.63699">
        <ele>422.6</ele>
        <time>2025-08-06T07:54:39Z</time>
      </trkpt>
      <trkpt lat="45.65795" lon="4.63697">
        <ele>422.8</ele>
        <time>2025-08-06T07:54:40Z</time>
      </trkpt>
      <trkpt lat="45.65794" lon="4.63694">
        <ele>422.8</ele>
        <time>2025-08-06T07:54:41Z</time>
      </trkpt>
      <trkpt lat="45.65793" lon="4.63691">
        <ele>423</ele>
        <time>2025-08-06T07:54:42Z</time>
      </trkpt>
      <trkpt lat="45.65792" lon="4.63689">
        <ele>423.2</ele>
        <time>2025-08-06T07:54:43Z</time>
      </trkpt>
      <trkpt lat="45.65791" lon="4.63686">
        <ele>423.4</ele>
        <time>2025-08-06T07:54:44Z</time>
      </trkpt>
      <trkpt lat="45.6579" lon="4.63683">
        <ele>423.4</ele>
        <time>2025-08-06T07:54:45Z</time>
      </trkpt>
      <trkpt lat="45.65789" lon="4.6368">
        <ele>423.6</ele>
        <time>2025-08-06T07:54:46Z</time>
      </trkpt>
      <trkpt lat="45.65788" lon="4.63677">
        <ele>423.6</ele>
        <time>2025-08-06T07:54:47Z</time>
      </trkpt>
      <trkpt lat="45.65788" lon="4.63674">
        <ele>423.8</ele>
        <time>2025-08-06T07:54:48Z</time>
      </trkpt>
      <trkpt lat="45.65788" lon="4.63671">
        <ele>423.8</ele>
        <time>2025-08-06T07:54:49Z</time>
      </trkpt>
      <trkpt lat="45.65787" lon="4.63668">
        <ele>424</ele>
        <time>2025-08-06T07:54:50Z</time>
      </trkpt>
      <trkpt lat="45.65786" lon="4.63665">
        <ele>424.4</ele>
        <time>2025-08-06T07:54:51Z</time>
      </trkpt>
      <trkpt lat="45.65786" lon="4.63662">
        <ele>424.6</ele>
        <time>2025-08-06T07:54:52Z</time>
      </trkpt>
      <trkpt lat="45.65785" lon="4.63659">
        <ele>424.8</ele>
        <time>2025-08-06T07:54:53Z</time>
      </trkpt>
      <trkpt lat="45.65784" lon="4.63656">
        <ele>425</ele>
        <time>2025-08-06T07:54:54Z</time>
      </trkpt>
      <trkpt lat="45.65783" lon="4.63652">
        <ele>425</ele>
        <time>2025-08-06T07:54:55Z</time>
      </trkpt>
      <trkpt lat="45.65782" lon="4.63649">
        <ele>425.2</ele>
        <time>2025-08-06T07:54:56Z</time>
      </trkpt>
      <trkpt lat="45.65782" lon="4.63646">
        <ele>425.2</ele>
        <time>2025-08-06T07:54:57Z</time>
      </trkpt>
      <trkpt lat="45.65781" lon="4.63642">
        <ele>425.4</ele>
        <time>2025-08-06T07:54:58Z</time>
      </trkpt>
      <trkpt lat="45.6578" lon="4.63639">
        <ele>425.4</ele>
        <time>2025-08-06T07:54:59Z</time>
      </trkpt>
      <trkpt lat="45.65779" lon="4.63635">
        <ele>425.6</ele>
        <time>2025-08-06T07:55:00Z</time>
      </trkpt>
      <trkpt lat="45.65779" lon="4.63632">
        <ele>425.6</ele>
        <time>2025-08-06T07:55:01Z</time>
      </trkpt>
      <trkpt lat="45.65778" lon="4.63629">
        <ele>425.8</ele>
        <time>2025-08-06T07:55:02Z</time>
      </trkpt>
      <trkpt lat="45.65777" lon="4.63625">
        <ele>426</ele>
        <time>2025-08-06T07:55:03Z</time>
      </trkpt>
      <trkpt lat="45.65776" lon="4.63622">
        <ele>426.2</ele>
        <time>2025-08-06T07:55:04Z</time>
      </trkpt>
      <trkpt lat="45.65775" lon="4.63619">
        <ele>426.4</ele>
        <time>2025-08-06T07:55:05Z</time>
      </trkpt>
      <trkpt lat="45.65774" lon="4.63615">
        <ele>426.6</ele>
        <time>2025-08-06T07:55:06Z</time>
      </trkpt>
      <trkpt lat="45.65773" lon="4.63612">
        <ele>426.8</ele>
        <time>2025-08-06T07:55:07Z</time>
      </trkpt>
      <trkpt lat="45.65772" lon="4.63608">
        <ele>426.8</ele>
        <time>2025-08-06T07:55:08Z</time>
      </trkpt>
      <trkpt lat="45.6577" lon="4.63605">
        <ele>426.8</ele>
        <time>2025-08-06T07:55:09Z</time>
      </trkpt>
      <trkpt lat="45.65769" lon="4.63601">
        <ele>426.8</ele>
        <time>2025-08-06T07:55:10Z</time>
      </trkpt>
      <trkpt lat="45.65767" lon="4.63597">
        <ele>426.8</ele>
        <time>2025-08-06T07:55:11Z</time>
      </trkpt>
      <trkpt lat="45.65766" lon="4.63594">
        <ele>426.6</ele>
        <time>2025-08-06T07:55:12Z</time>
      </trkpt>
      <trkpt lat="45.65765" lon="4.63591">
        <ele>426.6</ele>
        <time>2025-08-06T07:55:13Z</time>
      </trkpt>
      <trkpt lat="45.65765" lon="4.63589">
        <ele>426.4</ele>
        <time>2025-08-06T07:55:14Z</time>
      </trkpt>
      <trkpt lat="45.65765" lon="4.63588">
        <ele>426.2</ele>
        <time>2025-08-06T07:55:15Z</time>
      </trkpt>
      <trkpt lat="45.65765" lon="4.63588">
        <ele>426.2</ele>
        <time>2025-08-06T07:55:16Z</time>
      </trkpt>
      <trkpt lat="45.65764" lon="4.63582">
        <ele>425.8</ele>
        <time>2025-08-06T07:55:30Z</time>
      </trkpt>
      <trkpt lat="45.65764" lon="4.63579">
        <ele>425.8</ele>
        <time>2025-08-06T07:55:31Z</time>
      </trkpt>
      <trkpt lat="45.65765" lon="4.63575">
        <ele>425.6</ele>
        <time>2025-08-06T07:55:32Z</time>
      </trkpt>
      <trkpt lat="45.65766" lon="4.63573">
        <ele>425.6</ele>
        <time>2025-08-06T07:55:33Z</time>
      </trkpt>
      <trkpt lat="45.65768" lon="4.63571">
        <ele>425.4</ele>
        <time>2025-08-06T07:55:34Z</time>
      </trkpt>
      <trkpt lat="45.6577" lon="4.63571">
        <ele>425.6</ele>
        <time>2025-08-06T07:55:35Z</time>
      </trkpt>
      <trkpt lat="45.65773" lon="4.63571">
        <ele>425.6</ele>
        <time>2025-08-06T07:55:36Z</time>
      </trkpt>
      <trkpt lat="45.65775" lon="4.63572">
        <ele>425.8</ele>
        <time>2025-08-06T07:55:37Z</time>
      </trkpt>
      <trkpt lat="45.65776" lon="4.63572">
        <ele>426</ele>
        <time>2025-08-06T07:55:38Z</time>
      </trkpt>
      <trkpt lat="45.65778" lon="4.63573">
        <ele>426.2</ele>
        <time>2025-08-06T07:55:39Z</time>
      </trkpt>
      <trkpt lat="45.6578" lon="4.63574">
        <ele>426.4</ele>
        <time>2025-08-06T07:55:40Z</time>
      </trkpt>
      <trkpt lat="45.65783" lon="4.63575">
        <ele>426.8</ele>
        <time>2025-08-06T07:55:41Z</time>
      </trkpt>
      <trkpt lat="45.65785" lon="4.63576">
        <ele>427</ele>
        <time>2025-08-06T07:55:42Z</time>
      </trkpt>
      <trkpt lat="45.65786" lon="4.63576">
        <ele>427.4</ele>
        <time>2025-08-06T07:55:43Z</time>
      </trkpt>
      <trkpt lat="45.65788" lon="4.63576">
        <ele>427.8</ele>
        <time>2025-08-06T07:55:44Z</time>
      </trkpt>
      <trkpt lat="45.6579" lon="4.63576">
        <ele>428.2</ele>
        <time>2025-08-06T07:55:45Z</time>
      </trkpt>
      <trkpt lat="45.65792" lon="4.63577">
        <ele>428.6</ele>
        <time>2025-08-06T07:55:46Z</time>
      </trkpt>
      <trkpt lat="45.65794" lon="4.63577">
        <ele>428.8</ele>
        <time>2025-08-06T07:55:47Z</time>
      </trkpt>
      <trkpt lat="45.65797" lon="4.63578">
        <ele>429.2</ele>
        <time>2025-08-06T07:55:48Z</time>
      </trkpt>
      <trkpt lat="45.65799" lon="4.63578">
        <ele>429.4</ele>
        <time>2025-08-06T07:55:49Z</time>
      </trkpt>
      <trkpt lat="45.658" lon="4.63578">
        <ele>429.8</ele>
        <time>2025-08-06T07:55:50Z</time>
      </trkpt>
      <trkpt lat="45.65802" lon="4.63579">
        <ele>430</ele>
        <time>2025-08-06T07:55:51Z</time>
      </trkpt>
      <trkpt lat="45.65803" lon="4.6358">
        <ele>430.4</ele>
        <time>2025-08-06T07:55:52Z</time>
      </trkpt>
      <trkpt lat="45.65805" lon="4.6358">
        <ele>430.6</ele>
        <time>2025-08-06T07:55:53Z</time>
      </trkpt>
      <trkpt lat="45.65807" lon="4.63581">
        <ele>431</ele>
        <time>2025-08-06T07:55:54Z</time>
      </trkpt>
      <trkpt lat="45.65809" lon="4.63581">
        <ele>431.4</ele>
        <time>2025-08-06T07:55:55Z</time>
      </trkpt>
      <trkpt lat="45.65811" lon="4.6358">
        <ele>431.6</ele>
        <time>2025-08-06T07:55:56Z</time>
      </trkpt>
      <trkpt lat="45.65814" lon="4.6358">
        <ele>432</ele>
        <time>2025-08-06T07:55:57Z</time>
      </trkpt>
      <trkpt lat="45.65816" lon="4.6358">
        <ele>432.4</ele>
        <time>2025-08-06T07:55:58Z</time>
      </trkpt>
      <trkpt lat="45.65819" lon="4.6358">
        <ele>432.8</ele>
        <time>2025-08-06T07:55:59Z</time>
      </trkpt>
      <trkpt lat="45.65821" lon="4.6358">
        <ele>433.2</ele>
        <time>2025-08-06T07:56:00Z</time>
      </trkpt>
      <trkpt lat="45.65823" lon="4.6358">
        <ele>433.6</ele>
        <time>2025-08-06T07:56:01Z</time>
      </trkpt>
      <trkpt lat="45.65825" lon="4.6358">
        <ele>434</ele>
        <time>2025-08-06T07:56:02Z</time>
      </trkpt>
      <trkpt lat="45.65827" lon="4.6358">
        <ele>434.4</ele>
        <time>2025-08-06T07:56:03Z</time>
      </trkpt>
      <trkpt lat="45.65829" lon="4.6358">
        <ele>434.8</ele>
        <time>2025-08-06T07:56:04Z</time>
      </trkpt>
      <trkpt lat="45.6583" lon="4.6358">
        <ele>435.4</ele>
        <time>2025-08-06T07:56:05Z</time>
      </trkpt>
      <trkpt lat="45.65832" lon="4.6358">
        <ele>435.8</ele>
        <time>2025-08-06T07:56:06Z</time>
      </trkpt>
      <trkpt lat="45.65835" lon="4.63579">
        <ele>436.2</ele>
        <time>2025-08-06T07:56:07Z</time>
      </trkpt>
      <trkpt lat="45.65837" lon="4.63579">
        <ele>436.6</ele>
        <time>2025-08-06T07:56:08Z</time>
      </trkpt>
      <trkpt lat="45.65839" lon="4.63579">
        <ele>437</ele>
        <time>2025-08-06T07:56:09Z</time>
      </trkpt>
      <trkpt lat="45.65841" lon="4.63579">
        <ele>437.4</ele>
        <time>2025-08-06T07:56:10Z</time>
      </trkpt>
      <trkpt lat="45.65843" lon="4.6358">
        <ele>437.8</ele>
        <time>2025-08-06T07:56:11Z</time>
      </trkpt>
      <trkpt lat="45.65845" lon="4.63581">
        <ele>438.2</ele>
        <time>2025-08-06T07:56:12Z</time>
      </trkpt>
      <trkpt lat="45.65847" lon="4.63582">
        <ele>438.6</ele>
        <time>2025-08-06T07:56:13Z</time>
      </trkpt>
      <trkpt lat="45.65848" lon="4.63583">
        <ele>439.2</ele>
        <time>2025-08-06T07:56:14Z</time>
      </trkpt>
      <trkpt lat="45.65849" lon="4.63585">
        <ele>439.6</ele>
        <time>2025-08-06T07:56:15Z</time>
      </trkpt>
      <trkpt lat="45.65849" lon="4.63588">
        <ele>440</ele>
        <time>2025-08-06T07:56:16Z</time>
      </trkpt>
      <trkpt lat="45.6585" lon="4.6359">
        <ele>440.2</ele>
        <time>2025-08-06T07:56:17Z</time>
      </trkpt>
      <trkpt lat="45.6585" lon="4.63592">
        <ele>440.6</ele>
        <time>2025-08-06T07:56:18Z</time>
      </trkpt>
      <trkpt lat="45.65851" lon="4.63595">
        <ele>441</ele>
        <time>2025-08-06T07:56:19Z</time>
      </trkpt>
      <trkpt lat="45.65852" lon="4.63598">
        <ele>441.2</ele>
        <time>2025-08-06T07:56:20Z</time>
      </trkpt>
      <trkpt lat="45.65852" lon="4.63601">
        <ele>441.6</ele>
        <time>2025-08-06T07:56:21Z</time>
      </trkpt>
      <trkpt lat="45.65853" lon="4.63604">
        <ele>442</ele>
        <time>2025-08-06T07:56:22Z</time>
      </trkpt>
      <trkpt lat="45.65854" lon="4.63606">
        <ele>442.4</ele>
        <time>2025-08-06T07:56:23Z</time>
      </trkpt>
      <trkpt lat="45.65855" lon="4.63609">
        <ele>442.8</ele>
        <time>2025-08-06T07:56:24Z</time>
      </trkpt>
      <trkpt lat="45.65856" lon="4.63611">
        <ele>443.2</ele>
        <time>2025-08-06T07:56:25Z</time>
      </trkpt>
      <trkpt lat="45.65857" lon="4.63614">
        <ele>443.6</ele>
        <time>2025-08-06T07:56:26Z</time>
      </trkpt>
      <trkpt lat="45.65857" lon="4.63617">
        <ele>443.8</ele>
        <time>2025-08-06T07:56:27Z</time>
      </trkpt>
      <trkpt lat="45.65858" lon="4.6362">
        <ele>444.2</ele>
        <time>2025-08-06T07:56:28Z</time>
      </trkpt>
      <trkpt lat="45.65858" lon="4.63622">
        <ele>444.6</ele>
        <time>2025-08-06T07:56:29Z</time>
      </trkpt>
      <trkpt lat="45.65859" lon="4.63625">
        <ele>445</ele>
        <time>2025-08-06T07:56:30Z</time>
      </trkpt>
      <trkpt lat="45.6586" lon="4.63627">
        <ele>445.2</ele>
        <time>2025-08-06T07:56:31Z</time>
      </trkpt>
      <trkpt lat="45.65862" lon="4.63629">
        <ele>445.6</ele>
        <time>2025-08-06T07:56:32Z</time>
      </trkpt>
      <trkpt lat="45.65863" lon="4.63629">
        <ele>446</ele>
        <time>2025-08-06T07:56:33Z</time>
      </trkpt>
      <trkpt lat="45.65865" lon="4.63629">
        <ele>446.4</ele>
        <time>2025-08-06T07:56:34Z</time>
      </trkpt>
      <trkpt lat="45.65868" lon="4.63628">
        <ele>446.6</ele>
        <time>2025-08-06T07:56:35Z</time>
      </trkpt>
      <trkpt lat="45.6587" lon="4.63626">
        <ele>447</ele>
        <time>2025-08-06T07:56:36Z</time>
      </trkpt>
      <trkpt lat="45.65872" lon="4.63625">
        <ele>447.2</ele>
        <time>2025-08-06T07:56:37Z</time>
      </trkpt>
      <trkpt lat="45.65874" lon="4.63624">
        <ele>447.6</ele>
        <time>2025-08-06T07:56:38Z</time>
      </trkpt>
      <trkpt lat="45.65876" lon="4.63623">
        <ele>447.8</ele>
        <time>2025-08-06T07:56:39Z</time>
      </trkpt>
      <trkpt lat="45.65878" lon="4.63621">
        <ele>448.2</ele>
        <time>2025-08-06T07:56:40Z</time>
      </trkpt>
      <trkpt lat="45.6588" lon="4.6362">
        <ele>448.4</ele>
        <time>2025-08-06T07:56:41Z</time>
      </trkpt>
      <trkpt lat="45.65883" lon="4.63618">
        <ele>448.6</ele>
        <time>2025-08-06T07:56:42Z</time>
      </trkpt>
      <trkpt lat="45.65885" lon="4.63617">
        <ele>448.8</ele>
        <time>2025-08-06T07:56:43Z</time>
      </trkpt>
      <trkpt lat="45.65887" lon="4.63615">
        <ele>449</ele>
        <time>2025-08-06T07:56:44Z</time>
      </trkpt>
      <trkpt lat="45.65889" lon="4.63613">
        <ele>449.2</ele>
        <time>2025-08-06T07:56:45Z</time>
      </trkpt>
      <trkpt lat="45.65891" lon="4.63612">
        <ele>449.4</ele>
        <time>2025-08-06T07:56:46Z</time>
      </trkpt>
      <trkpt lat="45.65894" lon="4.6361">
        <ele>449.6</ele>
        <time>2025-08-06T07:56:47Z</time>
      </trkpt>
      <trkpt lat="45.65896" lon="4.63608">
        <ele>449.8</ele>
        <time>2025-08-06T07:56:48Z</time>
      </trkpt>
      <trkpt lat="45.65898" lon="4.63606">
        <ele>450</ele>
        <time>2025-08-06T07:56:49Z</time>
      </trkpt>
      <trkpt lat="45.659" lon="4.63604">
        <ele>450.4</ele>
        <time>2025-08-06T07:56:50Z</time>
      </trkpt>
      <trkpt lat="45.65903" lon="4.63602">
        <ele>450.6</ele>
        <time>2025-08-06T07:56:51Z</time>
      </trkpt>
      <trkpt lat="45.65905" lon="4.636">
        <ele>451</ele>
        <time>2025-08-06T07:56:52Z</time>
      </trkpt>
      <trkpt lat="45.65907" lon="4.63598">
        <ele>451.2</ele>
        <time>2025-08-06T07:56:53Z</time>
      </trkpt>
      <trkpt lat="45.65909" lon="4.63596">
        <ele>451.4</ele>
        <time>2025-08-06T07:56:54Z</time>
      </trkpt>
      <trkpt lat="45.65911" lon="4.63594">
        <ele>451.8</ele>
        <time>2025-08-06T07:56:55Z</time>
      </trkpt>
      <trkpt lat="45.65913" lon="4.63591">
        <ele>452</ele>
        <time>2025-08-06T07:56:56Z</time>
      </trkpt>
      <trkpt lat="45.65915" lon="4.63588">
        <ele>452.4</ele>
        <time>2025-08-06T07:56:57Z</time>
      </trkpt>
      <trkpt lat="45.65917" lon="4.63586">
        <ele>452.8</ele>
        <time>2025-08-06T07:56:58Z</time>
      </trkpt>
      <trkpt lat="45.65919" lon="4.63583">
        <ele>453.2</ele>
        <time>2025-08-06T07:56:59Z</time>
      </trkpt>
      <trkpt lat="45.6592" lon="4.6358">
        <ele>453.6</ele>
        <time>2025-08-06T07:57:00Z</time>
      </trkpt>
      <trkpt lat="45.65922" lon="4.63577">
        <ele>453.8</ele>
        <time>2025-08-06T07:57:01Z</time>
      </trkpt>
      <trkpt lat="45.65924" lon="4.63574">
        <ele>454.2</ele>
        <time>2025-08-06T07:57:02Z</time>
      </trkpt>
      <trkpt lat="45.65926" lon="4.63571">
        <ele>454.4</ele>
        <time>2025-08-06T07:57:03Z</time>
      </trkpt>
      <trkpt lat="45.65927" lon="4.63568">
        <ele>454.8</ele>
        <time>2025-08-06T07:57:04Z</time>
      </trkpt>
      <trkpt lat="45.65929" lon="4.63566">
        <ele>455.2</ele>
        <time>2025-08-06T07:57:05Z</time>
      </trkpt>
      <trkpt lat="45.65931" lon="4.63563">
        <ele>455.6</ele>
        <time>2025-08-06T07:57:06Z</time>
      </trkpt>
      <trkpt lat="45.65933" lon="4.63561">
        <ele>455.6</ele>
        <time>2025-08-06T07:57:07Z</time>
      </trkpt>
      <trkpt lat="45.65935" lon="4.63559">
        <ele>455.8</ele>
        <time>2025-08-06T07:57:08Z</time>
      </trkpt>
      <trkpt lat="45.65937" lon="4.63556">
        <ele>456</ele>
        <time>2025-08-06T07:57:09Z</time>
      </trkpt>
      <trkpt lat="45.65939" lon="4.63554">
        <ele>456.2</ele>
        <time>2025-08-06T07:57:10Z</time>
      </trkpt>
      <trkpt lat="45.65941" lon="4.63552">
        <ele>456.4</ele>
        <time>2025-08-06T07:57:11Z</time>
      </trkpt>
      <trkpt lat="45.65944" lon="4.63551">
        <ele>456.8</ele>
        <time>2025-08-06T07:57:12Z</time>
      </trkpt>
      <trkpt lat="45.65946" lon="4.63549">
        <ele>457</ele>
        <time>2025-08-06T07:57:13Z</time>
      </trkpt>
      <trkpt lat="45.65948" lon="4.63548">
        <ele>457.4</ele>
        <time>2025-08-06T07:57:14Z</time>
      </trkpt>
      <trkpt lat="45.6595" lon="4.63546">
        <ele>457.6</ele>
        <time>2025-08-06T07:57:15Z</time>
      </trkpt>
      <trkpt lat="45.65952" lon="4.63545">
        <ele>458</ele>
        <time>2025-08-06T07:57:16Z</time>
      </trkpt>
      <trkpt lat="45.65954" lon="4.63543">
        <ele>458.4</ele>
        <time>2025-08-06T07:57:17Z</time>
      </trkpt>
      <trkpt lat="45.65957" lon="4.63542">
        <ele>458.8</ele>
        <time>2025-08-06T07:57:18Z</time>
      </trkpt>
      <trkpt lat="45.65959" lon="4.63541">
        <ele>459.2</ele>
        <time>2025-08-06T07:57:19Z</time>
      </trkpt>
      <trkpt lat="45.65962" lon="4.6354">
        <ele>459.6</ele>
        <time>2025-08-06T07:57:20Z</time>
      </trkpt>
      <trkpt lat="45.65964" lon="4.63538">
        <ele>460</ele>
        <time>2025-08-06T07:57:21Z</time>
      </trkpt>
      <trkpt lat="45.65966" lon="4.63537">
        <ele>460.4</ele>
        <time>2025-08-06T07:57:22Z</time>
      </trkpt>
      <trkpt lat="45.65969" lon="4.63535">
        <ele>460.6</ele>
        <time>2025-08-06T07:57:23Z</time>
      </trkpt>
      <trkpt lat="45.65971" lon="4.63534">
        <ele>461</ele>
        <time>2025-08-06T07:57:24Z</time>
      </trkpt>
      <trkpt lat="45.65973" lon="4.63532">
        <ele>461.4</ele>
        <time>2025-08-06T07:57:25Z</time>
      </trkpt>
      <trkpt lat="45.65975" lon="4.63531">
        <ele>461.6</ele>
        <time>2025-08-06T07:57:26Z</time>
      </trkpt>
      <trkpt lat="45.65977" lon="4.6353">
        <ele>462</ele>
        <time>2025-08-06T07:57:27Z</time>
      </trkpt>
      <trkpt lat="45.65979" lon="4.63528">
        <ele>462.4</ele>
        <time>2025-08-06T07:57:28Z</time>
      </trkpt>
      <trkpt lat="45.65981" lon="4.63526">
        <ele>462.8</ele>
        <time>2025-08-06T07:57:29Z</time>
      </trkpt>
      <trkpt lat="45.65983" lon="4.63523">
        <ele>463.2</ele>
        <time>2025-08-06T07:57:30Z</time>
      </trkpt>
      <trkpt lat="45.65985" lon="4.63522">
        <ele>463.4</ele>
        <time>2025-08-06T07:57:31Z</time>
      </trkpt>
      <trkpt lat="45.65987" lon="4.6352">
        <ele>463.8</ele>
        <time>2025-08-06T07:57:32Z</time>
      </trkpt>
      <trkpt lat="45.65989" lon="4.63518">
        <ele>464.2</ele>
        <time>2025-08-06T07:57:33Z</time>
      </trkpt>
      <trkpt lat="45.65991" lon="4.63515">
        <ele>464.6</ele>
        <time>2025-08-06T07:57:34Z</time>
      </trkpt>
      <trkpt lat="45.65993" lon="4.63513">
        <ele>465</ele>
        <time>2025-08-06T07:57:35Z</time>
      </trkpt>
      <trkpt lat="45.65995" lon="4.63511">
        <ele>465.4</ele>
        <time>2025-08-06T07:57:36Z</time>
      </trkpt>
      <trkpt lat="45.65997" lon="4.6351">
        <ele>465.8</ele>
        <time>2025-08-06T07:57:37Z</time>
      </trkpt>
      <trkpt lat="45.65998" lon="4.63508">
        <ele>466.2</ele>
        <time>2025-08-06T07:57:38Z</time>
      </trkpt>
      <trkpt lat="45.66" lon="4.63506">
        <ele>466.6</ele>
        <time>2025-08-06T07:57:39Z</time>
      </trkpt>
      <trkpt lat="45.66002" lon="4.63504">
        <ele>467</ele>
        <time>2025-08-06T07:57:40Z</time>
      </trkpt>
      <trkpt lat="45.66004" lon="4.63503">
        <ele>467.4</ele>
        <time>2025-08-06T07:57:41Z</time>
      </trkpt>
      <trkpt lat="45.66006" lon="4.63501">
        <ele>467.8</ele>
        <time>2025-08-06T07:57:42Z</time>
      </trkpt>
      <trkpt lat="45.66008" lon="4.63499">
        <ele>468.2</ele>
        <time>2025-08-06T07:57:43Z</time>
      </trkpt>
      <trkpt lat="45.6601" lon="4.63497">
        <ele>468.6</ele>
        <time>2025-08-06T07:57:44Z</time>
      </trkpt>
      <trkpt lat="45.66012" lon="4.63495">
        <ele>469.2</ele>
        <time>2025-08-06T07:57:45Z</time>
      </trkpt>
      <trkpt lat="45.66014" lon="4.63492">
        <ele>469.6</ele>
        <time>2025-08-06T07:57:46Z</time>
      </trkpt>
      <trkpt lat="45.66015" lon="4.6349">
        <ele>470</ele>
        <time>2025-08-06T07:57:47Z</time>
      </trkpt>
      <trkpt lat="45.66017" lon="4.63488">
        <ele>470.6</ele>
        <time>2025-08-06T07:57:48Z</time>
      </trkpt>
      <trkpt lat="45.66019" lon="4.63486">
        <ele>471</ele>
        <time>2025-08-06T07:57:49Z</time>
      </trkpt>
      <trkpt lat="45.66021" lon="4.63483">
        <ele>471.4</ele>
        <time>2025-08-06T07:57:50Z</time>
      </trkpt>
      <trkpt lat="45.66023" lon="4.63481">
        <ele>471.8</ele>
        <time>2025-08-06T07:57:51Z</time>
      </trkpt>
      <trkpt lat="45.66025" lon="4.63479">
        <ele>472.2</ele>
        <time>2025-08-06T07:57:52Z</time>
      </trkpt>
      <trkpt lat="45.66026" lon="4.63476">
        <ele>472.6</ele>
        <time>2025-08-06T07:57:53Z</time>
      </trkpt>
      <trkpt lat="45.66028" lon="4.63473">
        <ele>473</ele>
        <time>2025-08-06T07:57:54Z</time>
      </trkpt>
      <trkpt lat="45.66029" lon="4.63471">
        <ele>473.4</ele>
        <time>2025-08-06T07:57:55Z</time>
      </trkpt>
      <trkpt lat="45.6603" lon="4.63468">
        <ele>473.8</ele>
        <time>2025-08-06T07:57:56Z</time>
      </trkpt>
      <trkpt lat="45.66031" lon="4.63466">
        <ele>474.2</ele>
        <time>2025-08-06T07:57:57Z</time>
      </trkpt>
      <trkpt lat="45.66032" lon="4.63463">
        <ele>474.6</ele>
        <time>2025-08-06T07:57:58Z</time>
      </trkpt>
      <trkpt lat="45.66033" lon="4.63461">
        <ele>475</ele>
        <time>2025-08-06T07:57:59Z</time>
      </trkpt>
      <trkpt lat="45.66034" lon="4.6346">
        <ele>475.2</ele>
        <time>2025-08-06T07:58:00Z</time>
      </trkpt>
      <trkpt lat="45.66036" lon="4.63459">
        <ele>475.6</ele>
        <time>2025-08-06T07:58:01Z</time>
      </trkpt>
      <trkpt lat="45.66038" lon="4.6346">
        <ele>475.8</ele>
        <time>2025-08-06T07:58:02Z</time>
      </trkpt>
      <trkpt lat="45.66041" lon="4.63461">
        <ele>476</ele>
        <time>2025-08-06T07:58:03Z</time>
      </trkpt>
      <trkpt lat="45.66043" lon="4.63464">
        <ele>476.2</ele>
        <time>2025-08-06T07:58:04Z</time>
      </trkpt>
      <trkpt lat="45.66045" lon="4.63467">
        <ele>476.4</ele>
        <time>2025-08-06T07:58:05Z</time>
      </trkpt>
      <trkpt lat="45.66047" lon="4.63469">
        <ele>476.6</ele>
        <time>2025-08-06T07:58:06Z</time>
      </trkpt>
      <trkpt lat="45.66049" lon="4.63471">
        <ele>476.8</ele>
        <time>2025-08-06T07:58:07Z</time>
      </trkpt>
      <trkpt lat="45.66051" lon="4.63474">
        <ele>477</ele>
        <time>2025-08-06T07:58:08Z</time>
      </trkpt>
      <trkpt lat="45.66053" lon="4.63476">
        <ele>477.2</ele>
        <time>2025-08-06T07:58:09Z</time>
      </trkpt>
      <trkpt lat="45.66055" lon="4.63478">
        <ele>477.6</ele>
        <time>2025-08-06T07:58:10Z</time>
      </trkpt>
      <trkpt lat="45.66057" lon="4.6348">
        <ele>477.8</ele>
        <time>2025-08-06T07:58:11Z</time>
      </trkpt>
      <trkpt lat="45.6606" lon="4.6348">
        <ele>478.2</ele>
        <time>2025-08-06T07:58:12Z</time>
      </trkpt>
      <trkpt lat="45.66062" lon="4.63479">
        <ele>478.6</ele>
        <time>2025-08-06T07:58:13Z</time>
      </trkpt>
      <trkpt lat="45.66064" lon="4.63476">
        <ele>478.8</ele>
        <time>2025-08-06T07:58:14Z</time>
      </trkpt>
      <trkpt lat="45.66066" lon="4.63472">
        <ele>479.2</ele>
        <time>2025-08-06T07:58:15Z</time>
      </trkpt>
      <trkpt lat="45.66067" lon="4.63469">
        <ele>479.4</ele>
        <time>2025-08-06T07:58:16Z</time>
      </trkpt>
      <trkpt lat="45.66069" lon="4.63465">
        <ele>479.6</ele>
        <time>2025-08-06T07:58:17Z</time>
      </trkpt>
      <trkpt lat="45.6607" lon="4.6346">
        <ele>480</ele>
        <time>2025-08-06T07:58:18Z</time>
      </trkpt>
      <trkpt lat="45.66071" lon="4.63456">
        <ele>480.2</ele>
        <time>2025-08-06T07:58:19Z</time>
      </trkpt>
      <trkpt lat="45.66072" lon="4.63451">
        <ele>480.4</ele>
        <time>2025-08-06T07:58:20Z</time>
      </trkpt>
      <trkpt lat="45.66073" lon="4.63447">
        <ele>480.6</ele>
        <time>2025-08-06T07:58:21Z</time>
      </trkpt>
      <trkpt lat="45.66075" lon="4.63443">
        <ele>480.8</ele>
        <time>2025-08-06T07:58:22Z</time>
      </trkpt>
      <trkpt lat="45.66076" lon="4.63439">
        <ele>481</ele>
        <time>2025-08-06T07:58:23Z</time>
      </trkpt>
      <trkpt lat="45.66077" lon="4.63434">
        <ele>481.2</ele>
        <time>2025-08-06T07:58:24Z</time>
      </trkpt>
      <trkpt lat="45.66078" lon="4.6343">
        <ele>481.6</ele>
        <time>2025-08-06T07:58:25Z</time>
      </trkpt>
      <trkpt lat="45.6608" lon="4.63426">
        <ele>481.8</ele>
        <time>2025-08-06T07:58:26Z</time>
      </trkpt>
      <trkpt lat="45.66081" lon="4.63422">
        <ele>482</ele>
        <time>2025-08-06T07:58:27Z</time>
      </trkpt>
      <trkpt lat="45.66082" lon="4.63417">
        <ele>482.4</ele>
        <time>2025-08-06T07:58:28Z</time>
      </trkpt>
      <trkpt lat="45.66084" lon="4.63413">
        <ele>482.6</ele>
        <time>2025-08-06T07:58:29Z</time>
      </trkpt>
      <trkpt lat="45.66085" lon="4.63408">
        <ele>482.8</ele>
        <time>2025-08-06T07:58:30Z</time>
      </trkpt>
      <trkpt lat="45.66086" lon="4.63403">
        <ele>483</ele>
        <time>2025-08-06T07:58:31Z</time>
      </trkpt>
      <trkpt lat="45.66086" lon="4.63398">
        <ele>483.2</ele>
        <time>2025-08-06T07:58:32Z</time>
      </trkpt>
      <trkpt lat="45.66087" lon="4.63393">
        <ele>483.4</ele>
        <time>2025-08-06T07:58:33Z</time>
      </trkpt>
      <trkpt lat="45.66088" lon="4.63388">
        <ele>483.6</ele>
        <time>2025-08-06T07:58:34Z</time>
      </trkpt>
      <trkpt lat="45.6609" lon="4.63384">
        <ele>483.8</ele>
        <time>2025-08-06T07:58:35Z</time>
      </trkpt>
      <trkpt lat="45.66091" lon="4.63379">
        <ele>484</ele>
        <time>2025-08-06T07:58:36Z</time>
      </trkpt>
      <trkpt lat="45.66092" lon="4.63375">
        <ele>484.2</ele>
        <time>2025-08-06T07:58:37Z</time>
      </trkpt>
      <trkpt lat="45.66093" lon="4.6337">
        <ele>484.4</ele>
        <time>2025-08-06T07:58:38Z</time>
      </trkpt>
      <trkpt lat="45.66094" lon="4.63366">
        <ele>484.6</ele>
        <time>2025-08-06T07:58:39Z</time>
      </trkpt>
      <trkpt lat="45.66095" lon="4.63362">
        <ele>484.8</ele>
        <time>2025-08-06T07:58:40Z</time>
      </trkpt>
      <trkpt lat="45.66096" lon="4.63357">
        <ele>485</ele>
        <time>2025-08-06T07:58:41Z</time>
      </trkpt>
      <trkpt lat="45.66097" lon="4.63353">
        <ele>485.2</ele>
        <time>2025-08-06T07:58:42Z</time>
      </trkpt>
      <trkpt lat="45.66098" lon="4.63349">
        <ele>485.4</ele>
        <time>2025-08-06T07:58:43Z</time>
      </trkpt>
      <trkpt lat="45.66099" lon="4.63344">
        <ele>485.8</ele>
        <time>2025-08-06T07:58:44Z</time>
      </trkpt>
      <trkpt lat="45.661" lon="4.6334">
        <ele>486</ele>
        <time>2025-08-06T07:58:45Z</time>
      </trkpt>
      <trkpt lat="45.661" lon="4.63336">
        <ele>486.4</ele>
        <time>2025-08-06T07:58:46Z</time>
      </trkpt>
      <trkpt lat="45.66101" lon="4.63332">
        <ele>486.6</ele>
        <time>2025-08-06T07:58:47Z</time>
      </trkpt>
      <trkpt lat="45.66102" lon="4.63327">
        <ele>486.8</ele>
        <time>2025-08-06T07:58:48Z</time>
      </trkpt>
      <trkpt lat="45.66103" lon="4.63323">
        <ele>487.2</ele>
        <time>2025-08-06T07:58:49Z</time>
      </trkpt>
      <trkpt lat="45.66104" lon="4.63319">
        <ele>487.4</ele>
        <time>2025-08-06T07:58:50Z</time>
      </trkpt>
      <trkpt lat="45.66104" lon="4.63314">
        <ele>487.6</ele>
        <time>2025-08-06T07:58:51Z</time>
      </trkpt>
      <trkpt lat="45.66105" lon="4.6331">
        <ele>487.8</ele>
        <time>2025-08-06T07:58:52Z</time>
      </trkpt>
      <trkpt lat="45.66105" lon="4.63306">
        <ele>488</ele>
        <time>2025-08-06T07:58:53Z</time>
      </trkpt>
      <trkpt lat="45.66105" lon="4.63302">
        <ele>488.4</ele>
        <time>2025-08-06T07:58:54Z</time>
      </trkpt>
      <trkpt lat="45.66105" lon="4.63298">
        <ele>488.6</ele>
        <time>2025-08-06T07:58:55Z</time>
      </trkpt>
      <trkpt lat="45.66105" lon="4.63295">
        <ele>488.8</ele>
        <time>2025-08-06T07:58:56Z</time>
      </trkpt>
      <trkpt lat="45.66107" lon="4.63292">
        <ele>488.8</ele>
        <time>2025-08-06T07:58:57Z</time>
      </trkpt>
      <trkpt lat="45.66109" lon="4.63291">
        <ele>489</ele>
        <time>2025-08-06T07:58:58Z</time>
      </trkpt>
      <trkpt lat="45.66113" lon="4.63292">
        <ele>489</ele>
        <time>2025-08-06T07:58:59Z</time>
      </trkpt>
      <trkpt lat="45.66118" lon="4.63292">
        <ele>488.6</ele>
        <time>2025-08-06T07:59:00Z</time>
      </trkpt>
      <trkpt lat="45.66122" lon="4.63291">
        <ele>488.2</ele>
        <time>2025-08-06T07:59:01Z</time>
      </trkpt>
      <trkpt lat="45.66126" lon="4.63289">
        <ele>487.8</ele>
        <time>2025-08-06T07:59:02Z</time>
      </trkpt>
      <trkpt lat="45.6613" lon="4.63286">
        <ele>487.4</ele>
        <time>2025-08-06T07:59:03Z</time>
      </trkpt>
      <trkpt lat="45.66133" lon="4.63284">
        <ele>487.2</ele>
        <time>2025-08-06T07:59:04Z</time>
      </trkpt>
      <trkpt lat="45.66136" lon="4.63282">
        <ele>487</ele>
        <time>2025-08-06T07:59:05Z</time>
      </trkpt>
      <trkpt lat="45.66139" lon="4.6328">
        <ele>487</ele>
        <time>2025-08-06T07:59:06Z</time>
      </trkpt>
      <trkpt lat="45.66143" lon="4.63278">
        <ele>486.6</ele>
        <time>2025-08-06T07:59:07Z</time>
      </trkpt>
      <trkpt lat="45.66147" lon="4.63277">
        <ele>486.2</ele>
        <time>2025-08-06T07:59:08Z</time>
      </trkpt>
      <trkpt lat="45.6615" lon="4.63276">
        <ele>485.8</ele>
        <time>2025-08-06T07:59:09Z</time>
      </trkpt>
      <trkpt lat="45.66154" lon="4.63274">
        <ele>485</ele>
        <time>2025-08-06T07:59:10Z</time>
      </trkpt>
      <trkpt lat="45.66157" lon="4.63273">
        <ele>484.4</ele>
        <time>2025-08-06T07:59:11Z</time>
      </trkpt>
      <trkpt lat="45.66161" lon="4.63272">
        <ele>483.8</ele>
        <time>2025-08-06T07:59:12Z</time>
      </trkpt>
      <trkpt lat="45.66164" lon="4.63271">
        <ele>483.2</ele>
        <time>2025-08-06T07:59:13Z</time>
      </trkpt>
      <trkpt lat="45.66168" lon="4.63271">
        <ele>482.6</ele>
        <time>2025-08-06T07:59:14Z</time>
      </trkpt>
      <trkpt lat="45.66171" lon="4.63271">
        <ele>482</ele>
        <time>2025-08-06T07:59:15Z</time>
      </trkpt>
      <trkpt lat="45.66174" lon="4.6327">
        <ele>481.4</ele>
        <time>2025-08-06T07:59:16Z</time>
      </trkpt>
      <trkpt lat="45.66177" lon="4.63268">
        <ele>480.6</ele>
        <time>2025-08-06T07:59:17Z</time>
      </trkpt>
      <trkpt lat="45.66181" lon="4.63266">
        <ele>479.8</ele>
        <time>2025-08-06T07:59:18Z</time>
      </trkpt>
      <trkpt lat="45.66185" lon="4.63264">
        <ele>479</ele>
        <time>2025-08-06T07:59:19Z</time>
      </trkpt>
      <trkpt lat="45.66189" lon="4.63263">
        <ele>478</ele>
        <time>2025-08-06T07:59:20Z</time>
      </trkpt>
      <trkpt lat="45.66193" lon="4.63262">
        <ele>477</ele>
        <time>2025-08-06T07:59:21Z</time>
      </trkpt>
      <trkpt lat="45.66197" lon="4.63261">
        <ele>476.2</ele>
        <time>2025-08-06T07:59:22Z</time>
      </trkpt>
      <trkpt lat="45.66201" lon="4.6326">
        <ele>475.2</ele>
        <time>2025-08-06T07:59:23Z</time>
      </trkpt>
      <trkpt lat="45.66205" lon="4.63258">
        <ele>474.2</ele>
        <time>2025-08-06T07:59:24Z</time>
      </trkpt>
      <trkpt lat="45.6621" lon="4.63256">
        <ele>473.2</ele>
        <time>2025-08-06T07:59:25Z</time>
      </trkpt>
      <trkpt lat="45.66213" lon="4.63254">
        <ele>472.2</ele>
        <time>2025-08-06T07:59:26Z</time>
      </trkpt>
      <trkpt lat="45.66217" lon="4.63252">
        <ele>471.2</ele>
        <time>2025-08-06T07:59:27Z</time>
      </trkpt>
      <trkpt lat="45.6622" lon="4.63251">
        <ele>470.2</ele>
        <time>2025-08-06T07:59:28Z</time>
      </trkpt>
      <trkpt lat="45.66224" lon="4.63249">
        <ele>469.4</ele>
        <time>2025-08-06T07:59:29Z</time>
      </trkpt>
      <trkpt lat="45.66227" lon="4.63247">
        <ele>468.4</ele>
        <time>2025-08-06T07:59:30Z</time>
      </trkpt>
      <trkpt lat="45.6623" lon="4.63245">
        <ele>467.8</ele>
        <time>2025-08-06T07:59:31Z</time>
      </trkpt>
      <trkpt lat="45.66233" lon="4.63242">
        <ele>467</ele>
        <time>2025-08-06T07:59:32Z</time>
      </trkpt>
      <trkpt lat="45.66235" lon="4.63239">
        <ele>466.4</ele>
        <time>2025-08-06T07:59:33Z</time>
      </trkpt>
      <trkpt lat="45.66238" lon="4.63237">
        <ele>465.6</ele>
        <time>2025-08-06T07:59:34Z</time>
      </trkpt>
      <trkpt lat="45.66242" lon="4.63235">
        <ele>465</ele>
        <time>2025-08-06T07:59:35Z</time>
      </trkpt>
      <trkpt lat="45.66245" lon="4.63232">
        <ele>464.2</ele>
        <time>2025-08-06T07:59:36Z</time>
      </trkpt>
      <trkpt lat="45.66249" lon="4.6323">
        <ele>463.4</ele>
        <time>2025-08-06T07:59:37Z</time>
      </trkpt>
      <trkpt lat="45.66251" lon="4.63228">
        <ele>462.8</ele>
        <time>2025-08-06T07:59:38Z</time>
      </trkpt>
      <trkpt lat="45.66254" lon="4.63227">
        <ele>462.2</ele>
        <time>2025-08-06T07:59:39Z</time>
      </trkpt>
      <trkpt lat="45.66256" lon="4.63225">
        <ele>461.6</ele>
        <time>2025-08-06T07:59:40Z</time>
      </trkpt>
      <trkpt lat="45.66258" lon="4.63223">
        <ele>461</ele>
        <time>2025-08-06T07:59:41Z</time>
      </trkpt>
      <trkpt lat="45.66261" lon="4.63221">
        <ele>460.4</ele>
        <time>2025-08-06T07:59:42Z</time>
      </trkpt>
      <trkpt lat="45.66263" lon="4.63219">
        <ele>460</ele>
        <time>2025-08-06T07:59:43Z</time>
      </trkpt>
      <trkpt lat="45.66266" lon="4.63217">
        <ele>459.4</ele>
        <time>2025-08-06T07:59:44Z</time>
      </trkpt>
      <trkpt lat="45.66268" lon="4.63215">
        <ele>458.8</ele>
        <time>2025-08-06T07:59:45Z</time>
      </trkpt>
      <trkpt lat="45.66271" lon="4.63213">
        <ele>458.2</ele>
        <time>2025-08-06T07:59:46Z</time>
      </trkpt>
      <trkpt lat="45.66273" lon="4.63211">
        <ele>457.8</ele>
        <time>2025-08-06T07:59:47Z</time>
      </trkpt>
      <trkpt lat="45.66275" lon="4.63209">
        <ele>457.4</ele>
        <time>2025-08-06T07:59:48Z</time>
      </trkpt>
      <trkpt lat="45.66277" lon="4.63207">
        <ele>456.8</ele>
        <time>2025-08-06T07:59:49Z</time>
      </trkpt>
      <trkpt lat="45.66279" lon="4.63205">
        <ele>456.4</ele>
        <time>2025-08-06T07:59:50Z</time>
      </trkpt>
      <trkpt lat="45.66282" lon="4.63202">
        <ele>455.8</ele>
        <time>2025-08-06T07:59:51Z</time>
      </trkpt>
      <trkpt lat="45.66285" lon="4.63199">
        <ele>455.4</ele>
        <time>2025-08-06T07:59:52Z</time>
      </trkpt>
      <trkpt lat="45.66288" lon="4.63197">
        <ele>454.8</ele>
        <time>2025-08-06T07:59:53Z</time>
      </trkpt>
      <trkpt lat="45.6629" lon="4.63195">
        <ele>454.2</ele>
        <time>2025-08-06T07:59:54Z</time>
      </trkpt>
      <trkpt lat="45.66292" lon="4.63193">
        <ele>453.8</ele>
        <time>2025-08-06T07:59:55Z</time>
      </trkpt>
      <trkpt lat="45.66295" lon="4.6319">
        <ele>453.2</ele>
        <time>2025-08-06T07:59:56Z</time>
      </trkpt>
      <trkpt lat="45.66298" lon="4.63188">
        <ele>452.8</ele>
        <time>2025-08-06T07:59:57Z</time>
      </trkpt>
      <trkpt lat="45.663" lon="4.63185">
        <ele>452.2</ele>
        <time>2025-08-06T07:59:58Z</time>
      </trkpt>
      <trkpt lat="45.66302" lon="4.63182">
        <ele>451.6</ele>
        <time>2025-08-06T07:59:59Z</time>
      </trkpt>
      <trkpt lat="45.66304" lon="4.6318">
        <ele>451.2</ele>
        <time>2025-08-06T08:00:00Z</time>
      </trkpt>
      <trkpt lat="45.66306" lon="4.63178">
        <ele>450.6</ele>
        <time>2025-08-06T08:00:01Z</time>
      </trkpt>
      <trkpt lat="45.66308" lon="4.63175">
        <ele>450.2</ele>
        <time>2025-08-06T08:00:02Z</time>
      </trkpt>
      <trkpt lat="45.6631" lon="4.63174">
        <ele>449.6</ele>
        <time>2025-08-06T08:00:03Z</time>
      </trkpt>
      <trkpt lat="45.66312" lon="4.63173">
        <ele>449.2</ele>
        <time>2025-08-06T08:00:04Z</time>
      </trkpt>
      <trkpt lat="45.66314" lon="4.63171">
        <ele>448.6</ele>
        <time>2025-08-06T08:00:05Z</time>
      </trkpt>
      <trkpt lat="45.66317" lon="4.63169">
        <ele>448</ele>
        <time>2025-08-06T08:00:06Z</time>
      </trkpt>
      <trkpt lat="45.6632" lon="4.63165">
        <ele>447.4</ele>
        <time>2025-08-06T08:00:07Z</time>
      </trkpt>
      <trkpt lat="45.66323" lon="4.63161">
        <ele>446.8</ele>
        <time>2025-08-06T08:00:08Z</time>
      </trkpt>
      <trkpt lat="45.66326" lon="4.63158">
        <ele>446.2</ele>
        <time>2025-08-06T08:00:09Z</time>
      </trkpt>
      <trkpt lat="45.66329" lon="4.63156">
        <ele>445.4</ele>
        <time>2025-08-06T08:00:10Z</time>
      </trkpt>
      <trkpt lat="45.66333" lon="4.63157">
        <ele>444.8</ele>
        <time>2025-08-06T08:00:11Z</time>
      </trkpt>
      <trkpt lat="45.66336" lon="4.63159">
        <ele>444.2</ele>
        <time>2025-08-06T08:00:12Z</time>
      </trkpt>
      <trkpt lat="45.66338" lon="4.63163">
        <ele>443.6</ele>
        <time>2025-08-06T08:00:13Z</time>
      </trkpt>
      <trkpt lat="45.6634" lon="4.63168">
        <ele>443</ele>
        <time>2025-08-06T08:00:14Z</time>
      </trkpt>
      <trkpt lat="45.66343" lon="4.63173">
        <ele>442.2</ele>
        <time>2025-08-06T08:00:15Z</time>
      </trkpt>
      <trkpt lat="45.66345" lon="4.63179">
        <ele>441.6</ele>
        <time>2025-08-06T08:00:16Z</time>
      </trkpt>
      <trkpt lat="45.66347" lon="4.63185">
        <ele>440.8</ele>
        <time>2025-08-06T08:00:17Z</time>
      </trkpt>
      <trkpt lat="45.66348" lon="4.6319">
        <ele>440</ele>
        <time>2025-08-06T08:00:18Z</time>
      </trkpt>
      <trkpt lat="45.6635" lon="4.63196">
        <ele>439.2</ele>
        <time>2025-08-06T08:00:19Z</time>
      </trkpt>
      <trkpt lat="45.66352" lon="4.63201">
        <ele>438.6</ele>
        <time>2025-08-06T08:00:20Z</time>
      </trkpt>
      <trkpt lat="45.66353" lon="4.63206">
        <ele>437.8</ele>
        <time>2025-08-06T08:00:21Z</time>
      </trkpt>
      <trkpt lat="45.66355" lon="4.6321">
        <ele>437.2</ele>
        <time>2025-08-06T08:00:22Z</time>
      </trkpt>
      <trkpt lat="45.66356" lon="4.63215">
        <ele>436.4</ele>
        <time>2025-08-06T08:00:23Z</time>
      </trkpt>
      <trkpt lat="45.66357" lon="4.63218">
        <ele>436</ele>
        <time>2025-08-06T08:00:24Z</time>
      </trkpt>
      <trkpt lat="45.6636" lon="4.63218">
        <ele>435.4</ele>
        <time>2025-08-06T08:00:25Z</time>
      </trkpt>
      <trkpt lat="45.66361" lon="4.63216">
        <ele>435</ele>
        <time>2025-08-06T08:00:26Z</time>
      </trkpt>
      <trkpt lat="45.66362" lon="4.63212">
        <ele>434.6</ele>
        <time>2025-08-06T08:00:27Z</time>
      </trkpt>
      <trkpt lat="45.66363" lon="4.63208">
        <ele>434.2</ele>
        <time>2025-08-06T08:00:28Z</time>
      </trkpt>
      <trkpt lat="45.66364" lon="4.63203">
        <ele>433.8</ele>
        <time>2025-08-06T08:00:29Z</time>
      </trkpt>
      <trkpt lat="45.66365" lon="4.63198">
        <ele>433.4</ele>
        <time>2025-08-06T08:00:30Z</time>
      </trkpt>
      <trkpt lat="45.66368" lon="4.63194">
        <ele>433</ele>
        <time>2025-08-06T08:00:31Z</time>
      </trkpt>
      <trkpt lat="45.66371" lon="4.63189">
        <ele>432.8</ele>
        <time>2025-08-06T08:00:32Z</time>
      </trkpt>
      <trkpt lat="45.66374" lon="4.63185">
        <ele>432.8</ele>
        <time>2025-08-06T08:00:33Z</time>
      </trkpt>
      <trkpt lat="45.66378" lon="4.63181">
        <ele>432.8</ele>
        <time>2025-08-06T08:00:34Z</time>
      </trkpt>
      <trkpt lat="45.66381" lon="4.63177">
        <ele>433</ele>
        <time>2025-08-06T08:00:35Z</time>
      </trkpt>
      <trkpt lat="45.66384" lon="4.63174">
        <ele>433.2</ele>
        <time>2025-08-06T08:00:36Z</time>
      </trkpt>
      <trkpt lat="45.66387" lon="4.63171">
        <ele>433.6</ele>
        <time>2025-08-06T08:00:37Z</time>
      </trkpt>
      <trkpt lat="45.6639" lon="4.63168">
        <ele>434</ele>
        <time>2025-08-06T08:00:38Z</time>
      </trkpt>
      <trkpt lat="45.66392" lon="4.63165">
        <ele>434.4</ele>
        <time>2025-08-06T08:00:39Z</time>
      </trkpt>
      <trkpt lat="45.66395" lon="4.63163">
        <ele>434.8</ele>
        <time>2025-08-06T08:00:40Z</time>
      </trkpt>
      <trkpt lat="45.66398" lon="4.63162">
        <ele>435.4</ele>
        <time>2025-08-06T08:00:41Z</time>
      </trkpt>
      <trkpt lat="45.66401" lon="4.63161">
        <ele>435.8</ele>
        <time>2025-08-06T08:00:42Z</time>
      </trkpt>
      <trkpt lat="45.66404" lon="4.63162">
        <ele>436.2</ele>
        <time>2025-08-06T08:00:43Z</time>
      </trkpt>
      <trkpt lat="45.66407" lon="4.63165">
        <ele>436.8</ele>
        <time>2025-08-06T08:00:44Z</time>
      </trkpt>
      <trkpt lat="45.66409" lon="4.63168">
        <ele>437.2</ele>
        <time>2025-08-06T08:00:45Z</time>
      </trkpt>
      <trkpt lat="45.66412" lon="4.63171">
        <ele>437.4</ele>
        <time>2025-08-06T08:00:46Z</time>
      </trkpt>
      <trkpt lat="45.66414" lon="4.63174">
        <ele>437.8</ele>
        <time>2025-08-06T08:00:47Z</time>
      </trkpt>
      <trkpt lat="45.66416" lon="4.63177">
        <ele>438.2</ele>
        <time>2025-08-06T08:00:48Z</time>
      </trkpt>
      <trkpt lat="45.66419" lon="4.63179">
        <ele>438.6</ele>
        <time>2025-08-06T08:00:49Z</time>
      </trkpt>
      <trkpt lat="45.66422" lon="4.63179">
        <ele>439</ele>
        <time>2025-08-06T08:00:50Z</time>
      </trkpt>
      <trkpt lat="45.66424" lon="4.63178">
        <ele>439.6</ele>
        <time>2025-08-06T08:00:51Z</time>
      </trkpt>
      <trkpt lat="45.66426" lon="4.63176">
        <ele>440</ele>
        <time>2025-08-06T08:00:52Z</time>
      </trkpt>
      <trkpt lat="45.66428" lon="4.63174">
        <ele>440.4</ele>
        <time>2025-08-06T08:00:53Z</time>
      </trkpt>
      <trkpt lat="45.6643" lon="4.63171">
        <ele>440.8</ele>
        <time>2025-08-06T08:00:54Z</time>
      </trkpt>
      <trkpt lat="45.66432" lon="4.63168">
        <ele>441.2</ele>
        <time>2025-08-06T08:00:55Z</time>
      </trkpt>
      <trkpt lat="45.66433" lon="4.63166">
        <ele>441.6</ele>
        <time>2025-08-06T08:00:56Z</time>
      </trkpt>
      <trkpt lat="45.66434" lon="4.63163">
        <ele>441.8</ele>
        <time>2025-08-06T08:00:57Z</time>
      </trkpt>
      <trkpt lat="45.66436" lon="4.63161">
        <ele>442.2</ele>
        <time>2025-08-06T08:00:58Z</time>
      </trkpt>
      <trkpt lat="45.66438" lon="4.63159">
        <ele>442.4</ele>
        <time>2025-08-06T08:00:59Z</time>
      </trkpt>
      <trkpt lat="45.6644" lon="4.63157">
        <ele>442.6</ele>
        <time>2025-08-06T08:01:00Z</time>
      </trkpt>
      <trkpt lat="45.66441" lon="4.63157">
        <ele>443</ele>
        <time>2025-08-06T08:01:01Z</time>
      </trkpt>
      <trkpt lat="45.66443" lon="4.63156">
        <ele>443.4</ele>
        <time>2025-08-06T08:01:02Z</time>
      </trkpt>
      <trkpt lat="45.66446" lon="4.63156">
        <ele>443.8</ele>
        <time>2025-08-06T08:01:03Z</time>
      </trkpt>
      <trkpt lat="45.66448" lon="4.63155">
        <ele>444.2</ele>
        <time>2025-08-06T08:01:04Z</time>
      </trkpt>
      <trkpt lat="45.6645" lon="4.63155">
        <ele>444.6</ele>
        <time>2025-08-06T08:01:05Z</time>
      </trkpt>
      <trkpt lat="45.66452" lon="4.63154">
        <ele>445</ele>
        <time>2025-08-06T08:01:06Z</time>
      </trkpt>
      <trkpt lat="45.66454" lon="4.63154">
        <ele>445.4</ele>
        <time>2025-08-06T08:01:07Z</time>
      </trkpt>
      <trkpt lat="45.66456" lon="4.63154">
        <ele>445.8</ele>
        <time>2025-08-06T08:01:08Z</time>
      </trkpt>
      <trkpt lat="45.66459" lon="4.63154">
        <ele>446</ele>
        <time>2025-08-06T08:01:09Z</time>
      </trkpt>
      <trkpt lat="45.66461" lon="4.63154">
        <ele>446.4</ele>
        <time>2025-08-06T08:01:10Z</time>
      </trkpt>
      <trkpt lat="45.66464" lon="4.63155">
        <ele>446.6</ele>
        <time>2025-08-06T08:01:11Z</time>
      </trkpt>
      <trkpt lat="45.66467" lon="4.63155">
        <ele>446.8</ele>
        <time>2025-08-06T08:01:12Z</time>
      </trkpt>
      <trkpt lat="45.66469" lon="4.63155">
        <ele>447</ele>
        <time>2025-08-06T08:01:13Z</time>
      </trkpt>
      <trkpt lat="45.66472" lon="4.63155">
        <ele>447.2</ele>
        <time>2025-08-06T08:01:14Z</time>
      </trkpt>
      <trkpt lat="45.66475" lon="4.63155">
        <ele>447.4</ele>
        <time>2025-08-06T08:01:15Z</time>
      </trkpt>
      <trkpt lat="45.66477" lon="4.63155">
        <ele>447.6</ele>
        <time>2025-08-06T08:01:16Z</time>
      </trkpt>
      <trkpt lat="45.6648" lon="4.63155">
        <ele>447.8</ele>
        <time>2025-08-06T08:01:17Z</time>
      </trkpt>
      <trkpt lat="45.66483" lon="4.63155">
        <ele>447.8</ele>
        <time>2025-08-06T08:01:18Z</time>
      </trkpt>
      <trkpt lat="45.66486" lon="4.63156">
        <ele>448</ele>
        <time>2025-08-06T08:01:19Z</time>
      </trkpt>
      <trkpt lat="45.66489" lon="4.63156">
        <ele>448.2</ele>
        <time>2025-08-06T08:01:20Z</time>
      </trkpt>
      <trkpt lat="45.66491" lon="4.63157">
        <ele>448.2</ele>
        <time>2025-08-06T08:01:21Z</time>
      </trkpt>
      <trkpt lat="45.66493" lon="4.63157">
        <ele>448.4</ele>
        <time>2025-08-06T08:01:22Z</time>
      </trkpt>
      <trkpt lat="45.66496" lon="4.63157">
        <ele>448.6</ele>
        <time>2025-08-06T08:01:23Z</time>
      </trkpt>
      <trkpt lat="45.66498" lon="4.63158">
        <ele>448.8</ele>
        <time>2025-08-06T08:01:24Z</time>
      </trkpt>
      <trkpt lat="45.665" lon="4.63158">
        <ele>448.8</ele>
        <time>2025-08-06T08:01:25Z</time>
      </trkpt>
      <trkpt lat="45.66503" lon="4.63159">
        <ele>449</ele>
        <time>2025-08-06T08:01:26Z</time>
      </trkpt>
      <trkpt lat="45.66507" lon="4.6316">
        <ele>449.2</ele>
        <time>2025-08-06T08:01:27Z</time>
      </trkpt>
      <trkpt lat="45.6651" lon="4.6316">
        <ele>449.4</ele>
        <time>2025-08-06T08:01:28Z</time>
      </trkpt>
      <trkpt lat="45.66512" lon="4.63161">
        <ele>449.6</ele>
        <time>2025-08-06T08:01:29Z</time>
      </trkpt>
      <trkpt lat="45.66515" lon="4.63161">
        <ele>449.8</ele>
        <time>2025-08-06T08:01:30Z</time>
      </trkpt>
      <trkpt lat="45.66518" lon="4.63161">
        <ele>450</ele>
        <time>2025-08-06T08:01:31Z</time>
      </trkpt>
      <trkpt lat="45.66521" lon="4.63161">
        <ele>450.2</ele>
        <time>2025-08-06T08:01:32Z</time>
      </trkpt>
      <trkpt lat="45.66523" lon="4.63162">
        <ele>450.4</ele>
        <time>2025-08-06T08:01:33Z</time>
      </trkpt>
      <trkpt lat="45.66526" lon="4.63161">
        <ele>450.6</ele>
        <time>2025-08-06T08:01:34Z</time>
      </trkpt>
      <trkpt lat="45.66529" lon="4.63161">
        <ele>450.6</ele>
        <time>2025-08-06T08:01:35Z</time>
      </trkpt>
      <trkpt lat="45.66532" lon="4.63161">
        <ele>450.8</ele>
        <time>2025-08-06T08:01:36Z</time>
      </trkpt>
      <trkpt lat="45.66535" lon="4.6316">
        <ele>451</ele>
        <time>2025-08-06T08:01:37Z</time>
      </trkpt>
      <trkpt lat="45.66537" lon="4.63159">
        <ele>451.2</ele>
        <time>2025-08-06T08:01:38Z</time>
      </trkpt>
      <trkpt lat="45.6654" lon="4.63158">
        <ele>451.2</ele>
        <time>2025-08-06T08:01:39Z</time>
      </trkpt>
      <trkpt lat="45.66543" lon="4.63157">
        <ele>451.4</ele>
        <time>2025-08-06T08:01:40Z</time>
      </trkpt>
      <trkpt lat="45.66545" lon="4.63156">
        <ele>451.4</ele>
        <time>2025-08-06T08:01:41Z</time>
      </trkpt>
      <trkpt lat="45.66548" lon="4.63155">
        <ele>451.6</ele>
        <time>2025-08-06T08:01:42Z</time>
      </trkpt>
      <trkpt lat="45.6655" lon="4.63154">
        <ele>451.8</ele>
        <time>2025-08-06T08:01:43Z</time>
      </trkpt>
      <trkpt lat="45.66552" lon="4.63153">
        <ele>452</ele>
        <time>2025-08-06T08:01:44Z</time>
      </trkpt>
      <trkpt lat="45.66555" lon="4.63152">
        <ele>452.2</ele>
        <time>2025-08-06T08:01:45Z</time>
      </trkpt>
      <trkpt lat="45.66557" lon="4.6315">
        <ele>452.2</ele>
        <time>2025-08-06T08:01:46Z</time>
      </trkpt>
      <trkpt lat="45.6656" lon="4.63149">
        <ele>452.4</ele>
        <time>2025-08-06T08:01:47Z</time>
      </trkpt>
      <trkpt lat="45.66563" lon="4.63148">
        <ele>452.6</ele>
        <time>2025-08-06T08:01:48Z</time>
      </trkpt>
      <trkpt lat="45.66565" lon="4.63147">
        <ele>452.8</ele>
        <time>2025-08-06T08:01:49Z</time>
      </trkpt>
      <trkpt lat="45.66568" lon="4.63146">
        <ele>453</ele>
        <time>2025-08-06T08:01:50Z</time>
      </trkpt>
      <trkpt lat="45.6657" lon="4.63146">
        <ele>453</ele>
        <time>2025-08-06T08:01:51Z</time>
      </trkpt>
      <trkpt lat="45.66572" lon="4.63145">
        <ele>453.2</ele>
        <time>2025-08-06T08:01:52Z</time>
      </trkpt>
      <trkpt lat="45.66575" lon="4.63144">
        <ele>453.4</ele>
        <time>2025-08-06T08:01:53Z</time>
      </trkpt>
      <trkpt lat="45.66577" lon="4.63143">
        <ele>453.6</ele>
        <time>2025-08-06T08:01:54Z</time>
      </trkpt>
      <trkpt lat="45.6658" lon="4.63142">
        <ele>453.8</ele>
        <time>2025-08-06T08:01:55Z</time>
      </trkpt>
      <trkpt lat="45.66582" lon="4.63141">
        <ele>454</ele>
        <time>2025-08-06T08:01:56Z</time>
      </trkpt>
      <trkpt lat="45.66584" lon="4.6314">
        <ele>454.2</ele>
        <time>2025-08-06T08:01:57Z</time>
      </trkpt>
      <trkpt lat="45.66586" lon="4.63139">
        <ele>454.4</ele>
        <time>2025-08-06T08:01:58Z</time>
      </trkpt>
      <trkpt lat="45.66589" lon="4.63138">
        <ele>454.6</ele>
        <time>2025-08-06T08:01:59Z</time>
      </trkpt>
      <trkpt lat="45.66591" lon="4.63138">
        <ele>454.8</ele>
        <time>2025-08-06T08:02:00Z</time>
      </trkpt>
      <trkpt lat="45.66593" lon="4.63137">
        <ele>455</ele>
        <time>2025-08-06T08:02:01Z</time>
      </trkpt>
      <trkpt lat="45.66595" lon="4.63136">
        <ele>455.2</ele>
        <time>2025-08-06T08:02:02Z</time>
      </trkpt>
      <trkpt lat="45.66598" lon="4.63135">
        <ele>455.6</ele>
        <time>2025-08-06T08:02:03Z</time>
      </trkpt>
      <trkpt lat="45.666" lon="4.63134">
        <ele>455.8</ele>
        <time>2025-08-06T08:02:04Z</time>
      </trkpt>
      <trkpt lat="45.66602" lon="4.63134">
        <ele>456</ele>
        <time>2025-08-06T08:02:05Z</time>
      </trkpt>
      <trkpt lat="45.66604" lon="4.63132">
        <ele>456.2</ele>
        <time>2025-08-06T08:02:06Z</time>
      </trkpt>
      <trkpt lat="45.66606" lon="4.63131">
        <ele>456.4</ele>
        <time>2025-08-06T08:02:07Z</time>
      </trkpt>
      <trkpt lat="45.66608" lon="4.63129">
        <ele>456.8</ele>
        <time>2025-08-06T08:02:08Z</time>
      </trkpt>
      <trkpt lat="45.66611" lon="4.63128">
        <ele>457.2</ele>
        <time>2025-08-06T08:02:09Z</time>
      </trkpt>
      <trkpt lat="45.66613" lon="4.63128">
        <ele>457.6</ele>
        <time>2025-08-06T08:02:10Z</time>
      </trkpt>
      <trkpt lat="45.66615" lon="4.63127">
        <ele>458</ele>
        <time>2025-08-06T08:02:11Z</time>
      </trkpt>
      <trkpt lat="45.66617" lon="4.63127">
        <ele>458.2</ele>
        <time>2025-08-06T08:02:12Z</time>
      </trkpt>
      <trkpt lat="45.66619" lon="4.63126">
        <ele>458.6</ele>
        <time>2025-08-06T08:02:13Z</time>
      </trkpt>
      <trkpt lat="45.66622" lon="4.63125">
        <ele>459</ele>
        <time>2025-08-06T08:02:14Z</time>
      </trkpt>
      <trkpt lat="45.66624" lon="4.63124">
        <ele>459.2</ele>
        <time>2025-08-06T08:02:15Z</time>
      </trkpt>
      <trkpt lat="45.66626" lon="4.63123">
        <ele>459.4</ele>
        <time>2025-08-06T08:02:16Z</time>
      </trkpt>
      <trkpt lat="45.66629" lon="4.63122">
        <ele>459.6</ele>
        <time>2025-08-06T08:02:17Z</time>
      </trkpt>
      <trkpt lat="45.66632" lon="4.6312">
        <ele>459.6</ele>
        <time>2025-08-06T08:02:18Z</time>
      </trkpt>
      <trkpt lat="45.66634" lon="4.63119">
        <ele>459.8</ele>
        <time>2025-08-06T08:02:19Z</time>
      </trkpt>
      <trkpt lat="45.66637" lon="4.63117">
        <ele>460</ele>
        <time>2025-08-06T08:02:20Z</time>
      </trkpt>
      <trkpt lat="45.66639" lon="4.63115">
        <ele>460.2</ele>
        <time>2025-08-06T08:02:21Z</time>
      </trkpt>
      <trkpt lat="45.66642" lon="4.63113">
        <ele>460.4</ele>
        <time>2025-08-06T08:02:22Z</time>
      </trkpt>
      <trkpt lat="45.66644" lon="4.63111">
        <ele>460.4</ele>
        <time>2025-08-06T08:02:23Z</time>
      </trkpt>
      <trkpt lat="45.66647" lon="4.6311">
        <ele>460.6</ele>
        <time>2025-08-06T08:02:24Z</time>
      </trkpt>
      <trkpt lat="45.6665" lon="4.63109">
        <ele>460.8</ele>
        <time>2025-08-06T08:02:25Z</time>
      </trkpt>
      <trkpt lat="45.66652" lon="4.63107">
        <ele>461</ele>
        <time>2025-08-06T08:02:26Z</time>
      </trkpt>
      <trkpt lat="45.66655" lon="4.63105">
        <ele>461.2</ele>
        <time>2025-08-06T08:02:27Z</time>
      </trkpt>
      <trkpt lat="45.66657" lon="4.63104">
        <ele>461.4</ele>
        <time>2025-08-06T08:02:28Z</time>
      </trkpt>
      <trkpt lat="45.6666" lon="4.63102">
        <ele>461.6</ele>
        <time>2025-08-06T08:02:29Z</time>
      </trkpt>
      <trkpt lat="45.66662" lon="4.63101">
        <ele>461.8</ele>
        <time>2025-08-06T08:02:30Z</time>
      </trkpt>
      <trkpt lat="45.66664" lon="4.631">
        <ele>462.2</ele>
        <time>2025-08-06T08:02:31Z</time>
      </trkpt>
      <trkpt lat="45.66666" lon="4.63099">
        <ele>462.4</ele>
        <time>2025-08-06T08:02:32Z</time>
      </trkpt>
      <trkpt lat="45.66669" lon="4.63098">
        <ele>462.6</ele>
        <time>2025-08-06T08:02:33Z</time>
      </trkpt>
      <trkpt lat="45.66671" lon="4.63098">
        <ele>463</ele>
        <time>2025-08-06T08:02:34Z</time>
      </trkpt>
      <trkpt lat="45.66674" lon="4.63098">
        <ele>463.2</ele>
        <time>2025-08-06T08:02:35Z</time>
      </trkpt>
      <trkpt lat="45.66676" lon="4.63098">
        <ele>463.4</ele>
        <time>2025-08-06T08:02:36Z</time>
      </trkpt>
      <trkpt lat="45.66678" lon="4.63098">
        <ele>463.8</ele>
        <time>2025-08-06T08:02:37Z</time>
      </trkpt>
      <trkpt lat="45.66681" lon="4.63099">
        <ele>464.2</ele>
        <time>2025-08-06T08:02:38Z</time>
      </trkpt>
      <trkpt lat="45.66683" lon="4.63099">
        <ele>464.4</ele>
        <time>2025-08-06T08:02:39Z</time>
      </trkpt>
      <trkpt lat="45.66686" lon="4.63099">
        <ele>464.8</ele>
        <time>2025-08-06T08:02:40Z</time>
      </trkpt>
      <trkpt lat="45.66688" lon="4.631">
        <ele>465.2</ele>
        <time>2025-08-06T08:02:41Z</time>
      </trkpt>
      <trkpt lat="45.66691" lon="4.631">
        <ele>465.4</ele>
        <time>2025-08-06T08:02:42Z</time>
      </trkpt>
      <trkpt lat="45.66694" lon="4.63099">
        <ele>465.8</ele>
        <time>2025-08-06T08:02:43Z</time>
      </trkpt>
      <trkpt lat="45.66697" lon="4.63099">
        <ele>466.2</ele>
        <time>2025-08-06T08:02:44Z</time>
      </trkpt>
      <trkpt lat="45.66699" lon="4.63099">
        <ele>466.6</ele>
        <time>2025-08-06T08:02:45Z</time>
      </trkpt>
      <trkpt lat="45.66701" lon="4.631">
        <ele>467</ele>
        <time>2025-08-06T08:02:46Z</time>
      </trkpt>
      <trkpt lat="45.66703" lon="4.63101">
        <ele>467.4</ele>
        <time>2025-08-06T08:02:47Z</time>
      </trkpt>
      <trkpt lat="45.66705" lon="4.63102">
        <ele>467.8</ele>
        <time>2025-08-06T08:02:48Z</time>
      </trkpt>
      <trkpt lat="45.66708" lon="4.63103">
        <ele>468.2</ele>
        <time>2025-08-06T08:02:49Z</time>
      </trkpt>
      <trkpt lat="45.6671" lon="4.63103">
        <ele>468.6</ele>
        <time>2025-08-06T08:02:50Z</time>
      </trkpt>
      <trkpt lat="45.66712" lon="4.63103">
        <ele>468.8</ele>
        <time>2025-08-06T08:02:51Z</time>
      </trkpt>
      <trkpt lat="45.66715" lon="4.63103">
        <ele>469</ele>
        <time>2025-08-06T08:02:52Z</time>
      </trkpt>
      <trkpt lat="45.66717" lon="4.63103">
        <ele>469.2</ele>
        <time>2025-08-06T08:02:53Z</time>
      </trkpt>
      <trkpt lat="45.6672" lon="4.63101">
        <ele>469.4</ele>
        <time>2025-08-06T08:02:54Z</time>
      </trkpt>
      <trkpt lat="45.66722" lon="4.631">
        <ele>469.6</ele>
        <time>2025-08-06T08:02:55Z</time>
      </trkpt>
      <trkpt lat="45.66724" lon="4.63098">
        <ele>470</ele>
        <time>2025-08-06T08:02:56Z</time>
      </trkpt>
      <trkpt lat="45.66726" lon="4.63097">
        <ele>470.2</ele>
        <time>2025-08-06T08:02:57Z</time>
      </trkpt>
      <trkpt lat="45.66728" lon="4.63095">
        <ele>470.4</ele>
        <time>2025-08-06T08:02:58Z</time>
      </trkpt>
      <trkpt lat="45.66731" lon="4.63094">
        <ele>470.6</ele>
        <time>2025-08-06T08:02:59Z</time>
      </trkpt>
      <trkpt lat="45.66733" lon="4.63092">
        <ele>470.8</ele>
        <time>2025-08-06T08:03:00Z</time>
      </trkpt>
      <trkpt lat="45.66735" lon="4.6309">
        <ele>471</ele>
        <time>2025-08-06T08:03:01Z</time>
      </trkpt>
      <trkpt lat="45.66738" lon="4.63088">
        <ele>471.2</ele>
        <time>2025-08-06T08:03:02Z</time>
      </trkpt>
      <trkpt lat="45.6674" lon="4.63086">
        <ele>471.4</ele>
        <time>2025-08-06T08:03:03Z</time>
      </trkpt>
      <trkpt lat="45.66742" lon="4.63085">
        <ele>471.6</ele>
        <time>2025-08-06T08:03:04Z</time>
      </trkpt>
      <trkpt lat="45.66744" lon="4.63083">
        <ele>471.8</ele>
        <time>2025-08-06T08:03:05Z</time>
      </trkpt>
      <trkpt lat="45.66746" lon="4.6308">
        <ele>472</ele>
        <time>2025-08-06T08:03:06Z</time>
      </trkpt>
      <trkpt lat="45.66748" lon="4.63079">
        <ele>472.2</ele>
        <time>2025-08-06T08:03:07Z</time>
      </trkpt>
      <trkpt lat="45.66751" lon="4.63077">
        <ele>472.4</ele>
        <time>2025-08-06T08:03:08Z</time>
      </trkpt>
      <trkpt lat="45.66753" lon="4.63076">
        <ele>472.6</ele>
        <time>2025-08-06T08:03:09Z</time>
      </trkpt>
      <trkpt lat="45.66756" lon="4.63074">
        <ele>472.8</ele>
        <time>2025-08-06T08:03:10Z</time>
      </trkpt>
      <trkpt lat="45.66757" lon="4.63073">
        <ele>472.8</ele>
        <time>2025-08-06T08:03:11Z</time>
      </trkpt>
      <trkpt lat="45.66759" lon="4.63072">
        <ele>473.2</ele>
        <time>2025-08-06T08:03:12Z</time>
      </trkpt>
      <trkpt lat="45.66762" lon="4.63071">
        <ele>473.4</ele>
        <time>2025-08-06T08:03:13Z</time>
      </trkpt>
      <trkpt lat="45.66764" lon="4.6307">
        <ele>473.4</ele>
        <time>2025-08-06T08:03:14Z</time>
      </trkpt>
      <trkpt lat="45.66766" lon="4.6307">
        <ele>473.6</ele>
        <time>2025-08-06T08:03:15Z</time>
      </trkpt>
      <trkpt lat="45.66769" lon="4.6307">
        <ele>473.8</ele>
        <time>2025-08-06T08:03:16Z</time>
      </trkpt>
      <trkpt lat="45.66771" lon="4.63069">
        <ele>474</ele>
        <time>2025-08-06T08:03:17Z</time>
      </trkpt>
      <trkpt lat="45.66774" lon="4.63069">
        <ele>474.2</ele>
        <time>2025-08-06T08:03:18Z</time>
      </trkpt>
      <trkpt lat="45.66777" lon="4.63068">
        <ele>474.4</ele>
        <time>2025-08-06T08:03:19Z</time>
      </trkpt>
      <trkpt lat="45.6678" lon="4.63068">
        <ele>474.4</ele>
        <time>2025-08-06T08:03:20Z</time>
      </trkpt>
      <trkpt lat="45.66783" lon="4.63068">
        <ele>474.4</ele>
        <time>2025-08-06T08:03:21Z</time>
      </trkpt>
      <trkpt lat="45.66786" lon="4.63068">
        <ele>474.4</ele>
        <time>2025-08-06T08:03:22Z</time>
      </trkpt>
      <trkpt lat="45.66789" lon="4.63068">
        <ele>474.4</ele>
        <time>2025-08-06T08:03:23Z</time>
      </trkpt>
      <trkpt lat="45.66792" lon="4.63068">
        <ele>474.4</ele>
        <time>2025-08-06T08:03:24Z</time>
      </trkpt>
      <trkpt lat="45.66795" lon="4.63068">
        <ele>474.2</ele>
        <time>2025-08-06T08:03:25Z</time>
      </trkpt>
      <trkpt lat="45.66798" lon="4.63068">
        <ele>474.2</ele>
        <time>2025-08-06T08:03:26Z</time>
      </trkpt>
      <trkpt lat="45.66801" lon="4.63068">
        <ele>474.2</ele>
        <time>2025-08-06T08:03:27Z</time>
      </trkpt>
      <trkpt lat="45.66804" lon="4.63068">
        <ele>474.2</ele>
        <time>2025-08-06T08:03:28Z</time>
      </trkpt>
      <trkpt lat="45.66807" lon="4.63069">
        <ele>474</ele>
        <time>2025-08-06T08:03:29Z</time>
      </trkpt>
      <trkpt lat="45.6681" lon="4.63069">
        <ele>474</ele>
        <time>2025-08-06T08:03:30Z</time>
      </trkpt>
      <trkpt lat="45.66813" lon="4.63069">
        <ele>473.8</ele>
        <time>2025-08-06T08:03:31Z</time>
      </trkpt>
      <trkpt lat="45.66816" lon="4.63069">
        <ele>473.8</ele>
        <time>2025-08-06T08:03:32Z</time>
      </trkpt>
      <trkpt lat="45.66819" lon="4.63069">
        <ele>473.8</ele>
        <time>2025-08-06T08:03:33Z</time>
      </trkpt>
      <trkpt lat="45.66821" lon="4.63069">
        <ele>473.8</ele>
        <time>2025-08-06T08:03:34Z</time>
      </trkpt>
      <trkpt lat="45.66825" lon="4.63069">
        <ele>473.8</ele>
        <time>2025-08-06T08:03:35Z</time>
      </trkpt>
      <trkpt lat="45.66828" lon="4.63069">
        <ele>473.6</ele>
        <time>2025-08-06T08:03:36Z</time>
      </trkpt>
      <trkpt lat="45.66832" lon="4.6307">
        <ele>473.6</ele>
        <time>2025-08-06T08:03:37Z</time>
      </trkpt>
      <trkpt lat="45.66836" lon="4.6307">
        <ele>473.4</ele>
        <time>2025-08-06T08:03:38Z</time>
      </trkpt>
      <trkpt lat="45.66839" lon="4.6307">
        <ele>473.2</ele>
        <time>2025-08-06T08:03:39Z</time>
      </trkpt>
      <trkpt lat="45.66843" lon="4.6307">
        <ele>473.2</ele>
        <time>2025-08-06T08:03:40Z</time>
      </trkpt>
      <trkpt lat="45.66847" lon="4.6307">
        <ele>473</ele>
        <time>2025-08-06T08:03:41Z</time>
      </trkpt>
      <trkpt lat="45.66851" lon="4.63069">
        <ele>473</ele>
        <time>2025-08-06T08:03:42Z</time>
      </trkpt>
      <trkpt lat="45.66855" lon="4.63069">
        <ele>472.8</ele>
        <time>2025-08-06T08:03:43Z</time>
      </trkpt>
      <trkpt lat="45.66859" lon="4.63068">
        <ele>472.8</ele>
        <time>2025-08-06T08:03:44Z</time>
      </trkpt>
      <trkpt lat="45.66863" lon="4.63068">
        <ele>472.4</ele>
        <time>2025-08-06T08:03:45Z</time>
      </trkpt>
      <trkpt lat="45.66866" lon="4.63067">
        <ele>472.4</ele>
        <time>2025-08-06T08:03:46Z</time>
      </trkpt>
      <trkpt lat="45.66869" lon="4.63066">
        <ele>472.2</ele>
        <time>2025-08-06T08:03:47Z</time>
      </trkpt>
      <trkpt lat="45.66873" lon="4.63065">
        <ele>472</ele>
        <time>2025-08-06T08:03:48Z</time>
      </trkpt>
      <trkpt lat="45.66877" lon="4.63063">
        <ele>471.8</ele>
        <time>2025-08-06T08:03:49Z</time>
      </trkpt>
      <trkpt lat="45.66881" lon="4.63061">
        <ele>471.6</ele>
        <time>2025-08-06T08:03:50Z</time>
      </trkpt>
      <trkpt lat="45.66886" lon="4.63059">
        <ele>471.4</ele>
        <time>2025-08-06T08:03:51Z</time>
      </trkpt>
      <trkpt lat="45.66889" lon="4.63056">
        <ele>471.4</ele>
        <time>2025-08-06T08:03:52Z</time>
      </trkpt>
      <trkpt lat="45.66892" lon="4.63054">
        <ele>471.2</ele>
        <time>2025-08-06T08:03:53Z</time>
      </trkpt>
      <trkpt lat="45.66893" lon="4.6305">
        <ele>471.2</ele>
        <time>2025-08-06T08:03:54Z</time>
      </trkpt>
      <trkpt lat="45.66894" lon="4.63047">
        <ele>471.2</ele>
        <time>2025-08-06T08:03:55Z</time>
      </trkpt>
      <trkpt lat="45.66893" lon="4.63043">
        <ele>471.2</ele>
        <time>2025-08-06T08:03:56Z</time>
      </trkpt>
      <trkpt lat="45.66892" lon="4.63039">
        <ele>471.4</ele>
        <time>2025-08-06T08:03:57Z</time>
      </trkpt>
      <trkpt lat="45.66891" lon="4.63035">
        <ele>471.6</ele>
        <time>2025-08-06T08:03:58Z</time>
      </trkpt>
      <trkpt lat="45.66889" lon="4.6303">
        <ele>471.8</ele>
        <time>2025-08-06T08:03:59Z</time>
      </trkpt>
      <trkpt lat="45.66888" lon="4.63027">
        <ele>472</ele>
        <time>2025-08-06T08:04:00Z</time>
      </trkpt>
      <trkpt lat="45.66888" lon="4.63022">
        <ele>472.2</ele>
        <time>2025-08-06T08:04:01Z</time>
      </trkpt>
      <trkpt lat="45.66886" lon="4.63018">
        <ele>472.6</ele>
        <time>2025-08-06T08:04:02Z</time>
      </trkpt>
      <trkpt lat="45.66886" lon="4.63014">
        <ele>472.8</ele>
        <time>2025-08-06T08:04:03Z</time>
      </trkpt>
      <trkpt lat="45.66885" lon="4.63011">
        <ele>473</ele>
        <time>2025-08-06T08:04:04Z</time>
      </trkpt>
      <trkpt lat="45.66884" lon="4.63008">
        <ele>473.4</ele>
        <time>2025-08-06T08:04:05Z</time>
      </trkpt>
      <trkpt lat="45.66882" lon="4.63006">
        <ele>473.6</ele>
        <time>2025-08-06T08:04:06Z</time>
      </trkpt>
      <trkpt lat="45.66881" lon="4.63003">
        <ele>474</ele>
        <time>2025-08-06T08:04:07Z</time>
      </trkpt>
      <trkpt lat="45.66881" lon="4.63">
        <ele>474.2</ele>
        <time>2025-08-06T08:04:08Z</time>
      </trkpt>
      <trkpt lat="45.66881" lon="4.62996">
        <ele>474.2</ele>
        <time>2025-08-06T08:04:09Z</time>
      </trkpt>
      <trkpt lat="45.66881" lon="4.62992">
        <ele>474.2</ele>
        <time>2025-08-06T08:04:10Z</time>
      </trkpt>
      <trkpt lat="45.66882" lon="4.62988">
        <ele>474.2</ele>
        <time>2025-08-06T08:04:11Z</time>
      </trkpt>
      <trkpt lat="45.66882" lon="4.62982">
        <ele>474.2</ele>
        <time>2025-08-06T08:04:12Z</time>
      </trkpt>
      <trkpt lat="45.66884" lon="4.62977">
        <ele>473.8</ele>
        <time>2025-08-06T08:04:13Z</time>
      </trkpt>
      <trkpt lat="45.66885" lon="4.62971">
        <ele>473.8</ele>
        <time>2025-08-06T08:04:14Z</time>
      </trkpt>
      <trkpt lat="45.66885" lon="4.62965">
        <ele>473.4</ele>
        <time>2025-08-06T08:04:15Z</time>
      </trkpt>
      <trkpt lat="45.66885" lon="4.62959">
        <ele>473.2</ele>
        <time>2025-08-06T08:04:16Z</time>
      </trkpt>
      <trkpt lat="45.66885" lon="4.62952">
        <ele>472.8</ele>
        <time>2025-08-06T08:04:17Z</time>
      </trkpt>
      <trkpt lat="45.66886" lon="4.62946">
        <ele>472.6</ele>
        <time>2025-08-06T08:04:18Z</time>
      </trkpt>
      <trkpt lat="45.66886" lon="4.6294">
        <ele>472.4</ele>
        <time>2025-08-06T08:04:19Z</time>
      </trkpt>
      <trkpt lat="45.66885" lon="4.62933">
        <ele>472</ele>
        <time>2025-08-06T08:04:20Z</time>
      </trkpt>
      <trkpt lat="45.66885" lon="4.62927">
        <ele>471.8</ele>
        <time>2025-08-06T08:04:21Z</time>
      </trkpt>
      <trkpt lat="45.66884" lon="4.6292">
        <ele>471.8</ele>
        <time>2025-08-06T08:04:22Z</time>
      </trkpt>
      <trkpt lat="45.66883" lon="4.62914">
        <ele>471.6</ele>
        <time>2025-08-06T08:04:23Z</time>
      </trkpt>
      <trkpt lat="45.66882" lon="4.62908">
        <ele>471.6</ele>
        <time>2025-08-06T08:04:24Z</time>
      </trkpt>
      <trkpt lat="45.66882" lon="4.62902">
        <ele>471.4</ele>
        <time>2025-08-06T08:04:25Z</time>
      </trkpt>
      <trkpt lat="45.66881" lon="4.62895">
        <ele>471.2</ele>
        <time>2025-08-06T08:04:26Z</time>
      </trkpt>
      <trkpt lat="45.6688" lon="4.62889">
        <ele>471</ele>
        <time>2025-08-06T08:04:27Z</time>
      </trkpt>
      <trkpt lat="45.66879" lon="4.62883">
        <ele>470.8</ele>
        <time>2025-08-06T08:04:28Z</time>
      </trkpt>
      <trkpt lat="45.66878" lon="4.62877">
        <ele>470.8</ele>
        <time>2025-08-06T08:04:29Z</time>
      </trkpt>
      <trkpt lat="45.66877" lon="4.6287">
        <ele>470.6</ele>
        <time>2025-08-06T08:04:30Z</time>
      </trkpt>
      <trkpt lat="45.66877" lon="4.62863">
        <ele>470.6</ele>
        <time>2025-08-06T08:04:31Z</time>
      </trkpt>
      <trkpt lat="45.66876" lon="4.62856">
        <ele>470.4</ele>
        <time>2025-08-06T08:04:32Z</time>
      </trkpt>
      <trkpt lat="45.66876" lon="4.6285">
        <ele>470.2</ele>
        <time>2025-08-06T08:04:33Z</time>
      </trkpt>
      <trkpt lat="45.66877" lon="4.62843">
        <ele>470</ele>
        <time>2025-08-06T08:04:34Z</time>
      </trkpt>
      <trkpt lat="45.66878" lon="4.62837">
        <ele>469.6</ele>
        <time>2025-08-06T08:04:35Z</time>
      </trkpt>
      <trkpt lat="45.66879" lon="4.62831">
        <ele>469.4</ele>
        <time>2025-08-06T08:04:36Z</time>
      </trkpt>
      <trkpt lat="45.66881" lon="4.62825">
        <ele>469.2</ele>
        <time>2025-08-06T08:04:37Z</time>
      </trkpt>
      <trkpt lat="45.66883" lon="4.62819">
        <ele>469</ele>
        <time>2025-08-06T08:04:38Z</time>
      </trkpt>
      <trkpt lat="45.66884" lon="4.62814">
        <ele>468.8</ele>
        <time>2025-08-06T08:04:39Z</time>
      </trkpt>
      <trkpt lat="45.66885" lon="4.62808">
        <ele>468.6</ele>
        <time>2025-08-06T08:04:40Z</time>
      </trkpt>
      <trkpt lat="45.66887" lon="4.62803">
        <ele>468.6</ele>
        <time>2025-08-06T08:04:41Z</time>
      </trkpt>
      <trkpt lat="45.66889" lon="4.62797">
        <ele>468.4</ele>
        <time>2025-08-06T08:04:42Z</time>
      </trkpt>
      <trkpt lat="45.66891" lon="4.62792">
        <ele>468.4</ele>
        <time>2025-08-06T08:04:43Z</time>
      </trkpt>
      <trkpt lat="45.66894" lon="4.62788">
        <ele>468.2</ele>
        <time>2025-08-06T08:04:44Z</time>
      </trkpt>
      <trkpt lat="45.66897" lon="4.62783">
        <ele>468</ele>
        <time>2025-08-06T08:04:45Z</time>
      </trkpt>
      <trkpt lat="45.669" lon="4.62777">
        <ele>468</ele>
        <time>2025-08-06T08:04:46Z</time>
      </trkpt>
      <trkpt lat="45.66903" lon="4.62773">
        <ele>467.8</ele>
        <time>2025-08-06T08:04:47Z</time>
      </trkpt>
      <trkpt lat="45.66906" lon="4.62768">
        <ele>467.4</ele>
        <time>2025-08-06T08:04:48Z</time>
      </trkpt>
      <trkpt lat="45.6691" lon="4.62764">
        <ele>467.2</ele>
        <time>2025-08-06T08:04:49Z</time>
      </trkpt>
      <trkpt lat="45.66913" lon="4.62759">
        <ele>467</ele>
        <time>2025-08-06T08:04:50Z</time>
      </trkpt>
      <trkpt lat="45.66916" lon="4.62754">
        <ele>466.6</ele>
        <time>2025-08-06T08:04:51Z</time>
      </trkpt>
      <trkpt lat="45.66919" lon="4.62748">
        <ele>466.2</ele>
        <time>2025-08-06T08:04:52Z</time>
      </trkpt>
      <trkpt lat="45.66922" lon="4.62743">
        <ele>466.2</ele>
        <time>2025-08-06T08:04:53Z</time>
      </trkpt>
      <trkpt lat="45.66925" lon="4.62737">
        <ele>466</ele>
        <time>2025-08-06T08:04:54Z</time>
      </trkpt>
      <trkpt lat="45.66928" lon="4.62731">
        <ele>465.8</ele>
        <time>2025-08-06T08:04:55Z</time>
      </trkpt>
      <trkpt lat="45.6693" lon="4.62726">
        <ele>465.6</ele>
        <time>2025-08-06T08:04:56Z</time>
      </trkpt>
      <trkpt lat="45.66932" lon="4.6272">
        <ele>465.6</ele>
        <time>2025-08-06T08:04:57Z</time>
      </trkpt>
      <trkpt lat="45.66935" lon="4.62714">
        <ele>465.4</ele>
        <time>2025-08-06T08:04:58Z</time>
      </trkpt>
      <trkpt lat="45.66937" lon="4.62707">
        <ele>465</ele>
        <time>2025-08-06T08:04:59Z</time>
      </trkpt>
      <trkpt lat="45.66939" lon="4.627">
        <ele>464.8</ele>
        <time>2025-08-06T08:05:00Z</time>
      </trkpt>
      <trkpt lat="45.6694" lon="4.62693">
        <ele>464.8</ele>
        <time>2025-08-06T08:05:01Z</time>
      </trkpt>
      <trkpt lat="45.66943" lon="4.62686">
        <ele>464.6</ele>
        <time>2025-08-06T08:05:02Z</time>
      </trkpt>
      <trkpt lat="45.66944" lon="4.6268">
        <ele>464.4</ele>
        <time>2025-08-06T08:05:03Z</time>
      </trkpt>
      <trkpt lat="45.66946" lon="4.62673">
        <ele>464.2</ele>
        <time>2025-08-06T08:05:04Z</time>
      </trkpt>
      <trkpt lat="45.66947" lon="4.62667">
        <ele>464</ele>
        <time>2025-08-06T08:05:05Z</time>
      </trkpt>
      <trkpt lat="45.66948" lon="4.6266">
        <ele>463.8</ele>
        <time>2025-08-06T08:05:06Z</time>
      </trkpt>
      <trkpt lat="45.66949" lon="4.62653">
        <ele>463.6</ele>
        <time>2025-08-06T08:05:07Z</time>
      </trkpt>
      <trkpt lat="45.66949" lon="4.62647">
        <ele>463.4</ele>
        <time>2025-08-06T08:05:08Z</time>
      </trkpt>
      <trkpt lat="45.6695" lon="4.62641">
        <ele>463.2</ele>
        <time>2025-08-06T08:05:09Z</time>
      </trkpt>
      <trkpt lat="45.6695" lon="4.62635">
        <ele>463</ele>
        <time>2025-08-06T08:05:10Z</time>
      </trkpt>
      <trkpt lat="45.6695" lon="4.6263">
        <ele>463</ele>
        <time>2025-08-06T08:05:11Z</time>
      </trkpt>
      <trkpt lat="45.6695" lon="4.62624">
        <ele>462.8</ele>
        <time>2025-08-06T08:05:12Z</time>
      </trkpt>
      <trkpt lat="45.6695" lon="4.62618">
        <ele>462.6</ele>
        <time>2025-08-06T08:05:13Z</time>
      </trkpt>
      <trkpt lat="45.6695" lon="4.62612">
        <ele>462.4</ele>
        <time>2025-08-06T08:05:14Z</time>
      </trkpt>
      <trkpt lat="45.6695" lon="4.62606">
        <ele>462.2</ele>
        <time>2025-08-06T08:05:15Z</time>
      </trkpt>
      <trkpt lat="45.66949" lon="4.626">
        <ele>462</ele>
        <time>2025-08-06T08:05:16Z</time>
      </trkpt>
      <trkpt lat="45.66949" lon="4.62594">
        <ele>462</ele>
        <time>2025-08-06T08:05:17Z</time>
      </trkpt>
      <trkpt lat="45.66948" lon="4.62588">
        <ele>461.8</ele>
        <time>2025-08-06T08:05:18Z</time>
      </trkpt>
      <trkpt lat="45.66947" lon="4.62581">
        <ele>461.6</ele>
        <time>2025-08-06T08:05:19Z</time>
      </trkpt>
      <trkpt lat="45.66947" lon="4.62574">
        <ele>461.6</ele>
        <time>2025-08-06T08:05:20Z</time>
      </trkpt>
      <trkpt lat="45.66946" lon="4.62568">
        <ele>461.4</ele>
        <time>2025-08-06T08:05:21Z</time>
      </trkpt>
      <trkpt lat="45.66944" lon="4.62562">
        <ele>461.4</ele>
        <time>2025-08-06T08:05:22Z</time>
      </trkpt>
      <trkpt lat="45.66943" lon="4.62556">
        <ele>461</ele>
        <time>2025-08-06T08:05:23Z</time>
      </trkpt>
      <trkpt lat="45.66941" lon="4.6255">
        <ele>460.8</ele>
        <time>2025-08-06T08:05:24Z</time>
      </trkpt>
      <trkpt lat="45.66939" lon="4.62544">
        <ele>460.6</ele>
        <time>2025-08-06T08:05:25Z</time>
      </trkpt>
      <trkpt lat="45.66937" lon="4.62538">
        <ele>460.4</ele>
        <time>2025-08-06T08:05:26Z</time>
      </trkpt>
      <trkpt lat="45.66934" lon="4.62532">
        <ele>460.2</ele>
        <time>2025-08-06T08:05:27Z</time>
      </trkpt>
      <trkpt lat="45.66932" lon="4.62527">
        <ele>460.2</ele>
        <time>2025-08-06T08:05:28Z</time>
      </trkpt>
      <trkpt lat="45.66931" lon="4.62521">
        <ele>460</ele>
        <time>2025-08-06T08:05:29Z</time>
      </trkpt>
      <trkpt lat="45.66928" lon="4.62516">
        <ele>460</ele>
        <time>2025-08-06T08:05:30Z</time>
      </trkpt>
      <trkpt lat="45.66925" lon="4.62511">
        <ele>460</ele>
        <time>2025-08-06T08:05:31Z</time>
      </trkpt>
      <trkpt lat="45.66922" lon="4.62506">
        <ele>459.8</ele>
        <time>2025-08-06T08:05:32Z</time>
      </trkpt>
      <trkpt lat="45.66919" lon="4.62501">
        <ele>459.8</ele>
        <time>2025-08-06T08:05:33Z</time>
      </trkpt>
      <trkpt lat="45.66916" lon="4.62496">
        <ele>459.8</ele>
        <time>2025-08-06T08:05:34Z</time>
      </trkpt>
      <trkpt lat="45.66914" lon="4.62492">
        <ele>459.8</ele>
        <time>2025-08-06T08:05:35Z</time>
      </trkpt>
      <trkpt lat="45.66911" lon="4.62487">
        <ele>459.8</ele>
        <time>2025-08-06T08:05:36Z</time>
      </trkpt>
      <trkpt lat="45.66908" lon="4.62482">
        <ele>459.8</ele>
        <time>2025-08-06T08:05:37Z</time>
      </trkpt>
      <trkpt lat="45.66905" lon="4.62477">
        <ele>459.6</ele>
        <time>2025-08-06T08:05:38Z</time>
      </trkpt>
      <trkpt lat="45.66903" lon="4.62471">
        <ele>459.6</ele>
        <time>2025-08-06T08:05:39Z</time>
      </trkpt>
      <trkpt lat="45.66901" lon="4.62465">
        <ele>459.6</ele>
        <time>2025-08-06T08:05:40Z</time>
      </trkpt>
      <trkpt lat="45.66898" lon="4.62459">
        <ele>459.6</ele>
        <time>2025-08-06T08:05:41Z</time>
      </trkpt>
      <trkpt lat="45.66896" lon="4.62452">
        <ele>459.6</ele>
        <time>2025-08-06T08:05:42Z</time>
      </trkpt>
      <trkpt lat="45.66894" lon="4.62446">
        <ele>459.6</ele>
        <time>2025-08-06T08:05:43Z</time>
      </trkpt>
      <trkpt lat="45.66893" lon="4.62441">
        <ele>459.6</ele>
        <time>2025-08-06T08:05:44Z</time>
      </trkpt>
      <trkpt lat="45.66892" lon="4.62435">
        <ele>459.6</ele>
        <time>2025-08-06T08:05:45Z</time>
      </trkpt>
      <trkpt lat="45.66892" lon="4.6243">
        <ele>459.6</ele>
        <time>2025-08-06T08:05:46Z</time>
      </trkpt>
      <trkpt lat="45.6689" lon="4.62425">
        <ele>459.8</ele>
        <time>2025-08-06T08:05:47Z</time>
      </trkpt>
      <trkpt lat="45.66889" lon="4.6242">
        <ele>459.8</ele>
        <time>2025-08-06T08:05:48Z</time>
      </trkpt>
      <trkpt lat="45.66889" lon="4.62416">
        <ele>459.8</ele>
        <time>2025-08-06T08:05:49Z</time>
      </trkpt>
      <trkpt lat="45.66889" lon="4.62411">
        <ele>459.8</ele>
        <time>2025-08-06T08:05:50Z</time>
      </trkpt>
      <trkpt lat="45.6689" lon="4.62405">
        <ele>459.8</ele>
        <time>2025-08-06T08:05:51Z</time>
      </trkpt>
      <trkpt lat="45.66891" lon="4.62399">
        <ele>459.8</ele>
        <time>2025-08-06T08:05:52Z</time>
      </trkpt>
      <trkpt lat="45.66891" lon="4.62392">
        <ele>459.8</ele>
        <time>2025-08-06T08:05:53Z</time>
      </trkpt>
      <trkpt lat="45.66893" lon="4.62386">
        <ele>459.6</ele>
        <time>2025-08-06T08:05:54Z</time>
      </trkpt>
      <trkpt lat="45.66894" lon="4.62381">
        <ele>459.6</ele>
        <time>2025-08-06T08:05:55Z</time>
      </trkpt>
      <trkpt lat="45.66895" lon="4.62376">
        <ele>459.4</ele>
        <time>2025-08-06T08:05:56Z</time>
      </trkpt>
      <trkpt lat="45.66897" lon="4.62371">
        <ele>459.4</ele>
        <time>2025-08-06T08:05:57Z</time>
      </trkpt>
      <trkpt lat="45.66898" lon="4.62367">
        <ele>459.4</ele>
        <time>2025-08-06T08:05:58Z</time>
      </trkpt>
      <trkpt lat="45.669" lon="4.62362">
        <ele>459.4</ele>
        <time>2025-08-06T08:05:59Z</time>
      </trkpt>
      <trkpt lat="45.66902" lon="4.62357">
        <ele>459.4</ele>
        <time>2025-08-06T08:06:00Z</time>
      </trkpt>
      <trkpt lat="45.66905" lon="4.62353">
        <ele>459.4</ele>
        <time>2025-08-06T08:06:01Z</time>
      </trkpt>
      <trkpt lat="45.66908" lon="4.6235">
        <ele>459.4</ele>
        <time>2025-08-06T08:06:02Z</time>
      </trkpt>
      <trkpt lat="45.66912" lon="4.62347">
        <ele>459.4</ele>
        <time>2025-08-06T08:06:03Z</time>
      </trkpt>
      <trkpt lat="45.66915" lon="4.62343">
        <ele>459.4</ele>
        <time>2025-08-06T08:06:04Z</time>
      </trkpt>
      <trkpt lat="45.66919" lon="4.62339">
        <ele>459.2</ele>
        <time>2025-08-06T08:06:05Z</time>
      </trkpt>
      <trkpt lat="45.66922" lon="4.62337">
        <ele>459.2</ele>
        <time>2025-08-06T08:06:06Z</time>
      </trkpt>
      <trkpt lat="45.66926" lon="4.62334">
        <ele>459.2</ele>
        <time>2025-08-06T08:06:07Z</time>
      </trkpt>
      <trkpt lat="45.66929" lon="4.62331">
        <ele>459.2</ele>
        <time>2025-08-06T08:06:08Z</time>
      </trkpt>
      <trkpt lat="45.66933" lon="4.62329">
        <ele>459</ele>
        <time>2025-08-06T08:06:09Z</time>
      </trkpt>
      <trkpt lat="45.66936" lon="4.62325">
        <ele>459.2</ele>
        <time>2025-08-06T08:06:10Z</time>
      </trkpt>
      <trkpt lat="45.6694" lon="4.62322">
        <ele>459</ele>
        <time>2025-08-06T08:06:11Z</time>
      </trkpt>
      <trkpt lat="45.66944" lon="4.6232">
        <ele>458.8</ele>
        <time>2025-08-06T08:06:12Z</time>
      </trkpt>
      <trkpt lat="45.66948" lon="4.62317">
        <ele>458.6</ele>
        <time>2025-08-06T08:06:13Z</time>
      </trkpt>
      <trkpt lat="45.66951" lon="4.62315">
        <ele>458.4</ele>
        <time>2025-08-06T08:06:14Z</time>
      </trkpt>
      <trkpt lat="45.66955" lon="4.62311">
        <ele>458.2</ele>
        <time>2025-08-06T08:06:15Z</time>
      </trkpt>
      <trkpt lat="45.66959" lon="4.62308">
        <ele>458.2</ele>
        <time>2025-08-06T08:06:16Z</time>
      </trkpt>
      <trkpt lat="45.66962" lon="4.62304">
        <ele>458.2</ele>
        <time>2025-08-06T08:06:17Z</time>
      </trkpt>
      <trkpt lat="45.66965" lon="4.623">
        <ele>458.2</ele>
        <time>2025-08-06T08:06:18Z</time>
      </trkpt>
      <trkpt lat="45.66967" lon="4.62296">
        <ele>458</ele>
        <time>2025-08-06T08:06:19Z</time>
      </trkpt>
      <trkpt lat="45.6697" lon="4.62292">
        <ele>457.8</ele>
        <time>2025-08-06T08:06:20Z</time>
      </trkpt>
      <trkpt lat="45.66973" lon="4.62287">
        <ele>457.6</ele>
        <time>2025-08-06T08:06:21Z</time>
      </trkpt>
      <trkpt lat="45.66976" lon="4.62281">
        <ele>457.4</ele>
        <time>2025-08-06T08:06:22Z</time>
      </trkpt>
      <trkpt lat="45.66979" lon="4.62275">
        <ele>457.2</ele>
        <time>2025-08-06T08:06:23Z</time>
      </trkpt>
      <trkpt lat="45.66982" lon="4.62269">
        <ele>457</ele>
        <time>2025-08-06T08:06:24Z</time>
      </trkpt>
      <trkpt lat="45.66985" lon="4.62262">
        <ele>456.8</ele>
        <time>2025-08-06T08:06:25Z</time>
      </trkpt>
      <trkpt lat="45.66988" lon="4.62256">
        <ele>456.8</ele>
        <time>2025-08-06T08:06:26Z</time>
      </trkpt>
      <trkpt lat="45.6699" lon="4.6225">
        <ele>456.6</ele>
        <time>2025-08-06T08:06:27Z</time>
      </trkpt>
      <trkpt lat="45.66992" lon="4.62243">
        <ele>456.4</ele>
        <time>2025-08-06T08:06:28Z</time>
      </trkpt>
      <trkpt lat="45.66994" lon="4.62236">
        <ele>456</ele>
        <time>2025-08-06T08:06:29Z</time>
      </trkpt>
      <trkpt lat="45.66996" lon="4.62229">
        <ele>455.8</ele>
        <time>2025-08-06T08:06:30Z</time>
      </trkpt>
      <trkpt lat="45.66997" lon="4.62222">
        <ele>455.6</ele>
        <time>2025-08-06T08:06:31Z</time>
      </trkpt>
      <trkpt lat="45.66999" lon="4.62214">
        <ele>455.4</ele>
        <time>2025-08-06T08:06:32Z</time>
      </trkpt>
      <trkpt lat="45.67" lon="4.62206">
        <ele>455.2</ele>
        <time>2025-08-06T08:06:33Z</time>
      </trkpt>
      <trkpt lat="45.67002" lon="4.62199">
        <ele>455</ele>
        <time>2025-08-06T08:06:34Z</time>
      </trkpt>
      <trkpt lat="45.67003" lon="4.62192">
        <ele>454.8</ele>
        <time>2025-08-06T08:06:35Z</time>
      </trkpt>
      <trkpt lat="45.67006" lon="4.62184">
        <ele>454.6</ele>
        <time>2025-08-06T08:06:36Z</time>
      </trkpt>
      <trkpt lat="45.67008" lon="4.62178">
        <ele>454.4</ele>
        <time>2025-08-06T08:06:37Z</time>
      </trkpt>
      <trkpt lat="45.67011" lon="4.62171">
        <ele>454.4</ele>
        <time>2025-08-06T08:06:38Z</time>
      </trkpt>
      <trkpt lat="45.67012" lon="4.62165">
        <ele>454.4</ele>
        <time>2025-08-06T08:06:39Z</time>
      </trkpt>
      <trkpt lat="45.67014" lon="4.62159">
        <ele>454.4</ele>
        <time>2025-08-06T08:06:40Z</time>
      </trkpt>
      <trkpt lat="45.67016" lon="4.62154">
        <ele>454.4</ele>
        <time>2025-08-06T08:06:41Z</time>
      </trkpt>
      <trkpt lat="45.67018" lon="4.6215">
        <ele>454.2</ele>
        <time>2025-08-06T08:06:42Z</time>
      </trkpt>
      <trkpt lat="45.67021" lon="4.62145">
        <ele>454</ele>
        <time>2025-08-06T08:06:43Z</time>
      </trkpt>
      <trkpt lat="45.67023" lon="4.6214">
        <ele>453.8</ele>
        <time>2025-08-06T08:06:44Z</time>
      </trkpt>
      <trkpt lat="45.67025" lon="4.62135">
        <ele>453.4</ele>
        <time>2025-08-06T08:06:45Z</time>
      </trkpt>
      <trkpt lat="45.67028" lon="4.62129">
        <ele>453.2</ele>
        <time>2025-08-06T08:06:46Z</time>
      </trkpt>
      <trkpt lat="45.67032" lon="4.62124">
        <ele>452.8</ele>
        <time>2025-08-06T08:06:47Z</time>
      </trkpt>
      <trkpt lat="45.67036" lon="4.6212">
        <ele>452.6</ele>
        <time>2025-08-06T08:06:48Z</time>
      </trkpt>
      <trkpt lat="45.6704" lon="4.62114">
        <ele>452.2</ele>
        <time>2025-08-06T08:06:49Z</time>
      </trkpt>
      <trkpt lat="45.67045" lon="4.62109">
        <ele>452</ele>
        <time>2025-08-06T08:06:50Z</time>
      </trkpt>
      <trkpt lat="45.6705" lon="4.62105">
        <ele>451.8</ele>
        <time>2025-08-06T08:06:51Z</time>
      </trkpt>
      <trkpt lat="45.67054" lon="4.62101">
        <ele>451.8</ele>
        <time>2025-08-06T08:06:52Z</time>
      </trkpt>
      <trkpt lat="45.67058" lon="4.62097">
        <ele>451.6</ele>
        <time>2025-08-06T08:06:53Z</time>
      </trkpt>
      <trkpt lat="45.67062" lon="4.62092">
        <ele>451.6</ele>
        <time>2025-08-06T08:06:54Z</time>
      </trkpt>
      <trkpt lat="45.67066" lon="4.62088">
        <ele>451.4</ele>
        <time>2025-08-06T08:06:55Z</time>
      </trkpt>
      <trkpt lat="45.6707" lon="4.62084">
        <ele>451.2</ele>
        <time>2025-08-06T08:06:56Z</time>
      </trkpt>
      <trkpt lat="45.67073" lon="4.6208">
        <ele>451.2</ele>
        <time>2025-08-06T08:06:57Z</time>
      </trkpt>
      <trkpt lat="45.67078" lon="4.62076">
        <ele>451</ele>
        <time>2025-08-06T08:06:58Z</time>
      </trkpt>
      <trkpt lat="45.67082" lon="4.62073">
        <ele>450.8</ele>
        <time>2025-08-06T08:06:59Z</time>
      </trkpt>
      <trkpt lat="45.67087" lon="4.62068">
        <ele>450.6</ele>
        <time>2025-08-06T08:07:00Z</time>
      </trkpt>
      <trkpt lat="45.67091" lon="4.62064">
        <ele>450.4</ele>
        <time>2025-08-06T08:07:01Z</time>
      </trkpt>
      <trkpt lat="45.67095" lon="4.62059">
        <ele>450.2</ele>
        <time>2025-08-06T08:07:02Z</time>
      </trkpt>
      <trkpt lat="45.67099" lon="4.62054">
        <ele>450</ele>
        <time>2025-08-06T08:07:03Z</time>
      </trkpt>
      <trkpt lat="45.67103" lon="4.62049">
        <ele>449.8</ele>
        <time>2025-08-06T08:07:04Z</time>
      </trkpt>
      <trkpt lat="45.67106" lon="4.62043">
        <ele>449.6</ele>
        <time>2025-08-06T08:07:05Z</time>
      </trkpt>
      <trkpt lat="45.6711" lon="4.62038">
        <ele>449.4</ele>
        <time>2025-08-06T08:07:06Z</time>
      </trkpt>
      <trkpt lat="45.67112" lon="4.62032">
        <ele>449.2</ele>
        <time>2025-08-06T08:07:07Z</time>
      </trkpt>
      <trkpt lat="45.67115" lon="4.62026">
        <ele>449</ele>
        <time>2025-08-06T08:07:08Z</time>
      </trkpt>
      <trkpt lat="45.67117" lon="4.6202">
        <ele>449</ele>
        <time>2025-08-06T08:07:09Z</time>
      </trkpt>
      <trkpt lat="45.67119" lon="4.62013">
        <ele>448.8</ele>
        <time>2025-08-06T08:07:10Z</time>
      </trkpt>
      <trkpt lat="45.67121" lon="4.62007">
        <ele>448.6</ele>
        <time>2025-08-06T08:07:11Z</time>
      </trkpt>
      <trkpt lat="45.67122" lon="4.62001">
        <ele>448.4</ele>
        <time>2025-08-06T08:07:12Z</time>
      </trkpt>
      <trkpt lat="45.67123" lon="4.61994">
        <ele>448.4</ele>
        <time>2025-08-06T08:07:13Z</time>
      </trkpt>
      <trkpt lat="45.67123" lon="4.61988">
        <ele>448.2</ele>
        <time>2025-08-06T08:07:14Z</time>
      </trkpt>
      <trkpt lat="45.67123" lon="4.61982">
        <ele>448</ele>
        <time>2025-08-06T08:07:15Z</time>
      </trkpt>
      <trkpt lat="45.67123" lon="4.61975">
        <ele>448</ele>
        <time>2025-08-06T08:07:16Z</time>
      </trkpt>
      <trkpt lat="45.67123" lon="4.61968">
        <ele>447.8</ele>
        <time>2025-08-06T08:07:17Z</time>
      </trkpt>
      <trkpt lat="45.67123" lon="4.61962">
        <ele>447.6</ele>
        <time>2025-08-06T08:07:18Z</time>
      </trkpt>
      <trkpt lat="45.67122" lon="4.61956">
        <ele>447.6</ele>
        <time>2025-08-06T08:07:19Z</time>
      </trkpt>
      <trkpt lat="45.67121" lon="4.61949">
        <ele>447.4</ele>
        <time>2025-08-06T08:07:20Z</time>
      </trkpt>
      <trkpt lat="45.6712" lon="4.61943">
        <ele>447.4</ele>
        <time>2025-08-06T08:07:21Z</time>
      </trkpt>
      <trkpt lat="45.67118" lon="4.61937">
        <ele>447.4</ele>
        <time>2025-08-06T08:07:22Z</time>
      </trkpt>
      <trkpt lat="45.67116" lon="4.61931">
        <ele>447.4</ele>
        <time>2025-08-06T08:07:23Z</time>
      </trkpt>
      <trkpt lat="45.67113" lon="4.61926">
        <ele>447.4</ele>
        <time>2025-08-06T08:07:24Z</time>
      </trkpt>
      <trkpt lat="45.67111" lon="4.61921">
        <ele>447.2</ele>
        <time>2025-08-06T08:07:25Z</time>
      </trkpt>
      <trkpt lat="45.67108" lon="4.61916">
        <ele>447</ele>
        <time>2025-08-06T08:07:26Z</time>
      </trkpt>
      <trkpt lat="45.67105" lon="4.6191">
        <ele>447</ele>
        <time>2025-08-06T08:07:27Z</time>
      </trkpt>
      <trkpt lat="45.67103" lon="4.61906">
        <ele>446.8</ele>
        <time>2025-08-06T08:07:28Z</time>
      </trkpt>
      <trkpt lat="45.671" lon="4.61901">
        <ele>446.6</ele>
        <time>2025-08-06T08:07:29Z</time>
      </trkpt>
      <trkpt lat="45.67097" lon="4.61897">
        <ele>446.4</ele>
        <time>2025-08-06T08:07:30Z</time>
      </trkpt>
      <trkpt lat="45.67093" lon="4.61893">
        <ele>446.4</ele>
        <time>2025-08-06T08:07:31Z</time>
      </trkpt>
      <trkpt lat="45.67091" lon="4.61888">
        <ele>446.2</ele>
        <time>2025-08-06T08:07:32Z</time>
      </trkpt>
      <trkpt lat="45.67088" lon="4.61883">
        <ele>446</ele>
        <time>2025-08-06T08:07:33Z</time>
      </trkpt>
      <trkpt lat="45.67085" lon="4.61878">
        <ele>446</ele>
        <time>2025-08-06T08:07:34Z</time>
      </trkpt>
      <trkpt lat="45.67082" lon="4.61873">
        <ele>445.8</ele>
        <time>2025-08-06T08:07:35Z</time>
      </trkpt>
      <trkpt lat="45.6708" lon="4.61868">
        <ele>445.8</ele>
        <time>2025-08-06T08:07:36Z</time>
      </trkpt>
      <trkpt lat="45.67078" lon="4.61862">
        <ele>445.6</ele>
        <time>2025-08-06T08:07:37Z</time>
      </trkpt>
      <trkpt lat="45.67076" lon="4.61856">
        <ele>445.4</ele>
        <time>2025-08-06T08:07:38Z</time>
      </trkpt>
      <trkpt lat="45.67075" lon="4.6185">
        <ele>445.2</ele>
        <time>2025-08-06T08:07:39Z</time>
      </trkpt>
      <trkpt lat="45.67074" lon="4.61843">
        <ele>445</ele>
        <time>2025-08-06T08:07:40Z</time>
      </trkpt>
      <trkpt lat="45.67073" lon="4.61835">
        <ele>444.6</ele>
        <time>2025-08-06T08:07:41Z</time>
      </trkpt>
      <trkpt lat="45.67073" lon="4.61827">
        <ele>444.2</ele>
        <time>2025-08-06T08:07:42Z</time>
      </trkpt>
      <trkpt lat="45.67073" lon="4.61819">
        <ele>444</ele>
        <time>2025-08-06T08:07:43Z</time>
      </trkpt>
      <trkpt lat="45.67073" lon="4.61812">
        <ele>443.6</ele>
        <time>2025-08-06T08:07:44Z</time>
      </trkpt>
      <trkpt lat="45.67074" lon="4.61805">
        <ele>443.6</ele>
        <time>2025-08-06T08:07:45Z</time>
      </trkpt>
      <trkpt lat="45.67074" lon="4.61798">
        <ele>443.4</ele>
        <time>2025-08-06T08:07:46Z</time>
      </trkpt>
      <trkpt lat="45.67075" lon="4.61792">
        <ele>443.4</ele>
        <time>2025-08-06T08:07:47Z</time>
      </trkpt>
      <trkpt lat="45.67077" lon="4.61786">
        <ele>443.4</ele>
        <time>2025-08-06T08:07:48Z</time>
      </trkpt>
      <trkpt lat="45.67079" lon="4.6178">
        <ele>443.2</ele>
        <time>2025-08-06T08:07:49Z</time>
      </trkpt>
      <trkpt lat="45.67082" lon="4.61774">
        <ele>443.2</ele>
        <time>2025-08-06T08:07:50Z</time>
      </trkpt>
      <trkpt lat="45.67085" lon="4.6177">
        <ele>443.2</ele>
        <time>2025-08-06T08:07:51Z</time>
      </trkpt>
      <trkpt lat="45.67088" lon="4.61765">
        <ele>443</ele>
        <time>2025-08-06T08:07:52Z</time>
      </trkpt>
      <trkpt lat="45.67091" lon="4.6176">
        <ele>443</ele>
        <time>2025-08-06T08:07:53Z</time>
      </trkpt>
      <trkpt lat="45.67094" lon="4.61755">
        <ele>443</ele>
        <time>2025-08-06T08:07:54Z</time>
      </trkpt>
      <trkpt lat="45.67098" lon="4.6175">
        <ele>442.8</ele>
        <time>2025-08-06T08:07:55Z</time>
      </trkpt>
      <trkpt lat="45.67103" lon="4.61747">
        <ele>442.8</ele>
        <time>2025-08-06T08:07:56Z</time>
      </trkpt>
      <trkpt lat="45.67106" lon="4.61743">
        <ele>442.6</ele>
        <time>2025-08-06T08:07:57Z</time>
      </trkpt>
      <trkpt lat="45.6711" lon="4.61739">
        <ele>442.4</ele>
        <time>2025-08-06T08:07:58Z</time>
      </trkpt>
      <trkpt lat="45.67115" lon="4.61736">
        <ele>442.2</ele>
        <time>2025-08-06T08:07:59Z</time>
      </trkpt>
      <trkpt lat="45.67119" lon="4.61733">
        <ele>442</ele>
        <time>2025-08-06T08:08:00Z</time>
      </trkpt>
      <trkpt lat="45.67123" lon="4.6173">
        <ele>441.8</ele>
        <time>2025-08-06T08:08:01Z</time>
      </trkpt>
      <trkpt lat="45.67128" lon="4.61727">
        <ele>441.4</ele>
        <time>2025-08-06T08:08:02Z</time>
      </trkpt>
      <trkpt lat="45.67133" lon="4.61723">
        <ele>441</ele>
        <time>2025-08-06T08:08:03Z</time>
      </trkpt>
      <trkpt lat="45.67137" lon="4.6172">
        <ele>440.8</ele>
        <time>2025-08-06T08:08:04Z</time>
      </trkpt>
      <trkpt lat="45.67142" lon="4.61717">
        <ele>440.6</ele>
        <time>2025-08-06T08:08:05Z</time>
      </trkpt>
      <trkpt lat="45.67146" lon="4.61714">
        <ele>440.6</ele>
        <time>2025-08-06T08:08:06Z</time>
      </trkpt>
      <trkpt lat="45.67151" lon="4.61712">
        <ele>440.4</ele>
        <time>2025-08-06T08:08:07Z</time>
      </trkpt>
      <trkpt lat="45.67155" lon="4.61709">
        <ele>440.4</ele>
        <time>2025-08-06T08:08:08Z</time>
      </trkpt>
      <trkpt lat="45.6716" lon="4.61707">
        <ele>440.2</ele>
        <time>2025-08-06T08:08:09Z</time>
      </trkpt>
      <trkpt lat="45.67164" lon="4.61704">
        <ele>440</ele>
        <time>2025-08-06T08:08:10Z</time>
      </trkpt>
      <trkpt lat="45.67169" lon="4.61701">
        <ele>439.6</ele>
        <time>2025-08-06T08:08:11Z</time>
      </trkpt>
      <trkpt lat="45.67173" lon="4.61698">
        <ele>439.4</ele>
        <time>2025-08-06T08:08:12Z</time>
      </trkpt>
      <trkpt lat="45.67177" lon="4.61696">
        <ele>439.2</ele>
        <time>2025-08-06T08:08:13Z</time>
      </trkpt>
      <trkpt lat="45.67181" lon="4.61693">
        <ele>439</ele>
        <time>2025-08-06T08:08:14Z</time>
      </trkpt>
      <trkpt lat="45.67186" lon="4.61692">
        <ele>438.8</ele>
        <time>2025-08-06T08:08:15Z</time>
      </trkpt>
      <trkpt lat="45.6719" lon="4.6169">
        <ele>438.6</ele>
        <time>2025-08-06T08:08:16Z</time>
      </trkpt>
      <trkpt lat="45.67195" lon="4.61687">
        <ele>438.4</ele>
        <time>2025-08-06T08:08:17Z</time>
      </trkpt>
      <trkpt lat="45.67201" lon="4.61685">
        <ele>438.2</ele>
        <time>2025-08-06T08:08:18Z</time>
      </trkpt>
      <trkpt lat="45.67207" lon="4.61683">
        <ele>438</ele>
        <time>2025-08-06T08:08:19Z</time>
      </trkpt>
      <trkpt lat="45.67212" lon="4.61683">
        <ele>437.8</ele>
        <time>2025-08-06T08:08:20Z</time>
      </trkpt>
      <trkpt lat="45.67218" lon="4.61682">
        <ele>437.6</ele>
        <time>2025-08-06T08:08:21Z</time>
      </trkpt>
      <trkpt lat="45.67224" lon="4.61683">
        <ele>437.4</ele>
        <time>2025-08-06T08:08:22Z</time>
      </trkpt>
      <trkpt lat="45.67229" lon="4.61685">
        <ele>437.2</ele>
        <time>2025-08-06T08:08:23Z</time>
      </trkpt>
      <trkpt lat="45.67234" lon="4.61686">
        <ele>437</ele>
        <time>2025-08-06T08:08:24Z</time>
      </trkpt>
      <trkpt lat="45.6724" lon="4.61687">
        <ele>437</ele>
        <time>2025-08-06T08:08:25Z</time>
      </trkpt>
      <trkpt lat="45.67245" lon="4.61688">
        <ele>436.8</ele>
        <time>2025-08-06T08:08:26Z</time>
      </trkpt>
      <trkpt lat="45.6725" lon="4.6169">
        <ele>436.6</ele>
        <time>2025-08-06T08:08:27Z</time>
      </trkpt>
      <trkpt lat="45.67254" lon="4.61692">
        <ele>436.6</ele>
        <time>2025-08-06T08:08:28Z</time>
      </trkpt>
      <trkpt lat="45.67259" lon="4.61694">
        <ele>436.4</ele>
        <time>2025-08-06T08:08:29Z</time>
      </trkpt>
      <trkpt lat="45.67264" lon="4.61696">
        <ele>436.2</ele>
        <time>2025-08-06T08:08:30Z</time>
      </trkpt>
      <trkpt lat="45.67269" lon="4.61698">
        <ele>436</ele>
        <time>2025-08-06T08:08:31Z</time>
      </trkpt>
      <trkpt lat="45.67275" lon="4.61699">
        <ele>435.8</ele>
        <time>2025-08-06T08:08:32Z</time>
      </trkpt>
      <trkpt lat="45.6728" lon="4.61701">
        <ele>435.6</ele>
        <time>2025-08-06T08:08:33Z</time>
      </trkpt>
      <trkpt lat="45.67285" lon="4.61701">
        <ele>435.2</ele>
        <time>2025-08-06T08:08:34Z</time>
      </trkpt>
      <trkpt lat="45.67291" lon="4.61701">
        <ele>435.2</ele>
        <time>2025-08-06T08:08:35Z</time>
      </trkpt>
      <trkpt lat="45.67296" lon="4.61701">
        <ele>435</ele>
        <time>2025-08-06T08:08:36Z</time>
      </trkpt>
      <trkpt lat="45.67301" lon="4.61701">
        <ele>435</ele>
        <time>2025-08-06T08:08:37Z</time>
      </trkpt>
      <trkpt lat="45.67306" lon="4.617">
        <ele>435</ele>
        <time>2025-08-06T08:08:38Z</time>
      </trkpt>
      <trkpt lat="45.67311" lon="4.61698">
        <ele>435</ele>
        <time>2025-08-06T08:08:39Z</time>
      </trkpt>
      <trkpt lat="45.67315" lon="4.61696">
        <ele>435</ele>
        <time>2025-08-06T08:08:40Z</time>
      </trkpt>
      <trkpt lat="45.6732" lon="4.61693">
        <ele>434.8</ele>
        <time>2025-08-06T08:08:41Z</time>
      </trkpt>
      <trkpt lat="45.67324" lon="4.6169">
        <ele>434.8</ele>
        <time>2025-08-06T08:08:42Z</time>
      </trkpt>
      <trkpt lat="45.67328" lon="4.61687">
        <ele>434.6</ele>
        <time>2025-08-06T08:08:43Z</time>
      </trkpt>
      <trkpt lat="45.67331" lon="4.61684">
        <ele>434.6</ele>
        <time>2025-08-06T08:08:44Z</time>
      </trkpt>
      <trkpt lat="45.67335" lon="4.61679">
        <ele>434.4</ele>
        <time>2025-08-06T08:08:45Z</time>
      </trkpt>
      <trkpt lat="45.67338" lon="4.61674">
        <ele>434.4</ele>
        <time>2025-08-06T08:08:46Z</time>
      </trkpt>
      <trkpt lat="45.67341" lon="4.61668">
        <ele>434.2</ele>
        <time>2025-08-06T08:08:47Z</time>
      </trkpt>
      <trkpt lat="45.67344" lon="4.61663">
        <ele>434</ele>
        <time>2025-08-06T08:08:48Z</time>
      </trkpt>
      <trkpt lat="45.67347" lon="4.61657">
        <ele>433.8</ele>
        <time>2025-08-06T08:08:49Z</time>
      </trkpt>
      <trkpt lat="45.6735" lon="4.61651">
        <ele>433.8</ele>
        <time>2025-08-06T08:08:50Z</time>
      </trkpt>
      <trkpt lat="45.67352" lon="4.61643">
        <ele>433.6</ele>
        <time>2025-08-06T08:08:51Z</time>
      </trkpt>
      <trkpt lat="45.67353" lon="4.61635">
        <ele>433.4</ele>
        <time>2025-08-06T08:08:52Z</time>
      </trkpt>
      <trkpt lat="45.67355" lon="4.61628">
        <ele>433.2</ele>
        <time>2025-08-06T08:08:53Z</time>
      </trkpt>
      <trkpt lat="45.67356" lon="4.6162">
        <ele>432.8</ele>
        <time>2025-08-06T08:08:54Z</time>
      </trkpt>
      <trkpt lat="45.67356" lon="4.61612">
        <ele>432.4</ele>
        <time>2025-08-06T08:08:55Z</time>
      </trkpt>
      <trkpt lat="45.67357" lon="4.61605">
        <ele>432.2</ele>
        <time>2025-08-06T08:08:56Z</time>
      </trkpt>
      <trkpt lat="45.67356" lon="4.61598">
        <ele>432</ele>
        <time>2025-08-06T08:08:57Z</time>
      </trkpt>
      <trkpt lat="45.67355" lon="4.61591">
        <ele>431.8</ele>
        <time>2025-08-06T08:08:58Z</time>
      </trkpt>
      <trkpt lat="45.67355" lon="4.61584">
        <ele>431.6</ele>
        <time>2025-08-06T08:08:59Z</time>
      </trkpt>
      <trkpt lat="45.67354" lon="4.61576">
        <ele>431.4</ele>
        <time>2025-08-06T08:09:00Z</time>
      </trkpt>
      <trkpt lat="45.67353" lon="4.61572">
        <ele>431.4</ele>
        <time>2025-08-06T08:09:01Z</time>
      </trkpt>
      <trkpt lat="45.67353" lon="4.61569">
        <ele>431.4</ele>
        <time>2025-08-06T08:09:02Z</time>
      </trkpt>
      <trkpt lat="45.67353" lon="4.61568">
        <ele>431.6</ele>
        <time>2025-08-06T08:09:03Z</time>
      </trkpt>
      <trkpt lat="45.67353" lon="4.61568">
        <ele>431.8</ele>
        <time>2025-08-06T08:09:04Z</time>
      </trkpt>
      <trkpt lat="45.67353" lon="4.61568">
        <ele>432</ele>
        <time>2025-08-06T08:09:05Z</time>
      </trkpt>
      <trkpt lat="45.67353" lon="4.61561">
        <ele>432.2</ele>
        <time>2025-08-06T08:09:18Z</time>
      </trkpt>
      <trkpt lat="45.67352" lon="4.61556">
        <ele>433</ele>
        <time>2025-08-06T08:09:19Z</time>
      </trkpt>
      <trkpt lat="45.67351" lon="4.61551">
        <ele>432.8</ele>
        <time>2025-08-06T08:09:20Z</time>
      </trkpt>
      <trkpt lat="45.6735" lon="4.61546">
        <ele>432.6</ele>
        <time>2025-08-06T08:09:21Z</time>
      </trkpt>
      <trkpt lat="45.67349" lon="4.61542">
        <ele>432.4</ele>
        <time>2025-08-06T08:09:22Z</time>
      </trkpt>
      <trkpt lat="45.67349" lon="4.61537">
        <ele>432.2</ele>
        <time>2025-08-06T08:09:23Z</time>
      </trkpt>
      <trkpt lat="45.67348" lon="4.61531">
        <ele>432.2</ele>
        <time>2025-08-06T08:09:24Z</time>
      </trkpt>
      <trkpt lat="45.67347" lon="4.61526">
        <ele>432.2</ele>
        <time>2025-08-06T08:09:25Z</time>
      </trkpt>
      <trkpt lat="45.67346" lon="4.6152">
        <ele>432</ele>
        <time>2025-08-06T08:09:26Z</time>
      </trkpt>
      <trkpt lat="45.67345" lon="4.61513">
        <ele>431.8</ele>
        <time>2025-08-06T08:09:27Z</time>
      </trkpt>
      <trkpt lat="45.67344" lon="4.61506">
        <ele>431.6</ele>
        <time>2025-08-06T08:09:28Z</time>
      </trkpt>
      <trkpt lat="45.67343" lon="4.61499">
        <ele>431.6</ele>
        <time>2025-08-06T08:09:29Z</time>
      </trkpt>
      <trkpt lat="45.67342" lon="4.61492">
        <ele>431.2</ele>
        <time>2025-08-06T08:09:30Z</time>
      </trkpt>
      <trkpt lat="45.67341" lon="4.61485">
        <ele>431</ele>
        <time>2025-08-06T08:09:31Z</time>
      </trkpt>
      <trkpt lat="45.67341" lon="4.61479">
        <ele>431</ele>
        <time>2025-08-06T08:09:32Z</time>
      </trkpt>
      <trkpt lat="45.6734" lon="4.61473">
        <ele>430.8</ele>
        <time>2025-08-06T08:09:33Z</time>
      </trkpt>
      <trkpt lat="45.67339" lon="4.61467">
        <ele>430.6</ele>
        <time>2025-08-06T08:09:34Z</time>
      </trkpt>
      <trkpt lat="45.67338" lon="4.6146">
        <ele>430.6</ele>
        <time>2025-08-06T08:09:35Z</time>
      </trkpt>
      <trkpt lat="45.67337" lon="4.61453">
        <ele>430.4</ele>
        <time>2025-08-06T08:09:36Z</time>
      </trkpt>
      <trkpt lat="45.67335" lon="4.61447">
        <ele>430.4</ele>
        <time>2025-08-06T08:09:37Z</time>
      </trkpt>
      <trkpt lat="45.67335" lon="4.61441">
        <ele>430</ele>
        <time>2025-08-06T08:09:38Z</time>
      </trkpt>
      <trkpt lat="45.67334" lon="4.61435">
        <ele>429.8</ele>
        <time>2025-08-06T08:09:39Z</time>
      </trkpt>
      <trkpt lat="45.67334" lon="4.61429">
        <ele>429.6</ele>
        <time>2025-08-06T08:09:40Z</time>
      </trkpt>
      <trkpt lat="45.67334" lon="4.61423">
        <ele>429.4</ele>
        <time>2025-08-06T08:09:41Z</time>
      </trkpt>
      <trkpt lat="45.67333" lon="4.61416">
        <ele>429.2</ele>
        <time>2025-08-06T08:09:42Z</time>
      </trkpt>
      <trkpt lat="45.67333" lon="4.6141">
        <ele>429</ele>
        <time>2025-08-06T08:09:43Z</time>
      </trkpt>
      <trkpt lat="45.67332" lon="4.61403">
        <ele>428.8</ele>
        <time>2025-08-06T08:09:44Z</time>
      </trkpt>
      <trkpt lat="45.67333" lon="4.61398">
        <ele>428.6</ele>
        <time>2025-08-06T08:09:45Z</time>
      </trkpt>
      <trkpt lat="45.67333" lon="4.61392">
        <ele>428.4</ele>
        <time>2025-08-06T08:09:46Z</time>
      </trkpt>
      <trkpt lat="45.67333" lon="4.61385">
        <ele>428.2</ele>
        <time>2025-08-06T08:09:47Z</time>
      </trkpt>
      <trkpt lat="45.67334" lon="4.61379">
        <ele>428</ele>
        <time>2025-08-06T08:09:48Z</time>
      </trkpt>
      <trkpt lat="45.67335" lon="4.61373">
        <ele>427.8</ele>
        <time>2025-08-06T08:09:49Z</time>
      </trkpt>
      <trkpt lat="45.67337" lon="4.61368">
        <ele>427.8</ele>
        <time>2025-08-06T08:09:50Z</time>
      </trkpt>
      <trkpt lat="45.67339" lon="4.61362">
        <ele>427.6</ele>
        <time>2025-08-06T08:09:51Z</time>
      </trkpt>
      <trkpt lat="45.67341" lon="4.61356">
        <ele>427.4</ele>
        <time>2025-08-06T08:09:52Z</time>
      </trkpt>
      <trkpt lat="45.67344" lon="4.6135">
        <ele>427.2</ele>
        <time>2025-08-06T08:09:53Z</time>
      </trkpt>
      <trkpt lat="45.67348" lon="4.61344">
        <ele>427</ele>
        <time>2025-08-06T08:09:54Z</time>
      </trkpt>
      <trkpt lat="45.67351" lon="4.61338">
        <ele>426.8</ele>
        <time>2025-08-06T08:09:55Z</time>
      </trkpt>
      <trkpt lat="45.67356" lon="4.61332">
        <ele>426.4</ele>
        <time>2025-08-06T08:09:56Z</time>
      </trkpt>
      <trkpt lat="45.6736" lon="4.61327">
        <ele>426.2</ele>
        <time>2025-08-06T08:09:57Z</time>
      </trkpt>
      <trkpt lat="45.67364" lon="4.61322">
        <ele>426</ele>
        <time>2025-08-06T08:09:58Z</time>
      </trkpt>
      <trkpt lat="45.67368" lon="4.61317">
        <ele>425.8</ele>
        <time>2025-08-06T08:09:59Z</time>
      </trkpt>
      <trkpt lat="45.67371" lon="4.61313">
        <ele>425.6</ele>
        <time>2025-08-06T08:10:00Z</time>
      </trkpt>
      <trkpt lat="45.67375" lon="4.61308">
        <ele>425.6</ele>
        <time>2025-08-06T08:10:01Z</time>
      </trkpt>
      <trkpt lat="45.67379" lon="4.61304">
        <ele>425.6</ele>
        <time>2025-08-06T08:10:02Z</time>
      </trkpt>
      <trkpt lat="45.67384" lon="4.61298">
        <ele>425.4</ele>
        <time>2025-08-06T08:10:03Z</time>
      </trkpt>
      <trkpt lat="45.67387" lon="4.61292">
        <ele>425.2</ele>
        <time>2025-08-06T08:10:04Z</time>
      </trkpt>
      <trkpt lat="45.67391" lon="4.61285">
        <ele>425.2</ele>
        <time>2025-08-06T08:10:05Z</time>
      </trkpt>
      <trkpt lat="45.67394" lon="4.61279">
        <ele>425</ele>
        <time>2025-08-06T08:10:06Z</time>
      </trkpt>
      <trkpt lat="45.67398" lon="4.61272">
        <ele>424.8</ele>
        <time>2025-08-06T08:10:07Z</time>
      </trkpt>
      <trkpt lat="45.67401" lon="4.61266">
        <ele>424.6</ele>
        <time>2025-08-06T08:10:08Z</time>
      </trkpt>
      <trkpt lat="45.67403" lon="4.6126">
        <ele>424.4</ele>
        <time>2025-08-06T08:10:09Z</time>
      </trkpt>
      <trkpt lat="45.67404" lon="4.61253">
        <ele>424.2</ele>
        <time>2025-08-06T08:10:10Z</time>
      </trkpt>
      <trkpt lat="45.67405" lon="4.61245">
        <ele>424</ele>
        <time>2025-08-06T08:10:11Z</time>
      </trkpt>
      <trkpt lat="45.67406" lon="4.61237">
        <ele>423.8</ele>
        <time>2025-08-06T08:10:12Z</time>
      </trkpt>
      <trkpt lat="45.67407" lon="4.61229">
        <ele>423.6</ele>
        <time>2025-08-06T08:10:13Z</time>
      </trkpt>
      <trkpt lat="45.67407" lon="4.61222">
        <ele>423.2</ele>
        <time>2025-08-06T08:10:14Z</time>
      </trkpt>
      <trkpt lat="45.67406" lon="4.61214">
        <ele>423</ele>
        <time>2025-08-06T08:10:15Z</time>
      </trkpt>
      <trkpt lat="45.67406" lon="4.61206">
        <ele>422.8</ele>
        <time>2025-08-06T08:10:16Z</time>
      </trkpt>
      <trkpt lat="45.67406" lon="4.61199">
        <ele>422.6</ele>
        <time>2025-08-06T08:10:17Z</time>
      </trkpt>
      <trkpt lat="45.67406" lon="4.61191">
        <ele>422.4</ele>
        <time>2025-08-06T08:10:18Z</time>
      </trkpt>
      <trkpt lat="45.67406" lon="4.61184">
        <ele>422.2</ele>
        <time>2025-08-06T08:10:19Z</time>
      </trkpt>
      <trkpt lat="45.67406" lon="4.61177">
        <ele>422</ele>
        <time>2025-08-06T08:10:20Z</time>
      </trkpt>
      <trkpt lat="45.67406" lon="4.6117">
        <ele>421.8</ele>
        <time>2025-08-06T08:10:21Z</time>
      </trkpt>
      <trkpt lat="45.67406" lon="4.61163">
        <ele>421.6</ele>
        <time>2025-08-06T08:10:22Z</time>
      </trkpt>
      <trkpt lat="45.67406" lon="4.61157">
        <ele>421.6</ele>
        <time>2025-08-06T08:10:23Z</time>
      </trkpt>
      <trkpt lat="45.67408" lon="4.61151">
        <ele>421.4</ele>
        <time>2025-08-06T08:10:24Z</time>
      </trkpt>
      <trkpt lat="45.67409" lon="4.61144">
        <ele>421.4</ele>
        <time>2025-08-06T08:10:25Z</time>
      </trkpt>
      <trkpt lat="45.67411" lon="4.61137">
        <ele>421.2</ele>
        <time>2025-08-06T08:10:26Z</time>
      </trkpt>
      <trkpt lat="45.67413" lon="4.6113">
        <ele>420.8</ele>
        <time>2025-08-06T08:10:27Z</time>
      </trkpt>
      <trkpt lat="45.67416" lon="4.61125">
        <ele>420.6</ele>
        <time>2025-08-06T08:10:28Z</time>
      </trkpt>
      <trkpt lat="45.6742" lon="4.61119">
        <ele>420.4</ele>
        <time>2025-08-06T08:10:29Z</time>
      </trkpt>
      <trkpt lat="45.67423" lon="4.61113">
        <ele>420.4</ele>
        <time>2025-08-06T08:10:30Z</time>
      </trkpt>
      <trkpt lat="45.67426" lon="4.61108">
        <ele>420.4</ele>
        <time>2025-08-06T08:10:31Z</time>
      </trkpt>
      <trkpt lat="45.67429" lon="4.61104">
        <ele>420.6</ele>
        <time>2025-08-06T08:10:32Z</time>
      </trkpt>
      <trkpt lat="45.67432" lon="4.61101">
        <ele>420.8</ele>
        <time>2025-08-06T08:10:33Z</time>
      </trkpt>
      <trkpt lat="45.67434" lon="4.61098">
        <ele>421.4</ele>
        <time>2025-08-06T08:10:34Z</time>
      </trkpt>
      <trkpt lat="45.67436" lon="4.61096">
        <ele>421.8</ele>
        <time>2025-08-06T08:10:35Z</time>
      </trkpt>
      <trkpt lat="45.67438" lon="4.61093">
        <ele>422.2</ele>
        <time>2025-08-06T08:10:36Z</time>
      </trkpt>
      <trkpt lat="45.6744" lon="4.6109">
        <ele>422.4</ele>
        <time>2025-08-06T08:10:37Z</time>
      </trkpt>
      <trkpt lat="45.67442" lon="4.61086">
        <ele>422.6</ele>
        <time>2025-08-06T08:10:38Z</time>
      </trkpt>
      <trkpt lat="45.67444" lon="4.61082">
        <ele>422.8</ele>
        <time>2025-08-06T08:10:39Z</time>
      </trkpt>
      <trkpt lat="45.67447" lon="4.61079">
        <ele>422.8</ele>
        <time>2025-08-06T08:10:40Z</time>
      </trkpt>
      <trkpt lat="45.6745" lon="4.61076">
        <ele>422.8</ele>
        <time>2025-08-06T08:10:41Z</time>
      </trkpt>
      <trkpt lat="45.67452" lon="4.61073">
        <ele>422.8</ele>
        <time>2025-08-06T08:10:42Z</time>
      </trkpt>
      <trkpt lat="45.67454" lon="4.6107">
        <ele>423</ele>
        <time>2025-08-06T08:10:43Z</time>
      </trkpt>
      <trkpt lat="45.67456" lon="4.61069">
        <ele>423.2</ele>
        <time>2025-08-06T08:10:44Z</time>
      </trkpt>
      <trkpt lat="45.67459" lon="4.61069">
        <ele>423.4</ele>
        <time>2025-08-06T08:10:45Z</time>
      </trkpt>
      <trkpt lat="45.67461" lon="4.61069">
        <ele>423.6</ele>
        <time>2025-08-06T08:10:46Z</time>
      </trkpt>
      <trkpt lat="45.67464" lon="4.6107">
        <ele>423.6</ele>
        <time>2025-08-06T08:10:47Z</time>
      </trkpt>
      <trkpt lat="45.67466" lon="4.61071">
        <ele>423.6</ele>
        <time>2025-08-06T08:10:48Z</time>
      </trkpt>
      <trkpt lat="45.67467" lon="4.61072">
        <ele>423.6</ele>
        <time>2025-08-06T08:10:49Z</time>
      </trkpt>
      <trkpt lat="45.67467" lon="4.61072">
        <ele>423.6</ele>
        <time>2025-08-06T08:10:50Z</time>
      </trkpt>
      <trkpt lat="45.67471" lon="4.61072">
        <ele>423.4</ele>
        <time>2025-08-06T08:12:18Z</time>
      </trkpt>
      <trkpt lat="45.67474" lon="4.61072">
        <ele>423.8</ele>
        <time>2025-08-06T08:12:19Z</time>
      </trkpt>
      <trkpt lat="45.67478" lon="4.61072">
        <ele>423.6</ele>
        <time>2025-08-06T08:12:20Z</time>
      </trkpt>
      <trkpt lat="45.67482" lon="4.61073">
        <ele>423.4</ele>
        <time>2025-08-06T08:12:21Z</time>
      </trkpt>
      <trkpt lat="45.67485" lon="4.61074">
        <ele>423.4</ele>
        <time>2025-08-06T08:12:22Z</time>
      </trkpt>
      <trkpt lat="45.67489" lon="4.61075">
        <ele>423.2</ele>
        <time>2025-08-06T08:12:23Z</time>
      </trkpt>
      <trkpt lat="45.67493" lon="4.61076">
        <ele>423.2</ele>
        <time>2025-08-06T08:12:24Z</time>
      </trkpt>
      <trkpt lat="45.67496" lon="4.61078">
        <ele>423</ele>
        <time>2025-08-06T08:12:25Z</time>
      </trkpt>
      <trkpt lat="45.675" lon="4.61081">
        <ele>422.8</ele>
        <time>2025-08-06T08:12:26Z</time>
      </trkpt>
      <trkpt lat="45.67504" lon="4.61084">
        <ele>422.6</ele>
        <time>2025-08-06T08:12:27Z</time>
      </trkpt>
      <trkpt lat="45.67508" lon="4.61087">
        <ele>422.6</ele>
        <time>2025-08-06T08:12:28Z</time>
      </trkpt>
      <trkpt lat="45.67513" lon="4.61091">
        <ele>422.2</ele>
        <time>2025-08-06T08:12:29Z</time>
      </trkpt>
      <trkpt lat="45.67517" lon="4.61094">
        <ele>422</ele>
        <time>2025-08-06T08:12:30Z</time>
      </trkpt>
      <trkpt lat="45.67521" lon="4.61099">
        <ele>421.8</ele>
        <time>2025-08-06T08:12:31Z</time>
      </trkpt>
      <trkpt lat="45.67525" lon="4.61103">
        <ele>421.6</ele>
        <time>2025-08-06T08:12:32Z</time>
      </trkpt>
      <trkpt lat="45.67529" lon="4.61108">
        <ele>421.2</ele>
        <time>2025-08-06T08:12:33Z</time>
      </trkpt>
      <trkpt lat="45.67533" lon="4.61114">
        <ele>421</ele>
        <time>2025-08-06T08:12:34Z</time>
      </trkpt>
      <trkpt lat="45.67536" lon="4.61119">
        <ele>420.6</ele>
        <time>2025-08-06T08:12:35Z</time>
      </trkpt>
      <trkpt lat="45.67539" lon="4.61125">
        <ele>420.4</ele>
        <time>2025-08-06T08:12:36Z</time>
      </trkpt>
      <trkpt lat="45.67543" lon="4.6113">
        <ele>420</ele>
        <time>2025-08-06T08:12:37Z</time>
      </trkpt>
      <trkpt lat="45.67545" lon="4.61136">
        <ele>419.8</ele>
        <time>2025-08-06T08:12:38Z</time>
      </trkpt>
      <trkpt lat="45.67548" lon="4.61143">
        <ele>419.4</ele>
        <time>2025-08-06T08:12:39Z</time>
      </trkpt>
      <trkpt lat="45.6755" lon="4.6115">
        <ele>419</ele>
        <time>2025-08-06T08:12:40Z</time>
      </trkpt>
      <trkpt lat="45.67553" lon="4.61158">
        <ele>418.6</ele>
        <time>2025-08-06T08:12:41Z</time>
      </trkpt>
      <trkpt lat="45.67554" lon="4.61167">
        <ele>418.2</ele>
        <time>2025-08-06T08:12:42Z</time>
      </trkpt>
      <trkpt lat="45.67556" lon="4.61176">
        <ele>417.8</ele>
        <time>2025-08-06T08:12:43Z</time>
      </trkpt>
      <trkpt lat="45.67557" lon="4.61185">
        <ele>417.4</ele>
        <time>2025-08-06T08:12:44Z</time>
      </trkpt>
      <trkpt lat="45.67557" lon="4.61194">
        <ele>417.2</ele>
        <time>2025-08-06T08:12:45Z</time>
      </trkpt>
      <trkpt lat="45.67556" lon="4.61203">
        <ele>417</ele>
        <time>2025-08-06T08:12:46Z</time>
      </trkpt>
      <trkpt lat="45.67556" lon="4.61211">
        <ele>417</ele>
        <time>2025-08-06T08:12:47Z</time>
      </trkpt>
      <trkpt lat="45.67555" lon="4.61219">
        <ele>417.2</ele>
        <time>2025-08-06T08:12:48Z</time>
      </trkpt>
      <trkpt lat="45.67555" lon="4.61227">
        <ele>417.2</ele>
        <time>2025-08-06T08:12:49Z</time>
      </trkpt>
      <trkpt lat="45.67554" lon="4.61234">
        <ele>417.4</ele>
        <time>2025-08-06T08:12:50Z</time>
      </trkpt>
      <trkpt lat="45.67553" lon="4.61242">
        <ele>417.6</ele>
        <time>2025-08-06T08:12:51Z</time>
      </trkpt>
      <trkpt lat="45.67552" lon="4.61249">
        <ele>418</ele>
        <time>2025-08-06T08:12:52Z</time>
      </trkpt>
      <trkpt lat="45.67551" lon="4.61256">
        <ele>418.2</ele>
        <time>2025-08-06T08:12:53Z</time>
      </trkpt>
      <trkpt lat="45.67549" lon="4.61262">
        <ele>418.4</ele>
        <time>2025-08-06T08:12:54Z</time>
      </trkpt>
      <trkpt lat="45.67548" lon="4.61269">
        <ele>418.6</ele>
        <time>2025-08-06T08:12:55Z</time>
      </trkpt>
      <trkpt lat="45.67547" lon="4.61275">
        <ele>418.8</ele>
        <time>2025-08-06T08:12:56Z</time>
      </trkpt>
      <trkpt lat="45.67546" lon="4.61281">
        <ele>419</ele>
        <time>2025-08-06T08:12:57Z</time>
      </trkpt>
      <trkpt lat="45.67544" lon="4.61287">
        <ele>419.4</ele>
        <time>2025-08-06T08:12:58Z</time>
      </trkpt>
      <trkpt lat="45.67543" lon="4.61294">
        <ele>419.6</ele>
        <time>2025-08-06T08:12:59Z</time>
      </trkpt>
      <trkpt lat="45.67541" lon="4.613">
        <ele>419.6</ele>
        <time>2025-08-06T08:13:00Z</time>
      </trkpt>
      <trkpt lat="45.6754" lon="4.61307">
        <ele>419.8</ele>
        <time>2025-08-06T08:13:01Z</time>
      </trkpt>
      <trkpt lat="45.67539" lon="4.61313">
        <ele>420</ele>
        <time>2025-08-06T08:13:02Z</time>
      </trkpt>
      <trkpt lat="45.67538" lon="4.61318">
        <ele>420.4</ele>
        <time>2025-08-06T08:13:03Z</time>
      </trkpt>
      <trkpt lat="45.67538" lon="4.61322">
        <ele>420.8</ele>
        <time>2025-08-06T08:13:04Z</time>
      </trkpt>
      <trkpt lat="45.67537" lon="4.61326">
        <ele>421.2</ele>
        <time>2025-08-06T08:13:05Z</time>
      </trkpt>
      <trkpt lat="45.67537" lon="4.61329">
        <ele>421.6</ele>
        <time>2025-08-06T08:13:06Z</time>
      </trkpt>
      <trkpt lat="45.67536" lon="4.61332">
        <ele>422</ele>
        <time>2025-08-06T08:13:07Z</time>
      </trkpt>
      <trkpt lat="45.67535" lon="4.61335">
        <ele>422.4</ele>
        <time>2025-08-06T08:13:08Z</time>
      </trkpt>
      <trkpt lat="45.67535" lon="4.61339">
        <ele>422.8</ele>
        <time>2025-08-06T08:13:09Z</time>
      </trkpt>
      <trkpt lat="45.67535" lon="4.61343">
        <ele>423.4</ele>
        <time>2025-08-06T08:13:10Z</time>
      </trkpt>
      <trkpt lat="45.67535" lon="4.61346">
        <ele>423.8</ele>
        <time>2025-08-06T08:13:11Z</time>
      </trkpt>
      <trkpt lat="45.67535" lon="4.6135">
        <ele>424.2</ele>
        <time>2025-08-06T08:13:12Z</time>
      </trkpt>
      <trkpt lat="45.67534" lon="4.61353">
        <ele>424.8</ele>
        <time>2025-08-06T08:13:13Z</time>
      </trkpt>
      <trkpt lat="45.67534" lon="4.61356">
        <ele>425.2</ele>
        <time>2025-08-06T08:13:14Z</time>
      </trkpt>
      <trkpt lat="45.67534" lon="4.6136">
        <ele>425.6</ele>
        <time>2025-08-06T08:13:15Z</time>
      </trkpt>
      <trkpt lat="45.67533" lon="4.61363">
        <ele>426.2</ele>
        <time>2025-08-06T08:13:16Z</time>
      </trkpt>
      <trkpt lat="45.67533" lon="4.61366">
        <ele>426.6</ele>
        <time>2025-08-06T08:13:17Z</time>
      </trkpt>
      <trkpt lat="45.67533" lon="4.6137">
        <ele>427</ele>
        <time>2025-08-06T08:13:18Z</time>
      </trkpt>
      <trkpt lat="45.67532" lon="4.61374">
        <ele>427.4</ele>
        <time>2025-08-06T08:13:19Z</time>
      </trkpt>
      <trkpt lat="45.67532" lon="4.61377">
        <ele>427.8</ele>
        <time>2025-08-06T08:13:20Z</time>
      </trkpt>
      <trkpt lat="45.67531" lon="4.61381">
        <ele>428</ele>
        <time>2025-08-06T08:13:21Z</time>
      </trkpt>
      <trkpt lat="45.67531" lon="4.61386">
        <ele>428.2</ele>
        <time>2025-08-06T08:13:22Z</time>
      </trkpt>
      <trkpt lat="45.6753" lon="4.61389">
        <ele>428.4</ele>
        <time>2025-08-06T08:13:23Z</time>
      </trkpt>
      <trkpt lat="45.67529" lon="4.61393">
        <ele>428.6</ele>
        <time>2025-08-06T08:13:24Z</time>
      </trkpt>
      <trkpt lat="45.67529" lon="4.61396">
        <ele>428.6</ele>
        <time>2025-08-06T08:13:25Z</time>
      </trkpt>
      <trkpt lat="45.67528" lon="4.61399">
        <ele>428.8</ele>
        <time>2025-08-06T08:13:26Z</time>
      </trkpt>
      <trkpt lat="45.67527" lon="4.61403">
        <ele>429</ele>
        <time>2025-08-06T08:13:27Z</time>
      </trkpt>
      <trkpt lat="45.67527" lon="4.61407">
        <ele>429</ele>
        <time>2025-08-06T08:13:28Z</time>
      </trkpt>
      <trkpt lat="45.67526" lon="4.61411">
        <ele>429</ele>
        <time>2025-08-06T08:13:29Z</time>
      </trkpt>
      <trkpt lat="45.67525" lon="4.61415">
        <ele>429.2</ele>
        <time>2025-08-06T08:13:30Z</time>
      </trkpt>
      <trkpt lat="45.67526" lon="4.61419">
        <ele>429.2</ele>
        <time>2025-08-06T08:13:31Z</time>
      </trkpt>
      <trkpt lat="45.67527" lon="4.61423">
        <ele>429.2</ele>
        <time>2025-08-06T08:13:32Z</time>
      </trkpt>
      <trkpt lat="45.67529" lon="4.61425">
        <ele>429.2</ele>
        <time>2025-08-06T08:13:33Z</time>
      </trkpt>
      <trkpt lat="45.67532" lon="4.61426">
        <ele>429.2</ele>
        <time>2025-08-06T08:13:34Z</time>
      </trkpt>
      <trkpt lat="45.67535" lon="4.61425">
        <ele>429.4</ele>
        <time>2025-08-06T08:13:35Z</time>
      </trkpt>
      <trkpt lat="45.67537" lon="4.61423">
        <ele>429.6</ele>
        <time>2025-08-06T08:13:36Z</time>
      </trkpt>
      <trkpt lat="45.67538" lon="4.6142">
        <ele>429.8</ele>
        <time>2025-08-06T08:13:37Z</time>
      </trkpt>
      <trkpt lat="45.67539" lon="4.61417">
        <ele>430</ele>
        <time>2025-08-06T08:13:38Z</time>
      </trkpt>
      <trkpt lat="45.6754" lon="4.61414">
        <ele>430.4</ele>
        <time>2025-08-06T08:13:39Z</time>
      </trkpt>
      <trkpt lat="45.67541" lon="4.61411">
        <ele>430.6</ele>
        <time>2025-08-06T08:13:40Z</time>
      </trkpt>
      <trkpt lat="45.67542" lon="4.61409">
        <ele>431</ele>
        <time>2025-08-06T08:13:41Z</time>
      </trkpt>
      <trkpt lat="45.67543" lon="4.61406">
        <ele>431.4</ele>
        <time>2025-08-06T08:13:42Z</time>
      </trkpt>
      <trkpt lat="45.67544" lon="4.61403">
        <ele>431.6</ele>
        <time>2025-08-06T08:13:43Z</time>
      </trkpt>
      <trkpt lat="45.67545" lon="4.614">
        <ele>432</ele>
        <time>2025-08-06T08:13:44Z</time>
      </trkpt>
      <trkpt lat="45.67546" lon="4.61397">
        <ele>432.4</ele>
        <time>2025-08-06T08:13:45Z</time>
      </trkpt>
      <trkpt lat="45.67548" lon="4.61394">
        <ele>432.8</ele>
        <time>2025-08-06T08:13:46Z</time>
      </trkpt>
      <trkpt lat="45.6755" lon="4.61392">
        <ele>433.2</ele>
        <time>2025-08-06T08:13:47Z</time>
      </trkpt>
      <trkpt lat="45.67553" lon="4.61391">
        <ele>433.4</ele>
        <time>2025-08-06T08:13:48Z</time>
      </trkpt>
      <trkpt lat="45.67555" lon="4.6139">
        <ele>433.8</ele>
        <time>2025-08-06T08:13:49Z</time>
      </trkpt>
      <trkpt lat="45.67557" lon="4.61389">
        <ele>434.2</ele>
        <time>2025-08-06T08:13:50Z</time>
      </trkpt>
      <trkpt lat="45.67559" lon="4.61389">
        <ele>434.8</ele>
        <time>2025-08-06T08:13:51Z</time>
      </trkpt>
      <trkpt lat="45.67561" lon="4.61389">
        <ele>435.2</ele>
        <time>2025-08-06T08:13:52Z</time>
      </trkpt>
      <trkpt lat="45.67563" lon="4.61388">
        <ele>435.6</ele>
        <time>2025-08-06T08:13:53Z</time>
      </trkpt>
      <trkpt lat="45.67566" lon="4.61388">
        <ele>436</ele>
        <time>2025-08-06T08:13:54Z</time>
      </trkpt>
      <trkpt lat="45.67568" lon="4.61388">
        <ele>436.2</ele>
        <time>2025-08-06T08:13:55Z</time>
      </trkpt>
      <trkpt lat="45.6757" lon="4.61388">
        <ele>436.6</ele>
        <time>2025-08-06T08:13:56Z</time>
      </trkpt>
      <trkpt lat="45.67572" lon="4.61388">
        <ele>437</ele>
        <time>2025-08-06T08:13:57Z</time>
      </trkpt>
      <trkpt lat="45.67574" lon="4.61388">
        <ele>437.6</ele>
        <time>2025-08-06T08:13:58Z</time>
      </trkpt>
      <trkpt lat="45.67576" lon="4.61387">
        <ele>438</ele>
        <time>2025-08-06T08:13:59Z</time>
      </trkpt>
      <trkpt lat="45.67578" lon="4.61386">
        <ele>438.6</ele>
        <time>2025-08-06T08:14:00Z</time>
      </trkpt>
      <trkpt lat="45.6758" lon="4.61385">
        <ele>439</ele>
        <time>2025-08-06T08:14:01Z</time>
      </trkpt>
      <trkpt lat="45.67582" lon="4.61384">
        <ele>439.6</ele>
        <time>2025-08-06T08:14:02Z</time>
      </trkpt>
      <trkpt lat="45.67585" lon="4.61383">
        <ele>440</ele>
        <time>2025-08-06T08:14:03Z</time>
      </trkpt>
      <trkpt lat="45.67587" lon="4.61383">
        <ele>440.6</ele>
        <time>2025-08-06T08:14:04Z</time>
      </trkpt>
      <trkpt lat="45.67589" lon="4.61382">
        <ele>441.2</ele>
        <time>2025-08-06T08:14:05Z</time>
      </trkpt>
      <trkpt lat="45.67591" lon="4.61381">
        <ele>441.8</ele>
        <time>2025-08-06T08:14:06Z</time>
      </trkpt>
      <trkpt lat="45.67593" lon="4.6138">
        <ele>442.2</ele>
        <time>2025-08-06T08:14:07Z</time>
      </trkpt>
      <trkpt lat="45.67594" lon="4.61379">
        <ele>442.8</ele>
        <time>2025-08-06T08:14:08Z</time>
      </trkpt>
      <trkpt lat="45.67596" lon="4.61378">
        <ele>443.4</ele>
        <time>2025-08-06T08:14:09Z</time>
      </trkpt>
      <trkpt lat="45.67598" lon="4.61378">
        <ele>444</ele>
        <time>2025-08-06T08:14:10Z</time>
      </trkpt>
      <trkpt lat="45.676" lon="4.61379">
        <ele>444.6</ele>
        <time>2025-08-06T08:14:11Z</time>
      </trkpt>
      <trkpt lat="45.67602" lon="4.61381">
        <ele>445.2</ele>
        <time>2025-08-06T08:14:12Z</time>
      </trkpt>
      <trkpt lat="45.67604" lon="4.61383">
        <ele>445.6</ele>
        <time>2025-08-06T08:14:13Z</time>
      </trkpt>
      <trkpt lat="45.67604" lon="4.61385">
        <ele>446.2</ele>
        <time>2025-08-06T08:14:14Z</time>
      </trkpt>
      <trkpt lat="45.67605" lon="4.61388">
        <ele>446.6</ele>
        <time>2025-08-06T08:14:15Z</time>
      </trkpt>
      <trkpt lat="45.67606" lon="4.6139">
        <ele>447</ele>
        <time>2025-08-06T08:14:16Z</time>
      </trkpt>
      <trkpt lat="45.67607" lon="4.61392">
        <ele>447.4</ele>
        <time>2025-08-06T08:14:17Z</time>
      </trkpt>
      <trkpt lat="45.67608" lon="4.61394">
        <ele>447.8</ele>
        <time>2025-08-06T08:14:18Z</time>
      </trkpt>
      <trkpt lat="45.6761" lon="4.61394">
        <ele>448</ele>
        <time>2025-08-06T08:14:19Z</time>
      </trkpt>
      <trkpt lat="45.67612" lon="4.61394">
        <ele>448.4</ele>
        <time>2025-08-06T08:14:20Z</time>
      </trkpt>
      <trkpt lat="45.67614" lon="4.61393">
        <ele>448.6</ele>
        <time>2025-08-06T08:14:21Z</time>
      </trkpt>
      <trkpt lat="45.67615" lon="4.61391">
        <ele>448.8</ele>
        <time>2025-08-06T08:14:22Z</time>
      </trkpt>
      <trkpt lat="45.67616" lon="4.61388">
        <ele>449</ele>
        <time>2025-08-06T08:14:23Z</time>
      </trkpt>
      <trkpt lat="45.67617" lon="4.61385">
        <ele>449.2</ele>
        <time>2025-08-06T08:14:24Z</time>
      </trkpt>
      <trkpt lat="45.67617" lon="4.61382">
        <ele>449.4</ele>
        <time>2025-08-06T08:14:25Z</time>
      </trkpt>
      <trkpt lat="45.67617" lon="4.61378">
        <ele>449.6</ele>
        <time>2025-08-06T08:14:26Z</time>
      </trkpt>
      <trkpt lat="45.67617" lon="4.61374">
        <ele>449.8</ele>
        <time>2025-08-06T08:14:27Z</time>
      </trkpt>
      <trkpt lat="45.67617" lon="4.61371">
        <ele>450</ele>
        <time>2025-08-06T08:14:28Z</time>
      </trkpt>
      <trkpt lat="45.67618" lon="4.61368">
        <ele>450.2</ele>
        <time>2025-08-06T08:14:29Z</time>
      </trkpt>
      <trkpt lat="45.67619" lon="4.61364">
        <ele>450.4</ele>
        <time>2025-08-06T08:14:30Z</time>
      </trkpt>
      <trkpt lat="45.67619" lon="4.61361">
        <ele>450.6</ele>
        <time>2025-08-06T08:14:31Z</time>
      </trkpt>
      <trkpt lat="45.67619" lon="4.61358">
        <ele>450.6</ele>
        <time>2025-08-06T08:14:32Z</time>
      </trkpt>
      <trkpt lat="45.6762" lon="4.61355">
        <ele>450.8</ele>
        <time>2025-08-06T08:14:33Z</time>
      </trkpt>
      <trkpt lat="45.67621" lon="4.61353">
        <ele>451</ele>
        <time>2025-08-06T08:14:34Z</time>
      </trkpt>
      <trkpt lat="45.67623" lon="4.61351">
        <ele>451.2</ele>
        <time>2025-08-06T08:14:35Z</time>
      </trkpt>
      <trkpt lat="45.67624" lon="4.61349">
        <ele>451.4</ele>
        <time>2025-08-06T08:14:36Z</time>
      </trkpt>
      <trkpt lat="45.67625" lon="4.61347">
        <ele>451.6</ele>
        <time>2025-08-06T08:14:37Z</time>
      </trkpt>
      <trkpt lat="45.67626" lon="4.61345">
        <ele>451.8</ele>
        <time>2025-08-06T08:14:38Z</time>
      </trkpt>
      <trkpt lat="45.67627" lon="4.61343">
        <ele>452.2</ele>
        <time>2025-08-06T08:14:39Z</time>
      </trkpt>
      <trkpt lat="45.67628" lon="4.61343">
        <ele>452.4</ele>
        <time>2025-08-06T08:14:40Z</time>
      </trkpt>
      <trkpt lat="45.6763" lon="4.61344">
        <ele>452.6</ele>
        <time>2025-08-06T08:14:41Z</time>
      </trkpt>
      <trkpt lat="45.67631" lon="4.61345">
        <ele>452.8</ele>
        <time>2025-08-06T08:14:42Z</time>
      </trkpt>
      <trkpt lat="45.67632" lon="4.61347">
        <ele>453.2</ele>
        <time>2025-08-06T08:14:43Z</time>
      </trkpt>
      <trkpt lat="45.67634" lon="4.61349">
        <ele>453.4</ele>
        <time>2025-08-06T08:14:44Z</time>
      </trkpt>
      <trkpt lat="45.67635" lon="4.61351">
        <ele>453.8</ele>
        <time>2025-08-06T08:14:45Z</time>
      </trkpt>
      <trkpt lat="45.67637" lon="4.61353">
        <ele>454</ele>
        <time>2025-08-06T08:14:46Z</time>
      </trkpt>
      <trkpt lat="45.67638" lon="4.61355">
        <ele>454.4</ele>
        <time>2025-08-06T08:14:47Z</time>
      </trkpt>
      <trkpt lat="45.6764" lon="4.61357">
        <ele>454.8</ele>
        <time>2025-08-06T08:14:48Z</time>
      </trkpt>
      <trkpt lat="45.67642" lon="4.61358">
        <ele>455.2</ele>
        <time>2025-08-06T08:14:49Z</time>
      </trkpt>
      <trkpt lat="45.67644" lon="4.6136">
        <ele>455.4</ele>
        <time>2025-08-06T08:14:50Z</time>
      </trkpt>
      <trkpt lat="45.67646" lon="4.61362">
        <ele>455.8</ele>
        <time>2025-08-06T08:14:51Z</time>
      </trkpt>
      <trkpt lat="45.67647" lon="4.61364">
        <ele>456</ele>
        <time>2025-08-06T08:14:52Z</time>
      </trkpt>
      <trkpt lat="45.67649" lon="4.61365">
        <ele>456.2</ele>
        <time>2025-08-06T08:14:53Z</time>
      </trkpt>
      <trkpt lat="45.67652" lon="4.61366">
        <ele>456.4</ele>
        <time>2025-08-06T08:14:54Z</time>
      </trkpt>
      <trkpt lat="45.67654" lon="4.61368">
        <ele>456.6</ele>
        <time>2025-08-06T08:14:55Z</time>
      </trkpt>
      <trkpt lat="45.67656" lon="4.61369">
        <ele>456.8</ele>
        <time>2025-08-06T08:14:56Z</time>
      </trkpt>
      <trkpt lat="45.67659" lon="4.61371">
        <ele>457</ele>
        <time>2025-08-06T08:14:57Z</time>
      </trkpt>
      <trkpt lat="45.67661" lon="4.61372">
        <ele>457</ele>
        <time>2025-08-06T08:14:58Z</time>
      </trkpt>
      <trkpt lat="45.67664" lon="4.61374">
        <ele>457.2</ele>
        <time>2025-08-06T08:14:59Z</time>
      </trkpt>
      <trkpt lat="45.67666" lon="4.61375">
        <ele>457.2</ele>
        <time>2025-08-06T08:15:00Z</time>
      </trkpt>
      <trkpt lat="45.67669" lon="4.61376">
        <ele>457.4</ele>
        <time>2025-08-06T08:15:01Z</time>
      </trkpt>
      <trkpt lat="45.67672" lon="4.61377">
        <ele>457.4</ele>
        <time>2025-08-06T08:15:02Z</time>
      </trkpt>
      <trkpt lat="45.67675" lon="4.61378">
        <ele>457.4</ele>
        <time>2025-08-06T08:15:03Z</time>
      </trkpt>
      <trkpt lat="45.67678" lon="4.61379">
        <ele>457.6</ele>
        <time>2025-08-06T08:15:04Z</time>
      </trkpt>
      <trkpt lat="45.67681" lon="4.61379">
        <ele>457.8</ele>
        <time>2025-08-06T08:15:05Z</time>
      </trkpt>
      <trkpt lat="45.67684" lon="4.6138">
        <ele>457.8</ele>
        <time>2025-08-06T08:15:06Z</time>
      </trkpt>
      <trkpt lat="45.67686" lon="4.6138">
        <ele>458</ele>
        <time>2025-08-06T08:15:07Z</time>
      </trkpt>
      <trkpt lat="45.67689" lon="4.61379">
        <ele>458.2</ele>
        <time>2025-08-06T08:15:08Z</time>
      </trkpt>
      <trkpt lat="45.67691" lon="4.61379">
        <ele>458.4</ele>
        <time>2025-08-06T08:15:09Z</time>
      </trkpt>
      <trkpt lat="45.67694" lon="4.61379">
        <ele>458.4</ele>
        <time>2025-08-06T08:15:10Z</time>
      </trkpt>
      <trkpt lat="45.67696" lon="4.61378">
        <ele>458.6</ele>
        <time>2025-08-06T08:15:11Z</time>
      </trkpt>
      <trkpt lat="45.67698" lon="4.61378">
        <ele>458.8</ele>
        <time>2025-08-06T08:15:12Z</time>
      </trkpt>
      <trkpt lat="45.677" lon="4.61377">
        <ele>459</ele>
        <time>2025-08-06T08:15:13Z</time>
      </trkpt>
      <trkpt lat="45.67702" lon="4.61376">
        <ele>459.2</ele>
        <time>2025-08-06T08:15:14Z</time>
      </trkpt>
      <trkpt lat="45.67704" lon="4.61375">
        <ele>459.6</ele>
        <time>2025-08-06T08:15:15Z</time>
      </trkpt>
      <trkpt lat="45.67706" lon="4.61373">
        <ele>459.8</ele>
        <time>2025-08-06T08:15:16Z</time>
      </trkpt>
      <trkpt lat="45.67708" lon="4.61372">
        <ele>460</ele>
        <time>2025-08-06T08:15:17Z</time>
      </trkpt>
      <trkpt lat="45.6771" lon="4.61371">
        <ele>460.2</ele>
        <time>2025-08-06T08:15:18Z</time>
      </trkpt>
      <trkpt lat="45.67712" lon="4.61369">
        <ele>460.4</ele>
        <time>2025-08-06T08:15:19Z</time>
      </trkpt>
      <trkpt lat="45.67715" lon="4.61367">
        <ele>460.6</ele>
        <time>2025-08-06T08:15:20Z</time>
      </trkpt>
      <trkpt lat="45.67717" lon="4.61365">
        <ele>460.8</ele>
        <time>2025-08-06T08:15:21Z</time>
      </trkpt>
      <trkpt lat="45.67718" lon="4.61363">
        <ele>461</ele>
        <time>2025-08-06T08:15:22Z</time>
      </trkpt>
      <trkpt lat="45.6772" lon="4.6136">
        <ele>461.4</ele>
        <time>2025-08-06T08:15:23Z</time>
      </trkpt>
      <trkpt lat="45.67722" lon="4.61358">
        <ele>461.6</ele>
        <time>2025-08-06T08:15:24Z</time>
      </trkpt>
      <trkpt lat="45.67724" lon="4.61355">
        <ele>462</ele>
        <time>2025-08-06T08:15:25Z</time>
      </trkpt>
      <trkpt lat="45.67726" lon="4.61353">
        <ele>462.2</ele>
        <time>2025-08-06T08:15:26Z</time>
      </trkpt>
      <trkpt lat="45.67727" lon="4.6135">
        <ele>462.6</ele>
        <time>2025-08-06T08:15:27Z</time>
      </trkpt>
      <trkpt lat="45.67729" lon="4.61348">
        <ele>462.8</ele>
        <time>2025-08-06T08:15:28Z</time>
      </trkpt>
      <trkpt lat="45.67731" lon="4.61345">
        <ele>463.2</ele>
        <time>2025-08-06T08:15:29Z</time>
      </trkpt>
      <trkpt lat="45.67733" lon="4.61343">
        <ele>463.6</ele>
        <time>2025-08-06T08:15:30Z</time>
      </trkpt>
      <trkpt lat="45.67735" lon="4.61341">
        <ele>463.8</ele>
        <time>2025-08-06T08:15:31Z</time>
      </trkpt>
      <trkpt lat="45.67736" lon="4.6134">
        <ele>464.2</ele>
        <time>2025-08-06T08:15:32Z</time>
      </trkpt>
      <trkpt lat="45.67738" lon="4.61338">
        <ele>464.4</ele>
        <time>2025-08-06T08:15:33Z</time>
      </trkpt>
      <trkpt lat="45.6774" lon="4.61336">
        <ele>464.8</ele>
        <time>2025-08-06T08:15:34Z</time>
      </trkpt>
      <trkpt lat="45.67743" lon="4.61334">
        <ele>465</ele>
        <time>2025-08-06T08:15:35Z</time>
      </trkpt>
      <trkpt lat="45.67745" lon="4.61332">
        <ele>465.2</ele>
        <time>2025-08-06T08:15:36Z</time>
      </trkpt>
      <trkpt lat="45.67747" lon="4.6133">
        <ele>465.4</ele>
        <time>2025-08-06T08:15:37Z</time>
      </trkpt>
      <trkpt lat="45.67749" lon="4.61328">
        <ele>465.6</ele>
        <time>2025-08-06T08:15:38Z</time>
      </trkpt>
      <trkpt lat="45.67751" lon="4.61326">
        <ele>466</ele>
        <time>2025-08-06T08:15:39Z</time>
      </trkpt>
      <trkpt lat="45.67753" lon="4.61324">
        <ele>466.2</ele>
        <time>2025-08-06T08:15:40Z</time>
      </trkpt>
      <trkpt lat="45.67755" lon="4.61322">
        <ele>466.4</ele>
        <time>2025-08-06T08:15:41Z</time>
      </trkpt>
      <trkpt lat="45.67757" lon="4.61319">
        <ele>466.6</ele>
        <time>2025-08-06T08:15:42Z</time>
      </trkpt>
      <trkpt lat="45.67759" lon="4.61317">
        <ele>467</ele>
        <time>2025-08-06T08:15:43Z</time>
      </trkpt>
      <trkpt lat="45.67761" lon="4.61315">
        <ele>467.2</ele>
        <time>2025-08-06T08:15:44Z</time>
      </trkpt>
      <trkpt lat="45.67764" lon="4.61313">
        <ele>467.6</ele>
        <time>2025-08-06T08:15:45Z</time>
      </trkpt>
      <trkpt lat="45.67766" lon="4.61312">
        <ele>467.8</ele>
        <time>2025-08-06T08:15:46Z</time>
      </trkpt>
      <trkpt lat="45.67768" lon="4.6131">
        <ele>468.2</ele>
        <time>2025-08-06T08:15:47Z</time>
      </trkpt>
      <trkpt lat="45.6777" lon="4.61307">
        <ele>468.4</ele>
        <time>2025-08-06T08:15:48Z</time>
      </trkpt>
      <trkpt lat="45.67772" lon="4.61305">
        <ele>468.6</ele>
        <time>2025-08-06T08:15:49Z</time>
      </trkpt>
      <trkpt lat="45.67774" lon="4.61303">
        <ele>469</ele>
        <time>2025-08-06T08:15:50Z</time>
      </trkpt>
      <trkpt lat="45.67776" lon="4.61302">
        <ele>469.4</ele>
        <time>2025-08-06T08:15:51Z</time>
      </trkpt>
      <trkpt lat="45.67777" lon="4.613">
        <ele>469.6</ele>
        <time>2025-08-06T08:15:52Z</time>
      </trkpt>
      <trkpt lat="45.67779" lon="4.61298">
        <ele>470</ele>
        <time>2025-08-06T08:15:53Z</time>
      </trkpt>
      <trkpt lat="45.67781" lon="4.61296">
        <ele>470.4</ele>
        <time>2025-08-06T08:15:54Z</time>
      </trkpt>
      <trkpt lat="45.67784" lon="4.61294">
        <ele>470.6</ele>
        <time>2025-08-06T08:15:55Z</time>
      </trkpt>
      <trkpt lat="45.67786" lon="4.61291">
        <ele>470.8</ele>
        <time>2025-08-06T08:15:56Z</time>
      </trkpt>
      <trkpt lat="45.67788" lon="4.61289">
        <ele>471.2</ele>
        <time>2025-08-06T08:15:57Z</time>
      </trkpt>
      <trkpt lat="45.67791" lon="4.61287">
        <ele>471.4</ele>
        <time>2025-08-06T08:15:58Z</time>
      </trkpt>
      <trkpt lat="45.67793" lon="4.61284">
        <ele>471.8</ele>
        <time>2025-08-06T08:15:59Z</time>
      </trkpt>
      <trkpt lat="45.67794" lon="4.61282">
        <ele>472</ele>
        <time>2025-08-06T08:16:00Z</time>
      </trkpt>
      <trkpt lat="45.67796" lon="4.6128">
        <ele>472.4</ele>
        <time>2025-08-06T08:16:01Z</time>
      </trkpt>
      <trkpt lat="45.67798" lon="4.61278">
        <ele>472.8</ele>
        <time>2025-08-06T08:16:02Z</time>
      </trkpt>
      <trkpt lat="45.678" lon="4.61276">
        <ele>473.2</ele>
        <time>2025-08-06T08:16:03Z</time>
      </trkpt>
      <trkpt lat="45.67802" lon="4.61274">
        <ele>473.6</ele>
        <time>2025-08-06T08:16:04Z</time>
      </trkpt>
      <trkpt lat="45.67804" lon="4.61272">
        <ele>473.8</ele>
        <time>2025-08-06T08:16:05Z</time>
      </trkpt>
      <trkpt lat="45.67806" lon="4.6127">
        <ele>474.2</ele>
        <time>2025-08-06T08:16:06Z</time>
      </trkpt>
      <trkpt lat="45.67808" lon="4.61268">
        <ele>474.6</ele>
        <time>2025-08-06T08:16:07Z</time>
      </trkpt>
      <trkpt lat="45.67809" lon="4.61265">
        <ele>475</ele>
        <time>2025-08-06T08:16:08Z</time>
      </trkpt>
      <trkpt lat="45.67811" lon="4.61264">
        <ele>475.2</ele>
        <time>2025-08-06T08:16:09Z</time>
      </trkpt>
      <trkpt lat="45.67813" lon="4.61262">
        <ele>475.6</ele>
        <time>2025-08-06T08:16:10Z</time>
      </trkpt>
      <trkpt lat="45.67816" lon="4.6126">
        <ele>476</ele>
        <time>2025-08-06T08:16:11Z</time>
      </trkpt>
      <trkpt lat="45.67818" lon="4.61259">
        <ele>476.4</ele>
        <time>2025-08-06T08:16:12Z</time>
      </trkpt>
      <trkpt lat="45.6782" lon="4.61257">
        <ele>476.8</ele>
        <time>2025-08-06T08:16:13Z</time>
      </trkpt>
      <trkpt lat="45.67822" lon="4.61255">
        <ele>477</ele>
        <time>2025-08-06T08:16:14Z</time>
      </trkpt>
      <trkpt lat="45.67824" lon="4.61253">
        <ele>477.4</ele>
        <time>2025-08-06T08:16:15Z</time>
      </trkpt>
      <trkpt lat="45.67826" lon="4.61252">
        <ele>477.8</ele>
        <time>2025-08-06T08:16:16Z</time>
      </trkpt>
      <trkpt lat="45.67828" lon="4.6125">
        <ele>478.2</ele>
        <time>2025-08-06T08:16:17Z</time>
      </trkpt>
      <trkpt lat="45.6783" lon="4.61248">
        <ele>478.4</ele>
        <time>2025-08-06T08:16:18Z</time>
      </trkpt>
      <trkpt lat="45.67832" lon="4.61246">
        <ele>478.8</ele>
        <time>2025-08-06T08:16:19Z</time>
      </trkpt>
      <trkpt lat="45.67834" lon="4.61244">
        <ele>479.2</ele>
        <time>2025-08-06T08:16:20Z</time>
      </trkpt>
      <trkpt lat="45.67836" lon="4.61242">
        <ele>479.6</ele>
        <time>2025-08-06T08:16:21Z</time>
      </trkpt>
      <trkpt lat="45.67838" lon="4.6124">
        <ele>480.2</ele>
        <time>2025-08-06T08:16:22Z</time>
      </trkpt>
      <trkpt lat="45.6784" lon="4.61238">
        <ele>480.6</ele>
        <time>2025-08-06T08:16:23Z</time>
      </trkpt>
      <trkpt lat="45.67842" lon="4.61236">
        <ele>481</ele>
        <time>2025-08-06T08:16:24Z</time>
      </trkpt>
      <trkpt lat="45.67844" lon="4.61234">
        <ele>481.6</ele>
        <time>2025-08-06T08:16:25Z</time>
      </trkpt>
      <trkpt lat="45.67846" lon="4.61233">
        <ele>482</ele>
        <time>2025-08-06T08:16:26Z</time>
      </trkpt>
      <trkpt lat="45.67848" lon="4.61232">
        <ele>482.6</ele>
        <time>2025-08-06T08:16:27Z</time>
      </trkpt>
      <trkpt lat="45.6785" lon="4.61231">
        <ele>483</ele>
        <time>2025-08-06T08:16:28Z</time>
      </trkpt>
      <trkpt lat="45.67852" lon="4.6123">
        <ele>483.4</ele>
        <time>2025-08-06T08:16:29Z</time>
      </trkpt>
      <trkpt lat="45.67855" lon="4.6123">
        <ele>483.6</ele>
        <time>2025-08-06T08:16:30Z</time>
      </trkpt>
      <trkpt lat="45.67857" lon="4.6123">
        <ele>484</ele>
        <time>2025-08-06T08:16:31Z</time>
      </trkpt>
      <trkpt lat="45.67859" lon="4.61231">
        <ele>484.2</ele>
        <time>2025-08-06T08:16:32Z</time>
      </trkpt>
      <trkpt lat="45.67862" lon="4.61232">
        <ele>484.4</ele>
        <time>2025-08-06T08:16:33Z</time>
      </trkpt>
      <trkpt lat="45.67865" lon="4.61234">
        <ele>484.6</ele>
        <time>2025-08-06T08:16:34Z</time>
      </trkpt>
      <trkpt lat="45.67868" lon="4.61235">
        <ele>484.8</ele>
        <time>2025-08-06T08:16:35Z</time>
      </trkpt>
      <trkpt lat="45.6787" lon="4.61237">
        <ele>484.8</ele>
        <time>2025-08-06T08:16:36Z</time>
      </trkpt>
      <trkpt lat="45.67873" lon="4.61239">
        <ele>485</ele>
        <time>2025-08-06T08:16:37Z</time>
      </trkpt>
      <trkpt lat="45.67876" lon="4.6124">
        <ele>485</ele>
        <time>2025-08-06T08:16:38Z</time>
      </trkpt>
      <trkpt lat="45.67879" lon="4.61242">
        <ele>485.2</ele>
        <time>2025-08-06T08:16:39Z</time>
      </trkpt>
      <trkpt lat="45.67883" lon="4.61243">
        <ele>485</ele>
        <time>2025-08-06T08:16:40Z</time>
      </trkpt>
      <trkpt lat="45.67886" lon="4.61244">
        <ele>485</ele>
        <time>2025-08-06T08:16:41Z</time>
      </trkpt>
      <trkpt lat="45.6789" lon="4.61245">
        <ele>484.6</ele>
        <time>2025-08-06T08:16:42Z</time>
      </trkpt>
      <trkpt lat="45.67894" lon="4.61246">
        <ele>484.4</ele>
        <time>2025-08-06T08:16:43Z</time>
      </trkpt>
      <trkpt lat="45.67899" lon="4.61247">
        <ele>484.4</ele>
        <time>2025-08-06T08:16:44Z</time>
      </trkpt>
      <trkpt lat="45.67903" lon="4.61247">
        <ele>484.2</ele>
        <time>2025-08-06T08:16:45Z</time>
      </trkpt>
      <trkpt lat="45.67906" lon="4.61247">
        <ele>484</ele>
        <time>2025-08-06T08:16:46Z</time>
      </trkpt>
      <trkpt lat="45.6791" lon="4.61246">
        <ele>484</ele>
        <time>2025-08-06T08:16:47Z</time>
      </trkpt>
      <trkpt lat="45.67913" lon="4.61246">
        <ele>484</ele>
        <time>2025-08-06T08:16:48Z</time>
      </trkpt>
      <trkpt lat="45.67917" lon="4.61246">
        <ele>484</ele>
        <time>2025-08-06T08:16:49Z</time>
      </trkpt>
      <trkpt lat="45.6792" lon="4.61246">
        <ele>484</ele>
        <time>2025-08-06T08:16:50Z</time>
      </trkpt>
      <trkpt lat="45.67924" lon="4.61246">
        <ele>484</ele>
        <time>2025-08-06T08:16:51Z</time>
      </trkpt>
      <trkpt lat="45.67928" lon="4.61246">
        <ele>483.8</ele>
        <time>2025-08-06T08:16:52Z</time>
      </trkpt>
      <trkpt lat="45.67932" lon="4.61245">
        <ele>483.4</ele>
        <time>2025-08-06T08:16:53Z</time>
      </trkpt>
      <trkpt lat="45.67936" lon="4.61245">
        <ele>483.2</ele>
        <time>2025-08-06T08:16:54Z</time>
      </trkpt>
      <trkpt lat="45.67941" lon="4.61245">
        <ele>482.8</ele>
        <time>2025-08-06T08:16:55Z</time>
      </trkpt>
      <trkpt lat="45.67946" lon="4.61244">
        <ele>482.4</ele>
        <time>2025-08-06T08:16:56Z</time>
      </trkpt>
      <trkpt lat="45.6795" lon="4.61245">
        <ele>482</ele>
        <time>2025-08-06T08:16:57Z</time>
      </trkpt>
      <trkpt lat="45.67954" lon="4.61246">
        <ele>481.8</ele>
        <time>2025-08-06T08:16:58Z</time>
      </trkpt>
      <trkpt lat="45.67958" lon="4.61248">
        <ele>481.2</ele>
        <time>2025-08-06T08:16:59Z</time>
      </trkpt>
      <trkpt lat="45.67962" lon="4.6125">
        <ele>480.6</ele>
        <time>2025-08-06T08:17:00Z</time>
      </trkpt>
      <trkpt lat="45.67966" lon="4.61253">
        <ele>479.8</ele>
        <time>2025-08-06T08:17:01Z</time>
      </trkpt>
      <trkpt lat="45.67971" lon="4.61255">
        <ele>479.2</ele>
        <time>2025-08-06T08:17:02Z</time>
      </trkpt>
      <trkpt lat="45.67975" lon="4.61257">
        <ele>478.4</ele>
        <time>2025-08-06T08:17:03Z</time>
      </trkpt>
      <trkpt lat="45.6798" lon="4.61259">
        <ele>477.6</ele>
        <time>2025-08-06T08:17:04Z</time>
      </trkpt>
      <trkpt lat="45.67984" lon="4.61261">
        <ele>477</ele>
        <time>2025-08-06T08:17:05Z</time>
      </trkpt>
      <trkpt lat="45.67989" lon="4.61264">
        <ele>476.2</ele>
        <time>2025-08-06T08:17:06Z</time>
      </trkpt>
      <trkpt lat="45.67994" lon="4.61267">
        <ele>475.6</ele>
        <time>2025-08-06T08:17:07Z</time>
      </trkpt>
      <trkpt lat="45.68" lon="4.6127">
        <ele>475</ele>
        <time>2025-08-06T08:17:08Z</time>
      </trkpt>
      <trkpt lat="45.68005" lon="4.61273">
        <ele>474.4</ele>
        <time>2025-08-06T08:17:09Z</time>
      </trkpt>
      <trkpt lat="45.68009" lon="4.61275">
        <ele>474.2</ele>
        <time>2025-08-06T08:17:10Z</time>
      </trkpt>
      <trkpt lat="45.68014" lon="4.61278">
        <ele>473.8</ele>
        <time>2025-08-06T08:17:11Z</time>
      </trkpt>
      <trkpt lat="45.68018" lon="4.61281">
        <ele>473.8</ele>
        <time>2025-08-06T08:17:12Z</time>
      </trkpt>
      <trkpt lat="45.68023" lon="4.61284">
        <ele>473.6</ele>
        <time>2025-08-06T08:17:13Z</time>
      </trkpt>
      <trkpt lat="45.68028" lon="4.61287">
        <ele>473.6</ele>
        <time>2025-08-06T08:17:14Z</time>
      </trkpt>
      <trkpt lat="45.68032" lon="4.6129">
        <ele>473.6</ele>
        <time>2025-08-06T08:17:15Z</time>
      </trkpt>
      <trkpt lat="45.68037" lon="4.61293">
        <ele>473.6</ele>
        <time>2025-08-06T08:17:16Z</time>
      </trkpt>
      <trkpt lat="45.68041" lon="4.61296">
        <ele>473.6</ele>
        <time>2025-08-06T08:17:17Z</time>
      </trkpt>
      <trkpt lat="45.68046" lon="4.61298">
        <ele>473.6</ele>
        <time>2025-08-06T08:17:18Z</time>
      </trkpt>
      <trkpt lat="45.6805" lon="4.613">
        <ele>473.6</ele>
        <time>2025-08-06T08:17:19Z</time>
      </trkpt>
      <trkpt lat="45.68054" lon="4.61303">
        <ele>473.6</ele>
        <time>2025-08-06T08:17:20Z</time>
      </trkpt>
      <trkpt lat="45.68057" lon="4.61305">
        <ele>473.8</ele>
        <time>2025-08-06T08:17:21Z</time>
      </trkpt>
      <trkpt lat="45.6806" lon="4.61308">
        <ele>474</ele>
        <time>2025-08-06T08:17:22Z</time>
      </trkpt>
      <trkpt lat="45.68064" lon="4.61312">
        <ele>474.2</ele>
        <time>2025-08-06T08:17:23Z</time>
      </trkpt>
      <trkpt lat="45.68067" lon="4.61315">
        <ele>474.4</ele>
        <time>2025-08-06T08:17:24Z</time>
      </trkpt>
      <trkpt lat="45.6807" lon="4.61319">
        <ele>474.6</ele>
        <time>2025-08-06T08:17:25Z</time>
      </trkpt>
      <trkpt lat="45.68073" lon="4.61322">
        <ele>474.8</ele>
        <time>2025-08-06T08:17:26Z</time>
      </trkpt>
      <trkpt lat="45.68075" lon="4.61326">
        <ele>475</ele>
        <time>2025-08-06T08:17:27Z</time>
      </trkpt>
      <trkpt lat="45.68077" lon="4.61329">
        <ele>475.4</ele>
        <time>2025-08-06T08:17:28Z</time>
      </trkpt>
      <trkpt lat="45.68079" lon="4.61332">
        <ele>475.8</ele>
        <time>2025-08-06T08:17:29Z</time>
      </trkpt>
      <trkpt lat="45.68081" lon="4.61336">
        <ele>476.2</ele>
        <time>2025-08-06T08:17:30Z</time>
      </trkpt>
      <trkpt lat="45.68083" lon="4.6134">
        <ele>476.6</ele>
        <time>2025-08-06T08:17:31Z</time>
      </trkpt>
      <trkpt lat="45.68086" lon="4.61344">
        <ele>477</ele>
        <time>2025-08-06T08:17:32Z</time>
      </trkpt>
      <trkpt lat="45.68088" lon="4.61348">
        <ele>477.4</ele>
        <time>2025-08-06T08:17:33Z</time>
      </trkpt>
      <trkpt lat="45.6809" lon="4.61351">
        <ele>477.8</ele>
        <time>2025-08-06T08:17:34Z</time>
      </trkpt>
      <trkpt lat="45.68092" lon="4.61355">
        <ele>478.4</ele>
        <time>2025-08-06T08:17:35Z</time>
      </trkpt>
      <trkpt lat="45.68094" lon="4.61359">
        <ele>478.8</ele>
        <time>2025-08-06T08:17:36Z</time>
      </trkpt>
      <trkpt lat="45.68096" lon="4.61362">
        <ele>479.4</ele>
        <time>2025-08-06T08:17:37Z</time>
      </trkpt>
      <trkpt lat="45.68099" lon="4.61365">
        <ele>480</ele>
        <time>2025-08-06T08:17:38Z</time>
      </trkpt>
      <trkpt lat="45.68101" lon="4.61368">
        <ele>480.4</ele>
        <time>2025-08-06T08:17:39Z</time>
      </trkpt>
      <trkpt lat="45.68104" lon="4.61372">
        <ele>481</ele>
        <time>2025-08-06T08:17:40Z</time>
      </trkpt>
      <trkpt lat="45.68106" lon="4.61375">
        <ele>481.4</ele>
        <time>2025-08-06T08:17:41Z</time>
      </trkpt>
      <trkpt lat="45.68108" lon="4.61379">
        <ele>481.8</ele>
        <time>2025-08-06T08:17:42Z</time>
      </trkpt>
      <trkpt lat="45.6811" lon="4.61382">
        <ele>482</ele>
        <time>2025-08-06T08:17:43Z</time>
      </trkpt>
      <trkpt lat="45.68113" lon="4.61385">
        <ele>482.4</ele>
        <time>2025-08-06T08:17:44Z</time>
      </trkpt>
      <trkpt lat="45.68115" lon="4.61388">
        <ele>482.8</ele>
        <time>2025-08-06T08:17:45Z</time>
      </trkpt>
      <trkpt lat="45.68117" lon="4.61391">
        <ele>483.2</ele>
        <time>2025-08-06T08:17:46Z</time>
      </trkpt>
      <trkpt lat="45.6812" lon="4.61394">
        <ele>483.6</ele>
        <time>2025-08-06T08:17:47Z</time>
      </trkpt>
      <trkpt lat="45.68122" lon="4.61397">
        <ele>484</ele>
        <time>2025-08-06T08:17:48Z</time>
      </trkpt>
      <trkpt lat="45.68124" lon="4.614">
        <ele>484.4</ele>
        <time>2025-08-06T08:17:49Z</time>
      </trkpt>
      <trkpt lat="45.68126" lon="4.61403">
        <ele>484.8</ele>
        <time>2025-08-06T08:17:50Z</time>
      </trkpt>
      <trkpt lat="45.68128" lon="4.61406">
        <ele>485.2</ele>
        <time>2025-08-06T08:17:51Z</time>
      </trkpt>
      <trkpt lat="45.6813" lon="4.61409">
        <ele>485.6</ele>
        <time>2025-08-06T08:17:52Z</time>
      </trkpt>
      <trkpt lat="45.68133" lon="4.61412">
        <ele>486</ele>
        <time>2025-08-06T08:17:53Z</time>
      </trkpt>
      <trkpt lat="45.68135" lon="4.61415">
        <ele>486.2</ele>
        <time>2025-08-06T08:17:54Z</time>
      </trkpt>
      <trkpt lat="45.68137" lon="4.61418">
        <ele>486.6</ele>
        <time>2025-08-06T08:17:55Z</time>
      </trkpt>
      <trkpt lat="45.6814" lon="4.61422">
        <ele>486.8</ele>
        <time>2025-08-06T08:17:56Z</time>
      </trkpt>
      <trkpt lat="45.68143" lon="4.61425">
        <ele>487</ele>
        <time>2025-08-06T08:17:57Z</time>
      </trkpt>
      <trkpt lat="45.68145" lon="4.61429">
        <ele>487.2</ele>
        <time>2025-08-06T08:17:58Z</time>
      </trkpt>
      <trkpt lat="45.68148" lon="4.61432">
        <ele>487.4</ele>
        <time>2025-08-06T08:17:59Z</time>
      </trkpt>
      <trkpt lat="45.68151" lon="4.61436">
        <ele>487.6</ele>
        <time>2025-08-06T08:18:00Z</time>
      </trkpt>
      <trkpt lat="45.68153" lon="4.61439">
        <ele>487.6</ele>
        <time>2025-08-06T08:18:01Z</time>
      </trkpt>
      <trkpt lat="45.68156" lon="4.61443">
        <ele>487.8</ele>
        <time>2025-08-06T08:18:02Z</time>
      </trkpt>
      <trkpt lat="45.68158" lon="4.61445">
        <ele>487.8</ele>
        <time>2025-08-06T08:18:03Z</time>
      </trkpt>
      <trkpt lat="45.6816" lon="4.61448">
        <ele>488</ele>
        <time>2025-08-06T08:18:04Z</time>
      </trkpt>
      <trkpt lat="45.68162" lon="4.61451">
        <ele>488.2</ele>
        <time>2025-08-06T08:18:05Z</time>
      </trkpt>
      <trkpt lat="45.68164" lon="4.61454">
        <ele>488.2</ele>
        <time>2025-08-06T08:18:06Z</time>
      </trkpt>
      <trkpt lat="45.68166" lon="4.61457">
        <ele>488.4</ele>
        <time>2025-08-06T08:18:07Z</time>
      </trkpt>
      <trkpt lat="45.68168" lon="4.61459">
        <ele>488.6</ele>
        <time>2025-08-06T08:18:08Z</time>
      </trkpt>
      <trkpt lat="45.68169" lon="4.61461">
        <ele>488.6</ele>
        <time>2025-08-06T08:18:09Z</time>
      </trkpt>
      <trkpt lat="45.68171" lon="4.61463">
        <ele>488.6</ele>
        <time>2025-08-06T08:18:10Z</time>
      </trkpt>
      <trkpt lat="45.68172" lon="4.61465">
        <ele>488.8</ele>
        <time>2025-08-06T08:18:11Z</time>
      </trkpt>
      <trkpt lat="45.68174" lon="4.61467">
        <ele>488.8</ele>
        <time>2025-08-06T08:18:12Z</time>
      </trkpt>
      <trkpt lat="45.68175" lon="4.61469">
        <ele>488.8</ele>
        <time>2025-08-06T08:18:13Z</time>
      </trkpt>
      <trkpt lat="45.68178" lon="4.61469">
        <ele>488.6</ele>
        <time>2025-08-06T08:18:14Z</time>
      </trkpt>
      <trkpt lat="45.68182" lon="4.61467">
        <ele>488.4</ele>
        <time>2025-08-06T08:18:15Z</time>
      </trkpt>
      <trkpt lat="45.68186" lon="4.61463">
        <ele>488</ele>
        <time>2025-08-06T08:18:16Z</time>
      </trkpt>
      <trkpt lat="45.6819" lon="4.6146">
        <ele>487.6</ele>
        <time>2025-08-06T08:18:17Z</time>
      </trkpt>
      <trkpt lat="45.68194" lon="4.61457">
        <ele>487</ele>
        <time>2025-08-06T08:18:18Z</time>
      </trkpt>
      <trkpt lat="45.68197" lon="4.61456">
        <ele>486.6</ele>
        <time>2025-08-06T08:18:19Z</time>
      </trkpt>
      <trkpt lat="45.68199" lon="4.61455">
        <ele>486.4</ele>
        <time>2025-08-06T08:18:20Z</time>
      </trkpt>
      <trkpt lat="45.68201" lon="4.61454">
        <ele>486.4</ele>
        <time>2025-08-06T08:18:21Z</time>
      </trkpt>
      <trkpt lat="45.68203" lon="4.61453">
        <ele>486.4</ele>
        <time>2025-08-06T08:18:22Z</time>
      </trkpt>
      <trkpt lat="45.68205" lon="4.61451">
        <ele>486.2</ele>
        <time>2025-08-06T08:18:23Z</time>
      </trkpt>
      <trkpt lat="45.68209" lon="4.61448">
        <ele>486</ele>
        <time>2025-08-06T08:18:24Z</time>
      </trkpt>
      <trkpt lat="45.68213" lon="4.61444">
        <ele>485.6</ele>
        <time>2025-08-06T08:18:25Z</time>
      </trkpt>
      <trkpt lat="45.68217" lon="4.6144">
        <ele>485.2</ele>
        <time>2025-08-06T08:18:26Z</time>
      </trkpt>
      <trkpt lat="45.6822" lon="4.61436">
        <ele>485</ele>
        <time>2025-08-06T08:18:27Z</time>
      </trkpt>
      <trkpt lat="45.68224" lon="4.61432">
        <ele>484.8</ele>
        <time>2025-08-06T08:18:28Z</time>
      </trkpt>
      <trkpt lat="45.68227" lon="4.61429">
        <ele>484.8</ele>
        <time>2025-08-06T08:18:29Z</time>
      </trkpt>
      <trkpt lat="45.68231" lon="4.61425">
        <ele>485.2</ele>
        <time>2025-08-06T08:18:30Z</time>
      </trkpt>
      <trkpt lat="45.68234" lon="4.61421">
        <ele>485.4</ele>
        <time>2025-08-06T08:18:31Z</time>
      </trkpt>
      <trkpt lat="45.68238" lon="4.61416">
        <ele>485.6</ele>
        <time>2025-08-06T08:18:32Z</time>
      </trkpt>
      <trkpt lat="45.68241" lon="4.61412">
        <ele>485.8</ele>
        <time>2025-08-06T08:18:33Z</time>
      </trkpt>
      <trkpt lat="45.68244" lon="4.61407">
        <ele>486</ele>
        <time>2025-08-06T08:18:34Z</time>
      </trkpt>
      <trkpt lat="45.68248" lon="4.61403">
        <ele>486</ele>
        <time>2025-08-06T08:18:35Z</time>
      </trkpt>
      <trkpt lat="45.68251" lon="4.61399">
        <ele>486</ele>
        <time>2025-08-06T08:18:36Z</time>
      </trkpt>
      <trkpt lat="45.68254" lon="4.61394">
        <ele>486</ele>
        <time>2025-08-06T08:18:37Z</time>
      </trkpt>
      <trkpt lat="45.68258" lon="4.6139">
        <ele>486</ele>
        <time>2025-08-06T08:18:38Z</time>
      </trkpt>
      <trkpt lat="45.68261" lon="4.61386">
        <ele>486</ele>
        <time>2025-08-06T08:18:39Z</time>
      </trkpt>
      <trkpt lat="45.68265" lon="4.61381">
        <ele>486</ele>
        <time>2025-08-06T08:18:40Z</time>
      </trkpt>
      <trkpt lat="45.68268" lon="4.61377">
        <ele>486.2</ele>
        <time>2025-08-06T08:18:41Z</time>
      </trkpt>
      <trkpt lat="45.68271" lon="4.61373">
        <ele>486.2</ele>
        <time>2025-08-06T08:18:42Z</time>
      </trkpt>
      <trkpt lat="45.68275" lon="4.61369">
        <ele>486.4</ele>
        <time>2025-08-06T08:18:43Z</time>
      </trkpt>
      <trkpt lat="45.68278" lon="4.61365">
        <ele>486.6</ele>
        <time>2025-08-06T08:18:44Z</time>
      </trkpt>
      <trkpt lat="45.68282" lon="4.6136">
        <ele>486.8</ele>
        <time>2025-08-06T08:18:45Z</time>
      </trkpt>
      <trkpt lat="45.68285" lon="4.61356">
        <ele>487</ele>
        <time>2025-08-06T08:18:46Z</time>
      </trkpt>
      <trkpt lat="45.68289" lon="4.61352">
        <ele>487</ele>
        <time>2025-08-06T08:18:47Z</time>
      </trkpt>
      <trkpt lat="45.68292" lon="4.61348">
        <ele>487.2</ele>
        <time>2025-08-06T08:18:48Z</time>
      </trkpt>
      <trkpt lat="45.68296" lon="4.61343">
        <ele>487.2</ele>
        <time>2025-08-06T08:18:49Z</time>
      </trkpt>
      <trkpt lat="45.68299" lon="4.61338">
        <ele>487.4</ele>
        <time>2025-08-06T08:18:50Z</time>
      </trkpt>
      <trkpt lat="45.68303" lon="4.61334">
        <ele>487.4</ele>
        <time>2025-08-06T08:18:51Z</time>
      </trkpt>
      <trkpt lat="45.68306" lon="4.61329">
        <ele>487.4</ele>
        <time>2025-08-06T08:18:52Z</time>
      </trkpt>
      <trkpt lat="45.68309" lon="4.61324">
        <ele>487.4</ele>
        <time>2025-08-06T08:18:53Z</time>
      </trkpt>
      <trkpt lat="45.68312" lon="4.61319">
        <ele>487.6</ele>
        <time>2025-08-06T08:18:54Z</time>
      </trkpt>
      <trkpt lat="45.68315" lon="4.61315">
        <ele>487.8</ele>
        <time>2025-08-06T08:18:55Z</time>
      </trkpt>
      <trkpt lat="45.68318" lon="4.6131">
        <ele>488</ele>
        <time>2025-08-06T08:18:56Z</time>
      </trkpt>
      <trkpt lat="45.6832" lon="4.61304">
        <ele>488.2</ele>
        <time>2025-08-06T08:18:57Z</time>
      </trkpt>
      <trkpt lat="45.68323" lon="4.61299">
        <ele>488.4</ele>
        <time>2025-08-06T08:18:58Z</time>
      </trkpt>
      <trkpt lat="45.68325" lon="4.61294">
        <ele>488.6</ele>
        <time>2025-08-06T08:18:59Z</time>
      </trkpt>
      <trkpt lat="45.68327" lon="4.61289">
        <ele>488.8</ele>
        <time>2025-08-06T08:19:00Z</time>
      </trkpt>
      <trkpt lat="45.68329" lon="4.61283">
        <ele>489</ele>
        <time>2025-08-06T08:19:01Z</time>
      </trkpt>
      <trkpt lat="45.68331" lon="4.61277">
        <ele>489.4</ele>
        <time>2025-08-06T08:19:02Z</time>
      </trkpt>
      <trkpt lat="45.68333" lon="4.61271">
        <ele>489.8</ele>
        <time>2025-08-06T08:19:03Z</time>
      </trkpt>
      <trkpt lat="45.68334" lon="4.61266">
        <ele>490.2</ele>
        <time>2025-08-06T08:19:04Z</time>
      </trkpt>
      <trkpt lat="45.68336" lon="4.61261">
        <ele>490.6</ele>
        <time>2025-08-06T08:19:05Z</time>
      </trkpt>
      <trkpt lat="45.68337" lon="4.61255">
        <ele>491</ele>
        <time>2025-08-06T08:19:06Z</time>
      </trkpt>
      <trkpt lat="45.68338" lon="4.6125">
        <ele>491.4</ele>
        <time>2025-08-06T08:19:07Z</time>
      </trkpt>
      <trkpt lat="45.68339" lon="4.61244">
        <ele>491.8</ele>
        <time>2025-08-06T08:19:08Z</time>
      </trkpt>
      <trkpt lat="45.6834" lon="4.61239">
        <ele>492</ele>
        <time>2025-08-06T08:19:09Z</time>
      </trkpt>
      <trkpt lat="45.68341" lon="4.61234">
        <ele>492.4</ele>
        <time>2025-08-06T08:19:10Z</time>
      </trkpt>
      <trkpt lat="45.68341" lon="4.61229">
        <ele>492.8</ele>
        <time>2025-08-06T08:19:11Z</time>
      </trkpt>
      <trkpt lat="45.68342" lon="4.61223">
        <ele>493.2</ele>
        <time>2025-08-06T08:19:12Z</time>
      </trkpt>
      <trkpt lat="45.68342" lon="4.61218">
        <ele>493.6</ele>
        <time>2025-08-06T08:19:13Z</time>
      </trkpt>
      <trkpt lat="45.68343" lon="4.61213">
        <ele>494</ele>
        <time>2025-08-06T08:19:14Z</time>
      </trkpt>
      <trkpt lat="45.68344" lon="4.61208">
        <ele>494.2</ele>
        <time>2025-08-06T08:19:15Z</time>
      </trkpt>
      <trkpt lat="45.68345" lon="4.61203">
        <ele>494.8</ele>
        <time>2025-08-06T08:19:16Z</time>
      </trkpt>
      <trkpt lat="45.68346" lon="4.61198">
        <ele>495.2</ele>
        <time>2025-08-06T08:19:17Z</time>
      </trkpt>
      <trkpt lat="45.68347" lon="4.61193">
        <ele>495.6</ele>
        <time>2025-08-06T08:19:18Z</time>
      </trkpt>
      <trkpt lat="45.68348" lon="4.61188">
        <ele>496</ele>
        <time>2025-08-06T08:19:19Z</time>
      </trkpt>
      <trkpt lat="45.6835" lon="4.61184">
        <ele>496.4</ele>
        <time>2025-08-06T08:19:20Z</time>
      </trkpt>
      <trkpt lat="45.68352" lon="4.61179">
        <ele>496.8</ele>
        <time>2025-08-06T08:19:21Z</time>
      </trkpt>
      <trkpt lat="45.68354" lon="4.61175">
        <ele>497</ele>
        <time>2025-08-06T08:19:22Z</time>
      </trkpt>
      <trkpt lat="45.68357" lon="4.61171">
        <ele>497.2</ele>
        <time>2025-08-06T08:19:23Z</time>
      </trkpt>
      <trkpt lat="45.68359" lon="4.61167">
        <ele>497.4</ele>
        <time>2025-08-06T08:19:24Z</time>
      </trkpt>
      <trkpt lat="45.68361" lon="4.61163">
        <ele>497.6</ele>
        <time>2025-08-06T08:19:25Z</time>
      </trkpt>
      <trkpt lat="45.68363" lon="4.61159">
        <ele>497.6</ele>
        <time>2025-08-06T08:19:26Z</time>
      </trkpt>
      <trkpt lat="45.68365" lon="4.61154">
        <ele>497.8</ele>
        <time>2025-08-06T08:19:27Z</time>
      </trkpt>
      <trkpt lat="45.68367" lon="4.6115">
        <ele>497.8</ele>
        <time>2025-08-06T08:19:28Z</time>
      </trkpt>
      <trkpt lat="45.6837" lon="4.61146">
        <ele>498.2</ele>
        <time>2025-08-06T08:19:29Z</time>
      </trkpt>
      <trkpt lat="45.68372" lon="4.61143">
        <ele>498.4</ele>
        <time>2025-08-06T08:19:30Z</time>
      </trkpt>
      <trkpt lat="45.68375" lon="4.61139">
        <ele>498.8</ele>
        <time>2025-08-06T08:19:31Z</time>
      </trkpt>
      <trkpt lat="45.68376" lon="4.61135">
        <ele>499.2</ele>
        <time>2025-08-06T08:19:32Z</time>
      </trkpt>
      <trkpt lat="45.68378" lon="4.61131">
        <ele>499.6</ele>
        <time>2025-08-06T08:19:33Z</time>
      </trkpt>
      <trkpt lat="45.6838" lon="4.61127">
        <ele>500.2</ele>
        <time>2025-08-06T08:19:34Z</time>
      </trkpt>
      <trkpt lat="45.68382" lon="4.61122">
        <ele>500.6</ele>
        <time>2025-08-06T08:19:35Z</time>
      </trkpt>
      <trkpt lat="45.68384" lon="4.61118">
        <ele>501</ele>
        <time>2025-08-06T08:19:36Z</time>
      </trkpt>
      <trkpt lat="45.68385" lon="4.61113">
        <ele>501.4</ele>
        <time>2025-08-06T08:19:37Z</time>
      </trkpt>
      <trkpt lat="45.68387" lon="4.61108">
        <ele>502</ele>
        <time>2025-08-06T08:19:38Z</time>
      </trkpt>
      <trkpt lat="45.68388" lon="4.61104">
        <ele>502.4</ele>
        <time>2025-08-06T08:19:39Z</time>
      </trkpt>
      <trkpt lat="45.6839" lon="4.61099">
        <ele>502.8</ele>
        <time>2025-08-06T08:19:40Z</time>
      </trkpt>
      <trkpt lat="45.68392" lon="4.61094">
        <ele>503.2</ele>
        <time>2025-08-06T08:19:41Z</time>
      </trkpt>
      <trkpt lat="45.68393" lon="4.6109">
        <ele>503.6</ele>
        <time>2025-08-06T08:19:42Z</time>
      </trkpt>
      <trkpt lat="45.68394" lon="4.61086">
        <ele>504</ele>
        <time>2025-08-06T08:19:43Z</time>
      </trkpt>
      <trkpt lat="45.68395" lon="4.61081">
        <ele>504.4</ele>
        <time>2025-08-06T08:19:44Z</time>
      </trkpt>
      <trkpt lat="45.68396" lon="4.61077">
        <ele>504.8</ele>
        <time>2025-08-06T08:19:45Z</time>
      </trkpt>
      <trkpt lat="45.68397" lon="4.61072">
        <ele>505</ele>
        <time>2025-08-06T08:19:46Z</time>
      </trkpt>
      <trkpt lat="45.68397" lon="4.61068">
        <ele>505.2</ele>
        <time>2025-08-06T08:19:47Z</time>
      </trkpt>
      <trkpt lat="45.68398" lon="4.61063">
        <ele>505.4</ele>
        <time>2025-08-06T08:19:48Z</time>
      </trkpt>
      <trkpt lat="45.68398" lon="4.61058">
        <ele>505.6</ele>
        <time>2025-08-06T08:19:49Z</time>
      </trkpt>
      <trkpt lat="45.68398" lon="4.61052">
        <ele>505.8</ele>
        <time>2025-08-06T08:19:50Z</time>
      </trkpt>
      <trkpt lat="45.68398" lon="4.61046">
        <ele>505.8</ele>
        <time>2025-08-06T08:19:51Z</time>
      </trkpt>
      <trkpt lat="45.68398" lon="4.6104">
        <ele>505.8</ele>
        <time>2025-08-06T08:19:52Z</time>
      </trkpt>
      <trkpt lat="45.68398" lon="4.61033">
        <ele>505.6</ele>
        <time>2025-08-06T08:19:53Z</time>
      </trkpt>
      <trkpt lat="45.68398" lon="4.61026">
        <ele>505.6</ele>
        <time>2025-08-06T08:19:54Z</time>
      </trkpt>
      <trkpt lat="45.68397" lon="4.61018">
        <ele>505.6</ele>
        <time>2025-08-06T08:19:55Z</time>
      </trkpt>
      <trkpt lat="45.68397" lon="4.61012">
        <ele>505.4</ele>
        <time>2025-08-06T08:19:56Z</time>
      </trkpt>
      <trkpt lat="45.68397" lon="4.61005">
        <ele>505.4</ele>
        <time>2025-08-06T08:19:57Z</time>
      </trkpt>
      <trkpt lat="45.68396" lon="4.60998">
        <ele>505.2</ele>
        <time>2025-08-06T08:19:58Z</time>
      </trkpt>
      <trkpt lat="45.68396" lon="4.60991">
        <ele>505</ele>
        <time>2025-08-06T08:19:59Z</time>
      </trkpt>
      <trkpt lat="45.68397" lon="4.60984">
        <ele>504.8</ele>
        <time>2025-08-06T08:20:00Z</time>
      </trkpt>
      <trkpt lat="45.68397" lon="4.60977">
        <ele>504.8</ele>
        <time>2025-08-06T08:20:01Z</time>
      </trkpt>
      <trkpt lat="45.68397" lon="4.6097">
        <ele>504.6</ele>
        <time>2025-08-06T08:20:02Z</time>
      </trkpt>
      <trkpt lat="45.68397" lon="4.60963">
        <ele>504.6</ele>
        <time>2025-08-06T08:20:03Z</time>
      </trkpt>
      <trkpt lat="45.68397" lon="4.60956">
        <ele>504.4</ele>
        <time>2025-08-06T08:20:04Z</time>
      </trkpt>
      <trkpt lat="45.68397" lon="4.60948">
        <ele>504.2</ele>
        <time>2025-08-06T08:20:05Z</time>
      </trkpt>
      <trkpt lat="45.68398" lon="4.6094">
        <ele>504</ele>
        <time>2025-08-06T08:20:06Z</time>
      </trkpt>
      <trkpt lat="45.68398" lon="4.60931">
        <ele>503.8</ele>
        <time>2025-08-06T08:20:07Z</time>
      </trkpt>
      <trkpt lat="45.68399" lon="4.60922">
        <ele>503.2</ele>
        <time>2025-08-06T08:20:08Z</time>
      </trkpt>
      <trkpt lat="45.68402" lon="4.60914">
        <ele>502.8</ele>
        <time>2025-08-06T08:20:09Z</time>
      </trkpt>
      <trkpt lat="45.68404" lon="4.60907">
        <ele>502.4</ele>
        <time>2025-08-06T08:20:10Z</time>
      </trkpt>
      <trkpt lat="45.68408" lon="4.609">
        <ele>502.2</ele>
        <time>2025-08-06T08:20:11Z</time>
      </trkpt>
      <trkpt lat="45.68412" lon="4.60894">
        <ele>501.8</ele>
        <time>2025-08-06T08:20:12Z</time>
      </trkpt>
      <trkpt lat="45.68416" lon="4.60889">
        <ele>501.8</ele>
        <time>2025-08-06T08:20:13Z</time>
      </trkpt>
      <trkpt lat="45.6842" lon="4.60885">
        <ele>502</ele>
        <time>2025-08-06T08:20:14Z</time>
      </trkpt>
      <trkpt lat="45.68425" lon="4.60881">
        <ele>502.2</ele>
        <time>2025-08-06T08:20:15Z</time>
      </trkpt>
      <trkpt lat="45.68428" lon="4.60877">
        <ele>502.4</ele>
        <time>2025-08-06T08:20:16Z</time>
      </trkpt>
      <trkpt lat="45.68431" lon="4.60874">
        <ele>502.8</ele>
        <time>2025-08-06T08:20:17Z</time>
      </trkpt>
      <trkpt lat="45.68435" lon="4.60871">
        <ele>503.2</ele>
        <time>2025-08-06T08:20:18Z</time>
      </trkpt>
      <trkpt lat="45.68438" lon="4.60869">
        <ele>503.6</ele>
        <time>2025-08-06T08:20:19Z</time>
      </trkpt>
      <trkpt lat="45.68441" lon="4.60867">
        <ele>504.2</ele>
        <time>2025-08-06T08:20:20Z</time>
      </trkpt>
      <trkpt lat="45.68444" lon="4.60864">
        <ele>504.8</ele>
        <time>2025-08-06T08:20:21Z</time>
      </trkpt>
      <trkpt lat="45.68447" lon="4.60862">
        <ele>505.4</ele>
        <time>2025-08-06T08:20:22Z</time>
      </trkpt>
      <trkpt lat="45.6845" lon="4.60859">
        <ele>505.8</ele>
        <time>2025-08-06T08:20:23Z</time>
      </trkpt>
      <trkpt lat="45.68453" lon="4.60857">
        <ele>506.4</ele>
        <time>2025-08-06T08:20:24Z</time>
      </trkpt>
      <trkpt lat="45.68456" lon="4.60854">
        <ele>506.8</ele>
        <time>2025-08-06T08:20:25Z</time>
      </trkpt>
      <trkpt lat="45.68459" lon="4.60852">
        <ele>507.4</ele>
        <time>2025-08-06T08:20:26Z</time>
      </trkpt>
      <trkpt lat="45.68461" lon="4.60849">
        <ele>507.8</ele>
        <time>2025-08-06T08:20:27Z</time>
      </trkpt>
      <trkpt lat="45.68464" lon="4.60846">
        <ele>508.2</ele>
        <time>2025-08-06T08:20:28Z</time>
      </trkpt>
      <trkpt lat="45.68466" lon="4.60842">
        <ele>508.8</ele>
        <time>2025-08-06T08:20:29Z</time>
      </trkpt>
      <trkpt lat="45.68468" lon="4.60839">
        <ele>509.2</ele>
        <time>2025-08-06T08:20:30Z</time>
      </trkpt>
      <trkpt lat="45.6847" lon="4.60835">
        <ele>509.8</ele>
        <time>2025-08-06T08:20:31Z</time>
      </trkpt>
      <trkpt lat="45.68472" lon="4.60832">
        <ele>510.4</ele>
        <time>2025-08-06T08:20:32Z</time>
      </trkpt>
      <trkpt lat="45.68474" lon="4.60829">
        <ele>510.8</ele>
        <time>2025-08-06T08:20:33Z</time>
      </trkpt>
      <trkpt lat="45.68476" lon="4.60825">
        <ele>511.4</ele>
        <time>2025-08-06T08:20:34Z</time>
      </trkpt>
      <trkpt lat="45.68477" lon="4.60822">
        <ele>512</ele>
        <time>2025-08-06T08:20:35Z</time>
      </trkpt>
      <trkpt lat="45.68478" lon="4.60818">
        <ele>512.4</ele>
        <time>2025-08-06T08:20:36Z</time>
      </trkpt>
      <trkpt lat="45.68479" lon="4.60814">
        <ele>512.8</ele>
        <time>2025-08-06T08:20:37Z</time>
      </trkpt>
      <trkpt lat="45.68481" lon="4.60811">
        <ele>513.2</ele>
        <time>2025-08-06T08:20:38Z</time>
      </trkpt>
      <trkpt lat="45.68482" lon="4.60807">
        <ele>513.6</ele>
        <time>2025-08-06T08:20:39Z</time>
      </trkpt>
      <trkpt lat="45.68483" lon="4.60802">
        <ele>513.8</ele>
        <time>2025-08-06T08:20:40Z</time>
      </trkpt>
      <trkpt lat="45.68484" lon="4.60798">
        <ele>514.2</ele>
        <time>2025-08-06T08:20:41Z</time>
      </trkpt>
      <trkpt lat="45.68484" lon="4.60794">
        <ele>514.6</ele>
        <time>2025-08-06T08:20:42Z</time>
      </trkpt>
      <trkpt lat="45.68484" lon="4.6079">
        <ele>514.8</ele>
        <time>2025-08-06T08:20:43Z</time>
      </trkpt>
      <trkpt lat="45.68484" lon="4.60787">
        <ele>515.2</ele>
        <time>2025-08-06T08:20:44Z</time>
      </trkpt>
      <trkpt lat="45.68484" lon="4.60783">
        <ele>515.6</ele>
        <time>2025-08-06T08:20:45Z</time>
      </trkpt>
      <trkpt lat="45.68484" lon="4.60779">
        <ele>516</ele>
        <time>2025-08-06T08:20:46Z</time>
      </trkpt>
      <trkpt lat="45.68484" lon="4.60775">
        <ele>516.4</ele>
        <time>2025-08-06T08:20:47Z</time>
      </trkpt>
      <trkpt lat="45.68484" lon="4.60771">
        <ele>516.6</ele>
        <time>2025-08-06T08:20:48Z</time>
      </trkpt>
      <trkpt lat="45.68484" lon="4.60767">
        <ele>516.8</ele>
        <time>2025-08-06T08:20:49Z</time>
      </trkpt>
      <trkpt lat="45.68483" lon="4.60762">
        <ele>517</ele>
        <time>2025-08-06T08:20:50Z</time>
      </trkpt>
      <trkpt lat="45.68483" lon="4.60758">
        <ele>517.4</ele>
        <time>2025-08-06T08:20:51Z</time>
      </trkpt>
      <trkpt lat="45.68482" lon="4.60754">
        <ele>517.4</ele>
        <time>2025-08-06T08:20:52Z</time>
      </trkpt>
      <trkpt lat="45.68481" lon="4.60749">
        <ele>517.6</ele>
        <time>2025-08-06T08:20:53Z</time>
      </trkpt>
      <trkpt lat="45.68479" lon="4.60744">
        <ele>517.8</ele>
        <time>2025-08-06T08:20:54Z</time>
      </trkpt>
      <trkpt lat="45.68478" lon="4.6074">
        <ele>517.8</ele>
        <time>2025-08-06T08:20:55Z</time>
      </trkpt>
      <trkpt lat="45.68476" lon="4.60736">
        <ele>518</ele>
        <time>2025-08-06T08:20:56Z</time>
      </trkpt>
      <trkpt lat="45.68475" lon="4.60732">
        <ele>518.4</ele>
        <time>2025-08-06T08:20:57Z</time>
      </trkpt>
      <trkpt lat="45.68473" lon="4.60728">
        <ele>518.6</ele>
        <time>2025-08-06T08:20:58Z</time>
      </trkpt>
      <trkpt lat="45.68471" lon="4.60725">
        <ele>519</ele>
        <time>2025-08-06T08:20:59Z</time>
      </trkpt>
      <trkpt lat="45.68469" lon="4.60721">
        <ele>519.2</ele>
        <time>2025-08-06T08:21:00Z</time>
      </trkpt>
      <trkpt lat="45.68467" lon="4.60717">
        <ele>519.6</ele>
        <time>2025-08-06T08:21:01Z</time>
      </trkpt>
      <trkpt lat="45.68464" lon="4.60714">
        <ele>520</ele>
        <time>2025-08-06T08:21:02Z</time>
      </trkpt>
      <trkpt lat="45.68462" lon="4.60711">
        <ele>520.4</ele>
        <time>2025-08-06T08:21:03Z</time>
      </trkpt>
      <trkpt lat="45.68459" lon="4.60708">
        <ele>520.8</ele>
        <time>2025-08-06T08:21:04Z</time>
      </trkpt>
      <trkpt lat="45.68457" lon="4.60705">
        <ele>521.2</ele>
        <time>2025-08-06T08:21:05Z</time>
      </trkpt>
      <trkpt lat="45.68455" lon="4.60703">
        <ele>521.8</ele>
        <time>2025-08-06T08:21:06Z</time>
      </trkpt>
      <trkpt lat="45.68453" lon="4.60701">
        <ele>522.2</ele>
        <time>2025-08-06T08:21:07Z</time>
      </trkpt>
      <trkpt lat="45.68452" lon="4.60699">
        <ele>522.6</ele>
        <time>2025-08-06T08:21:08Z</time>
      </trkpt>
      <trkpt lat="45.6845" lon="4.60697">
        <ele>523.2</ele>
        <time>2025-08-06T08:21:09Z</time>
      </trkpt>
      <trkpt lat="45.68449" lon="4.60694">
        <ele>523.6</ele>
        <time>2025-08-06T08:21:10Z</time>
      </trkpt>
      <trkpt lat="45.68447" lon="4.60691">
        <ele>524</ele>
        <time>2025-08-06T08:21:11Z</time>
      </trkpt>
      <trkpt lat="45.68446" lon="4.60688">
        <ele>524.4</ele>
        <time>2025-08-06T08:21:12Z</time>
      </trkpt>
      <trkpt lat="45.68445" lon="4.60685">
        <ele>524.8</ele>
        <time>2025-08-06T08:21:13Z</time>
      </trkpt>
      <trkpt lat="45.68444" lon="4.60682">
        <ele>525.2</ele>
        <time>2025-08-06T08:21:14Z</time>
      </trkpt>
      <trkpt lat="45.68444" lon="4.60679">
        <ele>525.6</ele>
        <time>2025-08-06T08:21:15Z</time>
      </trkpt>
      <trkpt lat="45.68444" lon="4.60676">
        <ele>526</ele>
        <time>2025-08-06T08:21:16Z</time>
      </trkpt>
      <trkpt lat="45.68443" lon="4.60672">
        <ele>526.4</ele>
        <time>2025-08-06T08:21:17Z</time>
      </trkpt>
      <trkpt lat="45.68442" lon="4.60669">
        <ele>526.8</ele>
        <time>2025-08-06T08:21:18Z</time>
      </trkpt>
      <trkpt lat="45.68441" lon="4.60665">
        <ele>527.2</ele>
        <time>2025-08-06T08:21:19Z</time>
      </trkpt>
      <trkpt lat="45.68441" lon="4.60661">
        <ele>527.6</ele>
        <time>2025-08-06T08:21:20Z</time>
      </trkpt>
      <trkpt lat="45.68441" lon="4.60657">
        <ele>527.8</ele>
        <time>2025-08-06T08:21:21Z</time>
      </trkpt>
      <trkpt lat="45.68441" lon="4.60653">
        <ele>528</ele>
        <time>2025-08-06T08:21:22Z</time>
      </trkpt>
      <trkpt lat="45.68441" lon="4.60649">
        <ele>528.2</ele>
        <time>2025-08-06T08:21:23Z</time>
      </trkpt>
      <trkpt lat="45.68441" lon="4.60645">
        <ele>528.4</ele>
        <time>2025-08-06T08:21:24Z</time>
      </trkpt>
      <trkpt lat="45.68441" lon="4.60641">
        <ele>528.6</ele>
        <time>2025-08-06T08:21:25Z</time>
      </trkpt>
      <trkpt lat="45.68441" lon="4.60636">
        <ele>528.8</ele>
        <time>2025-08-06T08:21:26Z</time>
      </trkpt>
      <trkpt lat="45.68441" lon="4.60632">
        <ele>528.8</ele>
        <time>2025-08-06T08:21:27Z</time>
      </trkpt>
      <trkpt lat="45.68441" lon="4.60627">
        <ele>529</ele>
        <time>2025-08-06T08:21:28Z</time>
      </trkpt>
      <trkpt lat="45.68441" lon="4.60622">
        <ele>529</ele>
        <time>2025-08-06T08:21:29Z</time>
      </trkpt>
      <trkpt lat="45.68441" lon="4.60618">
        <ele>529</ele>
        <time>2025-08-06T08:21:30Z</time>
      </trkpt>
      <trkpt lat="45.68441" lon="4.60613">
        <ele>529.2</ele>
        <time>2025-08-06T08:21:31Z</time>
      </trkpt>
      <trkpt lat="45.68441" lon="4.60608">
        <ele>529.2</ele>
        <time>2025-08-06T08:21:32Z</time>
      </trkpt>
      <trkpt lat="45.68442" lon="4.60603">
        <ele>529.2</ele>
        <time>2025-08-06T08:21:33Z</time>
      </trkpt>
      <trkpt lat="45.68442" lon="4.60597">
        <ele>529.2</ele>
        <time>2025-08-06T08:21:34Z</time>
      </trkpt>
      <trkpt lat="45.68443" lon="4.60592">
        <ele>529</ele>
        <time>2025-08-06T08:21:35Z</time>
      </trkpt>
      <trkpt lat="45.68443" lon="4.60586">
        <ele>529</ele>
        <time>2025-08-06T08:21:36Z</time>
      </trkpt>
      <trkpt lat="45.68444" lon="4.6058">
        <ele>529</ele>
        <time>2025-08-06T08:21:37Z</time>
      </trkpt>
      <trkpt lat="45.68444" lon="4.60575">
        <ele>529.2</ele>
        <time>2025-08-06T08:21:38Z</time>
      </trkpt>
      <trkpt lat="45.68445" lon="4.60571">
        <ele>529.2</ele>
        <time>2025-08-06T08:21:39Z</time>
      </trkpt>
      <trkpt lat="45.68445" lon="4.60566">
        <ele>529.2</ele>
        <time>2025-08-06T08:21:40Z</time>
      </trkpt>
      <trkpt lat="45.68445" lon="4.60561">
        <ele>529.2</ele>
        <time>2025-08-06T08:21:41Z</time>
      </trkpt>
      <trkpt lat="45.68445" lon="4.60555">
        <ele>529.2</ele>
        <time>2025-08-06T08:21:42Z</time>
      </trkpt>
      <trkpt lat="45.68446" lon="4.6055">
        <ele>529.4</ele>
        <time>2025-08-06T08:21:43Z</time>
      </trkpt>
      <trkpt lat="45.68446" lon="4.60544">
        <ele>529.4</ele>
        <time>2025-08-06T08:21:44Z</time>
      </trkpt>
      <trkpt lat="45.68447" lon="4.60538">
        <ele>529.4</ele>
        <time>2025-08-06T08:21:45Z</time>
      </trkpt>
      <trkpt lat="45.68447" lon="4.60532">
        <ele>529.4</ele>
        <time>2025-08-06T08:21:46Z</time>
      </trkpt>
      <trkpt lat="45.68448" lon="4.60527">
        <ele>529.6</ele>
        <time>2025-08-06T08:21:47Z</time>
      </trkpt>
      <trkpt lat="45.68448" lon="4.60522">
        <ele>529.8</ele>
        <time>2025-08-06T08:21:48Z</time>
      </trkpt>
      <trkpt lat="45.68448" lon="4.60517">
        <ele>530.2</ele>
        <time>2025-08-06T08:21:49Z</time>
      </trkpt>
      <trkpt lat="45.68448" lon="4.60513">
        <ele>530.6</ele>
        <time>2025-08-06T08:21:50Z</time>
      </trkpt>
      <trkpt lat="45.68448" lon="4.6051">
        <ele>531</ele>
        <time>2025-08-06T08:21:51Z</time>
      </trkpt>
      <trkpt lat="45.68447" lon="4.60506">
        <ele>531.4</ele>
        <time>2025-08-06T08:21:52Z</time>
      </trkpt>
      <trkpt lat="45.68446" lon="4.60501">
        <ele>531.8</ele>
        <time>2025-08-06T08:21:53Z</time>
      </trkpt>
      <trkpt lat="45.68445" lon="4.60497">
        <ele>532.2</ele>
        <time>2025-08-06T08:21:54Z</time>
      </trkpt>
      <trkpt lat="45.68445" lon="4.60492">
        <ele>532.6</ele>
        <time>2025-08-06T08:21:55Z</time>
      </trkpt>
      <trkpt lat="45.68444" lon="4.60488">
        <ele>532.8</ele>
        <time>2025-08-06T08:21:56Z</time>
      </trkpt>
      <trkpt lat="45.68443" lon="4.60483">
        <ele>533.2</ele>
        <time>2025-08-06T08:21:57Z</time>
      </trkpt>
      <trkpt lat="45.68442" lon="4.60479">
        <ele>533.4</ele>
        <time>2025-08-06T08:21:58Z</time>
      </trkpt>
      <trkpt lat="45.68442" lon="4.60474">
        <ele>533.8</ele>
        <time>2025-08-06T08:21:59Z</time>
      </trkpt>
      <trkpt lat="45.68441" lon="4.60469">
        <ele>534</ele>
        <time>2025-08-06T08:22:00Z</time>
      </trkpt>
      <trkpt lat="45.6844" lon="4.60464">
        <ele>534.2</ele>
        <time>2025-08-06T08:22:01Z</time>
      </trkpt>
      <trkpt lat="45.68438" lon="4.60459">
        <ele>534.2</ele>
        <time>2025-08-06T08:22:02Z</time>
      </trkpt>
      <trkpt lat="45.68437" lon="4.60454">
        <ele>534.4</ele>
        <time>2025-08-06T08:22:03Z</time>
      </trkpt>
      <trkpt lat="45.68435" lon="4.60448">
        <ele>534.6</ele>
        <time>2025-08-06T08:22:04Z</time>
      </trkpt>
      <trkpt lat="45.68434" lon="4.60443">
        <ele>534.8</ele>
        <time>2025-08-06T08:22:05Z</time>
      </trkpt>
      <trkpt lat="45.68432" lon="4.60438">
        <ele>535</ele>
        <time>2025-08-06T08:22:06Z</time>
      </trkpt>
      <trkpt lat="45.68431" lon="4.60432">
        <ele>535.2</ele>
        <time>2025-08-06T08:22:07Z</time>
      </trkpt>
      <trkpt lat="45.6843" lon="4.60427">
        <ele>535.2</ele>
        <time>2025-08-06T08:22:08Z</time>
      </trkpt>
      <trkpt lat="45.68429" lon="4.60424">
        <ele>535.4</ele>
        <time>2025-08-06T08:22:09Z</time>
      </trkpt>
      <trkpt lat="45.68428" lon="4.60419">
        <ele>535.6</ele>
        <time>2025-08-06T08:22:10Z</time>
      </trkpt>
      <trkpt lat="45.68428" lon="4.60414">
        <ele>535.8</ele>
        <time>2025-08-06T08:22:11Z</time>
      </trkpt>
      <trkpt lat="45.68427" lon="4.6041">
        <ele>535.8</ele>
        <time>2025-08-06T08:22:12Z</time>
      </trkpt>
      <trkpt lat="45.68427" lon="4.60404">
        <ele>535.8</ele>
        <time>2025-08-06T08:22:13Z</time>
      </trkpt>
      <trkpt lat="45.68426" lon="4.604">
        <ele>536</ele>
        <time>2025-08-06T08:22:14Z</time>
      </trkpt>
      <trkpt lat="45.68427" lon="4.60395">
        <ele>535.8</ele>
        <time>2025-08-06T08:22:15Z</time>
      </trkpt>
      <trkpt lat="45.68426" lon="4.60389">
        <ele>535.8</ele>
        <time>2025-08-06T08:22:16Z</time>
      </trkpt>
      <trkpt lat="45.68426" lon="4.60383">
        <ele>535.6</ele>
        <time>2025-08-06T08:22:17Z</time>
      </trkpt>
      <trkpt lat="45.68427" lon="4.60376">
        <ele>535.4</ele>
        <time>2025-08-06T08:22:18Z</time>
      </trkpt>
      <trkpt lat="45.68427" lon="4.60368">
        <ele>535.2</ele>
        <time>2025-08-06T08:22:19Z</time>
      </trkpt>
      <trkpt lat="45.68428" lon="4.6036">
        <ele>535</ele>
        <time>2025-08-06T08:22:20Z</time>
      </trkpt>
      <trkpt lat="45.6843" lon="4.60352">
        <ele>534.6</ele>
        <time>2025-08-06T08:22:21Z</time>
      </trkpt>
      <trkpt lat="45.68431" lon="4.60346">
        <ele>534.4</ele>
        <time>2025-08-06T08:22:22Z</time>
      </trkpt>
      <trkpt lat="45.68434" lon="4.60339">
        <ele>534</ele>
        <time>2025-08-06T08:22:23Z</time>
      </trkpt>
      <trkpt lat="45.68437" lon="4.60332">
        <ele>533.6</ele>
        <time>2025-08-06T08:22:24Z</time>
      </trkpt>
      <trkpt lat="45.6844" lon="4.60327">
        <ele>533.4</ele>
        <time>2025-08-06T08:22:25Z</time>
      </trkpt>
      <trkpt lat="45.68442" lon="4.60324">
        <ele>533.4</ele>
        <time>2025-08-06T08:22:26Z</time>
      </trkpt>
      <trkpt lat="45.68445" lon="4.60322">
        <ele>533.4</ele>
        <time>2025-08-06T08:22:27Z</time>
      </trkpt>
      <trkpt lat="45.6845" lon="4.60319">
        <ele>533.4</ele>
        <time>2025-08-06T08:22:28Z</time>
      </trkpt>
      <trkpt lat="45.68454" lon="4.60318">
        <ele>533.6</ele>
        <time>2025-08-06T08:22:29Z</time>
      </trkpt>
      <trkpt lat="45.68458" lon="4.60317">
        <ele>534</ele>
        <time>2025-08-06T08:22:30Z</time>
      </trkpt>
      <trkpt lat="45.68462" lon="4.60316">
        <ele>534.4</ele>
        <time>2025-08-06T08:22:31Z</time>
      </trkpt>
      <trkpt lat="45.68465" lon="4.60315">
        <ele>534.6</ele>
        <time>2025-08-06T08:22:32Z</time>
      </trkpt>
      <trkpt lat="45.68469" lon="4.60315">
        <ele>535</ele>
        <time>2025-08-06T08:22:33Z</time>
      </trkpt>
      <trkpt lat="45.68473" lon="4.60314">
        <ele>535.4</ele>
        <time>2025-08-06T08:22:34Z</time>
      </trkpt>
      <trkpt lat="45.68476" lon="4.60313">
        <ele>536</ele>
        <time>2025-08-06T08:22:35Z</time>
      </trkpt>
      <trkpt lat="45.6848" lon="4.60312">
        <ele>536.4</ele>
        <time>2025-08-06T08:22:36Z</time>
      </trkpt>
      <trkpt lat="45.68483" lon="4.60312">
        <ele>536.8</ele>
        <time>2025-08-06T08:22:37Z</time>
      </trkpt>
      <trkpt lat="45.68487" lon="4.60311">
        <ele>537.4</ele>
        <time>2025-08-06T08:22:38Z</time>
      </trkpt>
      <trkpt lat="45.6849" lon="4.60311">
        <ele>537.8</ele>
        <time>2025-08-06T08:22:39Z</time>
      </trkpt>
      <trkpt lat="45.68493" lon="4.60311">
        <ele>538.2</ele>
        <time>2025-08-06T08:22:40Z</time>
      </trkpt>
      <trkpt lat="45.68496" lon="4.60311">
        <ele>538.6</ele>
        <time>2025-08-06T08:22:41Z</time>
      </trkpt>
      <trkpt lat="45.68499" lon="4.60311">
        <ele>539</ele>
        <time>2025-08-06T08:22:42Z</time>
      </trkpt>
      <trkpt lat="45.68502" lon="4.6031">
        <ele>539.6</ele>
        <time>2025-08-06T08:22:43Z</time>
      </trkpt>
      <trkpt lat="45.68506" lon="4.60309">
        <ele>540</ele>
        <time>2025-08-06T08:22:44Z</time>
      </trkpt>
      <trkpt lat="45.68509" lon="4.60308">
        <ele>540.4</ele>
        <time>2025-08-06T08:22:45Z</time>
      </trkpt>
      <trkpt lat="45.68512" lon="4.60307">
        <ele>540.8</ele>
        <time>2025-08-06T08:22:46Z</time>
      </trkpt>
      <trkpt lat="45.68515" lon="4.60305">
        <ele>541.2</ele>
        <time>2025-08-06T08:22:47Z</time>
      </trkpt>
      <trkpt lat="45.68518" lon="4.60302">
        <ele>541.4</ele>
        <time>2025-08-06T08:22:48Z</time>
      </trkpt>
      <trkpt lat="45.68521" lon="4.603">
        <ele>541.8</ele>
        <time>2025-08-06T08:22:49Z</time>
      </trkpt>
      <trkpt lat="45.68524" lon="4.60296">
        <ele>542</ele>
        <time>2025-08-06T08:22:50Z</time>
      </trkpt>
      <trkpt lat="45.68526" lon="4.60293">
        <ele>542</ele>
        <time>2025-08-06T08:22:51Z</time>
      </trkpt>
      <trkpt lat="45.68529" lon="4.6029">
        <ele>542.2</ele>
        <time>2025-08-06T08:22:52Z</time>
      </trkpt>
      <trkpt lat="45.68531" lon="4.60287">
        <ele>542.4</ele>
        <time>2025-08-06T08:22:53Z</time>
      </trkpt>
      <trkpt lat="45.68533" lon="4.60283">
        <ele>542.6</ele>
        <time>2025-08-06T08:22:54Z</time>
      </trkpt>
      <trkpt lat="45.68536" lon="4.6028">
        <ele>542.8</ele>
        <time>2025-08-06T08:22:55Z</time>
      </trkpt>
      <trkpt lat="45.68538" lon="4.60276">
        <ele>543</ele>
        <time>2025-08-06T08:22:56Z</time>
      </trkpt>
      <trkpt lat="45.68541" lon="4.60272">
        <ele>543.2</ele>
        <time>2025-08-06T08:22:57Z</time>
      </trkpt>
      <trkpt lat="45.68544" lon="4.60268">
        <ele>543.4</ele>
        <time>2025-08-06T08:22:58Z</time>
      </trkpt>
      <trkpt lat="45.68546" lon="4.60264">
        <ele>543.6</ele>
        <time>2025-08-06T08:22:59Z</time>
      </trkpt>
      <trkpt lat="45.68549" lon="4.6026">
        <ele>543.8</ele>
        <time>2025-08-06T08:23:00Z</time>
      </trkpt>
      <trkpt lat="45.68551" lon="4.60256">
        <ele>543.8</ele>
        <time>2025-08-06T08:23:01Z</time>
      </trkpt>
      <trkpt lat="45.68554" lon="4.60252">
        <ele>543.8</ele>
        <time>2025-08-06T08:23:02Z</time>
      </trkpt>
      <trkpt lat="45.68556" lon="4.60248">
        <ele>543.8</ele>
        <time>2025-08-06T08:23:03Z</time>
      </trkpt>
      <trkpt lat="45.68558" lon="4.60243">
        <ele>543.8</ele>
        <time>2025-08-06T08:23:04Z</time>
      </trkpt>
      <trkpt lat="45.68561" lon="4.60239">
        <ele>543.8</ele>
        <time>2025-08-06T08:23:05Z</time>
      </trkpt>
      <trkpt lat="45.68564" lon="4.60235">
        <ele>543.6</ele>
        <time>2025-08-06T08:23:06Z</time>
      </trkpt>
      <trkpt lat="45.68567" lon="4.6023">
        <ele>543.6</ele>
        <time>2025-08-06T08:23:07Z</time>
      </trkpt>
      <trkpt lat="45.68569" lon="4.60225">
        <ele>543.6</ele>
        <time>2025-08-06T08:23:08Z</time>
      </trkpt>
      <trkpt lat="45.68572" lon="4.60221">
        <ele>543.6</ele>
        <time>2025-08-06T08:23:09Z</time>
      </trkpt>
      <trkpt lat="45.68575" lon="4.60217">
        <ele>543.6</ele>
        <time>2025-08-06T08:23:10Z</time>
      </trkpt>
      <trkpt lat="45.68577" lon="4.60213">
        <ele>543.6</ele>
        <time>2025-08-06T08:23:11Z</time>
      </trkpt>
      <trkpt lat="45.68579" lon="4.60208">
        <ele>543.6</ele>
        <time>2025-08-06T08:23:12Z</time>
      </trkpt>
      <trkpt lat="45.68582" lon="4.60203">
        <ele>543.8</ele>
        <time>2025-08-06T08:23:13Z</time>
      </trkpt>
      <trkpt lat="45.68584" lon="4.60198">
        <ele>543.8</ele>
        <time>2025-08-06T08:23:14Z</time>
      </trkpt>
      <trkpt lat="45.68586" lon="4.60193">
        <ele>543.8</ele>
        <time>2025-08-06T08:23:15Z</time>
      </trkpt>
      <trkpt lat="45.68588" lon="4.60189">
        <ele>543.8</ele>
        <time>2025-08-06T08:23:16Z</time>
      </trkpt>
      <trkpt lat="45.68591" lon="4.60185">
        <ele>544</ele>
        <time>2025-08-06T08:23:17Z</time>
      </trkpt>
      <trkpt lat="45.68593" lon="4.6018">
        <ele>544.2</ele>
        <time>2025-08-06T08:23:18Z</time>
      </trkpt>
      <trkpt lat="45.68594" lon="4.60175">
        <ele>544.4</ele>
        <time>2025-08-06T08:23:19Z</time>
      </trkpt>
      <trkpt lat="45.68596" lon="4.60171">
        <ele>544.6</ele>
        <time>2025-08-06T08:23:20Z</time>
      </trkpt>
      <trkpt lat="45.68598" lon="4.60167">
        <ele>545</ele>
        <time>2025-08-06T08:23:21Z</time>
      </trkpt>
      <trkpt lat="45.686" lon="4.60162">
        <ele>545.2</ele>
        <time>2025-08-06T08:23:22Z</time>
      </trkpt>
      <trkpt lat="45.68602" lon="4.60157">
        <ele>545.4</ele>
        <time>2025-08-06T08:23:23Z</time>
      </trkpt>
      <trkpt lat="45.68603" lon="4.60152">
        <ele>545.6</ele>
        <time>2025-08-06T08:23:24Z</time>
      </trkpt>
      <trkpt lat="45.68605" lon="4.60147">
        <ele>545.6</ele>
        <time>2025-08-06T08:23:25Z</time>
      </trkpt>
      <trkpt lat="45.68607" lon="4.60142">
        <ele>545.8</ele>
        <time>2025-08-06T08:23:26Z</time>
      </trkpt>
      <trkpt lat="45.68609" lon="4.60136">
        <ele>545.8</ele>
        <time>2025-08-06T08:23:27Z</time>
      </trkpt>
      <trkpt lat="45.6861" lon="4.60131">
        <ele>546</ele>
        <time>2025-08-06T08:23:28Z</time>
      </trkpt>
      <trkpt lat="45.68613" lon="4.60126">
        <ele>546</ele>
        <time>2025-08-06T08:23:29Z</time>
      </trkpt>
      <trkpt lat="45.68616" lon="4.6012">
        <ele>546</ele>
        <time>2025-08-06T08:23:30Z</time>
      </trkpt>
      <trkpt lat="45.68618" lon="4.60116">
        <ele>546</ele>
        <time>2025-08-06T08:23:31Z</time>
      </trkpt>
      <trkpt lat="45.68619" lon="4.60111">
        <ele>546.2</ele>
        <time>2025-08-06T08:23:32Z</time>
      </trkpt>
      <trkpt lat="45.68621" lon="4.60106">
        <ele>546.2</ele>
        <time>2025-08-06T08:23:33Z</time>
      </trkpt>
      <trkpt lat="45.68622" lon="4.601">
        <ele>546.4</ele>
        <time>2025-08-06T08:23:34Z</time>
      </trkpt>
      <trkpt lat="45.68623" lon="4.60095">
        <ele>546.6</ele>
        <time>2025-08-06T08:23:35Z</time>
      </trkpt>
      <trkpt lat="45.68625" lon="4.6009">
        <ele>546.6</ele>
        <time>2025-08-06T08:23:36Z</time>
      </trkpt>
      <trkpt lat="45.68627" lon="4.60084">
        <ele>546.8</ele>
        <time>2025-08-06T08:23:37Z</time>
      </trkpt>
      <trkpt lat="45.68628" lon="4.6008">
        <ele>547</ele>
        <time>2025-08-06T08:23:38Z</time>
      </trkpt>
      <trkpt lat="45.6863" lon="4.60075">
        <ele>547.4</ele>
        <time>2025-08-06T08:23:39Z</time>
      </trkpt>
      <trkpt lat="45.68631" lon="4.60071">
        <ele>547.6</ele>
        <time>2025-08-06T08:23:40Z</time>
      </trkpt>
      <trkpt lat="45.68632" lon="4.60068">
        <ele>548</ele>
        <time>2025-08-06T08:23:41Z</time>
      </trkpt>
      <trkpt lat="45.68633" lon="4.60064">
        <ele>548.4</ele>
        <time>2025-08-06T08:23:42Z</time>
      </trkpt>
      <trkpt lat="45.68635" lon="4.6006">
        <ele>548.8</ele>
        <time>2025-08-06T08:23:43Z</time>
      </trkpt>
      <trkpt lat="45.68636" lon="4.60056">
        <ele>549</ele>
        <time>2025-08-06T08:23:44Z</time>
      </trkpt>
      <trkpt lat="45.68638" lon="4.60051">
        <ele>549.2</ele>
        <time>2025-08-06T08:23:45Z</time>
      </trkpt>
      <trkpt lat="45.68639" lon="4.60047">
        <ele>549.6</ele>
        <time>2025-08-06T08:23:46Z</time>
      </trkpt>
      <trkpt lat="45.6864" lon="4.60043">
        <ele>549.6</ele>
        <time>2025-08-06T08:23:47Z</time>
      </trkpt>
      <trkpt lat="45.68642" lon="4.60038">
        <ele>549.8</ele>
        <time>2025-08-06T08:23:48Z</time>
      </trkpt>
      <trkpt lat="45.68643" lon="4.60034">
        <ele>549.8</ele>
        <time>2025-08-06T08:23:49Z</time>
      </trkpt>
      <trkpt lat="45.68645" lon="4.60029">
        <ele>550</ele>
        <time>2025-08-06T08:23:50Z</time>
      </trkpt>
      <trkpt lat="45.68646" lon="4.60024">
        <ele>550</ele>
        <time>2025-08-06T08:23:51Z</time>
      </trkpt>
      <trkpt lat="45.68647" lon="4.6002">
        <ele>550.2</ele>
        <time>2025-08-06T08:23:52Z</time>
      </trkpt>
      <trkpt lat="45.68649" lon="4.60016">
        <ele>550.2</ele>
        <time>2025-08-06T08:23:53Z</time>
      </trkpt>
      <trkpt lat="45.6865" lon="4.60012">
        <ele>550.4</ele>
        <time>2025-08-06T08:23:54Z</time>
      </trkpt>
      <trkpt lat="45.68651" lon="4.60008">
        <ele>550.6</ele>
        <time>2025-08-06T08:23:55Z</time>
      </trkpt>
      <trkpt lat="45.68652" lon="4.60004">
        <ele>550.8</ele>
        <time>2025-08-06T08:23:56Z</time>
      </trkpt>
      <trkpt lat="45.68653" lon="4.6">
        <ele>551</ele>
        <time>2025-08-06T08:23:57Z</time>
      </trkpt>
      <trkpt lat="45.68654" lon="4.59997">
        <ele>551.2</ele>
        <time>2025-08-06T08:23:58Z</time>
      </trkpt>
      <trkpt lat="45.68655" lon="4.59993">
        <ele>551.6</ele>
        <time>2025-08-06T08:23:59Z</time>
      </trkpt>
      <trkpt lat="45.68656" lon="4.5999">
        <ele>551.8</ele>
        <time>2025-08-06T08:24:00Z</time>
      </trkpt>
      <trkpt lat="45.68657" lon="4.59987">
        <ele>552</ele>
        <time>2025-08-06T08:24:01Z</time>
      </trkpt>
      <trkpt lat="45.68657" lon="4.59984">
        <ele>552.2</ele>
        <time>2025-08-06T08:24:02Z</time>
      </trkpt>
      <trkpt lat="45.68658" lon="4.5998">
        <ele>552.4</ele>
        <time>2025-08-06T08:24:03Z</time>
      </trkpt>
      <trkpt lat="45.68659" lon="4.59976">
        <ele>552.8</ele>
        <time>2025-08-06T08:24:04Z</time>
      </trkpt>
      <trkpt lat="45.6866" lon="4.59972">
        <ele>553</ele>
        <time>2025-08-06T08:24:05Z</time>
      </trkpt>
      <trkpt lat="45.68662" lon="4.59969">
        <ele>553.2</ele>
        <time>2025-08-06T08:24:06Z</time>
      </trkpt>
      <trkpt lat="45.68664" lon="4.59965">
        <ele>553.6</ele>
        <time>2025-08-06T08:24:07Z</time>
      </trkpt>
      <trkpt lat="45.68664" lon="4.59962">
        <ele>553.8</ele>
        <time>2025-08-06T08:24:08Z</time>
      </trkpt>
      <trkpt lat="45.68665" lon="4.59958">
        <ele>554</ele>
        <time>2025-08-06T08:24:09Z</time>
      </trkpt>
      <trkpt lat="45.68666" lon="4.59954">
        <ele>554.2</ele>
        <time>2025-08-06T08:24:10Z</time>
      </trkpt>
      <trkpt lat="45.68667" lon="4.5995">
        <ele>554.4</ele>
        <time>2025-08-06T08:24:11Z</time>
      </trkpt>
      <trkpt lat="45.68669" lon="4.59946">
        <ele>554.6</ele>
        <time>2025-08-06T08:24:12Z</time>
      </trkpt>
      <trkpt lat="45.6867" lon="4.59942">
        <ele>554.6</ele>
        <time>2025-08-06T08:24:13Z</time>
      </trkpt>
      <trkpt lat="45.68671" lon="4.59938">
        <ele>554.8</ele>
        <time>2025-08-06T08:24:14Z</time>
      </trkpt>
      <trkpt lat="45.68673" lon="4.59933">
        <ele>555</ele>
        <time>2025-08-06T08:24:15Z</time>
      </trkpt>
      <trkpt lat="45.68675" lon="4.5993">
        <ele>555.2</ele>
        <time>2025-08-06T08:24:16Z</time>
      </trkpt>
      <trkpt lat="45.68676" lon="4.59926">
        <ele>555.4</ele>
        <time>2025-08-06T08:24:17Z</time>
      </trkpt>
      <trkpt lat="45.68678" lon="4.59923">
        <ele>555.6</ele>
        <time>2025-08-06T08:24:18Z</time>
      </trkpt>
      <trkpt lat="45.68679" lon="4.5992">
        <ele>555.8</ele>
        <time>2025-08-06T08:24:19Z</time>
      </trkpt>
      <trkpt lat="45.6868" lon="4.59915">
        <ele>556</ele>
        <time>2025-08-06T08:24:20Z</time>
      </trkpt>
      <trkpt lat="45.68681" lon="4.59911">
        <ele>556.2</ele>
        <time>2025-08-06T08:24:21Z</time>
      </trkpt>
      <trkpt lat="45.68681" lon="4.59908">
        <ele>556.4</ele>
        <time>2025-08-06T08:24:22Z</time>
      </trkpt>
      <trkpt lat="45.68682" lon="4.59904">
        <ele>556.6</ele>
        <time>2025-08-06T08:24:23Z</time>
      </trkpt>
      <trkpt lat="45.68683" lon="4.59901">
        <ele>556.8</ele>
        <time>2025-08-06T08:24:24Z</time>
      </trkpt>
      <trkpt lat="45.68684" lon="4.59898">
        <ele>557.2</ele>
        <time>2025-08-06T08:24:25Z</time>
      </trkpt>
      <trkpt lat="45.68685" lon="4.59895">
        <ele>557.4</ele>
        <time>2025-08-06T08:24:26Z</time>
      </trkpt>
      <trkpt lat="45.68687" lon="4.5989">
        <ele>557.8</ele>
        <time>2025-08-06T08:24:27Z</time>
      </trkpt>
      <trkpt lat="45.68689" lon="4.59886">
        <ele>558</ele>
        <time>2025-08-06T08:24:28Z</time>
      </trkpt>
      <trkpt lat="45.68689" lon="4.59882">
        <ele>558.4</ele>
        <time>2025-08-06T08:24:29Z</time>
      </trkpt>
      <trkpt lat="45.6869" lon="4.59879">
        <ele>558.6</ele>
        <time>2025-08-06T08:24:30Z</time>
      </trkpt>
      <trkpt lat="45.6869" lon="4.59876">
        <ele>559</ele>
        <time>2025-08-06T08:24:31Z</time>
      </trkpt>
      <trkpt lat="45.68692" lon="4.59872">
        <ele>559.2</ele>
        <time>2025-08-06T08:24:32Z</time>
      </trkpt>
      <trkpt lat="45.68692" lon="4.59869">
        <ele>559.6</ele>
        <time>2025-08-06T08:24:33Z</time>
      </trkpt>
      <trkpt lat="45.68693" lon="4.59866">
        <ele>560</ele>
        <time>2025-08-06T08:24:34Z</time>
      </trkpt>
      <trkpt lat="45.68695" lon="4.59861">
        <ele>560.4</ele>
        <time>2025-08-06T08:24:35Z</time>
      </trkpt>
      <trkpt lat="45.68697" lon="4.59857">
        <ele>560.8</ele>
        <time>2025-08-06T08:24:36Z</time>
      </trkpt>
      <trkpt lat="45.68699" lon="4.59854">
        <ele>561.2</ele>
        <time>2025-08-06T08:24:37Z</time>
      </trkpt>
      <trkpt lat="45.687" lon="4.59851">
        <ele>561.6</ele>
        <time>2025-08-06T08:24:38Z</time>
      </trkpt>
      <trkpt lat="45.68701" lon="4.59847">
        <ele>562</ele>
        <time>2025-08-06T08:24:39Z</time>
      </trkpt>
      <trkpt lat="45.68702" lon="4.59844">
        <ele>562.4</ele>
        <time>2025-08-06T08:24:40Z</time>
      </trkpt>
      <trkpt lat="45.68703" lon="4.59839">
        <ele>562.6</ele>
        <time>2025-08-06T08:24:41Z</time>
      </trkpt>
      <trkpt lat="45.68704" lon="4.59835">
        <ele>563</ele>
        <time>2025-08-06T08:24:42Z</time>
      </trkpt>
      <trkpt lat="45.68705" lon="4.59831">
        <ele>563.4</ele>
        <time>2025-08-06T08:24:43Z</time>
      </trkpt>
      <trkpt lat="45.68706" lon="4.59828">
        <ele>563.8</ele>
        <time>2025-08-06T08:24:44Z</time>
      </trkpt>
      <trkpt lat="45.68707" lon="4.59826">
        <ele>564.2</ele>
        <time>2025-08-06T08:24:45Z</time>
      </trkpt>
      <trkpt lat="45.68708" lon="4.59823">
        <ele>564.4</ele>
        <time>2025-08-06T08:24:46Z</time>
      </trkpt>
      <trkpt lat="45.68709" lon="4.59821">
        <ele>564.8</ele>
        <time>2025-08-06T08:24:47Z</time>
      </trkpt>
      <trkpt lat="45.6871" lon="4.59819">
        <ele>565</ele>
        <time>2025-08-06T08:24:48Z</time>
      </trkpt>
      <trkpt lat="45.68711" lon="4.59816">
        <ele>565.4</ele>
        <time>2025-08-06T08:24:49Z</time>
      </trkpt>
      <trkpt lat="45.68713" lon="4.59813">
        <ele>565.8</ele>
        <time>2025-08-06T08:24:50Z</time>
      </trkpt>
      <trkpt lat="45.68714" lon="4.5981">
        <ele>566.2</ele>
        <time>2025-08-06T08:24:51Z</time>
      </trkpt>
      <trkpt lat="45.68716" lon="4.59808">
        <ele>566.6</ele>
        <time>2025-08-06T08:24:52Z</time>
      </trkpt>
      <trkpt lat="45.68717" lon="4.59805">
        <ele>567</ele>
        <time>2025-08-06T08:24:53Z</time>
      </trkpt>
      <trkpt lat="45.68719" lon="4.59803">
        <ele>567.2</ele>
        <time>2025-08-06T08:24:54Z</time>
      </trkpt>
      <trkpt lat="45.68721" lon="4.598">
        <ele>567.6</ele>
        <time>2025-08-06T08:24:55Z</time>
      </trkpt>
      <trkpt lat="45.68723" lon="4.59797">
        <ele>568</ele>
        <time>2025-08-06T08:24:56Z</time>
      </trkpt>
      <trkpt lat="45.68725" lon="4.59794">
        <ele>568.4</ele>
        <time>2025-08-06T08:24:57Z</time>
      </trkpt>
      <trkpt lat="45.68727" lon="4.59792">
        <ele>568.8</ele>
        <time>2025-08-06T08:24:58Z</time>
      </trkpt>
      <trkpt lat="45.68729" lon="4.59789">
        <ele>569</ele>
        <time>2025-08-06T08:24:59Z</time>
      </trkpt>
      <trkpt lat="45.68731" lon="4.59787">
        <ele>569.2</ele>
        <time>2025-08-06T08:25:00Z</time>
      </trkpt>
      <trkpt lat="45.68733" lon="4.59785">
        <ele>569.4</ele>
        <time>2025-08-06T08:25:01Z</time>
      </trkpt>
      <trkpt lat="45.68736" lon="4.59783">
        <ele>569.4</ele>
        <time>2025-08-06T08:25:02Z</time>
      </trkpt>
      <trkpt lat="45.68739" lon="4.59781">
        <ele>569.4</ele>
        <time>2025-08-06T08:25:03Z</time>
      </trkpt>
      <trkpt lat="45.68741" lon="4.5978">
        <ele>569.4</ele>
        <time>2025-08-06T08:25:04Z</time>
      </trkpt>
      <trkpt lat="45.68744" lon="4.59779">
        <ele>569.4</ele>
        <time>2025-08-06T08:25:05Z</time>
      </trkpt>
      <trkpt lat="45.68747" lon="4.59778">
        <ele>569.4</ele>
        <time>2025-08-06T08:25:06Z</time>
      </trkpt>
      <trkpt lat="45.6875" lon="4.59777">
        <ele>569.4</ele>
        <time>2025-08-06T08:25:07Z</time>
      </trkpt>
      <trkpt lat="45.68754" lon="4.59777">
        <ele>569.4</ele>
        <time>2025-08-06T08:25:08Z</time>
      </trkpt>
      <trkpt lat="45.68758" lon="4.59777">
        <ele>569.2</ele>
        <time>2025-08-06T08:25:09Z</time>
      </trkpt>
      <trkpt lat="45.68761" lon="4.59778">
        <ele>569.2</ele>
        <time>2025-08-06T08:25:10Z</time>
      </trkpt>
      <trkpt lat="45.68765" lon="4.5978">
        <ele>569.2</ele>
        <time>2025-08-06T08:25:11Z</time>
      </trkpt>
      <trkpt lat="45.68768" lon="4.59783">
        <ele>569</ele>
        <time>2025-08-06T08:25:12Z</time>
      </trkpt>
      <trkpt lat="45.68771" lon="4.59786">
        <ele>569</ele>
        <time>2025-08-06T08:25:13Z</time>
      </trkpt>
      <trkpt lat="45.68774" lon="4.5979">
        <ele>569</ele>
        <time>2025-08-06T08:25:14Z</time>
      </trkpt>
      <trkpt lat="45.68776" lon="4.59793">
        <ele>568.8</ele>
        <time>2025-08-06T08:25:15Z</time>
      </trkpt>
      <trkpt lat="45.68777" lon="4.59797">
        <ele>568.8</ele>
        <time>2025-08-06T08:25:16Z</time>
      </trkpt>
      <trkpt lat="45.68779" lon="4.59801">
        <ele>568.8</ele>
        <time>2025-08-06T08:25:17Z</time>
      </trkpt>
      <trkpt lat="45.68782" lon="4.59806">
        <ele>568.6</ele>
        <time>2025-08-06T08:25:18Z</time>
      </trkpt>
      <trkpt lat="45.68785" lon="4.5981">
        <ele>568.6</ele>
        <time>2025-08-06T08:25:19Z</time>
      </trkpt>
      <trkpt lat="45.68788" lon="4.59814">
        <ele>568.4</ele>
        <time>2025-08-06T08:25:20Z</time>
      </trkpt>
      <trkpt lat="45.68792" lon="4.59819">
        <ele>568.4</ele>
        <time>2025-08-06T08:25:21Z</time>
      </trkpt>
      <trkpt lat="45.68795" lon="4.59823">
        <ele>568.2</ele>
        <time>2025-08-06T08:25:22Z</time>
      </trkpt>
      <trkpt lat="45.68797" lon="4.59829">
        <ele>568.2</ele>
        <time>2025-08-06T08:25:23Z</time>
      </trkpt>
      <trkpt lat="45.688" lon="4.59834">
        <ele>568.4</ele>
        <time>2025-08-06T08:25:24Z</time>
      </trkpt>
      <trkpt lat="45.68803" lon="4.59838">
        <ele>568.6</ele>
        <time>2025-08-06T08:25:25Z</time>
      </trkpt>
      <trkpt lat="45.68805" lon="4.59842">
        <ele>568.8</ele>
        <time>2025-08-06T08:25:26Z</time>
      </trkpt>
      <trkpt lat="45.68808" lon="4.59845">
        <ele>569</ele>
        <time>2025-08-06T08:25:27Z</time>
      </trkpt>
      <trkpt lat="45.68811" lon="4.59846">
        <ele>569.4</ele>
        <time>2025-08-06T08:25:28Z</time>
      </trkpt>
      <trkpt lat="45.68815" lon="4.59847">
        <ele>569.6</ele>
        <time>2025-08-06T08:25:29Z</time>
      </trkpt>
      <trkpt lat="45.68818" lon="4.59848">
        <ele>570</ele>
        <time>2025-08-06T08:25:30Z</time>
      </trkpt>
      <trkpt lat="45.6882" lon="4.59849">
        <ele>570.4</ele>
        <time>2025-08-06T08:25:31Z</time>
      </trkpt>
      <trkpt lat="45.68823" lon="4.5985">
        <ele>570.8</ele>
        <time>2025-08-06T08:25:32Z</time>
      </trkpt>
      <trkpt lat="45.68826" lon="4.59851">
        <ele>571.4</ele>
        <time>2025-08-06T08:25:33Z</time>
      </trkpt>
      <trkpt lat="45.68829" lon="4.59852">
        <ele>571.8</ele>
        <time>2025-08-06T08:25:34Z</time>
      </trkpt>
      <trkpt lat="45.68832" lon="4.59853">
        <ele>572.4</ele>
        <time>2025-08-06T08:25:35Z</time>
      </trkpt>
      <trkpt lat="45.68835" lon="4.59855">
        <ele>572.8</ele>
        <time>2025-08-06T08:25:36Z</time>
      </trkpt>
      <trkpt lat="45.68837" lon="4.59856">
        <ele>573.2</ele>
        <time>2025-08-06T08:25:37Z</time>
      </trkpt>
      <trkpt lat="45.6884" lon="4.59857">
        <ele>573.6</ele>
        <time>2025-08-06T08:25:38Z</time>
      </trkpt>
      <trkpt lat="45.68844" lon="4.59857">
        <ele>574</ele>
        <time>2025-08-06T08:25:39Z</time>
      </trkpt>
      <trkpt lat="45.68847" lon="4.59856">
        <ele>574.4</ele>
        <time>2025-08-06T08:25:40Z</time>
      </trkpt>
      <trkpt lat="45.6885" lon="4.59856">
        <ele>574.8</ele>
        <time>2025-08-06T08:25:41Z</time>
      </trkpt>
      <trkpt lat="45.68852" lon="4.59855">
        <ele>575.2</ele>
        <time>2025-08-06T08:25:42Z</time>
      </trkpt>
      <trkpt lat="45.68856" lon="4.59855">
        <ele>575.6</ele>
        <time>2025-08-06T08:25:43Z</time>
      </trkpt>
      <trkpt lat="45.68859" lon="4.59853">
        <ele>576</ele>
        <time>2025-08-06T08:25:44Z</time>
      </trkpt>
      <trkpt lat="45.68861" lon="4.59851">
        <ele>576.4</ele>
        <time>2025-08-06T08:25:45Z</time>
      </trkpt>
      <trkpt lat="45.68864" lon="4.59849">
        <ele>576.6</ele>
        <time>2025-08-06T08:25:46Z</time>
      </trkpt>
      <trkpt lat="45.68867" lon="4.59847">
        <ele>577</ele>
        <time>2025-08-06T08:25:47Z</time>
      </trkpt>
      <trkpt lat="45.68869" lon="4.59845">
        <ele>577.2</ele>
        <time>2025-08-06T08:25:48Z</time>
      </trkpt>
      <trkpt lat="45.68872" lon="4.59843">
        <ele>577.4</ele>
        <time>2025-08-06T08:25:49Z</time>
      </trkpt>
      <trkpt lat="45.68874" lon="4.59841">
        <ele>577.6</ele>
        <time>2025-08-06T08:25:50Z</time>
      </trkpt>
      <trkpt lat="45.68877" lon="4.59838">
        <ele>577.8</ele>
        <time>2025-08-06T08:25:51Z</time>
      </trkpt>
      <trkpt lat="45.68879" lon="4.59836">
        <ele>578</ele>
        <time>2025-08-06T08:25:52Z</time>
      </trkpt>
      <trkpt lat="45.68881" lon="4.59834">
        <ele>578.2</ele>
        <time>2025-08-06T08:25:53Z</time>
      </trkpt>
      <trkpt lat="45.68884" lon="4.59832">
        <ele>578.4</ele>
        <time>2025-08-06T08:25:54Z</time>
      </trkpt>
      <trkpt lat="45.68886" lon="4.59829">
        <ele>578.6</ele>
        <time>2025-08-06T08:25:55Z</time>
      </trkpt>
      <trkpt lat="45.68889" lon="4.59827">
        <ele>578.8</ele>
        <time>2025-08-06T08:25:56Z</time>
      </trkpt>
      <trkpt lat="45.68891" lon="4.59825">
        <ele>579</ele>
        <time>2025-08-06T08:25:57Z</time>
      </trkpt>
      <trkpt lat="45.68893" lon="4.59822">
        <ele>579.2</ele>
        <time>2025-08-06T08:25:58Z</time>
      </trkpt>
      <trkpt lat="45.68894" lon="4.59818">
        <ele>579.4</ele>
        <time>2025-08-06T08:25:59Z</time>
      </trkpt>
      <trkpt lat="45.68896" lon="4.59815">
        <ele>579.6</ele>
        <time>2025-08-06T08:26:00Z</time>
      </trkpt>
      <trkpt lat="45.68897" lon="4.59812">
        <ele>579.8</ele>
        <time>2025-08-06T08:26:01Z</time>
      </trkpt>
      <trkpt lat="45.68898" lon="4.59809">
        <ele>580</ele>
        <time>2025-08-06T08:26:02Z</time>
      </trkpt>
      <trkpt lat="45.68899" lon="4.59806">
        <ele>580.2</ele>
        <time>2025-08-06T08:26:03Z</time>
      </trkpt>
      <trkpt lat="45.68899" lon="4.59802">
        <ele>580.4</ele>
        <time>2025-08-06T08:26:04Z</time>
      </trkpt>
      <trkpt lat="45.689" lon="4.59799">
        <ele>580.6</ele>
        <time>2025-08-06T08:26:05Z</time>
      </trkpt>
      <trkpt lat="45.68901" lon="4.59795">
        <ele>580.8</ele>
        <time>2025-08-06T08:26:06Z</time>
      </trkpt>
      <trkpt lat="45.68901" lon="4.5979">
        <ele>581.2</ele>
        <time>2025-08-06T08:26:07Z</time>
      </trkpt>
      <trkpt lat="45.68901" lon="4.59787">
        <ele>581.4</ele>
        <time>2025-08-06T08:26:08Z</time>
      </trkpt>
      <trkpt lat="45.689" lon="4.59785">
        <ele>581.6</ele>
        <time>2025-08-06T08:26:09Z</time>
      </trkpt>
      <trkpt lat="45.689" lon="4.59783">
        <ele>582</ele>
        <time>2025-08-06T08:26:10Z</time>
      </trkpt>
      <trkpt lat="45.689" lon="4.5978">
        <ele>582.4</ele>
        <time>2025-08-06T08:26:11Z</time>
      </trkpt>
      <trkpt lat="45.689" lon="4.59776">
        <ele>582.6</ele>
        <time>2025-08-06T08:26:12Z</time>
      </trkpt>
      <trkpt lat="45.68901" lon="4.59771">
        <ele>583</ele>
        <time>2025-08-06T08:26:13Z</time>
      </trkpt>
      <trkpt lat="45.68901" lon="4.59768">
        <ele>583.2</ele>
        <time>2025-08-06T08:26:14Z</time>
      </trkpt>
      <trkpt lat="45.68901" lon="4.59764">
        <ele>583.6</ele>
        <time>2025-08-06T08:26:15Z</time>
      </trkpt>
      <trkpt lat="45.68901" lon="4.59759">
        <ele>584</ele>
        <time>2025-08-06T08:26:16Z</time>
      </trkpt>
      <trkpt lat="45.68901" lon="4.59755">
        <ele>584.2</ele>
        <time>2025-08-06T08:26:17Z</time>
      </trkpt>
      <trkpt lat="45.68902" lon="4.5975">
        <ele>584.6</ele>
        <time>2025-08-06T08:26:18Z</time>
      </trkpt>
      <trkpt lat="45.68902" lon="4.59747">
        <ele>584.8</ele>
        <time>2025-08-06T08:26:19Z</time>
      </trkpt>
      <trkpt lat="45.68902" lon="4.59743">
        <ele>585</ele>
        <time>2025-08-06T08:26:20Z</time>
      </trkpt>
      <trkpt lat="45.68903" lon="4.5974">
        <ele>585</ele>
        <time>2025-08-06T08:26:21Z</time>
      </trkpt>
      <trkpt lat="45.68903" lon="4.59736">
        <ele>585.2</ele>
        <time>2025-08-06T08:26:22Z</time>
      </trkpt>
      <trkpt lat="45.68902" lon="4.59731">
        <ele>585.4</ele>
        <time>2025-08-06T08:26:23Z</time>
      </trkpt>
      <trkpt lat="45.68902" lon="4.59726">
        <ele>585.6</ele>
        <time>2025-08-06T08:26:24Z</time>
      </trkpt>
      <trkpt lat="45.68902" lon="4.5972">
        <ele>585.8</ele>
        <time>2025-08-06T08:26:25Z</time>
      </trkpt>
      <trkpt lat="45.68902" lon="4.59714">
        <ele>586</ele>
        <time>2025-08-06T08:26:26Z</time>
      </trkpt>
      <trkpt lat="45.68901" lon="4.59708">
        <ele>586.2</ele>
        <time>2025-08-06T08:26:27Z</time>
      </trkpt>
      <trkpt lat="45.689" lon="4.59701">
        <ele>586.4</ele>
        <time>2025-08-06T08:26:28Z</time>
      </trkpt>
      <trkpt lat="45.689" lon="4.59697">
        <ele>586.8</ele>
        <time>2025-08-06T08:26:29Z</time>
      </trkpt>
      <trkpt lat="45.68899" lon="4.59693">
        <ele>587</ele>
        <time>2025-08-06T08:26:30Z</time>
      </trkpt>
      <trkpt lat="45.689" lon="4.59689">
        <ele>587.2</ele>
        <time>2025-08-06T08:26:31Z</time>
      </trkpt>
      <trkpt lat="45.689" lon="4.59684">
        <ele>587.4</ele>
        <time>2025-08-06T08:26:32Z</time>
      </trkpt>
      <trkpt lat="45.689" lon="4.5968">
        <ele>587.6</ele>
        <time>2025-08-06T08:26:33Z</time>
      </trkpt>
      <trkpt lat="45.68901" lon="4.59675">
        <ele>587.8</ele>
        <time>2025-08-06T08:26:34Z</time>
      </trkpt>
      <trkpt lat="45.68901" lon="4.59672">
        <ele>588</ele>
        <time>2025-08-06T08:26:35Z</time>
      </trkpt>
      <trkpt lat="45.68902" lon="4.59668">
        <ele>588</ele>
        <time>2025-08-06T08:26:36Z</time>
      </trkpt>
      <trkpt lat="45.68902" lon="4.59664">
        <ele>588.2</ele>
        <time>2025-08-06T08:26:37Z</time>
      </trkpt>
      <trkpt lat="45.68902" lon="4.59661">
        <ele>588.4</ele>
        <time>2025-08-06T08:26:38Z</time>
      </trkpt>
      <trkpt lat="45.68903" lon="4.59657">
        <ele>588.6</ele>
        <time>2025-08-06T08:26:39Z</time>
      </trkpt>
      <trkpt lat="45.68903" lon="4.59653">
        <ele>588.8</ele>
        <time>2025-08-06T08:26:40Z</time>
      </trkpt>
      <trkpt lat="45.68903" lon="4.5965">
        <ele>589.2</ele>
        <time>2025-08-06T08:26:41Z</time>
      </trkpt>
      <trkpt lat="45.68904" lon="4.59646">
        <ele>589.4</ele>
        <time>2025-08-06T08:26:42Z</time>
      </trkpt>
      <trkpt lat="45.68904" lon="4.59642">
        <ele>589.6</ele>
        <time>2025-08-06T08:26:43Z</time>
      </trkpt>
      <trkpt lat="45.68905" lon="4.59639">
        <ele>589.8</ele>
        <time>2025-08-06T08:26:44Z</time>
      </trkpt>
      <trkpt lat="45.68906" lon="4.59635">
        <ele>590.2</ele>
        <time>2025-08-06T08:26:45Z</time>
      </trkpt>
      <trkpt lat="45.68907" lon="4.59631">
        <ele>590.4</ele>
        <time>2025-08-06T08:26:46Z</time>
      </trkpt>
      <trkpt lat="45.68909" lon="4.59626">
        <ele>590.6</ele>
        <time>2025-08-06T08:26:47Z</time>
      </trkpt>
      <trkpt lat="45.6891" lon="4.59621">
        <ele>590.6</ele>
        <time>2025-08-06T08:26:48Z</time>
      </trkpt>
      <trkpt lat="45.68912" lon="4.59616">
        <ele>590.8</ele>
        <time>2025-08-06T08:26:49Z</time>
      </trkpt>
      <trkpt lat="45.68913" lon="4.59611">
        <ele>590.6</ele>
        <time>2025-08-06T08:26:50Z</time>
      </trkpt>
      <trkpt lat="45.68915" lon="4.59606">
        <ele>590.6</ele>
        <time>2025-08-06T08:26:51Z</time>
      </trkpt>
      <trkpt lat="45.68916" lon="4.59602">
        <ele>590.8</ele>
        <time>2025-08-06T08:26:52Z</time>
      </trkpt>
      <trkpt lat="45.68916" lon="4.59597">
        <ele>590.8</ele>
        <time>2025-08-06T08:26:53Z</time>
      </trkpt>
      <trkpt lat="45.68918" lon="4.59593">
        <ele>591</ele>
        <time>2025-08-06T08:26:54Z</time>
      </trkpt>
      <trkpt lat="45.68919" lon="4.59589">
        <ele>591</ele>
        <time>2025-08-06T08:26:55Z</time>
      </trkpt>
      <trkpt lat="45.6892" lon="4.59585">
        <ele>591.2</ele>
        <time>2025-08-06T08:26:56Z</time>
      </trkpt>
      <trkpt lat="45.68921" lon="4.59581">
        <ele>591.2</ele>
        <time>2025-08-06T08:26:57Z</time>
      </trkpt>
      <trkpt lat="45.68922" lon="4.59577">
        <ele>591.4</ele>
        <time>2025-08-06T08:26:58Z</time>
      </trkpt>
      <trkpt lat="45.68923" lon="4.59572">
        <ele>591.4</ele>
        <time>2025-08-06T08:26:59Z</time>
      </trkpt>
      <trkpt lat="45.68924" lon="4.59569">
        <ele>591.6</ele>
        <time>2025-08-06T08:27:00Z</time>
      </trkpt>
      <trkpt lat="45.68924" lon="4.59565">
        <ele>591.6</ele>
        <time>2025-08-06T08:27:01Z</time>
      </trkpt>
      <trkpt lat="45.68925" lon="4.59562">
        <ele>591.8</ele>
        <time>2025-08-06T08:27:02Z</time>
      </trkpt>
      <trkpt lat="45.68926" lon="4.59558">
        <ele>591.8</ele>
        <time>2025-08-06T08:27:03Z</time>
      </trkpt>
      <trkpt lat="45.68927" lon="4.59554">
        <ele>592</ele>
        <time>2025-08-06T08:27:04Z</time>
      </trkpt>
      <trkpt lat="45.68928" lon="4.5955">
        <ele>592</ele>
        <time>2025-08-06T08:27:05Z</time>
      </trkpt>
      <trkpt lat="45.68929" lon="4.59548">
        <ele>592.2</ele>
        <time>2025-08-06T08:27:06Z</time>
      </trkpt>
      <trkpt lat="45.6893" lon="4.59545">
        <ele>592.4</ele>
        <time>2025-08-06T08:27:07Z</time>
      </trkpt>
      <trkpt lat="45.6893" lon="4.59541">
        <ele>592.6</ele>
        <time>2025-08-06T08:27:08Z</time>
      </trkpt>
      <trkpt lat="45.68931" lon="4.59539">
        <ele>592.8</ele>
        <time>2025-08-06T08:27:09Z</time>
      </trkpt>
      <trkpt lat="45.68932" lon="4.59536">
        <ele>593</ele>
        <time>2025-08-06T08:27:10Z</time>
      </trkpt>
      <trkpt lat="45.68932" lon="4.59533">
        <ele>593.2</ele>
        <time>2025-08-06T08:27:11Z</time>
      </trkpt>
      <trkpt lat="45.68933" lon="4.5953">
        <ele>593.4</ele>
        <time>2025-08-06T08:27:12Z</time>
      </trkpt>
      <trkpt lat="45.68934" lon="4.59527">
        <ele>593.6</ele>
        <time>2025-08-06T08:27:13Z</time>
      </trkpt>
      <trkpt lat="45.68935" lon="4.59524">
        <ele>594</ele>
        <time>2025-08-06T08:27:14Z</time>
      </trkpt>
      <trkpt lat="45.68936" lon="4.59521">
        <ele>594.2</ele>
        <time>2025-08-06T08:27:15Z</time>
      </trkpt>
      <trkpt lat="45.68936" lon="4.59519">
        <ele>594.6</ele>
        <time>2025-08-06T08:27:16Z</time>
      </trkpt>
      <trkpt lat="45.68936" lon="4.59517">
        <ele>594.8</ele>
        <time>2025-08-06T08:27:17Z</time>
      </trkpt>
      <trkpt lat="45.68937" lon="4.59515">
        <ele>595</ele>
        <time>2025-08-06T08:27:18Z</time>
      </trkpt>
      <trkpt lat="45.68938" lon="4.59513">
        <ele>595.4</ele>
        <time>2025-08-06T08:27:19Z</time>
      </trkpt>
      <trkpt lat="45.68938" lon="4.59511">
        <ele>595.6</ele>
        <time>2025-08-06T08:27:20Z</time>
      </trkpt>
      <trkpt lat="45.68938" lon="4.59507">
        <ele>596</ele>
        <time>2025-08-06T08:27:21Z</time>
      </trkpt>
      <trkpt lat="45.68939" lon="4.59504">
        <ele>596.2</ele>
        <time>2025-08-06T08:27:22Z</time>
      </trkpt>
      <trkpt lat="45.6894" lon="4.59501">
        <ele>596.6</ele>
        <time>2025-08-06T08:27:23Z</time>
      </trkpt>
      <trkpt lat="45.6894" lon="4.59498">
        <ele>597</ele>
        <time>2025-08-06T08:27:24Z</time>
      </trkpt>
      <trkpt lat="45.68941" lon="4.59495">
        <ele>597.4</ele>
        <time>2025-08-06T08:27:25Z</time>
      </trkpt>
      <trkpt lat="45.68942" lon="4.59491">
        <ele>597.8</ele>
        <time>2025-08-06T08:27:26Z</time>
      </trkpt>
      <trkpt lat="45.68942" lon="4.59487">
        <ele>598.2</ele>
        <time>2025-08-06T08:27:27Z</time>
      </trkpt>
      <trkpt lat="45.68943" lon="4.59483">
        <ele>598.6</ele>
        <time>2025-08-06T08:27:28Z</time>
      </trkpt>
      <trkpt lat="45.68943" lon="4.5948">
        <ele>599</ele>
        <time>2025-08-06T08:27:29Z</time>
      </trkpt>
      <trkpt lat="45.68943" lon="4.59477">
        <ele>599.4</ele>
        <time>2025-08-06T08:27:30Z</time>
      </trkpt>
      <trkpt lat="45.68944" lon="4.59473">
        <ele>599.8</ele>
        <time>2025-08-06T08:27:31Z</time>
      </trkpt>
      <trkpt lat="45.68945" lon="4.5947">
        <ele>600.2</ele>
        <time>2025-08-06T08:27:32Z</time>
      </trkpt>
      <trkpt lat="45.68945" lon="4.59467">
        <ele>600.8</ele>
        <time>2025-08-06T08:27:33Z</time>
      </trkpt>
      <trkpt lat="45.68946" lon="4.59463">
        <ele>601.2</ele>
        <time>2025-08-06T08:27:34Z</time>
      </trkpt>
      <trkpt lat="45.68945" lon="4.5946">
        <ele>601.6</ele>
        <time>2025-08-06T08:27:35Z</time>
      </trkpt>
      <trkpt lat="45.68945" lon="4.59457">
        <ele>602</ele>
        <time>2025-08-06T08:27:36Z</time>
      </trkpt>
      <trkpt lat="45.68945" lon="4.59455">
        <ele>602.4</ele>
        <time>2025-08-06T08:27:37Z</time>
      </trkpt>
      <trkpt lat="45.68944" lon="4.59452">
        <ele>602.8</ele>
        <time>2025-08-06T08:27:38Z</time>
      </trkpt>
      <trkpt lat="45.68944" lon="4.59449">
        <ele>603.2</ele>
        <time>2025-08-06T08:27:39Z</time>
      </trkpt>
      <trkpt lat="45.68944" lon="4.59447">
        <ele>603.6</ele>
        <time>2025-08-06T08:27:40Z</time>
      </trkpt>
      <trkpt lat="45.68944" lon="4.59444">
        <ele>604</ele>
        <time>2025-08-06T08:27:41Z</time>
      </trkpt>
      <trkpt lat="45.68944" lon="4.59441">
        <ele>604.4</ele>
        <time>2025-08-06T08:27:42Z</time>
      </trkpt>
      <trkpt lat="45.68944" lon="4.59438">
        <ele>604.8</ele>
        <time>2025-08-06T08:27:43Z</time>
      </trkpt>
      <trkpt lat="45.68944" lon="4.59435">
        <ele>605.2</ele>
        <time>2025-08-06T08:27:44Z</time>
      </trkpt>
      <trkpt lat="45.68944" lon="4.59433">
        <ele>605.6</ele>
        <time>2025-08-06T08:27:45Z</time>
      </trkpt>
      <trkpt lat="45.68944" lon="4.5943">
        <ele>606</ele>
        <time>2025-08-06T08:27:46Z</time>
      </trkpt>
      <trkpt lat="45.68944" lon="4.59426">
        <ele>606.2</ele>
        <time>2025-08-06T08:27:47Z</time>
      </trkpt>
      <trkpt lat="45.68945" lon="4.59423">
        <ele>606.6</ele>
        <time>2025-08-06T08:27:48Z</time>
      </trkpt>
      <trkpt lat="45.68945" lon="4.5942">
        <ele>606.8</ele>
        <time>2025-08-06T08:27:49Z</time>
      </trkpt>
      <trkpt lat="45.68946" lon="4.59417">
        <ele>607.2</ele>
        <time>2025-08-06T08:27:50Z</time>
      </trkpt>
      <trkpt lat="45.68946" lon="4.59413">
        <ele>607.4</ele>
        <time>2025-08-06T08:27:51Z</time>
      </trkpt>
      <trkpt lat="45.68947" lon="4.59409">
        <ele>607.6</ele>
        <time>2025-08-06T08:27:52Z</time>
      </trkpt>
      <trkpt lat="45.68947" lon="4.59405">
        <ele>607.6</ele>
        <time>2025-08-06T08:27:53Z</time>
      </trkpt>
      <trkpt lat="45.68947" lon="4.59401">
        <ele>607.8</ele>
        <time>2025-08-06T08:27:54Z</time>
      </trkpt>
      <trkpt lat="45.68947" lon="4.59397">
        <ele>607.8</ele>
        <time>2025-08-06T08:27:55Z</time>
      </trkpt>
      <trkpt lat="45.68948" lon="4.59392">
        <ele>608</ele>
        <time>2025-08-06T08:27:56Z</time>
      </trkpt>
      <trkpt lat="45.68948" lon="4.59387">
        <ele>608</ele>
        <time>2025-08-06T08:27:57Z</time>
      </trkpt>
      <trkpt lat="45.68948" lon="4.59382">
        <ele>608</ele>
        <time>2025-08-06T08:27:58Z</time>
      </trkpt>
      <trkpt lat="45.68948" lon="4.59376">
        <ele>608</ele>
        <time>2025-08-06T08:27:59Z</time>
      </trkpt>
      <trkpt lat="45.68948" lon="4.59372">
        <ele>608</ele>
        <time>2025-08-06T08:28:00Z</time>
      </trkpt>
      <trkpt lat="45.68948" lon="4.59367">
        <ele>608</ele>
        <time>2025-08-06T08:28:01Z</time>
      </trkpt>
      <trkpt lat="45.68947" lon="4.59362">
        <ele>608</ele>
        <time>2025-08-06T08:28:02Z</time>
      </trkpt>
      <trkpt lat="45.68946" lon="4.59358">
        <ele>608</ele>
        <time>2025-08-06T08:28:03Z</time>
      </trkpt>
      <trkpt lat="45.68946" lon="4.59354">
        <ele>608</ele>
        <time>2025-08-06T08:28:04Z</time>
      </trkpt>
      <trkpt lat="45.68946" lon="4.59349">
        <ele>608</ele>
        <time>2025-08-06T08:28:05Z</time>
      </trkpt>
      <trkpt lat="45.68945" lon="4.59345">
        <ele>608</ele>
        <time>2025-08-06T08:28:06Z</time>
      </trkpt>
      <trkpt lat="45.68945" lon="4.59341">
        <ele>608</ele>
        <time>2025-08-06T08:28:07Z</time>
      </trkpt>
      <trkpt lat="45.68944" lon="4.59336">
        <ele>608</ele>
        <time>2025-08-06T08:28:08Z</time>
      </trkpt>
      <trkpt lat="45.68943" lon="4.59331">
        <ele>608</ele>
        <time>2025-08-06T08:28:09Z</time>
      </trkpt>
      <trkpt lat="45.68941" lon="4.59327">
        <ele>607.8</ele>
        <time>2025-08-06T08:28:10Z</time>
      </trkpt>
      <trkpt lat="45.68938" lon="4.59322">
        <ele>607.6</ele>
        <time>2025-08-06T08:28:11Z</time>
      </trkpt>
      <trkpt lat="45.68935" lon="4.59318">
        <ele>607.2</ele>
        <time>2025-08-06T08:28:12Z</time>
      </trkpt>
      <trkpt lat="45.68933" lon="4.59314">
        <ele>607</ele>
        <time>2025-08-06T08:28:13Z</time>
      </trkpt>
      <trkpt lat="45.68931" lon="4.59309">
        <ele>606.6</ele>
        <time>2025-08-06T08:28:14Z</time>
      </trkpt>
      <trkpt lat="45.68927" lon="4.59306">
        <ele>606.4</ele>
        <time>2025-08-06T08:28:15Z</time>
      </trkpt>
      <trkpt lat="45.68924" lon="4.59302">
        <ele>606.2</ele>
        <time>2025-08-06T08:28:16Z</time>
      </trkpt>
      <trkpt lat="45.6892" lon="4.59298">
        <ele>606</ele>
        <time>2025-08-06T08:28:17Z</time>
      </trkpt>
      <trkpt lat="45.68916" lon="4.59295">
        <ele>605.6</ele>
        <time>2025-08-06T08:28:18Z</time>
      </trkpt>
      <trkpt lat="45.68913" lon="4.59292">
        <ele>605.6</ele>
        <time>2025-08-06T08:28:19Z</time>
      </trkpt>
      <trkpt lat="45.68909" lon="4.59289">
        <ele>605.4</ele>
        <time>2025-08-06T08:28:20Z</time>
      </trkpt>
      <trkpt lat="45.68905" lon="4.59286">
        <ele>605.2</ele>
        <time>2025-08-06T08:28:21Z</time>
      </trkpt>
      <trkpt lat="45.68901" lon="4.59284">
        <ele>605</ele>
        <time>2025-08-06T08:28:22Z</time>
      </trkpt>
      <trkpt lat="45.68898" lon="4.59282">
        <ele>605</ele>
        <time>2025-08-06T08:28:23Z</time>
      </trkpt>
      <trkpt lat="45.68893" lon="4.59281">
        <ele>605</ele>
        <time>2025-08-06T08:28:24Z</time>
      </trkpt>
      <trkpt lat="45.68889" lon="4.59279">
        <ele>605</ele>
        <time>2025-08-06T08:28:25Z</time>
      </trkpt>
      <trkpt lat="45.68885" lon="4.59278">
        <ele>605</ele>
        <time>2025-08-06T08:28:26Z</time>
      </trkpt>
      <trkpt lat="45.68882" lon="4.59276">
        <ele>605.2</ele>
        <time>2025-08-06T08:28:27Z</time>
      </trkpt>
      <trkpt lat="45.68878" lon="4.59274">
        <ele>605.2</ele>
        <time>2025-08-06T08:28:28Z</time>
      </trkpt>
      <trkpt lat="45.68874" lon="4.59274">
        <ele>605.2</ele>
        <time>2025-08-06T08:28:29Z</time>
      </trkpt>
      <trkpt lat="45.6887" lon="4.59274">
        <ele>605.2</ele>
        <time>2025-08-06T08:28:30Z</time>
      </trkpt>
      <trkpt lat="45.68867" lon="4.59272">
        <ele>605.2</ele>
        <time>2025-08-06T08:28:31Z</time>
      </trkpt>
      <trkpt lat="45.68863" lon="4.5927">
        <ele>605.4</ele>
        <time>2025-08-06T08:28:32Z</time>
      </trkpt>
      <trkpt lat="45.6886" lon="4.5927">
        <ele>605.4</ele>
        <time>2025-08-06T08:28:33Z</time>
      </trkpt>
      <trkpt lat="45.68856" lon="4.59269">
        <ele>605.6</ele>
        <time>2025-08-06T08:28:34Z</time>
      </trkpt>
      <trkpt lat="45.68853" lon="4.59268">
        <ele>606</ele>
        <time>2025-08-06T08:28:35Z</time>
      </trkpt>
      <trkpt lat="45.6885" lon="4.59268">
        <ele>606.2</ele>
        <time>2025-08-06T08:28:36Z</time>
      </trkpt>
      <trkpt lat="45.68846" lon="4.59269">
        <ele>606.6</ele>
        <time>2025-08-06T08:28:37Z</time>
      </trkpt>
      <trkpt lat="45.68843" lon="4.59268">
        <ele>607</ele>
        <time>2025-08-06T08:28:38Z</time>
      </trkpt>
      <trkpt lat="45.6884" lon="4.59266">
        <ele>607.4</ele>
        <time>2025-08-06T08:28:39Z</time>
      </trkpt>
      <trkpt lat="45.68838" lon="4.59267">
        <ele>607.8</ele>
        <time>2025-08-06T08:28:40Z</time>
      </trkpt>
      <trkpt lat="45.68834" lon="4.59267">
        <ele>608.2</ele>
        <time>2025-08-06T08:28:41Z</time>
      </trkpt>
      <trkpt lat="45.68831" lon="4.59267">
        <ele>608.6</ele>
        <time>2025-08-06T08:28:42Z</time>
      </trkpt>
      <trkpt lat="45.68827" lon="4.59266">
        <ele>609</ele>
        <time>2025-08-06T08:28:43Z</time>
      </trkpt>
      <trkpt lat="45.68823" lon="4.59266">
        <ele>609.4</ele>
        <time>2025-08-06T08:28:44Z</time>
      </trkpt>
      <trkpt lat="45.68819" lon="4.59266">
        <ele>609.8</ele>
        <time>2025-08-06T08:28:45Z</time>
      </trkpt>
      <trkpt lat="45.68816" lon="4.59265">
        <ele>610.2</ele>
        <time>2025-08-06T08:28:46Z</time>
      </trkpt>
      <trkpt lat="45.68812" lon="4.59264">
        <ele>610.6</ele>
        <time>2025-08-06T08:28:47Z</time>
      </trkpt>
      <trkpt lat="45.68808" lon="4.59262">
        <ele>611</ele>
        <time>2025-08-06T08:28:48Z</time>
      </trkpt>
      <trkpt lat="45.68804" lon="4.59261">
        <ele>611.6</ele>
        <time>2025-08-06T08:28:49Z</time>
      </trkpt>
      <trkpt lat="45.68802" lon="4.59258">
        <ele>612</ele>
        <time>2025-08-06T08:28:50Z</time>
      </trkpt>
      <trkpt lat="45.68799" lon="4.59257">
        <ele>612.4</ele>
        <time>2025-08-06T08:28:51Z</time>
      </trkpt>
      <trkpt lat="45.68797" lon="4.59255">
        <ele>612.8</ele>
        <time>2025-08-06T08:28:52Z</time>
      </trkpt>
      <trkpt lat="45.68794" lon="4.59252">
        <ele>613.2</ele>
        <time>2025-08-06T08:28:53Z</time>
      </trkpt>
      <trkpt lat="45.68793" lon="4.59249">
        <ele>613.6</ele>
        <time>2025-08-06T08:28:54Z</time>
      </trkpt>
      <trkpt lat="45.6879" lon="4.59248">
        <ele>614</ele>
        <time>2025-08-06T08:28:55Z</time>
      </trkpt>
      <trkpt lat="45.68788" lon="4.59246">
        <ele>614.4</ele>
        <time>2025-08-06T08:28:56Z</time>
      </trkpt>
      <trkpt lat="45.68786" lon="4.59244">
        <ele>614.8</ele>
        <time>2025-08-06T08:28:57Z</time>
      </trkpt>
      <trkpt lat="45.68785" lon="4.59243">
        <ele>615.2</ele>
        <time>2025-08-06T08:28:58Z</time>
      </trkpt>
      <trkpt lat="45.68783" lon="4.59242">
        <ele>615.6</ele>
        <time>2025-08-06T08:28:59Z</time>
      </trkpt>
      <trkpt lat="45.68781" lon="4.59241">
        <ele>616</ele>
        <time>2025-08-06T08:29:00Z</time>
      </trkpt>
      <trkpt lat="45.68779" lon="4.5924">
        <ele>616.4</ele>
        <time>2025-08-06T08:29:01Z</time>
      </trkpt>
      <trkpt lat="45.68778" lon="4.59239">
        <ele>617</ele>
        <time>2025-08-06T08:29:02Z</time>
      </trkpt>
      <trkpt lat="45.68776" lon="4.59238">
        <ele>617.4</ele>
        <time>2025-08-06T08:29:03Z</time>
      </trkpt>
      <trkpt lat="45.68774" lon="4.59238">
        <ele>617.8</ele>
        <time>2025-08-06T08:29:04Z</time>
      </trkpt>
      <trkpt lat="45.68773" lon="4.59236">
        <ele>618</ele>
        <time>2025-08-06T08:29:05Z</time>
      </trkpt>
      <trkpt lat="45.68772" lon="4.59235">
        <ele>618.4</ele>
        <time>2025-08-06T08:29:06Z</time>
      </trkpt>
      <trkpt lat="45.68769" lon="4.59233">
        <ele>618.8</ele>
        <time>2025-08-06T08:29:07Z</time>
      </trkpt>
      <trkpt lat="45.68767" lon="4.59232">
        <ele>619.2</ele>
        <time>2025-08-06T08:29:08Z</time>
      </trkpt>
      <trkpt lat="45.68765" lon="4.5923">
        <ele>619.6</ele>
        <time>2025-08-06T08:29:09Z</time>
      </trkpt>
      <trkpt lat="45.68764" lon="4.59229">
        <ele>620</ele>
        <time>2025-08-06T08:29:10Z</time>
      </trkpt>
      <trkpt lat="45.68763" lon="4.59227">
        <ele>620.6</ele>
        <time>2025-08-06T08:29:11Z</time>
      </trkpt>
      <trkpt lat="45.68761" lon="4.59225">
        <ele>621</ele>
        <time>2025-08-06T08:29:12Z</time>
      </trkpt>
      <trkpt lat="45.68761" lon="4.59223">
        <ele>621.4</ele>
        <time>2025-08-06T08:29:13Z</time>
      </trkpt>
      <trkpt lat="45.68761" lon="4.59222">
        <ele>621.8</ele>
        <time>2025-08-06T08:29:14Z</time>
      </trkpt>
      <trkpt lat="45.6876" lon="4.59221">
        <ele>622.2</ele>
        <time>2025-08-06T08:29:15Z</time>
      </trkpt>
      <trkpt lat="45.68759" lon="4.5922">
        <ele>622.6</ele>
        <time>2025-08-06T08:29:16Z</time>
      </trkpt>
      <trkpt lat="45.68759" lon="4.59218">
        <ele>622.8</ele>
        <time>2025-08-06T08:29:17Z</time>
      </trkpt>
      <trkpt lat="45.68758" lon="4.59215">
        <ele>623.2</ele>
        <time>2025-08-06T08:29:18Z</time>
      </trkpt>
      <trkpt lat="45.68759" lon="4.59212">
        <ele>623.6</ele>
        <time>2025-08-06T08:29:19Z</time>
      </trkpt>
      <trkpt lat="45.6876" lon="4.59209">
        <ele>624</ele>
        <time>2025-08-06T08:29:20Z</time>
      </trkpt>
      <trkpt lat="45.68761" lon="4.59208">
        <ele>624.4</ele>
        <time>2025-08-06T08:29:21Z</time>
      </trkpt>
      <trkpt lat="45.68762" lon="4.59206">
        <ele>624.8</ele>
        <time>2025-08-06T08:29:22Z</time>
      </trkpt>
      <trkpt lat="45.68763" lon="4.59204">
        <ele>625.2</ele>
        <time>2025-08-06T08:29:23Z</time>
      </trkpt>
      <trkpt lat="45.68765" lon="4.59202">
        <ele>625.6</ele>
        <time>2025-08-06T08:29:24Z</time>
      </trkpt>
      <trkpt lat="45.68766" lon="4.59201">
        <ele>626.2</ele>
        <time>2025-08-06T08:29:25Z</time>
      </trkpt>
      <trkpt lat="45.68767" lon="4.592">
        <ele>626.6</ele>
        <time>2025-08-06T08:29:26Z</time>
      </trkpt>
      <trkpt lat="45.68769" lon="4.59199">
        <ele>627.2</ele>
        <time>2025-08-06T08:29:27Z</time>
      </trkpt>
      <trkpt lat="45.6877" lon="4.59198">
        <ele>627.6</ele>
        <time>2025-08-06T08:29:28Z</time>
      </trkpt>
      <trkpt lat="45.68772" lon="4.59198">
        <ele>628.2</ele>
        <time>2025-08-06T08:29:29Z</time>
      </trkpt>
      <trkpt lat="45.68774" lon="4.59197">
        <ele>628.6</ele>
        <time>2025-08-06T08:29:30Z</time>
      </trkpt>
      <trkpt lat="45.68775" lon="4.59195">
        <ele>629</ele>
        <time>2025-08-06T08:29:31Z</time>
      </trkpt>
      <trkpt lat="45.68777" lon="4.59194">
        <ele>629.4</ele>
        <time>2025-08-06T08:29:32Z</time>
      </trkpt>
      <trkpt lat="45.68779" lon="4.59192">
        <ele>629.6</ele>
        <time>2025-08-06T08:29:33Z</time>
      </trkpt>
      <trkpt lat="45.68782" lon="4.5919">
        <ele>630</ele>
        <time>2025-08-06T08:29:34Z</time>
      </trkpt>
      <trkpt lat="45.68783" lon="4.59188">
        <ele>630.4</ele>
        <time>2025-08-06T08:29:35Z</time>
      </trkpt>
      <trkpt lat="45.68785" lon="4.59186">
        <ele>630.8</ele>
        <time>2025-08-06T08:29:36Z</time>
      </trkpt>
      <trkpt lat="45.68786" lon="4.59184">
        <ele>631.2</ele>
        <time>2025-08-06T08:29:37Z</time>
      </trkpt>
      <trkpt lat="45.68789" lon="4.59182">
        <ele>631.6</ele>
        <time>2025-08-06T08:29:38Z</time>
      </trkpt>
      <trkpt lat="45.68791" lon="4.5918">
        <ele>632</ele>
        <time>2025-08-06T08:29:39Z</time>
      </trkpt>
      <trkpt lat="45.68793" lon="4.59178">
        <ele>632.4</ele>
        <time>2025-08-06T08:29:40Z</time>
      </trkpt>
      <trkpt lat="45.68794" lon="4.59176">
        <ele>632.8</ele>
        <time>2025-08-06T08:29:41Z</time>
      </trkpt>
      <trkpt lat="45.68795" lon="4.59175">
        <ele>633.4</ele>
        <time>2025-08-06T08:29:42Z</time>
      </trkpt>
      <trkpt lat="45.68796" lon="4.59174">
        <ele>633.8</ele>
        <time>2025-08-06T08:29:43Z</time>
      </trkpt>
      <trkpt lat="45.68797" lon="4.59173">
        <ele>634.2</ele>
        <time>2025-08-06T08:29:44Z</time>
      </trkpt>
      <trkpt lat="45.68798" lon="4.59172">
        <ele>634.6</ele>
        <time>2025-08-06T08:29:45Z</time>
      </trkpt>
      <trkpt lat="45.688" lon="4.59171">
        <ele>635</ele>
        <time>2025-08-06T08:29:46Z</time>
      </trkpt>
      <trkpt lat="45.68802" lon="4.59169">
        <ele>635.4</ele>
        <time>2025-08-06T08:29:47Z</time>
      </trkpt>
      <trkpt lat="45.68804" lon="4.59167">
        <ele>635.8</ele>
        <time>2025-08-06T08:29:48Z</time>
      </trkpt>
      <trkpt lat="45.68805" lon="4.59166">
        <ele>636</ele>
        <time>2025-08-06T08:29:49Z</time>
      </trkpt>
      <trkpt lat="45.68807" lon="4.59165">
        <ele>636.4</ele>
        <time>2025-08-06T08:29:50Z</time>
      </trkpt>
      <trkpt lat="45.68809" lon="4.59163">
        <ele>636.6</ele>
        <time>2025-08-06T08:29:51Z</time>
      </trkpt>
      <trkpt lat="45.68811" lon="4.59161">
        <ele>637</ele>
        <time>2025-08-06T08:29:52Z</time>
      </trkpt>
      <trkpt lat="45.68814" lon="4.59159">
        <ele>637.2</ele>
        <time>2025-08-06T08:29:53Z</time>
      </trkpt>
      <trkpt lat="45.68816" lon="4.59157">
        <ele>637.4</ele>
        <time>2025-08-06T08:29:54Z</time>
      </trkpt>
      <trkpt lat="45.68818" lon="4.59155">
        <ele>637.6</ele>
        <time>2025-08-06T08:29:55Z</time>
      </trkpt>
      <trkpt lat="45.6882" lon="4.59152">
        <ele>637.8</ele>
        <time>2025-08-06T08:29:56Z</time>
      </trkpt>
      <trkpt lat="45.68822" lon="4.5915">
        <ele>637.8</ele>
        <time>2025-08-06T08:29:57Z</time>
      </trkpt>
      <trkpt lat="45.68824" lon="4.59148">
        <ele>638</ele>
        <time>2025-08-06T08:29:58Z</time>
      </trkpt>
      <trkpt lat="45.68825" lon="4.59145">
        <ele>638.2</ele>
        <time>2025-08-06T08:29:59Z</time>
      </trkpt>
      <trkpt lat="45.68827" lon="4.59141">
        <ele>638.4</ele>
        <time>2025-08-06T08:30:00Z</time>
      </trkpt>
      <trkpt lat="45.68829" lon="4.59138">
        <ele>638.6</ele>
        <time>2025-08-06T08:30:01Z</time>
      </trkpt>
      <trkpt lat="45.68832" lon="4.59135">
        <ele>638.8</ele>
        <time>2025-08-06T08:30:02Z</time>
      </trkpt>
      <trkpt lat="45.68833" lon="4.59131">
        <ele>639</ele>
        <time>2025-08-06T08:30:03Z</time>
      </trkpt>
      <trkpt lat="45.68834" lon="4.59127">
        <ele>639.2</ele>
        <time>2025-08-06T08:30:04Z</time>
      </trkpt>
      <trkpt lat="45.68835" lon="4.59124">
        <ele>639.4</ele>
        <time>2025-08-06T08:30:05Z</time>
      </trkpt>
      <trkpt lat="45.68836" lon="4.59121">
        <ele>639.8</ele>
        <time>2025-08-06T08:30:06Z</time>
      </trkpt>
      <trkpt lat="45.68837" lon="4.59119">
        <ele>640</ele>
        <time>2025-08-06T08:30:07Z</time>
      </trkpt>
      <trkpt lat="45.68838" lon="4.59116">
        <ele>640.4</ele>
        <time>2025-08-06T08:30:08Z</time>
      </trkpt>
      <trkpt lat="45.68838" lon="4.59114">
        <ele>640.6</ele>
        <time>2025-08-06T08:30:09Z</time>
      </trkpt>
      <trkpt lat="45.68838" lon="4.59113">
        <ele>641</ele>
        <time>2025-08-06T08:30:10Z</time>
      </trkpt>
      <trkpt lat="45.68838" lon="4.5911">
        <ele>641.4</ele>
        <time>2025-08-06T08:30:11Z</time>
      </trkpt>
      <trkpt lat="45.68838" lon="4.59107">
        <ele>641.8</ele>
        <time>2025-08-06T08:30:12Z</time>
      </trkpt>
      <trkpt lat="45.68838" lon="4.59104">
        <ele>642</ele>
        <time>2025-08-06T08:30:13Z</time>
      </trkpt>
      <trkpt lat="45.68838" lon="4.59101">
        <ele>642.4</ele>
        <time>2025-08-06T08:30:14Z</time>
      </trkpt>
      <trkpt lat="45.68837" lon="4.59098">
        <ele>642.6</ele>
        <time>2025-08-06T08:30:15Z</time>
      </trkpt>
      <trkpt lat="45.68837" lon="4.59096">
        <ele>643</ele>
        <time>2025-08-06T08:30:16Z</time>
      </trkpt>
      <trkpt lat="45.68836" lon="4.59094">
        <ele>643.2</ele>
        <time>2025-08-06T08:30:17Z</time>
      </trkpt>
      <trkpt lat="45.68836" lon="4.59091">
        <ele>643.6</ele>
        <time>2025-08-06T08:30:18Z</time>
      </trkpt>
      <trkpt lat="45.68836" lon="4.59088">
        <ele>644</ele>
        <time>2025-08-06T08:30:19Z</time>
      </trkpt>
      <trkpt lat="45.68836" lon="4.59085">
        <ele>644.4</ele>
        <time>2025-08-06T08:30:20Z</time>
      </trkpt>
      <trkpt lat="45.68836" lon="4.59082">
        <ele>644.8</ele>
        <time>2025-08-06T08:30:21Z</time>
      </trkpt>
      <trkpt lat="45.68835" lon="4.59081">
        <ele>645.2</ele>
        <time>2025-08-06T08:30:22Z</time>
      </trkpt>
      <trkpt lat="45.68835" lon="4.59078">
        <ele>645.8</ele>
        <time>2025-08-06T08:30:23Z</time>
      </trkpt>
      <trkpt lat="45.68835" lon="4.59075">
        <ele>646.2</ele>
        <time>2025-08-06T08:30:24Z</time>
      </trkpt>
      <trkpt lat="45.68835" lon="4.59071">
        <ele>646.4</ele>
        <time>2025-08-06T08:30:25Z</time>
      </trkpt>
      <trkpt lat="45.68835" lon="4.59068">
        <ele>646.8</ele>
        <time>2025-08-06T08:30:26Z</time>
      </trkpt>
      <trkpt lat="45.68835" lon="4.59065">
        <ele>647.2</ele>
        <time>2025-08-06T08:30:27Z</time>
      </trkpt>
      <trkpt lat="45.68835" lon="4.59062">
        <ele>647.6</ele>
        <time>2025-08-06T08:30:28Z</time>
      </trkpt>
      <trkpt lat="45.68836" lon="4.59058">
        <ele>647.8</ele>
        <time>2025-08-06T08:30:29Z</time>
      </trkpt>
      <trkpt lat="45.68836" lon="4.59054">
        <ele>648.2</ele>
        <time>2025-08-06T08:30:30Z</time>
      </trkpt>
      <trkpt lat="45.68837" lon="4.5905">
        <ele>648.4</ele>
        <time>2025-08-06T08:30:31Z</time>
      </trkpt>
      <trkpt lat="45.68836" lon="4.59047">
        <ele>648.8</ele>
        <time>2025-08-06T08:30:32Z</time>
      </trkpt>
      <trkpt lat="45.68836" lon="4.59045">
        <ele>649</ele>
        <time>2025-08-06T08:30:33Z</time>
      </trkpt>
      <trkpt lat="45.68836" lon="4.59041">
        <ele>649.4</ele>
        <time>2025-08-06T08:30:34Z</time>
      </trkpt>
      <trkpt lat="45.68837" lon="4.59037">
        <ele>649.8</ele>
        <time>2025-08-06T08:30:35Z</time>
      </trkpt>
      <trkpt lat="45.68837" lon="4.59034">
        <ele>650.2</ele>
        <time>2025-08-06T08:30:36Z</time>
      </trkpt>
      <trkpt lat="45.68838" lon="4.5903">
        <ele>650.6</ele>
        <time>2025-08-06T08:30:37Z</time>
      </trkpt>
      <trkpt lat="45.68837" lon="4.59026">
        <ele>651</ele>
        <time>2025-08-06T08:30:38Z</time>
      </trkpt>
      <trkpt lat="45.68837" lon="4.59023">
        <ele>651.4</ele>
        <time>2025-08-06T08:30:39Z</time>
      </trkpt>
      <trkpt lat="45.68837" lon="4.5902">
        <ele>651.8</ele>
        <time>2025-08-06T08:30:40Z</time>
      </trkpt>
      <trkpt lat="45.68837" lon="4.59017">
        <ele>652.2</ele>
        <time>2025-08-06T08:30:41Z</time>
      </trkpt>
      <trkpt lat="45.68837" lon="4.59015">
        <ele>652.6</ele>
        <time>2025-08-06T08:30:42Z</time>
      </trkpt>
      <trkpt lat="45.68838" lon="4.59012">
        <ele>653</ele>
        <time>2025-08-06T08:30:43Z</time>
      </trkpt>
      <trkpt lat="45.68838" lon="4.59009">
        <ele>653.4</ele>
        <time>2025-08-06T08:30:44Z</time>
      </trkpt>
      <trkpt lat="45.68839" lon="4.59006">
        <ele>653.8</ele>
        <time>2025-08-06T08:30:45Z</time>
      </trkpt>
      <trkpt lat="45.68839" lon="4.59">
        <ele>654.2</ele>
        <time>2025-08-06T08:30:46Z</time>
      </trkpt>
      <trkpt lat="45.68839" lon="4.58995">
        <ele>654.6</ele>
        <time>2025-08-06T08:30:47Z</time>
      </trkpt>
      <trkpt lat="45.68839" lon="4.58992">
        <ele>655</ele>
        <time>2025-08-06T08:30:48Z</time>
      </trkpt>
      <trkpt lat="45.68838" lon="4.58989">
        <ele>655.4</ele>
        <time>2025-08-06T08:30:49Z</time>
      </trkpt>
      <trkpt lat="45.68839" lon="4.58986">
        <ele>655.8</ele>
        <time>2025-08-06T08:30:50Z</time>
      </trkpt>
      <trkpt lat="45.68839" lon="4.58981">
        <ele>656.2</ele>
        <time>2025-08-06T08:30:51Z</time>
      </trkpt>
      <trkpt lat="45.6884" lon="4.58979">
        <ele>656.6</ele>
        <time>2025-08-06T08:30:52Z</time>
      </trkpt>
      <trkpt lat="45.68838" lon="4.58976">
        <ele>657</ele>
        <time>2025-08-06T08:30:53Z</time>
      </trkpt>
      <trkpt lat="45.68836" lon="4.58973">
        <ele>657.6</ele>
        <time>2025-08-06T08:30:54Z</time>
      </trkpt>
      <trkpt lat="45.68835" lon="4.58969">
        <ele>658</ele>
        <time>2025-08-06T08:30:55Z</time>
      </trkpt>
      <trkpt lat="45.68836" lon="4.58966">
        <ele>658.6</ele>
        <time>2025-08-06T08:30:56Z</time>
      </trkpt>
      <trkpt lat="45.68837" lon="4.58963">
        <ele>659</ele>
        <time>2025-08-06T08:30:57Z</time>
      </trkpt>
      <trkpt lat="45.68839" lon="4.58961">
        <ele>659.4</ele>
        <time>2025-08-06T08:30:58Z</time>
      </trkpt>
      <trkpt lat="45.6884" lon="4.58956">
        <ele>660</ele>
        <time>2025-08-06T08:30:59Z</time>
      </trkpt>
      <trkpt lat="45.68839" lon="4.58954">
        <ele>660.4</ele>
        <time>2025-08-06T08:31:00Z</time>
      </trkpt>
      <trkpt lat="45.68838" lon="4.58952">
        <ele>661</ele>
        <time>2025-08-06T08:31:01Z</time>
      </trkpt>
      <trkpt lat="45.68838" lon="4.5895">
        <ele>661.4</ele>
        <time>2025-08-06T08:31:02Z</time>
      </trkpt>
      <trkpt lat="45.68837" lon="4.58947">
        <ele>662</ele>
        <time>2025-08-06T08:31:03Z</time>
      </trkpt>
      <trkpt lat="45.68837" lon="4.58945">
        <ele>662.4</ele>
        <time>2025-08-06T08:31:04Z</time>
      </trkpt>
      <trkpt lat="45.68835" lon="4.58942">
        <ele>662.6</ele>
        <time>2025-08-06T08:31:05Z</time>
      </trkpt>
      <trkpt lat="45.68835" lon="4.58939">
        <ele>663</ele>
        <time>2025-08-06T08:31:06Z</time>
      </trkpt>
      <trkpt lat="45.68835" lon="4.58936">
        <ele>663.4</ele>
        <time>2025-08-06T08:31:07Z</time>
      </trkpt>
      <trkpt lat="45.68834" lon="4.58933">
        <ele>663.8</ele>
        <time>2025-08-06T08:31:08Z</time>
      </trkpt>
      <trkpt lat="45.68833" lon="4.58931">
        <ele>664.2</ele>
        <time>2025-08-06T08:31:09Z</time>
      </trkpt>
      <trkpt lat="45.68831" lon="4.58927">
        <ele>664.6</ele>
        <time>2025-08-06T08:31:10Z</time>
      </trkpt>
      <trkpt lat="45.6883" lon="4.58925">
        <ele>664.8</ele>
        <time>2025-08-06T08:31:11Z</time>
      </trkpt>
      <trkpt lat="45.6883" lon="4.58923">
        <ele>665.2</ele>
        <time>2025-08-06T08:31:12Z</time>
      </trkpt>
      <trkpt lat="45.68829" lon="4.5892">
        <ele>665.4</ele>
        <time>2025-08-06T08:31:13Z</time>
      </trkpt>
      <trkpt lat="45.68826" lon="4.58917">
        <ele>665.8</ele>
        <time>2025-08-06T08:31:14Z</time>
      </trkpt>
      <trkpt lat="45.68825" lon="4.58914">
        <ele>666</ele>
        <time>2025-08-06T08:31:15Z</time>
      </trkpt>
      <trkpt lat="45.68825" lon="4.5891">
        <ele>666.2</ele>
        <time>2025-08-06T08:31:16Z</time>
      </trkpt>
      <trkpt lat="45.68824" lon="4.58907">
        <ele>666.4</ele>
        <time>2025-08-06T08:31:17Z</time>
      </trkpt>
      <trkpt lat="45.68823" lon="4.58903">
        <ele>666.6</ele>
        <time>2025-08-06T08:31:18Z</time>
      </trkpt>
      <trkpt lat="45.68822" lon="4.58899">
        <ele>666.8</ele>
        <time>2025-08-06T08:31:19Z</time>
      </trkpt>
      <trkpt lat="45.68821" lon="4.58895">
        <ele>666.8</ele>
        <time>2025-08-06T08:31:20Z</time>
      </trkpt>
      <trkpt lat="45.68819" lon="4.58893">
        <ele>667</ele>
        <time>2025-08-06T08:31:21Z</time>
      </trkpt>
      <trkpt lat="45.68818" lon="4.5889">
        <ele>667.2</ele>
        <time>2025-08-06T08:31:22Z</time>
      </trkpt>
      <trkpt lat="45.68818" lon="4.58888">
        <ele>667.4</ele>
        <time>2025-08-06T08:31:23Z</time>
      </trkpt>
      <trkpt lat="45.68817" lon="4.58885">
        <ele>667.8</ele>
        <time>2025-08-06T08:31:24Z</time>
      </trkpt>
      <trkpt lat="45.68816" lon="4.58884">
        <ele>668</ele>
        <time>2025-08-06T08:31:25Z</time>
      </trkpt>
      <trkpt lat="45.68814" lon="4.58883">
        <ele>668.4</ele>
        <time>2025-08-06T08:31:26Z</time>
      </trkpt>
      <trkpt lat="45.68811" lon="4.58882">
        <ele>668.6</ele>
        <time>2025-08-06T08:31:27Z</time>
      </trkpt>
      <trkpt lat="45.6881" lon="4.58881">
        <ele>669</ele>
        <time>2025-08-06T08:31:28Z</time>
      </trkpt>
      <trkpt lat="45.68809" lon="4.58879">
        <ele>669.2</ele>
        <time>2025-08-06T08:31:29Z</time>
      </trkpt>
      <trkpt lat="45.68808" lon="4.58876">
        <ele>669.6</ele>
        <time>2025-08-06T08:31:30Z</time>
      </trkpt>
      <trkpt lat="45.68806" lon="4.58873">
        <ele>669.8</ele>
        <time>2025-08-06T08:31:31Z</time>
      </trkpt>
      <trkpt lat="45.68804" lon="4.58871">
        <ele>670</ele>
        <time>2025-08-06T08:31:32Z</time>
      </trkpt>
      <trkpt lat="45.68803" lon="4.58868">
        <ele>670.4</ele>
        <time>2025-08-06T08:31:33Z</time>
      </trkpt>
      <trkpt lat="45.68803" lon="4.58866">
        <ele>670.6</ele>
        <time>2025-08-06T08:31:34Z</time>
      </trkpt>
      <trkpt lat="45.68801" lon="4.58864">
        <ele>670.8</ele>
        <time>2025-08-06T08:31:35Z</time>
      </trkpt>
      <trkpt lat="45.688" lon="4.58862">
        <ele>671.2</ele>
        <time>2025-08-06T08:31:36Z</time>
      </trkpt>
      <trkpt lat="45.68799" lon="4.5886">
        <ele>671.4</ele>
        <time>2025-08-06T08:31:37Z</time>
      </trkpt>
      <trkpt lat="45.68798" lon="4.58858">
        <ele>671.6</ele>
        <time>2025-08-06T08:31:38Z</time>
      </trkpt>
      <trkpt lat="45.68796" lon="4.58855">
        <ele>672</ele>
        <time>2025-08-06T08:31:39Z</time>
      </trkpt>
      <trkpt lat="45.68794" lon="4.58853">
        <ele>672.4</ele>
        <time>2025-08-06T08:31:40Z</time>
      </trkpt>
      <trkpt lat="45.68793" lon="4.58851">
        <ele>672.6</ele>
        <time>2025-08-06T08:31:41Z</time>
      </trkpt>
      <trkpt lat="45.68792" lon="4.58851">
        <ele>673</ele>
        <time>2025-08-06T08:31:42Z</time>
      </trkpt>
      <trkpt lat="45.68792" lon="4.58851">
        <ele>673.2</ele>
        <time>2025-08-06T08:31:43Z</time>
      </trkpt>
      <trkpt lat="45.68794" lon="4.58843">
        <ele>673.6</ele>
        <time>2025-08-06T08:32:30Z</time>
      </trkpt>
      <trkpt lat="45.68794" lon="4.58839">
        <ele>673.2</ele>
        <time>2025-08-06T08:32:31Z</time>
      </trkpt>
      <trkpt lat="45.68794" lon="4.58834">
        <ele>672.8</ele>
        <time>2025-08-06T08:32:32Z</time>
      </trkpt>
      <trkpt lat="45.68793" lon="4.5883">
        <ele>672.4</ele>
        <time>2025-08-06T08:32:33Z</time>
      </trkpt>
      <trkpt lat="45.68793" lon="4.58826">
        <ele>672</ele>
        <time>2025-08-06T08:32:34Z</time>
      </trkpt>
      <trkpt lat="45.68793" lon="4.58823">
        <ele>671.8</ele>
        <time>2025-08-06T08:32:35Z</time>
      </trkpt>
      <trkpt lat="45.68794" lon="4.5882">
        <ele>671.6</ele>
        <time>2025-08-06T08:32:36Z</time>
      </trkpt>
      <trkpt lat="45.68794" lon="4.58815">
        <ele>671.2</ele>
        <time>2025-08-06T08:32:37Z</time>
      </trkpt>
      <trkpt lat="45.68794" lon="4.58812">
        <ele>671.2</ele>
        <time>2025-08-06T08:32:38Z</time>
      </trkpt>
      <trkpt lat="45.68793" lon="4.58809">
        <ele>670.8</ele>
        <time>2025-08-06T08:32:39Z</time>
      </trkpt>
      <trkpt lat="45.6879" lon="4.58807">
        <ele>670.6</ele>
        <time>2025-08-06T08:32:40Z</time>
      </trkpt>
      <trkpt lat="45.68787" lon="4.58805">
        <ele>670.2</ele>
        <time>2025-08-06T08:32:41Z</time>
      </trkpt>
      <trkpt lat="45.68784" lon="4.58804">
        <ele>669.8</ele>
        <time>2025-08-06T08:32:42Z</time>
      </trkpt>
      <trkpt lat="45.68782" lon="4.58803">
        <ele>669.4</ele>
        <time>2025-08-06T08:32:43Z</time>
      </trkpt>
      <trkpt lat="45.6878" lon="4.58802">
        <ele>669.2</ele>
        <time>2025-08-06T08:32:44Z</time>
      </trkpt>
      <trkpt lat="45.6878" lon="4.58802">
        <ele>669</ele>
        <time>2025-08-06T08:32:45Z</time>
      </trkpt>
      <trkpt lat="45.6878" lon="4.58802">
        <ele>668.8</ele>
        <time>2025-08-06T08:32:46Z</time>
      </trkpt>
      <trkpt lat="45.68776" lon="4.58798">
        <ele>668.8</ele>
        <time>2025-08-06T08:32:51Z</time>
      </trkpt>
      <trkpt lat="45.68776" lon="4.58798">
        <ele>668.6</ele>
        <time>2025-08-06T08:32:52Z</time>
      </trkpt>
      <trkpt lat="45.68776" lon="4.58798">
        <ele>668.6</ele>
        <time>2025-08-06T08:32:53Z</time>
      </trkpt>
      <trkpt lat="45.68771" lon="4.58794">
        <ele>668.6</ele>
        <time>2025-08-06T08:32:58Z</time>
      </trkpt>
      <trkpt lat="45.68768" lon="4.58791">
        <ele>668.6</ele>
        <time>2025-08-06T08:32:59Z</time>
      </trkpt>
      <trkpt lat="45.68765" lon="4.58787">
        <ele>668.4</ele>
        <time>2025-08-06T08:33:00Z</time>
      </trkpt>
      <trkpt lat="45.68764" lon="4.58782">
        <ele>668.4</ele>
        <time>2025-08-06T08:33:01Z</time>
      </trkpt>
      <trkpt lat="45.68761" lon="4.58776">
        <ele>668.2</ele>
        <time>2025-08-06T08:33:02Z</time>
      </trkpt>
      <trkpt lat="45.68758" lon="4.5877">
        <ele>668.2</ele>
        <time>2025-08-06T08:33:03Z</time>
      </trkpt>
      <trkpt lat="45.68757" lon="4.58764">
        <ele>668</ele>
        <time>2025-08-06T08:33:04Z</time>
      </trkpt>
      <trkpt lat="45.68757" lon="4.58759">
        <ele>668</ele>
        <time>2025-08-06T08:33:05Z</time>
      </trkpt>
      <trkpt lat="45.68757" lon="4.58755">
        <ele>668</ele>
        <time>2025-08-06T08:33:06Z</time>
      </trkpt>
      <trkpt lat="45.68757" lon="4.58751">
        <ele>668</ele>
        <time>2025-08-06T08:33:07Z</time>
      </trkpt>
      <trkpt lat="45.68758" lon="4.58746">
        <ele>668.2</ele>
        <time>2025-08-06T08:33:08Z</time>
      </trkpt>
      <trkpt lat="45.68757" lon="4.58741">
        <ele>668.4</ele>
        <time>2025-08-06T08:33:09Z</time>
      </trkpt>
      <trkpt lat="45.68756" lon="4.58737">
        <ele>668.6</ele>
        <time>2025-08-06T08:33:10Z</time>
      </trkpt>
      <trkpt lat="45.68756" lon="4.58734">
        <ele>668.8</ele>
        <time>2025-08-06T08:33:11Z</time>
      </trkpt>
      <trkpt lat="45.68757" lon="4.58729">
        <ele>668.8</ele>
        <time>2025-08-06T08:33:12Z</time>
      </trkpt>
      <trkpt lat="45.68759" lon="4.58725">
        <ele>668.8</ele>
        <time>2025-08-06T08:33:13Z</time>
      </trkpt>
      <trkpt lat="45.6876" lon="4.58722">
        <ele>669</ele>
        <time>2025-08-06T08:33:14Z</time>
      </trkpt>
      <trkpt lat="45.68761" lon="4.58721">
        <ele>669</ele>
        <time>2025-08-06T08:33:15Z</time>
      </trkpt>
      <trkpt lat="45.68761" lon="4.58722">
        <ele>669.2</ele>
        <time>2025-08-06T08:33:16Z</time>
      </trkpt>
      <trkpt lat="45.68761" lon="4.58723">
        <ele>669.6</ele>
        <time>2025-08-06T08:33:17Z</time>
      </trkpt>
      <trkpt lat="45.68762" lon="4.58726">
        <ele>670</ele>
        <time>2025-08-06T08:33:18Z</time>
      </trkpt>
      <trkpt lat="45.68763" lon="4.58728">
        <ele>670.2</ele>
        <time>2025-08-06T08:33:19Z</time>
      </trkpt>
      <trkpt lat="45.68764" lon="4.5873">
        <ele>670.6</ele>
        <time>2025-08-06T08:33:20Z</time>
      </trkpt>
      <trkpt lat="45.68765" lon="4.58731">
        <ele>671</ele>
        <time>2025-08-06T08:33:21Z</time>
      </trkpt>
      <trkpt lat="45.68767" lon="4.58734">
        <ele>671.4</ele>
        <time>2025-08-06T08:33:22Z</time>
      </trkpt>
      <trkpt lat="45.68769" lon="4.58735">
        <ele>671.8</ele>
        <time>2025-08-06T08:33:23Z</time>
      </trkpt>
      <trkpt lat="45.68771" lon="4.58737">
        <ele>672.2</ele>
        <time>2025-08-06T08:33:24Z</time>
      </trkpt>
      <trkpt lat="45.68772" lon="4.58739">
        <ele>672.4</ele>
        <time>2025-08-06T08:33:25Z</time>
      </trkpt>
      <trkpt lat="45.68774" lon="4.5874">
        <ele>672.8</ele>
        <time>2025-08-06T08:33:26Z</time>
      </trkpt>
      <trkpt lat="45.68775" lon="4.58742">
        <ele>673.2</ele>
        <time>2025-08-06T08:33:27Z</time>
      </trkpt>
      <trkpt lat="45.68776" lon="4.58744">
        <ele>673.6</ele>
        <time>2025-08-06T08:33:28Z</time>
      </trkpt>
      <trkpt lat="45.68778" lon="4.58745">
        <ele>674</ele>
        <time>2025-08-06T08:33:29Z</time>
      </trkpt>
      <trkpt lat="45.68779" lon="4.58746">
        <ele>674.4</ele>
        <time>2025-08-06T08:33:30Z</time>
      </trkpt>
      <trkpt lat="45.6878" lon="4.58748">
        <ele>674.8</ele>
        <time>2025-08-06T08:33:31Z</time>
      </trkpt>
      <trkpt lat="45.68782" lon="4.58749">
        <ele>675</ele>
        <time>2025-08-06T08:33:32Z</time>
      </trkpt>
      <trkpt lat="45.68784" lon="4.58751">
        <ele>675.4</ele>
        <time>2025-08-06T08:33:33Z</time>
      </trkpt>
      <trkpt lat="45.68786" lon="4.58752">
        <ele>675.6</ele>
        <time>2025-08-06T08:33:34Z</time>
      </trkpt>
      <trkpt lat="45.68788" lon="4.58753">
        <ele>676</ele>
        <time>2025-08-06T08:33:35Z</time>
      </trkpt>
      <trkpt lat="45.6879" lon="4.58753">
        <ele>676.4</ele>
        <time>2025-08-06T08:33:36Z</time>
      </trkpt>
      <trkpt lat="45.68792" lon="4.58752">
        <ele>676.6</ele>
        <time>2025-08-06T08:33:37Z</time>
      </trkpt>
      <trkpt lat="45.68794" lon="4.58751">
        <ele>677</ele>
        <time>2025-08-06T08:33:38Z</time>
      </trkpt>
      <trkpt lat="45.68795" lon="4.58749">
        <ele>677.2</ele>
        <time>2025-08-06T08:33:39Z</time>
      </trkpt>
      <trkpt lat="45.68797" lon="4.58748">
        <ele>677.4</ele>
        <time>2025-08-06T08:33:40Z</time>
      </trkpt>
      <trkpt lat="45.68798" lon="4.58746">
        <ele>677.8</ele>
        <time>2025-08-06T08:33:41Z</time>
      </trkpt>
      <trkpt lat="45.688" lon="4.58743">
        <ele>678</ele>
        <time>2025-08-06T08:33:42Z</time>
      </trkpt>
      <trkpt lat="45.68801" lon="4.58742">
        <ele>678.2</ele>
        <time>2025-08-06T08:33:43Z</time>
      </trkpt>
      <trkpt lat="45.68803" lon="4.5874">
        <ele>678.2</ele>
        <time>2025-08-06T08:33:44Z</time>
      </trkpt>
      <trkpt lat="45.68805" lon="4.58738">
        <ele>678.6</ele>
        <time>2025-08-06T08:33:45Z</time>
      </trkpt>
      <trkpt lat="45.68807" lon="4.58736">
        <ele>678.8</ele>
        <time>2025-08-06T08:33:46Z</time>
      </trkpt>
      <trkpt lat="45.68808" lon="4.58734">
        <ele>679</ele>
        <time>2025-08-06T08:33:47Z</time>
      </trkpt>
      <trkpt lat="45.6881" lon="4.58731">
        <ele>679.2</ele>
        <time>2025-08-06T08:33:48Z</time>
      </trkpt>
      <trkpt lat="45.68813" lon="4.58729">
        <ele>679.4</ele>
        <time>2025-08-06T08:33:49Z</time>
      </trkpt>
      <trkpt lat="45.68816" lon="4.58727">
        <ele>679.6</ele>
        <time>2025-08-06T08:33:50Z</time>
      </trkpt>
      <trkpt lat="45.68819" lon="4.58726">
        <ele>679.6</ele>
        <time>2025-08-06T08:33:51Z</time>
      </trkpt>
      <trkpt lat="45.68822" lon="4.58725">
        <ele>679.8</ele>
        <time>2025-08-06T08:33:52Z</time>
      </trkpt>
      <trkpt lat="45.68825" lon="4.58725">
        <ele>679.8</ele>
        <time>2025-08-06T08:33:53Z</time>
      </trkpt>
      <trkpt lat="45.68828" lon="4.58725">
        <ele>680</ele>
        <time>2025-08-06T08:33:54Z</time>
      </trkpt>
      <trkpt lat="45.68831" lon="4.58727">
        <ele>680</ele>
        <time>2025-08-06T08:33:55Z</time>
      </trkpt>
      <trkpt lat="45.68834" lon="4.58729">
        <ele>680.2</ele>
        <time>2025-08-06T08:33:56Z</time>
      </trkpt>
      <trkpt lat="45.68837" lon="4.58731">
        <ele>680.4</ele>
        <time>2025-08-06T08:33:57Z</time>
      </trkpt>
      <trkpt lat="45.68839" lon="4.58734">
        <ele>680.6</ele>
        <time>2025-08-06T08:33:58Z</time>
      </trkpt>
      <trkpt lat="45.6884" lon="4.58737">
        <ele>680.8</ele>
        <time>2025-08-06T08:33:59Z</time>
      </trkpt>
      <trkpt lat="45.68842" lon="4.58741">
        <ele>681</ele>
        <time>2025-08-06T08:34:00Z</time>
      </trkpt>
      <trkpt lat="45.68843" lon="4.58745">
        <ele>681.4</ele>
        <time>2025-08-06T08:34:01Z</time>
      </trkpt>
      <trkpt lat="45.68845" lon="4.58748">
        <ele>681.6</ele>
        <time>2025-08-06T08:34:02Z</time>
      </trkpt>
      <trkpt lat="45.68847" lon="4.58752">
        <ele>681.8</ele>
        <time>2025-08-06T08:34:03Z</time>
      </trkpt>
      <trkpt lat="45.68848" lon="4.58755">
        <ele>682</ele>
        <time>2025-08-06T08:34:04Z</time>
      </trkpt>
      <trkpt lat="45.6885" lon="4.58759">
        <ele>682.2</ele>
        <time>2025-08-06T08:34:05Z</time>
      </trkpt>
      <trkpt lat="45.68852" lon="4.58762">
        <ele>682.6</ele>
        <time>2025-08-06T08:34:06Z</time>
      </trkpt>
      <trkpt lat="45.68854" lon="4.58765">
        <ele>682.8</ele>
        <time>2025-08-06T08:34:07Z</time>
      </trkpt>
      <trkpt lat="45.68857" lon="4.58768">
        <ele>683</ele>
        <time>2025-08-06T08:34:08Z</time>
      </trkpt>
      <trkpt lat="45.68859" lon="4.58771">
        <ele>683.2</ele>
        <time>2025-08-06T08:34:09Z</time>
      </trkpt>
      <trkpt lat="45.68862" lon="4.58772">
        <ele>683.4</ele>
        <time>2025-08-06T08:34:10Z</time>
      </trkpt>
      <trkpt lat="45.68864" lon="4.58774">
        <ele>683.6</ele>
        <time>2025-08-06T08:34:11Z</time>
      </trkpt>
      <trkpt lat="45.68866" lon="4.58775">
        <ele>684</ele>
        <time>2025-08-06T08:34:12Z</time>
      </trkpt>
      <trkpt lat="45.68868" lon="4.58776">
        <ele>684.2</ele>
        <time>2025-08-06T08:34:13Z</time>
      </trkpt>
      <trkpt lat="45.68871" lon="4.58778">
        <ele>684.6</ele>
        <time>2025-08-06T08:34:14Z</time>
      </trkpt>
      <trkpt lat="45.68873" lon="4.58779">
        <ele>684.8</ele>
        <time>2025-08-06T08:34:15Z</time>
      </trkpt>
      <trkpt lat="45.68875" lon="4.5878">
        <ele>685.2</ele>
        <time>2025-08-06T08:34:16Z</time>
      </trkpt>
      <trkpt lat="45.68877" lon="4.58782">
        <ele>685.6</ele>
        <time>2025-08-06T08:34:17Z</time>
      </trkpt>
      <trkpt lat="45.68879" lon="4.58784">
        <ele>686</ele>
        <time>2025-08-06T08:34:18Z</time>
      </trkpt>
      <trkpt lat="45.68881" lon="4.58786">
        <ele>686.4</ele>
        <time>2025-08-06T08:34:19Z</time>
      </trkpt>
      <trkpt lat="45.68882" lon="4.58788">
        <ele>686.8</ele>
        <time>2025-08-06T08:34:20Z</time>
      </trkpt>
      <trkpt lat="45.68884" lon="4.5879">
        <ele>687.2</ele>
        <time>2025-08-06T08:34:21Z</time>
      </trkpt>
      <trkpt lat="45.68885" lon="4.58791">
        <ele>687.6</ele>
        <time>2025-08-06T08:34:22Z</time>
      </trkpt>
      <trkpt lat="45.68886" lon="4.58793">
        <ele>688.2</ele>
        <time>2025-08-06T08:34:23Z</time>
      </trkpt>
      <trkpt lat="45.68888" lon="4.58795">
        <ele>688.4</ele>
        <time>2025-08-06T08:34:24Z</time>
      </trkpt>
      <trkpt lat="45.68889" lon="4.58796">
        <ele>688.8</ele>
        <time>2025-08-06T08:34:25Z</time>
      </trkpt>
      <trkpt lat="45.68891" lon="4.58797">
        <ele>689.2</ele>
        <time>2025-08-06T08:34:26Z</time>
      </trkpt>
      <trkpt lat="45.68893" lon="4.58799">
        <ele>689.6</ele>
        <time>2025-08-06T08:34:27Z</time>
      </trkpt>
      <trkpt lat="45.68894" lon="4.588">
        <ele>690</ele>
        <time>2025-08-06T08:34:28Z</time>
      </trkpt>
      <trkpt lat="45.68896" lon="4.58803">
        <ele>690.2</ele>
        <time>2025-08-06T08:34:29Z</time>
      </trkpt>
      <trkpt lat="45.68898" lon="4.58805">
        <ele>690.6</ele>
        <time>2025-08-06T08:34:30Z</time>
      </trkpt>
      <trkpt lat="45.68899" lon="4.58808">
        <ele>690.8</ele>
        <time>2025-08-06T08:34:31Z</time>
      </trkpt>
      <trkpt lat="45.68901" lon="4.58809">
        <ele>691</ele>
        <time>2025-08-06T08:34:32Z</time>
      </trkpt>
      <trkpt lat="45.68902" lon="4.58811">
        <ele>691.2</ele>
        <time>2025-08-06T08:34:33Z</time>
      </trkpt>
      <trkpt lat="45.68904" lon="4.58812">
        <ele>691.4</ele>
        <time>2025-08-06T08:34:34Z</time>
      </trkpt>
      <trkpt lat="45.68906" lon="4.58814">
        <ele>691.6</ele>
        <time>2025-08-06T08:34:35Z</time>
      </trkpt>
      <trkpt lat="45.68907" lon="4.58816">
        <ele>691.8</ele>
        <time>2025-08-06T08:34:36Z</time>
      </trkpt>
      <trkpt lat="45.68909" lon="4.58817">
        <ele>692.2</ele>
        <time>2025-08-06T08:34:37Z</time>
      </trkpt>
      <trkpt lat="45.68911" lon="4.58818">
        <ele>692.4</ele>
        <time>2025-08-06T08:34:38Z</time>
      </trkpt>
      <trkpt lat="45.68913" lon="4.58819">
        <ele>692.6</ele>
        <time>2025-08-06T08:34:39Z</time>
      </trkpt>
      <trkpt lat="45.68915" lon="4.5882">
        <ele>692.8</ele>
        <time>2025-08-06T08:34:40Z</time>
      </trkpt>
      <trkpt lat="45.68917" lon="4.58821">
        <ele>693</ele>
        <time>2025-08-06T08:34:41Z</time>
      </trkpt>
      <trkpt lat="45.68919" lon="4.58821">
        <ele>693.2</ele>
        <time>2025-08-06T08:34:42Z</time>
      </trkpt>
      <trkpt lat="45.68921" lon="4.58821">
        <ele>693.6</ele>
        <time>2025-08-06T08:34:43Z</time>
      </trkpt>
      <trkpt lat="45.68923" lon="4.5882">
        <ele>693.8</ele>
        <time>2025-08-06T08:34:44Z</time>
      </trkpt>
      <trkpt lat="45.68925" lon="4.5882">
        <ele>694.2</ele>
        <time>2025-08-06T08:34:45Z</time>
      </trkpt>
      <trkpt lat="45.68926" lon="4.58819">
        <ele>694.6</ele>
        <time>2025-08-06T08:34:46Z</time>
      </trkpt>
      <trkpt lat="45.68928" lon="4.58817">
        <ele>694.8</ele>
        <time>2025-08-06T08:34:47Z</time>
      </trkpt>
      <trkpt lat="45.68929" lon="4.58815">
        <ele>695.2</ele>
        <time>2025-08-06T08:34:48Z</time>
      </trkpt>
      <trkpt lat="45.68929" lon="4.58812">
        <ele>695.6</ele>
        <time>2025-08-06T08:34:49Z</time>
      </trkpt>
      <trkpt lat="45.68929" lon="4.58809">
        <ele>696</ele>
        <time>2025-08-06T08:34:50Z</time>
      </trkpt>
      <trkpt lat="45.6893" lon="4.58806">
        <ele>696.2</ele>
        <time>2025-08-06T08:34:51Z</time>
      </trkpt>
      <trkpt lat="45.6893" lon="4.58803">
        <ele>696.6</ele>
        <time>2025-08-06T08:34:52Z</time>
      </trkpt>
      <trkpt lat="45.68931" lon="4.588">
        <ele>697</ele>
        <time>2025-08-06T08:34:53Z</time>
      </trkpt>
      <trkpt lat="45.68931" lon="4.58797">
        <ele>697.6</ele>
        <time>2025-08-06T08:34:54Z</time>
      </trkpt>
      <trkpt lat="45.68932" lon="4.58794">
        <ele>698</ele>
        <time>2025-08-06T08:34:55Z</time>
      </trkpt>
      <trkpt lat="45.68932" lon="4.58791">
        <ele>698.4</ele>
        <time>2025-08-06T08:34:56Z</time>
      </trkpt>
      <trkpt lat="45.68933" lon="4.58788">
        <ele>698.8</ele>
        <time>2025-08-06T08:34:57Z</time>
      </trkpt>
      <trkpt lat="45.68933" lon="4.58785">
        <ele>699.2</ele>
        <time>2025-08-06T08:34:58Z</time>
      </trkpt>
      <trkpt lat="45.68933" lon="4.58782">
        <ele>699.4</ele>
        <time>2025-08-06T08:34:59Z</time>
      </trkpt>
      <trkpt lat="45.68933" lon="4.58779">
        <ele>699.8</ele>
        <time>2025-08-06T08:35:00Z</time>
      </trkpt>
      <trkpt lat="45.68934" lon="4.58777">
        <ele>700.2</ele>
        <time>2025-08-06T08:35:01Z</time>
      </trkpt>
      <trkpt lat="45.68934" lon="4.58773">
        <ele>700.4</ele>
        <time>2025-08-06T08:35:02Z</time>
      </trkpt>
      <trkpt lat="45.68934" lon="4.5877">
        <ele>700.8</ele>
        <time>2025-08-06T08:35:03Z</time>
      </trkpt>
      <trkpt lat="45.68935" lon="4.58767">
        <ele>701</ele>
        <time>2025-08-06T08:35:04Z</time>
      </trkpt>
      <trkpt lat="45.68935" lon="4.58764">
        <ele>701.2</ele>
        <time>2025-08-06T08:35:05Z</time>
      </trkpt>
      <trkpt lat="45.68935" lon="4.5876">
        <ele>701.6</ele>
        <time>2025-08-06T08:35:06Z</time>
      </trkpt>
      <trkpt lat="45.68935" lon="4.58757">
        <ele>701.8</ele>
        <time>2025-08-06T08:35:07Z</time>
      </trkpt>
      <trkpt lat="45.68936" lon="4.58754">
        <ele>702.2</ele>
        <time>2025-08-06T08:35:08Z</time>
      </trkpt>
      <trkpt lat="45.68936" lon="4.58752">
        <ele>702.4</ele>
        <time>2025-08-06T08:35:09Z</time>
      </trkpt>
      <trkpt lat="45.68937" lon="4.58749">
        <ele>702.6</ele>
        <time>2025-08-06T08:35:10Z</time>
      </trkpt>
      <trkpt lat="45.68937" lon="4.58745">
        <ele>703</ele>
        <time>2025-08-06T08:35:11Z</time>
      </trkpt>
      <trkpt lat="45.68937" lon="4.58742">
        <ele>703.2</ele>
        <time>2025-08-06T08:35:12Z</time>
      </trkpt>
      <trkpt lat="45.68938" lon="4.58739">
        <ele>703.4</ele>
        <time>2025-08-06T08:35:13Z</time>
      </trkpt>
      <trkpt lat="45.68938" lon="4.58735">
        <ele>703.6</ele>
        <time>2025-08-06T08:35:14Z</time>
      </trkpt>
      <trkpt lat="45.68939" lon="4.58732">
        <ele>703.8</ele>
        <time>2025-08-06T08:35:15Z</time>
      </trkpt>
      <trkpt lat="45.68939" lon="4.58728">
        <ele>704</ele>
        <time>2025-08-06T08:35:16Z</time>
      </trkpt>
      <trkpt lat="45.6894" lon="4.58725">
        <ele>704.2</ele>
        <time>2025-08-06T08:35:17Z</time>
      </trkpt>
      <trkpt lat="45.68941" lon="4.58721">
        <ele>704.4</ele>
        <time>2025-08-06T08:35:18Z</time>
      </trkpt>
      <trkpt lat="45.68942" lon="4.58718">
        <ele>704.6</ele>
        <time>2025-08-06T08:35:19Z</time>
      </trkpt>
      <trkpt lat="45.68942" lon="4.58714">
        <ele>704.8</ele>
        <time>2025-08-06T08:35:20Z</time>
      </trkpt>
      <trkpt lat="45.68943" lon="4.58711">
        <ele>705.2</ele>
        <time>2025-08-06T08:35:21Z</time>
      </trkpt>
      <trkpt lat="45.68943" lon="4.58708">
        <ele>705.4</ele>
        <time>2025-08-06T08:35:22Z</time>
      </trkpt>
      <trkpt lat="45.68943" lon="4.58704">
        <ele>705.6</ele>
        <time>2025-08-06T08:35:23Z</time>
      </trkpt>
      <trkpt lat="45.68943" lon="4.58701">
        <ele>706</ele>
        <time>2025-08-06T08:35:24Z</time>
      </trkpt>
      <trkpt lat="45.68944" lon="4.58698">
        <ele>706.2</ele>
        <time>2025-08-06T08:35:25Z</time>
      </trkpt>
      <trkpt lat="45.68945" lon="4.58694">
        <ele>706.4</ele>
        <time>2025-08-06T08:35:26Z</time>
      </trkpt>
      <trkpt lat="45.68946" lon="4.5869">
        <ele>706.6</ele>
        <time>2025-08-06T08:35:27Z</time>
      </trkpt>
      <trkpt lat="45.68947" lon="4.58687">
        <ele>706.8</ele>
        <time>2025-08-06T08:35:28Z</time>
      </trkpt>
      <trkpt lat="45.68949" lon="4.58684">
        <ele>707</ele>
        <time>2025-08-06T08:35:29Z</time>
      </trkpt>
      <trkpt lat="45.6895" lon="4.5868">
        <ele>707.2</ele>
        <time>2025-08-06T08:35:30Z</time>
      </trkpt>
      <trkpt lat="45.68951" lon="4.58675">
        <ele>707.2</ele>
        <time>2025-08-06T08:35:31Z</time>
      </trkpt>
      <trkpt lat="45.68952" lon="4.58671">
        <ele>707.2</ele>
        <time>2025-08-06T08:35:32Z</time>
      </trkpt>
      <trkpt lat="45.68953" lon="4.58666">
        <ele>707.2</ele>
        <time>2025-08-06T08:35:33Z</time>
      </trkpt>
      <trkpt lat="45.68953" lon="4.58661">
        <ele>707.2</ele>
        <time>2025-08-06T08:35:34Z</time>
      </trkpt>
      <trkpt lat="45.68954" lon="4.58656">
        <ele>707.4</ele>
        <time>2025-08-06T08:35:35Z</time>
      </trkpt>
      <trkpt lat="45.68955" lon="4.58652">
        <ele>707.6</ele>
        <time>2025-08-06T08:35:36Z</time>
      </trkpt>
      <trkpt lat="45.68956" lon="4.58647">
        <ele>707.8</ele>
        <time>2025-08-06T08:35:37Z</time>
      </trkpt>
      <trkpt lat="45.68957" lon="4.58643">
        <ele>708.2</ele>
        <time>2025-08-06T08:35:38Z</time>
      </trkpt>
      <trkpt lat="45.68958" lon="4.58638">
        <ele>708.4</ele>
        <time>2025-08-06T08:35:39Z</time>
      </trkpt>
      <trkpt lat="45.68959" lon="4.58633">
        <ele>708.8</ele>
        <time>2025-08-06T08:35:40Z</time>
      </trkpt>
      <trkpt lat="45.6896" lon="4.58628">
        <ele>709</ele>
        <time>2025-08-06T08:35:41Z</time>
      </trkpt>
      <trkpt lat="45.68961" lon="4.58623">
        <ele>709.2</ele>
        <time>2025-08-06T08:35:42Z</time>
      </trkpt>
      <trkpt lat="45.68961" lon="4.58617">
        <ele>709.4</ele>
        <time>2025-08-06T08:35:43Z</time>
      </trkpt>
      <trkpt lat="45.68962" lon="4.58612">
        <ele>709.4</ele>
        <time>2025-08-06T08:35:44Z</time>
      </trkpt>
      <trkpt lat="45.68962" lon="4.58606">
        <ele>709.6</ele>
        <time>2025-08-06T08:35:45Z</time>
      </trkpt>
      <trkpt lat="45.68963" lon="4.58601">
        <ele>709.8</ele>
        <time>2025-08-06T08:35:46Z</time>
      </trkpt>
      <trkpt lat="45.68963" lon="4.58596">
        <ele>709.8</ele>
        <time>2025-08-06T08:35:47Z</time>
      </trkpt>
      <trkpt lat="45.68964" lon="4.58591">
        <ele>710</ele>
        <time>2025-08-06T08:35:48Z</time>
      </trkpt>
      <trkpt lat="45.68964" lon="4.58585">
        <ele>710</ele>
        <time>2025-08-06T08:35:49Z</time>
      </trkpt>
      <trkpt lat="45.68964" lon="4.5858">
        <ele>710.2</ele>
        <time>2025-08-06T08:35:50Z</time>
      </trkpt>
      <trkpt lat="45.68964" lon="4.58575">
        <ele>710.2</ele>
        <time>2025-08-06T08:35:51Z</time>
      </trkpt>
      <trkpt lat="45.68964" lon="4.5857">
        <ele>710.4</ele>
        <time>2025-08-06T08:35:52Z</time>
      </trkpt>
      <trkpt lat="45.68964" lon="4.58565">
        <ele>710.4</ele>
        <time>2025-08-06T08:35:53Z</time>
      </trkpt>
      <trkpt lat="45.68964" lon="4.5856">
        <ele>710.4</ele>
        <time>2025-08-06T08:35:54Z</time>
      </trkpt>
      <trkpt lat="45.68964" lon="4.58554">
        <ele>710.6</ele>
        <time>2025-08-06T08:35:55Z</time>
      </trkpt>
      <trkpt lat="45.68963" lon="4.58549">
        <ele>710.6</ele>
        <time>2025-08-06T08:35:56Z</time>
      </trkpt>
      <trkpt lat="45.68963" lon="4.58543">
        <ele>710.6</ele>
        <time>2025-08-06T08:35:57Z</time>
      </trkpt>
      <trkpt lat="45.68963" lon="4.58538">
        <ele>710.8</ele>
        <time>2025-08-06T08:35:58Z</time>
      </trkpt>
      <trkpt lat="45.68962" lon="4.58532">
        <ele>710.8</ele>
        <time>2025-08-06T08:35:59Z</time>
      </trkpt>
      <trkpt lat="45.68961" lon="4.58527">
        <ele>711</ele>
        <time>2025-08-06T08:36:00Z</time>
      </trkpt>
      <trkpt lat="45.6896" lon="4.58521">
        <ele>711.2</ele>
        <time>2025-08-06T08:36:01Z</time>
      </trkpt>
      <trkpt lat="45.6896" lon="4.58516">
        <ele>711.2</ele>
        <time>2025-08-06T08:36:02Z</time>
      </trkpt>
      <trkpt lat="45.68959" lon="4.5851">
        <ele>711.4</ele>
        <time>2025-08-06T08:36:03Z</time>
      </trkpt>
      <trkpt lat="45.68958" lon="4.58505">
        <ele>711.6</ele>
        <time>2025-08-06T08:36:04Z</time>
      </trkpt>
      <trkpt lat="45.68958" lon="4.58499">
        <ele>711.8</ele>
        <time>2025-08-06T08:36:05Z</time>
      </trkpt>
      <trkpt lat="45.68957" lon="4.58494">
        <ele>711.8</ele>
        <time>2025-08-06T08:36:06Z</time>
      </trkpt>
      <trkpt lat="45.68956" lon="4.58489">
        <ele>712</ele>
        <time>2025-08-06T08:36:07Z</time>
      </trkpt>
      <trkpt lat="45.68956" lon="4.58484">
        <ele>712.2</ele>
        <time>2025-08-06T08:36:08Z</time>
      </trkpt>
      <trkpt lat="45.68955" lon="4.5848">
        <ele>712.4</ele>
        <time>2025-08-06T08:36:09Z</time>
      </trkpt>
      <trkpt lat="45.68954" lon="4.58476">
        <ele>712.6</ele>
        <time>2025-08-06T08:36:10Z</time>
      </trkpt>
      <trkpt lat="45.68954" lon="4.58472">
        <ele>712.8</ele>
        <time>2025-08-06T08:36:11Z</time>
      </trkpt>
      <trkpt lat="45.68956" lon="4.5847">
        <ele>713</ele>
        <time>2025-08-06T08:36:12Z</time>
      </trkpt>
      <trkpt lat="45.68959" lon="4.58469">
        <ele>713.2</ele>
        <time>2025-08-06T08:36:13Z</time>
      </trkpt>
      <trkpt lat="45.68962" lon="4.58467">
        <ele>713.2</ele>
        <time>2025-08-06T08:36:14Z</time>
      </trkpt>
      <trkpt lat="45.68966" lon="4.58466">
        <ele>713.2</ele>
        <time>2025-08-06T08:36:15Z</time>
      </trkpt>
      <trkpt lat="45.6897" lon="4.58464">
        <ele>713</ele>
        <time>2025-08-06T08:36:16Z</time>
      </trkpt>
      <trkpt lat="45.68974" lon="4.58462">
        <ele>712.6</ele>
        <time>2025-08-06T08:36:17Z</time>
      </trkpt>
      <trkpt lat="45.68979" lon="4.5846">
        <ele>712.2</ele>
        <time>2025-08-06T08:36:18Z</time>
      </trkpt>
      <trkpt lat="45.68984" lon="4.58458">
        <ele>711.6</ele>
        <time>2025-08-06T08:36:19Z</time>
      </trkpt>
      <trkpt lat="45.6899" lon="4.58455">
        <ele>710.8</ele>
        <time>2025-08-06T08:36:20Z</time>
      </trkpt>
      <trkpt lat="45.68996" lon="4.58452">
        <ele>710.2</ele>
        <time>2025-08-06T08:36:21Z</time>
      </trkpt>
      <trkpt lat="45.69002" lon="4.58448">
        <ele>709.4</ele>
        <time>2025-08-06T08:36:22Z</time>
      </trkpt>
      <trkpt lat="45.69007" lon="4.58444">
        <ele>708.8</ele>
        <time>2025-08-06T08:36:23Z</time>
      </trkpt>
      <trkpt lat="45.69012" lon="4.58438">
        <ele>708.4</ele>
        <time>2025-08-06T08:36:24Z</time>
      </trkpt>
      <trkpt lat="45.69016" lon="4.58432">
        <ele>707.8</ele>
        <time>2025-08-06T08:36:25Z</time>
      </trkpt>
      <trkpt lat="45.69021" lon="4.58424">
        <ele>707.2</ele>
        <time>2025-08-06T08:36:26Z</time>
      </trkpt>
      <trkpt lat="45.69025" lon="4.58416">
        <ele>706.6</ele>
        <time>2025-08-06T08:36:27Z</time>
      </trkpt>
      <trkpt lat="45.6903" lon="4.58409">
        <ele>706</ele>
        <time>2025-08-06T08:36:28Z</time>
      </trkpt>
      <trkpt lat="45.69036" lon="4.58403">
        <ele>705</ele>
        <time>2025-08-06T08:36:29Z</time>
      </trkpt>
      <trkpt lat="45.69044" lon="4.584">
        <ele>704</ele>
        <time>2025-08-06T08:36:30Z</time>
      </trkpt>
      <trkpt lat="45.69052" lon="4.58401">
        <ele>703.2</ele>
        <time>2025-08-06T08:36:31Z</time>
      </trkpt>
      <trkpt lat="45.69059" lon="4.58407">
        <ele>702.2</ele>
        <time>2025-08-06T08:36:32Z</time>
      </trkpt>
      <trkpt lat="45.69065" lon="4.58416">
        <ele>701.4</ele>
        <time>2025-08-06T08:36:33Z</time>
      </trkpt>
      <trkpt lat="45.6907" lon="4.58425">
        <ele>700.6</ele>
        <time>2025-08-06T08:36:34Z</time>
      </trkpt>
      <trkpt lat="45.69077" lon="4.58433">
        <ele>700</ele>
        <time>2025-08-06T08:36:35Z</time>
      </trkpt>
      <trkpt lat="45.69085" lon="4.58438">
        <ele>698.8</ele>
        <time>2025-08-06T08:36:36Z</time>
      </trkpt>
      <trkpt lat="45.69094" lon="4.58441">
        <ele>697.8</ele>
        <time>2025-08-06T08:36:37Z</time>
      </trkpt>
      <trkpt lat="45.69103" lon="4.58441">
        <ele>696.6</ele>
        <time>2025-08-06T08:36:38Z</time>
      </trkpt>
      <trkpt lat="45.69113" lon="4.58442">
        <ele>695.4</ele>
        <time>2025-08-06T08:36:39Z</time>
      </trkpt>
      <trkpt lat="45.69122" lon="4.58441">
        <ele>694.2</ele>
        <time>2025-08-06T08:36:40Z</time>
      </trkpt>
      <trkpt lat="45.69132" lon="4.5844">
        <ele>693.2</ele>
        <time>2025-08-06T08:36:41Z</time>
      </trkpt>
      <trkpt lat="45.69141" lon="4.58439">
        <ele>692.2</ele>
        <time>2025-08-06T08:36:42Z</time>
      </trkpt>
      <trkpt lat="45.69151" lon="4.58438">
        <ele>691</ele>
        <time>2025-08-06T08:36:43Z</time>
      </trkpt>
      <trkpt lat="45.6916" lon="4.58436">
        <ele>690</ele>
        <time>2025-08-06T08:36:44Z</time>
      </trkpt>
      <trkpt lat="45.6917" lon="4.58434">
        <ele>689</ele>
        <time>2025-08-06T08:36:45Z</time>
      </trkpt>
      <trkpt lat="45.69179" lon="4.5843">
        <ele>688.2</ele>
        <time>2025-08-06T08:36:46Z</time>
      </trkpt>
      <trkpt lat="45.69189" lon="4.58426">
        <ele>687.8</ele>
        <time>2025-08-06T08:36:47Z</time>
      </trkpt>
      <trkpt lat="45.69199" lon="4.58423">
        <ele>687.4</ele>
        <time>2025-08-06T08:36:48Z</time>
      </trkpt>
      <trkpt lat="45.69208" lon="4.58421">
        <ele>687</ele>
        <time>2025-08-06T08:36:49Z</time>
      </trkpt>
      <trkpt lat="45.69219" lon="4.5842">
        <ele>686.6</ele>
        <time>2025-08-06T08:36:50Z</time>
      </trkpt>
      <trkpt lat="45.69229" lon="4.58419">
        <ele>686.2</ele>
        <time>2025-08-06T08:36:51Z</time>
      </trkpt>
      <trkpt lat="45.69239" lon="4.58419">
        <ele>685.6</ele>
        <time>2025-08-06T08:36:52Z</time>
      </trkpt>
      <trkpt lat="45.6925" lon="4.58417">
        <ele>684.6</ele>
        <time>2025-08-06T08:36:53Z</time>
      </trkpt>
      <trkpt lat="45.6926" lon="4.58416">
        <ele>683.2</ele>
        <time>2025-08-06T08:36:54Z</time>
      </trkpt>
      <trkpt lat="45.69271" lon="4.58414">
        <ele>682</ele>
        <time>2025-08-06T08:36:55Z</time>
      </trkpt>
      <trkpt lat="45.6928" lon="4.58411">
        <ele>680.8</ele>
        <time>2025-08-06T08:36:56Z</time>
      </trkpt>
      <trkpt lat="45.6929" lon="4.58407">
        <ele>679.6</ele>
        <time>2025-08-06T08:36:57Z</time>
      </trkpt>
      <trkpt lat="45.693" lon="4.58403">
        <ele>678.8</ele>
        <time>2025-08-06T08:36:58Z</time>
      </trkpt>
      <trkpt lat="45.69309" lon="4.584">
        <ele>678</ele>
        <time>2025-08-06T08:36:59Z</time>
      </trkpt>
      <trkpt lat="45.69319" lon="4.58395">
        <ele>677.2</ele>
        <time>2025-08-06T08:37:00Z</time>
      </trkpt>
      <trkpt lat="45.69329" lon="4.58391">
        <ele>676.4</ele>
        <time>2025-08-06T08:37:01Z</time>
      </trkpt>
      <trkpt lat="45.69339" lon="4.58387">
        <ele>675.4</ele>
        <time>2025-08-06T08:37:02Z</time>
      </trkpt>
      <trkpt lat="45.69348" lon="4.58383">
        <ele>674.6</ele>
        <time>2025-08-06T08:37:03Z</time>
      </trkpt>
      <trkpt lat="45.69358" lon="4.58378">
        <ele>674</ele>
        <time>2025-08-06T08:37:04Z</time>
      </trkpt>
      <trkpt lat="45.69367" lon="4.58375">
        <ele>673.4</ele>
        <time>2025-08-06T08:37:05Z</time>
      </trkpt>
      <trkpt lat="45.69376" lon="4.58371">
        <ele>673</ele>
        <time>2025-08-06T08:37:06Z</time>
      </trkpt>
      <trkpt lat="45.69385" lon="4.58368">
        <ele>672.6</ele>
        <time>2025-08-06T08:37:07Z</time>
      </trkpt>
      <trkpt lat="45.69394" lon="4.58365">
        <ele>672</ele>
        <time>2025-08-06T08:37:08Z</time>
      </trkpt>
      <trkpt lat="45.69403" lon="4.58362">
        <ele>671.4</ele>
        <time>2025-08-06T08:37:09Z</time>
      </trkpt>
      <trkpt lat="45.69412" lon="4.58359">
        <ele>671</ele>
        <time>2025-08-06T08:37:10Z</time>
      </trkpt>
      <trkpt lat="45.69422" lon="4.58356">
        <ele>670.6</ele>
        <time>2025-08-06T08:37:11Z</time>
      </trkpt>
      <trkpt lat="45.69431" lon="4.58352">
        <ele>669.8</ele>
        <time>2025-08-06T08:37:12Z</time>
      </trkpt>
      <trkpt lat="45.69441" lon="4.58349">
        <ele>669</ele>
        <time>2025-08-06T08:37:13Z</time>
      </trkpt>
      <trkpt lat="45.69449" lon="4.58346">
        <ele>668</ele>
        <time>2025-08-06T08:37:14Z</time>
      </trkpt>
      <trkpt lat="45.69457" lon="4.58343">
        <ele>667</ele>
        <time>2025-08-06T08:37:15Z</time>
      </trkpt>
      <trkpt lat="45.69464" lon="4.58341">
        <ele>666.4</ele>
        <time>2025-08-06T08:37:16Z</time>
      </trkpt>
      <trkpt lat="45.6947" lon="4.5834">
        <ele>666</ele>
        <time>2025-08-06T08:37:17Z</time>
      </trkpt>
      <trkpt lat="45.69476" lon="4.58338">
        <ele>666</ele>
        <time>2025-08-06T08:37:18Z</time>
      </trkpt>
      <trkpt lat="45.69481" lon="4.58337">
        <ele>666</ele>
        <time>2025-08-06T08:37:19Z</time>
      </trkpt>
      <trkpt lat="45.69485" lon="4.58336">
        <ele>666.2</ele>
        <time>2025-08-06T08:37:20Z</time>
      </trkpt>
      <trkpt lat="45.69488" lon="4.58333">
        <ele>666.4</ele>
        <time>2025-08-06T08:37:21Z</time>
      </trkpt>
      <trkpt lat="45.69489" lon="4.5833">
        <ele>666.6</ele>
        <time>2025-08-06T08:37:22Z</time>
      </trkpt>
      <trkpt lat="45.69489" lon="4.58326">
        <ele>666.8</ele>
        <time>2025-08-06T08:37:23Z</time>
      </trkpt>
      <trkpt lat="45.69489" lon="4.58324">
        <ele>667</ele>
        <time>2025-08-06T08:37:24Z</time>
      </trkpt>
      <trkpt lat="45.69489" lon="4.58323">
        <ele>667.2</ele>
        <time>2025-08-06T08:37:25Z</time>
      </trkpt>
      <trkpt lat="45.69489" lon="4.58323">
        <ele>667.4</ele>
        <time>2025-08-06T08:37:26Z</time>
      </trkpt>
      <trkpt lat="45.69489" lon="4.58323">
        <ele>667.4</ele>
        <time>2025-08-06T08:37:27Z</time>
      </trkpt>
      <trkpt lat="45.69486" lon="4.58319">
        <ele>667.6</ele>
        <time>2025-08-06T08:42:08Z</time>
      </trkpt>
      <trkpt lat="45.69485" lon="4.58317">
        <ele>668</ele>
        <time>2025-08-06T08:42:09Z</time>
      </trkpt>
      <trkpt lat="45.69483" lon="4.58314">
        <ele>667.8</ele>
        <time>2025-08-06T08:42:10Z</time>
      </trkpt>
      <trkpt lat="45.6948" lon="4.58312">
        <ele>667.4</ele>
        <time>2025-08-06T08:42:11Z</time>
      </trkpt>
      <trkpt lat="45.69478" lon="4.58308">
        <ele>667.2</ele>
        <time>2025-08-06T08:42:12Z</time>
      </trkpt>
      <trkpt lat="45.69475" lon="4.58305">
        <ele>666.8</ele>
        <time>2025-08-06T08:42:13Z</time>
      </trkpt>
      <trkpt lat="45.69472" lon="4.58302">
        <ele>666.6</ele>
        <time>2025-08-06T08:42:14Z</time>
      </trkpt>
      <trkpt lat="45.69469" lon="4.58301">
        <ele>666.4</ele>
        <time>2025-08-06T08:42:15Z</time>
      </trkpt>
      <trkpt lat="45.69467" lon="4.583">
        <ele>666.2</ele>
        <time>2025-08-06T08:42:16Z</time>
      </trkpt>
      <trkpt lat="45.69464" lon="4.58298">
        <ele>666</ele>
        <time>2025-08-06T08:42:17Z</time>
      </trkpt>
      <trkpt lat="45.69462" lon="4.58296">
        <ele>666</ele>
        <time>2025-08-06T08:42:18Z</time>
      </trkpt>
      <trkpt lat="45.69459" lon="4.58293">
        <ele>665.8</ele>
        <time>2025-08-06T08:42:19Z</time>
      </trkpt>
      <trkpt lat="45.69456" lon="4.58291">
        <ele>665.6</ele>
        <time>2025-08-06T08:42:20Z</time>
      </trkpt>
      <trkpt lat="45.69453" lon="4.58288">
        <ele>665.4</ele>
        <time>2025-08-06T08:42:21Z</time>
      </trkpt>
      <trkpt lat="45.69449" lon="4.58286">
        <ele>665</ele>
        <time>2025-08-06T08:42:22Z</time>
      </trkpt>
      <trkpt lat="45.69446" lon="4.58284">
        <ele>664.8</ele>
        <time>2025-08-06T08:42:23Z</time>
      </trkpt>
      <trkpt lat="45.69443" lon="4.58282">
        <ele>664.6</ele>
        <time>2025-08-06T08:42:24Z</time>
      </trkpt>
      <trkpt lat="45.69441" lon="4.5828">
        <ele>664.6</ele>
        <time>2025-08-06T08:42:25Z</time>
      </trkpt>
      <trkpt lat="45.6944" lon="4.58279">
        <ele>664.4</ele>
        <time>2025-08-06T08:42:26Z</time>
      </trkpt>
      <trkpt lat="45.69438" lon="4.58278">
        <ele>664.2</ele>
        <time>2025-08-06T08:42:27Z</time>
      </trkpt>
      <trkpt lat="45.69436" lon="4.58277">
        <ele>664.2</ele>
        <time>2025-08-06T08:42:28Z</time>
      </trkpt>
      <trkpt lat="45.69434" lon="4.58277">
        <ele>664.2</ele>
        <time>2025-08-06T08:42:29Z</time>
      </trkpt>
      <trkpt lat="45.69432" lon="4.58276">
        <ele>664</ele>
        <time>2025-08-06T08:42:30Z</time>
      </trkpt>
      <trkpt lat="45.69429" lon="4.58275">
        <ele>664</ele>
        <time>2025-08-06T08:42:31Z</time>
      </trkpt>
      <trkpt lat="45.69426" lon="4.58274">
        <ele>663.8</ele>
        <time>2025-08-06T08:42:32Z</time>
      </trkpt>
      <trkpt lat="45.69424" lon="4.58274">
        <ele>663.8</ele>
        <time>2025-08-06T08:42:33Z</time>
      </trkpt>
      <trkpt lat="45.69422" lon="4.58273">
        <ele>663.8</ele>
        <time>2025-08-06T08:42:34Z</time>
      </trkpt>
      <trkpt lat="45.6942" lon="4.58272">
        <ele>663.8</ele>
        <time>2025-08-06T08:42:35Z</time>
      </trkpt>
      <trkpt lat="45.6942" lon="4.58272">
        <ele>663.8</ele>
        <time>2025-08-06T08:42:36Z</time>
      </trkpt>
      <trkpt lat="45.69419" lon="4.58271">
        <ele>663.8</ele>
        <time>2025-08-06T08:42:37Z</time>
      </trkpt>
      <trkpt lat="45.69419" lon="4.58271">
        <ele>664</ele>
        <time>2025-08-06T08:42:38Z</time>
      </trkpt>
      <trkpt lat="45.69416" lon="4.5827">
        <ele>664.2</ele>
        <time>2025-08-06T08:42:58Z</time>
      </trkpt>
      <trkpt lat="45.69415" lon="4.58268">
        <ele>664.2</ele>
        <time>2025-08-06T08:42:59Z</time>
      </trkpt>
      <trkpt lat="45.69415" lon="4.58265">
        <ele>664</ele>
        <time>2025-08-06T08:43:00Z</time>
      </trkpt>
      <trkpt lat="45.69415" lon="4.58262">
        <ele>663.6</ele>
        <time>2025-08-06T08:43:01Z</time>
      </trkpt>
      <trkpt lat="45.69416" lon="4.58259">
        <ele>663.2</ele>
        <time>2025-08-06T08:43:02Z</time>
      </trkpt>
      <trkpt lat="45.69418" lon="4.58256">
        <ele>662.8</ele>
        <time>2025-08-06T08:43:03Z</time>
      </trkpt>
      <trkpt lat="45.6942" lon="4.58253">
        <ele>662.2</ele>
        <time>2025-08-06T08:43:04Z</time>
      </trkpt>
      <trkpt lat="45.69422" lon="4.58249">
        <ele>661.8</ele>
        <time>2025-08-06T08:43:05Z</time>
      </trkpt>
      <trkpt lat="45.69425" lon="4.58245">
        <ele>661.4</ele>
        <time>2025-08-06T08:43:06Z</time>
      </trkpt>
      <trkpt lat="45.69429" lon="4.58242">
        <ele>661</ele>
        <time>2025-08-06T08:43:07Z</time>
      </trkpt>
      <trkpt lat="45.69433" lon="4.58239">
        <ele>660.6</ele>
        <time>2025-08-06T08:43:08Z</time>
      </trkpt>
      <trkpt lat="45.69437" lon="4.58236">
        <ele>660.2</ele>
        <time>2025-08-06T08:43:09Z</time>
      </trkpt>
      <trkpt lat="45.69442" lon="4.58233">
        <ele>659.8</ele>
        <time>2025-08-06T08:43:10Z</time>
      </trkpt>
      <trkpt lat="45.69446" lon="4.5823">
        <ele>659.4</ele>
        <time>2025-08-06T08:43:11Z</time>
      </trkpt>
      <trkpt lat="45.6945" lon="4.58227">
        <ele>659.2</ele>
        <time>2025-08-06T08:43:12Z</time>
      </trkpt>
      <trkpt lat="45.69453" lon="4.58224">
        <ele>658.8</ele>
        <time>2025-08-06T08:43:13Z</time>
      </trkpt>
      <trkpt lat="45.69457" lon="4.58222">
        <ele>658.8</ele>
        <time>2025-08-06T08:43:14Z</time>
      </trkpt>
      <trkpt lat="45.69461" lon="4.58219">
        <ele>658.6</ele>
        <time>2025-08-06T08:43:15Z</time>
      </trkpt>
      <trkpt lat="45.69464" lon="4.58216">
        <ele>658.4</ele>
        <time>2025-08-06T08:43:16Z</time>
      </trkpt>
      <trkpt lat="45.69468" lon="4.58213">
        <ele>658.2</ele>
        <time>2025-08-06T08:43:17Z</time>
      </trkpt>
      <trkpt lat="45.69471" lon="4.5821">
        <ele>657.8</ele>
        <time>2025-08-06T08:43:18Z</time>
      </trkpt>
      <trkpt lat="45.69474" lon="4.58206">
        <ele>657.6</ele>
        <time>2025-08-06T08:43:19Z</time>
      </trkpt>
      <trkpt lat="45.69477" lon="4.58202">
        <ele>657.2</ele>
        <time>2025-08-06T08:43:20Z</time>
      </trkpt>
      <trkpt lat="45.6948" lon="4.58198">
        <ele>657.2</ele>
        <time>2025-08-06T08:43:21Z</time>
      </trkpt>
      <trkpt lat="45.69482" lon="4.58195">
        <ele>657</ele>
        <time>2025-08-06T08:43:22Z</time>
      </trkpt>
      <trkpt lat="45.69484" lon="4.58192">
        <ele>657</ele>
        <time>2025-08-06T08:43:23Z</time>
      </trkpt>
      <trkpt lat="45.69487" lon="4.58189">
        <ele>657</ele>
        <time>2025-08-06T08:43:24Z</time>
      </trkpt>
      <trkpt lat="45.69489" lon="4.58188">
        <ele>656.8</ele>
        <time>2025-08-06T08:43:25Z</time>
      </trkpt>
      <trkpt lat="45.69492" lon="4.58186">
        <ele>656.6</ele>
        <time>2025-08-06T08:43:26Z</time>
      </trkpt>
      <trkpt lat="45.69495" lon="4.58183">
        <ele>656.4</ele>
        <time>2025-08-06T08:43:27Z</time>
      </trkpt>
      <trkpt lat="45.69498" lon="4.58179">
        <ele>656.2</ele>
        <time>2025-08-06T08:43:28Z</time>
      </trkpt>
      <trkpt lat="45.69502" lon="4.58176">
        <ele>656</ele>
        <time>2025-08-06T08:43:29Z</time>
      </trkpt>
      <trkpt lat="45.69506" lon="4.58173">
        <ele>656</ele>
        <time>2025-08-06T08:43:30Z</time>
      </trkpt>
      <trkpt lat="45.6951" lon="4.5817">
        <ele>656</ele>
        <time>2025-08-06T08:43:31Z</time>
      </trkpt>
      <trkpt lat="45.69514" lon="4.58167">
        <ele>655.8</ele>
        <time>2025-08-06T08:43:32Z</time>
      </trkpt>
      <trkpt lat="45.69519" lon="4.58164">
        <ele>656</ele>
        <time>2025-08-06T08:43:33Z</time>
      </trkpt>
      <trkpt lat="45.69522" lon="4.58162">
        <ele>656.2</ele>
        <time>2025-08-06T08:43:34Z</time>
      </trkpt>
      <trkpt lat="45.69526" lon="4.58159">
        <ele>656.2</ele>
        <time>2025-08-06T08:43:35Z</time>
      </trkpt>
      <trkpt lat="45.6953" lon="4.58157">
        <ele>656.2</ele>
        <time>2025-08-06T08:43:36Z</time>
      </trkpt>
      <trkpt lat="45.69533" lon="4.58155">
        <ele>656.2</ele>
        <time>2025-08-06T08:43:37Z</time>
      </trkpt>
      <trkpt lat="45.69538" lon="4.58151">
        <ele>655.8</ele>
        <time>2025-08-06T08:43:38Z</time>
      </trkpt>
      <trkpt lat="45.69543" lon="4.58147">
        <ele>655.2</ele>
        <time>2025-08-06T08:43:39Z</time>
      </trkpt>
      <trkpt lat="45.69548" lon="4.58145">
        <ele>654.6</ele>
        <time>2025-08-06T08:43:40Z</time>
      </trkpt>
      <trkpt lat="45.69555" lon="4.58141">
        <ele>653.6</ele>
        <time>2025-08-06T08:43:41Z</time>
      </trkpt>
      <trkpt lat="45.69561" lon="4.58138">
        <ele>652.8</ele>
        <time>2025-08-06T08:43:42Z</time>
      </trkpt>
      <trkpt lat="45.69564" lon="4.58136">
        <ele>651.8</ele>
        <time>2025-08-06T08:43:43Z</time>
      </trkpt>
      <trkpt lat="45.6957" lon="4.58133">
        <ele>651</ele>
        <time>2025-08-06T08:43:44Z</time>
      </trkpt>
      <trkpt lat="45.69575" lon="4.58128">
        <ele>650.2</ele>
        <time>2025-08-06T08:43:45Z</time>
      </trkpt>
      <trkpt lat="45.69579" lon="4.58126">
        <ele>649.6</ele>
        <time>2025-08-06T08:43:46Z</time>
      </trkpt>
      <trkpt lat="45.69584" lon="4.58123">
        <ele>649</ele>
        <time>2025-08-06T08:43:47Z</time>
      </trkpt>
      <trkpt lat="45.69588" lon="4.58122">
        <ele>648.6</ele>
        <time>2025-08-06T08:43:48Z</time>
      </trkpt>
      <trkpt lat="45.69592" lon="4.58119">
        <ele>648.2</ele>
        <time>2025-08-06T08:43:49Z</time>
      </trkpt>
      <trkpt lat="45.69596" lon="4.58117">
        <ele>648</ele>
        <time>2025-08-06T08:43:50Z</time>
      </trkpt>
      <trkpt lat="45.696" lon="4.58115">
        <ele>647.8</ele>
        <time>2025-08-06T08:43:51Z</time>
      </trkpt>
      <trkpt lat="45.69604" lon="4.58114">
        <ele>647.4</ele>
        <time>2025-08-06T08:43:52Z</time>
      </trkpt>
      <trkpt lat="45.69609" lon="4.58113">
        <ele>647.2</ele>
        <time>2025-08-06T08:43:53Z</time>
      </trkpt>
      <trkpt lat="45.69614" lon="4.58111">
        <ele>646.8</ele>
        <time>2025-08-06T08:43:54Z</time>
      </trkpt>
      <trkpt lat="45.69619" lon="4.58108">
        <ele>646.4</ele>
        <time>2025-08-06T08:43:55Z</time>
      </trkpt>
      <trkpt lat="45.69625" lon="4.58105">
        <ele>646</ele>
        <time>2025-08-06T08:43:56Z</time>
      </trkpt>
      <trkpt lat="45.6963" lon="4.58103">
        <ele>645.4</ele>
        <time>2025-08-06T08:43:57Z</time>
      </trkpt>
      <trkpt lat="45.69635" lon="4.58101">
        <ele>645</ele>
        <time>2025-08-06T08:43:58Z</time>
      </trkpt>
      <trkpt lat="45.6964" lon="4.581">
        <ele>644.8</ele>
        <time>2025-08-06T08:43:59Z</time>
      </trkpt>
      <trkpt lat="45.69644" lon="4.58098">
        <ele>644.4</ele>
        <time>2025-08-06T08:44:00Z</time>
      </trkpt>
      <trkpt lat="45.69649" lon="4.58096">
        <ele>644.2</ele>
        <time>2025-08-06T08:44:01Z</time>
      </trkpt>
      <trkpt lat="45.69653" lon="4.58094">
        <ele>643.8</ele>
        <time>2025-08-06T08:44:02Z</time>
      </trkpt>
      <trkpt lat="45.69659" lon="4.58091">
        <ele>643.6</ele>
        <time>2025-08-06T08:44:03Z</time>
      </trkpt>
      <trkpt lat="45.69665" lon="4.58089">
        <ele>643.2</ele>
        <time>2025-08-06T08:44:04Z</time>
      </trkpt>
      <trkpt lat="45.6967" lon="4.58087">
        <ele>643</ele>
        <time>2025-08-06T08:44:05Z</time>
      </trkpt>
      <trkpt lat="45.69673" lon="4.58085">
        <ele>642.8</ele>
        <time>2025-08-06T08:44:06Z</time>
      </trkpt>
      <trkpt lat="45.69676" lon="4.58083">
        <ele>642.6</ele>
        <time>2025-08-06T08:44:07Z</time>
      </trkpt>
      <trkpt lat="45.69678" lon="4.58082">
        <ele>642.6</ele>
        <time>2025-08-06T08:44:08Z</time>
      </trkpt>
      <trkpt lat="45.69681" lon="4.5808">
        <ele>642.4</ele>
        <time>2025-08-06T08:44:09Z</time>
      </trkpt>
      <trkpt lat="45.69684" lon="4.58077">
        <ele>642.4</ele>
        <time>2025-08-06T08:44:10Z</time>
      </trkpt>
      <trkpt lat="45.69686" lon="4.58075">
        <ele>642</ele>
        <time>2025-08-06T08:44:11Z</time>
      </trkpt>
      <trkpt lat="45.69688" lon="4.58073">
        <ele>641.8</ele>
        <time>2025-08-06T08:44:12Z</time>
      </trkpt>
      <trkpt lat="45.6969" lon="4.5807">
        <ele>641.4</ele>
        <time>2025-08-06T08:44:13Z</time>
      </trkpt>
      <trkpt lat="45.69692" lon="4.58067">
        <ele>641</ele>
        <time>2025-08-06T08:44:14Z</time>
      </trkpt>
      <trkpt lat="45.69696" lon="4.58064">
        <ele>640.6</ele>
        <time>2025-08-06T08:44:15Z</time>
      </trkpt>
      <trkpt lat="45.697" lon="4.58059">
        <ele>640.4</ele>
        <time>2025-08-06T08:44:16Z</time>
      </trkpt>
      <trkpt lat="45.69705" lon="4.58056">
        <ele>640.2</ele>
        <time>2025-08-06T08:44:17Z</time>
      </trkpt>
      <trkpt lat="45.6971" lon="4.58054">
        <ele>640.2</ele>
        <time>2025-08-06T08:44:18Z</time>
      </trkpt>
      <trkpt lat="45.69715" lon="4.58053">
        <ele>640.2</ele>
        <time>2025-08-06T08:44:19Z</time>
      </trkpt>
      <trkpt lat="45.69718" lon="4.58055">
        <ele>640.4</ele>
        <time>2025-08-06T08:44:20Z</time>
      </trkpt>
      <trkpt lat="45.69721" lon="4.58059">
        <ele>640.4</ele>
        <time>2025-08-06T08:44:21Z</time>
      </trkpt>
      <trkpt lat="45.69725" lon="4.58062">
        <ele>640.4</ele>
        <time>2025-08-06T08:44:22Z</time>
      </trkpt>
      <trkpt lat="45.69729" lon="4.58066">
        <ele>640.4</ele>
        <time>2025-08-06T08:44:23Z</time>
      </trkpt>
      <trkpt lat="45.69733" lon="4.58069">
        <ele>640.2</ele>
        <time>2025-08-06T08:44:24Z</time>
      </trkpt>
      <trkpt lat="45.69737" lon="4.58074">
        <ele>639.8</ele>
        <time>2025-08-06T08:44:25Z</time>
      </trkpt>
      <trkpt lat="45.69741" lon="4.58077">
        <ele>639.6</ele>
        <time>2025-08-06T08:44:26Z</time>
      </trkpt>
      <trkpt lat="45.69744" lon="4.5808">
        <ele>639.4</ele>
        <time>2025-08-06T08:44:27Z</time>
      </trkpt>
      <trkpt lat="45.69745" lon="4.58083">
        <ele>639.2</ele>
        <time>2025-08-06T08:44:28Z</time>
      </trkpt>
      <trkpt lat="45.69747" lon="4.58085">
        <ele>639.2</ele>
        <time>2025-08-06T08:44:29Z</time>
      </trkpt>
      <trkpt lat="45.69749" lon="4.58088">
        <ele>639.4</ele>
        <time>2025-08-06T08:44:30Z</time>
      </trkpt>
      <trkpt lat="45.6975" lon="4.58089">
        <ele>639.6</ele>
        <time>2025-08-06T08:44:31Z</time>
      </trkpt>
      <trkpt lat="45.69753" lon="4.58091">
        <ele>639.8</ele>
        <time>2025-08-06T08:44:32Z</time>
      </trkpt>
      <trkpt lat="45.69755" lon="4.58093">
        <ele>640.2</ele>
        <time>2025-08-06T08:44:33Z</time>
      </trkpt>
      <trkpt lat="45.69758" lon="4.58095">
        <ele>640.6</ele>
        <time>2025-08-06T08:44:34Z</time>
      </trkpt>
      <trkpt lat="45.6976" lon="4.58097">
        <ele>641.2</ele>
        <time>2025-08-06T08:44:35Z</time>
      </trkpt>
      <trkpt lat="45.69763" lon="4.58099">
        <ele>641.6</ele>
        <time>2025-08-06T08:44:36Z</time>
      </trkpt>
      <trkpt lat="45.69765" lon="4.581">
        <ele>642</ele>
        <time>2025-08-06T08:44:37Z</time>
      </trkpt>
      <trkpt lat="45.69767" lon="4.58102">
        <ele>642.6</ele>
        <time>2025-08-06T08:44:38Z</time>
      </trkpt>
      <trkpt lat="45.69769" lon="4.58104">
        <ele>643</ele>
        <time>2025-08-06T08:44:39Z</time>
      </trkpt>
      <trkpt lat="45.69772" lon="4.58105">
        <ele>643.4</ele>
        <time>2025-08-06T08:44:40Z</time>
      </trkpt>
      <trkpt lat="45.69775" lon="4.58107">
        <ele>643.8</ele>
        <time>2025-08-06T08:44:41Z</time>
      </trkpt>
      <trkpt lat="45.69777" lon="4.58108">
        <ele>644.4</ele>
        <time>2025-08-06T08:44:42Z</time>
      </trkpt>
      <trkpt lat="45.6978" lon="4.58108">
        <ele>644.8</ele>
        <time>2025-08-06T08:44:43Z</time>
      </trkpt>
      <trkpt lat="45.69782" lon="4.58108">
        <ele>645.2</ele>
        <time>2025-08-06T08:44:44Z</time>
      </trkpt>
      <trkpt lat="45.69784" lon="4.58107">
        <ele>645.6</ele>
        <time>2025-08-06T08:44:45Z</time>
      </trkpt>
      <trkpt lat="45.69787" lon="4.58108">
        <ele>646</ele>
        <time>2025-08-06T08:44:46Z</time>
      </trkpt>
      <trkpt lat="45.69789" lon="4.58107">
        <ele>646.2</ele>
        <time>2025-08-06T08:44:47Z</time>
      </trkpt>
      <trkpt lat="45.69791" lon="4.58105">
        <ele>646.6</ele>
        <time>2025-08-06T08:44:48Z</time>
      </trkpt>
      <trkpt lat="45.69793" lon="4.58104">
        <ele>646.8</ele>
        <time>2025-08-06T08:44:49Z</time>
      </trkpt>
      <trkpt lat="45.69796" lon="4.58102">
        <ele>647</ele>
        <time>2025-08-06T08:44:50Z</time>
      </trkpt>
      <trkpt lat="45.69799" lon="4.58099">
        <ele>647.2</ele>
        <time>2025-08-06T08:44:51Z</time>
      </trkpt>
      <trkpt lat="45.69801" lon="4.58096">
        <ele>647.4</ele>
        <time>2025-08-06T08:44:52Z</time>
      </trkpt>
      <trkpt lat="45.69805" lon="4.58093">
        <ele>647.6</ele>
        <time>2025-08-06T08:44:53Z</time>
      </trkpt>
      <trkpt lat="45.69809" lon="4.58089">
        <ele>648</ele>
        <time>2025-08-06T08:44:54Z</time>
      </trkpt>
      <trkpt lat="45.69812" lon="4.58086">
        <ele>648.2</ele>
        <time>2025-08-06T08:44:55Z</time>
      </trkpt>
      <trkpt lat="45.69815" lon="4.58083">
        <ele>648.4</ele>
        <time>2025-08-06T08:44:56Z</time>
      </trkpt>
      <trkpt lat="45.69817" lon="4.5808">
        <ele>648.6</ele>
        <time>2025-08-06T08:44:57Z</time>
      </trkpt>
      <trkpt lat="45.69819" lon="4.58076">
        <ele>648.8</ele>
        <time>2025-08-06T08:44:58Z</time>
      </trkpt>
      <trkpt lat="45.69822" lon="4.58073">
        <ele>649</ele>
        <time>2025-08-06T08:44:59Z</time>
      </trkpt>
      <trkpt lat="45.69825" lon="4.58069">
        <ele>649.2</ele>
        <time>2025-08-06T08:45:00Z</time>
      </trkpt>
      <trkpt lat="45.69829" lon="4.58065">
        <ele>649.4</ele>
        <time>2025-08-06T08:45:01Z</time>
      </trkpt>
      <trkpt lat="45.69832" lon="4.5806">
        <ele>649.6</ele>
        <time>2025-08-06T08:45:02Z</time>
      </trkpt>
      <trkpt lat="45.69835" lon="4.58057">
        <ele>649.8</ele>
        <time>2025-08-06T08:45:03Z</time>
      </trkpt>
      <trkpt lat="45.69838" lon="4.58055">
        <ele>650</ele>
        <time>2025-08-06T08:45:04Z</time>
      </trkpt>
      <trkpt lat="45.69839" lon="4.58051">
        <ele>650</ele>
        <time>2025-08-06T08:45:05Z</time>
      </trkpt>
      <trkpt lat="45.6984" lon="4.58047">
        <ele>650.2</ele>
        <time>2025-08-06T08:45:06Z</time>
      </trkpt>
      <trkpt lat="45.69842" lon="4.58045">
        <ele>650.4</ele>
        <time>2025-08-06T08:45:07Z</time>
      </trkpt>
      <trkpt lat="45.69846" lon="4.58042">
        <ele>650.4</ele>
        <time>2025-08-06T08:45:08Z</time>
      </trkpt>
      <trkpt lat="45.69848" lon="4.58037">
        <ele>650.2</ele>
        <time>2025-08-06T08:45:09Z</time>
      </trkpt>
      <trkpt lat="45.69852" lon="4.5803">
        <ele>650</ele>
        <time>2025-08-06T08:45:10Z</time>
      </trkpt>
      <trkpt lat="45.69854" lon="4.58025">
        <ele>649.6</ele>
        <time>2025-08-06T08:45:11Z</time>
      </trkpt>
      <trkpt lat="45.69855" lon="4.58021">
        <ele>649</ele>
        <time>2025-08-06T08:45:12Z</time>
      </trkpt>
      <trkpt lat="45.69857" lon="4.58017">
        <ele>648.4</ele>
        <time>2025-08-06T08:45:13Z</time>
      </trkpt>
      <trkpt lat="45.6986" lon="4.58012">
        <ele>647.8</ele>
        <time>2025-08-06T08:45:14Z</time>
      </trkpt>
      <trkpt lat="45.69863" lon="4.58008">
        <ele>647.2</ele>
        <time>2025-08-06T08:45:15Z</time>
      </trkpt>
      <trkpt lat="45.69867" lon="4.58003">
        <ele>646.4</ele>
        <time>2025-08-06T08:45:16Z</time>
      </trkpt>
      <trkpt lat="45.69871" lon="4.57998">
        <ele>645.8</ele>
        <time>2025-08-06T08:45:17Z</time>
      </trkpt>
      <trkpt lat="45.69874" lon="4.57992">
        <ele>645</ele>
        <time>2025-08-06T08:45:18Z</time>
      </trkpt>
      <trkpt lat="45.69877" lon="4.57986">
        <ele>644</ele>
        <time>2025-08-06T08:45:19Z</time>
      </trkpt>
      <trkpt lat="45.69879" lon="4.57979">
        <ele>643.2</ele>
        <time>2025-08-06T08:45:20Z</time>
      </trkpt>
      <trkpt lat="45.69882" lon="4.57972">
        <ele>642.4</ele>
        <time>2025-08-06T08:45:21Z</time>
      </trkpt>
      <trkpt lat="45.69886" lon="4.57965">
        <ele>641.6</ele>
        <time>2025-08-06T08:45:22Z</time>
      </trkpt>
      <trkpt lat="45.6989" lon="4.57959">
        <ele>640.6</ele>
        <time>2025-08-06T08:45:23Z</time>
      </trkpt>
      <trkpt lat="45.69894" lon="4.57953">
        <ele>640</ele>
        <time>2025-08-06T08:45:24Z</time>
      </trkpt>
      <trkpt lat="45.69896" lon="4.57945">
        <ele>639.4</ele>
        <time>2025-08-06T08:45:25Z</time>
      </trkpt>
      <trkpt lat="45.69896" lon="4.57936">
        <ele>638.8</ele>
        <time>2025-08-06T08:45:26Z</time>
      </trkpt>
      <trkpt lat="45.69898" lon="4.57927">
        <ele>638.4</ele>
        <time>2025-08-06T08:45:27Z</time>
      </trkpt>
      <trkpt lat="45.69901" lon="4.57918">
        <ele>637.8</ele>
        <time>2025-08-06T08:45:28Z</time>
      </trkpt>
      <trkpt lat="45.69904" lon="4.5791">
        <ele>637.6</ele>
        <time>2025-08-06T08:45:29Z</time>
      </trkpt>
      <trkpt lat="45.69907" lon="4.57903">
        <ele>637.2</ele>
        <time>2025-08-06T08:45:30Z</time>
      </trkpt>
      <trkpt lat="45.6991" lon="4.57896">
        <ele>636.8</ele>
        <time>2025-08-06T08:45:31Z</time>
      </trkpt>
      <trkpt lat="45.69914" lon="4.57888">
        <ele>636.6</ele>
        <time>2025-08-06T08:45:32Z</time>
      </trkpt>
      <trkpt lat="45.69917" lon="4.57881">
        <ele>636.4</ele>
        <time>2025-08-06T08:45:33Z</time>
      </trkpt>
      <trkpt lat="45.69918" lon="4.57873">
        <ele>636.2</ele>
        <time>2025-08-06T08:45:34Z</time>
      </trkpt>
      <trkpt lat="45.6992" lon="4.57865">
        <ele>636</ele>
        <time>2025-08-06T08:45:35Z</time>
      </trkpt>
      <trkpt lat="45.69924" lon="4.57858">
        <ele>635.8</ele>
        <time>2025-08-06T08:45:36Z</time>
      </trkpt>
      <trkpt lat="45.69926" lon="4.57851">
        <ele>635.8</ele>
        <time>2025-08-06T08:45:37Z</time>
      </trkpt>
      <trkpt lat="45.69926" lon="4.57844">
        <ele>635.8</ele>
        <time>2025-08-06T08:45:38Z</time>
      </trkpt>
      <trkpt lat="45.69928" lon="4.57837">
        <ele>635.8</ele>
        <time>2025-08-06T08:45:39Z</time>
      </trkpt>
      <trkpt lat="45.69929" lon="4.5783">
        <ele>635.8</ele>
        <time>2025-08-06T08:45:40Z</time>
      </trkpt>
      <trkpt lat="45.6993" lon="4.57823">
        <ele>635.8</ele>
        <time>2025-08-06T08:45:41Z</time>
      </trkpt>
      <trkpt lat="45.69928" lon="4.57816">
        <ele>635.8</ele>
        <time>2025-08-06T08:45:42Z</time>
      </trkpt>
      <trkpt lat="45.69931" lon="4.57811">
        <ele>636</ele>
        <time>2025-08-06T08:45:43Z</time>
      </trkpt>
      <trkpt lat="45.69933" lon="4.57807">
        <ele>636</ele>
        <time>2025-08-06T08:45:44Z</time>
      </trkpt>
      <trkpt lat="45.69935" lon="4.57802">
        <ele>636.2</ele>
        <time>2025-08-06T08:45:45Z</time>
      </trkpt>
      <trkpt lat="45.69936" lon="4.57798">
        <ele>636.2</ele>
        <time>2025-08-06T08:45:46Z</time>
      </trkpt>
      <trkpt lat="45.69938" lon="4.57794">
        <ele>636.2</ele>
        <time>2025-08-06T08:45:47Z</time>
      </trkpt>
      <trkpt lat="45.69941" lon="4.57791">
        <ele>636.2</ele>
        <time>2025-08-06T08:45:48Z</time>
      </trkpt>
      <trkpt lat="45.69943" lon="4.57787">
        <ele>636.2</ele>
        <time>2025-08-06T08:45:49Z</time>
      </trkpt>
      <trkpt lat="45.69945" lon="4.57783">
        <ele>636</ele>
        <time>2025-08-06T08:45:50Z</time>
      </trkpt>
      <trkpt lat="45.69947" lon="4.57779">
        <ele>635.8</ele>
        <time>2025-08-06T08:45:51Z</time>
      </trkpt>
      <trkpt lat="45.69949" lon="4.57774">
        <ele>635.6</ele>
        <time>2025-08-06T08:45:52Z</time>
      </trkpt>
      <trkpt lat="45.69951" lon="4.57769">
        <ele>635.6</ele>
        <time>2025-08-06T08:45:53Z</time>
      </trkpt>
      <trkpt lat="45.69954" lon="4.57765">
        <ele>635.6</ele>
        <time>2025-08-06T08:45:54Z</time>
      </trkpt>
      <trkpt lat="45.69955" lon="4.5776">
        <ele>635.6</ele>
        <time>2025-08-06T08:45:55Z</time>
      </trkpt>
      <trkpt lat="45.69957" lon="4.57755">
        <ele>635.8</ele>
        <time>2025-08-06T08:45:56Z</time>
      </trkpt>
      <trkpt lat="45.69958" lon="4.5775">
        <ele>636</ele>
        <time>2025-08-06T08:45:57Z</time>
      </trkpt>
      <trkpt lat="45.69959" lon="4.57746">
        <ele>636.4</ele>
        <time>2025-08-06T08:45:58Z</time>
      </trkpt>
      <trkpt lat="45.69961" lon="4.57741">
        <ele>636.6</ele>
        <time>2025-08-06T08:45:59Z</time>
      </trkpt>
      <trkpt lat="45.69962" lon="4.57736">
        <ele>636.8</ele>
        <time>2025-08-06T08:46:00Z</time>
      </trkpt>
      <trkpt lat="45.69963" lon="4.57731">
        <ele>637</ele>
        <time>2025-08-06T08:46:01Z</time>
      </trkpt>
      <trkpt lat="45.69964" lon="4.57727">
        <ele>637.2</ele>
        <time>2025-08-06T08:46:02Z</time>
      </trkpt>
      <trkpt lat="45.69965" lon="4.57723">
        <ele>637.6</ele>
        <time>2025-08-06T08:46:03Z</time>
      </trkpt>
      <trkpt lat="45.69965" lon="4.57718">
        <ele>637.8</ele>
        <time>2025-08-06T08:46:04Z</time>
      </trkpt>
      <trkpt lat="45.69966" lon="4.57714">
        <ele>638.4</ele>
        <time>2025-08-06T08:46:05Z</time>
      </trkpt>
      <trkpt lat="45.69967" lon="4.5771">
        <ele>638.8</ele>
        <time>2025-08-06T08:46:06Z</time>
      </trkpt>
      <trkpt lat="45.69968" lon="4.57706">
        <ele>639</ele>
        <time>2025-08-06T08:46:07Z</time>
      </trkpt>
      <trkpt lat="45.69968" lon="4.57702">
        <ele>639</ele>
        <time>2025-08-06T08:46:08Z</time>
      </trkpt>
      <trkpt lat="45.69969" lon="4.57697">
        <ele>639</ele>
        <time>2025-08-06T08:46:09Z</time>
      </trkpt>
      <trkpt lat="45.6997" lon="4.57692">
        <ele>638.6</ele>
        <time>2025-08-06T08:46:10Z</time>
      </trkpt>
      <trkpt lat="45.69972" lon="4.57686">
        <ele>638.2</ele>
        <time>2025-08-06T08:46:11Z</time>
      </trkpt>
      <trkpt lat="45.69975" lon="4.57682">
        <ele>637.8</ele>
        <time>2025-08-06T08:46:12Z</time>
      </trkpt>
      <trkpt lat="45.69979" lon="4.57678">
        <ele>637.2</ele>
        <time>2025-08-06T08:46:13Z</time>
      </trkpt>
      <trkpt lat="45.69982" lon="4.57674">
        <ele>636.8</ele>
        <time>2025-08-06T08:46:14Z</time>
      </trkpt>
      <trkpt lat="45.69985" lon="4.5767">
        <ele>636.2</ele>
        <time>2025-08-06T08:46:15Z</time>
      </trkpt>
      <trkpt lat="45.69988" lon="4.57666">
        <ele>635.8</ele>
        <time>2025-08-06T08:46:16Z</time>
      </trkpt>
      <trkpt lat="45.6999" lon="4.57662">
        <ele>635.4</ele>
        <time>2025-08-06T08:46:17Z</time>
      </trkpt>
      <trkpt lat="45.69993" lon="4.5766">
        <ele>635.2</ele>
        <time>2025-08-06T08:46:18Z</time>
      </trkpt>
      <trkpt lat="45.69996" lon="4.57659">
        <ele>635</ele>
        <time>2025-08-06T08:46:19Z</time>
      </trkpt>
      <trkpt lat="45.69999" lon="4.57659">
        <ele>635</ele>
        <time>2025-08-06T08:46:20Z</time>
      </trkpt>
      <trkpt lat="45.70002" lon="4.5766">
        <ele>635.2</ele>
        <time>2025-08-06T08:46:21Z</time>
      </trkpt>
      <trkpt lat="45.70004" lon="4.57662">
        <ele>635.6</ele>
        <time>2025-08-06T08:46:22Z</time>
      </trkpt>
      <trkpt lat="45.70006" lon="4.57665">
        <ele>636</ele>
        <time>2025-08-06T08:46:23Z</time>
      </trkpt>
      <trkpt lat="45.70008" lon="4.57667">
        <ele>636.4</ele>
        <time>2025-08-06T08:46:24Z</time>
      </trkpt>
      <trkpt lat="45.7001" lon="4.57671">
        <ele>637</ele>
        <time>2025-08-06T08:46:25Z</time>
      </trkpt>
      <trkpt lat="45.70011" lon="4.57675">
        <ele>637.4</ele>
        <time>2025-08-06T08:46:26Z</time>
      </trkpt>
      <trkpt lat="45.70012" lon="4.57678">
        <ele>638</ele>
        <time>2025-08-06T08:46:27Z</time>
      </trkpt>
      <trkpt lat="45.70013" lon="4.57682">
        <ele>638.4</ele>
        <time>2025-08-06T08:46:28Z</time>
      </trkpt>
      <trkpt lat="45.70014" lon="4.57686">
        <ele>638.8</ele>
        <time>2025-08-06T08:46:29Z</time>
      </trkpt>
      <trkpt lat="45.70015" lon="4.5769">
        <ele>639</ele>
        <time>2025-08-06T08:46:30Z</time>
      </trkpt>
      <trkpt lat="45.70016" lon="4.57694">
        <ele>639.4</ele>
        <time>2025-08-06T08:46:31Z</time>
      </trkpt>
      <trkpt lat="45.70017" lon="4.57698">
        <ele>639.6</ele>
        <time>2025-08-06T08:46:32Z</time>
      </trkpt>
      <trkpt lat="45.70018" lon="4.57702">
        <ele>640</ele>
        <time>2025-08-06T08:46:33Z</time>
      </trkpt>
      <trkpt lat="45.70019" lon="4.57706">
        <ele>640.2</ele>
        <time>2025-08-06T08:46:34Z</time>
      </trkpt>
      <trkpt lat="45.7002" lon="4.5771">
        <ele>640.6</ele>
        <time>2025-08-06T08:46:35Z</time>
      </trkpt>
      <trkpt lat="45.7002" lon="4.57713">
        <ele>640.8</ele>
        <time>2025-08-06T08:46:36Z</time>
      </trkpt>
      <trkpt lat="45.70021" lon="4.57717">
        <ele>641.2</ele>
        <time>2025-08-06T08:46:37Z</time>
      </trkpt>
      <trkpt lat="45.70022" lon="4.57721">
        <ele>641.4</ele>
        <time>2025-08-06T08:46:38Z</time>
      </trkpt>
      <trkpt lat="45.70022" lon="4.57724">
        <ele>641.8</ele>
        <time>2025-08-06T08:46:39Z</time>
      </trkpt>
      <trkpt lat="45.70023" lon="4.57728">
        <ele>642</ele>
        <time>2025-08-06T08:46:40Z</time>
      </trkpt>
      <trkpt lat="45.70023" lon="4.57732">
        <ele>642.4</ele>
        <time>2025-08-06T08:46:41Z</time>
      </trkpt>
      <trkpt lat="45.70024" lon="4.57735">
        <ele>642.6</ele>
        <time>2025-08-06T08:46:42Z</time>
      </trkpt>
      <trkpt lat="45.70025" lon="4.57739">
        <ele>643</ele>
        <time>2025-08-06T08:46:43Z</time>
      </trkpt>
      <trkpt lat="45.70026" lon="4.57742">
        <ele>643.4</ele>
        <time>2025-08-06T08:46:44Z</time>
      </trkpt>
      <trkpt lat="45.70026" lon="4.57745">
        <ele>643.6</ele>
        <time>2025-08-06T08:46:45Z</time>
      </trkpt>
      <trkpt lat="45.70027" lon="4.57749">
        <ele>644</ele>
        <time>2025-08-06T08:46:46Z</time>
      </trkpt>
      <trkpt lat="45.70027" lon="4.57752">
        <ele>644.4</ele>
        <time>2025-08-06T08:46:47Z</time>
      </trkpt>
      <trkpt lat="45.70028" lon="4.57756">
        <ele>644.8</ele>
        <time>2025-08-06T08:46:48Z</time>
      </trkpt>
      <trkpt lat="45.70028" lon="4.57759">
        <ele>645</ele>
        <time>2025-08-06T08:46:49Z</time>
      </trkpt>
      <trkpt lat="45.70029" lon="4.57762">
        <ele>645.4</ele>
        <time>2025-08-06T08:46:50Z</time>
      </trkpt>
      <trkpt lat="45.7003" lon="4.57765">
        <ele>645.8</ele>
        <time>2025-08-06T08:46:51Z</time>
      </trkpt>
      <trkpt lat="45.7003" lon="4.57768">
        <ele>646</ele>
        <time>2025-08-06T08:46:52Z</time>
      </trkpt>
      <trkpt lat="45.70031" lon="4.57771">
        <ele>646.4</ele>
        <time>2025-08-06T08:46:53Z</time>
      </trkpt>
      <trkpt lat="45.70031" lon="4.57774">
        <ele>646.8</ele>
        <time>2025-08-06T08:46:54Z</time>
      </trkpt>
      <trkpt lat="45.70032" lon="4.57777">
        <ele>647.2</ele>
        <time>2025-08-06T08:46:55Z</time>
      </trkpt>
      <trkpt lat="45.70033" lon="4.5778">
        <ele>647.6</ele>
        <time>2025-08-06T08:46:56Z</time>
      </trkpt>
      <trkpt lat="45.70033" lon="4.57783">
        <ele>648</ele>
        <time>2025-08-06T08:46:57Z</time>
      </trkpt>
      <trkpt lat="45.70034" lon="4.57786">
        <ele>648.4</ele>
        <time>2025-08-06T08:46:58Z</time>
      </trkpt>
      <trkpt lat="45.70035" lon="4.57789">
        <ele>648.6</ele>
        <time>2025-08-06T08:46:59Z</time>
      </trkpt>
      <trkpt lat="45.70036" lon="4.57792">
        <ele>649</ele>
        <time>2025-08-06T08:47:00Z</time>
      </trkpt>
      <trkpt lat="45.70038" lon="4.57795">
        <ele>649.4</ele>
        <time>2025-08-06T08:47:01Z</time>
      </trkpt>
      <trkpt lat="45.70039" lon="4.57797">
        <ele>649.8</ele>
        <time>2025-08-06T08:47:02Z</time>
      </trkpt>
      <trkpt lat="45.70041" lon="4.57799">
        <ele>650</ele>
        <time>2025-08-06T08:47:03Z</time>
      </trkpt>
      <trkpt lat="45.70044" lon="4.578">
        <ele>650.4</ele>
        <time>2025-08-06T08:47:04Z</time>
      </trkpt>
      <trkpt lat="45.70046" lon="4.57801">
        <ele>650.8</ele>
        <time>2025-08-06T08:47:05Z</time>
      </trkpt>
      <trkpt lat="45.70049" lon="4.57803">
        <ele>651</ele>
        <time>2025-08-06T08:47:06Z</time>
      </trkpt>
      <trkpt lat="45.70051" lon="4.57806">
        <ele>651.2</ele>
        <time>2025-08-06T08:47:07Z</time>
      </trkpt>
      <trkpt lat="45.70055" lon="4.57809">
        <ele>651.4</ele>
        <time>2025-08-06T08:47:08Z</time>
      </trkpt>
      <trkpt lat="45.70057" lon="4.57812">
        <ele>651.4</ele>
        <time>2025-08-06T08:47:09Z</time>
      </trkpt>
      <trkpt lat="45.7006" lon="4.57815">
        <ele>651.6</ele>
        <time>2025-08-06T08:47:10Z</time>
      </trkpt>
      <trkpt lat="45.70062" lon="4.57819">
        <ele>651.8</ele>
        <time>2025-08-06T08:47:11Z</time>
      </trkpt>
      <trkpt lat="45.70064" lon="4.57823">
        <ele>651.8</ele>
        <time>2025-08-06T08:47:12Z</time>
      </trkpt>
      <trkpt lat="45.70065" lon="4.57827">
        <ele>652</ele>
        <time>2025-08-06T08:47:13Z</time>
      </trkpt>
      <trkpt lat="45.70067" lon="4.57831">
        <ele>652.2</ele>
        <time>2025-08-06T08:47:14Z</time>
      </trkpt>
      <trkpt lat="45.70069" lon="4.57835">
        <ele>652.4</ele>
        <time>2025-08-06T08:47:15Z</time>
      </trkpt>
      <trkpt lat="45.70071" lon="4.57839">
        <ele>652.6</ele>
        <time>2025-08-06T08:47:16Z</time>
      </trkpt>
      <trkpt lat="45.70072" lon="4.57843">
        <ele>652.8</ele>
        <time>2025-08-06T08:47:17Z</time>
      </trkpt>
      <trkpt lat="45.70073" lon="4.57845">
        <ele>653</ele>
        <time>2025-08-06T08:47:18Z</time>
      </trkpt>
      <trkpt lat="45.70074" lon="4.57848">
        <ele>653.2</ele>
        <time>2025-08-06T08:47:19Z</time>
      </trkpt>
      <trkpt lat="45.70075" lon="4.57849">
        <ele>653.4</ele>
        <time>2025-08-06T08:47:20Z</time>
      </trkpt>
      <trkpt lat="45.70075" lon="4.57852">
        <ele>653.6</ele>
        <time>2025-08-06T08:47:21Z</time>
      </trkpt>
      <trkpt lat="45.70075" lon="4.57855">
        <ele>653.8</ele>
        <time>2025-08-06T08:47:22Z</time>
      </trkpt>
      <trkpt lat="45.70076" lon="4.57859">
        <ele>653.8</ele>
        <time>2025-08-06T08:47:23Z</time>
      </trkpt>
      <trkpt lat="45.70077" lon="4.57864">
        <ele>653.8</ele>
        <time>2025-08-06T08:47:24Z</time>
      </trkpt>
      <trkpt lat="45.70079" lon="4.57868">
        <ele>654</ele>
        <time>2025-08-06T08:47:25Z</time>
      </trkpt>
      <trkpt lat="45.7008" lon="4.57873">
        <ele>654</ele>
        <time>2025-08-06T08:47:26Z</time>
      </trkpt>
      <trkpt lat="45.70082" lon="4.57877">
        <ele>654</ele>
        <time>2025-08-06T08:47:27Z</time>
      </trkpt>
      <trkpt lat="45.70083" lon="4.57882">
        <ele>654.2</ele>
        <time>2025-08-06T08:47:28Z</time>
      </trkpt>
      <trkpt lat="45.70085" lon="4.57886">
        <ele>654.4</ele>
        <time>2025-08-06T08:47:29Z</time>
      </trkpt>
      <trkpt lat="45.70086" lon="4.57891">
        <ele>654.6</ele>
        <time>2025-08-06T08:47:30Z</time>
      </trkpt>
      <trkpt lat="45.70087" lon="4.57895">
        <ele>654.8</ele>
        <time>2025-08-06T08:47:31Z</time>
      </trkpt>
      <trkpt lat="45.70089" lon="4.579">
        <ele>655</ele>
        <time>2025-08-06T08:47:32Z</time>
      </trkpt>
      <trkpt lat="45.7009" lon="4.57904">
        <ele>655.2</ele>
        <time>2025-08-06T08:47:33Z</time>
      </trkpt>
      <trkpt lat="45.70092" lon="4.57909">
        <ele>655.4</ele>
        <time>2025-08-06T08:47:34Z</time>
      </trkpt>
      <trkpt lat="45.70093" lon="4.57913">
        <ele>655.4</ele>
        <time>2025-08-06T08:47:35Z</time>
      </trkpt>
      <trkpt lat="45.70095" lon="4.57918">
        <ele>655.6</ele>
        <time>2025-08-06T08:47:36Z</time>
      </trkpt>
      <trkpt lat="45.70096" lon="4.57923">
        <ele>655.8</ele>
        <time>2025-08-06T08:47:37Z</time>
      </trkpt>
      <trkpt lat="45.70097" lon="4.57929">
        <ele>655.8</ele>
        <time>2025-08-06T08:47:38Z</time>
      </trkpt>
      <trkpt lat="45.70099" lon="4.57934">
        <ele>656</ele>
        <time>2025-08-06T08:47:39Z</time>
      </trkpt>
      <trkpt lat="45.701" lon="4.57939">
        <ele>656.2</ele>
        <time>2025-08-06T08:47:40Z</time>
      </trkpt>
      <trkpt lat="45.70102" lon="4.57944">
        <ele>656.2</ele>
        <time>2025-08-06T08:47:41Z</time>
      </trkpt>
      <trkpt lat="45.70103" lon="4.57949">
        <ele>656.4</ele>
        <time>2025-08-06T08:47:42Z</time>
      </trkpt>
      <trkpt lat="45.70104" lon="4.57954">
        <ele>656.4</ele>
        <time>2025-08-06T08:47:43Z</time>
      </trkpt>
      <trkpt lat="45.70106" lon="4.57959">
        <ele>656.6</ele>
        <time>2025-08-06T08:47:44Z</time>
      </trkpt>
      <trkpt lat="45.70107" lon="4.57964">
        <ele>657</ele>
        <time>2025-08-06T08:47:45Z</time>
      </trkpt>
      <trkpt lat="45.70107" lon="4.57969">
        <ele>657.2</ele>
        <time>2025-08-06T08:47:46Z</time>
      </trkpt>
      <trkpt lat="45.70108" lon="4.57973">
        <ele>657.4</ele>
        <time>2025-08-06T08:47:47Z</time>
      </trkpt>
      <trkpt lat="45.7011" lon="4.57978">
        <ele>657.6</ele>
        <time>2025-08-06T08:47:48Z</time>
      </trkpt>
      <trkpt lat="45.70111" lon="4.57983">
        <ele>658</ele>
        <time>2025-08-06T08:47:49Z</time>
      </trkpt>
      <trkpt lat="45.70112" lon="4.57987">
        <ele>658.2</ele>
        <time>2025-08-06T08:47:50Z</time>
      </trkpt>
      <trkpt lat="45.70113" lon="4.57992">
        <ele>658.4</ele>
        <time>2025-08-06T08:47:51Z</time>
      </trkpt>
      <trkpt lat="45.70115" lon="4.57997">
        <ele>658.8</ele>
        <time>2025-08-06T08:47:52Z</time>
      </trkpt>
      <trkpt lat="45.70116" lon="4.58002">
        <ele>659</ele>
        <time>2025-08-06T08:47:53Z</time>
      </trkpt>
      <trkpt lat="45.70117" lon="4.58007">
        <ele>659.2</ele>
        <time>2025-08-06T08:47:54Z</time>
      </trkpt>
      <trkpt lat="45.70119" lon="4.58012">
        <ele>659.4</ele>
        <time>2025-08-06T08:47:55Z</time>
      </trkpt>
      <trkpt lat="45.7012" lon="4.58017">
        <ele>659.6</ele>
        <time>2025-08-06T08:47:56Z</time>
      </trkpt>
      <trkpt lat="45.70122" lon="4.58022">
        <ele>659.6</ele>
        <time>2025-08-06T08:47:57Z</time>
      </trkpt>
      <trkpt lat="45.70123" lon="4.58027">
        <ele>659.6</ele>
        <time>2025-08-06T08:47:58Z</time>
      </trkpt>
      <trkpt lat="45.70124" lon="4.58032">
        <ele>659.8</ele>
        <time>2025-08-06T08:47:59Z</time>
      </trkpt>
      <trkpt lat="45.70125" lon="4.58038">
        <ele>659.8</ele>
        <time>2025-08-06T08:48:00Z</time>
      </trkpt>
      <trkpt lat="45.70127" lon="4.58043">
        <ele>660</ele>
        <time>2025-08-06T08:48:01Z</time>
      </trkpt>
      <trkpt lat="45.70128" lon="4.58048">
        <ele>660</ele>
        <time>2025-08-06T08:48:02Z</time>
      </trkpt>
      <trkpt lat="45.70129" lon="4.58054">
        <ele>660</ele>
        <time>2025-08-06T08:48:03Z</time>
      </trkpt>
      <trkpt lat="45.7013" lon="4.5806">
        <ele>659.8</ele>
        <time>2025-08-06T08:48:04Z</time>
      </trkpt>
      <trkpt lat="45.70132" lon="4.58066">
        <ele>659.6</ele>
        <time>2025-08-06T08:48:05Z</time>
      </trkpt>
      <trkpt lat="45.70133" lon="4.58072">
        <ele>659.2</ele>
        <time>2025-08-06T08:48:06Z</time>
      </trkpt>
      <trkpt lat="45.70134" lon="4.58079">
        <ele>658.8</ele>
        <time>2025-08-06T08:48:07Z</time>
      </trkpt>
      <trkpt lat="45.70136" lon="4.58087">
        <ele>658.2</ele>
        <time>2025-08-06T08:48:08Z</time>
      </trkpt>
      <trkpt lat="45.70137" lon="4.58095">
        <ele>657.6</ele>
        <time>2025-08-06T08:48:09Z</time>
      </trkpt>
      <trkpt lat="45.70139" lon="4.58103">
        <ele>657.2</ele>
        <time>2025-08-06T08:48:10Z</time>
      </trkpt>
      <trkpt lat="45.70139" lon="4.58112">
        <ele>656.8</ele>
        <time>2025-08-06T08:48:11Z</time>
      </trkpt>
      <trkpt lat="45.70139" lon="4.58121">
        <ele>656.4</ele>
        <time>2025-08-06T08:48:12Z</time>
      </trkpt>
      <trkpt lat="45.70138" lon="4.58129">
        <ele>656.2</ele>
        <time>2025-08-06T08:48:13Z</time>
      </trkpt>
      <trkpt lat="45.70137" lon="4.58136">
        <ele>656.2</ele>
        <time>2025-08-06T08:48:14Z</time>
      </trkpt>
      <trkpt lat="45.70136" lon="4.58143">
        <ele>656.2</ele>
        <time>2025-08-06T08:48:15Z</time>
      </trkpt>
      <trkpt lat="45.70136" lon="4.5815">
        <ele>656.4</ele>
        <time>2025-08-06T08:48:16Z</time>
      </trkpt>
      <trkpt lat="45.70135" lon="4.58155">
        <ele>656.6</ele>
        <time>2025-08-06T08:48:17Z</time>
      </trkpt>
      <trkpt lat="45.70134" lon="4.58161">
        <ele>656.8</ele>
        <time>2025-08-06T08:48:18Z</time>
      </trkpt>
      <trkpt lat="45.70134" lon="4.58167">
        <ele>657.2</ele>
        <time>2025-08-06T08:48:19Z</time>
      </trkpt>
      <trkpt lat="45.70133" lon="4.58172">
        <ele>657.4</ele>
        <time>2025-08-06T08:48:20Z</time>
      </trkpt>
      <trkpt lat="45.70133" lon="4.58177">
        <ele>657.8</ele>
        <time>2025-08-06T08:48:21Z</time>
      </trkpt>
      <trkpt lat="45.70132" lon="4.58182">
        <ele>658.2</ele>
        <time>2025-08-06T08:48:22Z</time>
      </trkpt>
      <trkpt lat="45.70131" lon="4.58187">
        <ele>658.6</ele>
        <time>2025-08-06T08:48:23Z</time>
      </trkpt>
      <trkpt lat="45.70131" lon="4.58191">
        <ele>659</ele>
        <time>2025-08-06T08:48:24Z</time>
      </trkpt>
      <trkpt lat="45.70131" lon="4.58196">
        <ele>659.4</ele>
        <time>2025-08-06T08:48:25Z</time>
      </trkpt>
      <trkpt lat="45.70131" lon="4.58201">
        <ele>659.8</ele>
        <time>2025-08-06T08:48:26Z</time>
      </trkpt>
      <trkpt lat="45.70131" lon="4.58206">
        <ele>660.2</ele>
        <time>2025-08-06T08:48:27Z</time>
      </trkpt>
      <trkpt lat="45.70131" lon="4.58211">
        <ele>660.6</ele>
        <time>2025-08-06T08:48:28Z</time>
      </trkpt>
      <trkpt lat="45.70131" lon="4.58215">
        <ele>661</ele>
        <time>2025-08-06T08:48:29Z</time>
      </trkpt>
      <trkpt lat="45.70131" lon="4.5822">
        <ele>661.6</ele>
        <time>2025-08-06T08:48:30Z</time>
      </trkpt>
      <trkpt lat="45.70131" lon="4.58225">
        <ele>662</ele>
        <time>2025-08-06T08:48:31Z</time>
      </trkpt>
      <trkpt lat="45.70132" lon="4.5823">
        <ele>662.4</ele>
        <time>2025-08-06T08:48:32Z</time>
      </trkpt>
      <trkpt lat="45.70132" lon="4.58235">
        <ele>662.8</ele>
        <time>2025-08-06T08:48:33Z</time>
      </trkpt>
      <trkpt lat="45.70132" lon="4.5824">
        <ele>663.2</ele>
        <time>2025-08-06T08:48:34Z</time>
      </trkpt>
      <trkpt lat="45.70133" lon="4.58244">
        <ele>663.4</ele>
        <time>2025-08-06T08:48:35Z</time>
      </trkpt>
      <trkpt lat="45.70134" lon="4.58249">
        <ele>663.8</ele>
        <time>2025-08-06T08:48:36Z</time>
      </trkpt>
      <trkpt lat="45.70135" lon="4.58254">
        <ele>664.2</ele>
        <time>2025-08-06T08:48:37Z</time>
      </trkpt>
      <trkpt lat="45.70136" lon="4.58258">
        <ele>664.8</ele>
        <time>2025-08-06T08:48:38Z</time>
      </trkpt>
      <trkpt lat="45.70137" lon="4.58262">
        <ele>665.2</ele>
        <time>2025-08-06T08:48:39Z</time>
      </trkpt>
      <trkpt lat="45.70139" lon="4.58266">
        <ele>665.6</ele>
        <time>2025-08-06T08:48:40Z</time>
      </trkpt>
      <trkpt lat="45.7014" lon="4.58271">
        <ele>666</ele>
        <time>2025-08-06T08:48:41Z</time>
      </trkpt>
      <trkpt lat="45.70141" lon="4.58275">
        <ele>666.4</ele>
        <time>2025-08-06T08:48:42Z</time>
      </trkpt>
      <trkpt lat="45.70142" lon="4.58279">
        <ele>667</ele>
        <time>2025-08-06T08:48:43Z</time>
      </trkpt>
      <trkpt lat="45.70143" lon="4.58284">
        <ele>667.2</ele>
        <time>2025-08-06T08:48:44Z</time>
      </trkpt>
      <trkpt lat="45.70145" lon="4.58289">
        <ele>667.6</ele>
        <time>2025-08-06T08:48:45Z</time>
      </trkpt>
      <trkpt lat="45.70146" lon="4.58294">
        <ele>668</ele>
        <time>2025-08-06T08:48:46Z</time>
      </trkpt>
      <trkpt lat="45.70148" lon="4.58298">
        <ele>668.2</ele>
        <time>2025-08-06T08:48:47Z</time>
      </trkpt>
      <trkpt lat="45.70149" lon="4.58303">
        <ele>668.6</ele>
        <time>2025-08-06T08:48:48Z</time>
      </trkpt>
      <trkpt lat="45.70151" lon="4.58308">
        <ele>668.8</ele>
        <time>2025-08-06T08:48:49Z</time>
      </trkpt>
      <trkpt lat="45.70152" lon="4.58313">
        <ele>669</ele>
        <time>2025-08-06T08:48:50Z</time>
      </trkpt>
      <trkpt lat="45.70153" lon="4.58318">
        <ele>669.4</ele>
        <time>2025-08-06T08:48:51Z</time>
      </trkpt>
      <trkpt lat="45.70155" lon="4.58323">
        <ele>669.6</ele>
        <time>2025-08-06T08:48:52Z</time>
      </trkpt>
      <trkpt lat="45.70156" lon="4.58327">
        <ele>669.8</ele>
        <time>2025-08-06T08:48:53Z</time>
      </trkpt>
      <trkpt lat="45.70158" lon="4.58332">
        <ele>670.2</ele>
        <time>2025-08-06T08:48:54Z</time>
      </trkpt>
      <trkpt lat="45.7016" lon="4.58336">
        <ele>670.4</ele>
        <time>2025-08-06T08:48:55Z</time>
      </trkpt>
      <trkpt lat="45.70162" lon="4.58341">
        <ele>670.6</ele>
        <time>2025-08-06T08:48:56Z</time>
      </trkpt>
      <trkpt lat="45.70164" lon="4.58345">
        <ele>671</ele>
        <time>2025-08-06T08:48:57Z</time>
      </trkpt>
      <trkpt lat="45.70166" lon="4.58349">
        <ele>671.2</ele>
        <time>2025-08-06T08:48:58Z</time>
      </trkpt>
      <trkpt lat="45.70169" lon="4.58353">
        <ele>671.6</ele>
        <time>2025-08-06T08:48:59Z</time>
      </trkpt>
      <trkpt lat="45.70171" lon="4.58357">
        <ele>671.8</ele>
        <time>2025-08-06T08:49:00Z</time>
      </trkpt>
      <trkpt lat="45.70174" lon="4.58361">
        <ele>672.2</ele>
        <time>2025-08-06T08:49:01Z</time>
      </trkpt>
      <trkpt lat="45.70176" lon="4.58365">
        <ele>672.6</ele>
        <time>2025-08-06T08:49:02Z</time>
      </trkpt>
      <trkpt lat="45.70178" lon="4.58369">
        <ele>672.8</ele>
        <time>2025-08-06T08:49:03Z</time>
      </trkpt>
      <trkpt lat="45.7018" lon="4.58372">
        <ele>673.2</ele>
        <time>2025-08-06T08:49:04Z</time>
      </trkpt>
      <trkpt lat="45.70183" lon="4.58376">
        <ele>673.4</ele>
        <time>2025-08-06T08:49:05Z</time>
      </trkpt>
      <trkpt lat="45.70185" lon="4.58379">
        <ele>673.6</ele>
        <time>2025-08-06T08:49:06Z</time>
      </trkpt>
      <trkpt lat="45.70187" lon="4.58383">
        <ele>674</ele>
        <time>2025-08-06T08:49:07Z</time>
      </trkpt>
      <trkpt lat="45.7019" lon="4.58385">
        <ele>674.2</ele>
        <time>2025-08-06T08:49:08Z</time>
      </trkpt>
      <trkpt lat="45.70192" lon="4.58388">
        <ele>674.4</ele>
        <time>2025-08-06T08:49:09Z</time>
      </trkpt>
      <trkpt lat="45.70195" lon="4.58391">
        <ele>674.6</ele>
        <time>2025-08-06T08:49:10Z</time>
      </trkpt>
      <trkpt lat="45.70197" lon="4.58394">
        <ele>675</ele>
        <time>2025-08-06T08:49:11Z</time>
      </trkpt>
      <trkpt lat="45.70199" lon="4.58398">
        <ele>675.2</ele>
        <time>2025-08-06T08:49:12Z</time>
      </trkpt>
      <trkpt lat="45.70201" lon="4.58401">
        <ele>675.6</ele>
        <time>2025-08-06T08:49:13Z</time>
      </trkpt>
      <trkpt lat="45.70203" lon="4.58403">
        <ele>675.8</ele>
        <time>2025-08-06T08:49:14Z</time>
      </trkpt>
      <trkpt lat="45.70206" lon="4.58406">
        <ele>676.2</ele>
        <time>2025-08-06T08:49:15Z</time>
      </trkpt>
      <trkpt lat="45.70208" lon="4.58409">
        <ele>676.4</ele>
        <time>2025-08-06T08:49:16Z</time>
      </trkpt>
      <trkpt lat="45.70211" lon="4.58413">
        <ele>676.6</ele>
        <time>2025-08-06T08:49:17Z</time>
      </trkpt>
      <trkpt lat="45.70213" lon="4.58416">
        <ele>677</ele>
        <time>2025-08-06T08:49:18Z</time>
      </trkpt>
      <trkpt lat="45.70215" lon="4.5842">
        <ele>677.4</ele>
        <time>2025-08-06T08:49:19Z</time>
      </trkpt>
      <trkpt lat="45.70217" lon="4.58424">
        <ele>677.8</ele>
        <time>2025-08-06T08:49:20Z</time>
      </trkpt>
      <trkpt lat="45.70219" lon="4.58429">
        <ele>678.2</ele>
        <time>2025-08-06T08:49:21Z</time>
      </trkpt>
      <trkpt lat="45.70221" lon="4.58432">
        <ele>678.6</ele>
        <time>2025-08-06T08:49:22Z</time>
      </trkpt>
      <trkpt lat="45.70223" lon="4.58436">
        <ele>679</ele>
        <time>2025-08-06T08:49:23Z</time>
      </trkpt>
      <trkpt lat="45.70225" lon="4.58439">
        <ele>679.4</ele>
        <time>2025-08-06T08:49:24Z</time>
      </trkpt>
      <trkpt lat="45.70226" lon="4.58443">
        <ele>679.6</ele>
        <time>2025-08-06T08:49:25Z</time>
      </trkpt>
      <trkpt lat="45.70228" lon="4.58447">
        <ele>680</ele>
        <time>2025-08-06T08:49:26Z</time>
      </trkpt>
      <trkpt lat="45.70229" lon="4.58451">
        <ele>680.4</ele>
        <time>2025-08-06T08:49:27Z</time>
      </trkpt>
      <trkpt lat="45.70231" lon="4.58454">
        <ele>680.8</ele>
        <time>2025-08-06T08:49:28Z</time>
      </trkpt>
      <trkpt lat="45.70232" lon="4.58458">
        <ele>681.2</ele>
        <time>2025-08-06T08:49:29Z</time>
      </trkpt>
      <trkpt lat="45.70234" lon="4.58461">
        <ele>681.6</ele>
        <time>2025-08-06T08:49:30Z</time>
      </trkpt>
      <trkpt lat="45.70235" lon="4.58465">
        <ele>682</ele>
        <time>2025-08-06T08:49:31Z</time>
      </trkpt>
      <trkpt lat="45.70237" lon="4.58468">
        <ele>682.4</ele>
        <time>2025-08-06T08:49:32Z</time>
      </trkpt>
      <trkpt lat="45.70238" lon="4.58472">
        <ele>682.8</ele>
        <time>2025-08-06T08:49:33Z</time>
      </trkpt>
      <trkpt lat="45.7024" lon="4.58475">
        <ele>683</ele>
        <time>2025-08-06T08:49:34Z</time>
      </trkpt>
      <trkpt lat="45.70242" lon="4.58478">
        <ele>683.4</ele>
        <time>2025-08-06T08:49:35Z</time>
      </trkpt>
      <trkpt lat="45.70243" lon="4.58481">
        <ele>683.8</ele>
        <time>2025-08-06T08:49:36Z</time>
      </trkpt>
      <trkpt lat="45.70245" lon="4.58484">
        <ele>684.2</ele>
        <time>2025-08-06T08:49:37Z</time>
      </trkpt>
      <trkpt lat="45.70246" lon="4.58487">
        <ele>684.6</ele>
        <time>2025-08-06T08:49:38Z</time>
      </trkpt>
      <trkpt lat="45.70248" lon="4.58489">
        <ele>685</ele>
        <time>2025-08-06T08:49:39Z</time>
      </trkpt>
      <trkpt lat="45.7025" lon="4.58492">
        <ele>685.4</ele>
        <time>2025-08-06T08:49:40Z</time>
      </trkpt>
      <trkpt lat="45.70251" lon="4.58494">
        <ele>685.8</ele>
        <time>2025-08-06T08:49:41Z</time>
      </trkpt>
      <trkpt lat="45.70253" lon="4.58497">
        <ele>686.2</ele>
        <time>2025-08-06T08:49:42Z</time>
      </trkpt>
      <trkpt lat="45.70256" lon="4.585">
        <ele>686.6</ele>
        <time>2025-08-06T08:49:43Z</time>
      </trkpt>
      <trkpt lat="45.70258" lon="4.58502">
        <ele>687</ele>
        <time>2025-08-06T08:49:44Z</time>
      </trkpt>
      <trkpt lat="45.7026" lon="4.58504">
        <ele>687.2</ele>
        <time>2025-08-06T08:49:45Z</time>
      </trkpt>
      <trkpt lat="45.70263" lon="4.58506">
        <ele>687.4</ele>
        <time>2025-08-06T08:49:46Z</time>
      </trkpt>
      <trkpt lat="45.70265" lon="4.58508">
        <ele>687.8</ele>
        <time>2025-08-06T08:49:47Z</time>
      </trkpt>
      <trkpt lat="45.70268" lon="4.58509">
        <ele>688</ele>
        <time>2025-08-06T08:49:48Z</time>
      </trkpt>
      <trkpt lat="45.7027" lon="4.58511">
        <ele>688.2</ele>
        <time>2025-08-06T08:49:49Z</time>
      </trkpt>
      <trkpt lat="45.70273" lon="4.58513">
        <ele>688.6</ele>
        <time>2025-08-06T08:49:50Z</time>
      </trkpt>
      <trkpt lat="45.70276" lon="4.58515">
        <ele>688.8</ele>
        <time>2025-08-06T08:49:51Z</time>
      </trkpt>
      <trkpt lat="45.70279" lon="4.58516">
        <ele>689</ele>
        <time>2025-08-06T08:49:52Z</time>
      </trkpt>
      <trkpt lat="45.70282" lon="4.58518">
        <ele>689</ele>
        <time>2025-08-06T08:49:53Z</time>
      </trkpt>
      <trkpt lat="45.70285" lon="4.58519">
        <ele>689.2</ele>
        <time>2025-08-06T08:49:54Z</time>
      </trkpt>
      <trkpt lat="45.70287" lon="4.58521">
        <ele>689.2</ele>
        <time>2025-08-06T08:49:55Z</time>
      </trkpt>
      <trkpt lat="45.7029" lon="4.58522">
        <ele>689.4</ele>
        <time>2025-08-06T08:49:56Z</time>
      </trkpt>
      <trkpt lat="45.70292" lon="4.58524">
        <ele>689.4</ele>
        <time>2025-08-06T08:49:57Z</time>
      </trkpt>
      <trkpt lat="45.70294" lon="4.58525">
        <ele>689.6</ele>
        <time>2025-08-06T08:49:58Z</time>
      </trkpt>
      <trkpt lat="45.70297" lon="4.58527">
        <ele>689.8</ele>
        <time>2025-08-06T08:49:59Z</time>
      </trkpt>
      <trkpt lat="45.703" lon="4.58529">
        <ele>689.8</ele>
        <time>2025-08-06T08:50:00Z</time>
      </trkpt>
      <trkpt lat="45.70305" lon="4.58531">
        <ele>689.6</ele>
        <time>2025-08-06T08:50:01Z</time>
      </trkpt>
      <trkpt lat="45.7031" lon="4.58534">
        <ele>689.2</ele>
        <time>2025-08-06T08:50:02Z</time>
      </trkpt>
      <trkpt lat="45.70316" lon="4.58537">
        <ele>688.4</ele>
        <time>2025-08-06T08:50:03Z</time>
      </trkpt>
      <trkpt lat="45.70322" lon="4.5854">
        <ele>687.4</ele>
        <time>2025-08-06T08:50:04Z</time>
      </trkpt>
      <trkpt lat="45.70329" lon="4.58542">
        <ele>686.4</ele>
        <time>2025-08-06T08:50:05Z</time>
      </trkpt>
      <trkpt lat="45.70337" lon="4.58544">
        <ele>685.4</ele>
        <time>2025-08-06T08:50:06Z</time>
      </trkpt>
      <trkpt lat="45.70344" lon="4.58545">
        <ele>684.6</ele>
        <time>2025-08-06T08:50:07Z</time>
      </trkpt>
      <trkpt lat="45.70352" lon="4.58546">
        <ele>684</ele>
        <time>2025-08-06T08:50:08Z</time>
      </trkpt>
      <trkpt lat="45.7036" lon="4.58547">
        <ele>683.4</ele>
        <time>2025-08-06T08:50:09Z</time>
      </trkpt>
      <trkpt lat="45.70367" lon="4.58548">
        <ele>682.8</ele>
        <time>2025-08-06T08:50:10Z</time>
      </trkpt>
      <trkpt lat="45.70374" lon="4.58549">
        <ele>682</ele>
        <time>2025-08-06T08:50:11Z</time>
      </trkpt>
      <trkpt lat="45.70381" lon="4.58551">
        <ele>681.6</ele>
        <time>2025-08-06T08:50:12Z</time>
      </trkpt>
      <trkpt lat="45.70389" lon="4.58553">
        <ele>681</ele>
        <time>2025-08-06T08:50:13Z</time>
      </trkpt>
      <trkpt lat="45.70397" lon="4.58554">
        <ele>680.6</ele>
        <time>2025-08-06T08:50:14Z</time>
      </trkpt>
      <trkpt lat="45.70406" lon="4.58556">
        <ele>680</ele>
        <time>2025-08-06T08:50:15Z</time>
      </trkpt>
      <trkpt lat="45.70414" lon="4.58558">
        <ele>679.6</ele>
        <time>2025-08-06T08:50:16Z</time>
      </trkpt>
      <trkpt lat="45.70422" lon="4.5856">
        <ele>679</ele>
        <time>2025-08-06T08:50:17Z</time>
      </trkpt>
      <trkpt lat="45.70429" lon="4.58563">
        <ele>678.4</ele>
        <time>2025-08-06T08:50:18Z</time>
      </trkpt>
      <trkpt lat="45.70437" lon="4.58566">
        <ele>678</ele>
        <time>2025-08-06T08:50:19Z</time>
      </trkpt>
      <trkpt lat="45.70445" lon="4.58569">
        <ele>677.8</ele>
        <time>2025-08-06T08:50:20Z</time>
      </trkpt>
      <trkpt lat="45.70452" lon="4.58571">
        <ele>677.4</ele>
        <time>2025-08-06T08:50:21Z</time>
      </trkpt>
      <trkpt lat="45.70459" lon="4.58574">
        <ele>677</ele>
        <time>2025-08-06T08:50:22Z</time>
      </trkpt>
      <trkpt lat="45.70465" lon="4.58578">
        <ele>676.8</ele>
        <time>2025-08-06T08:50:23Z</time>
      </trkpt>
      <trkpt lat="45.7047" lon="4.58583">
        <ele>676.4</ele>
        <time>2025-08-06T08:50:24Z</time>
      </trkpt>
      <trkpt lat="45.70474" lon="4.5859">
        <ele>676</ele>
        <time>2025-08-06T08:50:25Z</time>
      </trkpt>
      <trkpt lat="45.70478" lon="4.58598">
        <ele>675.8</ele>
        <time>2025-08-06T08:50:26Z</time>
      </trkpt>
      <trkpt lat="45.7048" lon="4.58606">
        <ele>675.8</ele>
        <time>2025-08-06T08:50:27Z</time>
      </trkpt>
      <trkpt lat="45.7048" lon="4.58615">
        <ele>675.6</ele>
        <time>2025-08-06T08:50:28Z</time>
      </trkpt>
      <trkpt lat="45.70479" lon="4.58623">
        <ele>675.6</ele>
        <time>2025-08-06T08:50:29Z</time>
      </trkpt>
      <trkpt lat="45.70479" lon="4.58631">
        <ele>675.6</ele>
        <time>2025-08-06T08:50:30Z</time>
      </trkpt>
      <trkpt lat="45.70479" lon="4.58639">
        <ele>675.8</ele>
        <time>2025-08-06T08:50:31Z</time>
      </trkpt>
      <trkpt lat="45.70478" lon="4.58647">
        <ele>676</ele>
        <time>2025-08-06T08:50:32Z</time>
      </trkpt>
      <trkpt lat="45.70478" lon="4.58654">
        <ele>676.2</ele>
        <time>2025-08-06T08:50:33Z</time>
      </trkpt>
      <trkpt lat="45.70478" lon="4.58662">
        <ele>676.2</ele>
        <time>2025-08-06T08:50:34Z</time>
      </trkpt>
      <trkpt lat="45.70478" lon="4.58669">
        <ele>676.4</ele>
        <time>2025-08-06T08:50:35Z</time>
      </trkpt>
      <trkpt lat="45.70478" lon="4.58675">
        <ele>676.4</ele>
        <time>2025-08-06T08:50:36Z</time>
      </trkpt>
      <trkpt lat="45.70478" lon="4.58682">
        <ele>676.6</ele>
        <time>2025-08-06T08:50:37Z</time>
      </trkpt>
      <trkpt lat="45.70478" lon="4.58688">
        <ele>676.6</ele>
        <time>2025-08-06T08:50:38Z</time>
      </trkpt>
      <trkpt lat="45.70477" lon="4.58695">
        <ele>676.8</ele>
        <time>2025-08-06T08:50:39Z</time>
      </trkpt>
      <trkpt lat="45.70477" lon="4.58701">
        <ele>677</ele>
        <time>2025-08-06T08:50:40Z</time>
      </trkpt>
      <trkpt lat="45.70478" lon="4.58708">
        <ele>677.2</ele>
        <time>2025-08-06T08:50:41Z</time>
      </trkpt>
      <trkpt lat="45.70478" lon="4.58714">
        <ele>677.2</ele>
        <time>2025-08-06T08:50:42Z</time>
      </trkpt>
      <trkpt lat="45.70477" lon="4.5872">
        <ele>677.4</ele>
        <time>2025-08-06T08:50:43Z</time>
      </trkpt>
      <trkpt lat="45.70478" lon="4.58727">
        <ele>677.4</ele>
        <time>2025-08-06T08:50:44Z</time>
      </trkpt>
      <trkpt lat="45.70478" lon="4.58734">
        <ele>677.4</ele>
        <time>2025-08-06T08:50:45Z</time>
      </trkpt>
      <trkpt lat="45.70478" lon="4.58741">
        <ele>677.4</ele>
        <time>2025-08-06T08:50:46Z</time>
      </trkpt>
      <trkpt lat="45.70479" lon="4.58748">
        <ele>677.4</ele>
        <time>2025-08-06T08:50:47Z</time>
      </trkpt>
      <trkpt lat="45.70479" lon="4.58754">
        <ele>677.4</ele>
        <time>2025-08-06T08:50:48Z</time>
      </trkpt>
      <trkpt lat="45.7048" lon="4.5876">
        <ele>677.4</ele>
        <time>2025-08-06T08:50:49Z</time>
      </trkpt>
      <trkpt lat="45.7048" lon="4.58766">
        <ele>677.6</ele>
        <time>2025-08-06T08:50:50Z</time>
      </trkpt>
      <trkpt lat="45.70481" lon="4.58772">
        <ele>677.6</ele>
        <time>2025-08-06T08:50:51Z</time>
      </trkpt>
      <trkpt lat="45.70482" lon="4.58778">
        <ele>677.8</ele>
        <time>2025-08-06T08:50:52Z</time>
      </trkpt>
      <trkpt lat="45.70483" lon="4.58785">
        <ele>678</ele>
        <time>2025-08-06T08:50:53Z</time>
      </trkpt>
      <trkpt lat="45.70483" lon="4.58791">
        <ele>678</ele>
        <time>2025-08-06T08:50:54Z</time>
      </trkpt>
      <trkpt lat="45.70484" lon="4.58797">
        <ele>678.2</ele>
        <time>2025-08-06T08:50:55Z</time>
      </trkpt>
      <trkpt lat="45.70484" lon="4.58802">
        <ele>678.4</ele>
        <time>2025-08-06T08:50:56Z</time>
      </trkpt>
      <trkpt lat="45.70485" lon="4.58805">
        <ele>678.4</ele>
        <time>2025-08-06T08:50:57Z</time>
      </trkpt>
      <trkpt lat="45.70486" lon="4.58809">
        <ele>678.6</ele>
        <time>2025-08-06T08:50:58Z</time>
      </trkpt>
      <trkpt lat="45.70487" lon="4.58814">
        <ele>678.6</ele>
        <time>2025-08-06T08:50:59Z</time>
      </trkpt>
      <trkpt lat="45.70488" lon="4.58818">
        <ele>678.6</ele>
        <time>2025-08-06T08:51:00Z</time>
      </trkpt>
      <trkpt lat="45.70489" lon="4.58822">
        <ele>678.6</ele>
        <time>2025-08-06T08:51:01Z</time>
      </trkpt>
      <trkpt lat="45.70489" lon="4.58828">
        <ele>678.6</ele>
        <time>2025-08-06T08:51:02Z</time>
      </trkpt>
      <trkpt lat="45.70489" lon="4.58834">
        <ele>678.8</ele>
        <time>2025-08-06T08:51:03Z</time>
      </trkpt>
      <trkpt lat="45.7049" lon="4.58841">
        <ele>678.6</ele>
        <time>2025-08-06T08:51:04Z</time>
      </trkpt>
      <trkpt lat="45.7049" lon="4.58848">
        <ele>678.6</ele>
        <time>2025-08-06T08:51:05Z</time>
      </trkpt>
      <trkpt lat="45.70491" lon="4.58854">
        <ele>678.6</ele>
        <time>2025-08-06T08:51:06Z</time>
      </trkpt>
      <trkpt lat="45.70492" lon="4.5886">
        <ele>678.6</ele>
        <time>2025-08-06T08:51:07Z</time>
      </trkpt>
      <trkpt lat="45.70493" lon="4.58866">
        <ele>678.8</ele>
        <time>2025-08-06T08:51:08Z</time>
      </trkpt>
      <trkpt lat="45.70494" lon="4.58871">
        <ele>678.8</ele>
        <time>2025-08-06T08:51:09Z</time>
      </trkpt>
      <trkpt lat="45.70495" lon="4.58877">
        <ele>678.6</ele>
        <time>2025-08-06T08:51:10Z</time>
      </trkpt>
      <trkpt lat="45.70495" lon="4.58884">
        <ele>678.4</ele>
        <time>2025-08-06T08:51:11Z</time>
      </trkpt>
      <trkpt lat="45.70496" lon="4.5889">
        <ele>678.4</ele>
        <time>2025-08-06T08:51:12Z</time>
      </trkpt>
      <trkpt lat="45.70497" lon="4.58897">
        <ele>678.2</ele>
        <time>2025-08-06T08:51:13Z</time>
      </trkpt>
      <trkpt lat="45.70497" lon="4.58904">
        <ele>678</ele>
        <time>2025-08-06T08:51:14Z</time>
      </trkpt>
      <trkpt lat="45.70496" lon="4.58911">
        <ele>678</ele>
        <time>2025-08-06T08:51:15Z</time>
      </trkpt>
      <trkpt lat="45.70496" lon="4.58918">
        <ele>678</ele>
        <time>2025-08-06T08:51:16Z</time>
      </trkpt>
      <trkpt lat="45.70495" lon="4.58925">
        <ele>677.8</ele>
        <time>2025-08-06T08:51:17Z</time>
      </trkpt>
      <trkpt lat="45.70494" lon="4.58931">
        <ele>677.8</ele>
        <time>2025-08-06T08:51:18Z</time>
      </trkpt>
      <trkpt lat="45.70492" lon="4.58937">
        <ele>677.6</ele>
        <time>2025-08-06T08:51:19Z</time>
      </trkpt>
      <trkpt lat="45.70491" lon="4.58944">
        <ele>677.8</ele>
        <time>2025-08-06T08:51:20Z</time>
      </trkpt>
      <trkpt lat="45.70488" lon="4.5895">
        <ele>677.8</ele>
        <time>2025-08-06T08:51:21Z</time>
      </trkpt>
      <trkpt lat="45.70486" lon="4.58955">
        <ele>677.8</ele>
        <time>2025-08-06T08:51:22Z</time>
      </trkpt>
      <trkpt lat="45.70483" lon="4.58961">
        <ele>677.8</ele>
        <time>2025-08-06T08:51:23Z</time>
      </trkpt>
      <trkpt lat="45.70479" lon="4.58965">
        <ele>677.8</ele>
        <time>2025-08-06T08:51:24Z</time>
      </trkpt>
      <trkpt lat="45.70475" lon="4.5897">
        <ele>677.6</ele>
        <time>2025-08-06T08:51:25Z</time>
      </trkpt>
      <trkpt lat="45.7047" lon="4.58974">
        <ele>677.4</ele>
        <time>2025-08-06T08:51:26Z</time>
      </trkpt>
      <trkpt lat="45.70466" lon="4.58978">
        <ele>677.2</ele>
        <time>2025-08-06T08:51:27Z</time>
      </trkpt>
      <trkpt lat="45.70461" lon="4.58982">
        <ele>677</ele>
        <time>2025-08-06T08:51:28Z</time>
      </trkpt>
      <trkpt lat="45.70456" lon="4.58986">
        <ele>677</ele>
        <time>2025-08-06T08:51:29Z</time>
      </trkpt>
      <trkpt lat="45.70451" lon="4.5899">
        <ele>676.8</ele>
        <time>2025-08-06T08:51:30Z</time>
      </trkpt>
      <trkpt lat="45.70446" lon="4.58993">
        <ele>676.8</ele>
        <time>2025-08-06T08:51:31Z</time>
      </trkpt>
      <trkpt lat="45.70441" lon="4.58997">
        <ele>676.8</ele>
        <time>2025-08-06T08:51:32Z</time>
      </trkpt>
      <trkpt lat="45.70436" lon="4.59">
        <ele>677</ele>
        <time>2025-08-06T08:51:33Z</time>
      </trkpt>
      <trkpt lat="45.70431" lon="4.59003">
        <ele>677</ele>
        <time>2025-08-06T08:51:34Z</time>
      </trkpt>
      <trkpt lat="45.70427" lon="4.59006">
        <ele>677.2</ele>
        <time>2025-08-06T08:51:35Z</time>
      </trkpt>
      <trkpt lat="45.70423" lon="4.59009">
        <ele>677.4</ele>
        <time>2025-08-06T08:51:36Z</time>
      </trkpt>
      <trkpt lat="45.70419" lon="4.59012">
        <ele>677.4</ele>
        <time>2025-08-06T08:51:37Z</time>
      </trkpt>
      <trkpt lat="45.70416" lon="4.59014">
        <ele>677.6</ele>
        <time>2025-08-06T08:51:38Z</time>
      </trkpt>
      <trkpt lat="45.70413" lon="4.59016">
        <ele>677.8</ele>
        <time>2025-08-06T08:51:39Z</time>
      </trkpt>
      <trkpt lat="45.7041" lon="4.59018">
        <ele>678</ele>
        <time>2025-08-06T08:51:40Z</time>
      </trkpt>
      <trkpt lat="45.70408" lon="4.5902">
        <ele>678.4</ele>
        <time>2025-08-06T08:51:41Z</time>
      </trkpt>
      <trkpt lat="45.70407" lon="4.59022">
        <ele>678.6</ele>
        <time>2025-08-06T08:51:42Z</time>
      </trkpt>
      <trkpt lat="45.70405" lon="4.59023">
        <ele>678.8</ele>
        <time>2025-08-06T08:51:43Z</time>
      </trkpt>
      <trkpt lat="45.70403" lon="4.59025">
        <ele>678.8</ele>
        <time>2025-08-06T08:51:44Z</time>
      </trkpt>
      <trkpt lat="45.704" lon="4.59026">
        <ele>678.8</ele>
        <time>2025-08-06T08:51:45Z</time>
      </trkpt>
      <trkpt lat="45.70397" lon="4.59028">
        <ele>678.8</ele>
        <time>2025-08-06T08:51:46Z</time>
      </trkpt>
      <trkpt lat="45.70395" lon="4.59031">
        <ele>678.6</ele>
        <time>2025-08-06T08:51:47Z</time>
      </trkpt>
      <trkpt lat="45.70391" lon="4.59033">
        <ele>678.4</ele>
        <time>2025-08-06T08:51:48Z</time>
      </trkpt>
      <trkpt lat="45.70388" lon="4.59035">
        <ele>678.2</ele>
        <time>2025-08-06T08:51:49Z</time>
      </trkpt>
      <trkpt lat="45.70385" lon="4.59037">
        <ele>678</ele>
        <time>2025-08-06T08:51:50Z</time>
      </trkpt>
      <trkpt lat="45.70383" lon="4.59038">
        <ele>677.6</ele>
        <time>2025-08-06T08:51:51Z</time>
      </trkpt>
      <trkpt lat="45.70382" lon="4.59038">
        <ele>677.6</ele>
        <time>2025-08-06T08:51:52Z</time>
      </trkpt>
      <trkpt lat="45.70381" lon="4.59039">
        <ele>677.4</ele>
        <time>2025-08-06T08:51:53Z</time>
      </trkpt>
      <trkpt lat="45.7038" lon="4.5904">
        <ele>677.2</ele>
        <time>2025-08-06T08:51:54Z</time>
      </trkpt>
      <trkpt lat="45.7038" lon="4.5904">
        <ele>677.2</ele>
        <time>2025-08-06T08:51:55Z</time>
      </trkpt>
      <trkpt lat="45.7038" lon="4.5904">
        <ele>677</ele>
        <time>2025-08-06T08:51:56Z</time>
      </trkpt>
      <trkpt lat="45.70376" lon="4.59043">
        <ele>676.8</ele>
        <time>2025-08-06T08:52:02Z</time>
      </trkpt>
      <trkpt lat="45.70374" lon="4.59044">
        <ele>676.6</ele>
        <time>2025-08-06T08:52:03Z</time>
      </trkpt>
      <trkpt lat="45.70372" lon="4.59044">
        <ele>676.4</ele>
        <time>2025-08-06T08:52:04Z</time>
      </trkpt>
      <trkpt lat="45.70368" lon="4.59046">
        <ele>676</ele>
        <time>2025-08-06T08:52:05Z</time>
      </trkpt>
      <trkpt lat="45.70365" lon="4.59048">
        <ele>675.8</ele>
        <time>2025-08-06T08:52:06Z</time>
      </trkpt>
      <trkpt lat="45.70361" lon="4.59051">
        <ele>675.2</ele>
        <time>2025-08-06T08:52:07Z</time>
      </trkpt>
      <trkpt lat="45.70357" lon="4.59055">
        <ele>674.8</ele>
        <time>2025-08-06T08:52:08Z</time>
      </trkpt>
      <trkpt lat="45.70354" lon="4.59059">
        <ele>674.6</ele>
        <time>2025-08-06T08:52:09Z</time>
      </trkpt>
      <trkpt lat="45.70352" lon="4.59063">
        <ele>674.6</ele>
        <time>2025-08-06T08:52:10Z</time>
      </trkpt>
      <trkpt lat="45.70351" lon="4.59067">
        <ele>674.6</ele>
        <time>2025-08-06T08:52:11Z</time>
      </trkpt>
      <trkpt lat="45.70349" lon="4.59071">
        <ele>675</ele>
        <time>2025-08-06T08:52:12Z</time>
      </trkpt>
      <trkpt lat="45.70349" lon="4.59075">
        <ele>675.4</ele>
        <time>2025-08-06T08:52:13Z</time>
      </trkpt>
      <trkpt lat="45.70348" lon="4.59078">
        <ele>675.8</ele>
        <time>2025-08-06T08:52:14Z</time>
      </trkpt>
      <trkpt lat="45.70346" lon="4.59081">
        <ele>676.2</ele>
        <time>2025-08-06T08:52:15Z</time>
      </trkpt>
      <trkpt lat="45.70345" lon="4.59084">
        <ele>676.6</ele>
        <time>2025-08-06T08:52:16Z</time>
      </trkpt>
      <trkpt lat="45.70344" lon="4.59087">
        <ele>677.2</ele>
        <time>2025-08-06T08:52:17Z</time>
      </trkpt>
      <trkpt lat="45.70343" lon="4.5909">
        <ele>677.6</ele>
        <time>2025-08-06T08:52:18Z</time>
      </trkpt>
      <trkpt lat="45.70342" lon="4.59093">
        <ele>677.8</ele>
        <time>2025-08-06T08:52:19Z</time>
      </trkpt>
      <trkpt lat="45.70341" lon="4.59095">
        <ele>678.2</ele>
        <time>2025-08-06T08:52:20Z</time>
      </trkpt>
      <trkpt lat="45.7034" lon="4.59099">
        <ele>678.6</ele>
        <time>2025-08-06T08:52:21Z</time>
      </trkpt>
      <trkpt lat="45.70339" lon="4.59102">
        <ele>678.8</ele>
        <time>2025-08-06T08:52:22Z</time>
      </trkpt>
      <trkpt lat="45.70338" lon="4.59105">
        <ele>679.2</ele>
        <time>2025-08-06T08:52:23Z</time>
      </trkpt>
      <trkpt lat="45.70337" lon="4.59108">
        <ele>679.6</ele>
        <time>2025-08-06T08:52:24Z</time>
      </trkpt>
      <trkpt lat="45.70336" lon="4.59111">
        <ele>679.8</ele>
        <time>2025-08-06T08:52:25Z</time>
      </trkpt>
      <trkpt lat="45.70335" lon="4.59114">
        <ele>680.2</ele>
        <time>2025-08-06T08:52:26Z</time>
      </trkpt>
      <trkpt lat="45.70335" lon="4.59117">
        <ele>680.4</ele>
        <time>2025-08-06T08:52:27Z</time>
      </trkpt>
      <trkpt lat="45.70334" lon="4.5912">
        <ele>680.8</ele>
        <time>2025-08-06T08:52:28Z</time>
      </trkpt>
      <trkpt lat="45.70332" lon="4.59123">
        <ele>681</ele>
        <time>2025-08-06T08:52:29Z</time>
      </trkpt>
      <trkpt lat="45.70331" lon="4.59125">
        <ele>681.4</ele>
        <time>2025-08-06T08:52:30Z</time>
      </trkpt>
      <trkpt lat="45.7033" lon="4.59128">
        <ele>681.6</ele>
        <time>2025-08-06T08:52:31Z</time>
      </trkpt>
      <trkpt lat="45.7033" lon="4.59131">
        <ele>681.8</ele>
        <time>2025-08-06T08:52:32Z</time>
      </trkpt>
      <trkpt lat="45.70329" lon="4.59134">
        <ele>682.2</ele>
        <time>2025-08-06T08:52:33Z</time>
      </trkpt>
      <trkpt lat="45.70328" lon="4.59136">
        <ele>682.4</ele>
        <time>2025-08-06T08:52:34Z</time>
      </trkpt>
      <trkpt lat="45.70328" lon="4.5914">
        <ele>682.8</ele>
        <time>2025-08-06T08:52:35Z</time>
      </trkpt>
      <trkpt lat="45.70327" lon="4.59143">
        <ele>683</ele>
        <time>2025-08-06T08:52:36Z</time>
      </trkpt>
      <trkpt lat="45.70326" lon="4.59146">
        <ele>683.4</ele>
        <time>2025-08-06T08:52:37Z</time>
      </trkpt>
      <trkpt lat="45.70325" lon="4.59149">
        <ele>683.6</ele>
        <time>2025-08-06T08:52:38Z</time>
      </trkpt>
      <trkpt lat="45.70324" lon="4.59152">
        <ele>684</ele>
        <time>2025-08-06T08:52:39Z</time>
      </trkpt>
      <trkpt lat="45.70324" lon="4.59154">
        <ele>684.4</ele>
        <time>2025-08-06T08:52:40Z</time>
      </trkpt>
      <trkpt lat="45.70323" lon="4.59156">
        <ele>684.6</ele>
        <time>2025-08-06T08:52:41Z</time>
      </trkpt>
      <trkpt lat="45.70322" lon="4.59158">
        <ele>685</ele>
        <time>2025-08-06T08:52:42Z</time>
      </trkpt>
      <trkpt lat="45.70322" lon="4.59161">
        <ele>685.2</ele>
        <time>2025-08-06T08:52:43Z</time>
      </trkpt>
      <trkpt lat="45.70323" lon="4.59163">
        <ele>685.4</ele>
        <time>2025-08-06T08:52:44Z</time>
      </trkpt>
      <trkpt lat="45.70324" lon="4.59164">
        <ele>685.8</ele>
        <time>2025-08-06T08:52:45Z</time>
      </trkpt>
      <trkpt lat="45.70326" lon="4.59165">
        <ele>686</ele>
        <time>2025-08-06T08:52:46Z</time>
      </trkpt>
      <trkpt lat="45.70327" lon="4.59165">
        <ele>686.2</ele>
        <time>2025-08-06T08:52:47Z</time>
      </trkpt>
      <trkpt lat="45.70329" lon="4.59165">
        <ele>686.4</ele>
        <time>2025-08-06T08:52:48Z</time>
      </trkpt>
      <trkpt lat="45.70331" lon="4.59164">
        <ele>686.6</ele>
        <time>2025-08-06T08:52:49Z</time>
      </trkpt>
      <trkpt lat="45.70333" lon="4.59163">
        <ele>686.8</ele>
        <time>2025-08-06T08:52:50Z</time>
      </trkpt>
      <trkpt lat="45.70335" lon="4.59162">
        <ele>687.2</ele>
        <time>2025-08-06T08:52:51Z</time>
      </trkpt>
      <trkpt lat="45.70337" lon="4.5916">
        <ele>687.6</ele>
        <time>2025-08-06T08:52:52Z</time>
      </trkpt>
      <trkpt lat="45.70339" lon="4.59159">
        <ele>687.8</ele>
        <time>2025-08-06T08:52:53Z</time>
      </trkpt>
      <trkpt lat="45.70341" lon="4.59157">
        <ele>688.2</ele>
        <time>2025-08-06T08:52:54Z</time>
      </trkpt>
      <trkpt lat="45.70343" lon="4.59156">
        <ele>688.8</ele>
        <time>2025-08-06T08:52:55Z</time>
      </trkpt>
      <trkpt lat="45.70345" lon="4.59154">
        <ele>689.2</ele>
        <time>2025-08-06T08:52:56Z</time>
      </trkpt>
      <trkpt lat="45.70347" lon="4.59153">
        <ele>689.6</ele>
        <time>2025-08-06T08:52:57Z</time>
      </trkpt>
      <trkpt lat="45.70349" lon="4.59153">
        <ele>690.2</ele>
        <time>2025-08-06T08:52:58Z</time>
      </trkpt>
      <trkpt lat="45.70352" lon="4.59152">
        <ele>690.6</ele>
        <time>2025-08-06T08:52:59Z</time>
      </trkpt>
      <trkpt lat="45.70354" lon="4.59151">
        <ele>690.8</ele>
        <time>2025-08-06T08:53:00Z</time>
      </trkpt>
      <trkpt lat="45.70357" lon="4.5915">
        <ele>691.2</ele>
        <time>2025-08-06T08:53:01Z</time>
      </trkpt>
      <trkpt lat="45.70359" lon="4.59149">
        <ele>691.4</ele>
        <time>2025-08-06T08:53:02Z</time>
      </trkpt>
      <trkpt lat="45.70362" lon="4.59148">
        <ele>691.8</ele>
        <time>2025-08-06T08:53:03Z</time>
      </trkpt>
      <trkpt lat="45.70364" lon="4.59148">
        <ele>692.2</ele>
        <time>2025-08-06T08:53:04Z</time>
      </trkpt>
      <trkpt lat="45.70366" lon="4.59147">
        <ele>692.4</ele>
        <time>2025-08-06T08:53:05Z</time>
      </trkpt>
      <trkpt lat="45.70368" lon="4.59145">
        <ele>692.8</ele>
        <time>2025-08-06T08:53:06Z</time>
      </trkpt>
      <trkpt lat="45.70371" lon="4.59145">
        <ele>693</ele>
        <time>2025-08-06T08:53:07Z</time>
      </trkpt>
      <trkpt lat="45.70373" lon="4.59144">
        <ele>693.4</ele>
        <time>2025-08-06T08:53:08Z</time>
      </trkpt>
      <trkpt lat="45.70374" lon="4.59144">
        <ele>693.8</ele>
        <time>2025-08-06T08:53:09Z</time>
      </trkpt>
      <trkpt lat="45.70376" lon="4.59143">
        <ele>694</ele>
        <time>2025-08-06T08:53:10Z</time>
      </trkpt>
      <trkpt lat="45.70378" lon="4.59142">
        <ele>694.4</ele>
        <time>2025-08-06T08:53:11Z</time>
      </trkpt>
      <trkpt lat="45.7038" lon="4.59141">
        <ele>694.8</ele>
        <time>2025-08-06T08:53:12Z</time>
      </trkpt>
      <trkpt lat="45.70382" lon="4.59141">
        <ele>695</ele>
        <time>2025-08-06T08:53:13Z</time>
      </trkpt>
      <trkpt lat="45.70385" lon="4.5914">
        <ele>695.4</ele>
        <time>2025-08-06T08:53:14Z</time>
      </trkpt>
      <trkpt lat="45.70387" lon="4.59139">
        <ele>695.6</ele>
        <time>2025-08-06T08:53:15Z</time>
      </trkpt>
      <trkpt lat="45.70389" lon="4.59138">
        <ele>696</ele>
        <time>2025-08-06T08:53:16Z</time>
      </trkpt>
      <trkpt lat="45.70391" lon="4.59137">
        <ele>696.4</ele>
        <time>2025-08-06T08:53:17Z</time>
      </trkpt>
      <trkpt lat="45.70393" lon="4.59136">
        <ele>696.8</ele>
        <time>2025-08-06T08:53:18Z</time>
      </trkpt>
      <trkpt lat="45.70395" lon="4.59135">
        <ele>697.2</ele>
        <time>2025-08-06T08:53:19Z</time>
      </trkpt>
      <trkpt lat="45.70397" lon="4.59134">
        <ele>697.6</ele>
        <time>2025-08-06T08:53:20Z</time>
      </trkpt>
      <trkpt lat="45.704" lon="4.59134">
        <ele>698</ele>
        <time>2025-08-06T08:53:21Z</time>
      </trkpt>
      <trkpt lat="45.70402" lon="4.59133">
        <ele>698.2</ele>
        <time>2025-08-06T08:53:22Z</time>
      </trkpt>
      <trkpt lat="45.70405" lon="4.59132">
        <ele>698.6</ele>
        <time>2025-08-06T08:53:23Z</time>
      </trkpt>
      <trkpt lat="45.70407" lon="4.59131">
        <ele>698.8</ele>
        <time>2025-08-06T08:53:24Z</time>
      </trkpt>
      <trkpt lat="45.7041" lon="4.59131">
        <ele>699.2</ele>
        <time>2025-08-06T08:53:25Z</time>
      </trkpt>
      <trkpt lat="45.70413" lon="4.5913">
        <ele>699.4</ele>
        <time>2025-08-06T08:53:26Z</time>
      </trkpt>
      <trkpt lat="45.70415" lon="4.59129">
        <ele>699.6</ele>
        <time>2025-08-06T08:53:27Z</time>
      </trkpt>
      <trkpt lat="45.70418" lon="4.59129">
        <ele>700</ele>
        <time>2025-08-06T08:53:28Z</time>
      </trkpt>
      <trkpt lat="45.70421" lon="4.59129">
        <ele>700.2</ele>
        <time>2025-08-06T08:53:29Z</time>
      </trkpt>
      <trkpt lat="45.70423" lon="4.59128">
        <ele>700.4</ele>
        <time>2025-08-06T08:53:30Z</time>
      </trkpt>
      <trkpt lat="45.70426" lon="4.59128">
        <ele>700.6</ele>
        <time>2025-08-06T08:53:31Z</time>
      </trkpt>
      <trkpt lat="45.70428" lon="4.59128">
        <ele>700.8</ele>
        <time>2025-08-06T08:53:32Z</time>
      </trkpt>
      <trkpt lat="45.70431" lon="4.59127">
        <ele>701</ele>
        <time>2025-08-06T08:53:33Z</time>
      </trkpt>
      <trkpt lat="45.70433" lon="4.59127">
        <ele>701</ele>
        <time>2025-08-06T08:53:34Z</time>
      </trkpt>
      <trkpt lat="45.70436" lon="4.59126">
        <ele>701.2</ele>
        <time>2025-08-06T08:53:35Z</time>
      </trkpt>
      <trkpt lat="45.70439" lon="4.59126">
        <ele>701.4</ele>
        <time>2025-08-06T08:53:36Z</time>
      </trkpt>
      <trkpt lat="45.70442" lon="4.59125">
        <ele>701.6</ele>
        <time>2025-08-06T08:53:37Z</time>
      </trkpt>
      <trkpt lat="45.70444" lon="4.59124">
        <ele>701.6</ele>
        <time>2025-08-06T08:53:38Z</time>
      </trkpt>
      <trkpt lat="45.70447" lon="4.59124">
        <ele>701.8</ele>
        <time>2025-08-06T08:53:39Z</time>
      </trkpt>
      <trkpt lat="45.70449" lon="4.59123">
        <ele>702</ele>
        <time>2025-08-06T08:53:40Z</time>
      </trkpt>
      <trkpt lat="45.70452" lon="4.59123">
        <ele>702.2</ele>
        <time>2025-08-06T08:53:41Z</time>
      </trkpt>
      <trkpt lat="45.70455" lon="4.59123">
        <ele>702.4</ele>
        <time>2025-08-06T08:53:42Z</time>
      </trkpt>
      <trkpt lat="45.70458" lon="4.59123">
        <ele>702.6</ele>
        <time>2025-08-06T08:53:43Z</time>
      </trkpt>
      <trkpt lat="45.70461" lon="4.59122">
        <ele>702.8</ele>
        <time>2025-08-06T08:53:44Z</time>
      </trkpt>
      <trkpt lat="45.70463" lon="4.59122">
        <ele>703</ele>
        <time>2025-08-06T08:53:45Z</time>
      </trkpt>
      <trkpt lat="45.70466" lon="4.59121">
        <ele>703.2</ele>
        <time>2025-08-06T08:53:46Z</time>
      </trkpt>
      <trkpt lat="45.70469" lon="4.59121">
        <ele>703.6</ele>
        <time>2025-08-06T08:53:47Z</time>
      </trkpt>
      <trkpt lat="45.70472" lon="4.59121">
        <ele>704</ele>
        <time>2025-08-06T08:53:48Z</time>
      </trkpt>
      <trkpt lat="45.70474" lon="4.5912">
        <ele>704.4</ele>
        <time>2025-08-06T08:53:49Z</time>
      </trkpt>
      <trkpt lat="45.70477" lon="4.59119">
        <ele>704.8</ele>
        <time>2025-08-06T08:53:50Z</time>
      </trkpt>
      <trkpt lat="45.70479" lon="4.59119">
        <ele>705.2</ele>
        <time>2025-08-06T08:53:51Z</time>
      </trkpt>
      <trkpt lat="45.70482" lon="4.59119">
        <ele>705.6</ele>
        <time>2025-08-06T08:53:52Z</time>
      </trkpt>
      <trkpt lat="45.70484" lon="4.59119">
        <ele>706</ele>
        <time>2025-08-06T08:53:53Z</time>
      </trkpt>
      <trkpt lat="45.70487" lon="4.59118">
        <ele>706.4</ele>
        <time>2025-08-06T08:53:54Z</time>
      </trkpt>
      <trkpt lat="45.7049" lon="4.59117">
        <ele>706.6</ele>
        <time>2025-08-06T08:53:55Z</time>
      </trkpt>
      <trkpt lat="45.70492" lon="4.59117">
        <ele>707</ele>
        <time>2025-08-06T08:53:56Z</time>
      </trkpt>
      <trkpt lat="45.70495" lon="4.59116">
        <ele>707.4</ele>
        <time>2025-08-06T08:53:57Z</time>
      </trkpt>
      <trkpt lat="45.70498" lon="4.59115">
        <ele>707.6</ele>
        <time>2025-08-06T08:53:58Z</time>
      </trkpt>
      <trkpt lat="45.705" lon="4.59114">
        <ele>707.8</ele>
        <time>2025-08-06T08:53:59Z</time>
      </trkpt>
      <trkpt lat="45.70503" lon="4.59113">
        <ele>708.2</ele>
        <time>2025-08-06T08:54:00Z</time>
      </trkpt>
      <trkpt lat="45.70506" lon="4.59112">
        <ele>708.6</ele>
        <time>2025-08-06T08:54:01Z</time>
      </trkpt>
      <trkpt lat="45.70508" lon="4.59111">
        <ele>708.8</ele>
        <time>2025-08-06T08:54:02Z</time>
      </trkpt>
      <trkpt lat="45.70511" lon="4.5911">
        <ele>709</ele>
        <time>2025-08-06T08:54:03Z</time>
      </trkpt>
      <trkpt lat="45.70513" lon="4.5911">
        <ele>709.4</ele>
        <time>2025-08-06T08:54:04Z</time>
      </trkpt>
      <trkpt lat="45.70516" lon="4.59108">
        <ele>709.6</ele>
        <time>2025-08-06T08:54:05Z</time>
      </trkpt>
      <trkpt lat="45.70518" lon="4.59107">
        <ele>710</ele>
        <time>2025-08-06T08:54:06Z</time>
      </trkpt>
      <trkpt lat="45.70521" lon="4.59107">
        <ele>710.2</ele>
        <time>2025-08-06T08:54:07Z</time>
      </trkpt>
      <trkpt lat="45.70524" lon="4.59106">
        <ele>710.6</ele>
        <time>2025-08-06T08:54:08Z</time>
      </trkpt>
      <trkpt lat="45.70526" lon="4.59105">
        <ele>710.8</ele>
        <time>2025-08-06T08:54:09Z</time>
      </trkpt>
      <trkpt lat="45.70529" lon="4.59104">
        <ele>711.2</ele>
        <time>2025-08-06T08:54:10Z</time>
      </trkpt>
      <trkpt lat="45.70531" lon="4.59103">
        <ele>711.6</ele>
        <time>2025-08-06T08:54:11Z</time>
      </trkpt>
      <trkpt lat="45.70534" lon="4.59102">
        <ele>711.8</ele>
        <time>2025-08-06T08:54:12Z</time>
      </trkpt>
      <trkpt lat="45.70536" lon="4.59101">
        <ele>712.2</ele>
        <time>2025-08-06T08:54:13Z</time>
      </trkpt>
      <trkpt lat="45.70539" lon="4.59101">
        <ele>712.6</ele>
        <time>2025-08-06T08:54:14Z</time>
      </trkpt>
      <trkpt lat="45.70541" lon="4.591">
        <ele>712.8</ele>
        <time>2025-08-06T08:54:15Z</time>
      </trkpt>
      <trkpt lat="45.70543" lon="4.59098">
        <ele>713.2</ele>
        <time>2025-08-06T08:54:16Z</time>
      </trkpt>
      <trkpt lat="45.70546" lon="4.59098">
        <ele>713.8</ele>
        <time>2025-08-06T08:54:17Z</time>
      </trkpt>
      <trkpt lat="45.70548" lon="4.59097">
        <ele>714.2</ele>
        <time>2025-08-06T08:54:18Z</time>
      </trkpt>
      <trkpt lat="45.7055" lon="4.59096">
        <ele>714.6</ele>
        <time>2025-08-06T08:54:19Z</time>
      </trkpt>
      <trkpt lat="45.70553" lon="4.59096">
        <ele>714.8</ele>
        <time>2025-08-06T08:54:20Z</time>
      </trkpt>
      <trkpt lat="45.70555" lon="4.59095">
        <ele>715.2</ele>
        <time>2025-08-06T08:54:21Z</time>
      </trkpt>
      <trkpt lat="45.70557" lon="4.59095">
        <ele>715.6</ele>
        <time>2025-08-06T08:54:22Z</time>
      </trkpt>
      <trkpt lat="45.7056" lon="4.59094">
        <ele>716</ele>
        <time>2025-08-06T08:54:23Z</time>
      </trkpt>
      <trkpt lat="45.70562" lon="4.59093">
        <ele>716.4</ele>
        <time>2025-08-06T08:54:24Z</time>
      </trkpt>
      <trkpt lat="45.70565" lon="4.59093">
        <ele>716.8</ele>
        <time>2025-08-06T08:54:25Z</time>
      </trkpt>
      <trkpt lat="45.70567" lon="4.59092">
        <ele>717.2</ele>
        <time>2025-08-06T08:54:26Z</time>
      </trkpt>
      <trkpt lat="45.70569" lon="4.59091">
        <ele>717.6</ele>
        <time>2025-08-06T08:54:27Z</time>
      </trkpt>
      <trkpt lat="45.70572" lon="4.59091">
        <ele>718</ele>
        <time>2025-08-06T08:54:28Z</time>
      </trkpt>
      <trkpt lat="45.70574" lon="4.5909">
        <ele>718.4</ele>
        <time>2025-08-06T08:54:29Z</time>
      </trkpt>
      <trkpt lat="45.70576" lon="4.59089">
        <ele>719</ele>
        <time>2025-08-06T08:54:30Z</time>
      </trkpt>
      <trkpt lat="45.70579" lon="4.59089">
        <ele>719.4</ele>
        <time>2025-08-06T08:54:31Z</time>
      </trkpt>
      <trkpt lat="45.70581" lon="4.59088">
        <ele>719.8</ele>
        <time>2025-08-06T08:54:32Z</time>
      </trkpt>
      <trkpt lat="45.70583" lon="4.59088">
        <ele>720.2</ele>
        <time>2025-08-06T08:54:33Z</time>
      </trkpt>
      <trkpt lat="45.70586" lon="4.59087">
        <ele>720.6</ele>
        <time>2025-08-06T08:54:34Z</time>
      </trkpt>
      <trkpt lat="45.70588" lon="4.59086">
        <ele>721.2</ele>
        <time>2025-08-06T08:54:35Z</time>
      </trkpt>
      <trkpt lat="45.7059" lon="4.59086">
        <ele>721.6</ele>
        <time>2025-08-06T08:54:36Z</time>
      </trkpt>
      <trkpt lat="45.70593" lon="4.59085">
        <ele>722</ele>
        <time>2025-08-06T08:54:37Z</time>
      </trkpt>
      <trkpt lat="45.70595" lon="4.59084">
        <ele>722.4</ele>
        <time>2025-08-06T08:54:38Z</time>
      </trkpt>
      <trkpt lat="45.70598" lon="4.59083">
        <ele>722.8</ele>
        <time>2025-08-06T08:54:39Z</time>
      </trkpt>
      <trkpt lat="45.706" lon="4.59083">
        <ele>723.2</ele>
        <time>2025-08-06T08:54:40Z</time>
      </trkpt>
      <trkpt lat="45.70603" lon="4.59082">
        <ele>723.6</ele>
        <time>2025-08-06T08:54:41Z</time>
      </trkpt>
      <trkpt lat="45.70605" lon="4.59081">
        <ele>724</ele>
        <time>2025-08-06T08:54:42Z</time>
      </trkpt>
      <trkpt lat="45.70607" lon="4.59081">
        <ele>724.2</ele>
        <time>2025-08-06T08:54:43Z</time>
      </trkpt>
      <trkpt lat="45.70609" lon="4.5908">
        <ele>724.6</ele>
        <time>2025-08-06T08:54:44Z</time>
      </trkpt>
      <trkpt lat="45.70611" lon="4.5908">
        <ele>725</ele>
        <time>2025-08-06T08:54:45Z</time>
      </trkpt>
      <trkpt lat="45.70613" lon="4.5908">
        <ele>725.2</ele>
        <time>2025-08-06T08:54:46Z</time>
      </trkpt>
      <trkpt lat="45.70616" lon="4.59079">
        <ele>725.4</ele>
        <time>2025-08-06T08:54:47Z</time>
      </trkpt>
      <trkpt lat="45.70618" lon="4.59079">
        <ele>725.8</ele>
        <time>2025-08-06T08:54:48Z</time>
      </trkpt>
      <trkpt lat="45.7062" lon="4.59078">
        <ele>726</ele>
        <time>2025-08-06T08:54:49Z</time>
      </trkpt>
      <trkpt lat="45.70623" lon="4.59078">
        <ele>726.4</ele>
        <time>2025-08-06T08:54:50Z</time>
      </trkpt>
      <trkpt lat="45.70625" lon="4.59079">
        <ele>726.8</ele>
        <time>2025-08-06T08:54:51Z</time>
      </trkpt>
      <trkpt lat="45.70627" lon="4.5908">
        <ele>727.2</ele>
        <time>2025-08-06T08:54:52Z</time>
      </trkpt>
      <trkpt lat="45.70629" lon="4.5908">
        <ele>727.6</ele>
        <time>2025-08-06T08:54:53Z</time>
      </trkpt>
      <trkpt lat="45.7063" lon="4.59081">
        <ele>728</ele>
        <time>2025-08-06T08:54:54Z</time>
      </trkpt>
      <trkpt lat="45.70631" lon="4.59082">
        <ele>728.4</ele>
        <time>2025-08-06T08:54:55Z</time>
      </trkpt>
      <trkpt lat="45.70633" lon="4.59083">
        <ele>728.6</ele>
        <time>2025-08-06T08:54:56Z</time>
      </trkpt>
      <trkpt lat="45.70634" lon="4.59084">
        <ele>729</ele>
        <time>2025-08-06T08:54:57Z</time>
      </trkpt>
      <trkpt lat="45.70636" lon="4.59084">
        <ele>729.2</ele>
        <time>2025-08-06T08:54:58Z</time>
      </trkpt>
      <trkpt lat="45.70637" lon="4.59085">
        <ele>729.4</ele>
        <time>2025-08-06T08:54:59Z</time>
      </trkpt>
      <trkpt lat="45.70639" lon="4.59084">
        <ele>729.6</ele>
        <time>2025-08-06T08:55:00Z</time>
      </trkpt>
      <trkpt lat="45.7064" lon="4.59083">
        <ele>729.6</ele>
        <time>2025-08-06T08:55:01Z</time>
      </trkpt>
      <trkpt lat="45.70642" lon="4.59081">
        <ele>729.6</ele>
        <time>2025-08-06T08:55:02Z</time>
      </trkpt>
      <trkpt lat="45.70643" lon="4.59078">
        <ele>729.6</ele>
        <time>2025-08-06T08:55:03Z</time>
      </trkpt>
      <trkpt lat="45.70645" lon="4.59076">
        <ele>729.6</ele>
        <time>2025-08-06T08:55:04Z</time>
      </trkpt>
      <trkpt lat="45.70646" lon="4.59075">
        <ele>729.6</ele>
        <time>2025-08-06T08:55:05Z</time>
      </trkpt>
      <trkpt lat="45.70647" lon="4.59074">
        <ele>729.6</ele>
        <time>2025-08-06T08:55:06Z</time>
      </trkpt>
      <trkpt lat="45.70648" lon="4.59073">
        <ele>729.6</ele>
        <time>2025-08-06T08:55:07Z</time>
      </trkpt>
      <trkpt lat="45.70649" lon="4.59073">
        <ele>729.8</ele>
        <time>2025-08-06T08:55:08Z</time>
      </trkpt>
      <trkpt lat="45.70649" lon="4.59066">
        <ele>729.6</ele>
        <time>2025-08-06T08:55:17Z</time>
      </trkpt>
      <trkpt lat="45.70647" lon="4.59066">
        <ele>729.6</ele>
        <time>2025-08-06T08:55:18Z</time>
      </trkpt>
      <trkpt lat="45.70646" lon="4.59068">
        <ele>729.6</ele>
        <time>2025-08-06T08:55:19Z</time>
      </trkpt>
      <trkpt lat="45.70646" lon="4.59071">
        <ele>729.6</ele>
        <time>2025-08-06T08:55:20Z</time>
      </trkpt>
      <trkpt lat="45.70645" lon="4.59074">
        <ele>729.6</ele>
        <time>2025-08-06T08:55:21Z</time>
      </trkpt>
      <trkpt lat="45.70643" lon="4.59078">
        <ele>729.6</ele>
        <time>2025-08-06T08:55:22Z</time>
      </trkpt>
      <trkpt lat="45.7064" lon="4.59082">
        <ele>729.6</ele>
        <time>2025-08-06T08:55:23Z</time>
      </trkpt>
      <trkpt lat="45.70637" lon="4.59087">
        <ele>729.4</ele>
        <time>2025-08-06T08:55:24Z</time>
      </trkpt>
      <trkpt lat="45.70634" lon="4.59092">
        <ele>729.2</ele>
        <time>2025-08-06T08:55:25Z</time>
      </trkpt>
      <trkpt lat="45.70632" lon="4.59098">
        <ele>729.2</ele>
        <time>2025-08-06T08:55:26Z</time>
      </trkpt>
      <trkpt lat="45.7063" lon="4.59104">
        <ele>729.2</ele>
        <time>2025-08-06T08:55:27Z</time>
      </trkpt>
      <trkpt lat="45.70629" lon="4.5911">
        <ele>729.2</ele>
        <time>2025-08-06T08:55:28Z</time>
      </trkpt>
      <trkpt lat="45.70627" lon="4.59115">
        <ele>729.4</ele>
        <time>2025-08-06T08:55:29Z</time>
      </trkpt>
      <trkpt lat="45.70626" lon="4.59121">
        <ele>729.6</ele>
        <time>2025-08-06T08:55:30Z</time>
      </trkpt>
      <trkpt lat="45.70625" lon="4.59125">
        <ele>730</ele>
        <time>2025-08-06T08:55:31Z</time>
      </trkpt>
      <trkpt lat="45.70625" lon="4.5913">
        <ele>730.2</ele>
        <time>2025-08-06T08:55:32Z</time>
      </trkpt>
      <trkpt lat="45.70625" lon="4.59134">
        <ele>730.4</ele>
        <time>2025-08-06T08:55:33Z</time>
      </trkpt>
      <trkpt lat="45.70626" lon="4.59138">
        <ele>730.6</ele>
        <time>2025-08-06T08:55:34Z</time>
      </trkpt>
      <trkpt lat="45.70628" lon="4.59141">
        <ele>730.6</ele>
        <time>2025-08-06T08:55:35Z</time>
      </trkpt>
      <trkpt lat="45.70631" lon="4.59144">
        <ele>730.6</ele>
        <time>2025-08-06T08:55:36Z</time>
      </trkpt>
      <trkpt lat="45.70634" lon="4.59147">
        <ele>730.4</ele>
        <time>2025-08-06T08:55:37Z</time>
      </trkpt>
      <trkpt lat="45.70638" lon="4.5915">
        <ele>730.2</ele>
        <time>2025-08-06T08:55:38Z</time>
      </trkpt>
      <trkpt lat="45.70643" lon="4.59152">
        <ele>729.6</ele>
        <time>2025-08-06T08:55:39Z</time>
      </trkpt>
      <trkpt lat="45.70649" lon="4.59152">
        <ele>729</ele>
        <time>2025-08-06T08:55:40Z</time>
      </trkpt>
      <trkpt lat="45.70654" lon="4.59149">
        <ele>728.4</ele>
        <time>2025-08-06T08:55:41Z</time>
      </trkpt>
      <trkpt lat="45.70659" lon="4.59144">
        <ele>727.6</ele>
        <time>2025-08-06T08:55:42Z</time>
      </trkpt>
      <trkpt lat="45.70665" lon="4.59139">
        <ele>726.8</ele>
        <time>2025-08-06T08:55:43Z</time>
      </trkpt>
      <trkpt lat="45.70671" lon="4.59133">
        <ele>726.2</ele>
        <time>2025-08-06T08:55:44Z</time>
      </trkpt>
      <trkpt lat="45.70676" lon="4.59126">
        <ele>725.4</ele>
        <time>2025-08-06T08:55:45Z</time>
      </trkpt>
      <trkpt lat="45.70681" lon="4.59119">
        <ele>724.8</ele>
        <time>2025-08-06T08:55:46Z</time>
      </trkpt>
      <trkpt lat="45.70686" lon="4.59114">
        <ele>724</ele>
        <time>2025-08-06T08:55:47Z</time>
      </trkpt>
      <trkpt lat="45.70691" lon="4.59109">
        <ele>723.2</ele>
        <time>2025-08-06T08:55:48Z</time>
      </trkpt>
      <trkpt lat="45.70697" lon="4.59106">
        <ele>722.2</ele>
        <time>2025-08-06T08:55:49Z</time>
      </trkpt>
      <trkpt lat="45.70702" lon="4.59103">
        <ele>721.2</ele>
        <time>2025-08-06T08:55:50Z</time>
      </trkpt>
      <trkpt lat="45.70708" lon="4.59102">
        <ele>720</ele>
        <time>2025-08-06T08:55:51Z</time>
      </trkpt>
      <trkpt lat="45.70714" lon="4.59101">
        <ele>719</ele>
        <time>2025-08-06T08:55:52Z</time>
      </trkpt>
      <trkpt lat="45.70719" lon="4.591">
        <ele>718.4</ele>
        <time>2025-08-06T08:55:53Z</time>
      </trkpt>
      <trkpt lat="45.70724" lon="4.59099">
        <ele>717.8</ele>
        <time>2025-08-06T08:55:54Z</time>
      </trkpt>
      <trkpt lat="45.70728" lon="4.59098">
        <ele>717.4</ele>
        <time>2025-08-06T08:55:55Z</time>
      </trkpt>
      <trkpt lat="45.70732" lon="4.59098">
        <ele>717</ele>
        <time>2025-08-06T08:55:56Z</time>
      </trkpt>
      <trkpt lat="45.70737" lon="4.59099">
        <ele>716.6</ele>
        <time>2025-08-06T08:55:57Z</time>
      </trkpt>
      <trkpt lat="45.70741" lon="4.59101">
        <ele>716</ele>
        <time>2025-08-06T08:55:58Z</time>
      </trkpt>
      <trkpt lat="45.70744" lon="4.59102">
        <ele>715.4</ele>
        <time>2025-08-06T08:55:59Z</time>
      </trkpt>
      <trkpt lat="45.70748" lon="4.59104">
        <ele>714.8</ele>
        <time>2025-08-06T08:56:00Z</time>
      </trkpt>
      <trkpt lat="45.70751" lon="4.59105">
        <ele>714</ele>
        <time>2025-08-06T08:56:01Z</time>
      </trkpt>
      <trkpt lat="45.70754" lon="4.59106">
        <ele>713.4</ele>
        <time>2025-08-06T08:56:02Z</time>
      </trkpt>
      <trkpt lat="45.70756" lon="4.59106">
        <ele>712.8</ele>
        <time>2025-08-06T08:56:03Z</time>
      </trkpt>
      <trkpt lat="45.70757" lon="4.59105">
        <ele>712.4</ele>
        <time>2025-08-06T08:56:04Z</time>
      </trkpt>
      <trkpt lat="45.7076" lon="4.59105">
        <ele>712</ele>
        <time>2025-08-06T08:56:05Z</time>
      </trkpt>
      <trkpt lat="45.70763" lon="4.59103">
        <ele>711.6</ele>
        <time>2025-08-06T08:56:06Z</time>
      </trkpt>
      <trkpt lat="45.70766" lon="4.591">
        <ele>711.4</ele>
        <time>2025-08-06T08:56:07Z</time>
      </trkpt>
      <trkpt lat="45.70768" lon="4.59096">
        <ele>711.2</ele>
        <time>2025-08-06T08:56:08Z</time>
      </trkpt>
      <trkpt lat="45.7077" lon="4.59092">
        <ele>711.2</ele>
        <time>2025-08-06T08:56:09Z</time>
      </trkpt>
      <trkpt lat="45.70772" lon="4.59087">
        <ele>711.4</ele>
        <time>2025-08-06T08:56:10Z</time>
      </trkpt>
      <trkpt lat="45.70774" lon="4.59083">
        <ele>711.6</ele>
        <time>2025-08-06T08:56:11Z</time>
      </trkpt>
      <trkpt lat="45.70775" lon="4.59078">
        <ele>712</ele>
        <time>2025-08-06T08:56:12Z</time>
      </trkpt>
      <trkpt lat="45.70777" lon="4.59074">
        <ele>712.4</ele>
        <time>2025-08-06T08:56:13Z</time>
      </trkpt>
      <trkpt lat="45.70778" lon="4.5907">
        <ele>712.8</ele>
        <time>2025-08-06T08:56:14Z</time>
      </trkpt>
      <trkpt lat="45.70779" lon="4.59066">
        <ele>713</ele>
        <time>2025-08-06T08:56:15Z</time>
      </trkpt>
      <trkpt lat="45.70779" lon="4.59063">
        <ele>713.2</ele>
        <time>2025-08-06T08:56:16Z</time>
      </trkpt>
      <trkpt lat="45.7078" lon="4.5906">
        <ele>713.2</ele>
        <time>2025-08-06T08:56:17Z</time>
      </trkpt>
      <trkpt lat="45.70781" lon="4.59058">
        <ele>713.2</ele>
        <time>2025-08-06T08:56:18Z</time>
      </trkpt>
      <trkpt lat="45.70781" lon="4.59057">
        <ele>713.2</ele>
        <time>2025-08-06T08:56:19Z</time>
      </trkpt>
      <trkpt lat="45.70781" lon="4.59057">
        <ele>713.2</ele>
        <time>2025-08-06T08:56:20Z</time>
      </trkpt>
      <trkpt lat="45.70779" lon="4.59051">
        <ele>713.4</ele>
        <time>2025-08-06T08:58:32Z</time>
      </trkpt>
      <trkpt lat="45.70778" lon="4.59049">
        <ele>713.4</ele>
        <time>2025-08-06T08:58:33Z</time>
      </trkpt>
      <trkpt lat="45.70777" lon="4.59045">
        <ele>713.4</ele>
        <time>2025-08-06T08:58:34Z</time>
      </trkpt>
      <trkpt lat="45.70777" lon="4.59043">
        <ele>713.4</ele>
        <time>2025-08-06T08:58:35Z</time>
      </trkpt>
      <trkpt lat="45.70777" lon="4.59042">
        <ele>713.4</ele>
        <time>2025-08-06T08:58:36Z</time>
      </trkpt>
      <trkpt lat="45.70777" lon="4.59042">
        <ele>713.4</ele>
        <time>2025-08-06T08:58:37Z</time>
      </trkpt>
      <trkpt lat="45.70777" lon="4.59042">
        <ele>713.4</ele>
        <time>2025-08-06T08:58:38Z</time>
      </trkpt>
      <trkpt lat="45.7078" lon="4.59036">
        <ele>713</ele>
        <time>2025-08-06T08:58:43Z</time>
      </trkpt>
      <trkpt lat="45.70783" lon="4.59036">
        <ele>712.8</ele>
        <time>2025-08-06T08:58:44Z</time>
      </trkpt>
      <trkpt lat="45.70786" lon="4.59036">
        <ele>712.4</ele>
        <time>2025-08-06T08:58:45Z</time>
      </trkpt>
      <trkpt lat="45.7079" lon="4.59035">
        <ele>712</ele>
        <time>2025-08-06T08:58:46Z</time>
      </trkpt>
      <trkpt lat="45.70794" lon="4.59034">
        <ele>711.6</ele>
        <time>2025-08-06T08:58:47Z</time>
      </trkpt>
      <trkpt lat="45.70799" lon="4.59034">
        <ele>711.2</ele>
        <time>2025-08-06T08:58:48Z</time>
      </trkpt>
      <trkpt lat="45.70803" lon="4.59034">
        <ele>710.8</ele>
        <time>2025-08-06T08:58:49Z</time>
      </trkpt>
      <trkpt lat="45.70809" lon="4.59034">
        <ele>710.4</ele>
        <time>2025-08-06T08:58:50Z</time>
      </trkpt>
      <trkpt lat="45.70814" lon="4.59034">
        <ele>710</ele>
        <time>2025-08-06T08:58:51Z</time>
      </trkpt>
      <trkpt lat="45.70819" lon="4.59033">
        <ele>709.4</ele>
        <time>2025-08-06T08:58:52Z</time>
      </trkpt>
      <trkpt lat="45.70824" lon="4.59033">
        <ele>708.8</ele>
        <time>2025-08-06T08:58:53Z</time>
      </trkpt>
      <trkpt lat="45.70829" lon="4.59034">
        <ele>708</ele>
        <time>2025-08-06T08:58:54Z</time>
      </trkpt>
      <trkpt lat="45.70834" lon="4.59036">
        <ele>707.2</ele>
        <time>2025-08-06T08:58:55Z</time>
      </trkpt>
      <trkpt lat="45.70838" lon="4.59039">
        <ele>706.8</ele>
        <time>2025-08-06T08:58:56Z</time>
      </trkpt>
      <trkpt lat="45.70842" lon="4.59042">
        <ele>706.4</ele>
        <time>2025-08-06T08:58:57Z</time>
      </trkpt>
      <trkpt lat="45.70845" lon="4.59046">
        <ele>706</ele>
        <time>2025-08-06T08:58:58Z</time>
      </trkpt>
      <trkpt lat="45.70848" lon="4.59051">
        <ele>706</ele>
        <time>2025-08-06T08:58:59Z</time>
      </trkpt>
      <trkpt lat="45.7085" lon="4.59056">
        <ele>705.8</ele>
        <time>2025-08-06T08:59:00Z</time>
      </trkpt>
      <trkpt lat="45.70852" lon="4.59061">
        <ele>705.6</ele>
        <time>2025-08-06T08:59:01Z</time>
      </trkpt>
      <trkpt lat="45.70855" lon="4.59067">
        <ele>705.6</ele>
        <time>2025-08-06T08:59:02Z</time>
      </trkpt>
      <trkpt lat="45.70857" lon="4.59072">
        <ele>705.4</ele>
        <time>2025-08-06T08:59:03Z</time>
      </trkpt>
      <trkpt lat="45.7086" lon="4.59078">
        <ele>705</ele>
        <time>2025-08-06T08:59:04Z</time>
      </trkpt>
      <trkpt lat="45.70863" lon="4.59084">
        <ele>704.8</ele>
        <time>2025-08-06T08:59:05Z</time>
      </trkpt>
      <trkpt lat="45.70865" lon="4.5909">
        <ele>704.6</ele>
        <time>2025-08-06T08:59:06Z</time>
      </trkpt>
      <trkpt lat="45.70868" lon="4.59097">
        <ele>704.2</ele>
        <time>2025-08-06T08:59:07Z</time>
      </trkpt>
      <trkpt lat="45.70871" lon="4.59104">
        <ele>703.8</ele>
        <time>2025-08-06T08:59:08Z</time>
      </trkpt>
      <trkpt lat="45.70874" lon="4.59111">
        <ele>703.4</ele>
        <time>2025-08-06T08:59:09Z</time>
      </trkpt>
      <trkpt lat="45.70877" lon="4.59116">
        <ele>703</ele>
        <time>2025-08-06T08:59:10Z</time>
      </trkpt>
      <trkpt lat="45.70878" lon="4.59121">
        <ele>702.6</ele>
        <time>2025-08-06T08:59:11Z</time>
      </trkpt>
      <trkpt lat="45.7088" lon="4.59127">
        <ele>702.2</ele>
        <time>2025-08-06T08:59:12Z</time>
      </trkpt>
      <trkpt lat="45.70881" lon="4.59133">
        <ele>702</ele>
        <time>2025-08-06T08:59:13Z</time>
      </trkpt>
      <trkpt lat="45.70883" lon="4.59139">
        <ele>701.6</ele>
        <time>2025-08-06T08:59:14Z</time>
      </trkpt>
      <trkpt lat="45.70884" lon="4.59146">
        <ele>701.2</ele>
        <time>2025-08-06T08:59:15Z</time>
      </trkpt>
      <trkpt lat="45.70885" lon="4.59153">
        <ele>701</ele>
        <time>2025-08-06T08:59:16Z</time>
      </trkpt>
      <trkpt lat="45.70884" lon="4.59159">
        <ele>700.6</ele>
        <time>2025-08-06T08:59:17Z</time>
      </trkpt>
      <trkpt lat="45.70884" lon="4.59166">
        <ele>700.4</ele>
        <time>2025-08-06T08:59:18Z</time>
      </trkpt>
      <trkpt lat="45.70882" lon="4.59171">
        <ele>700.4</ele>
        <time>2025-08-06T08:59:19Z</time>
      </trkpt>
      <trkpt lat="45.70879" lon="4.59177">
        <ele>700.2</ele>
        <time>2025-08-06T08:59:20Z</time>
      </trkpt>
      <trkpt lat="45.70875" lon="4.59181">
        <ele>699.8</ele>
        <time>2025-08-06T08:59:21Z</time>
      </trkpt>
      <trkpt lat="45.70869" lon="4.59185">
        <ele>699.4</ele>
        <time>2025-08-06T08:59:22Z</time>
      </trkpt>
      <trkpt lat="45.70864" lon="4.59187">
        <ele>699</ele>
        <time>2025-08-06T08:59:23Z</time>
      </trkpt>
      <trkpt lat="45.70857" lon="4.5919">
        <ele>698.6</ele>
        <time>2025-08-06T08:59:24Z</time>
      </trkpt>
      <trkpt lat="45.70851" lon="4.59192">
        <ele>698</ele>
        <time>2025-08-06T08:59:25Z</time>
      </trkpt>
      <trkpt lat="45.70845" lon="4.59195">
        <ele>697.4</ele>
        <time>2025-08-06T08:59:26Z</time>
      </trkpt>
      <trkpt lat="45.70838" lon="4.59198">
        <ele>696.8</ele>
        <time>2025-08-06T08:59:27Z</time>
      </trkpt>
      <trkpt lat="45.70832" lon="4.59201">
        <ele>696</ele>
        <time>2025-08-06T08:59:28Z</time>
      </trkpt>
      <trkpt lat="45.70823" lon="4.59205">
        <ele>695.2</ele>
        <time>2025-08-06T08:59:29Z</time>
      </trkpt>
      <trkpt lat="45.70815" lon="4.59208">
        <ele>694.4</ele>
        <time>2025-08-06T08:59:30Z</time>
      </trkpt>
      <trkpt lat="45.70808" lon="4.5921">
        <ele>693.6</ele>
        <time>2025-08-06T08:59:31Z</time>
      </trkpt>
      <trkpt lat="45.708" lon="4.5921">
        <ele>692.6</ele>
        <time>2025-08-06T08:59:32Z</time>
      </trkpt>
      <trkpt lat="45.70793" lon="4.5921">
        <ele>692</ele>
        <time>2025-08-06T08:59:33Z</time>
      </trkpt>
      <trkpt lat="45.70785" lon="4.5921">
        <ele>691.2</ele>
        <time>2025-08-06T08:59:34Z</time>
      </trkpt>
      <trkpt lat="45.70777" lon="4.5921">
        <ele>690.2</ele>
        <time>2025-08-06T08:59:35Z</time>
      </trkpt>
      <trkpt lat="45.70769" lon="4.59211">
        <ele>689.4</ele>
        <time>2025-08-06T08:59:36Z</time>
      </trkpt>
      <trkpt lat="45.70762" lon="4.59215">
        <ele>688.2</ele>
        <time>2025-08-06T08:59:37Z</time>
      </trkpt>
      <trkpt lat="45.70756" lon="4.5922">
        <ele>686.8</ele>
        <time>2025-08-06T08:59:38Z</time>
      </trkpt>
      <trkpt lat="45.7075" lon="4.59227">
        <ele>685.4</ele>
        <time>2025-08-06T08:59:39Z</time>
      </trkpt>
      <trkpt lat="45.70745" lon="4.59237">
        <ele>684</ele>
        <time>2025-08-06T08:59:40Z</time>
      </trkpt>
      <trkpt lat="45.70741" lon="4.59245">
        <ele>682.6</ele>
        <time>2025-08-06T08:59:41Z</time>
      </trkpt>
      <trkpt lat="45.70737" lon="4.59257">
        <ele>681.2</ele>
        <time>2025-08-06T08:59:42Z</time>
      </trkpt>
      <trkpt lat="45.70732" lon="4.59269">
        <ele>679.8</ele>
        <time>2025-08-06T08:59:43Z</time>
      </trkpt>
      <trkpt lat="45.70727" lon="4.59285">
        <ele>678.4</ele>
        <time>2025-08-06T08:59:44Z</time>
      </trkpt>
      <trkpt lat="45.70723" lon="4.59298">
        <ele>677.2</ele>
        <time>2025-08-06T08:59:45Z</time>
      </trkpt>
      <trkpt lat="45.70719" lon="4.59311">
        <ele>676.2</ele>
        <time>2025-08-06T08:59:46Z</time>
      </trkpt>
      <trkpt lat="45.70716" lon="4.59325">
        <ele>675</ele>
        <time>2025-08-06T08:59:47Z</time>
      </trkpt>
      <trkpt lat="45.70713" lon="4.59338">
        <ele>674</ele>
        <time>2025-08-06T08:59:48Z</time>
      </trkpt>
      <trkpt lat="45.70711" lon="4.5935">
        <ele>672.8</ele>
        <time>2025-08-06T08:59:49Z</time>
      </trkpt>
      <trkpt lat="45.70709" lon="4.59362">
        <ele>671.8</ele>
        <time>2025-08-06T08:59:50Z</time>
      </trkpt>
      <trkpt lat="45.70706" lon="4.59373">
        <ele>671</ele>
        <time>2025-08-06T08:59:51Z</time>
      </trkpt>
      <trkpt lat="45.70704" lon="4.5938">
        <ele>670</ele>
        <time>2025-08-06T08:59:52Z</time>
      </trkpt>
      <trkpt lat="45.70702" lon="4.59388">
        <ele>669.2</ele>
        <time>2025-08-06T08:59:53Z</time>
      </trkpt>
      <trkpt lat="45.70699" lon="4.59396">
        <ele>668.4</ele>
        <time>2025-08-06T08:59:54Z</time>
      </trkpt>
      <trkpt lat="45.70697" lon="4.59404">
        <ele>667.6</ele>
        <time>2025-08-06T08:59:55Z</time>
      </trkpt>
      <trkpt lat="45.70695" lon="4.59412">
        <ele>667</ele>
        <time>2025-08-06T08:59:56Z</time>
      </trkpt>
      <trkpt lat="45.70693" lon="4.59419">
        <ele>666.2</ele>
        <time>2025-08-06T08:59:57Z</time>
      </trkpt>
      <trkpt lat="45.70691" lon="4.59426">
        <ele>665.4</ele>
        <time>2025-08-06T08:59:58Z</time>
      </trkpt>
      <trkpt lat="45.7069" lon="4.59431">
        <ele>664.8</ele>
        <time>2025-08-06T08:59:59Z</time>
      </trkpt>
      <trkpt lat="45.70689" lon="4.59436">
        <ele>664.2</ele>
        <time>2025-08-06T09:00:00Z</time>
      </trkpt>
      <trkpt lat="45.70689" lon="4.59439">
        <ele>663.6</ele>
        <time>2025-08-06T09:00:01Z</time>
      </trkpt>
      <trkpt lat="45.7069" lon="4.59443">
        <ele>663</ele>
        <time>2025-08-06T09:00:02Z</time>
      </trkpt>
      <trkpt lat="45.70692" lon="4.59446">
        <ele>662.4</ele>
        <time>2025-08-06T09:00:03Z</time>
      </trkpt>
      <trkpt lat="45.70695" lon="4.59446">
        <ele>662</ele>
        <time>2025-08-06T09:00:04Z</time>
      </trkpt>
      <trkpt lat="45.707" lon="4.59445">
        <ele>661.2</ele>
        <time>2025-08-06T09:00:05Z</time>
      </trkpt>
      <trkpt lat="45.70704" lon="4.59442">
        <ele>660.6</ele>
        <time>2025-08-06T09:00:06Z</time>
      </trkpt>
      <trkpt lat="45.7071" lon="4.59439">
        <ele>659.8</ele>
        <time>2025-08-06T09:00:07Z</time>
      </trkpt>
      <trkpt lat="45.70716" lon="4.59436">
        <ele>659</ele>
        <time>2025-08-06T09:00:08Z</time>
      </trkpt>
      <trkpt lat="45.70723" lon="4.59433">
        <ele>657.8</ele>
        <time>2025-08-06T09:00:09Z</time>
      </trkpt>
      <trkpt lat="45.70731" lon="4.5943">
        <ele>656.4</ele>
        <time>2025-08-06T09:00:10Z</time>
      </trkpt>
      <trkpt lat="45.70739" lon="4.59426">
        <ele>654.8</ele>
        <time>2025-08-06T09:00:11Z</time>
      </trkpt>
      <trkpt lat="45.70748" lon="4.59421">
        <ele>652.6</ele>
        <time>2025-08-06T09:00:12Z</time>
      </trkpt>
      <trkpt lat="45.70756" lon="4.59415">
        <ele>650.4</ele>
        <time>2025-08-06T09:00:13Z</time>
      </trkpt>
      <trkpt lat="45.70765" lon="4.59408">
        <ele>648.4</ele>
        <time>2025-08-06T09:00:14Z</time>
      </trkpt>
      <trkpt lat="45.70771" lon="4.59403">
        <ele>646.8</ele>
        <time>2025-08-06T09:00:15Z</time>
      </trkpt>
      <trkpt lat="45.70777" lon="4.59396">
        <ele>645.4</ele>
        <time>2025-08-06T09:00:16Z</time>
      </trkpt>
      <trkpt lat="45.70784" lon="4.59389">
        <ele>644</ele>
        <time>2025-08-06T09:00:17Z</time>
      </trkpt>
      <trkpt lat="45.70789" lon="4.59382">
        <ele>643.2</ele>
        <time>2025-08-06T09:00:18Z</time>
      </trkpt>
      <trkpt lat="45.70795" lon="4.59376">
        <ele>642.4</ele>
        <time>2025-08-06T09:00:19Z</time>
      </trkpt>
      <trkpt lat="45.708" lon="4.59371">
        <ele>641.8</ele>
        <time>2025-08-06T09:00:20Z</time>
      </trkpt>
      <trkpt lat="45.70806" lon="4.59368">
        <ele>641.6</ele>
        <time>2025-08-06T09:00:21Z</time>
      </trkpt>
      <trkpt lat="45.70811" lon="4.59365">
        <ele>641.4</ele>
        <time>2025-08-06T09:00:22Z</time>
      </trkpt>
      <trkpt lat="45.70818" lon="4.59363">
        <ele>641.2</ele>
        <time>2025-08-06T09:00:23Z</time>
      </trkpt>
      <trkpt lat="45.70824" lon="4.59361">
        <ele>641</ele>
        <time>2025-08-06T09:00:24Z</time>
      </trkpt>
      <trkpt lat="45.70829" lon="4.5936">
        <ele>640.6</ele>
        <time>2025-08-06T09:00:25Z</time>
      </trkpt>
      <trkpt lat="45.70836" lon="4.5936">
        <ele>639.6</ele>
        <time>2025-08-06T09:00:26Z</time>
      </trkpt>
      <trkpt lat="45.70844" lon="4.59361">
        <ele>638.6</ele>
        <time>2025-08-06T09:00:27Z</time>
      </trkpt>
      <trkpt lat="45.70852" lon="4.59362">
        <ele>637.4</ele>
        <time>2025-08-06T09:00:28Z</time>
      </trkpt>
      <trkpt lat="45.7086" lon="4.59363">
        <ele>635.8</ele>
        <time>2025-08-06T09:00:29Z</time>
      </trkpt>
      <trkpt lat="45.70868" lon="4.59365">
        <ele>634.2</ele>
        <time>2025-08-06T09:00:30Z</time>
      </trkpt>
      <trkpt lat="45.70876" lon="4.59367">
        <ele>632.8</ele>
        <time>2025-08-06T09:00:31Z</time>
      </trkpt>
      <trkpt lat="45.70883" lon="4.59367">
        <ele>631.4</ele>
        <time>2025-08-06T09:00:32Z</time>
      </trkpt>
      <trkpt lat="45.7089" lon="4.59368">
        <ele>630</ele>
        <time>2025-08-06T09:00:33Z</time>
      </trkpt>
      <trkpt lat="45.70898" lon="4.59368">
        <ele>628.6</ele>
        <time>2025-08-06T09:00:34Z</time>
      </trkpt>
      <trkpt lat="45.70904" lon="4.59367">
        <ele>627.4</ele>
        <time>2025-08-06T09:00:35Z</time>
      </trkpt>
      <trkpt lat="45.7091" lon="4.59365">
        <ele>626.4</ele>
        <time>2025-08-06T09:00:36Z</time>
      </trkpt>
      <trkpt lat="45.70915" lon="4.59364">
        <ele>625.6</ele>
        <time>2025-08-06T09:00:37Z</time>
      </trkpt>
      <trkpt lat="45.70919" lon="4.59363">
        <ele>624.8</ele>
        <time>2025-08-06T09:00:38Z</time>
      </trkpt>
      <trkpt lat="45.70922" lon="4.59365">
        <ele>624.2</ele>
        <time>2025-08-06T09:00:39Z</time>
      </trkpt>
      <trkpt lat="45.70923" lon="4.59369">
        <ele>623.6</ele>
        <time>2025-08-06T09:00:40Z</time>
      </trkpt>
      <trkpt lat="45.70922" lon="4.59374">
        <ele>622.8</ele>
        <time>2025-08-06T09:00:41Z</time>
      </trkpt>
      <trkpt lat="45.70918" lon="4.59379">
        <ele>622</ele>
        <time>2025-08-06T09:00:42Z</time>
      </trkpt>
      <trkpt lat="45.70914" lon="4.59383">
        <ele>621</ele>
        <time>2025-08-06T09:00:43Z</time>
      </trkpt>
      <trkpt lat="45.7091" lon="4.59388">
        <ele>620</ele>
        <time>2025-08-06T09:00:44Z</time>
      </trkpt>
      <trkpt lat="45.70905" lon="4.59395">
        <ele>619</ele>
        <time>2025-08-06T09:00:45Z</time>
      </trkpt>
      <trkpt lat="45.70901" lon="4.59402">
        <ele>618</ele>
        <time>2025-08-06T09:00:46Z</time>
      </trkpt>
      <trkpt lat="45.70897" lon="4.59412">
        <ele>616.8</ele>
        <time>2025-08-06T09:00:47Z</time>
      </trkpt>
      <trkpt lat="45.70892" lon="4.59422">
        <ele>615.6</ele>
        <time>2025-08-06T09:00:48Z</time>
      </trkpt>
      <trkpt lat="45.70887" lon="4.59432">
        <ele>614.4</ele>
        <time>2025-08-06T09:00:49Z</time>
      </trkpt>
      <trkpt lat="45.70882" lon="4.59441">
        <ele>613</ele>
        <time>2025-08-06T09:00:50Z</time>
      </trkpt>
      <trkpt lat="45.70876" lon="4.5945">
        <ele>611.8</ele>
        <time>2025-08-06T09:00:51Z</time>
      </trkpt>
      <trkpt lat="45.70872" lon="4.5946">
        <ele>610.8</ele>
        <time>2025-08-06T09:00:52Z</time>
      </trkpt>
      <trkpt lat="45.70868" lon="4.59471">
        <ele>609.8</ele>
        <time>2025-08-06T09:00:53Z</time>
      </trkpt>
      <trkpt lat="45.70864" lon="4.59482">
        <ele>609</ele>
        <time>2025-08-06T09:00:54Z</time>
      </trkpt>
      <trkpt lat="45.70861" lon="4.59494">
        <ele>608.4</ele>
        <time>2025-08-06T09:00:55Z</time>
      </trkpt>
      <trkpt lat="45.70857" lon="4.59505">
        <ele>607.6</ele>
        <time>2025-08-06T09:00:56Z</time>
      </trkpt>
      <trkpt lat="45.70853" lon="4.59516">
        <ele>607</ele>
        <time>2025-08-06T09:00:57Z</time>
      </trkpt>
      <trkpt lat="45.7085" lon="4.59526">
        <ele>606.6</ele>
        <time>2025-08-06T09:00:58Z</time>
      </trkpt>
      <trkpt lat="45.70848" lon="4.59537">
        <ele>606.2</ele>
        <time>2025-08-06T09:00:59Z</time>
      </trkpt>
      <trkpt lat="45.70847" lon="4.59547">
        <ele>605.6</ele>
        <time>2025-08-06T09:01:00Z</time>
      </trkpt>
      <trkpt lat="45.70848" lon="4.59558">
        <ele>605.2</ele>
        <time>2025-08-06T09:01:01Z</time>
      </trkpt>
      <trkpt lat="45.7085" lon="4.59568">
        <ele>604.8</ele>
        <time>2025-08-06T09:01:02Z</time>
      </trkpt>
      <trkpt lat="45.70852" lon="4.59578">
        <ele>604.2</ele>
        <time>2025-08-06T09:01:03Z</time>
      </trkpt>
      <trkpt lat="45.70854" lon="4.59588">
        <ele>603.6</ele>
        <time>2025-08-06T09:01:04Z</time>
      </trkpt>
      <trkpt lat="45.70856" lon="4.59595">
        <ele>603.2</ele>
        <time>2025-08-06T09:01:05Z</time>
      </trkpt>
      <trkpt lat="45.70858" lon="4.596">
        <ele>602.8</ele>
        <time>2025-08-06T09:01:06Z</time>
      </trkpt>
      <trkpt lat="45.7086" lon="4.59605">
        <ele>602.6</ele>
        <time>2025-08-06T09:01:07Z</time>
      </trkpt>
      <trkpt lat="45.70863" lon="4.59609">
        <ele>602.2</ele>
        <time>2025-08-06T09:01:08Z</time>
      </trkpt>
      <trkpt lat="45.70866" lon="4.59615">
        <ele>601.6</ele>
        <time>2025-08-06T09:01:09Z</time>
      </trkpt>
      <trkpt lat="45.70869" lon="4.59622">
        <ele>600.8</ele>
        <time>2025-08-06T09:01:10Z</time>
      </trkpt>
      <trkpt lat="45.70873" lon="4.59629">
        <ele>599.6</ele>
        <time>2025-08-06T09:01:11Z</time>
      </trkpt>
      <trkpt lat="45.70877" lon="4.59637">
        <ele>598.2</ele>
        <time>2025-08-06T09:01:12Z</time>
      </trkpt>
      <trkpt lat="45.70881" lon="4.59644">
        <ele>596.6</ele>
        <time>2025-08-06T09:01:13Z</time>
      </trkpt>
      <trkpt lat="45.70885" lon="4.59652">
        <ele>595.4</ele>
        <time>2025-08-06T09:01:14Z</time>
      </trkpt>
      <trkpt lat="45.70888" lon="4.5966">
        <ele>594.4</ele>
        <time>2025-08-06T09:01:15Z</time>
      </trkpt>
      <trkpt lat="45.70891" lon="4.5967">
        <ele>593.4</ele>
        <time>2025-08-06T09:01:16Z</time>
      </trkpt>
      <trkpt lat="45.70894" lon="4.59681">
        <ele>592.4</ele>
        <time>2025-08-06T09:01:17Z</time>
      </trkpt>
      <trkpt lat="45.70898" lon="4.59692">
        <ele>591.2</ele>
        <time>2025-08-06T09:01:18Z</time>
      </trkpt>
      <trkpt lat="45.70903" lon="4.59703">
        <ele>590</ele>
        <time>2025-08-06T09:01:19Z</time>
      </trkpt>
      <trkpt lat="45.70908" lon="4.59713">
        <ele>588.6</ele>
        <time>2025-08-06T09:01:20Z</time>
      </trkpt>
      <trkpt lat="45.70913" lon="4.59722">
        <ele>587.2</ele>
        <time>2025-08-06T09:01:21Z</time>
      </trkpt>
      <trkpt lat="45.70919" lon="4.59731">
        <ele>585.8</ele>
        <time>2025-08-06T09:01:22Z</time>
      </trkpt>
      <trkpt lat="45.70925" lon="4.59741">
        <ele>584.2</ele>
        <time>2025-08-06T09:01:23Z</time>
      </trkpt>
      <trkpt lat="45.7093" lon="4.59749">
        <ele>582.8</ele>
        <time>2025-08-06T09:01:24Z</time>
      </trkpt>
      <trkpt lat="45.70936" lon="4.59758">
        <ele>581.2</ele>
        <time>2025-08-06T09:01:25Z</time>
      </trkpt>
      <trkpt lat="45.70941" lon="4.59767">
        <ele>579.4</ele>
        <time>2025-08-06T09:01:26Z</time>
      </trkpt>
      <trkpt lat="45.70945" lon="4.59775">
        <ele>577.8</ele>
        <time>2025-08-06T09:01:27Z</time>
      </trkpt>
      <trkpt lat="45.7095" lon="4.59784">
        <ele>576.4</ele>
        <time>2025-08-06T09:01:28Z</time>
      </trkpt>
      <trkpt lat="45.70954" lon="4.59794">
        <ele>575</ele>
        <time>2025-08-06T09:01:29Z</time>
      </trkpt>
      <trkpt lat="45.70957" lon="4.59804">
        <ele>573.8</ele>
        <time>2025-08-06T09:01:30Z</time>
      </trkpt>
      <trkpt lat="45.70959" lon="4.59816">
        <ele>573</ele>
        <time>2025-08-06T09:01:31Z</time>
      </trkpt>
      <trkpt lat="45.70959" lon="4.59826">
        <ele>572.2</ele>
        <time>2025-08-06T09:01:32Z</time>
      </trkpt>
      <trkpt lat="45.70958" lon="4.59836">
        <ele>571.4</ele>
        <time>2025-08-06T09:01:33Z</time>
      </trkpt>
      <trkpt lat="45.70958" lon="4.59846">
        <ele>570.8</ele>
        <time>2025-08-06T09:01:34Z</time>
      </trkpt>
      <trkpt lat="45.70959" lon="4.59856">
        <ele>570</ele>
        <time>2025-08-06T09:01:35Z</time>
      </trkpt>
      <trkpt lat="45.70962" lon="4.59866">
        <ele>569.2</ele>
        <time>2025-08-06T09:01:36Z</time>
      </trkpt>
      <trkpt lat="45.70966" lon="4.59876">
        <ele>568.4</ele>
        <time>2025-08-06T09:01:37Z</time>
      </trkpt>
      <trkpt lat="45.70972" lon="4.59884">
        <ele>567.4</ele>
        <time>2025-08-06T09:01:38Z</time>
      </trkpt>
      <trkpt lat="45.70978" lon="4.59891">
        <ele>566.6</ele>
        <time>2025-08-06T09:01:39Z</time>
      </trkpt>
      <trkpt lat="45.70985" lon="4.59898">
        <ele>566</ele>
        <time>2025-08-06T09:01:40Z</time>
      </trkpt>
      <trkpt lat="45.70992" lon="4.59903">
        <ele>565.4</ele>
        <time>2025-08-06T09:01:41Z</time>
      </trkpt>
      <trkpt lat="45.70999" lon="4.59907">
        <ele>564.8</ele>
        <time>2025-08-06T09:01:42Z</time>
      </trkpt>
      <trkpt lat="45.71005" lon="4.59912">
        <ele>564.4</ele>
        <time>2025-08-06T09:01:43Z</time>
      </trkpt>
      <trkpt lat="45.71011" lon="4.59918">
        <ele>564</ele>
        <time>2025-08-06T09:01:44Z</time>
      </trkpt>
      <trkpt lat="45.71018" lon="4.59924">
        <ele>563.4</ele>
        <time>2025-08-06T09:01:45Z</time>
      </trkpt>
      <trkpt lat="45.71025" lon="4.59931">
        <ele>562.8</ele>
        <time>2025-08-06T09:01:46Z</time>
      </trkpt>
      <trkpt lat="45.71032" lon="4.59938">
        <ele>562</ele>
        <time>2025-08-06T09:01:47Z</time>
      </trkpt>
      <trkpt lat="45.71039" lon="4.59944">
        <ele>561</ele>
        <time>2025-08-06T09:01:48Z</time>
      </trkpt>
      <trkpt lat="45.71047" lon="4.59951">
        <ele>560.2</ele>
        <time>2025-08-06T09:01:49Z</time>
      </trkpt>
      <trkpt lat="45.71053" lon="4.59958">
        <ele>559.2</ele>
        <time>2025-08-06T09:01:50Z</time>
      </trkpt>
      <trkpt lat="45.71059" lon="4.59965">
        <ele>558.2</ele>
        <time>2025-08-06T09:01:51Z</time>
      </trkpt>
      <trkpt lat="45.71065" lon="4.59973">
        <ele>557.4</ele>
        <time>2025-08-06T09:01:52Z</time>
      </trkpt>
      <trkpt lat="45.71071" lon="4.59981">
        <ele>556.4</ele>
        <time>2025-08-06T09:01:53Z</time>
      </trkpt>
      <trkpt lat="45.71079" lon="4.59987">
        <ele>555.4</ele>
        <time>2025-08-06T09:01:54Z</time>
      </trkpt>
      <trkpt lat="45.71086" lon="4.59992">
        <ele>554.4</ele>
        <time>2025-08-06T09:01:55Z</time>
      </trkpt>
      <trkpt lat="45.71093" lon="4.59997">
        <ele>553.2</ele>
        <time>2025-08-06T09:01:56Z</time>
      </trkpt>
      <trkpt lat="45.71099" lon="4.60002">
        <ele>552.2</ele>
        <time>2025-08-06T09:01:57Z</time>
      </trkpt>
      <trkpt lat="45.71105" lon="4.60006">
        <ele>551.4</ele>
        <time>2025-08-06T09:01:58Z</time>
      </trkpt>
      <trkpt lat="45.7111" lon="4.60011">
        <ele>550.4</ele>
        <time>2025-08-06T09:01:59Z</time>
      </trkpt>
      <trkpt lat="45.71115" lon="4.60016">
        <ele>549.8</ele>
        <time>2025-08-06T09:02:00Z</time>
      </trkpt>
      <trkpt lat="45.7112" lon="4.60022">
        <ele>549</ele>
        <time>2025-08-06T09:02:01Z</time>
      </trkpt>
      <trkpt lat="45.71125" lon="4.60028">
        <ele>548.2</ele>
        <time>2025-08-06T09:02:02Z</time>
      </trkpt>
      <trkpt lat="45.7113" lon="4.60035">
        <ele>547.4</ele>
        <time>2025-08-06T09:02:03Z</time>
      </trkpt>
      <trkpt lat="45.71134" lon="4.60041">
        <ele>546.6</ele>
        <time>2025-08-06T09:02:04Z</time>
      </trkpt>
      <trkpt lat="45.71138" lon="4.60046">
        <ele>546</ele>
        <time>2025-08-06T09:02:05Z</time>
      </trkpt>
      <trkpt lat="45.71142" lon="4.60051">
        <ele>545.6</ele>
        <time>2025-08-06T09:02:06Z</time>
      </trkpt>
      <trkpt lat="45.71145" lon="4.60056">
        <ele>545.4</ele>
        <time>2025-08-06T09:02:07Z</time>
      </trkpt>
      <trkpt lat="45.7115" lon="4.60062">
        <ele>545.2</ele>
        <time>2025-08-06T09:02:08Z</time>
      </trkpt>
      <trkpt lat="45.71154" lon="4.60067">
        <ele>544.8</ele>
        <time>2025-08-06T09:02:09Z</time>
      </trkpt>
      <trkpt lat="45.7116" lon="4.60073">
        <ele>544.4</ele>
        <time>2025-08-06T09:02:10Z</time>
      </trkpt>
      <trkpt lat="45.71165" lon="4.6008">
        <ele>543.8</ele>
        <time>2025-08-06T09:02:11Z</time>
      </trkpt>
      <trkpt lat="45.71171" lon="4.60087">
        <ele>543</ele>
        <time>2025-08-06T09:02:12Z</time>
      </trkpt>
      <trkpt lat="45.71177" lon="4.60095">
        <ele>542.4</ele>
        <time>2025-08-06T09:02:13Z</time>
      </trkpt>
      <trkpt lat="45.71181" lon="4.60104">
        <ele>541.6</ele>
        <time>2025-08-06T09:02:14Z</time>
      </trkpt>
      <trkpt lat="45.71186" lon="4.60114">
        <ele>541</ele>
        <time>2025-08-06T09:02:15Z</time>
      </trkpt>
      <trkpt lat="45.7119" lon="4.60124">
        <ele>540.4</ele>
        <time>2025-08-06T09:02:16Z</time>
      </trkpt>
      <trkpt lat="45.71195" lon="4.60133">
        <ele>539.6</ele>
        <time>2025-08-06T09:02:17Z</time>
      </trkpt>
      <trkpt lat="45.71199" lon="4.60143">
        <ele>539</ele>
        <time>2025-08-06T09:02:18Z</time>
      </trkpt>
      <trkpt lat="45.71204" lon="4.60152">
        <ele>538</ele>
        <time>2025-08-06T09:02:19Z</time>
      </trkpt>
      <trkpt lat="45.71208" lon="4.60162">
        <ele>537.2</ele>
        <time>2025-08-06T09:02:20Z</time>
      </trkpt>
      <trkpt lat="45.71211" lon="4.60173">
        <ele>536.2</ele>
        <time>2025-08-06T09:02:21Z</time>
      </trkpt>
      <trkpt lat="45.71214" lon="4.60185">
        <ele>534.8</ele>
        <time>2025-08-06T09:02:22Z</time>
      </trkpt>
      <trkpt lat="45.71218" lon="4.60198">
        <ele>533.4</ele>
        <time>2025-08-06T09:02:23Z</time>
      </trkpt>
      <trkpt lat="45.71222" lon="4.60211">
        <ele>532</ele>
        <time>2025-08-06T09:02:24Z</time>
      </trkpt>
      <trkpt lat="45.71225" lon="4.60224">
        <ele>530.4</ele>
        <time>2025-08-06T09:02:25Z</time>
      </trkpt>
      <trkpt lat="45.71229" lon="4.60237">
        <ele>528.8</ele>
        <time>2025-08-06T09:02:26Z</time>
      </trkpt>
      <trkpt lat="45.71232" lon="4.60249">
        <ele>527.4</ele>
        <time>2025-08-06T09:02:27Z</time>
      </trkpt>
      <trkpt lat="45.71236" lon="4.60259">
        <ele>526.4</ele>
        <time>2025-08-06T09:02:28Z</time>
      </trkpt>
      <trkpt lat="45.71239" lon="4.60269">
        <ele>525.2</ele>
        <time>2025-08-06T09:02:29Z</time>
      </trkpt>
      <trkpt lat="45.71241" lon="4.60278">
        <ele>524.6</ele>
        <time>2025-08-06T09:02:30Z</time>
      </trkpt>
      <trkpt lat="45.71243" lon="4.60287">
        <ele>523.8</ele>
        <time>2025-08-06T09:02:31Z</time>
      </trkpt>
      <trkpt lat="45.71243" lon="4.60296">
        <ele>523.2</ele>
        <time>2025-08-06T09:02:32Z</time>
      </trkpt>
      <trkpt lat="45.71244" lon="4.60306">
        <ele>522.4</ele>
        <time>2025-08-06T09:02:33Z</time>
      </trkpt>
      <trkpt lat="45.71244" lon="4.60315">
        <ele>522</ele>
        <time>2025-08-06T09:02:34Z</time>
      </trkpt>
      <trkpt lat="45.71244" lon="4.60323">
        <ele>521.6</ele>
        <time>2025-08-06T09:02:35Z</time>
      </trkpt>
      <trkpt lat="45.71244" lon="4.60331">
        <ele>521.4</ele>
        <time>2025-08-06T09:02:36Z</time>
      </trkpt>
      <trkpt lat="45.71244" lon="4.60337">
        <ele>521.6</ele>
        <time>2025-08-06T09:02:37Z</time>
      </trkpt>
      <trkpt lat="45.71243" lon="4.60344">
        <ele>522</ele>
        <time>2025-08-06T09:02:38Z</time>
      </trkpt>
      <trkpt lat="45.71243" lon="4.60349">
        <ele>522.6</ele>
        <time>2025-08-06T09:02:39Z</time>
      </trkpt>
      <trkpt lat="45.71243" lon="4.60354">
        <ele>523.2</ele>
        <time>2025-08-06T09:02:40Z</time>
      </trkpt>
      <trkpt lat="45.71242" lon="4.60359">
        <ele>523.8</ele>
        <time>2025-08-06T09:02:41Z</time>
      </trkpt>
      <trkpt lat="45.71243" lon="4.60363">
        <ele>524.4</ele>
        <time>2025-08-06T09:02:42Z</time>
      </trkpt>
      <trkpt lat="45.71242" lon="4.60367">
        <ele>525</ele>
        <time>2025-08-06T09:02:43Z</time>
      </trkpt>
      <trkpt lat="45.71241" lon="4.60372">
        <ele>525.6</ele>
        <time>2025-08-06T09:02:44Z</time>
      </trkpt>
      <trkpt lat="45.7124" lon="4.60376">
        <ele>526</ele>
        <time>2025-08-06T09:02:45Z</time>
      </trkpt>
      <trkpt lat="45.71239" lon="4.60381">
        <ele>526.4</ele>
        <time>2025-08-06T09:02:46Z</time>
      </trkpt>
      <trkpt lat="45.71238" lon="4.60385">
        <ele>526.8</ele>
        <time>2025-08-06T09:02:47Z</time>
      </trkpt>
      <trkpt lat="45.71237" lon="4.6039">
        <ele>527</ele>
        <time>2025-08-06T09:02:48Z</time>
      </trkpt>
      <trkpt lat="45.71237" lon="4.60394">
        <ele>527.4</ele>
        <time>2025-08-06T09:02:49Z</time>
      </trkpt>
      <trkpt lat="45.71236" lon="4.60399">
        <ele>527.6</ele>
        <time>2025-08-06T09:02:50Z</time>
      </trkpt>
      <trkpt lat="45.71235" lon="4.60403">
        <ele>528</ele>
        <time>2025-08-06T09:02:51Z</time>
      </trkpt>
      <trkpt lat="45.71234" lon="4.60408">
        <ele>528.2</ele>
        <time>2025-08-06T09:02:52Z</time>
      </trkpt>
      <trkpt lat="45.71234" lon="4.60413">
        <ele>528.4</ele>
        <time>2025-08-06T09:02:53Z</time>
      </trkpt>
      <trkpt lat="45.71233" lon="4.60417">
        <ele>528.8</ele>
        <time>2025-08-06T09:02:54Z</time>
      </trkpt>
      <trkpt lat="45.71233" lon="4.60422">
        <ele>529.2</ele>
        <time>2025-08-06T09:02:55Z</time>
      </trkpt>
      <trkpt lat="45.71232" lon="4.60427">
        <ele>529.4</ele>
        <time>2025-08-06T09:02:56Z</time>
      </trkpt>
      <trkpt lat="45.71231" lon="4.60433">
        <ele>529.8</ele>
        <time>2025-08-06T09:02:57Z</time>
      </trkpt>
      <trkpt lat="45.7123" lon="4.60438">
        <ele>530</ele>
        <time>2025-08-06T09:02:58Z</time>
      </trkpt>
      <trkpt lat="45.71229" lon="4.60443">
        <ele>530.4</ele>
        <time>2025-08-06T09:02:59Z</time>
      </trkpt>
      <trkpt lat="45.71227" lon="4.60448">
        <ele>530.8</ele>
        <time>2025-08-06T09:03:00Z</time>
      </trkpt>
      <trkpt lat="45.71227" lon="4.60454">
        <ele>531.2</ele>
        <time>2025-08-06T09:03:01Z</time>
      </trkpt>
      <trkpt lat="45.71225" lon="4.60459">
        <ele>531.4</ele>
        <time>2025-08-06T09:03:02Z</time>
      </trkpt>
      <trkpt lat="45.71224" lon="4.60464">
        <ele>531.4</ele>
        <time>2025-08-06T09:03:03Z</time>
      </trkpt>
      <trkpt lat="45.71222" lon="4.60468">
        <ele>531.6</ele>
        <time>2025-08-06T09:03:04Z</time>
      </trkpt>
      <trkpt lat="45.71221" lon="4.60472">
        <ele>531.8</ele>
        <time>2025-08-06T09:03:05Z</time>
      </trkpt>
      <trkpt lat="45.7122" lon="4.60477">
        <ele>532</ele>
        <time>2025-08-06T09:03:06Z</time>
      </trkpt>
      <trkpt lat="45.71218" lon="4.60481">
        <ele>532</ele>
        <time>2025-08-06T09:03:07Z</time>
      </trkpt>
      <trkpt lat="45.71217" lon="4.60486">
        <ele>532</ele>
        <time>2025-08-06T09:03:08Z</time>
      </trkpt>
      <trkpt lat="45.71215" lon="4.60492">
        <ele>532</ele>
        <time>2025-08-06T09:03:09Z</time>
      </trkpt>
      <trkpt lat="45.71214" lon="4.60497">
        <ele>532</ele>
        <time>2025-08-06T09:03:10Z</time>
      </trkpt>
      <trkpt lat="45.71214" lon="4.60501">
        <ele>532</ele>
        <time>2025-08-06T09:03:11Z</time>
      </trkpt>
      <trkpt lat="45.71213" lon="4.60505">
        <ele>532.2</ele>
        <time>2025-08-06T09:03:12Z</time>
      </trkpt>
      <trkpt lat="45.71212" lon="4.6051">
        <ele>532.2</ele>
        <time>2025-08-06T09:03:13Z</time>
      </trkpt>
      <trkpt lat="45.7121" lon="4.60514">
        <ele>532.4</ele>
        <time>2025-08-06T09:03:14Z</time>
      </trkpt>
      <trkpt lat="45.71208" lon="4.60519">
        <ele>532.4</ele>
        <time>2025-08-06T09:03:15Z</time>
      </trkpt>
      <trkpt lat="45.71205" lon="4.60525">
        <ele>532.4</ele>
        <time>2025-08-06T09:03:16Z</time>
      </trkpt>
      <trkpt lat="45.71203" lon="4.60532">
        <ele>532.4</ele>
        <time>2025-08-06T09:03:17Z</time>
      </trkpt>
      <trkpt lat="45.71202" lon="4.60537">
        <ele>532.4</ele>
        <time>2025-08-06T09:03:18Z</time>
      </trkpt>
      <trkpt lat="45.71202" lon="4.60543">
        <ele>532.4</ele>
        <time>2025-08-06T09:03:19Z</time>
      </trkpt>
      <trkpt lat="45.71201" lon="4.60548">
        <ele>532.4</ele>
        <time>2025-08-06T09:03:20Z</time>
      </trkpt>
      <trkpt lat="45.71201" lon="4.60552">
        <ele>532.4</ele>
        <time>2025-08-06T09:03:21Z</time>
      </trkpt>
      <trkpt lat="45.71201" lon="4.60559">
        <ele>532.4</ele>
        <time>2025-08-06T09:03:22Z</time>
      </trkpt>
      <trkpt lat="45.712" lon="4.60567">
        <ele>532.2</ele>
        <time>2025-08-06T09:03:23Z</time>
      </trkpt>
      <trkpt lat="45.71198" lon="4.60574">
        <ele>532</ele>
        <time>2025-08-06T09:03:24Z</time>
      </trkpt>
      <trkpt lat="45.71196" lon="4.60581">
        <ele>531.6</ele>
        <time>2025-08-06T09:03:25Z</time>
      </trkpt>
      <trkpt lat="45.71194" lon="4.60588">
        <ele>531.4</ele>
        <time>2025-08-06T09:03:26Z</time>
      </trkpt>
      <trkpt lat="45.71193" lon="4.60596">
        <ele>531</ele>
        <time>2025-08-06T09:03:27Z</time>
      </trkpt>
      <trkpt lat="45.71192" lon="4.60604">
        <ele>530.8</ele>
        <time>2025-08-06T09:03:28Z</time>
      </trkpt>
      <trkpt lat="45.71192" lon="4.60612">
        <ele>530.4</ele>
        <time>2025-08-06T09:03:29Z</time>
      </trkpt>
      <trkpt lat="45.71191" lon="4.6062">
        <ele>530.2</ele>
        <time>2025-08-06T09:03:30Z</time>
      </trkpt>
      <trkpt lat="45.7119" lon="4.60627">
        <ele>530</ele>
        <time>2025-08-06T09:03:31Z</time>
      </trkpt>
      <trkpt lat="45.71189" lon="4.60634">
        <ele>529.8</ele>
        <time>2025-08-06T09:03:32Z</time>
      </trkpt>
      <trkpt lat="45.71188" lon="4.6064">
        <ele>529.8</ele>
        <time>2025-08-06T09:03:33Z</time>
      </trkpt>
      <trkpt lat="45.71186" lon="4.60646">
        <ele>529.8</ele>
        <time>2025-08-06T09:03:34Z</time>
      </trkpt>
      <trkpt lat="45.71185" lon="4.60652">
        <ele>529.8</ele>
        <time>2025-08-06T09:03:35Z</time>
      </trkpt>
      <trkpt lat="45.71184" lon="4.60659">
        <ele>529.8</ele>
        <time>2025-08-06T09:03:36Z</time>
      </trkpt>
      <trkpt lat="45.71183" lon="4.60666">
        <ele>529.8</ele>
        <time>2025-08-06T09:03:37Z</time>
      </trkpt>
      <trkpt lat="45.71182" lon="4.60673">
        <ele>529.6</ele>
        <time>2025-08-06T09:03:38Z</time>
      </trkpt>
      <trkpt lat="45.7118" lon="4.60681">
        <ele>529.4</ele>
        <time>2025-08-06T09:03:39Z</time>
      </trkpt>
      <trkpt lat="45.71179" lon="4.60688">
        <ele>529.2</ele>
        <time>2025-08-06T09:03:40Z</time>
      </trkpt>
      <trkpt lat="45.71178" lon="4.60696">
        <ele>529</ele>
        <time>2025-08-06T09:03:41Z</time>
      </trkpt>
      <trkpt lat="45.71177" lon="4.60704">
        <ele>528.6</ele>
        <time>2025-08-06T09:03:42Z</time>
      </trkpt>
      <trkpt lat="45.71176" lon="4.60711">
        <ele>528.6</ele>
        <time>2025-08-06T09:03:43Z</time>
      </trkpt>
      <trkpt lat="45.71175" lon="4.60718">
        <ele>528.4</ele>
        <time>2025-08-06T09:03:44Z</time>
      </trkpt>
      <trkpt lat="45.71174" lon="4.60726">
        <ele>528.2</ele>
        <time>2025-08-06T09:03:45Z</time>
      </trkpt>
      <trkpt lat="45.71174" lon="4.60734">
        <ele>528.2</ele>
        <time>2025-08-06T09:03:46Z</time>
      </trkpt>
      <trkpt lat="45.71173" lon="4.60741">
        <ele>528.2</ele>
        <time>2025-08-06T09:03:47Z</time>
      </trkpt>
      <trkpt lat="45.71173" lon="4.60748">
        <ele>528.4</ele>
        <time>2025-08-06T09:03:48Z</time>
      </trkpt>
      <trkpt lat="45.71172" lon="4.60755">
        <ele>528.4</ele>
        <time>2025-08-06T09:03:49Z</time>
      </trkpt>
      <trkpt lat="45.71172" lon="4.60761">
        <ele>528.8</ele>
        <time>2025-08-06T09:03:50Z</time>
      </trkpt>
      <trkpt lat="45.71172" lon="4.60766">
        <ele>529</ele>
        <time>2025-08-06T09:03:51Z</time>
      </trkpt>
      <trkpt lat="45.71172" lon="4.60772">
        <ele>529.4</ele>
        <time>2025-08-06T09:03:52Z</time>
      </trkpt>
      <trkpt lat="45.71171" lon="4.60777">
        <ele>529.6</ele>
        <time>2025-08-06T09:03:53Z</time>
      </trkpt>
      <trkpt lat="45.71171" lon="4.60783">
        <ele>529.8</ele>
        <time>2025-08-06T09:03:54Z</time>
      </trkpt>
      <trkpt lat="45.7117" lon="4.60788">
        <ele>530.2</ele>
        <time>2025-08-06T09:03:55Z</time>
      </trkpt>
      <trkpt lat="45.71169" lon="4.60793">
        <ele>530.4</ele>
        <time>2025-08-06T09:03:56Z</time>
      </trkpt>
      <trkpt lat="45.71168" lon="4.60798">
        <ele>530.6</ele>
        <time>2025-08-06T09:03:57Z</time>
      </trkpt>
      <trkpt lat="45.71168" lon="4.60803">
        <ele>530.8</ele>
        <time>2025-08-06T09:03:58Z</time>
      </trkpt>
      <trkpt lat="45.71167" lon="4.60808">
        <ele>531</ele>
        <time>2025-08-06T09:03:59Z</time>
      </trkpt>
      <trkpt lat="45.71166" lon="4.60813">
        <ele>531</ele>
        <time>2025-08-06T09:04:00Z</time>
      </trkpt>
      <trkpt lat="45.71166" lon="4.60818">
        <ele>531</ele>
        <time>2025-08-06T09:04:01Z</time>
      </trkpt>
      <trkpt lat="45.71166" lon="4.60824">
        <ele>531</ele>
        <time>2025-08-06T09:04:02Z</time>
      </trkpt>
      <trkpt lat="45.71166" lon="4.6083">
        <ele>530.8</ele>
        <time>2025-08-06T09:04:03Z</time>
      </trkpt>
      <trkpt lat="45.71166" lon="4.60837">
        <ele>530.6</ele>
        <time>2025-08-06T09:04:04Z</time>
      </trkpt>
      <trkpt lat="45.71165" lon="4.60843">
        <ele>530.4</ele>
        <time>2025-08-06T09:04:05Z</time>
      </trkpt>
      <trkpt lat="45.71164" lon="4.6085">
        <ele>530</ele>
        <time>2025-08-06T09:04:06Z</time>
      </trkpt>
      <trkpt lat="45.71162" lon="4.60857">
        <ele>529.6</ele>
        <time>2025-08-06T09:04:07Z</time>
      </trkpt>
      <trkpt lat="45.7116" lon="4.60863">
        <ele>529.4</ele>
        <time>2025-08-06T09:04:08Z</time>
      </trkpt>
      <trkpt lat="45.71158" lon="4.6087">
        <ele>529</ele>
        <time>2025-08-06T09:04:09Z</time>
      </trkpt>
      <trkpt lat="45.71156" lon="4.60874">
        <ele>529</ele>
        <time>2025-08-06T09:04:10Z</time>
      </trkpt>
      <trkpt lat="45.71153" lon="4.60876">
        <ele>529</ele>
        <time>2025-08-06T09:04:11Z</time>
      </trkpt>
      <trkpt lat="45.71151" lon="4.60875">
        <ele>529.4</ele>
        <time>2025-08-06T09:04:12Z</time>
      </trkpt>
      <trkpt lat="45.71149" lon="4.60873">
        <ele>529.6</ele>
        <time>2025-08-06T09:04:13Z</time>
      </trkpt>
      <trkpt lat="45.71147" lon="4.60871">
        <ele>530.2</ele>
        <time>2025-08-06T09:04:14Z</time>
      </trkpt>
      <trkpt lat="45.71146" lon="4.60869">
        <ele>530.6</ele>
        <time>2025-08-06T09:04:15Z</time>
      </trkpt>
      <trkpt lat="45.71144" lon="4.60866">
        <ele>531</ele>
        <time>2025-08-06T09:04:16Z</time>
      </trkpt>
      <trkpt lat="45.71141" lon="4.60864">
        <ele>531.4</ele>
        <time>2025-08-06T09:04:17Z</time>
      </trkpt>
      <trkpt lat="45.71139" lon="4.60862">
        <ele>531.8</ele>
        <time>2025-08-06T09:04:18Z</time>
      </trkpt>
      <trkpt lat="45.71136" lon="4.60861">
        <ele>532.4</ele>
        <time>2025-08-06T09:04:19Z</time>
      </trkpt>
      <trkpt lat="45.71134" lon="4.60861">
        <ele>532.8</ele>
        <time>2025-08-06T09:04:20Z</time>
      </trkpt>
      <trkpt lat="45.71132" lon="4.60861">
        <ele>533.2</ele>
        <time>2025-08-06T09:04:21Z</time>
      </trkpt>
      <trkpt lat="45.71129" lon="4.60861">
        <ele>533.6</ele>
        <time>2025-08-06T09:04:22Z</time>
      </trkpt>
      <trkpt lat="45.71127" lon="4.60862">
        <ele>534</ele>
        <time>2025-08-06T09:04:23Z</time>
      </trkpt>
      <trkpt lat="45.71124" lon="4.60863">
        <ele>534.2</ele>
        <time>2025-08-06T09:04:24Z</time>
      </trkpt>
      <trkpt lat="45.71122" lon="4.60865">
        <ele>534.4</ele>
        <time>2025-08-06T09:04:25Z</time>
      </trkpt>
      <trkpt lat="45.7112" lon="4.60867">
        <ele>534.6</ele>
        <time>2025-08-06T09:04:26Z</time>
      </trkpt>
      <trkpt lat="45.71117" lon="4.60869">
        <ele>534.4</ele>
        <time>2025-08-06T09:04:27Z</time>
      </trkpt>
      <trkpt lat="45.71114" lon="4.60872">
        <ele>534.2</ele>
        <time>2025-08-06T09:04:28Z</time>
      </trkpt>
      <trkpt lat="45.71112" lon="4.60875">
        <ele>533.8</ele>
        <time>2025-08-06T09:04:29Z</time>
      </trkpt>
      <trkpt lat="45.71111" lon="4.60877">
        <ele>533.4</ele>
        <time>2025-08-06T09:04:30Z</time>
      </trkpt>
      <trkpt lat="45.71109" lon="4.6088">
        <ele>532.8</ele>
        <time>2025-08-06T09:04:31Z</time>
      </trkpt>
      <trkpt lat="45.71107" lon="4.60883">
        <ele>532.4</ele>
        <time>2025-08-06T09:04:32Z</time>
      </trkpt>
      <trkpt lat="45.71106" lon="4.60886">
        <ele>532</ele>
        <time>2025-08-06T09:04:33Z</time>
      </trkpt>
      <trkpt lat="45.71105" lon="4.6089">
        <ele>531.4</ele>
        <time>2025-08-06T09:04:34Z</time>
      </trkpt>
      <trkpt lat="45.71104" lon="4.60893">
        <ele>531</ele>
        <time>2025-08-06T09:04:35Z</time>
      </trkpt>
      <trkpt lat="45.71103" lon="4.60897">
        <ele>530.6</ele>
        <time>2025-08-06T09:04:36Z</time>
      </trkpt>
      <trkpt lat="45.71102" lon="4.609">
        <ele>530.4</ele>
        <time>2025-08-06T09:04:37Z</time>
      </trkpt>
      <trkpt lat="45.71101" lon="4.60904">
        <ele>530</ele>
        <time>2025-08-06T09:04:38Z</time>
      </trkpt>
      <trkpt lat="45.711" lon="4.60908">
        <ele>529.8</ele>
        <time>2025-08-06T09:04:39Z</time>
      </trkpt>
      <trkpt lat="45.71099" lon="4.60912">
        <ele>529.4</ele>
        <time>2025-08-06T09:04:40Z</time>
      </trkpt>
      <trkpt lat="45.71098" lon="4.60916">
        <ele>529.2</ele>
        <time>2025-08-06T09:04:41Z</time>
      </trkpt>
      <trkpt lat="45.71096" lon="4.6092">
        <ele>528.8</ele>
        <time>2025-08-06T09:04:42Z</time>
      </trkpt>
      <trkpt lat="45.71094" lon="4.60926">
        <ele>528.4</ele>
        <time>2025-08-06T09:04:43Z</time>
      </trkpt>
      <trkpt lat="45.71092" lon="4.60931">
        <ele>528</ele>
        <time>2025-08-06T09:04:44Z</time>
      </trkpt>
      <trkpt lat="45.71091" lon="4.60937">
        <ele>527.6</ele>
        <time>2025-08-06T09:04:45Z</time>
      </trkpt>
      <trkpt lat="45.71088" lon="4.60943">
        <ele>527.2</ele>
        <time>2025-08-06T09:04:46Z</time>
      </trkpt>
      <trkpt lat="45.71086" lon="4.60951">
        <ele>526.6</ele>
        <time>2025-08-06T09:04:47Z</time>
      </trkpt>
      <trkpt lat="45.71083" lon="4.60959">
        <ele>525.8</ele>
        <time>2025-08-06T09:04:48Z</time>
      </trkpt>
      <trkpt lat="45.71081" lon="4.60967">
        <ele>525</ele>
        <time>2025-08-06T09:04:49Z</time>
      </trkpt>
      <trkpt lat="45.71078" lon="4.60976">
        <ele>524.4</ele>
        <time>2025-08-06T09:04:50Z</time>
      </trkpt>
      <trkpt lat="45.71074" lon="4.60985">
        <ele>523.8</ele>
        <time>2025-08-06T09:04:51Z</time>
      </trkpt>
      <trkpt lat="45.71071" lon="4.60993">
        <ele>523.2</ele>
        <time>2025-08-06T09:04:52Z</time>
      </trkpt>
      <trkpt lat="45.71068" lon="4.61001">
        <ele>523</ele>
        <time>2025-08-06T09:04:53Z</time>
      </trkpt>
      <trkpt lat="45.71066" lon="4.61008">
        <ele>523</ele>
        <time>2025-08-06T09:04:54Z</time>
      </trkpt>
      <trkpt lat="45.71065" lon="4.61015">
        <ele>523</ele>
        <time>2025-08-06T09:04:55Z</time>
      </trkpt>
      <trkpt lat="45.71065" lon="4.6102">
        <ele>523.4</ele>
        <time>2025-08-06T09:04:56Z</time>
      </trkpt>
      <trkpt lat="45.71065" lon="4.61023">
        <ele>523.8</ele>
        <time>2025-08-06T09:04:57Z</time>
      </trkpt>
      <trkpt lat="45.71068" lon="4.61028">
        <ele>524</ele>
        <time>2025-08-06T09:04:58Z</time>
      </trkpt>
      <trkpt lat="45.7107" lon="4.61031">
        <ele>524.6</ele>
        <time>2025-08-06T09:04:59Z</time>
      </trkpt>
      <trkpt lat="45.71072" lon="4.61034">
        <ele>525</ele>
        <time>2025-08-06T09:05:00Z</time>
      </trkpt>
      <trkpt lat="45.71074" lon="4.61038">
        <ele>525.4</ele>
        <time>2025-08-06T09:05:01Z</time>
      </trkpt>
      <trkpt lat="45.71075" lon="4.61042">
        <ele>525.8</ele>
        <time>2025-08-06T09:05:02Z</time>
      </trkpt>
      <trkpt lat="45.71076" lon="4.61046">
        <ele>526.4</ele>
        <time>2025-08-06T09:05:03Z</time>
      </trkpt>
      <trkpt lat="45.71077" lon="4.61048">
        <ele>526.8</ele>
        <time>2025-08-06T09:05:04Z</time>
      </trkpt>
      <trkpt lat="45.71078" lon="4.61051">
        <ele>527.4</ele>
        <time>2025-08-06T09:05:05Z</time>
      </trkpt>
      <trkpt lat="45.71078" lon="4.61054">
        <ele>527.8</ele>
        <time>2025-08-06T09:05:06Z</time>
      </trkpt>
      <trkpt lat="45.7108" lon="4.61057">
        <ele>528.2</ele>
        <time>2025-08-06T09:05:07Z</time>
      </trkpt>
      <trkpt lat="45.71081" lon="4.61059">
        <ele>528.6</ele>
        <time>2025-08-06T09:05:08Z</time>
      </trkpt>
      <trkpt lat="45.71082" lon="4.61061">
        <ele>529</ele>
        <time>2025-08-06T09:05:09Z</time>
      </trkpt>
      <trkpt lat="45.71083" lon="4.61065">
        <ele>529.2</ele>
        <time>2025-08-06T09:05:10Z</time>
      </trkpt>
      <trkpt lat="45.71083" lon="4.61068">
        <ele>529.4</ele>
        <time>2025-08-06T09:05:11Z</time>
      </trkpt>
      <trkpt lat="45.71084" lon="4.61071">
        <ele>529.6</ele>
        <time>2025-08-06T09:05:12Z</time>
      </trkpt>
      <trkpt lat="45.71085" lon="4.61074">
        <ele>529.8</ele>
        <time>2025-08-06T09:05:13Z</time>
      </trkpt>
      <trkpt lat="45.71086" lon="4.61077">
        <ele>530.2</ele>
        <time>2025-08-06T09:05:14Z</time>
      </trkpt>
      <trkpt lat="45.71086" lon="4.6108">
        <ele>530.4</ele>
        <time>2025-08-06T09:05:15Z</time>
      </trkpt>
      <trkpt lat="45.71087" lon="4.61083">
        <ele>530.6</ele>
        <time>2025-08-06T09:05:16Z</time>
      </trkpt>
      <trkpt lat="45.71088" lon="4.61087">
        <ele>531</ele>
        <time>2025-08-06T09:05:17Z</time>
      </trkpt>
      <trkpt lat="45.71089" lon="4.61091">
        <ele>531.2</ele>
        <time>2025-08-06T09:05:18Z</time>
      </trkpt>
      <trkpt lat="45.71089" lon="4.61095">
        <ele>531.4</ele>
        <time>2025-08-06T09:05:19Z</time>
      </trkpt>
      <trkpt lat="45.71089" lon="4.61099">
        <ele>531.6</ele>
        <time>2025-08-06T09:05:20Z</time>
      </trkpt>
      <trkpt lat="45.71088" lon="4.61104">
        <ele>531.8</ele>
        <time>2025-08-06T09:05:21Z</time>
      </trkpt>
      <trkpt lat="45.71089" lon="4.61108">
        <ele>532.2</ele>
        <time>2025-08-06T09:05:22Z</time>
      </trkpt>
      <trkpt lat="45.71089" lon="4.61112">
        <ele>532.4</ele>
        <time>2025-08-06T09:05:23Z</time>
      </trkpt>
      <trkpt lat="45.7109" lon="4.61115">
        <ele>532.8</ele>
        <time>2025-08-06T09:05:24Z</time>
      </trkpt>
      <trkpt lat="45.71089" lon="4.61119">
        <ele>533.2</ele>
        <time>2025-08-06T09:05:25Z</time>
      </trkpt>
      <trkpt lat="45.71089" lon="4.61124">
        <ele>533.8</ele>
        <time>2025-08-06T09:05:26Z</time>
      </trkpt>
      <trkpt lat="45.7109" lon="4.61128">
        <ele>534.2</ele>
        <time>2025-08-06T09:05:27Z</time>
      </trkpt>
      <trkpt lat="45.7109" lon="4.61133">
        <ele>534.6</ele>
        <time>2025-08-06T09:05:28Z</time>
      </trkpt>
      <trkpt lat="45.7109" lon="4.61137">
        <ele>535</ele>
        <time>2025-08-06T09:05:29Z</time>
      </trkpt>
      <trkpt lat="45.7109" lon="4.61141">
        <ele>535.4</ele>
        <time>2025-08-06T09:05:30Z</time>
      </trkpt>
      <trkpt lat="45.7109" lon="4.61145">
        <ele>535.8</ele>
        <time>2025-08-06T09:05:31Z</time>
      </trkpt>
      <trkpt lat="45.7109" lon="4.61148">
        <ele>536</ele>
        <time>2025-08-06T09:05:32Z</time>
      </trkpt>
      <trkpt lat="45.71091" lon="4.61152">
        <ele>536.2</ele>
        <time>2025-08-06T09:05:33Z</time>
      </trkpt>
      <trkpt lat="45.71091" lon="4.61156">
        <ele>536.4</ele>
        <time>2025-08-06T09:05:34Z</time>
      </trkpt>
      <trkpt lat="45.71091" lon="4.61159">
        <ele>536.4</ele>
        <time>2025-08-06T09:05:35Z</time>
      </trkpt>
      <trkpt lat="45.71091" lon="4.61163">
        <ele>536.4</ele>
        <time>2025-08-06T09:05:36Z</time>
      </trkpt>
      <trkpt lat="45.7109" lon="4.61167">
        <ele>536.4</ele>
        <time>2025-08-06T09:05:37Z</time>
      </trkpt>
      <trkpt lat="45.7109" lon="4.61171">
        <ele>536.4</ele>
        <time>2025-08-06T09:05:38Z</time>
      </trkpt>
      <trkpt lat="45.71089" lon="4.61175">
        <ele>536.4</ele>
        <time>2025-08-06T09:05:39Z</time>
      </trkpt>
      <trkpt lat="45.71089" lon="4.61179">
        <ele>536.4</ele>
        <time>2025-08-06T09:05:40Z</time>
      </trkpt>
      <trkpt lat="45.71088" lon="4.61182">
        <ele>536.4</ele>
        <time>2025-08-06T09:05:41Z</time>
      </trkpt>
      <trkpt lat="45.71088" lon="4.61186">
        <ele>536.2</ele>
        <time>2025-08-06T09:05:42Z</time>
      </trkpt>
      <trkpt lat="45.71088" lon="4.61191">
        <ele>536</ele>
        <time>2025-08-06T09:05:43Z</time>
      </trkpt>
      <trkpt lat="45.71088" lon="4.61197">
        <ele>535.8</ele>
        <time>2025-08-06T09:05:44Z</time>
      </trkpt>
      <trkpt lat="45.71088" lon="4.61205">
        <ele>535.2</ele>
        <time>2025-08-06T09:05:45Z</time>
      </trkpt>
      <trkpt lat="45.71087" lon="4.61214">
        <ele>534.4</ele>
        <time>2025-08-06T09:05:46Z</time>
      </trkpt>
      <trkpt lat="45.71085" lon="4.61223">
        <ele>533.6</ele>
        <time>2025-08-06T09:05:47Z</time>
      </trkpt>
      <trkpt lat="45.71083" lon="4.61232">
        <ele>532.8</ele>
        <time>2025-08-06T09:05:48Z</time>
      </trkpt>
      <trkpt lat="45.7108" lon="4.6124">
        <ele>532</ele>
        <time>2025-08-06T09:05:49Z</time>
      </trkpt>
      <trkpt lat="45.71077" lon="4.61247">
        <ele>531.2</ele>
        <time>2025-08-06T09:05:50Z</time>
      </trkpt>
      <trkpt lat="45.71071" lon="4.61254">
        <ele>530.8</ele>
        <time>2025-08-06T09:05:51Z</time>
      </trkpt>
      <trkpt lat="45.71066" lon="4.6126">
        <ele>530.4</ele>
        <time>2025-08-06T09:05:52Z</time>
      </trkpt>
      <trkpt lat="45.71061" lon="4.61266">
        <ele>530.2</ele>
        <time>2025-08-06T09:05:53Z</time>
      </trkpt>
      <trkpt lat="45.71056" lon="4.61272">
        <ele>529.8</ele>
        <time>2025-08-06T09:05:54Z</time>
      </trkpt>
      <trkpt lat="45.7105" lon="4.61279">
        <ele>529.4</ele>
        <time>2025-08-06T09:05:55Z</time>
      </trkpt>
      <trkpt lat="45.71044" lon="4.61285">
        <ele>529</ele>
        <time>2025-08-06T09:05:56Z</time>
      </trkpt>
      <trkpt lat="45.7104" lon="4.61291">
        <ele>528.6</ele>
        <time>2025-08-06T09:05:57Z</time>
      </trkpt>
      <trkpt lat="45.71035" lon="4.61298">
        <ele>528.2</ele>
        <time>2025-08-06T09:05:58Z</time>
      </trkpt>
      <trkpt lat="45.71031" lon="4.61305">
        <ele>527.8</ele>
        <time>2025-08-06T09:05:59Z</time>
      </trkpt>
      <trkpt lat="45.71028" lon="4.61311">
        <ele>528</ele>
        <time>2025-08-06T09:06:00Z</time>
      </trkpt>
      <trkpt lat="45.71025" lon="4.61314">
        <ele>528.2</ele>
        <time>2025-08-06T09:06:01Z</time>
      </trkpt>
      <trkpt lat="45.71022" lon="4.61319">
        <ele>528.6</ele>
        <time>2025-08-06T09:06:02Z</time>
      </trkpt>
      <trkpt lat="45.71022" lon="4.61322">
        <ele>529.2</ele>
        <time>2025-08-06T09:06:03Z</time>
      </trkpt>
      <trkpt lat="45.7102" lon="4.61326">
        <ele>529.8</ele>
        <time>2025-08-06T09:06:04Z</time>
      </trkpt>
      <trkpt lat="45.7102" lon="4.61329">
        <ele>530.2</ele>
        <time>2025-08-06T09:06:05Z</time>
      </trkpt>
      <trkpt lat="45.7102" lon="4.61333">
        <ele>530.6</ele>
        <time>2025-08-06T09:06:06Z</time>
      </trkpt>
      <trkpt lat="45.71019" lon="4.61338">
        <ele>530.8</ele>
        <time>2025-08-06T09:06:07Z</time>
      </trkpt>
      <trkpt lat="45.71018" lon="4.61343">
        <ele>530.6</ele>
        <time>2025-08-06T09:06:08Z</time>
      </trkpt>
      <trkpt lat="45.71018" lon="4.61349">
        <ele>530.2</ele>
        <time>2025-08-06T09:06:09Z</time>
      </trkpt>
      <trkpt lat="45.71018" lon="4.61355">
        <ele>529.8</ele>
        <time>2025-08-06T09:06:10Z</time>
      </trkpt>
      <trkpt lat="45.71021" lon="4.61362">
        <ele>529.4</ele>
        <time>2025-08-06T09:06:11Z</time>
      </trkpt>
      <trkpt lat="45.71023" lon="4.61369">
        <ele>529</ele>
        <time>2025-08-06T09:06:12Z</time>
      </trkpt>
      <trkpt lat="45.71026" lon="4.61376">
        <ele>528.6</ele>
        <time>2025-08-06T09:06:13Z</time>
      </trkpt>
      <trkpt lat="45.71028" lon="4.61384">
        <ele>528</ele>
        <time>2025-08-06T09:06:14Z</time>
      </trkpt>
      <trkpt lat="45.71031" lon="4.61391">
        <ele>527.8</ele>
        <time>2025-08-06T09:06:15Z</time>
      </trkpt>
      <trkpt lat="45.71033" lon="4.614">
        <ele>527.4</ele>
        <time>2025-08-06T09:06:16Z</time>
      </trkpt>
      <trkpt lat="45.71037" lon="4.61408">
        <ele>527.2</ele>
        <time>2025-08-06T09:06:17Z</time>
      </trkpt>
      <trkpt lat="45.71039" lon="4.61416">
        <ele>526.8</ele>
        <time>2025-08-06T09:06:18Z</time>
      </trkpt>
      <trkpt lat="45.71041" lon="4.61424">
        <ele>526.6</ele>
        <time>2025-08-06T09:06:19Z</time>
      </trkpt>
      <trkpt lat="45.71043" lon="4.61432">
        <ele>526.6</ele>
        <time>2025-08-06T09:06:20Z</time>
      </trkpt>
      <trkpt lat="45.71045" lon="4.61439">
        <ele>526.4</ele>
        <time>2025-08-06T09:06:21Z</time>
      </trkpt>
      <trkpt lat="45.71048" lon="4.61446">
        <ele>526.6</ele>
        <time>2025-08-06T09:06:22Z</time>
      </trkpt>
      <trkpt lat="45.7105" lon="4.61452">
        <ele>527</ele>
        <time>2025-08-06T09:06:23Z</time>
      </trkpt>
      <trkpt lat="45.71053" lon="4.61456">
        <ele>527.4</ele>
        <time>2025-08-06T09:06:24Z</time>
      </trkpt>
      <trkpt lat="45.71054" lon="4.61459">
        <ele>527.8</ele>
        <time>2025-08-06T09:06:25Z</time>
      </trkpt>
      <trkpt lat="45.71055" lon="4.61465">
        <ele>528.4</ele>
        <time>2025-08-06T09:06:26Z</time>
      </trkpt>
      <trkpt lat="45.71056" lon="4.6147">
        <ele>528.6</ele>
        <time>2025-08-06T09:06:27Z</time>
      </trkpt>
      <trkpt lat="45.71058" lon="4.61475">
        <ele>528.8</ele>
        <time>2025-08-06T09:06:28Z</time>
      </trkpt>
      <trkpt lat="45.71059" lon="4.61481">
        <ele>529</ele>
        <time>2025-08-06T09:06:29Z</time>
      </trkpt>
      <trkpt lat="45.7106" lon="4.61487">
        <ele>529</ele>
        <time>2025-08-06T09:06:30Z</time>
      </trkpt>
      <trkpt lat="45.71061" lon="4.61493">
        <ele>529.2</ele>
        <time>2025-08-06T09:06:31Z</time>
      </trkpt>
      <trkpt lat="45.7106" lon="4.61499">
        <ele>529.2</ele>
        <time>2025-08-06T09:06:32Z</time>
      </trkpt>
      <trkpt lat="45.71059" lon="4.61505">
        <ele>529.2</ele>
        <time>2025-08-06T09:06:33Z</time>
      </trkpt>
      <trkpt lat="45.71059" lon="4.61512">
        <ele>529.2</ele>
        <time>2025-08-06T09:06:34Z</time>
      </trkpt>
      <trkpt lat="45.71059" lon="4.6152">
        <ele>529.2</ele>
        <time>2025-08-06T09:06:35Z</time>
      </trkpt>
      <trkpt lat="45.71061" lon="4.61527">
        <ele>529</ele>
        <time>2025-08-06T09:06:36Z</time>
      </trkpt>
      <trkpt lat="45.71063" lon="4.61534">
        <ele>529</ele>
        <time>2025-08-06T09:06:37Z</time>
      </trkpt>
      <trkpt lat="45.71065" lon="4.61542">
        <ele>528.8</ele>
        <time>2025-08-06T09:06:38Z</time>
      </trkpt>
      <trkpt lat="45.71065" lon="4.6155">
        <ele>528.6</ele>
        <time>2025-08-06T09:06:39Z</time>
      </trkpt>
      <trkpt lat="45.71065" lon="4.61558">
        <ele>528.2</ele>
        <time>2025-08-06T09:06:40Z</time>
      </trkpt>
      <trkpt lat="45.71066" lon="4.61567">
        <ele>527.6</ele>
        <time>2025-08-06T09:06:41Z</time>
      </trkpt>
      <trkpt lat="45.71064" lon="4.61578">
        <ele>527</ele>
        <time>2025-08-06T09:06:42Z</time>
      </trkpt>
      <trkpt lat="45.71062" lon="4.6159">
        <ele>526.2</ele>
        <time>2025-08-06T09:06:43Z</time>
      </trkpt>
      <trkpt lat="45.71059" lon="4.61599">
        <ele>525.8</ele>
        <time>2025-08-06T09:06:44Z</time>
      </trkpt>
      <trkpt lat="45.71057" lon="4.61606">
        <ele>525.4</ele>
        <time>2025-08-06T09:06:45Z</time>
      </trkpt>
      <trkpt lat="45.71056" lon="4.61613">
        <ele>525.2</ele>
        <time>2025-08-06T09:06:46Z</time>
      </trkpt>
      <trkpt lat="45.71056" lon="4.61619">
        <ele>525.2</ele>
        <time>2025-08-06T09:06:47Z</time>
      </trkpt>
      <trkpt lat="45.71055" lon="4.61624">
        <ele>525.2</ele>
        <time>2025-08-06T09:06:48Z</time>
      </trkpt>
      <trkpt lat="45.71054" lon="4.6163">
        <ele>525.4</ele>
        <time>2025-08-06T09:06:49Z</time>
      </trkpt>
      <trkpt lat="45.71052" lon="4.61635">
        <ele>525.2</ele>
        <time>2025-08-06T09:06:50Z</time>
      </trkpt>
      <trkpt lat="45.71051" lon="4.6164">
        <ele>525.2</ele>
        <time>2025-08-06T09:06:51Z</time>
      </trkpt>
      <trkpt lat="45.71049" lon="4.61645">
        <ele>525</ele>
        <time>2025-08-06T09:06:52Z</time>
      </trkpt>
      <trkpt lat="45.71047" lon="4.61651">
        <ele>525</ele>
        <time>2025-08-06T09:06:53Z</time>
      </trkpt>
      <trkpt lat="45.71045" lon="4.61657">
        <ele>524.8</ele>
        <time>2025-08-06T09:06:54Z</time>
      </trkpt>
      <trkpt lat="45.71044" lon="4.61663">
        <ele>524.6</ele>
        <time>2025-08-06T09:06:55Z</time>
      </trkpt>
      <trkpt lat="45.71044" lon="4.61668">
        <ele>524.6</ele>
        <time>2025-08-06T09:06:56Z</time>
      </trkpt>
      <trkpt lat="45.71044" lon="4.61673">
        <ele>524.6</ele>
        <time>2025-08-06T09:06:57Z</time>
      </trkpt>
      <trkpt lat="45.71044" lon="4.61677">
        <ele>524.6</ele>
        <time>2025-08-06T09:06:58Z</time>
      </trkpt>
      <trkpt lat="45.71046" lon="4.61681">
        <ele>524.6</ele>
        <time>2025-08-06T09:06:59Z</time>
      </trkpt>
      <trkpt lat="45.71046" lon="4.61687">
        <ele>524.4</ele>
        <time>2025-08-06T09:07:00Z</time>
      </trkpt>
      <trkpt lat="45.71047" lon="4.61693">
        <ele>524.2</ele>
        <time>2025-08-06T09:07:01Z</time>
      </trkpt>
      <trkpt lat="45.71047" lon="4.61699">
        <ele>524.2</ele>
        <time>2025-08-06T09:07:02Z</time>
      </trkpt>
      <trkpt lat="45.71047" lon="4.61704">
        <ele>524.2</ele>
        <time>2025-08-06T09:07:03Z</time>
      </trkpt>
      <trkpt lat="45.71047" lon="4.61709">
        <ele>524.2</ele>
        <time>2025-08-06T09:07:04Z</time>
      </trkpt>
      <trkpt lat="45.71048" lon="4.61714">
        <ele>524.2</ele>
        <time>2025-08-06T09:07:05Z</time>
      </trkpt>
      <trkpt lat="45.7105" lon="4.61719">
        <ele>524.2</ele>
        <time>2025-08-06T09:07:06Z</time>
      </trkpt>
      <trkpt lat="45.71051" lon="4.61725">
        <ele>524.4</ele>
        <time>2025-08-06T09:07:07Z</time>
      </trkpt>
      <trkpt lat="45.71052" lon="4.61731">
        <ele>524.4</ele>
        <time>2025-08-06T09:07:08Z</time>
      </trkpt>
      <trkpt lat="45.71052" lon="4.61737">
        <ele>524.6</ele>
        <time>2025-08-06T09:07:09Z</time>
      </trkpt>
      <trkpt lat="45.71051" lon="4.61743">
        <ele>525</ele>
        <time>2025-08-06T09:07:10Z</time>
      </trkpt>
      <trkpt lat="45.71051" lon="4.61748">
        <ele>525.2</ele>
        <time>2025-08-06T09:07:11Z</time>
      </trkpt>
      <trkpt lat="45.71052" lon="4.61752">
        <ele>525.6</ele>
        <time>2025-08-06T09:07:12Z</time>
      </trkpt>
      <trkpt lat="45.71052" lon="4.61758">
        <ele>526</ele>
        <time>2025-08-06T09:07:13Z</time>
      </trkpt>
      <trkpt lat="45.71053" lon="4.61765">
        <ele>526.4</ele>
        <time>2025-08-06T09:07:14Z</time>
      </trkpt>
      <trkpt lat="45.71052" lon="4.61772">
        <ele>526.6</ele>
        <time>2025-08-06T09:07:15Z</time>
      </trkpt>
      <trkpt lat="45.71053" lon="4.61777">
        <ele>526.8</ele>
        <time>2025-08-06T09:07:16Z</time>
      </trkpt>
      <trkpt lat="45.71053" lon="4.61782">
        <ele>527</ele>
        <time>2025-08-06T09:07:17Z</time>
      </trkpt>
      <trkpt lat="45.71053" lon="4.61786">
        <ele>527.2</ele>
        <time>2025-08-06T09:07:18Z</time>
      </trkpt>
      <trkpt lat="45.71051" lon="4.61791">
        <ele>527.4</ele>
        <time>2025-08-06T09:07:19Z</time>
      </trkpt>
      <trkpt lat="45.71049" lon="4.61798">
        <ele>527.4</ele>
        <time>2025-08-06T09:07:20Z</time>
      </trkpt>
      <trkpt lat="45.71047" lon="4.61802">
        <ele>527.6</ele>
        <time>2025-08-06T09:07:21Z</time>
      </trkpt>
      <trkpt lat="45.71047" lon="4.61809">
        <ele>527.4</ele>
        <time>2025-08-06T09:07:22Z</time>
      </trkpt>
      <trkpt lat="45.71047" lon="4.61815">
        <ele>527.4</ele>
        <time>2025-08-06T09:07:23Z</time>
      </trkpt>
      <trkpt lat="45.71047" lon="4.61821">
        <ele>527.2</ele>
        <time>2025-08-06T09:07:24Z</time>
      </trkpt>
      <trkpt lat="45.71046" lon="4.61832">
        <ele>526.8</ele>
        <time>2025-08-06T09:07:25Z</time>
      </trkpt>
      <trkpt lat="45.71044" lon="4.6184">
        <ele>526.6</ele>
        <time>2025-08-06T09:07:26Z</time>
      </trkpt>
      <trkpt lat="45.71045" lon="4.61848">
        <ele>526.4</ele>
        <time>2025-08-06T09:07:27Z</time>
      </trkpt>
      <trkpt lat="45.71045" lon="4.61854">
        <ele>526</ele>
        <time>2025-08-06T09:07:28Z</time>
      </trkpt>
      <trkpt lat="45.71046" lon="4.61861">
        <ele>525.6</ele>
        <time>2025-08-06T09:07:29Z</time>
      </trkpt>
      <trkpt lat="45.71047" lon="4.6187">
        <ele>525.2</ele>
        <time>2025-08-06T09:07:30Z</time>
      </trkpt>
      <trkpt lat="45.71047" lon="4.6188">
        <ele>524.8</ele>
        <time>2025-08-06T09:07:31Z</time>
      </trkpt>
      <trkpt lat="45.71046" lon="4.61887">
        <ele>524.4</ele>
        <time>2025-08-06T09:07:32Z</time>
      </trkpt>
      <trkpt lat="45.71044" lon="4.61893">
        <ele>524.4</ele>
        <time>2025-08-06T09:07:33Z</time>
      </trkpt>
      <trkpt lat="45.71042" lon="4.619">
        <ele>524.4</ele>
        <time>2025-08-06T09:07:34Z</time>
      </trkpt>
      <trkpt lat="45.71042" lon="4.61907">
        <ele>524.4</ele>
        <time>2025-08-06T09:07:35Z</time>
      </trkpt>
      <trkpt lat="45.71042" lon="4.61915">
        <ele>524.4</ele>
        <time>2025-08-06T09:07:36Z</time>
      </trkpt>
      <trkpt lat="45.71042" lon="4.61924">
        <ele>524.4</ele>
        <time>2025-08-06T09:07:37Z</time>
      </trkpt>
      <trkpt lat="45.71042" lon="4.6193">
        <ele>524</ele>
        <time>2025-08-06T09:07:38Z</time>
      </trkpt>
      <trkpt lat="45.71041" lon="4.61937">
        <ele>523.8</ele>
        <time>2025-08-06T09:07:39Z</time>
      </trkpt>
      <trkpt lat="45.71038" lon="4.61946">
        <ele>523.8</ele>
        <time>2025-08-06T09:07:40Z</time>
      </trkpt>
      <trkpt lat="45.71038" lon="4.61952">
        <ele>523.8</ele>
        <time>2025-08-06T09:07:41Z</time>
      </trkpt>
      <trkpt lat="45.71037" lon="4.61957">
        <ele>523.8</ele>
        <time>2025-08-06T09:07:42Z</time>
      </trkpt>
      <trkpt lat="45.71034" lon="4.61964">
        <ele>524</ele>
        <time>2025-08-06T09:07:43Z</time>
      </trkpt>
      <trkpt lat="45.71031" lon="4.6197">
        <ele>524.2</ele>
        <time>2025-08-06T09:07:44Z</time>
      </trkpt>
      <trkpt lat="45.7103" lon="4.61976">
        <ele>524.4</ele>
        <time>2025-08-06T09:07:45Z</time>
      </trkpt>
      <trkpt lat="45.71029" lon="4.61982">
        <ele>524.6</ele>
        <time>2025-08-06T09:07:46Z</time>
      </trkpt>
      <trkpt lat="45.71028" lon="4.61987">
        <ele>524.6</ele>
        <time>2025-08-06T09:07:47Z</time>
      </trkpt>
      <trkpt lat="45.71026" lon="4.61993">
        <ele>524.8</ele>
        <time>2025-08-06T09:07:48Z</time>
      </trkpt>
      <trkpt lat="45.71025" lon="4.61999">
        <ele>524.8</ele>
        <time>2025-08-06T09:07:49Z</time>
      </trkpt>
      <trkpt lat="45.71023" lon="4.62005">
        <ele>524.8</ele>
        <time>2025-08-06T09:07:50Z</time>
      </trkpt>
      <trkpt lat="45.7102" lon="4.62011">
        <ele>525</ele>
        <time>2025-08-06T09:07:51Z</time>
      </trkpt>
      <trkpt lat="45.71018" lon="4.62016">
        <ele>525</ele>
        <time>2025-08-06T09:07:52Z</time>
      </trkpt>
      <trkpt lat="45.71017" lon="4.6202">
        <ele>525.2</ele>
        <time>2025-08-06T09:07:53Z</time>
      </trkpt>
      <trkpt lat="45.71015" lon="4.62024">
        <ele>525.6</ele>
        <time>2025-08-06T09:07:54Z</time>
      </trkpt>
      <trkpt lat="45.71014" lon="4.62027">
        <ele>525.8</ele>
        <time>2025-08-06T09:07:55Z</time>
      </trkpt>
      <trkpt lat="45.71012" lon="4.62029">
        <ele>526.4</ele>
        <time>2025-08-06T09:07:56Z</time>
      </trkpt>
      <trkpt lat="45.71011" lon="4.62031">
        <ele>526.8</ele>
        <time>2025-08-06T09:07:57Z</time>
      </trkpt>
      <trkpt lat="45.71009" lon="4.62033">
        <ele>527.4</ele>
        <time>2025-08-06T09:07:58Z</time>
      </trkpt>
      <trkpt lat="45.71007" lon="4.62036">
        <ele>527.8</ele>
        <time>2025-08-06T09:07:59Z</time>
      </trkpt>
      <trkpt lat="45.71005" lon="4.6204">
        <ele>528.2</ele>
        <time>2025-08-06T09:08:00Z</time>
      </trkpt>
      <trkpt lat="45.71003" lon="4.62044">
        <ele>528.6</ele>
        <time>2025-08-06T09:08:01Z</time>
      </trkpt>
      <trkpt lat="45.71002" lon="4.62049">
        <ele>528.8</ele>
        <time>2025-08-06T09:08:02Z</time>
      </trkpt>
      <trkpt lat="45.71001" lon="4.62052">
        <ele>529.2</ele>
        <time>2025-08-06T09:08:03Z</time>
      </trkpt>
      <trkpt lat="45.70999" lon="4.62056">
        <ele>529.4</ele>
        <time>2025-08-06T09:08:04Z</time>
      </trkpt>
      <trkpt lat="45.70999" lon="4.62059">
        <ele>529.8</ele>
        <time>2025-08-06T09:08:05Z</time>
      </trkpt>
      <trkpt lat="45.70997" lon="4.62061">
        <ele>530.2</ele>
        <time>2025-08-06T09:08:06Z</time>
      </trkpt>
      <trkpt lat="45.70995" lon="4.62064">
        <ele>530.6</ele>
        <time>2025-08-06T09:08:07Z</time>
      </trkpt>
      <trkpt lat="45.70993" lon="4.62067">
        <ele>530.8</ele>
        <time>2025-08-06T09:08:08Z</time>
      </trkpt>
      <trkpt lat="45.70992" lon="4.62071">
        <ele>531.2</ele>
        <time>2025-08-06T09:08:09Z</time>
      </trkpt>
      <trkpt lat="45.70991" lon="4.62075">
        <ele>531.4</ele>
        <time>2025-08-06T09:08:10Z</time>
      </trkpt>
      <trkpt lat="45.7099" lon="4.62078">
        <ele>531.6</ele>
        <time>2025-08-06T09:08:11Z</time>
      </trkpt>
      <trkpt lat="45.70989" lon="4.62082">
        <ele>531.8</ele>
        <time>2025-08-06T09:08:12Z</time>
      </trkpt>
      <trkpt lat="45.70989" lon="4.62085">
        <ele>531.8</ele>
        <time>2025-08-06T09:08:13Z</time>
      </trkpt>
      <trkpt lat="45.70989" lon="4.62089">
        <ele>532</ele>
        <time>2025-08-06T09:08:14Z</time>
      </trkpt>
      <trkpt lat="45.70988" lon="4.62095">
        <ele>532</ele>
        <time>2025-08-06T09:08:15Z</time>
      </trkpt>
      <trkpt lat="45.70987" lon="4.621">
        <ele>532</ele>
        <time>2025-08-06T09:08:16Z</time>
      </trkpt>
      <trkpt lat="45.70986" lon="4.62105">
        <ele>532</ele>
        <time>2025-08-06T09:08:17Z</time>
      </trkpt>
      <trkpt lat="45.70984" lon="4.6211">
        <ele>532.2</ele>
        <time>2025-08-06T09:08:18Z</time>
      </trkpt>
      <trkpt lat="45.70982" lon="4.62114">
        <ele>532.4</ele>
        <time>2025-08-06T09:08:19Z</time>
      </trkpt>
      <trkpt lat="45.70982" lon="4.62118">
        <ele>532.6</ele>
        <time>2025-08-06T09:08:20Z</time>
      </trkpt>
      <trkpt lat="45.70981" lon="4.62121">
        <ele>533</ele>
        <time>2025-08-06T09:08:21Z</time>
      </trkpt>
      <trkpt lat="45.70979" lon="4.62126">
        <ele>533.4</ele>
        <time>2025-08-06T09:08:22Z</time>
      </trkpt>
      <trkpt lat="45.70978" lon="4.6213">
        <ele>533.8</ele>
        <time>2025-08-06T09:08:23Z</time>
      </trkpt>
      <trkpt lat="45.70975" lon="4.62135">
        <ele>534.2</ele>
        <time>2025-08-06T09:08:24Z</time>
      </trkpt>
      <trkpt lat="45.70973" lon="4.6214">
        <ele>534.4</ele>
        <time>2025-08-06T09:08:25Z</time>
      </trkpt>
      <trkpt lat="45.7097" lon="4.62144">
        <ele>534.8</ele>
        <time>2025-08-06T09:08:26Z</time>
      </trkpt>
      <trkpt lat="45.70967" lon="4.62148">
        <ele>535</ele>
        <time>2025-08-06T09:08:27Z</time>
      </trkpt>
      <trkpt lat="45.70965" lon="4.62153">
        <ele>535.4</ele>
        <time>2025-08-06T09:08:28Z</time>
      </trkpt>
      <trkpt lat="45.70964" lon="4.62157">
        <ele>535.6</ele>
        <time>2025-08-06T09:08:29Z</time>
      </trkpt>
      <trkpt lat="45.70963" lon="4.62161">
        <ele>536</ele>
        <time>2025-08-06T09:08:30Z</time>
      </trkpt>
      <trkpt lat="45.70964" lon="4.62165">
        <ele>536.2</ele>
        <time>2025-08-06T09:08:31Z</time>
      </trkpt>
      <trkpt lat="45.70962" lon="4.62169">
        <ele>536.6</ele>
        <time>2025-08-06T09:08:32Z</time>
      </trkpt>
      <trkpt lat="45.70962" lon="4.62173">
        <ele>537</ele>
        <time>2025-08-06T09:08:33Z</time>
      </trkpt>
      <trkpt lat="45.70963" lon="4.62176">
        <ele>537.2</ele>
        <time>2025-08-06T09:08:34Z</time>
      </trkpt>
      <trkpt lat="45.70963" lon="4.62181">
        <ele>537.4</ele>
        <time>2025-08-06T09:08:35Z</time>
      </trkpt>
      <trkpt lat="45.70965" lon="4.62187">
        <ele>537.4</ele>
        <time>2025-08-06T09:08:36Z</time>
      </trkpt>
      <trkpt lat="45.70965" lon="4.62192">
        <ele>537.4</ele>
        <time>2025-08-06T09:08:37Z</time>
      </trkpt>
      <trkpt lat="45.70964" lon="4.62199">
        <ele>537</ele>
        <time>2025-08-06T09:08:38Z</time>
      </trkpt>
      <trkpt lat="45.70965" lon="4.62206">
        <ele>536.8</ele>
        <time>2025-08-06T09:08:39Z</time>
      </trkpt>
      <trkpt lat="45.70965" lon="4.62215">
        <ele>536.2</ele>
        <time>2025-08-06T09:08:40Z</time>
      </trkpt>
      <trkpt lat="45.70963" lon="4.62222">
        <ele>535.8</ele>
        <time>2025-08-06T09:08:41Z</time>
      </trkpt>
      <trkpt lat="45.70964" lon="4.62232">
        <ele>535</ele>
        <time>2025-08-06T09:08:42Z</time>
      </trkpt>
      <trkpt lat="45.70965" lon="4.62242">
        <ele>534.4</ele>
        <time>2025-08-06T09:08:43Z</time>
      </trkpt>
      <trkpt lat="45.70966" lon="4.62253">
        <ele>533.6</ele>
        <time>2025-08-06T09:08:44Z</time>
      </trkpt>
      <trkpt lat="45.70966" lon="4.62264">
        <ele>533</ele>
        <time>2025-08-06T09:08:45Z</time>
      </trkpt>
      <trkpt lat="45.70967" lon="4.62274">
        <ele>532.4</ele>
        <time>2025-08-06T09:08:46Z</time>
      </trkpt>
      <trkpt lat="45.70969" lon="4.62282">
        <ele>532</ele>
        <time>2025-08-06T09:08:47Z</time>
      </trkpt>
      <trkpt lat="45.7097" lon="4.6229">
        <ele>531.8</ele>
        <time>2025-08-06T09:08:48Z</time>
      </trkpt>
      <trkpt lat="45.70971" lon="4.62298">
        <ele>531.4</ele>
        <time>2025-08-06T09:08:49Z</time>
      </trkpt>
      <trkpt lat="45.70979" lon="4.62308">
        <ele>530.6</ele>
        <time>2025-08-06T09:08:50Z</time>
      </trkpt>
      <trkpt lat="45.70984" lon="4.62316">
        <ele>529.8</ele>
        <time>2025-08-06T09:08:51Z</time>
      </trkpt>
      <trkpt lat="45.70989" lon="4.62326">
        <ele>529</ele>
        <time>2025-08-06T09:08:52Z</time>
      </trkpt>
      <trkpt lat="45.70993" lon="4.62335">
        <ele>528</ele>
        <time>2025-08-06T09:08:53Z</time>
      </trkpt>
      <trkpt lat="45.70998" lon="4.62344">
        <ele>527</ele>
        <time>2025-08-06T09:08:54Z</time>
      </trkpt>
      <trkpt lat="45.71006" lon="4.62355">
        <ele>526.2</ele>
        <time>2025-08-06T09:08:55Z</time>
      </trkpt>
      <trkpt lat="45.71012" lon="4.62364">
        <ele>525.6</ele>
        <time>2025-08-06T09:08:56Z</time>
      </trkpt>
      <trkpt lat="45.71018" lon="4.62371">
        <ele>525.4</ele>
        <time>2025-08-06T09:08:57Z</time>
      </trkpt>
      <trkpt lat="45.71024" lon="4.62378">
        <ele>525.2</ele>
        <time>2025-08-06T09:08:58Z</time>
      </trkpt>
      <trkpt lat="45.7103" lon="4.62385">
        <ele>525.4</ele>
        <time>2025-08-06T09:08:59Z</time>
      </trkpt>
      <trkpt lat="45.71033" lon="4.6239">
        <ele>525.6</ele>
        <time>2025-08-06T09:09:00Z</time>
      </trkpt>
      <trkpt lat="45.71037" lon="4.62398">
        <ele>526</ele>
        <time>2025-08-06T09:09:01Z</time>
      </trkpt>
      <trkpt lat="45.7104" lon="4.62403">
        <ele>526.4</ele>
        <time>2025-08-06T09:09:02Z</time>
      </trkpt>
      <trkpt lat="45.71043" lon="4.62406">
        <ele>527</ele>
        <time>2025-08-06T09:09:03Z</time>
      </trkpt>
      <trkpt lat="45.71047" lon="4.6241">
        <ele>527.4</ele>
        <time>2025-08-06T09:09:04Z</time>
      </trkpt>
      <trkpt lat="45.71051" lon="4.62414">
        <ele>527.6</ele>
        <time>2025-08-06T09:09:05Z</time>
      </trkpt>
      <trkpt lat="45.71054" lon="4.62418">
        <ele>527.8</ele>
        <time>2025-08-06T09:09:06Z</time>
      </trkpt>
      <trkpt lat="45.71058" lon="4.62422">
        <ele>528</ele>
        <time>2025-08-06T09:09:07Z</time>
      </trkpt>
      <trkpt lat="45.71062" lon="4.62426">
        <ele>528</ele>
        <time>2025-08-06T09:09:08Z</time>
      </trkpt>
      <trkpt lat="45.71065" lon="4.6243">
        <ele>528</ele>
        <time>2025-08-06T09:09:09Z</time>
      </trkpt>
      <trkpt lat="45.71069" lon="4.62435">
        <ele>528</ele>
        <time>2025-08-06T09:09:10Z</time>
      </trkpt>
      <trkpt lat="45.71073" lon="4.62439">
        <ele>528</ele>
        <time>2025-08-06T09:09:11Z</time>
      </trkpt>
      <trkpt lat="45.71077" lon="4.62444">
        <ele>528</ele>
        <time>2025-08-06T09:09:12Z</time>
      </trkpt>
      <trkpt lat="45.71081" lon="4.62448">
        <ele>528</ele>
        <time>2025-08-06T09:09:13Z</time>
      </trkpt>
      <trkpt lat="45.71084" lon="4.62453">
        <ele>528.2</ele>
        <time>2025-08-06T09:09:14Z</time>
      </trkpt>
      <trkpt lat="45.71088" lon="4.62457">
        <ele>528.4</ele>
        <time>2025-08-06T09:09:15Z</time>
      </trkpt>
      <trkpt lat="45.71092" lon="4.6246">
        <ele>528.4</ele>
        <time>2025-08-06T09:09:16Z</time>
      </trkpt>
      <trkpt lat="45.71096" lon="4.62464">
        <ele>528.6</ele>
        <time>2025-08-06T09:09:17Z</time>
      </trkpt>
      <trkpt lat="45.71099" lon="4.62467">
        <ele>528.8</ele>
        <time>2025-08-06T09:09:18Z</time>
      </trkpt>
      <trkpt lat="45.71102" lon="4.6247">
        <ele>529</ele>
        <time>2025-08-06T09:09:19Z</time>
      </trkpt>
      <trkpt lat="45.71106" lon="4.62474">
        <ele>529.4</ele>
        <time>2025-08-06T09:09:20Z</time>
      </trkpt>
      <trkpt lat="45.71109" lon="4.62477">
        <ele>529.6</ele>
        <time>2025-08-06T09:09:21Z</time>
      </trkpt>
      <trkpt lat="45.71112" lon="4.62481">
        <ele>530</ele>
        <time>2025-08-06T09:09:22Z</time>
      </trkpt>
      <trkpt lat="45.71115" lon="4.62485">
        <ele>530.2</ele>
        <time>2025-08-06T09:09:23Z</time>
      </trkpt>
      <trkpt lat="45.71119" lon="4.62487">
        <ele>530.6</ele>
        <time>2025-08-06T09:09:24Z</time>
      </trkpt>
      <trkpt lat="45.71122" lon="4.62489">
        <ele>531</ele>
        <time>2025-08-06T09:09:25Z</time>
      </trkpt>
      <trkpt lat="45.71125" lon="4.62491">
        <ele>531.4</ele>
        <time>2025-08-06T09:09:26Z</time>
      </trkpt>
      <trkpt lat="45.71127" lon="4.62492">
        <ele>531.6</ele>
        <time>2025-08-06T09:09:27Z</time>
      </trkpt>
      <trkpt lat="45.71128" lon="4.62494">
        <ele>532</ele>
        <time>2025-08-06T09:09:28Z</time>
      </trkpt>
      <trkpt lat="45.71128" lon="4.62496">
        <ele>532.2</ele>
        <time>2025-08-06T09:09:29Z</time>
      </trkpt>
      <trkpt lat="45.71128" lon="4.62496">
        <ele>532.6</ele>
        <time>2025-08-06T09:09:30Z</time>
      </trkpt>
      <trkpt lat="45.71128" lon="4.62496">
        <ele>532.8</ele>
        <time>2025-08-06T09:09:31Z</time>
      </trkpt>
      <trkpt lat="45.71131" lon="4.62496">
        <ele>533.2</ele>
        <time>2025-08-06T09:09:46Z</time>
      </trkpt>
      <trkpt lat="45.71132" lon="4.62497">
        <ele>533</ele>
        <time>2025-08-06T09:09:47Z</time>
      </trkpt>
      <trkpt lat="45.71134" lon="4.62498">
        <ele>532.8</ele>
        <time>2025-08-06T09:09:48Z</time>
      </trkpt>
      <trkpt lat="45.71136" lon="4.62499">
        <ele>532.6</ele>
        <time>2025-08-06T09:09:49Z</time>
      </trkpt>
      <trkpt lat="45.71138" lon="4.625">
        <ele>532.4</ele>
        <time>2025-08-06T09:09:50Z</time>
      </trkpt>
      <trkpt lat="45.7114" lon="4.62501">
        <ele>532.2</ele>
        <time>2025-08-06T09:09:51Z</time>
      </trkpt>
      <trkpt lat="45.71143" lon="4.62501">
        <ele>532</ele>
        <time>2025-08-06T09:09:52Z</time>
      </trkpt>
      <trkpt lat="45.71146" lon="4.62501">
        <ele>531.8</ele>
        <time>2025-08-06T09:09:53Z</time>
      </trkpt>
      <trkpt lat="45.71149" lon="4.62501">
        <ele>531.2</ele>
        <time>2025-08-06T09:09:54Z</time>
      </trkpt>
      <trkpt lat="45.71152" lon="4.62501">
        <ele>530.8</ele>
        <time>2025-08-06T09:09:55Z</time>
      </trkpt>
      <trkpt lat="45.71155" lon="4.62502">
        <ele>530.2</ele>
        <time>2025-08-06T09:09:56Z</time>
      </trkpt>
      <trkpt lat="45.71158" lon="4.62503">
        <ele>529.6</ele>
        <time>2025-08-06T09:09:57Z</time>
      </trkpt>
      <trkpt lat="45.7116" lon="4.62505">
        <ele>529</ele>
        <time>2025-08-06T09:09:58Z</time>
      </trkpt>
      <trkpt lat="45.71162" lon="4.62507">
        <ele>528.6</ele>
        <time>2025-08-06T09:09:59Z</time>
      </trkpt>
      <trkpt lat="45.71165" lon="4.62509">
        <ele>528</ele>
        <time>2025-08-06T09:10:00Z</time>
      </trkpt>
      <trkpt lat="45.71169" lon="4.62512">
        <ele>527.4</ele>
        <time>2025-08-06T09:10:01Z</time>
      </trkpt>
      <trkpt lat="45.71172" lon="4.62515">
        <ele>526.6</ele>
        <time>2025-08-06T09:10:02Z</time>
      </trkpt>
      <trkpt lat="45.71175" lon="4.6252">
        <ele>526</ele>
        <time>2025-08-06T09:10:03Z</time>
      </trkpt>
      <trkpt lat="45.71178" lon="4.62525">
        <ele>525.2</ele>
        <time>2025-08-06T09:10:04Z</time>
      </trkpt>
      <trkpt lat="45.71182" lon="4.62531">
        <ele>524.4</ele>
        <time>2025-08-06T09:10:05Z</time>
      </trkpt>
      <trkpt lat="45.71184" lon="4.62538">
        <ele>523.8</ele>
        <time>2025-08-06T09:10:06Z</time>
      </trkpt>
      <trkpt lat="45.71187" lon="4.62544">
        <ele>523.4</ele>
        <time>2025-08-06T09:10:07Z</time>
      </trkpt>
      <trkpt lat="45.7119" lon="4.62552">
        <ele>523</ele>
        <time>2025-08-06T09:10:08Z</time>
      </trkpt>
      <trkpt lat="45.71192" lon="4.6256">
        <ele>522.4</ele>
        <time>2025-08-06T09:10:09Z</time>
      </trkpt>
      <trkpt lat="45.71193" lon="4.62566">
        <ele>522</ele>
        <time>2025-08-06T09:10:10Z</time>
      </trkpt>
      <trkpt lat="45.71195" lon="4.6257">
        <ele>521.8</ele>
        <time>2025-08-06T09:10:11Z</time>
      </trkpt>
      <trkpt lat="45.71197" lon="4.62574">
        <ele>521.4</ele>
        <time>2025-08-06T09:10:12Z</time>
      </trkpt>
      <trkpt lat="45.71199" lon="4.62578">
        <ele>521.4</ele>
        <time>2025-08-06T09:10:13Z</time>
      </trkpt>
      <trkpt lat="45.71202" lon="4.62583">
        <ele>521</ele>
        <time>2025-08-06T09:10:14Z</time>
      </trkpt>
      <trkpt lat="45.71207" lon="4.62589">
        <ele>520.4</ele>
        <time>2025-08-06T09:10:15Z</time>
      </trkpt>
      <trkpt lat="45.71211" lon="4.62596">
        <ele>519.6</ele>
        <time>2025-08-06T09:10:16Z</time>
      </trkpt>
      <trkpt lat="45.71215" lon="4.62603">
        <ele>518.8</ele>
        <time>2025-08-06T09:10:17Z</time>
      </trkpt>
      <trkpt lat="45.71218" lon="4.6261">
        <ele>518</ele>
        <time>2025-08-06T09:10:18Z</time>
      </trkpt>
      <trkpt lat="45.71221" lon="4.62617">
        <ele>517.2</ele>
        <time>2025-08-06T09:10:19Z</time>
      </trkpt>
      <trkpt lat="45.71224" lon="4.62623">
        <ele>516.4</ele>
        <time>2025-08-06T09:10:20Z</time>
      </trkpt>
      <trkpt lat="45.71227" lon="4.62629">
        <ele>515.8</ele>
        <time>2025-08-06T09:10:21Z</time>
      </trkpt>
      <trkpt lat="45.7123" lon="4.62634">
        <ele>515</ele>
        <time>2025-08-06T09:10:22Z</time>
      </trkpt>
      <trkpt lat="45.71233" lon="4.62639">
        <ele>514.4</ele>
        <time>2025-08-06T09:10:23Z</time>
      </trkpt>
      <trkpt lat="45.71236" lon="4.62643">
        <ele>513.8</ele>
        <time>2025-08-06T09:10:24Z</time>
      </trkpt>
      <trkpt lat="45.71238" lon="4.62648">
        <ele>513.4</ele>
        <time>2025-08-06T09:10:25Z</time>
      </trkpt>
      <trkpt lat="45.71241" lon="4.62653">
        <ele>512.8</ele>
        <time>2025-08-06T09:10:26Z</time>
      </trkpt>
      <trkpt lat="45.71243" lon="4.62658">
        <ele>512.2</ele>
        <time>2025-08-06T09:10:27Z</time>
      </trkpt>
      <trkpt lat="45.71247" lon="4.62663">
        <ele>511.6</ele>
        <time>2025-08-06T09:10:28Z</time>
      </trkpt>
      <trkpt lat="45.7125" lon="4.62668">
        <ele>510.8</ele>
        <time>2025-08-06T09:10:29Z</time>
      </trkpt>
      <trkpt lat="45.71254" lon="4.62673">
        <ele>510</ele>
        <time>2025-08-06T09:10:30Z</time>
      </trkpt>
      <trkpt lat="45.71258" lon="4.62677">
        <ele>509.2</ele>
        <time>2025-08-06T09:10:31Z</time>
      </trkpt>
      <trkpt lat="45.71261" lon="4.62682">
        <ele>508.2</ele>
        <time>2025-08-06T09:10:32Z</time>
      </trkpt>
      <trkpt lat="45.71263" lon="4.62688">
        <ele>507.6</ele>
        <time>2025-08-06T09:10:33Z</time>
      </trkpt>
      <trkpt lat="45.71266" lon="4.62693">
        <ele>506.8</ele>
        <time>2025-08-06T09:10:34Z</time>
      </trkpt>
      <trkpt lat="45.7127" lon="4.62699">
        <ele>506</ele>
        <time>2025-08-06T09:10:35Z</time>
      </trkpt>
      <trkpt lat="45.71273" lon="4.62704">
        <ele>505</ele>
        <time>2025-08-06T09:10:36Z</time>
      </trkpt>
      <trkpt lat="45.71276" lon="4.62708">
        <ele>504.4</ele>
        <time>2025-08-06T09:10:37Z</time>
      </trkpt>
      <trkpt lat="45.71277" lon="4.62711">
        <ele>503.8</ele>
        <time>2025-08-06T09:10:38Z</time>
      </trkpt>
      <trkpt lat="45.71279" lon="4.62713">
        <ele>503.4</ele>
        <time>2025-08-06T09:10:39Z</time>
      </trkpt>
      <trkpt lat="45.71281" lon="4.62716">
        <ele>503</ele>
        <time>2025-08-06T09:10:40Z</time>
      </trkpt>
      <trkpt lat="45.71284" lon="4.62721">
        <ele>502.4</ele>
        <time>2025-08-06T09:10:41Z</time>
      </trkpt>
      <trkpt lat="45.71287" lon="4.62726">
        <ele>501.6</ele>
        <time>2025-08-06T09:10:42Z</time>
      </trkpt>
      <trkpt lat="45.7129" lon="4.62731">
        <ele>500.8</ele>
        <time>2025-08-06T09:10:43Z</time>
      </trkpt>
      <trkpt lat="45.71294" lon="4.62737">
        <ele>499.8</ele>
        <time>2025-08-06T09:10:44Z</time>
      </trkpt>
      <trkpt lat="45.71297" lon="4.62743">
        <ele>498.8</ele>
        <time>2025-08-06T09:10:45Z</time>
      </trkpt>
      <trkpt lat="45.71301" lon="4.62749">
        <ele>498</ele>
        <time>2025-08-06T09:10:46Z</time>
      </trkpt>
      <trkpt lat="45.71304" lon="4.62755">
        <ele>497</ele>
        <time>2025-08-06T09:10:47Z</time>
      </trkpt>
      <trkpt lat="45.71307" lon="4.6276">
        <ele>496.2</ele>
        <time>2025-08-06T09:10:48Z</time>
      </trkpt>
      <trkpt lat="45.7131" lon="4.62763">
        <ele>495.6</ele>
        <time>2025-08-06T09:10:49Z</time>
      </trkpt>
      <trkpt lat="45.71312" lon="4.62766">
        <ele>495</ele>
        <time>2025-08-06T09:10:50Z</time>
      </trkpt>
      <trkpt lat="45.71314" lon="4.6277">
        <ele>494.6</ele>
        <time>2025-08-06T09:10:51Z</time>
      </trkpt>
      <trkpt lat="45.71315" lon="4.62773">
        <ele>494.2</ele>
        <time>2025-08-06T09:10:52Z</time>
      </trkpt>
      <trkpt lat="45.71316" lon="4.62777">
        <ele>493.8</ele>
        <time>2025-08-06T09:10:53Z</time>
      </trkpt>
      <trkpt lat="45.71317" lon="4.62781">
        <ele>493.4</ele>
        <time>2025-08-06T09:10:54Z</time>
      </trkpt>
      <trkpt lat="45.71319" lon="4.62786">
        <ele>492.8</ele>
        <time>2025-08-06T09:10:55Z</time>
      </trkpt>
      <trkpt lat="45.7132" lon="4.62791">
        <ele>492.4</ele>
        <time>2025-08-06T09:10:56Z</time>
      </trkpt>
      <trkpt lat="45.71322" lon="4.62796">
        <ele>491.6</ele>
        <time>2025-08-06T09:10:57Z</time>
      </trkpt>
      <trkpt lat="45.71324" lon="4.62802">
        <ele>491</ele>
        <time>2025-08-06T09:10:58Z</time>
      </trkpt>
      <trkpt lat="45.71326" lon="4.62808">
        <ele>490.2</ele>
        <time>2025-08-06T09:10:59Z</time>
      </trkpt>
      <trkpt lat="45.71329" lon="4.62813">
        <ele>489.6</ele>
        <time>2025-08-06T09:11:00Z</time>
      </trkpt>
      <trkpt lat="45.71332" lon="4.6282">
        <ele>488.8</ele>
        <time>2025-08-06T09:11:01Z</time>
      </trkpt>
      <trkpt lat="45.71335" lon="4.62828">
        <ele>488.2</ele>
        <time>2025-08-06T09:11:02Z</time>
      </trkpt>
      <trkpt lat="45.71338" lon="4.62836">
        <ele>487.4</ele>
        <time>2025-08-06T09:11:03Z</time>
      </trkpt>
      <trkpt lat="45.71341" lon="4.62845">
        <ele>486.4</ele>
        <time>2025-08-06T09:11:04Z</time>
      </trkpt>
      <trkpt lat="45.71344" lon="4.62853">
        <ele>485.2</ele>
        <time>2025-08-06T09:11:05Z</time>
      </trkpt>
      <trkpt lat="45.71348" lon="4.62866">
        <ele>483.8</ele>
        <time>2025-08-06T09:11:06Z</time>
      </trkpt>
      <trkpt lat="45.71352" lon="4.62878">
        <ele>482.4</ele>
        <time>2025-08-06T09:11:07Z</time>
      </trkpt>
      <trkpt lat="45.71355" lon="4.62888">
        <ele>481</ele>
        <time>2025-08-06T09:11:08Z</time>
      </trkpt>
      <trkpt lat="45.71358" lon="4.62896">
        <ele>479.8</ele>
        <time>2025-08-06T09:11:09Z</time>
      </trkpt>
      <trkpt lat="45.7136" lon="4.62904">
        <ele>478.8</ele>
        <time>2025-08-06T09:11:10Z</time>
      </trkpt>
      <trkpt lat="45.71361" lon="4.62911">
        <ele>478</ele>
        <time>2025-08-06T09:11:11Z</time>
      </trkpt>
      <trkpt lat="45.71362" lon="4.62918">
        <ele>477.2</ele>
        <time>2025-08-06T09:11:12Z</time>
      </trkpt>
      <trkpt lat="45.71363" lon="4.62924">
        <ele>476.4</ele>
        <time>2025-08-06T09:11:13Z</time>
      </trkpt>
      <trkpt lat="45.71363" lon="4.6293">
        <ele>475.6</ele>
        <time>2025-08-06T09:11:14Z</time>
      </trkpt>
      <trkpt lat="45.71363" lon="4.62935">
        <ele>474.8</ele>
        <time>2025-08-06T09:11:15Z</time>
      </trkpt>
      <trkpt lat="45.71362" lon="4.62941">
        <ele>474.2</ele>
        <time>2025-08-06T09:11:16Z</time>
      </trkpt>
      <trkpt lat="45.71361" lon="4.62947">
        <ele>473.4</ele>
        <time>2025-08-06T09:11:17Z</time>
      </trkpt>
      <trkpt lat="45.71359" lon="4.62953">
        <ele>472.4</ele>
        <time>2025-08-06T09:11:18Z</time>
      </trkpt>
      <trkpt lat="45.71357" lon="4.62962">
        <ele>471.4</ele>
        <time>2025-08-06T09:11:19Z</time>
      </trkpt>
      <trkpt lat="45.71355" lon="4.62971">
        <ele>470.2</ele>
        <time>2025-08-06T09:11:20Z</time>
      </trkpt>
      <trkpt lat="45.71352" lon="4.62981">
        <ele>468.8</ele>
        <time>2025-08-06T09:11:21Z</time>
      </trkpt>
      <trkpt lat="45.7135" lon="4.62989">
        <ele>467.4</ele>
        <time>2025-08-06T09:11:22Z</time>
      </trkpt>
      <trkpt lat="45.71347" lon="4.62999">
        <ele>465.8</ele>
        <time>2025-08-06T09:11:23Z</time>
      </trkpt>
      <trkpt lat="45.71344" lon="4.63012">
        <ele>464.2</ele>
        <time>2025-08-06T09:11:24Z</time>
      </trkpt>
      <trkpt lat="45.71343" lon="4.63021">
        <ele>462.8</ele>
        <time>2025-08-06T09:11:25Z</time>
      </trkpt>
      <trkpt lat="45.71342" lon="4.63028">
        <ele>461.6</ele>
        <time>2025-08-06T09:11:26Z</time>
      </trkpt>
      <trkpt lat="45.71342" lon="4.63033">
        <ele>460.6</ele>
        <time>2025-08-06T09:11:27Z</time>
      </trkpt>
      <trkpt lat="45.71341" lon="4.63037">
        <ele>460.2</ele>
        <time>2025-08-06T09:11:28Z</time>
      </trkpt>
      <trkpt lat="45.7134" lon="4.63041">
        <ele>459.8</ele>
        <time>2025-08-06T09:11:29Z</time>
      </trkpt>
      <trkpt lat="45.71339" lon="4.63045">
        <ele>459.4</ele>
        <time>2025-08-06T09:11:30Z</time>
      </trkpt>
      <trkpt lat="45.71338" lon="4.63049">
        <ele>459</ele>
        <time>2025-08-06T09:11:31Z</time>
      </trkpt>
      <trkpt lat="45.71338" lon="4.63053">
        <ele>458.8</ele>
        <time>2025-08-06T09:11:32Z</time>
      </trkpt>
      <trkpt lat="45.71337" lon="4.63057">
        <ele>458.4</ele>
        <time>2025-08-06T09:11:33Z</time>
      </trkpt>
      <trkpt lat="45.71334" lon="4.63064">
        <ele>457.8</ele>
        <time>2025-08-06T09:11:34Z</time>
      </trkpt>
      <trkpt lat="45.7133" lon="4.63067">
        <ele>457</ele>
        <time>2025-08-06T09:11:35Z</time>
      </trkpt>
      <trkpt lat="45.71325" lon="4.6307">
        <ele>456.2</ele>
        <time>2025-08-06T09:11:36Z</time>
      </trkpt>
      <trkpt lat="45.71319" lon="4.63073">
        <ele>455.4</ele>
        <time>2025-08-06T09:11:37Z</time>
      </trkpt>
      <trkpt lat="45.71312" lon="4.63076">
        <ele>454.6</ele>
        <time>2025-08-06T09:11:38Z</time>
      </trkpt>
      <trkpt lat="45.71306" lon="4.63078">
        <ele>453.8</ele>
        <time>2025-08-06T09:11:39Z</time>
      </trkpt>
      <trkpt lat="45.713" lon="4.63081">
        <ele>453.2</ele>
        <time>2025-08-06T09:11:40Z</time>
      </trkpt>
      <trkpt lat="45.71294" lon="4.63084">
        <ele>452.4</ele>
        <time>2025-08-06T09:11:41Z</time>
      </trkpt>
      <trkpt lat="45.71289" lon="4.63087">
        <ele>451.8</ele>
        <time>2025-08-06T09:11:42Z</time>
      </trkpt>
      <trkpt lat="45.71284" lon="4.63089">
        <ele>451.2</ele>
        <time>2025-08-06T09:11:43Z</time>
      </trkpt>
      <trkpt lat="45.71278" lon="4.63092">
        <ele>450.6</ele>
        <time>2025-08-06T09:11:44Z</time>
      </trkpt>
      <trkpt lat="45.71271" lon="4.63094">
        <ele>450</ele>
        <time>2025-08-06T09:11:45Z</time>
      </trkpt>
      <trkpt lat="45.71265" lon="4.63096">
        <ele>449.2</ele>
        <time>2025-08-06T09:11:46Z</time>
      </trkpt>
      <trkpt lat="45.71259" lon="4.63098">
        <ele>448.6</ele>
        <time>2025-08-06T09:11:47Z</time>
      </trkpt>
      <trkpt lat="45.71254" lon="4.63101">
        <ele>448</ele>
        <time>2025-08-06T09:11:48Z</time>
      </trkpt>
      <trkpt lat="45.71249" lon="4.63106">
        <ele>447.4</ele>
        <time>2025-08-06T09:11:49Z</time>
      </trkpt>
      <trkpt lat="45.71246" lon="4.6311">
        <ele>446.8</ele>
        <time>2025-08-06T09:11:50Z</time>
      </trkpt>
      <trkpt lat="45.71244" lon="4.63115">
        <ele>446.2</ele>
        <time>2025-08-06T09:11:51Z</time>
      </trkpt>
      <trkpt lat="45.71244" lon="4.63121">
        <ele>445.8</ele>
        <time>2025-08-06T09:11:52Z</time>
      </trkpt>
      <trkpt lat="45.71245" lon="4.63128">
        <ele>445.4</ele>
        <time>2025-08-06T09:11:53Z</time>
      </trkpt>
      <trkpt lat="45.71248" lon="4.63135">
        <ele>445</ele>
        <time>2025-08-06T09:11:54Z</time>
      </trkpt>
      <trkpt lat="45.71251" lon="4.63141">
        <ele>444.6</ele>
        <time>2025-08-06T09:11:55Z</time>
      </trkpt>
      <trkpt lat="45.71256" lon="4.63147">
        <ele>444.2</ele>
        <time>2025-08-06T09:11:56Z</time>
      </trkpt>
      <trkpt lat="45.7126" lon="4.63154">
        <ele>443.6</ele>
        <time>2025-08-06T09:11:57Z</time>
      </trkpt>
      <trkpt lat="45.71265" lon="4.6316">
        <ele>443.2</ele>
        <time>2025-08-06T09:11:58Z</time>
      </trkpt>
      <trkpt lat="45.71269" lon="4.63165">
        <ele>443</ele>
        <time>2025-08-06T09:11:59Z</time>
      </trkpt>
      <trkpt lat="45.71274" lon="4.63168">
        <ele>443</ele>
        <time>2025-08-06T09:12:00Z</time>
      </trkpt>
      <trkpt lat="45.71278" lon="4.63172">
        <ele>442.8</ele>
        <time>2025-08-06T09:12:01Z</time>
      </trkpt>
      <trkpt lat="45.71282" lon="4.63176">
        <ele>443</ele>
        <time>2025-08-06T09:12:02Z</time>
      </trkpt>
      <trkpt lat="45.71285" lon="4.6318">
        <ele>443.4</ele>
        <time>2025-08-06T09:12:03Z</time>
      </trkpt>
      <trkpt lat="45.71288" lon="4.63183">
        <ele>444</ele>
        <time>2025-08-06T09:12:04Z</time>
      </trkpt>
      <trkpt lat="45.71291" lon="4.63187">
        <ele>444</ele>
        <time>2025-08-06T09:12:05Z</time>
      </trkpt>
      <trkpt lat="45.71294" lon="4.6319">
        <ele>444.4</ele>
        <time>2025-08-06T09:12:06Z</time>
      </trkpt>
      <trkpt lat="45.71297" lon="4.63193">
        <ele>444.8</ele>
        <time>2025-08-06T09:12:07Z</time>
      </trkpt>
      <trkpt lat="45.713" lon="4.63195">
        <ele>445.2</ele>
        <time>2025-08-06T09:12:08Z</time>
      </trkpt>
      <trkpt lat="45.71303" lon="4.63197">
        <ele>445.6</ele>
        <time>2025-08-06T09:12:09Z</time>
      </trkpt>
      <trkpt lat="45.71306" lon="4.63199">
        <ele>446</ele>
        <time>2025-08-06T09:12:10Z</time>
      </trkpt>
      <trkpt lat="45.71308" lon="4.63202">
        <ele>446.6</ele>
        <time>2025-08-06T09:12:11Z</time>
      </trkpt>
      <trkpt lat="45.71311" lon="4.63203">
        <ele>447</ele>
        <time>2025-08-06T09:12:12Z</time>
      </trkpt>
      <trkpt lat="45.71314" lon="4.63204">
        <ele>447.4</ele>
        <time>2025-08-06T09:12:13Z</time>
      </trkpt>
      <trkpt lat="45.71317" lon="4.63205">
        <ele>447.6</ele>
        <time>2025-08-06T09:12:14Z</time>
      </trkpt>
      <trkpt lat="45.71319" lon="4.63206">
        <ele>447.8</ele>
        <time>2025-08-06T09:12:15Z</time>
      </trkpt>
      <trkpt lat="45.71322" lon="4.63208">
        <ele>448</ele>
        <time>2025-08-06T09:12:16Z</time>
      </trkpt>
      <trkpt lat="45.71325" lon="4.63209">
        <ele>448.2</ele>
        <time>2025-08-06T09:12:17Z</time>
      </trkpt>
      <trkpt lat="45.71327" lon="4.6321">
        <ele>448.4</ele>
        <time>2025-08-06T09:12:18Z</time>
      </trkpt>
      <trkpt lat="45.7133" lon="4.63212">
        <ele>448.6</ele>
        <time>2025-08-06T09:12:19Z</time>
      </trkpt>
      <trkpt lat="45.71333" lon="4.63213">
        <ele>448.8</ele>
        <time>2025-08-06T09:12:20Z</time>
      </trkpt>
      <trkpt lat="45.71335" lon="4.63213">
        <ele>449.2</ele>
        <time>2025-08-06T09:12:21Z</time>
      </trkpt>
      <trkpt lat="45.71338" lon="4.63213">
        <ele>449.4</ele>
        <time>2025-08-06T09:12:22Z</time>
      </trkpt>
      <trkpt lat="45.7134" lon="4.63213">
        <ele>449.6</ele>
        <time>2025-08-06T09:12:23Z</time>
      </trkpt>
      <trkpt lat="45.71343" lon="4.63215">
        <ele>450</ele>
        <time>2025-08-06T09:12:24Z</time>
      </trkpt>
      <trkpt lat="45.71346" lon="4.63216">
        <ele>450.4</ele>
        <time>2025-08-06T09:12:25Z</time>
      </trkpt>
      <trkpt lat="45.71348" lon="4.63216">
        <ele>450.6</ele>
        <time>2025-08-06T09:12:26Z</time>
      </trkpt>
      <trkpt lat="45.71351" lon="4.63216">
        <ele>450.8</ele>
        <time>2025-08-06T09:12:27Z</time>
      </trkpt>
      <trkpt lat="45.71354" lon="4.63216">
        <ele>451.2</ele>
        <time>2025-08-06T09:12:28Z</time>
      </trkpt>
      <trkpt lat="45.71357" lon="4.63217">
        <ele>451.6</ele>
        <time>2025-08-06T09:12:29Z</time>
      </trkpt>
      <trkpt lat="45.71359" lon="4.63217">
        <ele>452</ele>
        <time>2025-08-06T09:12:30Z</time>
      </trkpt>
      <trkpt lat="45.71362" lon="4.63218">
        <ele>452.4</ele>
        <time>2025-08-06T09:12:31Z</time>
      </trkpt>
      <trkpt lat="45.71364" lon="4.63218">
        <ele>452.8</ele>
        <time>2025-08-06T09:12:32Z</time>
      </trkpt>
      <trkpt lat="45.71366" lon="4.63219">
        <ele>453.2</ele>
        <time>2025-08-06T09:12:33Z</time>
      </trkpt>
      <trkpt lat="45.71368" lon="4.63221">
        <ele>453.6</ele>
        <time>2025-08-06T09:12:34Z</time>
      </trkpt>
      <trkpt lat="45.71371" lon="4.63223">
        <ele>454</ele>
        <time>2025-08-06T09:12:35Z</time>
      </trkpt>
      <trkpt lat="45.71374" lon="4.63225">
        <ele>454.4</ele>
        <time>2025-08-06T09:12:36Z</time>
      </trkpt>
      <trkpt lat="45.71376" lon="4.63226">
        <ele>454.6</ele>
        <time>2025-08-06T09:12:37Z</time>
      </trkpt>
      <trkpt lat="45.71379" lon="4.63228">
        <ele>455</ele>
        <time>2025-08-06T09:12:38Z</time>
      </trkpt>
      <trkpt lat="45.71382" lon="4.63229">
        <ele>455.2</ele>
        <time>2025-08-06T09:12:39Z</time>
      </trkpt>
      <trkpt lat="45.71384" lon="4.63231">
        <ele>455.4</ele>
        <time>2025-08-06T09:12:40Z</time>
      </trkpt>
      <trkpt lat="45.71387" lon="4.63233">
        <ele>455.6</ele>
        <time>2025-08-06T09:12:41Z</time>
      </trkpt>
      <trkpt lat="45.71389" lon="4.63235">
        <ele>455.8</ele>
        <time>2025-08-06T09:12:42Z</time>
      </trkpt>
      <trkpt lat="45.71392" lon="4.63236">
        <ele>456.2</ele>
        <time>2025-08-06T09:12:43Z</time>
      </trkpt>
      <trkpt lat="45.71394" lon="4.63239">
        <ele>456.4</ele>
        <time>2025-08-06T09:12:44Z</time>
      </trkpt>
      <trkpt lat="45.71396" lon="4.63241">
        <ele>456.8</ele>
        <time>2025-08-06T09:12:45Z</time>
      </trkpt>
      <trkpt lat="45.71399" lon="4.63243">
        <ele>457</ele>
        <time>2025-08-06T09:12:46Z</time>
      </trkpt>
      <trkpt lat="45.71401" lon="4.63246">
        <ele>457.2</ele>
        <time>2025-08-06T09:12:47Z</time>
      </trkpt>
      <trkpt lat="45.71403" lon="4.63248">
        <ele>457.4</ele>
        <time>2025-08-06T09:12:48Z</time>
      </trkpt>
      <trkpt lat="45.71405" lon="4.63251">
        <ele>457.6</ele>
        <time>2025-08-06T09:12:49Z</time>
      </trkpt>
      <trkpt lat="45.71407" lon="4.63254">
        <ele>458</ele>
        <time>2025-08-06T09:12:50Z</time>
      </trkpt>
      <trkpt lat="45.71409" lon="4.63256">
        <ele>458.2</ele>
        <time>2025-08-06T09:12:51Z</time>
      </trkpt>
      <trkpt lat="45.71411" lon="4.63258">
        <ele>458.6</ele>
        <time>2025-08-06T09:12:52Z</time>
      </trkpt>
      <trkpt lat="45.71412" lon="4.6326">
        <ele>458.8</ele>
        <time>2025-08-06T09:12:53Z</time>
      </trkpt>
      <trkpt lat="45.71413" lon="4.63263">
        <ele>459.4</ele>
        <time>2025-08-06T09:12:54Z</time>
      </trkpt>
      <trkpt lat="45.71415" lon="4.63265">
        <ele>459.8</ele>
        <time>2025-08-06T09:12:55Z</time>
      </trkpt>
      <trkpt lat="45.71416" lon="4.63267">
        <ele>460.2</ele>
        <time>2025-08-06T09:12:56Z</time>
      </trkpt>
      <trkpt lat="45.71418" lon="4.6327">
        <ele>460.6</ele>
        <time>2025-08-06T09:12:57Z</time>
      </trkpt>
      <trkpt lat="45.71419" lon="4.63272">
        <ele>461</ele>
        <time>2025-08-06T09:12:58Z</time>
      </trkpt>
      <trkpt lat="45.71421" lon="4.63274">
        <ele>461.4</ele>
        <time>2025-08-06T09:12:59Z</time>
      </trkpt>
      <trkpt lat="45.71421" lon="4.63277">
        <ele>461.8</ele>
        <time>2025-08-06T09:13:00Z</time>
      </trkpt>
      <trkpt lat="45.71422" lon="4.6328">
        <ele>462</ele>
        <time>2025-08-06T09:13:01Z</time>
      </trkpt>
      <trkpt lat="45.71422" lon="4.63283">
        <ele>462.4</ele>
        <time>2025-08-06T09:13:02Z</time>
      </trkpt>
      <trkpt lat="45.71422" lon="4.63286">
        <ele>462.8</ele>
        <time>2025-08-06T09:13:03Z</time>
      </trkpt>
      <trkpt lat="45.71422" lon="4.63289">
        <ele>463.2</ele>
        <time>2025-08-06T09:13:04Z</time>
      </trkpt>
      <trkpt lat="45.71422" lon="4.63291">
        <ele>463.6</ele>
        <time>2025-08-06T09:13:05Z</time>
      </trkpt>
      <trkpt lat="45.71423" lon="4.63294">
        <ele>463.8</ele>
        <time>2025-08-06T09:13:06Z</time>
      </trkpt>
      <trkpt lat="45.71423" lon="4.63297">
        <ele>464.2</ele>
        <time>2025-08-06T09:13:07Z</time>
      </trkpt>
      <trkpt lat="45.71424" lon="4.633">
        <ele>464.6</ele>
        <time>2025-08-06T09:13:08Z</time>
      </trkpt>
      <trkpt lat="45.71424" lon="4.63303">
        <ele>464.8</ele>
        <time>2025-08-06T09:13:09Z</time>
      </trkpt>
      <trkpt lat="45.71425" lon="4.63307">
        <ele>465.2</ele>
        <time>2025-08-06T09:13:10Z</time>
      </trkpt>
      <trkpt lat="45.71425" lon="4.6331">
        <ele>465.6</ele>
        <time>2025-08-06T09:13:11Z</time>
      </trkpt>
      <trkpt lat="45.71426" lon="4.63313">
        <ele>466</ele>
        <time>2025-08-06T09:13:12Z</time>
      </trkpt>
      <trkpt lat="45.71426" lon="4.63316">
        <ele>466.4</ele>
        <time>2025-08-06T09:13:13Z</time>
      </trkpt>
      <trkpt lat="45.71427" lon="4.63318">
        <ele>466.8</ele>
        <time>2025-08-06T09:13:14Z</time>
      </trkpt>
      <trkpt lat="45.71427" lon="4.6332">
        <ele>467</ele>
        <time>2025-08-06T09:13:15Z</time>
      </trkpt>
      <trkpt lat="45.71428" lon="4.63322">
        <ele>467.4</ele>
        <time>2025-08-06T09:13:16Z</time>
      </trkpt>
      <trkpt lat="45.71429" lon="4.63325">
        <ele>467.8</ele>
        <time>2025-08-06T09:13:17Z</time>
      </trkpt>
      <trkpt lat="45.7143" lon="4.63328">
        <ele>468.2</ele>
        <time>2025-08-06T09:13:18Z</time>
      </trkpt>
      <trkpt lat="45.71431" lon="4.63332">
        <ele>468.6</ele>
        <time>2025-08-06T09:13:19Z</time>
      </trkpt>
      <trkpt lat="45.71431" lon="4.63335">
        <ele>468.8</ele>
        <time>2025-08-06T09:13:20Z</time>
      </trkpt>
      <trkpt lat="45.71432" lon="4.63338">
        <ele>469.2</ele>
        <time>2025-08-06T09:13:21Z</time>
      </trkpt>
      <trkpt lat="45.71432" lon="4.63341">
        <ele>469.6</ele>
        <time>2025-08-06T09:13:22Z</time>
      </trkpt>
      <trkpt lat="45.71433" lon="4.63343">
        <ele>469.8</ele>
        <time>2025-08-06T09:13:23Z</time>
      </trkpt>
      <trkpt lat="45.71433" lon="4.63346">
        <ele>470.2</ele>
        <time>2025-08-06T09:13:24Z</time>
      </trkpt>
      <trkpt lat="45.71433" lon="4.63349">
        <ele>470.6</ele>
        <time>2025-08-06T09:13:25Z</time>
      </trkpt>
      <trkpt lat="45.71433" lon="4.63352">
        <ele>470.8</ele>
        <time>2025-08-06T09:13:26Z</time>
      </trkpt>
      <trkpt lat="45.71432" lon="4.63355">
        <ele>471.2</ele>
        <time>2025-08-06T09:13:27Z</time>
      </trkpt>
      <trkpt lat="45.71433" lon="4.63358">
        <ele>471.6</ele>
        <time>2025-08-06T09:13:28Z</time>
      </trkpt>
      <trkpt lat="45.71433" lon="4.6336">
        <ele>472</ele>
        <time>2025-08-06T09:13:29Z</time>
      </trkpt>
      <trkpt lat="45.71433" lon="4.63363">
        <ele>472.4</ele>
        <time>2025-08-06T09:13:30Z</time>
      </trkpt>
      <trkpt lat="45.71433" lon="4.63366">
        <ele>472.8</ele>
        <time>2025-08-06T09:13:31Z</time>
      </trkpt>
      <trkpt lat="45.71433" lon="4.63368">
        <ele>473.2</ele>
        <time>2025-08-06T09:13:32Z</time>
      </trkpt>
      <trkpt lat="45.71433" lon="4.63371">
        <ele>473.6</ele>
        <time>2025-08-06T09:13:33Z</time>
      </trkpt>
      <trkpt lat="45.71434" lon="4.63373">
        <ele>474.2</ele>
        <time>2025-08-06T09:13:34Z</time>
      </trkpt>
      <trkpt lat="45.71433" lon="4.63375">
        <ele>474.6</ele>
        <time>2025-08-06T09:13:35Z</time>
      </trkpt>
      <trkpt lat="45.71434" lon="4.63378">
        <ele>475</ele>
        <time>2025-08-06T09:13:36Z</time>
      </trkpt>
      <trkpt lat="45.71434" lon="4.63381">
        <ele>475.4</ele>
        <time>2025-08-06T09:13:37Z</time>
      </trkpt>
      <trkpt lat="45.71435" lon="4.63384">
        <ele>475.6</ele>
        <time>2025-08-06T09:13:38Z</time>
      </trkpt>
      <trkpt lat="45.71436" lon="4.63387">
        <ele>476</ele>
        <time>2025-08-06T09:13:39Z</time>
      </trkpt>
      <trkpt lat="45.71437" lon="4.6339">
        <ele>476.2</ele>
        <time>2025-08-06T09:13:40Z</time>
      </trkpt>
      <trkpt lat="45.71438" lon="4.63394">
        <ele>476.6</ele>
        <time>2025-08-06T09:13:41Z</time>
      </trkpt>
      <trkpt lat="45.71438" lon="4.63397">
        <ele>476.8</ele>
        <time>2025-08-06T09:13:42Z</time>
      </trkpt>
      <trkpt lat="45.71437" lon="4.63401">
        <ele>477</ele>
        <time>2025-08-06T09:13:43Z</time>
      </trkpt>
      <trkpt lat="45.71437" lon="4.63404">
        <ele>477.4</ele>
        <time>2025-08-06T09:13:44Z</time>
      </trkpt>
      <trkpt lat="45.71437" lon="4.63408">
        <ele>477.6</ele>
        <time>2025-08-06T09:13:45Z</time>
      </trkpt>
      <trkpt lat="45.71437" lon="4.63411">
        <ele>477.8</ele>
        <time>2025-08-06T09:13:46Z</time>
      </trkpt>
      <trkpt lat="45.71436" lon="4.63415">
        <ele>478</ele>
        <time>2025-08-06T09:13:47Z</time>
      </trkpt>
      <trkpt lat="45.71436" lon="4.63418">
        <ele>478.2</ele>
        <time>2025-08-06T09:13:48Z</time>
      </trkpt>
      <trkpt lat="45.71436" lon="4.63421">
        <ele>478.4</ele>
        <time>2025-08-06T09:13:49Z</time>
      </trkpt>
      <trkpt lat="45.71436" lon="4.63424">
        <ele>478.8</ele>
        <time>2025-08-06T09:13:50Z</time>
      </trkpt>
      <trkpt lat="45.71436" lon="4.63427">
        <ele>479</ele>
        <time>2025-08-06T09:13:51Z</time>
      </trkpt>
      <trkpt lat="45.71435" lon="4.6343">
        <ele>479.2</ele>
        <time>2025-08-06T09:13:52Z</time>
      </trkpt>
      <trkpt lat="45.71435" lon="4.63433">
        <ele>479.4</ele>
        <time>2025-08-06T09:13:53Z</time>
      </trkpt>
      <trkpt lat="45.71435" lon="4.63437">
        <ele>479.8</ele>
        <time>2025-08-06T09:13:54Z</time>
      </trkpt>
      <trkpt lat="45.71435" lon="4.6344">
        <ele>480</ele>
        <time>2025-08-06T09:13:55Z</time>
      </trkpt>
      <trkpt lat="45.71434" lon="4.63443">
        <ele>480.2</ele>
        <time>2025-08-06T09:13:56Z</time>
      </trkpt>
      <trkpt lat="45.71434" lon="4.63446">
        <ele>480.6</ele>
        <time>2025-08-06T09:13:57Z</time>
      </trkpt>
      <trkpt lat="45.71433" lon="4.63449">
        <ele>481</ele>
        <time>2025-08-06T09:13:58Z</time>
      </trkpt>
      <trkpt lat="45.71433" lon="4.63452">
        <ele>481.2</ele>
        <time>2025-08-06T09:13:59Z</time>
      </trkpt>
      <trkpt lat="45.71432" lon="4.63456">
        <ele>481.6</ele>
        <time>2025-08-06T09:14:00Z</time>
      </trkpt>
      <trkpt lat="45.71431" lon="4.63459">
        <ele>482</ele>
        <time>2025-08-06T09:14:01Z</time>
      </trkpt>
      <trkpt lat="45.71431" lon="4.63462">
        <ele>482.2</ele>
        <time>2025-08-06T09:14:02Z</time>
      </trkpt>
      <trkpt lat="45.7143" lon="4.63465">
        <ele>482.6</ele>
        <time>2025-08-06T09:14:03Z</time>
      </trkpt>
      <trkpt lat="45.71429" lon="4.63468">
        <ele>482.8</ele>
        <time>2025-08-06T09:14:04Z</time>
      </trkpt>
      <trkpt lat="45.71428" lon="4.63471">
        <ele>483.2</ele>
        <time>2025-08-06T09:14:05Z</time>
      </trkpt>
      <trkpt lat="45.71427" lon="4.63474">
        <ele>483.4</ele>
        <time>2025-08-06T09:14:06Z</time>
      </trkpt>
      <trkpt lat="45.71426" lon="4.63477">
        <ele>483.8</ele>
        <time>2025-08-06T09:14:07Z</time>
      </trkpt>
      <trkpt lat="45.71425" lon="4.63481">
        <ele>484</ele>
        <time>2025-08-06T09:14:08Z</time>
      </trkpt>
      <trkpt lat="45.71424" lon="4.63484">
        <ele>484.4</ele>
        <time>2025-08-06T09:14:09Z</time>
      </trkpt>
      <trkpt lat="45.71423" lon="4.63488">
        <ele>484.6</ele>
        <time>2025-08-06T09:14:10Z</time>
      </trkpt>
      <trkpt lat="45.71422" lon="4.63491">
        <ele>484.8</ele>
        <time>2025-08-06T09:14:11Z</time>
      </trkpt>
      <trkpt lat="45.71421" lon="4.63494">
        <ele>485</ele>
        <time>2025-08-06T09:14:12Z</time>
      </trkpt>
      <trkpt lat="45.71419" lon="4.63497">
        <ele>485.2</ele>
        <time>2025-08-06T09:14:13Z</time>
      </trkpt>
      <trkpt lat="45.71418" lon="4.63501">
        <ele>485.4</ele>
        <time>2025-08-06T09:14:14Z</time>
      </trkpt>
      <trkpt lat="45.71416" lon="4.63505">
        <ele>485.4</ele>
        <time>2025-08-06T09:14:15Z</time>
      </trkpt>
      <trkpt lat="45.71414" lon="4.63509">
        <ele>485.4</ele>
        <time>2025-08-06T09:14:16Z</time>
      </trkpt>
      <trkpt lat="45.71413" lon="4.63513">
        <ele>485.6</ele>
        <time>2025-08-06T09:14:17Z</time>
      </trkpt>
      <trkpt lat="45.71411" lon="4.63516">
        <ele>485.6</ele>
        <time>2025-08-06T09:14:18Z</time>
      </trkpt>
      <trkpt lat="45.71409" lon="4.63519">
        <ele>485.8</ele>
        <time>2025-08-06T09:14:19Z</time>
      </trkpt>
      <trkpt lat="45.71407" lon="4.63522">
        <ele>485.8</ele>
        <time>2025-08-06T09:14:20Z</time>
      </trkpt>
      <trkpt lat="45.71405" lon="4.63525">
        <ele>486</ele>
        <time>2025-08-06T09:14:21Z</time>
      </trkpt>
      <trkpt lat="45.71403" lon="4.63528">
        <ele>486.2</ele>
        <time>2025-08-06T09:14:22Z</time>
      </trkpt>
      <trkpt lat="45.71401" lon="4.63531">
        <ele>486.4</ele>
        <time>2025-08-06T09:14:23Z</time>
      </trkpt>
      <trkpt lat="45.71399" lon="4.63534">
        <ele>486.6</ele>
        <time>2025-08-06T09:14:24Z</time>
      </trkpt>
      <trkpt lat="45.71397" lon="4.63537">
        <ele>486.8</ele>
        <time>2025-08-06T09:14:25Z</time>
      </trkpt>
      <trkpt lat="45.71395" lon="4.63538">
        <ele>487</ele>
        <time>2025-08-06T09:14:26Z</time>
      </trkpt>
      <trkpt lat="45.71393" lon="4.6354">
        <ele>487.2</ele>
        <time>2025-08-06T09:14:27Z</time>
      </trkpt>
      <trkpt lat="45.71391" lon="4.63542">
        <ele>487.4</ele>
        <time>2025-08-06T09:14:28Z</time>
      </trkpt>
      <trkpt lat="45.71388" lon="4.63544">
        <ele>487.6</ele>
        <time>2025-08-06T09:14:29Z</time>
      </trkpt>
      <trkpt lat="45.71386" lon="4.63545">
        <ele>487.6</ele>
        <time>2025-08-06T09:14:30Z</time>
      </trkpt>
      <trkpt lat="45.71385" lon="4.63547">
        <ele>487.8</ele>
        <time>2025-08-06T09:14:31Z</time>
      </trkpt>
      <trkpt lat="45.71383" lon="4.63548">
        <ele>488</ele>
        <time>2025-08-06T09:14:32Z</time>
      </trkpt>
      <trkpt lat="45.7138" lon="4.63551">
        <ele>488.2</ele>
        <time>2025-08-06T09:14:33Z</time>
      </trkpt>
      <trkpt lat="45.71378" lon="4.63553">
        <ele>488.4</ele>
        <time>2025-08-06T09:14:34Z</time>
      </trkpt>
      <trkpt lat="45.71375" lon="4.63554">
        <ele>488.6</ele>
        <time>2025-08-06T09:14:35Z</time>
      </trkpt>
      <trkpt lat="45.71373" lon="4.63556">
        <ele>488.8</ele>
        <time>2025-08-06T09:14:36Z</time>
      </trkpt>
      <trkpt lat="45.71371" lon="4.63559">
        <ele>489</ele>
        <time>2025-08-06T09:14:37Z</time>
      </trkpt>
      <trkpt lat="45.71369" lon="4.63561">
        <ele>489</ele>
        <time>2025-08-06T09:14:38Z</time>
      </trkpt>
      <trkpt lat="45.71368" lon="4.63565">
        <ele>489.2</ele>
        <time>2025-08-06T09:14:39Z</time>
      </trkpt>
      <trkpt lat="45.71365" lon="4.63569">
        <ele>489.4</ele>
        <time>2025-08-06T09:14:40Z</time>
      </trkpt>
      <trkpt lat="45.71362" lon="4.63574">
        <ele>489.6</ele>
        <time>2025-08-06T09:14:41Z</time>
      </trkpt>
      <trkpt lat="45.71359" lon="4.63578">
        <ele>489.8</ele>
        <time>2025-08-06T09:14:42Z</time>
      </trkpt>
      <trkpt lat="45.71358" lon="4.63582">
        <ele>490</ele>
        <time>2025-08-06T09:14:43Z</time>
      </trkpt>
      <trkpt lat="45.71356" lon="4.63587">
        <ele>490.2</ele>
        <time>2025-08-06T09:14:44Z</time>
      </trkpt>
      <trkpt lat="45.71353" lon="4.63592">
        <ele>490.4</ele>
        <time>2025-08-06T09:14:45Z</time>
      </trkpt>
      <trkpt lat="45.71351" lon="4.63596">
        <ele>490.6</ele>
        <time>2025-08-06T09:14:46Z</time>
      </trkpt>
      <trkpt lat="45.7135" lon="4.636">
        <ele>491</ele>
        <time>2025-08-06T09:14:47Z</time>
      </trkpt>
      <trkpt lat="45.71348" lon="4.63604">
        <ele>491.2</ele>
        <time>2025-08-06T09:14:48Z</time>
      </trkpt>
      <trkpt lat="45.71346" lon="4.63609">
        <ele>491.6</ele>
        <time>2025-08-06T09:14:49Z</time>
      </trkpt>
      <trkpt lat="45.71343" lon="4.63613">
        <ele>492</ele>
        <time>2025-08-06T09:14:50Z</time>
      </trkpt>
      <trkpt lat="45.71341" lon="4.63618">
        <ele>492.2</ele>
        <time>2025-08-06T09:14:51Z</time>
      </trkpt>
      <trkpt lat="45.71339" lon="4.63621">
        <ele>492.6</ele>
        <time>2025-08-06T09:14:52Z</time>
      </trkpt>
      <trkpt lat="45.71337" lon="4.63624">
        <ele>493</ele>
        <time>2025-08-06T09:14:53Z</time>
      </trkpt>
      <trkpt lat="45.71335" lon="4.63627">
        <ele>493.4</ele>
        <time>2025-08-06T09:14:54Z</time>
      </trkpt>
      <trkpt lat="45.71333" lon="4.63631">
        <ele>493.8</ele>
        <time>2025-08-06T09:14:55Z</time>
      </trkpt>
      <trkpt lat="45.7133" lon="4.63635">
        <ele>494.2</ele>
        <time>2025-08-06T09:14:56Z</time>
      </trkpt>
      <trkpt lat="45.71328" lon="4.63639">
        <ele>494.6</ele>
        <time>2025-08-06T09:14:57Z</time>
      </trkpt>
      <trkpt lat="45.71325" lon="4.63642">
        <ele>495.2</ele>
        <time>2025-08-06T09:14:58Z</time>
      </trkpt>
      <trkpt lat="45.71324" lon="4.63645">
        <ele>495.6</ele>
        <time>2025-08-06T09:14:59Z</time>
      </trkpt>
      <trkpt lat="45.71321" lon="4.63649">
        <ele>496.2</ele>
        <time>2025-08-06T09:15:00Z</time>
      </trkpt>
      <trkpt lat="45.71319" lon="4.63652">
        <ele>496.6</ele>
        <time>2025-08-06T09:15:01Z</time>
      </trkpt>
      <trkpt lat="45.71316" lon="4.63655">
        <ele>497</ele>
        <time>2025-08-06T09:15:02Z</time>
      </trkpt>
      <trkpt lat="45.71315" lon="4.63658">
        <ele>497.4</ele>
        <time>2025-08-06T09:15:03Z</time>
      </trkpt>
      <trkpt lat="45.71313" lon="4.63659">
        <ele>497.8</ele>
        <time>2025-08-06T09:15:04Z</time>
      </trkpt>
      <trkpt lat="45.7131" lon="4.63661">
        <ele>498</ele>
        <time>2025-08-06T09:15:05Z</time>
      </trkpt>
      <trkpt lat="45.71307" lon="4.63664">
        <ele>498.2</ele>
        <time>2025-08-06T09:15:06Z</time>
      </trkpt>
      <trkpt lat="45.71304" lon="4.63667">
        <ele>498.2</ele>
        <time>2025-08-06T09:15:07Z</time>
      </trkpt>
      <trkpt lat="45.71301" lon="4.63671">
        <ele>498.4</ele>
        <time>2025-08-06T09:15:08Z</time>
      </trkpt>
      <trkpt lat="45.71298" lon="4.63676">
        <ele>498.4</ele>
        <time>2025-08-06T09:15:09Z</time>
      </trkpt>
      <trkpt lat="45.71295" lon="4.6368">
        <ele>498.4</ele>
        <time>2025-08-06T09:15:10Z</time>
      </trkpt>
      <trkpt lat="45.71292" lon="4.63684">
        <ele>498.4</ele>
        <time>2025-08-06T09:15:11Z</time>
      </trkpt>
      <trkpt lat="45.71289" lon="4.63687">
        <ele>498.6</ele>
        <time>2025-08-06T09:15:12Z</time>
      </trkpt>
      <trkpt lat="45.71286" lon="4.6369">
        <ele>498.6</ele>
        <time>2025-08-06T09:15:13Z</time>
      </trkpt>
      <trkpt lat="45.71284" lon="4.63693">
        <ele>498.8</ele>
        <time>2025-08-06T09:15:14Z</time>
      </trkpt>
      <trkpt lat="45.71284" lon="4.63694">
        <ele>499</ele>
        <time>2025-08-06T09:15:15Z</time>
      </trkpt>
      <trkpt lat="45.71284" lon="4.63694">
        <ele>499.2</ele>
        <time>2025-08-06T09:15:16Z</time>
      </trkpt>
      <trkpt lat="45.71282" lon="4.63698">
        <ele>500.2</ele>
        <time>2025-08-06T09:15:45Z</time>
      </trkpt>
      <trkpt lat="45.71281" lon="4.637">
        <ele>500.2</ele>
        <time>2025-08-06T09:15:46Z</time>
      </trkpt>
      <trkpt lat="45.71281" lon="4.63702">
        <ele>500</ele>
        <time>2025-08-06T09:15:47Z</time>
      </trkpt>
      <trkpt lat="45.7128" lon="4.63706">
        <ele>499.6</ele>
        <time>2025-08-06T09:15:48Z</time>
      </trkpt>
      <trkpt lat="45.7128" lon="4.6371">
        <ele>499.2</ele>
        <time>2025-08-06T09:15:49Z</time>
      </trkpt>
      <trkpt lat="45.71281" lon="4.63716">
        <ele>498.6</ele>
        <time>2025-08-06T09:15:50Z</time>
      </trkpt>
      <trkpt lat="45.7128" lon="4.63724">
        <ele>498.2</ele>
        <time>2025-08-06T09:15:51Z</time>
      </trkpt>
      <trkpt lat="45.71279" lon="4.63732">
        <ele>497.8</ele>
        <time>2025-08-06T09:15:52Z</time>
      </trkpt>
      <trkpt lat="45.71277" lon="4.6374">
        <ele>497.4</ele>
        <time>2025-08-06T09:15:53Z</time>
      </trkpt>
      <trkpt lat="45.71275" lon="4.63747">
        <ele>497.4</ele>
        <time>2025-08-06T09:15:54Z</time>
      </trkpt>
      <trkpt lat="45.71274" lon="4.63755">
        <ele>497.2</ele>
        <time>2025-08-06T09:15:55Z</time>
      </trkpt>
      <trkpt lat="45.71272" lon="4.63761">
        <ele>497.2</ele>
        <time>2025-08-06T09:15:56Z</time>
      </trkpt>
      <trkpt lat="45.71271" lon="4.63768">
        <ele>497.4</ele>
        <time>2025-08-06T09:15:57Z</time>
      </trkpt>
      <trkpt lat="45.7127" lon="4.63776">
        <ele>497.4</ele>
        <time>2025-08-06T09:15:58Z</time>
      </trkpt>
      <trkpt lat="45.71268" lon="4.63783">
        <ele>497.6</ele>
        <time>2025-08-06T09:15:59Z</time>
      </trkpt>
      <trkpt lat="45.71266" lon="4.63789">
        <ele>497.8</ele>
        <time>2025-08-06T09:16:00Z</time>
      </trkpt>
      <trkpt lat="45.71265" lon="4.63794">
        <ele>498</ele>
        <time>2025-08-06T09:16:01Z</time>
      </trkpt>
      <trkpt lat="45.71264" lon="4.63798">
        <ele>498.4</ele>
        <time>2025-08-06T09:16:02Z</time>
      </trkpt>
      <trkpt lat="45.71264" lon="4.63802">
        <ele>499</ele>
        <time>2025-08-06T09:16:03Z</time>
      </trkpt>
      <trkpt lat="45.71265" lon="4.63807">
        <ele>499.6</ele>
        <time>2025-08-06T09:16:04Z</time>
      </trkpt>
      <trkpt lat="45.71267" lon="4.6381">
        <ele>500</ele>
        <time>2025-08-06T09:16:05Z</time>
      </trkpt>
      <trkpt lat="45.71267" lon="4.63814">
        <ele>500.6</ele>
        <time>2025-08-06T09:16:06Z</time>
      </trkpt>
      <trkpt lat="45.71265" lon="4.63818">
        <ele>501</ele>
        <time>2025-08-06T09:16:07Z</time>
      </trkpt>
      <trkpt lat="45.71264" lon="4.63823">
        <ele>501.4</ele>
        <time>2025-08-06T09:16:08Z</time>
      </trkpt>
      <trkpt lat="45.71264" lon="4.63829">
        <ele>501.6</ele>
        <time>2025-08-06T09:16:09Z</time>
      </trkpt>
      <trkpt lat="45.71264" lon="4.63834">
        <ele>501.8</ele>
        <time>2025-08-06T09:16:10Z</time>
      </trkpt>
      <trkpt lat="45.71263" lon="4.63838">
        <ele>501.8</ele>
        <time>2025-08-06T09:16:11Z</time>
      </trkpt>
      <trkpt lat="45.71261" lon="4.63844">
        <ele>502</ele>
        <time>2025-08-06T09:16:12Z</time>
      </trkpt>
      <trkpt lat="45.7126" lon="4.63851">
        <ele>502</ele>
        <time>2025-08-06T09:16:13Z</time>
      </trkpt>
      <trkpt lat="45.71261" lon="4.63857">
        <ele>502.2</ele>
        <time>2025-08-06T09:16:14Z</time>
      </trkpt>
      <trkpt lat="45.71261" lon="4.63863">
        <ele>502.4</ele>
        <time>2025-08-06T09:16:15Z</time>
      </trkpt>
      <trkpt lat="45.71261" lon="4.63867">
        <ele>502.4</ele>
        <time>2025-08-06T09:16:16Z</time>
      </trkpt>
      <trkpt lat="45.71262" lon="4.63873">
        <ele>502.6</ele>
        <time>2025-08-06T09:16:17Z</time>
      </trkpt>
      <trkpt lat="45.71263" lon="4.63879">
        <ele>502.8</ele>
        <time>2025-08-06T09:16:18Z</time>
      </trkpt>
      <trkpt lat="45.71262" lon="4.63885">
        <ele>503</ele>
        <time>2025-08-06T09:16:19Z</time>
      </trkpt>
      <trkpt lat="45.71263" lon="4.63889">
        <ele>503</ele>
        <time>2025-08-06T09:16:20Z</time>
      </trkpt>
      <trkpt lat="45.71263" lon="4.63894">
        <ele>503.2</ele>
        <time>2025-08-06T09:16:21Z</time>
      </trkpt>
      <trkpt lat="45.71264" lon="4.63898">
        <ele>503.4</ele>
        <time>2025-08-06T09:16:22Z</time>
      </trkpt>
      <trkpt lat="45.71265" lon="4.63902">
        <ele>503.6</ele>
        <time>2025-08-06T09:16:23Z</time>
      </trkpt>
      <trkpt lat="45.71266" lon="4.63906">
        <ele>503.8</ele>
        <time>2025-08-06T09:16:24Z</time>
      </trkpt>
      <trkpt lat="45.71267" lon="4.63911">
        <ele>504</ele>
        <time>2025-08-06T09:16:25Z</time>
      </trkpt>
      <trkpt lat="45.71267" lon="4.63915">
        <ele>504.2</ele>
        <time>2025-08-06T09:16:26Z</time>
      </trkpt>
      <trkpt lat="45.71268" lon="4.63919">
        <ele>504.6</ele>
        <time>2025-08-06T09:16:27Z</time>
      </trkpt>
      <trkpt lat="45.71268" lon="4.63923">
        <ele>504.8</ele>
        <time>2025-08-06T09:16:28Z</time>
      </trkpt>
      <trkpt lat="45.71269" lon="4.63926">
        <ele>505.2</ele>
        <time>2025-08-06T09:16:29Z</time>
      </trkpt>
      <trkpt lat="45.7127" lon="4.6393">
        <ele>505.4</ele>
        <time>2025-08-06T09:16:30Z</time>
      </trkpt>
      <trkpt lat="45.7127" lon="4.63934">
        <ele>505.6</ele>
        <time>2025-08-06T09:16:31Z</time>
      </trkpt>
      <trkpt lat="45.71271" lon="4.63938">
        <ele>506</ele>
        <time>2025-08-06T09:16:32Z</time>
      </trkpt>
      <trkpt lat="45.71271" lon="4.63941">
        <ele>506.2</ele>
        <time>2025-08-06T09:16:33Z</time>
      </trkpt>
      <trkpt lat="45.71272" lon="4.63945">
        <ele>506.6</ele>
        <time>2025-08-06T09:16:34Z</time>
      </trkpt>
      <trkpt lat="45.71273" lon="4.63949">
        <ele>507</ele>
        <time>2025-08-06T09:16:35Z</time>
      </trkpt>
      <trkpt lat="45.71275" lon="4.63952">
        <ele>507.4</ele>
        <time>2025-08-06T09:16:36Z</time>
      </trkpt>
      <trkpt lat="45.71275" lon="4.63955">
        <ele>507.8</ele>
        <time>2025-08-06T09:16:37Z</time>
      </trkpt>
      <trkpt lat="45.71276" lon="4.6396">
        <ele>508.4</ele>
        <time>2025-08-06T09:16:38Z</time>
      </trkpt>
      <trkpt lat="45.71275" lon="4.63964">
        <ele>508.8</ele>
        <time>2025-08-06T09:16:39Z</time>
      </trkpt>
      <trkpt lat="45.71275" lon="4.63967">
        <ele>509.2</ele>
        <time>2025-08-06T09:16:40Z</time>
      </trkpt>
      <trkpt lat="45.71276" lon="4.63969">
        <ele>509.8</ele>
        <time>2025-08-06T09:16:41Z</time>
      </trkpt>
      <trkpt lat="45.71277" lon="4.63972">
        <ele>510.2</ele>
        <time>2025-08-06T09:16:42Z</time>
      </trkpt>
      <trkpt lat="45.71279" lon="4.63976">
        <ele>510.6</ele>
        <time>2025-08-06T09:16:43Z</time>
      </trkpt>
      <trkpt lat="45.71279" lon="4.63979">
        <ele>510.8</ele>
        <time>2025-08-06T09:16:44Z</time>
      </trkpt>
      <trkpt lat="45.71279" lon="4.63984">
        <ele>511</ele>
        <time>2025-08-06T09:16:45Z</time>
      </trkpt>
      <trkpt lat="45.71279" lon="4.63988">
        <ele>511.2</ele>
        <time>2025-08-06T09:16:46Z</time>
      </trkpt>
      <trkpt lat="45.7128" lon="4.63992">
        <ele>511.2</ele>
        <time>2025-08-06T09:16:47Z</time>
      </trkpt>
      <trkpt lat="45.7128" lon="4.63997">
        <ele>511.4</ele>
        <time>2025-08-06T09:16:48Z</time>
      </trkpt>
      <trkpt lat="45.7128" lon="4.64001">
        <ele>511.4</ele>
        <time>2025-08-06T09:16:49Z</time>
      </trkpt>
      <trkpt lat="45.7128" lon="4.64005">
        <ele>511.6</ele>
        <time>2025-08-06T09:16:50Z</time>
      </trkpt>
      <trkpt lat="45.71279" lon="4.64008">
        <ele>512</ele>
        <time>2025-08-06T09:16:51Z</time>
      </trkpt>
      <trkpt lat="45.7128" lon="4.64011">
        <ele>512.2</ele>
        <time>2025-08-06T09:16:52Z</time>
      </trkpt>
      <trkpt lat="45.7128" lon="4.64014">
        <ele>512.6</ele>
        <time>2025-08-06T09:16:53Z</time>
      </trkpt>
      <trkpt lat="45.7128" lon="4.64017">
        <ele>512.8</ele>
        <time>2025-08-06T09:16:54Z</time>
      </trkpt>
      <trkpt lat="45.71281" lon="4.6402">
        <ele>513</ele>
        <time>2025-08-06T09:16:55Z</time>
      </trkpt>
      <trkpt lat="45.71282" lon="4.64024">
        <ele>513.4</ele>
        <time>2025-08-06T09:16:56Z</time>
      </trkpt>
      <trkpt lat="45.71283" lon="4.64028">
        <ele>513.6</ele>
        <time>2025-08-06T09:16:57Z</time>
      </trkpt>
      <trkpt lat="45.71283" lon="4.64032">
        <ele>513.8</ele>
        <time>2025-08-06T09:16:58Z</time>
      </trkpt>
      <trkpt lat="45.71283" lon="4.64036">
        <ele>514</ele>
        <time>2025-08-06T09:16:59Z</time>
      </trkpt>
      <trkpt lat="45.71283" lon="4.64039">
        <ele>514.2</ele>
        <time>2025-08-06T09:17:00Z</time>
      </trkpt>
      <trkpt lat="45.71282" lon="4.64042">
        <ele>514.4</ele>
        <time>2025-08-06T09:17:01Z</time>
      </trkpt>
      <trkpt lat="45.71281" lon="4.64047">
        <ele>514.6</ele>
        <time>2025-08-06T09:17:02Z</time>
      </trkpt>
      <trkpt lat="45.71282" lon="4.64052">
        <ele>514.8</ele>
        <time>2025-08-06T09:17:03Z</time>
      </trkpt>
      <trkpt lat="45.71283" lon="4.64055">
        <ele>515</ele>
        <time>2025-08-06T09:17:04Z</time>
      </trkpt>
      <trkpt lat="45.71282" lon="4.64059">
        <ele>515.2</ele>
        <time>2025-08-06T09:17:05Z</time>
      </trkpt>
      <trkpt lat="45.71282" lon="4.64062">
        <ele>515.4</ele>
        <time>2025-08-06T09:17:06Z</time>
      </trkpt>
      <trkpt lat="45.71281" lon="4.64066">
        <ele>515.6</ele>
        <time>2025-08-06T09:17:07Z</time>
      </trkpt>
      <trkpt lat="45.71281" lon="4.64069">
        <ele>515.8</ele>
        <time>2025-08-06T09:17:08Z</time>
      </trkpt>
      <trkpt lat="45.71282" lon="4.64073">
        <ele>516</ele>
        <time>2025-08-06T09:17:09Z</time>
      </trkpt>
      <trkpt lat="45.71283" lon="4.64076">
        <ele>516.2</ele>
        <time>2025-08-06T09:17:10Z</time>
      </trkpt>
      <trkpt lat="45.71283" lon="4.64079">
        <ele>516.6</ele>
        <time>2025-08-06T09:17:11Z</time>
      </trkpt>
      <trkpt lat="45.71283" lon="4.64082">
        <ele>516.8</ele>
        <time>2025-08-06T09:17:12Z</time>
      </trkpt>
      <trkpt lat="45.71283" lon="4.64085">
        <ele>517</ele>
        <time>2025-08-06T09:17:13Z</time>
      </trkpt>
      <trkpt lat="45.71283" lon="4.64088">
        <ele>517.4</ele>
        <time>2025-08-06T09:17:14Z</time>
      </trkpt>
      <trkpt lat="45.71283" lon="4.64091">
        <ele>517.8</ele>
        <time>2025-08-06T09:17:15Z</time>
      </trkpt>
      <trkpt lat="45.71283" lon="4.64094">
        <ele>518</ele>
        <time>2025-08-06T09:17:16Z</time>
      </trkpt>
      <trkpt lat="45.71282" lon="4.64097">
        <ele>518.2</ele>
        <time>2025-08-06T09:17:17Z</time>
      </trkpt>
      <trkpt lat="45.71282" lon="4.64101">
        <ele>518.4</ele>
        <time>2025-08-06T09:17:18Z</time>
      </trkpt>
      <trkpt lat="45.71281" lon="4.64104">
        <ele>518.6</ele>
        <time>2025-08-06T09:17:19Z</time>
      </trkpt>
      <trkpt lat="45.71281" lon="4.64107">
        <ele>519</ele>
        <time>2025-08-06T09:17:20Z</time>
      </trkpt>
      <trkpt lat="45.71281" lon="4.64109">
        <ele>519.2</ele>
        <time>2025-08-06T09:17:21Z</time>
      </trkpt>
      <trkpt lat="45.71281" lon="4.64112">
        <ele>519.4</ele>
        <time>2025-08-06T09:17:22Z</time>
      </trkpt>
      <trkpt lat="45.7128" lon="4.64115">
        <ele>519.6</ele>
        <time>2025-08-06T09:17:23Z</time>
      </trkpt>
      <trkpt lat="45.7128" lon="4.64117">
        <ele>519.8</ele>
        <time>2025-08-06T09:17:24Z</time>
      </trkpt>
      <trkpt lat="45.71279" lon="4.64119">
        <ele>520.2</ele>
        <time>2025-08-06T09:17:25Z</time>
      </trkpt>
      <trkpt lat="45.71279" lon="4.64122">
        <ele>520.4</ele>
        <time>2025-08-06T09:17:26Z</time>
      </trkpt>
      <trkpt lat="45.71279" lon="4.64124">
        <ele>520.8</ele>
        <time>2025-08-06T09:17:27Z</time>
      </trkpt>
      <trkpt lat="45.71278" lon="4.64126">
        <ele>521</ele>
        <time>2025-08-06T09:17:28Z</time>
      </trkpt>
      <trkpt lat="45.71278" lon="4.64128">
        <ele>521.4</ele>
        <time>2025-08-06T09:17:29Z</time>
      </trkpt>
      <trkpt lat="45.71277" lon="4.64131">
        <ele>521.6</ele>
        <time>2025-08-06T09:17:30Z</time>
      </trkpt>
      <trkpt lat="45.71277" lon="4.64133">
        <ele>521.8</ele>
        <time>2025-08-06T09:17:31Z</time>
      </trkpt>
      <trkpt lat="45.71276" lon="4.64135">
        <ele>522</ele>
        <time>2025-08-06T09:17:32Z</time>
      </trkpt>
      <trkpt lat="45.71276" lon="4.64137">
        <ele>522.4</ele>
        <time>2025-08-06T09:17:33Z</time>
      </trkpt>
      <trkpt lat="45.71275" lon="4.64139">
        <ele>522.6</ele>
        <time>2025-08-06T09:17:34Z</time>
      </trkpt>
      <trkpt lat="45.71274" lon="4.64141">
        <ele>523</ele>
        <time>2025-08-06T09:17:35Z</time>
      </trkpt>
      <trkpt lat="45.71274" lon="4.64144">
        <ele>523.2</ele>
        <time>2025-08-06T09:17:36Z</time>
      </trkpt>
      <trkpt lat="45.71274" lon="4.64146">
        <ele>523.6</ele>
        <time>2025-08-06T09:17:37Z</time>
      </trkpt>
      <trkpt lat="45.71275" lon="4.64149">
        <ele>523.8</ele>
        <time>2025-08-06T09:17:38Z</time>
      </trkpt>
      <trkpt lat="45.71275" lon="4.64151">
        <ele>524</ele>
        <time>2025-08-06T09:17:39Z</time>
      </trkpt>
      <trkpt lat="45.71274" lon="4.64153">
        <ele>524.2</ele>
        <time>2025-08-06T09:17:40Z</time>
      </trkpt>
      <trkpt lat="45.71274" lon="4.64155">
        <ele>524.4</ele>
        <time>2025-08-06T09:17:41Z</time>
      </trkpt>
      <trkpt lat="45.71273" lon="4.64158">
        <ele>524.8</ele>
        <time>2025-08-06T09:17:42Z</time>
      </trkpt>
      <trkpt lat="45.71273" lon="4.6416">
        <ele>525</ele>
        <time>2025-08-06T09:17:43Z</time>
      </trkpt>
      <trkpt lat="45.71272" lon="4.64162">
        <ele>525.2</ele>
        <time>2025-08-06T09:17:44Z</time>
      </trkpt>
      <trkpt lat="45.71271" lon="4.64165">
        <ele>525.4</ele>
        <time>2025-08-06T09:17:45Z</time>
      </trkpt>
      <trkpt lat="45.71271" lon="4.64168">
        <ele>525.6</ele>
        <time>2025-08-06T09:17:46Z</time>
      </trkpt>
      <trkpt lat="45.7127" lon="4.64171">
        <ele>525.8</ele>
        <time>2025-08-06T09:17:47Z</time>
      </trkpt>
      <trkpt lat="45.7127" lon="4.64173">
        <ele>525.8</ele>
        <time>2025-08-06T09:17:48Z</time>
      </trkpt>
      <trkpt lat="45.7127" lon="4.64176">
        <ele>526</ele>
        <time>2025-08-06T09:17:49Z</time>
      </trkpt>
      <trkpt lat="45.71269" lon="4.64178">
        <ele>526.2</ele>
        <time>2025-08-06T09:17:50Z</time>
      </trkpt>
      <trkpt lat="45.71269" lon="4.64181">
        <ele>526.4</ele>
        <time>2025-08-06T09:17:51Z</time>
      </trkpt>
      <trkpt lat="45.71268" lon="4.64183">
        <ele>526.4</ele>
        <time>2025-08-06T09:17:52Z</time>
      </trkpt>
      <trkpt lat="45.71268" lon="4.64185">
        <ele>526.6</ele>
        <time>2025-08-06T09:17:53Z</time>
      </trkpt>
      <trkpt lat="45.71267" lon="4.64188">
        <ele>526.8</ele>
        <time>2025-08-06T09:17:54Z</time>
      </trkpt>
      <trkpt lat="45.71266" lon="4.64191">
        <ele>527</ele>
        <time>2025-08-06T09:17:55Z</time>
      </trkpt>
      <trkpt lat="45.71265" lon="4.64193">
        <ele>527.2</ele>
        <time>2025-08-06T09:17:56Z</time>
      </trkpt>
      <trkpt lat="45.71264" lon="4.64195">
        <ele>527.4</ele>
        <time>2025-08-06T09:17:57Z</time>
      </trkpt>
      <trkpt lat="45.71263" lon="4.64197">
        <ele>527.6</ele>
        <time>2025-08-06T09:17:58Z</time>
      </trkpt>
      <trkpt lat="45.71262" lon="4.64198">
        <ele>528</ele>
        <time>2025-08-06T09:17:59Z</time>
      </trkpt>
      <trkpt lat="45.71261" lon="4.64198">
        <ele>528.2</ele>
        <time>2025-08-06T09:18:00Z</time>
      </trkpt>
      <trkpt lat="45.71261" lon="4.64198">
        <ele>528.4</ele>
        <time>2025-08-06T09:18:01Z</time>
      </trkpt>
      <trkpt lat="45.71261" lon="4.64201">
        <ele>529</ele>
        <time>2025-08-06T09:18:13Z</time>
      </trkpt>
      <trkpt lat="45.71261" lon="4.64203">
        <ele>529</ele>
        <time>2025-08-06T09:18:14Z</time>
      </trkpt>
      <trkpt lat="45.7126" lon="4.64205">
        <ele>529.2</ele>
        <time>2025-08-06T09:18:15Z</time>
      </trkpt>
      <trkpt lat="45.71259" lon="4.64207">
        <ele>529.6</ele>
        <time>2025-08-06T09:18:16Z</time>
      </trkpt>
      <trkpt lat="45.71258" lon="4.6421">
        <ele>529.8</ele>
        <time>2025-08-06T09:18:17Z</time>
      </trkpt>
      <trkpt lat="45.71258" lon="4.64213">
        <ele>530.2</ele>
        <time>2025-08-06T09:18:18Z</time>
      </trkpt>
      <trkpt lat="45.71257" lon="4.64215">
        <ele>530.4</ele>
        <time>2025-08-06T09:18:19Z</time>
      </trkpt>
      <trkpt lat="45.71256" lon="4.64217">
        <ele>530.8</ele>
        <time>2025-08-06T09:18:20Z</time>
      </trkpt>
      <trkpt lat="45.71254" lon="4.64219">
        <ele>531</ele>
        <time>2025-08-06T09:18:21Z</time>
      </trkpt>
      <trkpt lat="45.71253" lon="4.64221">
        <ele>531.4</ele>
        <time>2025-08-06T09:18:22Z</time>
      </trkpt>
      <trkpt lat="45.71252" lon="4.64224">
        <ele>531.8</ele>
        <time>2025-08-06T09:18:23Z</time>
      </trkpt>
      <trkpt lat="45.71252" lon="4.64227">
        <ele>532</ele>
        <time>2025-08-06T09:18:24Z</time>
      </trkpt>
      <trkpt lat="45.71251" lon="4.64229">
        <ele>532.2</ele>
        <time>2025-08-06T09:18:25Z</time>
      </trkpt>
      <trkpt lat="45.7125" lon="4.64232">
        <ele>532.6</ele>
        <time>2025-08-06T09:18:26Z</time>
      </trkpt>
      <trkpt lat="45.7125" lon="4.64235">
        <ele>532.8</ele>
        <time>2025-08-06T09:18:27Z</time>
      </trkpt>
      <trkpt lat="45.71248" lon="4.64238">
        <ele>533</ele>
        <time>2025-08-06T09:18:28Z</time>
      </trkpt>
      <trkpt lat="45.71247" lon="4.6424">
        <ele>533.2</ele>
        <time>2025-08-06T09:18:29Z</time>
      </trkpt>
      <trkpt lat="45.71246" lon="4.64243">
        <ele>533.6</ele>
        <time>2025-08-06T09:18:30Z</time>
      </trkpt>
      <trkpt lat="45.71245" lon="4.64245">
        <ele>533.8</ele>
        <time>2025-08-06T09:18:31Z</time>
      </trkpt>
      <trkpt lat="45.71244" lon="4.64248">
        <ele>534</ele>
        <time>2025-08-06T09:18:32Z</time>
      </trkpt>
      <trkpt lat="45.71243" lon="4.6425">
        <ele>534.4</ele>
        <time>2025-08-06T09:18:33Z</time>
      </trkpt>
      <trkpt lat="45.71242" lon="4.64253">
        <ele>534.6</ele>
        <time>2025-08-06T09:18:34Z</time>
      </trkpt>
      <trkpt lat="45.71241" lon="4.64255">
        <ele>535</ele>
        <time>2025-08-06T09:18:35Z</time>
      </trkpt>
      <trkpt lat="45.71241" lon="4.64257">
        <ele>535.2</ele>
        <time>2025-08-06T09:18:36Z</time>
      </trkpt>
      <trkpt lat="45.7124" lon="4.64259">
        <ele>535.6</ele>
        <time>2025-08-06T09:18:37Z</time>
      </trkpt>
      <trkpt lat="45.71238" lon="4.64261">
        <ele>535.8</ele>
        <time>2025-08-06T09:18:38Z</time>
      </trkpt>
      <trkpt lat="45.71238" lon="4.64263">
        <ele>536.2</ele>
        <time>2025-08-06T09:18:39Z</time>
      </trkpt>
      <trkpt lat="45.71237" lon="4.64266">
        <ele>536.4</ele>
        <time>2025-08-06T09:18:40Z</time>
      </trkpt>
      <trkpt lat="45.71236" lon="4.64269">
        <ele>536.6</ele>
        <time>2025-08-06T09:18:41Z</time>
      </trkpt>
      <trkpt lat="45.71235" lon="4.64272">
        <ele>536.8</ele>
        <time>2025-08-06T09:18:42Z</time>
      </trkpt>
      <trkpt lat="45.71234" lon="4.64275">
        <ele>537.2</ele>
        <time>2025-08-06T09:18:43Z</time>
      </trkpt>
      <trkpt lat="45.71233" lon="4.64277">
        <ele>537.4</ele>
        <time>2025-08-06T09:18:44Z</time>
      </trkpt>
      <trkpt lat="45.71232" lon="4.6428">
        <ele>537.6</ele>
        <time>2025-08-06T09:18:45Z</time>
      </trkpt>
      <trkpt lat="45.7123" lon="4.64283">
        <ele>538</ele>
        <time>2025-08-06T09:18:46Z</time>
      </trkpt>
      <trkpt lat="45.71229" lon="4.64285">
        <ele>538.2</ele>
        <time>2025-08-06T09:18:47Z</time>
      </trkpt>
      <trkpt lat="45.71228" lon="4.64287">
        <ele>538.4</ele>
        <time>2025-08-06T09:18:48Z</time>
      </trkpt>
      <trkpt lat="45.71227" lon="4.64289">
        <ele>538.8</ele>
        <time>2025-08-06T09:18:49Z</time>
      </trkpt>
      <trkpt lat="45.71226" lon="4.64291">
        <ele>539</ele>
        <time>2025-08-06T09:18:50Z</time>
      </trkpt>
      <trkpt lat="45.71225" lon="4.64293">
        <ele>539.2</ele>
        <time>2025-08-06T09:18:51Z</time>
      </trkpt>
      <trkpt lat="45.71223" lon="4.64295">
        <ele>539.6</ele>
        <time>2025-08-06T09:18:52Z</time>
      </trkpt>
      <trkpt lat="45.71222" lon="4.64297">
        <ele>539.8</ele>
        <time>2025-08-06T09:18:53Z</time>
      </trkpt>
      <trkpt lat="45.71221" lon="4.64299">
        <ele>540</ele>
        <time>2025-08-06T09:18:54Z</time>
      </trkpt>
      <trkpt lat="45.7122" lon="4.64301">
        <ele>540</ele>
        <time>2025-08-06T09:18:55Z</time>
      </trkpt>
      <trkpt lat="45.71219" lon="4.64304">
        <ele>540.4</ele>
        <time>2025-08-06T09:18:56Z</time>
      </trkpt>
      <trkpt lat="45.71217" lon="4.64306">
        <ele>540.4</ele>
        <time>2025-08-06T09:18:57Z</time>
      </trkpt>
      <trkpt lat="45.71216" lon="4.64309">
        <ele>540.6</ele>
        <time>2025-08-06T09:18:58Z</time>
      </trkpt>
      <trkpt lat="45.71214" lon="4.64312">
        <ele>540.8</ele>
        <time>2025-08-06T09:18:59Z</time>
      </trkpt>
      <trkpt lat="45.71213" lon="4.64314">
        <ele>541</ele>
        <time>2025-08-06T09:19:00Z</time>
      </trkpt>
      <trkpt lat="45.71211" lon="4.64317">
        <ele>541.2</ele>
        <time>2025-08-06T09:19:01Z</time>
      </trkpt>
      <trkpt lat="45.7121" lon="4.64321">
        <ele>541.4</ele>
        <time>2025-08-06T09:19:02Z</time>
      </trkpt>
      <trkpt lat="45.71208" lon="4.64324">
        <ele>541.6</ele>
        <time>2025-08-06T09:19:03Z</time>
      </trkpt>
      <trkpt lat="45.71206" lon="4.64327">
        <ele>541.8</ele>
        <time>2025-08-06T09:19:04Z</time>
      </trkpt>
      <trkpt lat="45.71205" lon="4.6433">
        <ele>541.8</ele>
        <time>2025-08-06T09:19:05Z</time>
      </trkpt>
      <trkpt lat="45.71203" lon="4.64333">
        <ele>542</ele>
        <time>2025-08-06T09:19:06Z</time>
      </trkpt>
      <trkpt lat="45.71201" lon="4.64336">
        <ele>542.2</ele>
        <time>2025-08-06T09:19:07Z</time>
      </trkpt>
      <trkpt lat="45.71199" lon="4.64339">
        <ele>542.4</ele>
        <time>2025-08-06T09:19:08Z</time>
      </trkpt>
      <trkpt lat="45.71198" lon="4.64342">
        <ele>542.6</ele>
        <time>2025-08-06T09:19:09Z</time>
      </trkpt>
      <trkpt lat="45.71196" lon="4.64346">
        <ele>542.8</ele>
        <time>2025-08-06T09:19:10Z</time>
      </trkpt>
      <trkpt lat="45.71194" lon="4.64349">
        <ele>543</ele>
        <time>2025-08-06T09:19:11Z</time>
      </trkpt>
      <trkpt lat="45.71193" lon="4.64352">
        <ele>543.2</ele>
        <time>2025-08-06T09:19:12Z</time>
      </trkpt>
      <trkpt lat="45.71191" lon="4.64355">
        <ele>543.4</ele>
        <time>2025-08-06T09:19:13Z</time>
      </trkpt>
      <trkpt lat="45.71189" lon="4.64359">
        <ele>543.6</ele>
        <time>2025-08-06T09:19:14Z</time>
      </trkpt>
      <trkpt lat="45.71188" lon="4.64362">
        <ele>543.8</ele>
        <time>2025-08-06T09:19:15Z</time>
      </trkpt>
      <trkpt lat="45.71186" lon="4.64364">
        <ele>544</ele>
        <time>2025-08-06T09:19:16Z</time>
      </trkpt>
      <trkpt lat="45.71184" lon="4.64367">
        <ele>544</ele>
        <time>2025-08-06T09:19:17Z</time>
      </trkpt>
      <trkpt lat="45.71182" lon="4.6437">
        <ele>544.2</ele>
        <time>2025-08-06T09:19:18Z</time>
      </trkpt>
      <trkpt lat="45.71181" lon="4.64373">
        <ele>544.4</ele>
        <time>2025-08-06T09:19:19Z</time>
      </trkpt>
      <trkpt lat="45.71179" lon="4.64377">
        <ele>544.4</ele>
        <time>2025-08-06T09:19:20Z</time>
      </trkpt>
      <trkpt lat="45.71177" lon="4.64381">
        <ele>544.4</ele>
        <time>2025-08-06T09:19:21Z</time>
      </trkpt>
      <trkpt lat="45.71176" lon="4.64385">
        <ele>544.4</ele>
        <time>2025-08-06T09:19:22Z</time>
      </trkpt>
      <trkpt lat="45.71174" lon="4.6439">
        <ele>544.2</ele>
        <time>2025-08-06T09:19:23Z</time>
      </trkpt>
      <trkpt lat="45.71173" lon="4.64394">
        <ele>544</ele>
        <time>2025-08-06T09:19:24Z</time>
      </trkpt>
      <trkpt lat="45.71171" lon="4.64399">
        <ele>543.8</ele>
        <time>2025-08-06T09:19:25Z</time>
      </trkpt>
      <trkpt lat="45.7117" lon="4.64405">
        <ele>543.2</ele>
        <time>2025-08-06T09:19:26Z</time>
      </trkpt>
      <trkpt lat="45.71168" lon="4.6441">
        <ele>542.6</ele>
        <time>2025-08-06T09:19:27Z</time>
      </trkpt>
      <trkpt lat="45.71166" lon="4.64414">
        <ele>542</ele>
        <time>2025-08-06T09:19:28Z</time>
      </trkpt>
      <trkpt lat="45.71163" lon="4.64417">
        <ele>541.4</ele>
        <time>2025-08-06T09:19:29Z</time>
      </trkpt>
      <trkpt lat="45.71159" lon="4.64418">
        <ele>540.8</ele>
        <time>2025-08-06T09:19:30Z</time>
      </trkpt>
      <trkpt lat="45.71154" lon="4.6442">
        <ele>540.4</ele>
        <time>2025-08-06T09:19:31Z</time>
      </trkpt>
      <trkpt lat="45.7115" lon="4.64421">
        <ele>540.2</ele>
        <time>2025-08-06T09:19:32Z</time>
      </trkpt>
      <trkpt lat="45.71145" lon="4.64423">
        <ele>539.8</ele>
        <time>2025-08-06T09:19:33Z</time>
      </trkpt>
      <trkpt lat="45.7114" lon="4.64425">
        <ele>539.4</ele>
        <time>2025-08-06T09:19:34Z</time>
      </trkpt>
      <trkpt lat="45.71136" lon="4.64427">
        <ele>539.2</ele>
        <time>2025-08-06T09:19:35Z</time>
      </trkpt>
      <trkpt lat="45.71131" lon="4.64429">
        <ele>538.8</ele>
        <time>2025-08-06T09:19:36Z</time>
      </trkpt>
      <trkpt lat="45.71127" lon="4.64432">
        <ele>538.4</ele>
        <time>2025-08-06T09:19:37Z</time>
      </trkpt>
      <trkpt lat="45.71122" lon="4.64434">
        <ele>538.2</ele>
        <time>2025-08-06T09:19:38Z</time>
      </trkpt>
      <trkpt lat="45.71117" lon="4.64437">
        <ele>537.8</ele>
        <time>2025-08-06T09:19:39Z</time>
      </trkpt>
      <trkpt lat="45.71112" lon="4.6444">
        <ele>537.6</ele>
        <time>2025-08-06T09:19:40Z</time>
      </trkpt>
      <trkpt lat="45.71107" lon="4.64443">
        <ele>537.2</ele>
        <time>2025-08-06T09:19:41Z</time>
      </trkpt>
      <trkpt lat="45.71102" lon="4.64447">
        <ele>536.8</ele>
        <time>2025-08-06T09:19:42Z</time>
      </trkpt>
      <trkpt lat="45.71097" lon="4.64451">
        <ele>536.6</ele>
        <time>2025-08-06T09:19:43Z</time>
      </trkpt>
      <trkpt lat="45.71093" lon="4.64456">
        <ele>536.4</ele>
        <time>2025-08-06T09:19:44Z</time>
      </trkpt>
      <trkpt lat="45.71089" lon="4.6446">
        <ele>536.2</ele>
        <time>2025-08-06T09:19:45Z</time>
      </trkpt>
      <trkpt lat="45.71084" lon="4.64464">
        <ele>536</ele>
        <time>2025-08-06T09:19:46Z</time>
      </trkpt>
      <trkpt lat="45.71079" lon="4.64469">
        <ele>536</ele>
        <time>2025-08-06T09:19:47Z</time>
      </trkpt>
      <trkpt lat="45.71074" lon="4.64474">
        <ele>535.6</ele>
        <time>2025-08-06T09:19:48Z</time>
      </trkpt>
      <trkpt lat="45.71068" lon="4.64479">
        <ele>535.2</ele>
        <time>2025-08-06T09:19:49Z</time>
      </trkpt>
      <trkpt lat="45.71063" lon="4.64484">
        <ele>535</ele>
        <time>2025-08-06T09:19:50Z</time>
      </trkpt>
      <trkpt lat="45.71059" lon="4.6449">
        <ele>534.6</ele>
        <time>2025-08-06T09:19:51Z</time>
      </trkpt>
      <trkpt lat="45.71056" lon="4.64495">
        <ele>534.6</ele>
        <time>2025-08-06T09:19:52Z</time>
      </trkpt>
      <trkpt lat="45.71055" lon="4.645">
        <ele>534.6</ele>
        <time>2025-08-06T09:19:53Z</time>
      </trkpt>
      <trkpt lat="45.71055" lon="4.64501">
        <ele>535</ele>
        <time>2025-08-06T09:19:54Z</time>
      </trkpt>
      <trkpt lat="45.71055" lon="4.645">
        <ele>535.2</ele>
        <time>2025-08-06T09:19:55Z</time>
      </trkpt>
      <trkpt lat="45.71056" lon="4.645">
        <ele>535.6</ele>
        <time>2025-08-06T09:19:56Z</time>
      </trkpt>
      <trkpt lat="45.71056" lon="4.645">
        <ele>535.8</ele>
        <time>2025-08-06T09:19:57Z</time>
      </trkpt>
      <trkpt lat="45.71056" lon="4.645">
        <ele>535.8</ele>
        <time>2025-08-06T09:19:58Z</time>
      </trkpt>
      <trkpt lat="45.71056" lon="4.645">
        <ele>536</ele>
        <time>2025-08-06T09:19:59Z</time>
      </trkpt>
      <trkpt lat="45.71059" lon="4.64499">
        <ele>536.8</ele>
        <time>2025-08-06T09:20:54Z</time>
      </trkpt>
      <trkpt lat="45.7106" lon="4.64499">
        <ele>536.8</ele>
        <time>2025-08-06T09:20:55Z</time>
      </trkpt>
      <trkpt lat="45.71061" lon="4.64499">
        <ele>536.4</ele>
        <time>2025-08-06T09:20:56Z</time>
      </trkpt>
      <trkpt lat="45.71063" lon="4.64499">
        <ele>536.2</ele>
        <time>2025-08-06T09:20:57Z</time>
      </trkpt>
      <trkpt lat="45.71066" lon="4.64498">
        <ele>535.6</ele>
        <time>2025-08-06T09:20:58Z</time>
      </trkpt>
      <trkpt lat="45.7107" lon="4.64498">
        <ele>535.2</ele>
        <time>2025-08-06T09:20:59Z</time>
      </trkpt>
      <trkpt lat="45.71075" lon="4.64499">
        <ele>534.8</ele>
        <time>2025-08-06T09:21:00Z</time>
      </trkpt>
      <trkpt lat="45.7108" lon="4.645">
        <ele>534.4</ele>
        <time>2025-08-06T09:21:01Z</time>
      </trkpt>
      <trkpt lat="45.71085" lon="4.64501">
        <ele>534</ele>
        <time>2025-08-06T09:21:02Z</time>
      </trkpt>
      <trkpt lat="45.7109" lon="4.64501">
        <ele>533.8</ele>
        <time>2025-08-06T09:21:03Z</time>
      </trkpt>
      <trkpt lat="45.71095" lon="4.64502">
        <ele>533.4</ele>
        <time>2025-08-06T09:21:04Z</time>
      </trkpt>
      <trkpt lat="45.711" lon="4.64503">
        <ele>532.8</ele>
        <time>2025-08-06T09:21:05Z</time>
      </trkpt>
      <trkpt lat="45.71104" lon="4.64504">
        <ele>532.2</ele>
        <time>2025-08-06T09:21:06Z</time>
      </trkpt>
      <trkpt lat="45.7111" lon="4.64504">
        <ele>531.4</ele>
        <time>2025-08-06T09:21:07Z</time>
      </trkpt>
      <trkpt lat="45.71116" lon="4.64504">
        <ele>530.6</ele>
        <time>2025-08-06T09:21:08Z</time>
      </trkpt>
      <trkpt lat="45.71122" lon="4.64504">
        <ele>529.6</ele>
        <time>2025-08-06T09:21:09Z</time>
      </trkpt>
      <trkpt lat="45.71128" lon="4.64504">
        <ele>528.6</ele>
        <time>2025-08-06T09:21:10Z</time>
      </trkpt>
      <trkpt lat="45.71134" lon="4.64503">
        <ele>527.6</ele>
        <time>2025-08-06T09:21:11Z</time>
      </trkpt>
      <trkpt lat="45.7114" lon="4.64504">
        <ele>526.4</ele>
        <time>2025-08-06T09:21:12Z</time>
      </trkpt>
      <trkpt lat="45.71148" lon="4.64504">
        <ele>525.2</ele>
        <time>2025-08-06T09:21:13Z</time>
      </trkpt>
      <trkpt lat="45.71154" lon="4.64506">
        <ele>524</ele>
        <time>2025-08-06T09:21:14Z</time>
      </trkpt>
      <trkpt lat="45.71159" lon="4.64509">
        <ele>523</ele>
        <time>2025-08-06T09:21:15Z</time>
      </trkpt>
      <trkpt lat="45.71165" lon="4.6451">
        <ele>522.2</ele>
        <time>2025-08-06T09:21:16Z</time>
      </trkpt>
      <trkpt lat="45.71171" lon="4.64512">
        <ele>521.4</ele>
        <time>2025-08-06T09:21:17Z</time>
      </trkpt>
      <trkpt lat="45.71176" lon="4.64512">
        <ele>521</ele>
        <time>2025-08-06T09:21:18Z</time>
      </trkpt>
      <trkpt lat="45.7118" lon="4.64513">
        <ele>520.6</ele>
        <time>2025-08-06T09:21:19Z</time>
      </trkpt>
      <trkpt lat="45.71184" lon="4.64515">
        <ele>520</ele>
        <time>2025-08-06T09:21:20Z</time>
      </trkpt>
      <trkpt lat="45.71189" lon="4.64517">
        <ele>519.6</ele>
        <time>2025-08-06T09:21:21Z</time>
      </trkpt>
      <trkpt lat="45.71195" lon="4.64518">
        <ele>519.2</ele>
        <time>2025-08-06T09:21:22Z</time>
      </trkpt>
      <trkpt lat="45.71201" lon="4.64518">
        <ele>518.6</ele>
        <time>2025-08-06T09:21:23Z</time>
      </trkpt>
      <trkpt lat="45.71207" lon="4.6452">
        <ele>518</ele>
        <time>2025-08-06T09:21:24Z</time>
      </trkpt>
      <trkpt lat="45.71213" lon="4.64521">
        <ele>517.4</ele>
        <time>2025-08-06T09:21:25Z</time>
      </trkpt>
      <trkpt lat="45.71219" lon="4.64523">
        <ele>517.2</ele>
        <time>2025-08-06T09:21:26Z</time>
      </trkpt>
      <trkpt lat="45.71225" lon="4.64525">
        <ele>517</ele>
        <time>2025-08-06T09:21:27Z</time>
      </trkpt>
      <trkpt lat="45.7123" lon="4.64528">
        <ele>516.8</ele>
        <time>2025-08-06T09:21:28Z</time>
      </trkpt>
      <trkpt lat="45.71235" lon="4.64531">
        <ele>516.6</ele>
        <time>2025-08-06T09:21:29Z</time>
      </trkpt>
      <trkpt lat="45.7124" lon="4.64535">
        <ele>516.6</ele>
        <time>2025-08-06T09:21:30Z</time>
      </trkpt>
      <trkpt lat="45.71244" lon="4.64539">
        <ele>516.6</ele>
        <time>2025-08-06T09:21:31Z</time>
      </trkpt>
      <trkpt lat="45.71246" lon="4.64543">
        <ele>516.8</ele>
        <time>2025-08-06T09:21:32Z</time>
      </trkpt>
      <trkpt lat="45.71249" lon="4.64546">
        <ele>517</ele>
        <time>2025-08-06T09:21:33Z</time>
      </trkpt>
      <trkpt lat="45.71251" lon="4.64549">
        <ele>517.2</ele>
        <time>2025-08-06T09:21:34Z</time>
      </trkpt>
      <trkpt lat="45.71254" lon="4.64552">
        <ele>517.4</ele>
        <time>2025-08-06T09:21:35Z</time>
      </trkpt>
      <trkpt lat="45.71258" lon="4.64556">
        <ele>517.6</ele>
        <time>2025-08-06T09:21:36Z</time>
      </trkpt>
      <trkpt lat="45.71261" lon="4.64559">
        <ele>517.6</ele>
        <time>2025-08-06T09:21:37Z</time>
      </trkpt>
      <trkpt lat="45.71265" lon="4.64563">
        <ele>517.4</ele>
        <time>2025-08-06T09:21:38Z</time>
      </trkpt>
      <trkpt lat="45.71269" lon="4.64567">
        <ele>517.2</ele>
        <time>2025-08-06T09:21:39Z</time>
      </trkpt>
      <trkpt lat="45.71273" lon="4.64572">
        <ele>516.8</ele>
        <time>2025-08-06T09:21:40Z</time>
      </trkpt>
      <trkpt lat="45.71278" lon="4.64577">
        <ele>516.4</ele>
        <time>2025-08-06T09:21:41Z</time>
      </trkpt>
      <trkpt lat="45.71282" lon="4.64582">
        <ele>516.2</ele>
        <time>2025-08-06T09:21:42Z</time>
      </trkpt>
      <trkpt lat="45.71287" lon="4.64587">
        <ele>515.8</ele>
        <time>2025-08-06T09:21:43Z</time>
      </trkpt>
      <trkpt lat="45.7129" lon="4.64591">
        <ele>515.6</ele>
        <time>2025-08-06T09:21:44Z</time>
      </trkpt>
      <trkpt lat="45.71293" lon="4.64595">
        <ele>515.4</ele>
        <time>2025-08-06T09:21:45Z</time>
      </trkpt>
      <trkpt lat="45.71296" lon="4.64597">
        <ele>515.4</ele>
        <time>2025-08-06T09:21:46Z</time>
      </trkpt>
      <trkpt lat="45.713" lon="4.64601">
        <ele>515.2</ele>
        <time>2025-08-06T09:21:47Z</time>
      </trkpt>
      <trkpt lat="45.71304" lon="4.64605">
        <ele>515</ele>
        <time>2025-08-06T09:21:48Z</time>
      </trkpt>
      <trkpt lat="45.71308" lon="4.64609">
        <ele>514.6</ele>
        <time>2025-08-06T09:21:49Z</time>
      </trkpt>
      <trkpt lat="45.71312" lon="4.64613">
        <ele>514</ele>
        <time>2025-08-06T09:21:50Z</time>
      </trkpt>
      <trkpt lat="45.71316" lon="4.64616">
        <ele>513.4</ele>
        <time>2025-08-06T09:21:51Z</time>
      </trkpt>
      <trkpt lat="45.71319" lon="4.64619">
        <ele>512.8</ele>
        <time>2025-08-06T09:21:52Z</time>
      </trkpt>
      <trkpt lat="45.71322" lon="4.64621">
        <ele>512.4</ele>
        <time>2025-08-06T09:21:53Z</time>
      </trkpt>
      <trkpt lat="45.71325" lon="4.64624">
        <ele>512</ele>
        <time>2025-08-06T09:21:54Z</time>
      </trkpt>
      <trkpt lat="45.71329" lon="4.64627">
        <ele>511.2</ele>
        <time>2025-08-06T09:21:55Z</time>
      </trkpt>
      <trkpt lat="45.71333" lon="4.64629">
        <ele>510.6</ele>
        <time>2025-08-06T09:21:56Z</time>
      </trkpt>
      <trkpt lat="45.71337" lon="4.64632">
        <ele>509.8</ele>
        <time>2025-08-06T09:21:57Z</time>
      </trkpt>
      <trkpt lat="45.7134" lon="4.64634">
        <ele>508.8</ele>
        <time>2025-08-06T09:21:58Z</time>
      </trkpt>
      <trkpt lat="45.71343" lon="4.64636">
        <ele>508</ele>
        <time>2025-08-06T09:21:59Z</time>
      </trkpt>
      <trkpt lat="45.71347" lon="4.64637">
        <ele>507.2</ele>
        <time>2025-08-06T09:22:00Z</time>
      </trkpt>
      <trkpt lat="45.7135" lon="4.64638">
        <ele>506.4</ele>
        <time>2025-08-06T09:22:01Z</time>
      </trkpt>
      <trkpt lat="45.71353" lon="4.6464">
        <ele>506</ele>
        <time>2025-08-06T09:22:02Z</time>
      </trkpt>
      <trkpt lat="45.71357" lon="4.6464">
        <ele>505.4</ele>
        <time>2025-08-06T09:22:03Z</time>
      </trkpt>
      <trkpt lat="45.71359" lon="4.64642">
        <ele>505</ele>
        <time>2025-08-06T09:22:04Z</time>
      </trkpt>
      <trkpt lat="45.71362" lon="4.64643">
        <ele>504.4</ele>
        <time>2025-08-06T09:22:05Z</time>
      </trkpt>
      <trkpt lat="45.71365" lon="4.64644">
        <ele>504</ele>
        <time>2025-08-06T09:22:06Z</time>
      </trkpt>
      <trkpt lat="45.71367" lon="4.64646">
        <ele>503.6</ele>
        <time>2025-08-06T09:22:07Z</time>
      </trkpt>
      <trkpt lat="45.71369" lon="4.64647">
        <ele>503</ele>
        <time>2025-08-06T09:22:08Z</time>
      </trkpt>
      <trkpt lat="45.71373" lon="4.64647">
        <ele>502.2</ele>
        <time>2025-08-06T09:22:09Z</time>
      </trkpt>
      <trkpt lat="45.71376" lon="4.64648">
        <ele>501.6</ele>
        <time>2025-08-06T09:22:10Z</time>
      </trkpt>
      <trkpt lat="45.71379" lon="4.64649">
        <ele>500.8</ele>
        <time>2025-08-06T09:22:11Z</time>
      </trkpt>
      <trkpt lat="45.71382" lon="4.64649">
        <ele>500.2</ele>
        <time>2025-08-06T09:22:12Z</time>
      </trkpt>
      <trkpt lat="45.71385" lon="4.64649">
        <ele>499.4</ele>
        <time>2025-08-06T09:22:13Z</time>
      </trkpt>
      <trkpt lat="45.71388" lon="4.64649">
        <ele>498.8</ele>
        <time>2025-08-06T09:22:14Z</time>
      </trkpt>
      <trkpt lat="45.71393" lon="4.64649">
        <ele>498</ele>
        <time>2025-08-06T09:22:15Z</time>
      </trkpt>
      <trkpt lat="45.71397" lon="4.64648">
        <ele>497.4</ele>
        <time>2025-08-06T09:22:16Z</time>
      </trkpt>
      <trkpt lat="45.714" lon="4.64649">
        <ele>496.4</ele>
        <time>2025-08-06T09:22:17Z</time>
      </trkpt>
      <trkpt lat="45.71403" lon="4.64649">
        <ele>495.6</ele>
        <time>2025-08-06T09:22:18Z</time>
      </trkpt>
      <trkpt lat="45.71407" lon="4.64649">
        <ele>494.8</ele>
        <time>2025-08-06T09:22:19Z</time>
      </trkpt>
      <trkpt lat="45.7141" lon="4.64649">
        <ele>494.2</ele>
        <time>2025-08-06T09:22:20Z</time>
      </trkpt>
      <trkpt lat="45.71413" lon="4.64649">
        <ele>493.6</ele>
        <time>2025-08-06T09:22:21Z</time>
      </trkpt>
      <trkpt lat="45.71417" lon="4.64651">
        <ele>493</ele>
        <time>2025-08-06T09:22:22Z</time>
      </trkpt>
      <trkpt lat="45.7142" lon="4.64653">
        <ele>492.4</ele>
        <time>2025-08-06T09:22:23Z</time>
      </trkpt>
      <trkpt lat="45.71424" lon="4.64654">
        <ele>491.8</ele>
        <time>2025-08-06T09:22:24Z</time>
      </trkpt>
      <trkpt lat="45.7143" lon="4.64657">
        <ele>491</ele>
        <time>2025-08-06T09:22:25Z</time>
      </trkpt>
      <trkpt lat="45.71436" lon="4.6466">
        <ele>490</ele>
        <time>2025-08-06T09:22:26Z</time>
      </trkpt>
      <trkpt lat="45.7144" lon="4.64665">
        <ele>489.4</ele>
        <time>2025-08-06T09:22:27Z</time>
      </trkpt>
      <trkpt lat="45.71445" lon="4.64669">
        <ele>489</ele>
        <time>2025-08-06T09:22:28Z</time>
      </trkpt>
      <trkpt lat="45.71449" lon="4.64672">
        <ele>488.6</ele>
        <time>2025-08-06T09:22:29Z</time>
      </trkpt>
      <trkpt lat="45.71454" lon="4.64677">
        <ele>488.2</ele>
        <time>2025-08-06T09:22:30Z</time>
      </trkpt>
      <trkpt lat="45.71458" lon="4.64683">
        <ele>488</ele>
        <time>2025-08-06T09:22:31Z</time>
      </trkpt>
      <trkpt lat="45.71461" lon="4.64691">
        <ele>487.4</ele>
        <time>2025-08-06T09:22:32Z</time>
      </trkpt>
      <trkpt lat="45.71465" lon="4.64697">
        <ele>486.8</ele>
        <time>2025-08-06T09:22:33Z</time>
      </trkpt>
      <trkpt lat="45.71468" lon="4.64704">
        <ele>486</ele>
        <time>2025-08-06T09:22:34Z</time>
      </trkpt>
      <trkpt lat="45.71471" lon="4.64712">
        <ele>485.2</ele>
        <time>2025-08-06T09:22:35Z</time>
      </trkpt>
      <trkpt lat="45.71473" lon="4.64718">
        <ele>484.2</ele>
        <time>2025-08-06T09:22:36Z</time>
      </trkpt>
      <trkpt lat="45.71476" lon="4.64725">
        <ele>483.2</ele>
        <time>2025-08-06T09:22:37Z</time>
      </trkpt>
      <trkpt lat="45.71478" lon="4.64732">
        <ele>482.2</ele>
        <time>2025-08-06T09:22:38Z</time>
      </trkpt>
      <trkpt lat="45.7148" lon="4.6474">
        <ele>481.4</ele>
        <time>2025-08-06T09:22:39Z</time>
      </trkpt>
      <trkpt lat="45.71483" lon="4.64748">
        <ele>480.6</ele>
        <time>2025-08-06T09:22:40Z</time>
      </trkpt>
      <trkpt lat="45.71486" lon="4.64756">
        <ele>480</ele>
        <time>2025-08-06T09:22:41Z</time>
      </trkpt>
      <trkpt lat="45.71489" lon="4.64764">
        <ele>479.2</ele>
        <time>2025-08-06T09:22:42Z</time>
      </trkpt>
      <trkpt lat="45.71492" lon="4.64772">
        <ele>478.6</ele>
        <time>2025-08-06T09:22:43Z</time>
      </trkpt>
      <trkpt lat="45.71495" lon="4.6478">
        <ele>478.2</ele>
        <time>2025-08-06T09:22:44Z</time>
      </trkpt>
      <trkpt lat="45.71499" lon="4.64788">
        <ele>477.8</ele>
        <time>2025-08-06T09:22:45Z</time>
      </trkpt>
      <trkpt lat="45.71503" lon="4.64796">
        <ele>477.6</ele>
        <time>2025-08-06T09:22:46Z</time>
      </trkpt>
      <trkpt lat="45.71506" lon="4.64804">
        <ele>477.4</ele>
        <time>2025-08-06T09:22:47Z</time>
      </trkpt>
      <trkpt lat="45.71509" lon="4.64812">
        <ele>477.2</ele>
        <time>2025-08-06T09:22:48Z</time>
      </trkpt>
      <trkpt lat="45.71512" lon="4.64819">
        <ele>477</ele>
        <time>2025-08-06T09:22:49Z</time>
      </trkpt>
      <trkpt lat="45.71514" lon="4.64826">
        <ele>476.8</ele>
        <time>2025-08-06T09:22:50Z</time>
      </trkpt>
      <trkpt lat="45.71517" lon="4.64833">
        <ele>476.8</ele>
        <time>2025-08-06T09:22:51Z</time>
      </trkpt>
      <trkpt lat="45.7152" lon="4.6484">
        <ele>477</ele>
        <time>2025-08-06T09:22:52Z</time>
      </trkpt>
      <trkpt lat="45.71523" lon="4.64846">
        <ele>477.2</ele>
        <time>2025-08-06T09:22:53Z</time>
      </trkpt>
      <trkpt lat="45.71525" lon="4.64852">
        <ele>477.4</ele>
        <time>2025-08-06T09:22:54Z</time>
      </trkpt>
      <trkpt lat="45.71528" lon="4.64857">
        <ele>477.8</ele>
        <time>2025-08-06T09:22:55Z</time>
      </trkpt>
      <trkpt lat="45.7153" lon="4.64864">
        <ele>478</ele>
        <time>2025-08-06T09:22:56Z</time>
      </trkpt>
      <trkpt lat="45.71532" lon="4.6487">
        <ele>478.4</ele>
        <time>2025-08-06T09:22:57Z</time>
      </trkpt>
      <trkpt lat="45.71535" lon="4.64876">
        <ele>478.6</ele>
        <time>2025-08-06T09:22:58Z</time>
      </trkpt>
      <trkpt lat="45.71536" lon="4.64883">
        <ele>478.8</ele>
        <time>2025-08-06T09:22:59Z</time>
      </trkpt>
      <trkpt lat="45.71537" lon="4.6489">
        <ele>479</ele>
        <time>2025-08-06T09:23:00Z</time>
      </trkpt>
      <trkpt lat="45.71538" lon="4.64897">
        <ele>479.2</ele>
        <time>2025-08-06T09:23:01Z</time>
      </trkpt>
      <trkpt lat="45.71539" lon="4.64902">
        <ele>479.2</ele>
        <time>2025-08-06T09:23:02Z</time>
      </trkpt>
      <trkpt lat="45.7154" lon="4.64911">
        <ele>479.4</ele>
        <time>2025-08-06T09:23:03Z</time>
      </trkpt>
      <trkpt lat="45.7154" lon="4.64919">
        <ele>479.4</ele>
        <time>2025-08-06T09:23:04Z</time>
      </trkpt>
      <trkpt lat="45.71541" lon="4.64926">
        <ele>479.4</ele>
        <time>2025-08-06T09:23:05Z</time>
      </trkpt>
      <trkpt lat="45.71542" lon="4.64932">
        <ele>479.4</ele>
        <time>2025-08-06T09:23:06Z</time>
      </trkpt>
      <trkpt lat="45.71543" lon="4.64942">
        <ele>479.4</ele>
        <time>2025-08-06T09:23:07Z</time>
      </trkpt>
      <trkpt lat="45.71543" lon="4.64949">
        <ele>479.2</ele>
        <time>2025-08-06T09:23:08Z</time>
      </trkpt>
      <trkpt lat="45.71543" lon="4.64958">
        <ele>479.2</ele>
        <time>2025-08-06T09:23:09Z</time>
      </trkpt>
      <trkpt lat="45.71541" lon="4.64964">
        <ele>479</ele>
        <time>2025-08-06T09:23:10Z</time>
      </trkpt>
      <trkpt lat="45.71539" lon="4.64972">
        <ele>478.8</ele>
        <time>2025-08-06T09:23:11Z</time>
      </trkpt>
      <trkpt lat="45.71538" lon="4.64978">
        <ele>478.8</ele>
        <time>2025-08-06T09:23:12Z</time>
      </trkpt>
      <trkpt lat="45.71537" lon="4.64984">
        <ele>478.8</ele>
        <time>2025-08-06T09:23:13Z</time>
      </trkpt>
      <trkpt lat="45.71535" lon="4.64992">
        <ele>478.8</ele>
        <time>2025-08-06T09:23:14Z</time>
      </trkpt>
      <trkpt lat="45.71534" lon="4.64997">
        <ele>478.8</ele>
        <time>2025-08-06T09:23:15Z</time>
      </trkpt>
      <trkpt lat="45.71532" lon="4.65004">
        <ele>478.6</ele>
        <time>2025-08-06T09:23:16Z</time>
      </trkpt>
      <trkpt lat="45.71529" lon="4.65012">
        <ele>478.4</ele>
        <time>2025-08-06T09:23:17Z</time>
      </trkpt>
      <trkpt lat="45.71526" lon="4.65019">
        <ele>478.2</ele>
        <time>2025-08-06T09:23:18Z</time>
      </trkpt>
      <trkpt lat="45.71524" lon="4.65024">
        <ele>478.2</ele>
        <time>2025-08-06T09:23:19Z</time>
      </trkpt>
      <trkpt lat="45.71522" lon="4.65032">
        <ele>478</ele>
        <time>2025-08-06T09:23:20Z</time>
      </trkpt>
      <trkpt lat="45.71519" lon="4.65037">
        <ele>477.8</ele>
        <time>2025-08-06T09:23:21Z</time>
      </trkpt>
      <trkpt lat="45.71516" lon="4.65043">
        <ele>477.8</ele>
        <time>2025-08-06T09:23:22Z</time>
      </trkpt>
      <trkpt lat="45.71512" lon="4.65049">
        <ele>477.6</ele>
        <time>2025-08-06T09:23:23Z</time>
      </trkpt>
      <trkpt lat="45.7151" lon="4.65054">
        <ele>477.6</ele>
        <time>2025-08-06T09:23:24Z</time>
      </trkpt>
      <trkpt lat="45.71507" lon="4.6506">
        <ele>477.4</ele>
        <time>2025-08-06T09:23:25Z</time>
      </trkpt>
      <trkpt lat="45.71502" lon="4.65067">
        <ele>477.2</ele>
        <time>2025-08-06T09:23:26Z</time>
      </trkpt>
      <trkpt lat="45.71499" lon="4.65072">
        <ele>477</ele>
        <time>2025-08-06T09:23:27Z</time>
      </trkpt>
      <trkpt lat="45.71494" lon="4.65076">
        <ele>477</ele>
        <time>2025-08-06T09:23:28Z</time>
      </trkpt>
      <trkpt lat="45.71491" lon="4.65081">
        <ele>477</ele>
        <time>2025-08-06T09:23:29Z</time>
      </trkpt>
      <trkpt lat="45.71488" lon="4.65085">
        <ele>476.8</ele>
        <time>2025-08-06T09:23:30Z</time>
      </trkpt>
      <trkpt lat="45.71485" lon="4.65089">
        <ele>476.6</ele>
        <time>2025-08-06T09:23:31Z</time>
      </trkpt>
      <trkpt lat="45.71481" lon="4.65093">
        <ele>476</ele>
        <time>2025-08-06T09:23:32Z</time>
      </trkpt>
      <trkpt lat="45.71478" lon="4.65098">
        <ele>475.4</ele>
        <time>2025-08-06T09:23:33Z</time>
      </trkpt>
      <trkpt lat="45.71473" lon="4.65104">
        <ele>474.2</ele>
        <time>2025-08-06T09:23:34Z</time>
      </trkpt>
      <trkpt lat="45.71468" lon="4.6511">
        <ele>473</ele>
        <time>2025-08-06T09:23:35Z</time>
      </trkpt>
      <trkpt lat="45.71462" lon="4.65114">
        <ele>471.8</ele>
        <time>2025-08-06T09:23:36Z</time>
      </trkpt>
      <trkpt lat="45.71456" lon="4.65117">
        <ele>471</ele>
        <time>2025-08-06T09:23:37Z</time>
      </trkpt>
      <trkpt lat="45.71449" lon="4.65119">
        <ele>470</ele>
        <time>2025-08-06T09:23:38Z</time>
      </trkpt>
      <trkpt lat="45.71442" lon="4.65124">
        <ele>469.2</ele>
        <time>2025-08-06T09:23:39Z</time>
      </trkpt>
      <trkpt lat="45.71435" lon="4.65129">
        <ele>468.8</ele>
        <time>2025-08-06T09:23:40Z</time>
      </trkpt>
      <trkpt lat="45.7143" lon="4.65133">
        <ele>468.4</ele>
        <time>2025-08-06T09:23:41Z</time>
      </trkpt>
      <trkpt lat="45.71425" lon="4.65138">
        <ele>468.2</ele>
        <time>2025-08-06T09:23:42Z</time>
      </trkpt>
      <trkpt lat="45.71421" lon="4.65145">
        <ele>468.2</ele>
        <time>2025-08-06T09:23:43Z</time>
      </trkpt>
      <trkpt lat="45.71417" lon="4.65151">
        <ele>468</ele>
        <time>2025-08-06T09:23:44Z</time>
      </trkpt>
      <trkpt lat="45.71413" lon="4.65156">
        <ele>468</ele>
        <time>2025-08-06T09:23:45Z</time>
      </trkpt>
      <trkpt lat="45.71411" lon="4.65163">
        <ele>468</ele>
        <time>2025-08-06T09:23:46Z</time>
      </trkpt>
      <trkpt lat="45.71409" lon="4.65171">
        <ele>468.2</ele>
        <time>2025-08-06T09:23:47Z</time>
      </trkpt>
      <trkpt lat="45.71408" lon="4.65178">
        <ele>468.2</ele>
        <time>2025-08-06T09:23:48Z</time>
      </trkpt>
      <trkpt lat="45.71407" lon="4.65187">
        <ele>468.4</ele>
        <time>2025-08-06T09:23:49Z</time>
      </trkpt>
      <trkpt lat="45.71406" lon="4.65195">
        <ele>468.4</ele>
        <time>2025-08-06T09:23:50Z</time>
      </trkpt>
      <trkpt lat="45.71405" lon="4.65204">
        <ele>468.6</ele>
        <time>2025-08-06T09:23:51Z</time>
      </trkpt>
      <trkpt lat="45.71404" lon="4.65212">
        <ele>468.6</ele>
        <time>2025-08-06T09:23:52Z</time>
      </trkpt>
      <trkpt lat="45.71404" lon="4.65219">
        <ele>468.8</ele>
        <time>2025-08-06T09:23:53Z</time>
      </trkpt>
      <trkpt lat="45.71404" lon="4.65226">
        <ele>469</ele>
        <time>2025-08-06T09:23:54Z</time>
      </trkpt>
      <trkpt lat="45.71403" lon="4.65232">
        <ele>469.2</ele>
        <time>2025-08-06T09:23:55Z</time>
      </trkpt>
      <trkpt lat="45.71402" lon="4.65239">
        <ele>469.4</ele>
        <time>2025-08-06T09:23:56Z</time>
      </trkpt>
      <trkpt lat="45.714" lon="4.65246">
        <ele>469.6</ele>
        <time>2025-08-06T09:23:57Z</time>
      </trkpt>
      <trkpt lat="45.71398" lon="4.65252">
        <ele>469.8</ele>
        <time>2025-08-06T09:23:58Z</time>
      </trkpt>
      <trkpt lat="45.71396" lon="4.65258">
        <ele>469.6</ele>
        <time>2025-08-06T09:23:59Z</time>
      </trkpt>
      <trkpt lat="45.71394" lon="4.65268">
        <ele>469.2</ele>
        <time>2025-08-06T09:24:00Z</time>
      </trkpt>
      <trkpt lat="45.71392" lon="4.65278">
        <ele>468.8</ele>
        <time>2025-08-06T09:24:01Z</time>
      </trkpt>
      <trkpt lat="45.71388" lon="4.65288">
        <ele>468</ele>
        <time>2025-08-06T09:24:02Z</time>
      </trkpt>
      <trkpt lat="45.71385" lon="4.65297">
        <ele>467</ele>
        <time>2025-08-06T09:24:03Z</time>
      </trkpt>
      <trkpt lat="45.7138" lon="4.65306">
        <ele>466.2</ele>
        <time>2025-08-06T09:24:04Z</time>
      </trkpt>
      <trkpt lat="45.71375" lon="4.65314">
        <ele>465.6</ele>
        <time>2025-08-06T09:24:05Z</time>
      </trkpt>
      <trkpt lat="45.71369" lon="4.65322">
        <ele>465.2</ele>
        <time>2025-08-06T09:24:06Z</time>
      </trkpt>
      <trkpt lat="45.71365" lon="4.65329">
        <ele>465</ele>
        <time>2025-08-06T09:24:07Z</time>
      </trkpt>
      <trkpt lat="45.7136" lon="4.65338">
        <ele>464.8</ele>
        <time>2025-08-06T09:24:08Z</time>
      </trkpt>
      <trkpt lat="45.71359" lon="4.65344">
        <ele>464.8</ele>
        <time>2025-08-06T09:24:09Z</time>
      </trkpt>
      <trkpt lat="45.71361" lon="4.65352">
        <ele>464.8</ele>
        <time>2025-08-06T09:24:10Z</time>
      </trkpt>
      <trkpt lat="45.71365" lon="4.6536">
        <ele>464.8</ele>
        <time>2025-08-06T09:24:11Z</time>
      </trkpt>
      <trkpt lat="45.71368" lon="4.65365">
        <ele>464.8</ele>
        <time>2025-08-06T09:24:12Z</time>
      </trkpt>
      <trkpt lat="45.71372" lon="4.65372">
        <ele>464.8</ele>
        <time>2025-08-06T09:24:13Z</time>
      </trkpt>
      <trkpt lat="45.71378" lon="4.65378">
        <ele>464.6</ele>
        <time>2025-08-06T09:24:14Z</time>
      </trkpt>
      <trkpt lat="45.71383" lon="4.65383">
        <ele>464.4</ele>
        <time>2025-08-06T09:24:15Z</time>
      </trkpt>
      <trkpt lat="45.71388" lon="4.65389">
        <ele>464.2</ele>
        <time>2025-08-06T09:24:16Z</time>
      </trkpt>
      <trkpt lat="45.71394" lon="4.65394">
        <ele>464</ele>
        <time>2025-08-06T09:24:17Z</time>
      </trkpt>
      <trkpt lat="45.71399" lon="4.654">
        <ele>463.8</ele>
        <time>2025-08-06T09:24:18Z</time>
      </trkpt>
      <trkpt lat="45.71404" lon="4.65405">
        <ele>463.4</ele>
        <time>2025-08-06T09:24:19Z</time>
      </trkpt>
      <trkpt lat="45.7141" lon="4.65411">
        <ele>463</ele>
        <time>2025-08-06T09:24:20Z</time>
      </trkpt>
      <trkpt lat="45.71415" lon="4.65416">
        <ele>462.4</ele>
        <time>2025-08-06T09:24:21Z</time>
      </trkpt>
      <trkpt lat="45.71421" lon="4.65423">
        <ele>461.8</ele>
        <time>2025-08-06T09:24:22Z</time>
      </trkpt>
      <trkpt lat="45.71426" lon="4.6543">
        <ele>461</ele>
        <time>2025-08-06T09:24:23Z</time>
      </trkpt>
      <trkpt lat="45.71431" lon="4.65438">
        <ele>460</ele>
        <time>2025-08-06T09:24:24Z</time>
      </trkpt>
      <trkpt lat="45.71434" lon="4.65448">
        <ele>459.2</ele>
        <time>2025-08-06T09:24:25Z</time>
      </trkpt>
      <trkpt lat="45.71436" lon="4.6546">
        <ele>458.2</ele>
        <time>2025-08-06T09:24:26Z</time>
      </trkpt>
      <trkpt lat="45.71437" lon="4.65472">
        <ele>457.4</ele>
        <time>2025-08-06T09:24:27Z</time>
      </trkpt>
      <trkpt lat="45.71436" lon="4.65482">
        <ele>456.6</ele>
        <time>2025-08-06T09:24:28Z</time>
      </trkpt>
      <trkpt lat="45.71433" lon="4.65491">
        <ele>456</ele>
        <time>2025-08-06T09:24:29Z</time>
      </trkpt>
      <trkpt lat="45.71429" lon="4.65497">
        <ele>455.8</ele>
        <time>2025-08-06T09:24:30Z</time>
      </trkpt>
      <trkpt lat="45.71424" lon="4.655">
        <ele>455.4</ele>
        <time>2025-08-06T09:24:31Z</time>
      </trkpt>
      <trkpt lat="45.71418" lon="4.65504">
        <ele>455</ele>
        <time>2025-08-06T09:24:32Z</time>
      </trkpt>
      <trkpt lat="45.71412" lon="4.65509">
        <ele>454.6</ele>
        <time>2025-08-06T09:24:33Z</time>
      </trkpt>
      <trkpt lat="45.71406" lon="4.65514">
        <ele>454.2</ele>
        <time>2025-08-06T09:24:34Z</time>
      </trkpt>
      <trkpt lat="45.71403" lon="4.65522">
        <ele>453.6</ele>
        <time>2025-08-06T09:24:35Z</time>
      </trkpt>
      <trkpt lat="45.71403" lon="4.65531">
        <ele>452.8</ele>
        <time>2025-08-06T09:24:36Z</time>
      </trkpt>
      <trkpt lat="45.71405" lon="4.6554">
        <ele>451.8</ele>
        <time>2025-08-06T09:24:37Z</time>
      </trkpt>
      <trkpt lat="45.71409" lon="4.65549">
        <ele>450.8</ele>
        <time>2025-08-06T09:24:38Z</time>
      </trkpt>
      <trkpt lat="45.71415" lon="4.6556">
        <ele>449.4</ele>
        <time>2025-08-06T09:24:39Z</time>
      </trkpt>
      <trkpt lat="45.71421" lon="4.65565">
        <ele>448.2</ele>
        <time>2025-08-06T09:24:40Z</time>
      </trkpt>
      <trkpt lat="45.7143" lon="4.65574">
        <ele>447</ele>
        <time>2025-08-06T09:24:41Z</time>
      </trkpt>
      <trkpt lat="45.71436" lon="4.65582">
        <ele>446</ele>
        <time>2025-08-06T09:24:42Z</time>
      </trkpt>
      <trkpt lat="45.71441" lon="4.6559">
        <ele>445</ele>
        <time>2025-08-06T09:24:43Z</time>
      </trkpt>
      <trkpt lat="45.71445" lon="4.65602">
        <ele>444</ele>
        <time>2025-08-06T09:24:44Z</time>
      </trkpt>
      <trkpt lat="45.7145" lon="4.65615">
        <ele>443.2</ele>
        <time>2025-08-06T09:24:45Z</time>
      </trkpt>
      <trkpt lat="45.71453" lon="4.65624">
        <ele>442.8</ele>
        <time>2025-08-06T09:24:46Z</time>
      </trkpt>
      <trkpt lat="45.71459" lon="4.65636">
        <ele>442.4</ele>
        <time>2025-08-06T09:24:47Z</time>
      </trkpt>
      <trkpt lat="45.71464" lon="4.65647">
        <ele>442</ele>
        <time>2025-08-06T09:24:48Z</time>
      </trkpt>
      <trkpt lat="45.71468" lon="4.65654">
        <ele>442</ele>
        <time>2025-08-06T09:24:49Z</time>
      </trkpt>
      <trkpt lat="45.71475" lon="4.65661">
        <ele>442</ele>
        <time>2025-08-06T09:24:50Z</time>
      </trkpt>
      <trkpt lat="45.71483" lon="4.65669">
        <ele>442.2</ele>
        <time>2025-08-06T09:24:51Z</time>
      </trkpt>
      <trkpt lat="45.71489" lon="4.65675">
        <ele>442.2</ele>
        <time>2025-08-06T09:24:52Z</time>
      </trkpt>
      <trkpt lat="45.71495" lon="4.65681">
        <ele>442.2</ele>
        <time>2025-08-06T09:24:53Z</time>
      </trkpt>
      <trkpt lat="45.71501" lon="4.65688">
        <ele>442</ele>
        <time>2025-08-06T09:24:54Z</time>
      </trkpt>
      <trkpt lat="45.71506" lon="4.65695">
        <ele>442</ele>
        <time>2025-08-06T09:24:55Z</time>
      </trkpt>
      <trkpt lat="45.71511" lon="4.65702">
        <ele>442</ele>
        <time>2025-08-06T09:24:56Z</time>
      </trkpt>
      <trkpt lat="45.71515" lon="4.65709">
        <ele>442.2</ele>
        <time>2025-08-06T09:24:57Z</time>
      </trkpt>
      <trkpt lat="45.71518" lon="4.65715">
        <ele>442.6</ele>
        <time>2025-08-06T09:24:58Z</time>
      </trkpt>
      <trkpt lat="45.71521" lon="4.65721">
        <ele>443.4</ele>
        <time>2025-08-06T09:24:59Z</time>
      </trkpt>
      <trkpt lat="45.71524" lon="4.65726">
        <ele>444</ele>
        <time>2025-08-06T09:25:00Z</time>
      </trkpt>
      <trkpt lat="45.71526" lon="4.65731">
        <ele>444.8</ele>
        <time>2025-08-06T09:25:01Z</time>
      </trkpt>
      <trkpt lat="45.71528" lon="4.65735">
        <ele>445.6</ele>
        <time>2025-08-06T09:25:02Z</time>
      </trkpt>
      <trkpt lat="45.71531" lon="4.65738">
        <ele>446.2</ele>
        <time>2025-08-06T09:25:03Z</time>
      </trkpt>
      <trkpt lat="45.71533" lon="4.65742">
        <ele>447</ele>
        <time>2025-08-06T09:25:04Z</time>
      </trkpt>
      <trkpt lat="45.71535" lon="4.65745">
        <ele>447.4</ele>
        <time>2025-08-06T09:25:05Z</time>
      </trkpt>
      <trkpt lat="45.71536" lon="4.65748">
        <ele>447.8</ele>
        <time>2025-08-06T09:25:06Z</time>
      </trkpt>
      <trkpt lat="45.71537" lon="4.65751">
        <ele>448.2</ele>
        <time>2025-08-06T09:25:07Z</time>
      </trkpt>
      <trkpt lat="45.71538" lon="4.65754">
        <ele>448.4</ele>
        <time>2025-08-06T09:25:08Z</time>
      </trkpt>
      <trkpt lat="45.71538" lon="4.65757">
        <ele>448.6</ele>
        <time>2025-08-06T09:25:09Z</time>
      </trkpt>
      <trkpt lat="45.7154" lon="4.65761">
        <ele>448.8</ele>
        <time>2025-08-06T09:25:10Z</time>
      </trkpt>
      <trkpt lat="45.7154" lon="4.65764">
        <ele>449</ele>
        <time>2025-08-06T09:25:11Z</time>
      </trkpt>
      <trkpt lat="45.71541" lon="4.65768">
        <ele>449</ele>
        <time>2025-08-06T09:25:12Z</time>
      </trkpt>
      <trkpt lat="45.71542" lon="4.65771">
        <ele>449</ele>
        <time>2025-08-06T09:25:13Z</time>
      </trkpt>
      <trkpt lat="45.71543" lon="4.65776">
        <ele>449.2</ele>
        <time>2025-08-06T09:25:14Z</time>
      </trkpt>
      <trkpt lat="45.71545" lon="4.65781">
        <ele>449.2</ele>
        <time>2025-08-06T09:25:15Z</time>
      </trkpt>
      <trkpt lat="45.71547" lon="4.65784">
        <ele>449.4</ele>
        <time>2025-08-06T09:25:16Z</time>
      </trkpt>
      <trkpt lat="45.71549" lon="4.65789">
        <ele>449.4</ele>
        <time>2025-08-06T09:25:17Z</time>
      </trkpt>
      <trkpt lat="45.71551" lon="4.65794">
        <ele>449.8</ele>
        <time>2025-08-06T09:25:18Z</time>
      </trkpt>
      <trkpt lat="45.71553" lon="4.65799">
        <ele>450</ele>
        <time>2025-08-06T09:25:19Z</time>
      </trkpt>
      <trkpt lat="45.71554" lon="4.65804">
        <ele>450.4</ele>
        <time>2025-08-06T09:25:20Z</time>
      </trkpt>
      <trkpt lat="45.71555" lon="4.65809">
        <ele>450.6</ele>
        <time>2025-08-06T09:25:21Z</time>
      </trkpt>
      <trkpt lat="45.71556" lon="4.65812">
        <ele>450.8</ele>
        <time>2025-08-06T09:25:22Z</time>
      </trkpt>
      <trkpt lat="45.71556" lon="4.65816">
        <ele>451</ele>
        <time>2025-08-06T09:25:23Z</time>
      </trkpt>
      <trkpt lat="45.71557" lon="4.65821">
        <ele>451.2</ele>
        <time>2025-08-06T09:25:24Z</time>
      </trkpt>
      <trkpt lat="45.71558" lon="4.65826">
        <ele>451.4</ele>
        <time>2025-08-06T09:25:25Z</time>
      </trkpt>
      <trkpt lat="45.71559" lon="4.65832">
        <ele>451.4</ele>
        <time>2025-08-06T09:25:26Z</time>
      </trkpt>
      <trkpt lat="45.7156" lon="4.65837">
        <ele>451.4</ele>
        <time>2025-08-06T09:25:27Z</time>
      </trkpt>
      <trkpt lat="45.71561" lon="4.65842">
        <ele>451.6</ele>
        <time>2025-08-06T09:25:28Z</time>
      </trkpt>
      <trkpt lat="45.71562" lon="4.65848">
        <ele>451.4</ele>
        <time>2025-08-06T09:25:29Z</time>
      </trkpt>
      <trkpt lat="45.71563" lon="4.65853">
        <ele>451.4</ele>
        <time>2025-08-06T09:25:30Z</time>
      </trkpt>
      <trkpt lat="45.71565" lon="4.65859">
        <ele>451.2</ele>
        <time>2025-08-06T09:25:31Z</time>
      </trkpt>
      <trkpt lat="45.71566" lon="4.65865">
        <ele>450.8</ele>
        <time>2025-08-06T09:25:32Z</time>
      </trkpt>
      <trkpt lat="45.71567" lon="4.65871">
        <ele>450.4</ele>
        <time>2025-08-06T09:25:33Z</time>
      </trkpt>
      <trkpt lat="45.71569" lon="4.65881">
        <ele>450</ele>
        <time>2025-08-06T09:25:34Z</time>
      </trkpt>
      <trkpt lat="45.7157" lon="4.65889">
        <ele>449.4</ele>
        <time>2025-08-06T09:25:35Z</time>
      </trkpt>
      <trkpt lat="45.7157" lon="4.65898">
        <ele>448.8</ele>
        <time>2025-08-06T09:25:36Z</time>
      </trkpt>
      <trkpt lat="45.71571" lon="4.65907">
        <ele>448.4</ele>
        <time>2025-08-06T09:25:37Z</time>
      </trkpt>
      <trkpt lat="45.71572" lon="4.65914">
        <ele>448</ele>
        <time>2025-08-06T09:25:38Z</time>
      </trkpt>
      <trkpt lat="45.71575" lon="4.65924">
        <ele>447.4</ele>
        <time>2025-08-06T09:25:39Z</time>
      </trkpt>
      <trkpt lat="45.71578" lon="4.65932">
        <ele>447.2</ele>
        <time>2025-08-06T09:25:40Z</time>
      </trkpt>
      <trkpt lat="45.71581" lon="4.65938">
        <ele>446.8</ele>
        <time>2025-08-06T09:25:41Z</time>
      </trkpt>
      <trkpt lat="45.71584" lon="4.65945">
        <ele>446.6</ele>
        <time>2025-08-06T09:25:42Z</time>
      </trkpt>
      <trkpt lat="45.71587" lon="4.65952">
        <ele>446.6</ele>
        <time>2025-08-06T09:25:43Z</time>
      </trkpt>
      <trkpt lat="45.71589" lon="4.65959">
        <ele>446.6</ele>
        <time>2025-08-06T09:25:44Z</time>
      </trkpt>
      <trkpt lat="45.71592" lon="4.65966">
        <ele>446.6</ele>
        <time>2025-08-06T09:25:45Z</time>
      </trkpt>
      <trkpt lat="45.71595" lon="4.65973">
        <ele>446.8</ele>
        <time>2025-08-06T09:25:46Z</time>
      </trkpt>
      <trkpt lat="45.71598" lon="4.65982">
        <ele>446.8</ele>
        <time>2025-08-06T09:25:47Z</time>
      </trkpt>
      <trkpt lat="45.716" lon="4.65987">
        <ele>447</ele>
        <time>2025-08-06T09:25:48Z</time>
      </trkpt>
      <trkpt lat="45.71604" lon="4.65995">
        <ele>447</ele>
        <time>2025-08-06T09:25:49Z</time>
      </trkpt>
      <trkpt lat="45.71606" lon="4.66002">
        <ele>447</ele>
        <time>2025-08-06T09:25:50Z</time>
      </trkpt>
      <trkpt lat="45.71609" lon="4.66008">
        <ele>446.8</ele>
        <time>2025-08-06T09:25:51Z</time>
      </trkpt>
      <trkpt lat="45.71612" lon="4.66015">
        <ele>446.6</ele>
        <time>2025-08-06T09:25:52Z</time>
      </trkpt>
      <trkpt lat="45.71615" lon="4.66022">
        <ele>446.2</ele>
        <time>2025-08-06T09:25:53Z</time>
      </trkpt>
      <trkpt lat="45.71618" lon="4.6603">
        <ele>446</ele>
        <time>2025-08-06T09:25:54Z</time>
      </trkpt>
      <trkpt lat="45.71621" lon="4.66037">
        <ele>445.6</ele>
        <time>2025-08-06T09:25:55Z</time>
      </trkpt>
      <trkpt lat="45.71624" lon="4.66044">
        <ele>445.6</ele>
        <time>2025-08-06T09:25:56Z</time>
      </trkpt>
      <trkpt lat="45.71628" lon="4.66053">
        <ele>445.4</ele>
        <time>2025-08-06T09:25:57Z</time>
      </trkpt>
      <trkpt lat="45.7163" lon="4.66059">
        <ele>445.4</ele>
        <time>2025-08-06T09:25:58Z</time>
      </trkpt>
      <trkpt lat="45.71633" lon="4.66068">
        <ele>445.4</ele>
        <time>2025-08-06T09:25:59Z</time>
      </trkpt>
      <trkpt lat="45.71635" lon="4.66074">
        <ele>445.2</ele>
        <time>2025-08-06T09:26:00Z</time>
      </trkpt>
      <trkpt lat="45.71637" lon="4.66082">
        <ele>445.2</ele>
        <time>2025-08-06T09:26:01Z</time>
      </trkpt>
      <trkpt lat="45.71639" lon="4.66089">
        <ele>445</ele>
        <time>2025-08-06T09:26:02Z</time>
      </trkpt>
      <trkpt lat="45.71641" lon="4.66098">
        <ele>445</ele>
        <time>2025-08-06T09:26:03Z</time>
      </trkpt>
      <trkpt lat="45.71642" lon="4.66106">
        <ele>444.8</ele>
        <time>2025-08-06T09:26:04Z</time>
      </trkpt>
      <trkpt lat="45.71644" lon="4.66114">
        <ele>444.8</ele>
        <time>2025-08-06T09:26:05Z</time>
      </trkpt>
      <trkpt lat="45.71645" lon="4.66121">
        <ele>444.8</ele>
        <time>2025-08-06T09:26:06Z</time>
      </trkpt>
      <trkpt lat="45.71647" lon="4.66129">
        <ele>444.8</ele>
        <time>2025-08-06T09:26:07Z</time>
      </trkpt>
      <trkpt lat="45.71648" lon="4.66136">
        <ele>444.8</ele>
        <time>2025-08-06T09:26:08Z</time>
      </trkpt>
      <trkpt lat="45.7165" lon="4.66143">
        <ele>444.6</ele>
        <time>2025-08-06T09:26:09Z</time>
      </trkpt>
      <trkpt lat="45.71651" lon="4.66151">
        <ele>444.6</ele>
        <time>2025-08-06T09:26:10Z</time>
      </trkpt>
      <trkpt lat="45.71652" lon="4.66158">
        <ele>444.6</ele>
        <time>2025-08-06T09:26:11Z</time>
      </trkpt>
      <trkpt lat="45.71654" lon="4.66165">
        <ele>444.6</ele>
        <time>2025-08-06T09:26:12Z</time>
      </trkpt>
      <trkpt lat="45.71655" lon="4.66172">
        <ele>444.4</ele>
        <time>2025-08-06T09:26:13Z</time>
      </trkpt>
      <trkpt lat="45.71656" lon="4.66179">
        <ele>444.4</ele>
        <time>2025-08-06T09:26:14Z</time>
      </trkpt>
      <trkpt lat="45.71656" lon="4.66186">
        <ele>444.2</ele>
        <time>2025-08-06T09:26:15Z</time>
      </trkpt>
      <trkpt lat="45.71656" lon="4.66194">
        <ele>444.2</ele>
        <time>2025-08-06T09:26:16Z</time>
      </trkpt>
      <trkpt lat="45.71656" lon="4.66201">
        <ele>444</ele>
        <time>2025-08-06T09:26:17Z</time>
      </trkpt>
      <trkpt lat="45.71655" lon="4.66209">
        <ele>443.8</ele>
        <time>2025-08-06T09:26:18Z</time>
      </trkpt>
      <trkpt lat="45.71654" lon="4.66217">
        <ele>443.6</ele>
        <time>2025-08-06T09:26:19Z</time>
      </trkpt>
      <trkpt lat="45.71653" lon="4.66224">
        <ele>443.6</ele>
        <time>2025-08-06T09:26:20Z</time>
      </trkpt>
      <trkpt lat="45.71652" lon="4.66229">
        <ele>443.6</ele>
        <time>2025-08-06T09:26:21Z</time>
      </trkpt>
      <trkpt lat="45.71651" lon="4.66235">
        <ele>443.6</ele>
        <time>2025-08-06T09:26:22Z</time>
      </trkpt>
      <trkpt lat="45.7165" lon="4.66241">
        <ele>443.8</ele>
        <time>2025-08-06T09:26:23Z</time>
      </trkpt>
      <trkpt lat="45.71649" lon="4.66248">
        <ele>443.8</ele>
        <time>2025-08-06T09:26:24Z</time>
      </trkpt>
      <trkpt lat="45.71647" lon="4.66254">
        <ele>443.8</ele>
        <time>2025-08-06T09:26:25Z</time>
      </trkpt>
      <trkpt lat="45.71645" lon="4.6626">
        <ele>443.6</ele>
        <time>2025-08-06T09:26:26Z</time>
      </trkpt>
      <trkpt lat="45.71642" lon="4.66266">
        <ele>443.6</ele>
        <time>2025-08-06T09:26:27Z</time>
      </trkpt>
      <trkpt lat="45.7164" lon="4.66272">
        <ele>443.4</ele>
        <time>2025-08-06T09:26:28Z</time>
      </trkpt>
      <trkpt lat="45.71637" lon="4.66278">
        <ele>443.4</ele>
        <time>2025-08-06T09:26:29Z</time>
      </trkpt>
      <trkpt lat="45.71635" lon="4.66284">
        <ele>443.2</ele>
        <time>2025-08-06T09:26:30Z</time>
      </trkpt>
      <trkpt lat="45.71632" lon="4.66289">
        <ele>443</ele>
        <time>2025-08-06T09:26:31Z</time>
      </trkpt>
      <trkpt lat="45.71629" lon="4.66293">
        <ele>442.8</ele>
        <time>2025-08-06T09:26:32Z</time>
      </trkpt>
      <trkpt lat="45.71627" lon="4.66298">
        <ele>442.8</ele>
        <time>2025-08-06T09:26:33Z</time>
      </trkpt>
      <trkpt lat="45.71625" lon="4.66304">
        <ele>442.6</ele>
        <time>2025-08-06T09:26:34Z</time>
      </trkpt>
      <trkpt lat="45.71622" lon="4.66309">
        <ele>442.6</ele>
        <time>2025-08-06T09:26:35Z</time>
      </trkpt>
      <trkpt lat="45.71619" lon="4.66315">
        <ele>442.4</ele>
        <time>2025-08-06T09:26:36Z</time>
      </trkpt>
      <trkpt lat="45.71615" lon="4.66322">
        <ele>442.2</ele>
        <time>2025-08-06T09:26:37Z</time>
      </trkpt>
      <trkpt lat="45.71612" lon="4.66329">
        <ele>442</ele>
        <time>2025-08-06T09:26:38Z</time>
      </trkpt>
      <trkpt lat="45.71609" lon="4.66335">
        <ele>441.6</ele>
        <time>2025-08-06T09:26:39Z</time>
      </trkpt>
      <trkpt lat="45.71606" lon="4.66342">
        <ele>441.2</ele>
        <time>2025-08-06T09:26:40Z</time>
      </trkpt>
      <trkpt lat="45.71603" lon="4.66348">
        <ele>440.6</ele>
        <time>2025-08-06T09:26:41Z</time>
      </trkpt>
      <trkpt lat="45.71599" lon="4.66355">
        <ele>440.4</ele>
        <time>2025-08-06T09:26:42Z</time>
      </trkpt>
      <trkpt lat="45.71596" lon="4.66361">
        <ele>440</ele>
        <time>2025-08-06T09:26:43Z</time>
      </trkpt>
      <trkpt lat="45.71593" lon="4.66367">
        <ele>439.6</ele>
        <time>2025-08-06T09:26:44Z</time>
      </trkpt>
      <trkpt lat="45.7159" lon="4.66374">
        <ele>439.2</ele>
        <time>2025-08-06T09:26:45Z</time>
      </trkpt>
      <trkpt lat="45.71587" lon="4.66381">
        <ele>438.8</ele>
        <time>2025-08-06T09:26:46Z</time>
      </trkpt>
      <trkpt lat="45.71584" lon="4.66388">
        <ele>438.2</ele>
        <time>2025-08-06T09:26:47Z</time>
      </trkpt>
      <trkpt lat="45.7158" lon="4.66395">
        <ele>437.8</ele>
        <time>2025-08-06T09:26:48Z</time>
      </trkpt>
      <trkpt lat="45.71576" lon="4.66401">
        <ele>437.4</ele>
        <time>2025-08-06T09:26:49Z</time>
      </trkpt>
      <trkpt lat="45.71572" lon="4.66408">
        <ele>437</ele>
        <time>2025-08-06T09:26:50Z</time>
      </trkpt>
      <trkpt lat="45.71568" lon="4.66413">
        <ele>436.4</ele>
        <time>2025-08-06T09:26:51Z</time>
      </trkpt>
      <trkpt lat="45.71562" lon="4.66419">
        <ele>436</ele>
        <time>2025-08-06T09:26:52Z</time>
      </trkpt>
      <trkpt lat="45.71557" lon="4.66425">
        <ele>435.6</ele>
        <time>2025-08-06T09:26:53Z</time>
      </trkpt>
      <trkpt lat="45.71552" lon="4.66431">
        <ele>435</ele>
        <time>2025-08-06T09:26:54Z</time>
      </trkpt>
      <trkpt lat="45.71546" lon="4.66437">
        <ele>434.4</ele>
        <time>2025-08-06T09:26:55Z</time>
      </trkpt>
      <trkpt lat="45.7154" lon="4.66443">
        <ele>433.8</ele>
        <time>2025-08-06T09:26:56Z</time>
      </trkpt>
      <trkpt lat="45.71534" lon="4.6645">
        <ele>433</ele>
        <time>2025-08-06T09:26:57Z</time>
      </trkpt>
      <trkpt lat="45.71528" lon="4.66456">
        <ele>432.2</ele>
        <time>2025-08-06T09:26:58Z</time>
      </trkpt>
      <trkpt lat="45.71521" lon="4.66462">
        <ele>431.4</ele>
        <time>2025-08-06T09:26:59Z</time>
      </trkpt>
      <trkpt lat="45.71515" lon="4.66467">
        <ele>430.6</ele>
        <time>2025-08-06T09:27:00Z</time>
      </trkpt>
      <trkpt lat="45.71508" lon="4.66473">
        <ele>430</ele>
        <time>2025-08-06T09:27:01Z</time>
      </trkpt>
      <trkpt lat="45.71502" lon="4.66478">
        <ele>429.6</ele>
        <time>2025-08-06T09:27:02Z</time>
      </trkpt>
      <trkpt lat="45.71496" lon="4.66482">
        <ele>429.2</ele>
        <time>2025-08-06T09:27:03Z</time>
      </trkpt>
      <trkpt lat="45.71491" lon="4.66487">
        <ele>428.8</ele>
        <time>2025-08-06T09:27:04Z</time>
      </trkpt>
      <trkpt lat="45.71485" lon="4.66491">
        <ele>428.4</ele>
        <time>2025-08-06T09:27:05Z</time>
      </trkpt>
      <trkpt lat="45.7148" lon="4.66496">
        <ele>428</ele>
        <time>2025-08-06T09:27:06Z</time>
      </trkpt>
      <trkpt lat="45.71474" lon="4.66499">
        <ele>427.6</ele>
        <time>2025-08-06T09:27:07Z</time>
      </trkpt>
      <trkpt lat="45.7147" lon="4.66502">
        <ele>427.2</ele>
        <time>2025-08-06T09:27:08Z</time>
      </trkpt>
      <trkpt lat="45.71465" lon="4.66505">
        <ele>427</ele>
        <time>2025-08-06T09:27:09Z</time>
      </trkpt>
      <trkpt lat="45.7146" lon="4.66506">
        <ele>426.8</ele>
        <time>2025-08-06T09:27:10Z</time>
      </trkpt>
      <trkpt lat="45.71455" lon="4.66508">
        <ele>426.8</ele>
        <time>2025-08-06T09:27:11Z</time>
      </trkpt>
      <trkpt lat="45.71451" lon="4.6651">
        <ele>426.6</ele>
        <time>2025-08-06T09:27:12Z</time>
      </trkpt>
      <trkpt lat="45.71447" lon="4.66513">
        <ele>426.6</ele>
        <time>2025-08-06T09:27:13Z</time>
      </trkpt>
      <trkpt lat="45.71442" lon="4.66516">
        <ele>426.4</ele>
        <time>2025-08-06T09:27:14Z</time>
      </trkpt>
      <trkpt lat="45.71438" lon="4.66518">
        <ele>426.4</ele>
        <time>2025-08-06T09:27:15Z</time>
      </trkpt>
      <trkpt lat="45.71433" lon="4.6652">
        <ele>426.4</ele>
        <time>2025-08-06T09:27:16Z</time>
      </trkpt>
      <trkpt lat="45.71428" lon="4.66523">
        <ele>426.2</ele>
        <time>2025-08-06T09:27:17Z</time>
      </trkpt>
      <trkpt lat="45.71424" lon="4.66526">
        <ele>426</ele>
        <time>2025-08-06T09:27:18Z</time>
      </trkpt>
      <trkpt lat="45.71421" lon="4.66528">
        <ele>426</ele>
        <time>2025-08-06T09:27:19Z</time>
      </trkpt>
      <trkpt lat="45.7142" lon="4.66529">
        <ele>426</ele>
        <time>2025-08-06T09:27:20Z</time>
      </trkpt>
      <trkpt lat="45.7142" lon="4.66529">
        <ele>426</ele>
        <time>2025-08-06T09:27:21Z</time>
      </trkpt>
      <trkpt lat="45.7142" lon="4.66529">
        <ele>426.2</ele>
        <time>2025-08-06T09:27:22Z</time>
      </trkpt>
      <trkpt lat="45.71427" lon="4.66524">
        <ele>425.6</ele>
        <time>2025-08-06T09:28:23Z</time>
      </trkpt>
      <trkpt lat="45.71429" lon="4.66522">
        <ele>425.6</ele>
        <time>2025-08-06T09:28:24Z</time>
      </trkpt>
      <trkpt lat="45.71431" lon="4.6652">
        <ele>425.4</ele>
        <time>2025-08-06T09:28:25Z</time>
      </trkpt>
      <trkpt lat="45.71434" lon="4.66518">
        <ele>425.4</ele>
        <time>2025-08-06T09:28:26Z</time>
      </trkpt>
      <trkpt lat="45.71436" lon="4.66516">
        <ele>425.4</ele>
        <time>2025-08-06T09:28:27Z</time>
      </trkpt>
      <trkpt lat="45.71439" lon="4.66515">
        <ele>425.6</ele>
        <time>2025-08-06T09:28:28Z</time>
      </trkpt>
      <trkpt lat="45.71442" lon="4.66513">
        <ele>425.6</ele>
        <time>2025-08-06T09:28:29Z</time>
      </trkpt>
      <trkpt lat="45.71445" lon="4.66511">
        <ele>425.8</ele>
        <time>2025-08-06T09:28:30Z</time>
      </trkpt>
      <trkpt lat="45.71448" lon="4.66509">
        <ele>426</ele>
        <time>2025-08-06T09:28:31Z</time>
      </trkpt>
      <trkpt lat="45.71451" lon="4.66508">
        <ele>426</ele>
        <time>2025-08-06T09:28:32Z</time>
      </trkpt>
      <trkpt lat="45.71454" lon="4.66507">
        <ele>426.2</ele>
        <time>2025-08-06T09:28:33Z</time>
      </trkpt>
      <trkpt lat="45.71457" lon="4.66507">
        <ele>426.2</ele>
        <time>2025-08-06T09:28:34Z</time>
      </trkpt>
      <trkpt lat="45.71459" lon="4.66506">
        <ele>426.2</ele>
        <time>2025-08-06T09:28:35Z</time>
      </trkpt>
      <trkpt lat="45.71459" lon="4.66506">
        <ele>426.4</ele>
        <time>2025-08-06T09:28:36Z</time>
      </trkpt>
      <trkpt lat="45.71459" lon="4.66506">
        <ele>426.4</ele>
        <time>2025-08-06T09:28:37Z</time>
      </trkpt>
      <trkpt lat="45.71459" lon="4.66507">
        <ele>426.6</ele>
        <time>2025-08-06T09:28:38Z</time>
      </trkpt>
      <trkpt lat="45.71454" lon="4.66508">
        <ele>425.8</ele>
        <time>2025-08-06T09:29:19Z</time>
      </trkpt>
      <trkpt lat="45.71451" lon="4.66509">
        <ele>425.8</ele>
        <time>2025-08-06T09:29:20Z</time>
      </trkpt>
      <trkpt lat="45.71448" lon="4.6651">
        <ele>425.6</ele>
        <time>2025-08-06T09:29:21Z</time>
      </trkpt>
      <trkpt lat="45.71445" lon="4.66512">
        <ele>425.6</ele>
        <time>2025-08-06T09:29:22Z</time>
      </trkpt>
      <trkpt lat="45.71442" lon="4.66514">
        <ele>425.4</ele>
        <time>2025-08-06T09:29:23Z</time>
      </trkpt>
      <trkpt lat="45.7144" lon="4.66515">
        <ele>425.4</ele>
        <time>2025-08-06T09:29:24Z</time>
      </trkpt>
      <trkpt lat="45.71437" lon="4.66517">
        <ele>425.2</ele>
        <time>2025-08-06T09:29:25Z</time>
      </trkpt>
      <trkpt lat="45.71434" lon="4.66519">
        <ele>425.2</ele>
        <time>2025-08-06T09:29:26Z</time>
      </trkpt>
      <trkpt lat="45.71431" lon="4.66521">
        <ele>425</ele>
        <time>2025-08-06T09:29:27Z</time>
      </trkpt>
      <trkpt lat="45.71428" lon="4.66522">
        <ele>425</ele>
        <time>2025-08-06T09:29:28Z</time>
      </trkpt>
      <trkpt lat="45.71425" lon="4.66524">
        <ele>424.8</ele>
        <time>2025-08-06T09:29:29Z</time>
      </trkpt>
      <trkpt lat="45.71422" lon="4.66527">
        <ele>424.8</ele>
        <time>2025-08-06T09:29:30Z</time>
      </trkpt>
      <trkpt lat="45.71419" lon="4.66529">
        <ele>424.8</ele>
        <time>2025-08-06T09:29:31Z</time>
      </trkpt>
      <trkpt lat="45.71417" lon="4.66531">
        <ele>424.6</ele>
        <time>2025-08-06T09:29:32Z</time>
      </trkpt>
      <trkpt lat="45.71414" lon="4.66533">
        <ele>424.6</ele>
        <time>2025-08-06T09:29:33Z</time>
      </trkpt>
      <trkpt lat="45.71412" lon="4.66534">
        <ele>424.6</ele>
        <time>2025-08-06T09:29:34Z</time>
      </trkpt>
      <trkpt lat="45.71409" lon="4.66536">
        <ele>424.4</ele>
        <time>2025-08-06T09:29:35Z</time>
      </trkpt>
      <trkpt lat="45.71407" lon="4.66538">
        <ele>424.4</ele>
        <time>2025-08-06T09:29:36Z</time>
      </trkpt>
      <trkpt lat="45.71405" lon="4.6654">
        <ele>424.4</ele>
        <time>2025-08-06T09:29:37Z</time>
      </trkpt>
      <trkpt lat="45.71402" lon="4.66541">
        <ele>424.2</ele>
        <time>2025-08-06T09:29:38Z</time>
      </trkpt>
      <trkpt lat="45.714" lon="4.66542">
        <ele>424.2</ele>
        <time>2025-08-06T09:29:39Z</time>
      </trkpt>
      <trkpt lat="45.71397" lon="4.66544">
        <ele>424</ele>
        <time>2025-08-06T09:29:40Z</time>
      </trkpt>
      <trkpt lat="45.71394" lon="4.66546">
        <ele>424</ele>
        <time>2025-08-06T09:29:41Z</time>
      </trkpt>
      <trkpt lat="45.7139" lon="4.66548">
        <ele>423.8</ele>
        <time>2025-08-06T09:29:42Z</time>
      </trkpt>
      <trkpt lat="45.71386" lon="4.66549">
        <ele>423.6</ele>
        <time>2025-08-06T09:29:43Z</time>
      </trkpt>
      <trkpt lat="45.71382" lon="4.66551">
        <ele>423.4</ele>
        <time>2025-08-06T09:29:44Z</time>
      </trkpt>
      <trkpt lat="45.71378" lon="4.66553">
        <ele>423.4</ele>
        <time>2025-08-06T09:29:45Z</time>
      </trkpt>
      <trkpt lat="45.71374" lon="4.66555">
        <ele>423.2</ele>
        <time>2025-08-06T09:29:46Z</time>
      </trkpt>
      <trkpt lat="45.7137" lon="4.66556">
        <ele>423</ele>
        <time>2025-08-06T09:29:47Z</time>
      </trkpt>
      <trkpt lat="45.71366" lon="4.66557">
        <ele>423</ele>
        <time>2025-08-06T09:29:48Z</time>
      </trkpt>
      <trkpt lat="45.71361" lon="4.66559">
        <ele>422.8</ele>
        <time>2025-08-06T09:29:49Z</time>
      </trkpt>
      <trkpt lat="45.71357" lon="4.6656">
        <ele>422.6</ele>
        <time>2025-08-06T09:29:50Z</time>
      </trkpt>
      <trkpt lat="45.71353" lon="4.66561">
        <ele>422.6</ele>
        <time>2025-08-06T09:29:51Z</time>
      </trkpt>
      <trkpt lat="45.71349" lon="4.66563">
        <ele>422.6</ele>
        <time>2025-08-06T09:29:52Z</time>
      </trkpt>
      <trkpt lat="45.71347" lon="4.66566">
        <ele>422.4</ele>
        <time>2025-08-06T09:29:53Z</time>
      </trkpt>
      <trkpt lat="45.71345" lon="4.66568">
        <ele>422.2</ele>
        <time>2025-08-06T09:29:54Z</time>
      </trkpt>
      <trkpt lat="45.71343" lon="4.66571">
        <ele>422.2</ele>
        <time>2025-08-06T09:29:55Z</time>
      </trkpt>
      <trkpt lat="45.71342" lon="4.66573">
        <ele>422</ele>
        <time>2025-08-06T09:29:56Z</time>
      </trkpt>
      <trkpt lat="45.71342" lon="4.66576">
        <ele>421.8</ele>
        <time>2025-08-06T09:29:57Z</time>
      </trkpt>
      <trkpt lat="45.71343" lon="4.66578">
        <ele>421.6</ele>
        <time>2025-08-06T09:29:58Z</time>
      </trkpt>
      <trkpt lat="45.71344" lon="4.66579">
        <ele>421.4</ele>
        <time>2025-08-06T09:29:59Z</time>
      </trkpt>
      <trkpt lat="45.71346" lon="4.66578">
        <ele>421.4</ele>
        <time>2025-08-06T09:30:00Z</time>
      </trkpt>
      <trkpt lat="45.71346" lon="4.66578">
        <ele>421.2</ele>
        <time>2025-08-06T09:30:01Z</time>
      </trkpt>
      <trkpt lat="45.71346" lon="4.66578">
        <ele>421.2</ele>
        <time>2025-08-06T09:30:02Z</time>
      </trkpt>
      <trkpt lat="45.71345" lon="4.66575">
        <ele>421.6</ele>
        <time>2025-08-06T09:31:35Z</time>
      </trkpt>
      <trkpt lat="45.71344" lon="4.66573">
        <ele>421.8</ele>
        <time>2025-08-06T09:31:36Z</time>
      </trkpt>
      <trkpt lat="45.71343" lon="4.6657">
        <ele>421.8</ele>
        <time>2025-08-06T09:31:37Z</time>
      </trkpt>
      <trkpt lat="45.71341" lon="4.66568">
        <ele>421.8</ele>
        <time>2025-08-06T09:31:38Z</time>
      </trkpt>
      <trkpt lat="45.71339" lon="4.66567">
        <ele>421.8</ele>
        <time>2025-08-06T09:31:39Z</time>
      </trkpt>
      <trkpt lat="45.71337" lon="4.66567">
        <ele>422</ele>
        <time>2025-08-06T09:31:40Z</time>
      </trkpt>
      <trkpt lat="45.71335" lon="4.66568">
        <ele>422.2</ele>
        <time>2025-08-06T09:31:41Z</time>
      </trkpt>
      <trkpt lat="45.71331" lon="4.66569">
        <ele>422.2</ele>
        <time>2025-08-06T09:31:42Z</time>
      </trkpt>
      <trkpt lat="45.71328" lon="4.6657">
        <ele>422.2</ele>
        <time>2025-08-06T09:31:43Z</time>
      </trkpt>
      <trkpt lat="45.71324" lon="4.6657">
        <ele>422.2</ele>
        <time>2025-08-06T09:31:44Z</time>
      </trkpt>
      <trkpt lat="45.7132" lon="4.66571">
        <ele>422</ele>
        <time>2025-08-06T09:31:45Z</time>
      </trkpt>
      <trkpt lat="45.71317" lon="4.66572">
        <ele>422</ele>
        <time>2025-08-06T09:31:46Z</time>
      </trkpt>
      <trkpt lat="45.71313" lon="4.66573">
        <ele>422</ele>
        <time>2025-08-06T09:31:47Z</time>
      </trkpt>
      <trkpt lat="45.7131" lon="4.66573">
        <ele>421.8</ele>
        <time>2025-08-06T09:31:48Z</time>
      </trkpt>
      <trkpt lat="45.71306" lon="4.66574">
        <ele>421.8</ele>
        <time>2025-08-06T09:31:49Z</time>
      </trkpt>
      <trkpt lat="45.71303" lon="4.66575">
        <ele>422</ele>
        <time>2025-08-06T09:31:50Z</time>
      </trkpt>
      <trkpt lat="45.713" lon="4.66575">
        <ele>422</ele>
        <time>2025-08-06T09:31:51Z</time>
      </trkpt>
      <trkpt lat="45.71297" lon="4.66576">
        <ele>422</ele>
        <time>2025-08-06T09:31:52Z</time>
      </trkpt>
      <trkpt lat="45.71294" lon="4.66576">
        <ele>422</ele>
        <time>2025-08-06T09:31:53Z</time>
      </trkpt>
      <trkpt lat="45.7129" lon="4.66577">
        <ele>422</ele>
        <time>2025-08-06T09:31:54Z</time>
      </trkpt>
      <trkpt lat="45.71286" lon="4.66577">
        <ele>422</ele>
        <time>2025-08-06T09:31:55Z</time>
      </trkpt>
      <trkpt lat="45.71282" lon="4.66578">
        <ele>422</ele>
        <time>2025-08-06T09:31:56Z</time>
      </trkpt>
      <trkpt lat="45.71279" lon="4.66579">
        <ele>422</ele>
        <time>2025-08-06T09:31:57Z</time>
      </trkpt>
      <trkpt lat="45.71275" lon="4.6658">
        <ele>422</ele>
        <time>2025-08-06T09:31:58Z</time>
      </trkpt>
      <trkpt lat="45.71271" lon="4.6658">
        <ele>422.2</ele>
        <time>2025-08-06T09:31:59Z</time>
      </trkpt>
      <trkpt lat="45.71267" lon="4.66581">
        <ele>422.2</ele>
        <time>2025-08-06T09:32:00Z</time>
      </trkpt>
      <trkpt lat="45.71264" lon="4.66582">
        <ele>422.2</ele>
        <time>2025-08-06T09:32:01Z</time>
      </trkpt>
      <trkpt lat="45.71261" lon="4.66582">
        <ele>422.4</ele>
        <time>2025-08-06T09:32:02Z</time>
      </trkpt>
      <trkpt lat="45.71257" lon="4.66583">
        <ele>422.4</ele>
        <time>2025-08-06T09:32:03Z</time>
      </trkpt>
      <trkpt lat="45.71254" lon="4.66585">
        <ele>422.6</ele>
        <time>2025-08-06T09:32:04Z</time>
      </trkpt>
      <trkpt lat="45.7125" lon="4.66586">
        <ele>422.8</ele>
        <time>2025-08-06T09:32:05Z</time>
      </trkpt>
      <trkpt lat="45.71247" lon="4.66588">
        <ele>422.8</ele>
        <time>2025-08-06T09:32:06Z</time>
      </trkpt>
      <trkpt lat="45.71243" lon="4.6659">
        <ele>422.8</ele>
        <time>2025-08-06T09:32:07Z</time>
      </trkpt>
      <trkpt lat="45.7124" lon="4.66592">
        <ele>422.8</ele>
        <time>2025-08-06T09:32:08Z</time>
      </trkpt>
      <trkpt lat="45.71236" lon="4.66594">
        <ele>422.8</ele>
        <time>2025-08-06T09:32:09Z</time>
      </trkpt>
      <trkpt lat="45.71232" lon="4.66596">
        <ele>422.8</ele>
        <time>2025-08-06T09:32:10Z</time>
      </trkpt>
      <trkpt lat="45.71228" lon="4.66599">
        <ele>422.8</ele>
        <time>2025-08-06T09:32:11Z</time>
      </trkpt>
      <trkpt lat="45.71225" lon="4.66602">
        <ele>422.6</ele>
        <time>2025-08-06T09:32:12Z</time>
      </trkpt>
      <trkpt lat="45.71221" lon="4.66605">
        <ele>422.4</ele>
        <time>2025-08-06T09:32:13Z</time>
      </trkpt>
      <trkpt lat="45.71216" lon="4.66608">
        <ele>422.2</ele>
        <time>2025-08-06T09:32:14Z</time>
      </trkpt>
      <trkpt lat="45.71212" lon="4.66611">
        <ele>422</ele>
        <time>2025-08-06T09:32:15Z</time>
      </trkpt>
      <trkpt lat="45.71207" lon="4.66614">
        <ele>421.8</ele>
        <time>2025-08-06T09:32:16Z</time>
      </trkpt>
      <trkpt lat="45.71203" lon="4.66617">
        <ele>421.6</ele>
        <time>2025-08-06T09:32:17Z</time>
      </trkpt>
      <trkpt lat="45.71198" lon="4.6662">
        <ele>421.6</ele>
        <time>2025-08-06T09:32:18Z</time>
      </trkpt>
      <trkpt lat="45.71194" lon="4.66623">
        <ele>421.4</ele>
        <time>2025-08-06T09:32:19Z</time>
      </trkpt>
      <trkpt lat="45.71189" lon="4.66625">
        <ele>421.2</ele>
        <time>2025-08-06T09:32:20Z</time>
      </trkpt>
      <trkpt lat="45.71184" lon="4.66627">
        <ele>421.2</ele>
        <time>2025-08-06T09:32:21Z</time>
      </trkpt>
      <trkpt lat="45.7118" lon="4.6663">
        <ele>421</ele>
        <time>2025-08-06T09:32:22Z</time>
      </trkpt>
      <trkpt lat="45.71175" lon="4.66632">
        <ele>420.8</ele>
        <time>2025-08-06T09:32:23Z</time>
      </trkpt>
      <trkpt lat="45.71171" lon="4.66635">
        <ele>420.8</ele>
        <time>2025-08-06T09:32:24Z</time>
      </trkpt>
      <trkpt lat="45.71166" lon="4.66637">
        <ele>420.6</ele>
        <time>2025-08-06T09:32:25Z</time>
      </trkpt>
      <trkpt lat="45.71162" lon="4.66639">
        <ele>420.4</ele>
        <time>2025-08-06T09:32:26Z</time>
      </trkpt>
      <trkpt lat="45.71156" lon="4.66642">
        <ele>420.2</ele>
        <time>2025-08-06T09:32:27Z</time>
      </trkpt>
      <trkpt lat="45.71151" lon="4.66644">
        <ele>420</ele>
        <time>2025-08-06T09:32:28Z</time>
      </trkpt>
      <trkpt lat="45.71145" lon="4.66646">
        <ele>419.8</ele>
        <time>2025-08-06T09:32:29Z</time>
      </trkpt>
      <trkpt lat="45.7114" lon="4.66648">
        <ele>419.6</ele>
        <time>2025-08-06T09:32:30Z</time>
      </trkpt>
      <trkpt lat="45.71135" lon="4.66649">
        <ele>419.4</ele>
        <time>2025-08-06T09:32:31Z</time>
      </trkpt>
      <trkpt lat="45.71129" lon="4.6665">
        <ele>419.2</ele>
        <time>2025-08-06T09:32:32Z</time>
      </trkpt>
      <trkpt lat="45.71125" lon="4.6665">
        <ele>419</ele>
        <time>2025-08-06T09:32:33Z</time>
      </trkpt>
      <trkpt lat="45.7112" lon="4.66651">
        <ele>418.8</ele>
        <time>2025-08-06T09:32:34Z</time>
      </trkpt>
      <trkpt lat="45.71114" lon="4.66651">
        <ele>418.4</ele>
        <time>2025-08-06T09:32:35Z</time>
      </trkpt>
      <trkpt lat="45.71109" lon="4.66651">
        <ele>418.2</ele>
        <time>2025-08-06T09:32:36Z</time>
      </trkpt>
      <trkpt lat="45.71104" lon="4.6665">
        <ele>417.8</ele>
        <time>2025-08-06T09:32:37Z</time>
      </trkpt>
      <trkpt lat="45.71098" lon="4.6665">
        <ele>417.6</ele>
        <time>2025-08-06T09:32:38Z</time>
      </trkpt>
      <trkpt lat="45.71092" lon="4.66649">
        <ele>417.2</ele>
        <time>2025-08-06T09:32:39Z</time>
      </trkpt>
      <trkpt lat="45.71087" lon="4.66649">
        <ele>417</ele>
        <time>2025-08-06T09:32:40Z</time>
      </trkpt>
      <trkpt lat="45.71081" lon="4.66649">
        <ele>416.6</ele>
        <time>2025-08-06T09:32:41Z</time>
      </trkpt>
      <trkpt lat="45.71075" lon="4.66648">
        <ele>416.4</ele>
        <time>2025-08-06T09:32:42Z</time>
      </trkpt>
      <trkpt lat="45.71069" lon="4.66647">
        <ele>415.8</ele>
        <time>2025-08-06T09:32:43Z</time>
      </trkpt>
      <trkpt lat="45.71063" lon="4.66647">
        <ele>415.4</ele>
        <time>2025-08-06T09:32:44Z</time>
      </trkpt>
      <trkpt lat="45.71058" lon="4.66646">
        <ele>415</ele>
        <time>2025-08-06T09:32:45Z</time>
      </trkpt>
      <trkpt lat="45.71053" lon="4.66646">
        <ele>414.6</ele>
        <time>2025-08-06T09:32:46Z</time>
      </trkpt>
      <trkpt lat="45.71048" lon="4.66646">
        <ele>414.4</ele>
        <time>2025-08-06T09:32:47Z</time>
      </trkpt>
      <trkpt lat="45.71044" lon="4.66647">
        <ele>414.2</ele>
        <time>2025-08-06T09:32:48Z</time>
      </trkpt>
      <trkpt lat="45.7104" lon="4.66649">
        <ele>413.8</ele>
        <time>2025-08-06T09:32:49Z</time>
      </trkpt>
      <trkpt lat="45.71036" lon="4.66652">
        <ele>413.6</ele>
        <time>2025-08-06T09:32:50Z</time>
      </trkpt>
      <trkpt lat="45.71032" lon="4.66655">
        <ele>413.2</ele>
        <time>2025-08-06T09:32:51Z</time>
      </trkpt>
      <trkpt lat="45.71028" lon="4.66658">
        <ele>412.8</ele>
        <time>2025-08-06T09:32:52Z</time>
      </trkpt>
      <trkpt lat="45.71024" lon="4.66661">
        <ele>412.2</ele>
        <time>2025-08-06T09:32:53Z</time>
      </trkpt>
      <trkpt lat="45.7102" lon="4.66663">
        <ele>411.6</ele>
        <time>2025-08-06T09:32:54Z</time>
      </trkpt>
      <trkpt lat="45.71015" lon="4.66664">
        <ele>411.2</ele>
        <time>2025-08-06T09:32:55Z</time>
      </trkpt>
      <trkpt lat="45.7101" lon="4.66664">
        <ele>410.8</ele>
        <time>2025-08-06T09:32:56Z</time>
      </trkpt>
      <trkpt lat="45.71005" lon="4.66663">
        <ele>410.4</ele>
        <time>2025-08-06T09:32:57Z</time>
      </trkpt>
      <trkpt lat="45.71001" lon="4.66662">
        <ele>410.2</ele>
        <time>2025-08-06T09:32:58Z</time>
      </trkpt>
      <trkpt lat="45.70996" lon="4.66662">
        <ele>410</ele>
        <time>2025-08-06T09:32:59Z</time>
      </trkpt>
      <trkpt lat="45.70992" lon="4.66663">
        <ele>409.8</ele>
        <time>2025-08-06T09:33:00Z</time>
      </trkpt>
      <trkpt lat="45.70988" lon="4.66665">
        <ele>409.8</ele>
        <time>2025-08-06T09:33:01Z</time>
      </trkpt>
      <trkpt lat="45.70985" lon="4.66666">
        <ele>409.6</ele>
        <time>2025-08-06T09:33:02Z</time>
      </trkpt>
      <trkpt lat="45.70981" lon="4.6667">
        <ele>409.6</ele>
        <time>2025-08-06T09:33:03Z</time>
      </trkpt>
      <trkpt lat="45.70978" lon="4.66672">
        <ele>409.6</ele>
        <time>2025-08-06T09:33:04Z</time>
      </trkpt>
      <trkpt lat="45.70974" lon="4.66675">
        <ele>409.4</ele>
        <time>2025-08-06T09:33:05Z</time>
      </trkpt>
      <trkpt lat="45.70971" lon="4.66678">
        <ele>409.2</ele>
        <time>2025-08-06T09:33:06Z</time>
      </trkpt>
      <trkpt lat="45.70967" lon="4.6668">
        <ele>409.2</ele>
        <time>2025-08-06T09:33:07Z</time>
      </trkpt>
      <trkpt lat="45.70963" lon="4.66684">
        <ele>408.8</ele>
        <time>2025-08-06T09:33:08Z</time>
      </trkpt>
      <trkpt lat="45.70958" lon="4.66687">
        <ele>408.6</ele>
        <time>2025-08-06T09:33:09Z</time>
      </trkpt>
      <trkpt lat="45.70955" lon="4.66689">
        <ele>408.4</ele>
        <time>2025-08-06T09:33:10Z</time>
      </trkpt>
      <trkpt lat="45.70951" lon="4.66692">
        <ele>408</ele>
        <time>2025-08-06T09:33:11Z</time>
      </trkpt>
      <trkpt lat="45.70946" lon="4.66696">
        <ele>407.8</ele>
        <time>2025-08-06T09:33:12Z</time>
      </trkpt>
      <trkpt lat="45.70942" lon="4.667">
        <ele>407.6</ele>
        <time>2025-08-06T09:33:13Z</time>
      </trkpt>
      <trkpt lat="45.70937" lon="4.66703">
        <ele>407.4</ele>
        <time>2025-08-06T09:33:14Z</time>
      </trkpt>
      <trkpt lat="45.70933" lon="4.66706">
        <ele>407.2</ele>
        <time>2025-08-06T09:33:15Z</time>
      </trkpt>
      <trkpt lat="45.70929" lon="4.66709">
        <ele>407</ele>
        <time>2025-08-06T09:33:16Z</time>
      </trkpt>
      <trkpt lat="45.70924" lon="4.66712">
        <ele>406.8</ele>
        <time>2025-08-06T09:33:17Z</time>
      </trkpt>
      <trkpt lat="45.7092" lon="4.66715">
        <ele>406.6</ele>
        <time>2025-08-06T09:33:18Z</time>
      </trkpt>
      <trkpt lat="45.70916" lon="4.66718">
        <ele>406.4</ele>
        <time>2025-08-06T09:33:19Z</time>
      </trkpt>
      <trkpt lat="45.70912" lon="4.66721">
        <ele>406.4</ele>
        <time>2025-08-06T09:33:20Z</time>
      </trkpt>
      <trkpt lat="45.70908" lon="4.66724">
        <ele>406.2</ele>
        <time>2025-08-06T09:33:21Z</time>
      </trkpt>
      <trkpt lat="45.70904" lon="4.66727">
        <ele>406</ele>
        <time>2025-08-06T09:33:22Z</time>
      </trkpt>
      <trkpt lat="45.70899" lon="4.6673">
        <ele>405.8</ele>
        <time>2025-08-06T09:33:23Z</time>
      </trkpt>
      <trkpt lat="45.70894" lon="4.66733">
        <ele>405.6</ele>
        <time>2025-08-06T09:33:24Z</time>
      </trkpt>
      <trkpt lat="45.70889" lon="4.66737">
        <ele>405.4</ele>
        <time>2025-08-06T09:33:25Z</time>
      </trkpt>
      <trkpt lat="45.70884" lon="4.6674">
        <ele>405.2</ele>
        <time>2025-08-06T09:33:26Z</time>
      </trkpt>
      <trkpt lat="45.70879" lon="4.66744">
        <ele>405</ele>
        <time>2025-08-06T09:33:27Z</time>
      </trkpt>
      <trkpt lat="45.70875" lon="4.66748">
        <ele>404.8</ele>
        <time>2025-08-06T09:33:28Z</time>
      </trkpt>
      <trkpt lat="45.70872" lon="4.66751">
        <ele>404.8</ele>
        <time>2025-08-06T09:33:29Z</time>
      </trkpt>
      <trkpt lat="45.70866" lon="4.66756">
        <ele>404.8</ele>
        <time>2025-08-06T09:33:30Z</time>
      </trkpt>
      <trkpt lat="45.70863" lon="4.66759">
        <ele>404.8</ele>
        <time>2025-08-06T09:33:31Z</time>
      </trkpt>
      <trkpt lat="45.70858" lon="4.66762">
        <ele>404.8</ele>
        <time>2025-08-06T09:33:32Z</time>
      </trkpt>
      <trkpt lat="45.70853" lon="4.66766">
        <ele>404.8</ele>
        <time>2025-08-06T09:33:33Z</time>
      </trkpt>
      <trkpt lat="45.70848" lon="4.6677">
        <ele>404.8</ele>
        <time>2025-08-06T09:33:34Z</time>
      </trkpt>
      <trkpt lat="45.70843" lon="4.66773">
        <ele>404.6</ele>
        <time>2025-08-06T09:33:35Z</time>
      </trkpt>
      <trkpt lat="45.7084" lon="4.66776">
        <ele>404.6</ele>
        <time>2025-08-06T09:33:36Z</time>
      </trkpt>
      <trkpt lat="45.70836" lon="4.6678">
        <ele>404.4</ele>
        <time>2025-08-06T09:33:37Z</time>
      </trkpt>
      <trkpt lat="45.70832" lon="4.66782">
        <ele>404.2</ele>
        <time>2025-08-06T09:33:38Z</time>
      </trkpt>
      <trkpt lat="45.70828" lon="4.66784">
        <ele>404</ele>
        <time>2025-08-06T09:33:39Z</time>
      </trkpt>
      <trkpt lat="45.70825" lon="4.66786">
        <ele>404</ele>
        <time>2025-08-06T09:33:40Z</time>
      </trkpt>
      <trkpt lat="45.70821" lon="4.66788">
        <ele>403.8</ele>
        <time>2025-08-06T09:33:41Z</time>
      </trkpt>
      <trkpt lat="45.70818" lon="4.66791">
        <ele>403.6</ele>
        <time>2025-08-06T09:33:42Z</time>
      </trkpt>
      <trkpt lat="45.70815" lon="4.66793">
        <ele>403.6</ele>
        <time>2025-08-06T09:33:43Z</time>
      </trkpt>
      <trkpt lat="45.70812" lon="4.66796">
        <ele>403.4</ele>
        <time>2025-08-06T09:33:44Z</time>
      </trkpt>
      <trkpt lat="45.7081" lon="4.66799">
        <ele>403.2</ele>
        <time>2025-08-06T09:33:45Z</time>
      </trkpt>
      <trkpt lat="45.70808" lon="4.66802">
        <ele>403.2</ele>
        <time>2025-08-06T09:33:46Z</time>
      </trkpt>
      <trkpt lat="45.70806" lon="4.66805">
        <ele>403</ele>
        <time>2025-08-06T09:33:47Z</time>
      </trkpt>
      <trkpt lat="45.70804" lon="4.66808">
        <ele>402.8</ele>
        <time>2025-08-06T09:33:48Z</time>
      </trkpt>
      <trkpt lat="45.70802" lon="4.66811">
        <ele>402.6</ele>
        <time>2025-08-06T09:33:49Z</time>
      </trkpt>
      <trkpt lat="45.708" lon="4.66814">
        <ele>402.4</ele>
        <time>2025-08-06T09:33:50Z</time>
      </trkpt>
      <trkpt lat="45.70797" lon="4.66818">
        <ele>402</ele>
        <time>2025-08-06T09:33:51Z</time>
      </trkpt>
      <trkpt lat="45.70794" lon="4.66821">
        <ele>401.8</ele>
        <time>2025-08-06T09:33:52Z</time>
      </trkpt>
      <trkpt lat="45.70793" lon="4.66824">
        <ele>401.6</ele>
        <time>2025-08-06T09:33:53Z</time>
      </trkpt>
      <trkpt lat="45.70791" lon="4.66826">
        <ele>401.4</ele>
        <time>2025-08-06T09:33:54Z</time>
      </trkpt>
      <trkpt lat="45.70788" lon="4.66829">
        <ele>401.2</ele>
        <time>2025-08-06T09:33:55Z</time>
      </trkpt>
      <trkpt lat="45.70787" lon="4.66831">
        <ele>401</ele>
        <time>2025-08-06T09:33:56Z</time>
      </trkpt>
      <trkpt lat="45.70785" lon="4.66834">
        <ele>400.8</ele>
        <time>2025-08-06T09:33:57Z</time>
      </trkpt>
      <trkpt lat="45.70783" lon="4.66836">
        <ele>400.6</ele>
        <time>2025-08-06T09:33:58Z</time>
      </trkpt>
      <trkpt lat="45.70781" lon="4.66839">
        <ele>400.4</ele>
        <time>2025-08-06T09:33:59Z</time>
      </trkpt>
      <trkpt lat="45.70779" lon="4.66843">
        <ele>400.2</ele>
        <time>2025-08-06T09:34:00Z</time>
      </trkpt>
      <trkpt lat="45.70777" lon="4.66846">
        <ele>400</ele>
        <time>2025-08-06T09:34:01Z</time>
      </trkpt>
      <trkpt lat="45.70775" lon="4.66848">
        <ele>399.6</ele>
        <time>2025-08-06T09:34:02Z</time>
      </trkpt>
      <trkpt lat="45.70773" lon="4.66852">
        <ele>399.4</ele>
        <time>2025-08-06T09:34:03Z</time>
      </trkpt>
      <trkpt lat="45.70771" lon="4.66855">
        <ele>399.2</ele>
        <time>2025-08-06T09:34:04Z</time>
      </trkpt>
      <trkpt lat="45.70769" lon="4.66858">
        <ele>398.8</ele>
        <time>2025-08-06T09:34:05Z</time>
      </trkpt>
      <trkpt lat="45.70766" lon="4.66862">
        <ele>398.4</ele>
        <time>2025-08-06T09:34:06Z</time>
      </trkpt>
      <trkpt lat="45.70764" lon="4.66865">
        <ele>398.2</ele>
        <time>2025-08-06T09:34:07Z</time>
      </trkpt>
      <trkpt lat="45.70761" lon="4.66869">
        <ele>397.8</ele>
        <time>2025-08-06T09:34:08Z</time>
      </trkpt>
      <trkpt lat="45.70759" lon="4.66872">
        <ele>397.6</ele>
        <time>2025-08-06T09:34:09Z</time>
      </trkpt>
      <trkpt lat="45.70756" lon="4.66876">
        <ele>397.4</ele>
        <time>2025-08-06T09:34:10Z</time>
      </trkpt>
      <trkpt lat="45.70754" lon="4.66879">
        <ele>397.2</ele>
        <time>2025-08-06T09:34:11Z</time>
      </trkpt>
      <trkpt lat="45.70752" lon="4.66882">
        <ele>397</ele>
        <time>2025-08-06T09:34:12Z</time>
      </trkpt>
      <trkpt lat="45.70748" lon="4.66887">
        <ele>396.8</ele>
        <time>2025-08-06T09:34:13Z</time>
      </trkpt>
      <trkpt lat="45.70745" lon="4.66891">
        <ele>396.2</ele>
        <time>2025-08-06T09:34:14Z</time>
      </trkpt>
      <trkpt lat="45.70743" lon="4.66895">
        <ele>396</ele>
        <time>2025-08-06T09:34:15Z</time>
      </trkpt>
      <trkpt lat="45.70739" lon="4.669">
        <ele>395.6</ele>
        <time>2025-08-06T09:34:16Z</time>
      </trkpt>
      <trkpt lat="45.70736" lon="4.66906">
        <ele>395.4</ele>
        <time>2025-08-06T09:34:17Z</time>
      </trkpt>
      <trkpt lat="45.70733" lon="4.6691">
        <ele>395.2</ele>
        <time>2025-08-06T09:34:18Z</time>
      </trkpt>
      <trkpt lat="45.70729" lon="4.66916">
        <ele>395</ele>
        <time>2025-08-06T09:34:19Z</time>
      </trkpt>
      <trkpt lat="45.70727" lon="4.66919">
        <ele>395</ele>
        <time>2025-08-06T09:34:20Z</time>
      </trkpt>
      <trkpt lat="45.70724" lon="4.66922">
        <ele>394.8</ele>
        <time>2025-08-06T09:34:21Z</time>
      </trkpt>
      <trkpt lat="45.70722" lon="4.66925">
        <ele>394.6</ele>
        <time>2025-08-06T09:34:22Z</time>
      </trkpt>
      <trkpt lat="45.70721" lon="4.66928">
        <ele>394.6</ele>
        <time>2025-08-06T09:34:23Z</time>
      </trkpt>
      <trkpt lat="45.7072" lon="4.66929">
        <ele>394.6</ele>
        <time>2025-08-06T09:34:24Z</time>
      </trkpt>
      <trkpt lat="45.7072" lon="4.66929">
        <ele>394.6</ele>
        <time>2025-08-06T09:34:25Z</time>
      </trkpt>
      <trkpt lat="45.7072" lon="4.66929">
        <ele>394.6</ele>
        <time>2025-08-06T09:34:26Z</time>
      </trkpt>
      <trkpt lat="45.70717" lon="4.66936">
        <ele>393.2</ele>
        <time>2025-08-06T09:36:42Z</time>
      </trkpt>
      <trkpt lat="45.70714" lon="4.66939">
        <ele>393.6</ele>
        <time>2025-08-06T09:36:43Z</time>
      </trkpt>
      <trkpt lat="45.70712" lon="4.66943">
        <ele>393.4</ele>
        <time>2025-08-06T09:36:44Z</time>
      </trkpt>
      <trkpt lat="45.7071" lon="4.66946">
        <ele>393</ele>
        <time>2025-08-06T09:36:45Z</time>
      </trkpt>
      <trkpt lat="45.70707" lon="4.6695">
        <ele>392.8</ele>
        <time>2025-08-06T09:36:46Z</time>
      </trkpt>
      <trkpt lat="45.70705" lon="4.66953">
        <ele>392.6</ele>
        <time>2025-08-06T09:36:47Z</time>
      </trkpt>
      <trkpt lat="45.70703" lon="4.66956">
        <ele>392.4</ele>
        <time>2025-08-06T09:36:48Z</time>
      </trkpt>
      <trkpt lat="45.70701" lon="4.66959">
        <ele>392.2</ele>
        <time>2025-08-06T09:36:49Z</time>
      </trkpt>
      <trkpt lat="45.70699" lon="4.66962">
        <ele>392.2</ele>
        <time>2025-08-06T09:36:50Z</time>
      </trkpt>
      <trkpt lat="45.70697" lon="4.66966">
        <ele>392</ele>
        <time>2025-08-06T09:36:51Z</time>
      </trkpt>
      <trkpt lat="45.70695" lon="4.6697">
        <ele>391.8</ele>
        <time>2025-08-06T09:36:52Z</time>
      </trkpt>
      <trkpt lat="45.70694" lon="4.66973">
        <ele>391.6</ele>
        <time>2025-08-06T09:36:53Z</time>
      </trkpt>
      <trkpt lat="45.70692" lon="4.66977">
        <ele>391.4</ele>
        <time>2025-08-06T09:36:54Z</time>
      </trkpt>
      <trkpt lat="45.7069" lon="4.66981">
        <ele>391.2</ele>
        <time>2025-08-06T09:36:55Z</time>
      </trkpt>
      <trkpt lat="45.70688" lon="4.66984">
        <ele>391</ele>
        <time>2025-08-06T09:36:56Z</time>
      </trkpt>
      <trkpt lat="45.70685" lon="4.66987">
        <ele>390.8</ele>
        <time>2025-08-06T09:36:57Z</time>
      </trkpt>
      <trkpt lat="45.70684" lon="4.6699">
        <ele>390.6</ele>
        <time>2025-08-06T09:36:58Z</time>
      </trkpt>
      <trkpt lat="45.70682" lon="4.66993">
        <ele>390.2</ele>
        <time>2025-08-06T09:36:59Z</time>
      </trkpt>
      <trkpt lat="45.7068" lon="4.66995">
        <ele>390</ele>
        <time>2025-08-06T09:37:00Z</time>
      </trkpt>
      <trkpt lat="45.70678" lon="4.66997">
        <ele>390</ele>
        <time>2025-08-06T09:37:01Z</time>
      </trkpt>
      <trkpt lat="45.70677" lon="4.66999">
        <ele>389.8</ele>
        <time>2025-08-06T09:37:02Z</time>
      </trkpt>
      <trkpt lat="45.70675" lon="4.67">
        <ele>389.6</ele>
        <time>2025-08-06T09:37:03Z</time>
      </trkpt>
      <trkpt lat="45.70674" lon="4.67002">
        <ele>389.4</ele>
        <time>2025-08-06T09:37:04Z</time>
      </trkpt>
      <trkpt lat="45.70673" lon="4.67003">
        <ele>389.2</ele>
        <time>2025-08-06T09:37:05Z</time>
      </trkpt>
      <trkpt lat="45.70672" lon="4.67004">
        <ele>389</ele>
        <time>2025-08-06T09:37:06Z</time>
      </trkpt>
      <trkpt lat="45.7067" lon="4.67006">
        <ele>389</ele>
        <time>2025-08-06T09:37:07Z</time>
      </trkpt>
      <trkpt lat="45.70669" lon="4.67008">
        <ele>388.8</ele>
        <time>2025-08-06T09:37:08Z</time>
      </trkpt>
      <trkpt lat="45.70668" lon="4.6701">
        <ele>388.6</ele>
        <time>2025-08-06T09:37:09Z</time>
      </trkpt>
      <trkpt lat="45.70666" lon="4.67012">
        <ele>388.2</ele>
        <time>2025-08-06T09:37:10Z</time>
      </trkpt>
      <trkpt lat="45.70664" lon="4.67015">
        <ele>388</ele>
        <time>2025-08-06T09:37:11Z</time>
      </trkpt>
      <trkpt lat="45.70662" lon="4.67017">
        <ele>387.6</ele>
        <time>2025-08-06T09:37:12Z</time>
      </trkpt>
      <trkpt lat="45.70659" lon="4.6702">
        <ele>387.4</ele>
        <time>2025-08-06T09:37:13Z</time>
      </trkpt>
      <trkpt lat="45.70656" lon="4.67024">
        <ele>387</ele>
        <time>2025-08-06T09:37:14Z</time>
      </trkpt>
      <trkpt lat="45.70653" lon="4.67027">
        <ele>386.6</ele>
        <time>2025-08-06T09:37:15Z</time>
      </trkpt>
      <trkpt lat="45.70649" lon="4.67029">
        <ele>386.2</ele>
        <time>2025-08-06T09:37:16Z</time>
      </trkpt>
      <trkpt lat="45.70645" lon="4.67031">
        <ele>385.8</ele>
        <time>2025-08-06T09:37:17Z</time>
      </trkpt>
      <trkpt lat="45.70641" lon="4.67033">
        <ele>385.4</ele>
        <time>2025-08-06T09:37:18Z</time>
      </trkpt>
      <trkpt lat="45.70637" lon="4.67036">
        <ele>385</ele>
        <time>2025-08-06T09:37:19Z</time>
      </trkpt>
      <trkpt lat="45.70633" lon="4.67039">
        <ele>384.6</ele>
        <time>2025-08-06T09:37:20Z</time>
      </trkpt>
      <trkpt lat="45.70629" lon="4.67042">
        <ele>384.2</ele>
        <time>2025-08-06T09:37:21Z</time>
      </trkpt>
      <trkpt lat="45.70625" lon="4.67044">
        <ele>383.8</ele>
        <time>2025-08-06T09:37:22Z</time>
      </trkpt>
      <trkpt lat="45.7062" lon="4.67047">
        <ele>383.2</ele>
        <time>2025-08-06T09:37:23Z</time>
      </trkpt>
      <trkpt lat="45.70615" lon="4.67049">
        <ele>382.8</ele>
        <time>2025-08-06T09:37:24Z</time>
      </trkpt>
      <trkpt lat="45.70609" lon="4.67052">
        <ele>382.4</ele>
        <time>2025-08-06T09:37:25Z</time>
      </trkpt>
      <trkpt lat="45.70604" lon="4.67053">
        <ele>382</ele>
        <time>2025-08-06T09:37:26Z</time>
      </trkpt>
      <trkpt lat="45.70599" lon="4.67055">
        <ele>381.6</ele>
        <time>2025-08-06T09:37:27Z</time>
      </trkpt>
      <trkpt lat="45.70595" lon="4.67057">
        <ele>381.2</ele>
        <time>2025-08-06T09:37:28Z</time>
      </trkpt>
      <trkpt lat="45.70592" lon="4.67058">
        <ele>381</ele>
        <time>2025-08-06T09:37:29Z</time>
      </trkpt>
      <trkpt lat="45.7059" lon="4.67058">
        <ele>380.8</ele>
        <time>2025-08-06T09:37:30Z</time>
      </trkpt>
      <trkpt lat="45.70588" lon="4.67059">
        <ele>380.6</ele>
        <time>2025-08-06T09:37:31Z</time>
      </trkpt>
      <trkpt lat="45.70587" lon="4.6706">
        <ele>380.4</ele>
        <time>2025-08-06T09:37:32Z</time>
      </trkpt>
      <trkpt lat="45.70585" lon="4.67061">
        <ele>380.4</ele>
        <time>2025-08-06T09:37:33Z</time>
      </trkpt>
      <trkpt lat="45.70583" lon="4.67061">
        <ele>380</ele>
        <time>2025-08-06T09:37:34Z</time>
      </trkpt>
      <trkpt lat="45.7058" lon="4.6706">
        <ele>379.8</ele>
        <time>2025-08-06T09:37:35Z</time>
      </trkpt>
      <trkpt lat="45.70578" lon="4.67058">
        <ele>379.6</ele>
        <time>2025-08-06T09:37:36Z</time>
      </trkpt>
      <trkpt lat="45.70576" lon="4.67057">
        <ele>379.2</ele>
        <time>2025-08-06T09:37:37Z</time>
      </trkpt>
      <trkpt lat="45.70574" lon="4.67057">
        <ele>378.8</ele>
        <time>2025-08-06T09:37:38Z</time>
      </trkpt>
      <trkpt lat="45.70571" lon="4.67057">
        <ele>378.6</ele>
        <time>2025-08-06T09:37:39Z</time>
      </trkpt>
      <trkpt lat="45.70569" lon="4.67059">
        <ele>378.2</ele>
        <time>2025-08-06T09:37:40Z</time>
      </trkpt>
      <trkpt lat="45.70566" lon="4.67061">
        <ele>377.6</ele>
        <time>2025-08-06T09:37:41Z</time>
      </trkpt>
      <trkpt lat="45.70564" lon="4.67063">
        <ele>377.2</ele>
        <time>2025-08-06T09:37:42Z</time>
      </trkpt>
      <trkpt lat="45.70562" lon="4.67064">
        <ele>376.8</ele>
        <time>2025-08-06T09:37:43Z</time>
      </trkpt>
      <trkpt lat="45.7056" lon="4.67067">
        <ele>376.6</ele>
        <time>2025-08-06T09:37:44Z</time>
      </trkpt>
      <trkpt lat="45.70558" lon="4.67069">
        <ele>376.2</ele>
        <time>2025-08-06T09:37:45Z</time>
      </trkpt>
      <trkpt lat="45.70557" lon="4.67072">
        <ele>375.8</ele>
        <time>2025-08-06T09:37:46Z</time>
      </trkpt>
      <trkpt lat="45.70555" lon="4.67075">
        <ele>375.4</ele>
        <time>2025-08-06T09:37:47Z</time>
      </trkpt>
      <trkpt lat="45.70553" lon="4.67078">
        <ele>374.8</ele>
        <time>2025-08-06T09:37:48Z</time>
      </trkpt>
      <trkpt lat="45.70551" lon="4.6708">
        <ele>374.4</ele>
        <time>2025-08-06T09:37:49Z</time>
      </trkpt>
      <trkpt lat="45.70548" lon="4.67082">
        <ele>374</ele>
        <time>2025-08-06T09:37:50Z</time>
      </trkpt>
      <trkpt lat="45.70545" lon="4.67084">
        <ele>373.4</ele>
        <time>2025-08-06T09:37:51Z</time>
      </trkpt>
      <trkpt lat="45.70542" lon="4.67086">
        <ele>373</ele>
        <time>2025-08-06T09:37:52Z</time>
      </trkpt>
      <trkpt lat="45.70539" lon="4.67089">
        <ele>372.4</ele>
        <time>2025-08-06T09:37:53Z</time>
      </trkpt>
      <trkpt lat="45.70536" lon="4.67092">
        <ele>372</ele>
        <time>2025-08-06T09:37:54Z</time>
      </trkpt>
      <trkpt lat="45.70534" lon="4.67095">
        <ele>371.6</ele>
        <time>2025-08-06T09:37:55Z</time>
      </trkpt>
      <trkpt lat="45.70532" lon="4.67099">
        <ele>371.4</ele>
        <time>2025-08-06T09:37:56Z</time>
      </trkpt>
      <trkpt lat="45.7053" lon="4.67102">
        <ele>371</ele>
        <time>2025-08-06T09:37:57Z</time>
      </trkpt>
      <trkpt lat="45.70528" lon="4.67105">
        <ele>370.6</ele>
        <time>2025-08-06T09:37:58Z</time>
      </trkpt>
      <trkpt lat="45.70525" lon="4.67106">
        <ele>370.4</ele>
        <time>2025-08-06T09:37:59Z</time>
      </trkpt>
      <trkpt lat="45.70523" lon="4.67108">
        <ele>370</ele>
        <time>2025-08-06T09:38:00Z</time>
      </trkpt>
      <trkpt lat="45.7052" lon="4.6711">
        <ele>369.6</ele>
        <time>2025-08-06T09:38:01Z</time>
      </trkpt>
      <trkpt lat="45.70518" lon="4.67113">
        <ele>369.4</ele>
        <time>2025-08-06T09:38:02Z</time>
      </trkpt>
      <trkpt lat="45.70516" lon="4.67116">
        <ele>369</ele>
        <time>2025-08-06T09:38:03Z</time>
      </trkpt>
      <trkpt lat="45.70512" lon="4.67119">
        <ele>368.6</ele>
        <time>2025-08-06T09:38:04Z</time>
      </trkpt>
      <trkpt lat="45.7051" lon="4.67123">
        <ele>368.2</ele>
        <time>2025-08-06T09:38:05Z</time>
      </trkpt>
      <trkpt lat="45.70507" lon="4.67126">
        <ele>368</ele>
        <time>2025-08-06T09:38:06Z</time>
      </trkpt>
      <trkpt lat="45.70504" lon="4.67128">
        <ele>367.6</ele>
        <time>2025-08-06T09:38:07Z</time>
      </trkpt>
      <trkpt lat="45.70501" lon="4.67131">
        <ele>367.4</ele>
        <time>2025-08-06T09:38:08Z</time>
      </trkpt>
      <trkpt lat="45.705" lon="4.67132">
        <ele>367.2</ele>
        <time>2025-08-06T09:38:09Z</time>
      </trkpt>
      <trkpt lat="45.70498" lon="4.67133">
        <ele>366.8</ele>
        <time>2025-08-06T09:38:10Z</time>
      </trkpt>
      <trkpt lat="45.70496" lon="4.67135">
        <ele>366.6</ele>
        <time>2025-08-06T09:38:11Z</time>
      </trkpt>
      <trkpt lat="45.70493" lon="4.67138">
        <ele>366.2</ele>
        <time>2025-08-06T09:38:12Z</time>
      </trkpt>
      <trkpt lat="45.7049" lon="4.6714">
        <ele>365.8</ele>
        <time>2025-08-06T09:38:13Z</time>
      </trkpt>
      <trkpt lat="45.70488" lon="4.67143">
        <ele>365.4</ele>
        <time>2025-08-06T09:38:14Z</time>
      </trkpt>
      <trkpt lat="45.70485" lon="4.67145">
        <ele>365</ele>
        <time>2025-08-06T09:38:15Z</time>
      </trkpt>
      <trkpt lat="45.70483" lon="4.67147">
        <ele>364.6</ele>
        <time>2025-08-06T09:38:16Z</time>
      </trkpt>
      <trkpt lat="45.70481" lon="4.67149">
        <ele>364.2</ele>
        <time>2025-08-06T09:38:17Z</time>
      </trkpt>
      <trkpt lat="45.70478" lon="4.67151">
        <ele>363.8</ele>
        <time>2025-08-06T09:38:18Z</time>
      </trkpt>
      <trkpt lat="45.70476" lon="4.67153">
        <ele>363.6</ele>
        <time>2025-08-06T09:38:19Z</time>
      </trkpt>
      <trkpt lat="45.70474" lon="4.67155">
        <ele>363.2</ele>
        <time>2025-08-06T09:38:20Z</time>
      </trkpt>
      <trkpt lat="45.70472" lon="4.67158">
        <ele>362.8</ele>
        <time>2025-08-06T09:38:21Z</time>
      </trkpt>
      <trkpt lat="45.7047" lon="4.67161">
        <ele>362.4</ele>
        <time>2025-08-06T09:38:22Z</time>
      </trkpt>
      <trkpt lat="45.70467" lon="4.67165">
        <ele>362</ele>
        <time>2025-08-06T09:38:23Z</time>
      </trkpt>
      <trkpt lat="45.70465" lon="4.67168">
        <ele>361.4</ele>
        <time>2025-08-06T09:38:24Z</time>
      </trkpt>
      <trkpt lat="45.70462" lon="4.67172">
        <ele>360.8</ele>
        <time>2025-08-06T09:38:25Z</time>
      </trkpt>
      <trkpt lat="45.70459" lon="4.67176">
        <ele>360.2</ele>
        <time>2025-08-06T09:38:26Z</time>
      </trkpt>
      <trkpt lat="45.70455" lon="4.67181">
        <ele>359.6</ele>
        <time>2025-08-06T09:38:27Z</time>
      </trkpt>
      <trkpt lat="45.70453" lon="4.67186">
        <ele>359</ele>
        <time>2025-08-06T09:38:28Z</time>
      </trkpt>
      <trkpt lat="45.70451" lon="4.67191">
        <ele>358.6</ele>
        <time>2025-08-06T09:38:29Z</time>
      </trkpt>
      <trkpt lat="45.7045" lon="4.67195">
        <ele>358.4</ele>
        <time>2025-08-06T09:38:30Z</time>
      </trkpt>
      <trkpt lat="45.70451" lon="4.67199">
        <ele>358</ele>
        <time>2025-08-06T09:38:31Z</time>
      </trkpt>
      <trkpt lat="45.70452" lon="4.67202">
        <ele>357.8</ele>
        <time>2025-08-06T09:38:32Z</time>
      </trkpt>
      <trkpt lat="45.70454" lon="4.67203">
        <ele>357.4</ele>
        <time>2025-08-06T09:38:33Z</time>
      </trkpt>
      <trkpt lat="45.70456" lon="4.67205">
        <ele>357</ele>
        <time>2025-08-06T09:38:34Z</time>
      </trkpt>
      <trkpt lat="45.70459" lon="4.67207">
        <ele>356.8</ele>
        <time>2025-08-06T09:38:35Z</time>
      </trkpt>
      <trkpt lat="45.70463" lon="4.67209">
        <ele>356.6</ele>
        <time>2025-08-06T09:38:36Z</time>
      </trkpt>
      <trkpt lat="45.70466" lon="4.67211">
        <ele>356.6</ele>
        <time>2025-08-06T09:38:37Z</time>
      </trkpt>
      <trkpt lat="45.7047" lon="4.67212">
        <ele>356.6</ele>
        <time>2025-08-06T09:38:38Z</time>
      </trkpt>
      <trkpt lat="45.70474" lon="4.67214">
        <ele>356.6</ele>
        <time>2025-08-06T09:38:39Z</time>
      </trkpt>
      <trkpt lat="45.70478" lon="4.67215">
        <ele>356.4</ele>
        <time>2025-08-06T09:38:40Z</time>
      </trkpt>
      <trkpt lat="45.70482" lon="4.67216">
        <ele>356.4</ele>
        <time>2025-08-06T09:38:41Z</time>
      </trkpt>
      <trkpt lat="45.70486" lon="4.67217">
        <ele>356.4</ele>
        <time>2025-08-06T09:38:42Z</time>
      </trkpt>
      <trkpt lat="45.7049" lon="4.67217">
        <ele>356.4</ele>
        <time>2025-08-06T09:38:43Z</time>
      </trkpt>
      <trkpt lat="45.70494" lon="4.67217">
        <ele>356.6</ele>
        <time>2025-08-06T09:38:44Z</time>
      </trkpt>
      <trkpt lat="45.70498" lon="4.67217">
        <ele>356.6</ele>
        <time>2025-08-06T09:38:45Z</time>
      </trkpt>
      <trkpt lat="45.70502" lon="4.67218">
        <ele>356.8</ele>
        <time>2025-08-06T09:38:46Z</time>
      </trkpt>
      <trkpt lat="45.70506" lon="4.67218">
        <ele>357.2</ele>
        <time>2025-08-06T09:38:47Z</time>
      </trkpt>
      <trkpt lat="45.70509" lon="4.67218">
        <ele>357.6</ele>
        <time>2025-08-06T09:38:48Z</time>
      </trkpt>
      <trkpt lat="45.70513" lon="4.67218">
        <ele>358</ele>
        <time>2025-08-06T09:38:49Z</time>
      </trkpt>
      <trkpt lat="45.70516" lon="4.67218">
        <ele>358.4</ele>
        <time>2025-08-06T09:38:50Z</time>
      </trkpt>
      <trkpt lat="45.7052" lon="4.67217">
        <ele>358.8</ele>
        <time>2025-08-06T09:38:51Z</time>
      </trkpt>
      <trkpt lat="45.70524" lon="4.67217">
        <ele>359.2</ele>
        <time>2025-08-06T09:38:52Z</time>
      </trkpt>
      <trkpt lat="45.70527" lon="4.67216">
        <ele>359.6</ele>
        <time>2025-08-06T09:38:53Z</time>
      </trkpt>
      <trkpt lat="45.70531" lon="4.67216">
        <ele>360</ele>
        <time>2025-08-06T09:38:54Z</time>
      </trkpt>
      <trkpt lat="45.70534" lon="4.67215">
        <ele>360.2</ele>
        <time>2025-08-06T09:38:55Z</time>
      </trkpt>
      <trkpt lat="45.70538" lon="4.67215">
        <ele>360.6</ele>
        <time>2025-08-06T09:38:56Z</time>
      </trkpt>
      <trkpt lat="45.70541" lon="4.67215">
        <ele>361</ele>
        <time>2025-08-06T09:38:57Z</time>
      </trkpt>
      <trkpt lat="45.70545" lon="4.67215">
        <ele>361.4</ele>
        <time>2025-08-06T09:38:58Z</time>
      </trkpt>
      <trkpt lat="45.70548" lon="4.67214">
        <ele>361.8</ele>
        <time>2025-08-06T09:38:59Z</time>
      </trkpt>
      <trkpt lat="45.70551" lon="4.67213">
        <ele>362.2</ele>
        <time>2025-08-06T09:39:00Z</time>
      </trkpt>
      <trkpt lat="45.70554" lon="4.67212">
        <ele>362.6</ele>
        <time>2025-08-06T09:39:01Z</time>
      </trkpt>
      <trkpt lat="45.70557" lon="4.67212">
        <ele>363</ele>
        <time>2025-08-06T09:39:02Z</time>
      </trkpt>
      <trkpt lat="45.70561" lon="4.67212">
        <ele>363.2</ele>
        <time>2025-08-06T09:39:03Z</time>
      </trkpt>
      <trkpt lat="45.70564" lon="4.67212">
        <ele>363.6</ele>
        <time>2025-08-06T09:39:04Z</time>
      </trkpt>
      <trkpt lat="45.70568" lon="4.67212">
        <ele>364</ele>
        <time>2025-08-06T09:39:05Z</time>
      </trkpt>
      <trkpt lat="45.70571" lon="4.67211">
        <ele>364.4</ele>
        <time>2025-08-06T09:39:06Z</time>
      </trkpt>
      <trkpt lat="45.70575" lon="4.67211">
        <ele>364.8</ele>
        <time>2025-08-06T09:39:07Z</time>
      </trkpt>
      <trkpt lat="45.70578" lon="4.67211">
        <ele>365.2</ele>
        <time>2025-08-06T09:39:08Z</time>
      </trkpt>
      <trkpt lat="45.70582" lon="4.67211">
        <ele>365.8</ele>
        <time>2025-08-06T09:39:09Z</time>
      </trkpt>
      <trkpt lat="45.70586" lon="4.67211">
        <ele>366.2</ele>
        <time>2025-08-06T09:39:10Z</time>
      </trkpt>
      <trkpt lat="45.70589" lon="4.67211">
        <ele>366.6</ele>
        <time>2025-08-06T09:39:11Z</time>
      </trkpt>
      <trkpt lat="45.70593" lon="4.6721">
        <ele>367</ele>
        <time>2025-08-06T09:39:12Z</time>
      </trkpt>
      <trkpt lat="45.70596" lon="4.6721">
        <ele>367.4</ele>
        <time>2025-08-06T09:39:13Z</time>
      </trkpt>
      <trkpt lat="45.706" lon="4.6721">
        <ele>367.8</ele>
        <time>2025-08-06T09:39:14Z</time>
      </trkpt>
      <trkpt lat="45.70603" lon="4.67209">
        <ele>368.2</ele>
        <time>2025-08-06T09:39:15Z</time>
      </trkpt>
      <trkpt lat="45.70607" lon="4.67209">
        <ele>368.4</ele>
        <time>2025-08-06T09:39:16Z</time>
      </trkpt>
      <trkpt lat="45.70611" lon="4.67209">
        <ele>368.8</ele>
        <time>2025-08-06T09:39:17Z</time>
      </trkpt>
      <trkpt lat="45.70615" lon="4.67208">
        <ele>369.2</ele>
        <time>2025-08-06T09:39:18Z</time>
      </trkpt>
      <trkpt lat="45.70618" lon="4.67208">
        <ele>369.6</ele>
        <time>2025-08-06T09:39:19Z</time>
      </trkpt>
      <trkpt lat="45.70622" lon="4.67209">
        <ele>369.8</ele>
        <time>2025-08-06T09:39:20Z</time>
      </trkpt>
      <trkpt lat="45.70626" lon="4.67209">
        <ele>370</ele>
        <time>2025-08-06T09:39:21Z</time>
      </trkpt>
      <trkpt lat="45.70629" lon="4.67209">
        <ele>370.4</ele>
        <time>2025-08-06T09:39:22Z</time>
      </trkpt>
      <trkpt lat="45.70631" lon="4.67209">
        <ele>370.6</ele>
        <time>2025-08-06T09:39:23Z</time>
      </trkpt>
      <trkpt lat="45.70634" lon="4.67209">
        <ele>370.8</ele>
        <time>2025-08-06T09:39:24Z</time>
      </trkpt>
      <trkpt lat="45.70637" lon="4.67209">
        <ele>371.2</ele>
        <time>2025-08-06T09:39:25Z</time>
      </trkpt>
      <trkpt lat="45.7064" lon="4.67209">
        <ele>371.4</ele>
        <time>2025-08-06T09:39:26Z</time>
      </trkpt>
      <trkpt lat="45.70643" lon="4.67209">
        <ele>371.6</ele>
        <time>2025-08-06T09:39:27Z</time>
      </trkpt>
      <trkpt lat="45.70647" lon="4.67209">
        <ele>371.8</ele>
        <time>2025-08-06T09:39:28Z</time>
      </trkpt>
      <trkpt lat="45.70651" lon="4.67209">
        <ele>372</ele>
        <time>2025-08-06T09:39:29Z</time>
      </trkpt>
      <trkpt lat="45.70655" lon="4.67208">
        <ele>372.4</ele>
        <time>2025-08-06T09:39:30Z</time>
      </trkpt>
      <trkpt lat="45.70659" lon="4.67208">
        <ele>372.6</ele>
        <time>2025-08-06T09:39:31Z</time>
      </trkpt>
      <trkpt lat="45.70662" lon="4.67207">
        <ele>372.8</ele>
        <time>2025-08-06T09:39:32Z</time>
      </trkpt>
      <trkpt lat="45.70666" lon="4.67207">
        <ele>373</ele>
        <time>2025-08-06T09:39:33Z</time>
      </trkpt>
      <trkpt lat="45.7067" lon="4.67207">
        <ele>373</ele>
        <time>2025-08-06T09:39:34Z</time>
      </trkpt>
      <trkpt lat="45.70674" lon="4.67207">
        <ele>373.2</ele>
        <time>2025-08-06T09:39:35Z</time>
      </trkpt>
      <trkpt lat="45.70678" lon="4.67207">
        <ele>373.4</ele>
        <time>2025-08-06T09:39:36Z</time>
      </trkpt>
      <trkpt lat="45.70682" lon="4.67208">
        <ele>373.6</ele>
        <time>2025-08-06T09:39:37Z</time>
      </trkpt>
      <trkpt lat="45.70685" lon="4.67207">
        <ele>374</ele>
        <time>2025-08-06T09:39:38Z</time>
      </trkpt>
      <trkpt lat="45.70689" lon="4.67207">
        <ele>374.2</ele>
        <time>2025-08-06T09:39:39Z</time>
      </trkpt>
      <trkpt lat="45.70692" lon="4.67207">
        <ele>374.4</ele>
        <time>2025-08-06T09:39:40Z</time>
      </trkpt>
      <trkpt lat="45.70696" lon="4.67207">
        <ele>374.6</ele>
        <time>2025-08-06T09:39:41Z</time>
      </trkpt>
      <trkpt lat="45.70699" lon="4.67207">
        <ele>374.8</ele>
        <time>2025-08-06T09:39:42Z</time>
      </trkpt>
      <trkpt lat="45.70703" lon="4.67208">
        <ele>375</ele>
        <time>2025-08-06T09:39:43Z</time>
      </trkpt>
      <trkpt lat="45.70706" lon="4.67208">
        <ele>375</ele>
        <time>2025-08-06T09:39:44Z</time>
      </trkpt>
      <trkpt lat="45.7071" lon="4.67207">
        <ele>375.2</ele>
        <time>2025-08-06T09:39:45Z</time>
      </trkpt>
      <trkpt lat="45.70714" lon="4.67207">
        <ele>375.4</ele>
        <time>2025-08-06T09:39:46Z</time>
      </trkpt>
      <trkpt lat="45.70717" lon="4.67207">
        <ele>375.8</ele>
        <time>2025-08-06T09:39:47Z</time>
      </trkpt>
      <trkpt lat="45.70721" lon="4.67207">
        <ele>376.2</ele>
        <time>2025-08-06T09:39:48Z</time>
      </trkpt>
      <trkpt lat="45.70725" lon="4.67207">
        <ele>376.6</ele>
        <time>2025-08-06T09:39:49Z</time>
      </trkpt>
      <trkpt lat="45.70728" lon="4.67206">
        <ele>376.8</ele>
        <time>2025-08-06T09:39:50Z</time>
      </trkpt>
      <trkpt lat="45.70732" lon="4.67206">
        <ele>377.2</ele>
        <time>2025-08-06T09:39:51Z</time>
      </trkpt>
      <trkpt lat="45.70735" lon="4.67206">
        <ele>377.2</ele>
        <time>2025-08-06T09:39:52Z</time>
      </trkpt>
      <trkpt lat="45.70739" lon="4.67205">
        <ele>377.4</ele>
        <time>2025-08-06T09:39:53Z</time>
      </trkpt>
      <trkpt lat="45.70743" lon="4.67205">
        <ele>377.6</ele>
        <time>2025-08-06T09:39:54Z</time>
      </trkpt>
      <trkpt lat="45.70746" lon="4.67205">
        <ele>377.8</ele>
        <time>2025-08-06T09:39:55Z</time>
      </trkpt>
      <trkpt lat="45.7075" lon="4.67205">
        <ele>378</ele>
        <time>2025-08-06T09:39:56Z</time>
      </trkpt>
      <trkpt lat="45.70754" lon="4.67204">
        <ele>378</ele>
        <time>2025-08-06T09:39:57Z</time>
      </trkpt>
      <trkpt lat="45.70758" lon="4.67204">
        <ele>378</ele>
        <time>2025-08-06T09:39:58Z</time>
      </trkpt>
      <trkpt lat="45.70762" lon="4.67204">
        <ele>378.2</ele>
        <time>2025-08-06T09:39:59Z</time>
      </trkpt>
      <trkpt lat="45.70766" lon="4.67203">
        <ele>378.4</ele>
        <time>2025-08-06T09:40:00Z</time>
      </trkpt>
      <trkpt lat="45.7077" lon="4.67202">
        <ele>378.4</ele>
        <time>2025-08-06T09:40:01Z</time>
      </trkpt>
      <trkpt lat="45.70774" lon="4.67202">
        <ele>378.6</ele>
        <time>2025-08-06T09:40:02Z</time>
      </trkpt>
      <trkpt lat="45.70778" lon="4.67201">
        <ele>378.8</ele>
        <time>2025-08-06T09:40:03Z</time>
      </trkpt>
      <trkpt lat="45.70782" lon="4.67201">
        <ele>378.8</ele>
        <time>2025-08-06T09:40:04Z</time>
      </trkpt>
      <trkpt lat="45.70787" lon="4.672">
        <ele>378.8</ele>
        <time>2025-08-06T09:40:05Z</time>
      </trkpt>
      <trkpt lat="45.70791" lon="4.672">
        <ele>378.8</ele>
        <time>2025-08-06T09:40:06Z</time>
      </trkpt>
      <trkpt lat="45.70795" lon="4.67199">
        <ele>378.8</ele>
        <time>2025-08-06T09:40:07Z</time>
      </trkpt>
      <trkpt lat="45.708" lon="4.67198">
        <ele>378.6</ele>
        <time>2025-08-06T09:40:08Z</time>
      </trkpt>
      <trkpt lat="45.70805" lon="4.67197">
        <ele>378.2</ele>
        <time>2025-08-06T09:40:09Z</time>
      </trkpt>
      <trkpt lat="45.7081" lon="4.67196">
        <ele>377.8</ele>
        <time>2025-08-06T09:40:10Z</time>
      </trkpt>
      <trkpt lat="45.70814" lon="4.67196">
        <ele>377.4</ele>
        <time>2025-08-06T09:40:11Z</time>
      </trkpt>
      <trkpt lat="45.70818" lon="4.67195">
        <ele>377</ele>
        <time>2025-08-06T09:40:12Z</time>
      </trkpt>
      <trkpt lat="45.70823" lon="4.67194">
        <ele>376.8</ele>
        <time>2025-08-06T09:40:13Z</time>
      </trkpt>
      <trkpt lat="45.70827" lon="4.67194">
        <ele>376.6</ele>
        <time>2025-08-06T09:40:14Z</time>
      </trkpt>
      <trkpt lat="45.70832" lon="4.67193">
        <ele>376.4</ele>
        <time>2025-08-06T09:40:15Z</time>
      </trkpt>
      <trkpt lat="45.70837" lon="4.67193">
        <ele>376.4</ele>
        <time>2025-08-06T09:40:16Z</time>
      </trkpt>
      <trkpt lat="45.70842" lon="4.67192">
        <ele>376.2</ele>
        <time>2025-08-06T09:40:17Z</time>
      </trkpt>
      <trkpt lat="45.70847" lon="4.67191">
        <ele>376</ele>
        <time>2025-08-06T09:40:18Z</time>
      </trkpt>
      <trkpt lat="45.70853" lon="4.6719">
        <ele>375.8</ele>
        <time>2025-08-06T09:40:19Z</time>
      </trkpt>
      <trkpt lat="45.70858" lon="4.67189">
        <ele>375.4</ele>
        <time>2025-08-06T09:40:20Z</time>
      </trkpt>
      <trkpt lat="45.70864" lon="4.67187">
        <ele>375.2</ele>
        <time>2025-08-06T09:40:21Z</time>
      </trkpt>
      <trkpt lat="45.7087" lon="4.67186">
        <ele>374.6</ele>
        <time>2025-08-06T09:40:22Z</time>
      </trkpt>
      <trkpt lat="45.70876" lon="4.67184">
        <ele>374.2</ele>
        <time>2025-08-06T09:40:23Z</time>
      </trkpt>
      <trkpt lat="45.70882" lon="4.67182">
        <ele>373.6</ele>
        <time>2025-08-06T09:40:24Z</time>
      </trkpt>
      <trkpt lat="45.70887" lon="4.6718">
        <ele>373.2</ele>
        <time>2025-08-06T09:40:25Z</time>
      </trkpt>
      <trkpt lat="45.70893" lon="4.67179">
        <ele>372.6</ele>
        <time>2025-08-06T09:40:26Z</time>
      </trkpt>
      <trkpt lat="45.70897" lon="4.67178">
        <ele>372.4</ele>
        <time>2025-08-06T09:40:27Z</time>
      </trkpt>
      <trkpt lat="45.709" lon="4.6718">
        <ele>372.4</ele>
        <time>2025-08-06T09:40:28Z</time>
      </trkpt>
      <trkpt lat="45.70903" lon="4.67184">
        <ele>372.4</ele>
        <time>2025-08-06T09:40:29Z</time>
      </trkpt>
      <trkpt lat="45.70904" lon="4.67189">
        <ele>372.8</ele>
        <time>2025-08-06T09:40:30Z</time>
      </trkpt>
      <trkpt lat="45.70904" lon="4.67193">
        <ele>373.2</ele>
        <time>2025-08-06T09:40:31Z</time>
      </trkpt>
      <trkpt lat="45.70905" lon="4.67198">
        <ele>373.6</ele>
        <time>2025-08-06T09:40:32Z</time>
      </trkpt>
      <trkpt lat="45.70905" lon="4.67204">
        <ele>374</ele>
        <time>2025-08-06T09:40:33Z</time>
      </trkpt>
      <trkpt lat="45.70905" lon="4.67209">
        <ele>374.2</ele>
        <time>2025-08-06T09:40:34Z</time>
      </trkpt>
      <trkpt lat="45.70906" lon="4.67214">
        <ele>374.4</ele>
        <time>2025-08-06T09:40:35Z</time>
      </trkpt>
      <trkpt lat="45.70906" lon="4.6722">
        <ele>374.4</ele>
        <time>2025-08-06T09:40:36Z</time>
      </trkpt>
      <trkpt lat="45.70907" lon="4.67226">
        <ele>374.4</ele>
        <time>2025-08-06T09:40:37Z</time>
      </trkpt>
      <trkpt lat="45.70907" lon="4.67233">
        <ele>374.4</ele>
        <time>2025-08-06T09:40:38Z</time>
      </trkpt>
      <trkpt lat="45.70908" lon="4.67239">
        <ele>374.2</ele>
        <time>2025-08-06T09:40:39Z</time>
      </trkpt>
      <trkpt lat="45.70909" lon="4.67246">
        <ele>374.2</ele>
        <time>2025-08-06T09:40:40Z</time>
      </trkpt>
      <trkpt lat="45.7091" lon="4.67252">
        <ele>374</ele>
        <time>2025-08-06T09:40:41Z</time>
      </trkpt>
      <trkpt lat="45.70912" lon="4.67259">
        <ele>373.8</ele>
        <time>2025-08-06T09:40:42Z</time>
      </trkpt>
      <trkpt lat="45.70913" lon="4.67266">
        <ele>373.4</ele>
        <time>2025-08-06T09:40:43Z</time>
      </trkpt>
      <trkpt lat="45.70916" lon="4.67272">
        <ele>373.2</ele>
        <time>2025-08-06T09:40:44Z</time>
      </trkpt>
      <trkpt lat="45.70918" lon="4.67279">
        <ele>372.6</ele>
        <time>2025-08-06T09:40:45Z</time>
      </trkpt>
      <trkpt lat="45.70921" lon="4.67286">
        <ele>372</ele>
        <time>2025-08-06T09:40:46Z</time>
      </trkpt>
      <trkpt lat="45.70924" lon="4.67293">
        <ele>371.4</ele>
        <time>2025-08-06T09:40:47Z</time>
      </trkpt>
      <trkpt lat="45.70927" lon="4.673">
        <ele>370.8</ele>
        <time>2025-08-06T09:40:48Z</time>
      </trkpt>
      <trkpt lat="45.7093" lon="4.67307">
        <ele>370.2</ele>
        <time>2025-08-06T09:40:49Z</time>
      </trkpt>
      <trkpt lat="45.70932" lon="4.67312">
        <ele>369.8</ele>
        <time>2025-08-06T09:40:50Z</time>
      </trkpt>
      <trkpt lat="45.70934" lon="4.67316">
        <ele>369.8</ele>
        <time>2025-08-06T09:40:51Z</time>
      </trkpt>
      <trkpt lat="45.70935" lon="4.67319">
        <ele>369.8</ele>
        <time>2025-08-06T09:40:52Z</time>
      </trkpt>
      <trkpt lat="45.70936" lon="4.67322">
        <ele>370</ele>
        <time>2025-08-06T09:40:53Z</time>
      </trkpt>
      <trkpt lat="45.70938" lon="4.67326">
        <ele>370.4</ele>
        <time>2025-08-06T09:40:54Z</time>
      </trkpt>
      <trkpt lat="45.70941" lon="4.67331">
        <ele>370.4</ele>
        <time>2025-08-06T09:40:55Z</time>
      </trkpt>
      <trkpt lat="45.70944" lon="4.67336">
        <ele>370.4</ele>
        <time>2025-08-06T09:40:56Z</time>
      </trkpt>
      <trkpt lat="45.70947" lon="4.67342">
        <ele>370.4</ele>
        <time>2025-08-06T09:40:57Z</time>
      </trkpt>
      <trkpt lat="45.7095" lon="4.67348">
        <ele>370</ele>
        <time>2025-08-06T09:40:58Z</time>
      </trkpt>
      <trkpt lat="45.70953" lon="4.67354">
        <ele>369.8</ele>
        <time>2025-08-06T09:40:59Z</time>
      </trkpt>
      <trkpt lat="45.70955" lon="4.6736">
        <ele>369.6</ele>
        <time>2025-08-06T09:41:00Z</time>
      </trkpt>
      <trkpt lat="45.70958" lon="4.67367">
        <ele>369.6</ele>
        <time>2025-08-06T09:41:01Z</time>
      </trkpt>
      <trkpt lat="45.70961" lon="4.67374">
        <ele>369.6</ele>
        <time>2025-08-06T09:41:02Z</time>
      </trkpt>
      <trkpt lat="45.70963" lon="4.6738">
        <ele>369.8</ele>
        <time>2025-08-06T09:41:03Z</time>
      </trkpt>
      <trkpt lat="45.70965" lon="4.67386">
        <ele>370</ele>
        <time>2025-08-06T09:41:04Z</time>
      </trkpt>
      <trkpt lat="45.70966" lon="4.67393">
        <ele>370</ele>
        <time>2025-08-06T09:41:05Z</time>
      </trkpt>
      <trkpt lat="45.70966" lon="4.674">
        <ele>370.2</ele>
        <time>2025-08-06T09:41:06Z</time>
      </trkpt>
      <trkpt lat="45.70966" lon="4.67407">
        <ele>370.4</ele>
        <time>2025-08-06T09:41:07Z</time>
      </trkpt>
      <trkpt lat="45.70966" lon="4.67413">
        <ele>370.8</ele>
        <time>2025-08-06T09:41:08Z</time>
      </trkpt>
      <trkpt lat="45.70966" lon="4.6742">
        <ele>371</ele>
        <time>2025-08-06T09:41:09Z</time>
      </trkpt>
      <trkpt lat="45.70965" lon="4.67426">
        <ele>371.2</ele>
        <time>2025-08-06T09:41:10Z</time>
      </trkpt>
      <trkpt lat="45.70965" lon="4.67432">
        <ele>371.4</ele>
        <time>2025-08-06T09:41:11Z</time>
      </trkpt>
      <trkpt lat="45.70964" lon="4.67439">
        <ele>371.6</ele>
        <time>2025-08-06T09:41:12Z</time>
      </trkpt>
      <trkpt lat="45.70964" lon="4.67445">
        <ele>371.8</ele>
        <time>2025-08-06T09:41:13Z</time>
      </trkpt>
      <trkpt lat="45.70963" lon="4.67451">
        <ele>372</ele>
        <time>2025-08-06T09:41:14Z</time>
      </trkpt>
      <trkpt lat="45.70962" lon="4.67456">
        <ele>372.4</ele>
        <time>2025-08-06T09:41:15Z</time>
      </trkpt>
      <trkpt lat="45.70962" lon="4.67462">
        <ele>372.6</ele>
        <time>2025-08-06T09:41:16Z</time>
      </trkpt>
      <trkpt lat="45.70961" lon="4.67468">
        <ele>372.6</ele>
        <time>2025-08-06T09:41:17Z</time>
      </trkpt>
      <trkpt lat="45.70961" lon="4.67474">
        <ele>372.8</ele>
        <time>2025-08-06T09:41:18Z</time>
      </trkpt>
      <trkpt lat="45.7096" lon="4.6748">
        <ele>373</ele>
        <time>2025-08-06T09:41:19Z</time>
      </trkpt>
      <trkpt lat="45.70959" lon="4.67486">
        <ele>373</ele>
        <time>2025-08-06T09:41:20Z</time>
      </trkpt>
      <trkpt lat="45.70958" lon="4.67492">
        <ele>372.8</ele>
        <time>2025-08-06T09:41:21Z</time>
      </trkpt>
      <trkpt lat="45.70957" lon="4.67498">
        <ele>372.8</ele>
        <time>2025-08-06T09:41:22Z</time>
      </trkpt>
      <trkpt lat="45.70956" lon="4.67504">
        <ele>372.6</ele>
        <time>2025-08-06T09:41:23Z</time>
      </trkpt>
      <trkpt lat="45.70956" lon="4.67509">
        <ele>372.4</ele>
        <time>2025-08-06T09:41:24Z</time>
      </trkpt>
      <trkpt lat="45.70957" lon="4.67513">
        <ele>372.2</ele>
        <time>2025-08-06T09:41:25Z</time>
      </trkpt>
      <trkpt lat="45.70959" lon="4.67515">
        <ele>372</ele>
        <time>2025-08-06T09:41:26Z</time>
      </trkpt>
      <trkpt lat="45.70961" lon="4.67518">
        <ele>371.8</ele>
        <time>2025-08-06T09:41:27Z</time>
      </trkpt>
      <trkpt lat="45.70963" lon="4.67521">
        <ele>371.6</ele>
        <time>2025-08-06T09:41:28Z</time>
      </trkpt>
      <trkpt lat="45.70967" lon="4.67523">
        <ele>371.2</ele>
        <time>2025-08-06T09:41:29Z</time>
      </trkpt>
      <trkpt lat="45.70971" lon="4.67526">
        <ele>370.6</ele>
        <time>2025-08-06T09:41:30Z</time>
      </trkpt>
      <trkpt lat="45.70975" lon="4.67528">
        <ele>370</ele>
        <time>2025-08-06T09:41:31Z</time>
      </trkpt>
      <trkpt lat="45.70979" lon="4.6753">
        <ele>369.4</ele>
        <time>2025-08-06T09:41:32Z</time>
      </trkpt>
      <trkpt lat="45.70984" lon="4.67531">
        <ele>368.8</ele>
        <time>2025-08-06T09:41:33Z</time>
      </trkpt>
      <trkpt lat="45.70989" lon="4.67532">
        <ele>368.4</ele>
        <time>2025-08-06T09:41:34Z</time>
      </trkpt>
      <trkpt lat="45.70994" lon="4.67532">
        <ele>368</ele>
        <time>2025-08-06T09:41:35Z</time>
      </trkpt>
      <trkpt lat="45.71" lon="4.67531">
        <ele>367.4</ele>
        <time>2025-08-06T09:41:36Z</time>
      </trkpt>
      <trkpt lat="45.71006" lon="4.67531">
        <ele>366.8</ele>
        <time>2025-08-06T09:41:37Z</time>
      </trkpt>
      <trkpt lat="45.71012" lon="4.6753">
        <ele>366.2</ele>
        <time>2025-08-06T09:41:38Z</time>
      </trkpt>
      <trkpt lat="45.71017" lon="4.6753">
        <ele>365.6</ele>
        <time>2025-08-06T09:41:39Z</time>
      </trkpt>
      <trkpt lat="45.71023" lon="4.6753">
        <ele>365.2</ele>
        <time>2025-08-06T09:41:40Z</time>
      </trkpt>
      <trkpt lat="45.71029" lon="4.6753">
        <ele>364.8</ele>
        <time>2025-08-06T09:41:41Z</time>
      </trkpt>
      <trkpt lat="45.71034" lon="4.67532">
        <ele>364.4</ele>
        <time>2025-08-06T09:41:42Z</time>
      </trkpt>
      <trkpt lat="45.71038" lon="4.67535">
        <ele>364</ele>
        <time>2025-08-06T09:41:43Z</time>
      </trkpt>
      <trkpt lat="45.71041" lon="4.6754">
        <ele>363.8</ele>
        <time>2025-08-06T09:41:44Z</time>
      </trkpt>
      <trkpt lat="45.71044" lon="4.67546">
        <ele>363.4</ele>
        <time>2025-08-06T09:41:45Z</time>
      </trkpt>
      <trkpt lat="45.71046" lon="4.67553">
        <ele>363</ele>
        <time>2025-08-06T09:41:46Z</time>
      </trkpt>
      <trkpt lat="45.71047" lon="4.6756">
        <ele>362.8</ele>
        <time>2025-08-06T09:41:47Z</time>
      </trkpt>
      <trkpt lat="45.71049" lon="4.67567">
        <ele>362.4</ele>
        <time>2025-08-06T09:41:48Z</time>
      </trkpt>
      <trkpt lat="45.71051" lon="4.67575">
        <ele>362</ele>
        <time>2025-08-06T09:41:49Z</time>
      </trkpt>
      <trkpt lat="45.71052" lon="4.67583">
        <ele>361.6</ele>
        <time>2025-08-06T09:41:50Z</time>
      </trkpt>
      <trkpt lat="45.71054" lon="4.67591">
        <ele>361.4</ele>
        <time>2025-08-06T09:41:51Z</time>
      </trkpt>
      <trkpt lat="45.71056" lon="4.67598">
        <ele>360.8</ele>
        <time>2025-08-06T09:41:52Z</time>
      </trkpt>
      <trkpt lat="45.71059" lon="4.67605">
        <ele>360.4</ele>
        <time>2025-08-06T09:41:53Z</time>
      </trkpt>
      <trkpt lat="45.71061" lon="4.67613">
        <ele>359.8</ele>
        <time>2025-08-06T09:41:54Z</time>
      </trkpt>
      <trkpt lat="45.71063" lon="4.6762">
        <ele>359.2</ele>
        <time>2025-08-06T09:41:55Z</time>
      </trkpt>
      <trkpt lat="45.71066" lon="4.67628">
        <ele>358.6</ele>
        <time>2025-08-06T09:41:56Z</time>
      </trkpt>
      <trkpt lat="45.71068" lon="4.67635">
        <ele>358</ele>
        <time>2025-08-06T09:41:57Z</time>
      </trkpt>
      <trkpt lat="45.7107" lon="4.67642">
        <ele>357.6</ele>
        <time>2025-08-06T09:41:58Z</time>
      </trkpt>
      <trkpt lat="45.71073" lon="4.67649">
        <ele>357.2</ele>
        <time>2025-08-06T09:41:59Z</time>
      </trkpt>
      <trkpt lat="45.71076" lon="4.67655">
        <ele>357</ele>
        <time>2025-08-06T09:42:00Z</time>
      </trkpt>
      <trkpt lat="45.7108" lon="4.67658">
        <ele>356.8</ele>
        <time>2025-08-06T09:42:01Z</time>
      </trkpt>
      <trkpt lat="45.71085" lon="4.6766">
        <ele>356.6</ele>
        <time>2025-08-06T09:42:02Z</time>
      </trkpt>
      <trkpt lat="45.71089" lon="4.67659">
        <ele>356.6</ele>
        <time>2025-08-06T09:42:03Z</time>
      </trkpt>
      <trkpt lat="45.71094" lon="4.67656">
        <ele>356.8</ele>
        <time>2025-08-06T09:42:04Z</time>
      </trkpt>
      <trkpt lat="45.71098" lon="4.67654">
        <ele>357</ele>
        <time>2025-08-06T09:42:05Z</time>
      </trkpt>
      <trkpt lat="45.71101" lon="4.67651">
        <ele>357.4</ele>
        <time>2025-08-06T09:42:06Z</time>
      </trkpt>
      <trkpt lat="45.71104" lon="4.67648">
        <ele>357.6</ele>
        <time>2025-08-06T09:42:07Z</time>
      </trkpt>
      <trkpt lat="45.71107" lon="4.67646">
        <ele>357.8</ele>
        <time>2025-08-06T09:42:08Z</time>
      </trkpt>
      <trkpt lat="45.71109" lon="4.67643">
        <ele>358</ele>
        <time>2025-08-06T09:42:09Z</time>
      </trkpt>
      <trkpt lat="45.71112" lon="4.67641">
        <ele>358</ele>
        <time>2025-08-06T09:42:10Z</time>
      </trkpt>
      <trkpt lat="45.71115" lon="4.67638">
        <ele>357.8</ele>
        <time>2025-08-06T09:42:11Z</time>
      </trkpt>
      <trkpt lat="45.71118" lon="4.67635">
        <ele>357.8</ele>
        <time>2025-08-06T09:42:12Z</time>
      </trkpt>
      <trkpt lat="45.71121" lon="4.67633">
        <ele>357.6</ele>
        <time>2025-08-06T09:42:13Z</time>
      </trkpt>
      <trkpt lat="45.71124" lon="4.6763">
        <ele>357.4</ele>
        <time>2025-08-06T09:42:14Z</time>
      </trkpt>
      <trkpt lat="45.71127" lon="4.67627">
        <ele>357.4</ele>
        <time>2025-08-06T09:42:15Z</time>
      </trkpt>
      <trkpt lat="45.7113" lon="4.67625">
        <ele>357.2</ele>
        <time>2025-08-06T09:42:16Z</time>
      </trkpt>
      <trkpt lat="45.71133" lon="4.67623">
        <ele>357</ele>
        <time>2025-08-06T09:42:17Z</time>
      </trkpt>
      <trkpt lat="45.71137" lon="4.67622">
        <ele>356.8</ele>
        <time>2025-08-06T09:42:18Z</time>
      </trkpt>
      <trkpt lat="45.7114" lon="4.67621">
        <ele>356.8</ele>
        <time>2025-08-06T09:42:19Z</time>
      </trkpt>
      <trkpt lat="45.71144" lon="4.67622">
        <ele>356.8</ele>
        <time>2025-08-06T09:42:20Z</time>
      </trkpt>
      <trkpt lat="45.71147" lon="4.67626">
        <ele>356.8</ele>
        <time>2025-08-06T09:42:21Z</time>
      </trkpt>
      <trkpt lat="45.7115" lon="4.67631">
        <ele>357</ele>
        <time>2025-08-06T09:42:22Z</time>
      </trkpt>
      <trkpt lat="45.71152" lon="4.67637">
        <ele>357.2</ele>
        <time>2025-08-06T09:42:23Z</time>
      </trkpt>
      <trkpt lat="45.71154" lon="4.67643">
        <ele>357.2</ele>
        <time>2025-08-06T09:42:24Z</time>
      </trkpt>
      <trkpt lat="45.71156" lon="4.67647">
        <ele>357</ele>
        <time>2025-08-06T09:42:25Z</time>
      </trkpt>
      <trkpt lat="45.71158" lon="4.67651">
        <ele>356.8</ele>
        <time>2025-08-06T09:42:26Z</time>
      </trkpt>
      <trkpt lat="45.71161" lon="4.67651">
        <ele>356.6</ele>
        <time>2025-08-06T09:42:27Z</time>
      </trkpt>
      <trkpt lat="45.71164" lon="4.6765">
        <ele>356.4</ele>
        <time>2025-08-06T09:42:28Z</time>
      </trkpt>
      <trkpt lat="45.71166" lon="4.67647">
        <ele>356.2</ele>
        <time>2025-08-06T09:42:29Z</time>
      </trkpt>
      <trkpt lat="45.71169" lon="4.67642">
        <ele>355.8</ele>
        <time>2025-08-06T09:42:30Z</time>
      </trkpt>
      <trkpt lat="45.71171" lon="4.67638">
        <ele>355.8</ele>
        <time>2025-08-06T09:42:31Z</time>
      </trkpt>
      <trkpt lat="45.71174" lon="4.67633">
        <ele>355.6</ele>
        <time>2025-08-06T09:42:32Z</time>
      </trkpt>
      <trkpt lat="45.71176" lon="4.67628">
        <ele>355.6</ele>
        <time>2025-08-06T09:42:33Z</time>
      </trkpt>
      <trkpt lat="45.71179" lon="4.67623">
        <ele>355.4</ele>
        <time>2025-08-06T09:42:34Z</time>
      </trkpt>
      <trkpt lat="45.71182" lon="4.67618">
        <ele>355.4</ele>
        <time>2025-08-06T09:42:35Z</time>
      </trkpt>
      <trkpt lat="45.71185" lon="4.67612">
        <ele>355.4</ele>
        <time>2025-08-06T09:42:36Z</time>
      </trkpt>
      <trkpt lat="45.71188" lon="4.67608">
        <ele>355.2</ele>
        <time>2025-08-06T09:42:37Z</time>
      </trkpt>
      <trkpt lat="45.71191" lon="4.67602">
        <ele>355</ele>
        <time>2025-08-06T09:42:38Z</time>
      </trkpt>
      <trkpt lat="45.71195" lon="4.67598">
        <ele>354.8</ele>
        <time>2025-08-06T09:42:39Z</time>
      </trkpt>
      <trkpt lat="45.71198" lon="4.67594">
        <ele>354.6</ele>
        <time>2025-08-06T09:42:40Z</time>
      </trkpt>
      <trkpt lat="45.71201" lon="4.67591">
        <ele>354.6</ele>
        <time>2025-08-06T09:42:41Z</time>
      </trkpt>
      <trkpt lat="45.71204" lon="4.67589">
        <ele>354.4</ele>
        <time>2025-08-06T09:42:42Z</time>
      </trkpt>
      <trkpt lat="45.71207" lon="4.6759">
        <ele>354.4</ele>
        <time>2025-08-06T09:42:43Z</time>
      </trkpt>
      <trkpt lat="45.71209" lon="4.67592">
        <ele>354.4</ele>
        <time>2025-08-06T09:42:44Z</time>
      </trkpt>
      <trkpt lat="45.71212" lon="4.67595">
        <ele>354.2</ele>
        <time>2025-08-06T09:42:45Z</time>
      </trkpt>
      <trkpt lat="45.71214" lon="4.67598">
        <ele>354</ele>
        <time>2025-08-06T09:42:46Z</time>
      </trkpt>
      <trkpt lat="45.71217" lon="4.67602">
        <ele>353.8</ele>
        <time>2025-08-06T09:42:47Z</time>
      </trkpt>
      <trkpt lat="45.7122" lon="4.67605">
        <ele>353.6</ele>
        <time>2025-08-06T09:42:48Z</time>
      </trkpt>
      <trkpt lat="45.71222" lon="4.67609">
        <ele>353.4</ele>
        <time>2025-08-06T09:42:49Z</time>
      </trkpt>
      <trkpt lat="45.71225" lon="4.67612">
        <ele>353.2</ele>
        <time>2025-08-06T09:42:50Z</time>
      </trkpt>
      <trkpt lat="45.71227" lon="4.67615">
        <ele>352.8</ele>
        <time>2025-08-06T09:42:51Z</time>
      </trkpt>
      <trkpt lat="45.7123" lon="4.67618">
        <ele>352.6</ele>
        <time>2025-08-06T09:42:52Z</time>
      </trkpt>
      <trkpt lat="45.71232" lon="4.6762">
        <ele>352.4</ele>
        <time>2025-08-06T09:42:53Z</time>
      </trkpt>
      <trkpt lat="45.71234" lon="4.67621">
        <ele>352</ele>
        <time>2025-08-06T09:42:54Z</time>
      </trkpt>
      <trkpt lat="45.71237" lon="4.67621">
        <ele>351.8</ele>
        <time>2025-08-06T09:42:55Z</time>
      </trkpt>
      <trkpt lat="45.71239" lon="4.67619">
        <ele>351.2</ele>
        <time>2025-08-06T09:42:56Z</time>
      </trkpt>
      <trkpt lat="45.71239" lon="4.67614">
        <ele>350.8</ele>
        <time>2025-08-06T09:42:57Z</time>
      </trkpt>
      <trkpt lat="45.71239" lon="4.67609">
        <ele>350.4</ele>
        <time>2025-08-06T09:42:58Z</time>
      </trkpt>
      <trkpt lat="45.7124" lon="4.67604">
        <ele>349.8</ele>
        <time>2025-08-06T09:42:59Z</time>
      </trkpt>
      <trkpt lat="45.71241" lon="4.67598">
        <ele>349.2</ele>
        <time>2025-08-06T09:43:00Z</time>
      </trkpt>
      <trkpt lat="45.71243" lon="4.67593">
        <ele>349</ele>
        <time>2025-08-06T09:43:01Z</time>
      </trkpt>
      <trkpt lat="45.71245" lon="4.67588">
        <ele>348.6</ele>
        <time>2025-08-06T09:43:02Z</time>
      </trkpt>
      <trkpt lat="45.71247" lon="4.67583">
        <ele>348.6</ele>
        <time>2025-08-06T09:43:03Z</time>
      </trkpt>
      <trkpt lat="45.7125" lon="4.67579">
        <ele>348.4</ele>
        <time>2025-08-06T09:43:04Z</time>
      </trkpt>
      <trkpt lat="45.71253" lon="4.67578">
        <ele>348.2</ele>
        <time>2025-08-06T09:43:05Z</time>
      </trkpt>
      <trkpt lat="45.71257" lon="4.67578">
        <ele>348.2</ele>
        <time>2025-08-06T09:43:06Z</time>
      </trkpt>
      <trkpt lat="45.7126" lon="4.6758">
        <ele>348.4</ele>
        <time>2025-08-06T09:43:07Z</time>
      </trkpt>
      <trkpt lat="45.71263" lon="4.67582">
        <ele>348.4</ele>
        <time>2025-08-06T09:43:08Z</time>
      </trkpt>
      <trkpt lat="45.71266" lon="4.67586">
        <ele>348.6</ele>
        <time>2025-08-06T09:43:09Z</time>
      </trkpt>
      <trkpt lat="45.7127" lon="4.67589">
        <ele>348.8</ele>
        <time>2025-08-06T09:43:10Z</time>
      </trkpt>
      <trkpt lat="45.71273" lon="4.67592">
        <ele>348.8</ele>
        <time>2025-08-06T09:43:11Z</time>
      </trkpt>
      <trkpt lat="45.71276" lon="4.67596">
        <ele>348.8</ele>
        <time>2025-08-06T09:43:12Z</time>
      </trkpt>
      <trkpt lat="45.71279" lon="4.676">
        <ele>349</ele>
        <time>2025-08-06T09:43:13Z</time>
      </trkpt>
      <trkpt lat="45.71281" lon="4.67605">
        <ele>349</ele>
        <time>2025-08-06T09:43:14Z</time>
      </trkpt>
      <trkpt lat="45.71284" lon="4.67609">
        <ele>349.2</ele>
        <time>2025-08-06T09:43:15Z</time>
      </trkpt>
      <trkpt lat="45.71287" lon="4.67613">
        <ele>349.2</ele>
        <time>2025-08-06T09:43:16Z</time>
      </trkpt>
      <trkpt lat="45.71289" lon="4.67617">
        <ele>349.2</ele>
        <time>2025-08-06T09:43:17Z</time>
      </trkpt>
      <trkpt lat="45.71292" lon="4.67622">
        <ele>349.4</ele>
        <time>2025-08-06T09:43:18Z</time>
      </trkpt>
      <trkpt lat="45.71295" lon="4.67626">
        <ele>349.6</ele>
        <time>2025-08-06T09:43:19Z</time>
      </trkpt>
      <trkpt lat="45.71298" lon="4.6763">
        <ele>349.8</ele>
        <time>2025-08-06T09:43:20Z</time>
      </trkpt>
      <trkpt lat="45.713" lon="4.67634">
        <ele>350</ele>
        <time>2025-08-06T09:43:21Z</time>
      </trkpt>
      <trkpt lat="45.71303" lon="4.67638">
        <ele>350.4</ele>
        <time>2025-08-06T09:43:22Z</time>
      </trkpt>
      <trkpt lat="45.71305" lon="4.67641">
        <ele>350.6</ele>
        <time>2025-08-06T09:43:23Z</time>
      </trkpt>
      <trkpt lat="45.71307" lon="4.67644">
        <ele>350.8</ele>
        <time>2025-08-06T09:43:24Z</time>
      </trkpt>
      <trkpt lat="45.7131" lon="4.67648">
        <ele>351</ele>
        <time>2025-08-06T09:43:25Z</time>
      </trkpt>
      <trkpt lat="45.71312" lon="4.67651">
        <ele>351.2</ele>
        <time>2025-08-06T09:43:26Z</time>
      </trkpt>
      <trkpt lat="45.71314" lon="4.67655">
        <ele>351.4</ele>
        <time>2025-08-06T09:43:27Z</time>
      </trkpt>
      <trkpt lat="45.71315" lon="4.67658">
        <ele>351.8</ele>
        <time>2025-08-06T09:43:28Z</time>
      </trkpt>
      <trkpt lat="45.71317" lon="4.67661">
        <ele>352.2</ele>
        <time>2025-08-06T09:43:29Z</time>
      </trkpt>
      <trkpt lat="45.71318" lon="4.67664">
        <ele>352.4</ele>
        <time>2025-08-06T09:43:30Z</time>
      </trkpt>
      <trkpt lat="45.71319" lon="4.67667">
        <ele>352.4</ele>
        <time>2025-08-06T09:43:31Z</time>
      </trkpt>
      <trkpt lat="45.71321" lon="4.67671">
        <ele>352.4</ele>
        <time>2025-08-06T09:43:32Z</time>
      </trkpt>
      <trkpt lat="45.71322" lon="4.67676">
        <ele>352.2</ele>
        <time>2025-08-06T09:43:33Z</time>
      </trkpt>
      <trkpt lat="45.71324" lon="4.6768">
        <ele>351.8</ele>
        <time>2025-08-06T09:43:34Z</time>
      </trkpt>
      <trkpt lat="45.71326" lon="4.67684">
        <ele>351.4</ele>
        <time>2025-08-06T09:43:35Z</time>
      </trkpt>
      <trkpt lat="45.71328" lon="4.67687">
        <ele>351</ele>
        <time>2025-08-06T09:43:36Z</time>
      </trkpt>
      <trkpt lat="45.71332" lon="4.6769">
        <ele>350.8</ele>
        <time>2025-08-06T09:43:37Z</time>
      </trkpt>
      <trkpt lat="45.71335" lon="4.67692">
        <ele>350.4</ele>
        <time>2025-08-06T09:43:38Z</time>
      </trkpt>
      <trkpt lat="45.71338" lon="4.67694">
        <ele>350.2</ele>
        <time>2025-08-06T09:43:39Z</time>
      </trkpt>
      <trkpt lat="45.71341" lon="4.67694">
        <ele>350.2</ele>
        <time>2025-08-06T09:43:40Z</time>
      </trkpt>
      <trkpt lat="45.71345" lon="4.67693">
        <ele>350.2</ele>
        <time>2025-08-06T09:43:41Z</time>
      </trkpt>
      <trkpt lat="45.71348" lon="4.67692">
        <ele>350.4</ele>
        <time>2025-08-06T09:43:42Z</time>
      </trkpt>
      <trkpt lat="45.71351" lon="4.67691">
        <ele>350.4</ele>
        <time>2025-08-06T09:43:43Z</time>
      </trkpt>
      <trkpt lat="45.71354" lon="4.67692">
        <ele>350.6</ele>
        <time>2025-08-06T09:43:44Z</time>
      </trkpt>
      <trkpt lat="45.71358" lon="4.67695">
        <ele>350.8</ele>
        <time>2025-08-06T09:43:45Z</time>
      </trkpt>
      <trkpt lat="45.71361" lon="4.67698">
        <ele>351</ele>
        <time>2025-08-06T09:43:46Z</time>
      </trkpt>
      <trkpt lat="45.71363" lon="4.67702">
        <ele>351.2</ele>
        <time>2025-08-06T09:43:47Z</time>
      </trkpt>
      <trkpt lat="45.71366" lon="4.67707">
        <ele>351.2</ele>
        <time>2025-08-06T09:43:48Z</time>
      </trkpt>
      <trkpt lat="45.71369" lon="4.67712">
        <ele>351.4</ele>
        <time>2025-08-06T09:43:49Z</time>
      </trkpt>
      <trkpt lat="45.71372" lon="4.67716">
        <ele>351.2</ele>
        <time>2025-08-06T09:43:50Z</time>
      </trkpt>
      <trkpt lat="45.71374" lon="4.67721">
        <ele>351.2</ele>
        <time>2025-08-06T09:43:51Z</time>
      </trkpt>
      <trkpt lat="45.71377" lon="4.67726">
        <ele>351.2</ele>
        <time>2025-08-06T09:43:52Z</time>
      </trkpt>
      <trkpt lat="45.71379" lon="4.67731">
        <ele>351.2</ele>
        <time>2025-08-06T09:43:53Z</time>
      </trkpt>
      <trkpt lat="45.71382" lon="4.67737">
        <ele>351.2</ele>
        <time>2025-08-06T09:43:54Z</time>
      </trkpt>
      <trkpt lat="45.71385" lon="4.67742">
        <ele>351.4</ele>
        <time>2025-08-06T09:43:55Z</time>
      </trkpt>
      <trkpt lat="45.71387" lon="4.67747">
        <ele>351.6</ele>
        <time>2025-08-06T09:43:56Z</time>
      </trkpt>
      <trkpt lat="45.7139" lon="4.67752">
        <ele>351.6</ele>
        <time>2025-08-06T09:43:57Z</time>
      </trkpt>
      <trkpt lat="45.71393" lon="4.67757">
        <ele>351.8</ele>
        <time>2025-08-06T09:43:58Z</time>
      </trkpt>
      <trkpt lat="45.71395" lon="4.67763">
        <ele>351.8</ele>
        <time>2025-08-06T09:43:59Z</time>
      </trkpt>
      <trkpt lat="45.71398" lon="4.67768">
        <ele>352</ele>
        <time>2025-08-06T09:44:00Z</time>
      </trkpt>
      <trkpt lat="45.71401" lon="4.67773">
        <ele>351.8</ele>
        <time>2025-08-06T09:44:01Z</time>
      </trkpt>
      <trkpt lat="45.71403" lon="4.67779">
        <ele>351.8</ele>
        <time>2025-08-06T09:44:02Z</time>
      </trkpt>
      <trkpt lat="45.71406" lon="4.67785">
        <ele>351.6</ele>
        <time>2025-08-06T09:44:03Z</time>
      </trkpt>
      <trkpt lat="45.71408" lon="4.67791">
        <ele>351.4</ele>
        <time>2025-08-06T09:44:04Z</time>
      </trkpt>
      <trkpt lat="45.71411" lon="4.67797">
        <ele>351</ele>
        <time>2025-08-06T09:44:05Z</time>
      </trkpt>
      <trkpt lat="45.71414" lon="4.67802">
        <ele>351</ele>
        <time>2025-08-06T09:44:06Z</time>
      </trkpt>
      <trkpt lat="45.71417" lon="4.67808">
        <ele>350.6</ele>
        <time>2025-08-06T09:44:07Z</time>
      </trkpt>
      <trkpt lat="45.7142" lon="4.67814">
        <ele>350.4</ele>
        <time>2025-08-06T09:44:08Z</time>
      </trkpt>
      <trkpt lat="45.71423" lon="4.67821">
        <ele>350.2</ele>
        <time>2025-08-06T09:44:09Z</time>
      </trkpt>
      <trkpt lat="45.71426" lon="4.67828">
        <ele>350</ele>
        <time>2025-08-06T09:44:10Z</time>
      </trkpt>
      <trkpt lat="45.71429" lon="4.67834">
        <ele>349.6</ele>
        <time>2025-08-06T09:44:11Z</time>
      </trkpt>
      <trkpt lat="45.71433" lon="4.67841">
        <ele>349.4</ele>
        <time>2025-08-06T09:44:12Z</time>
      </trkpt>
      <trkpt lat="45.71436" lon="4.67849">
        <ele>349</ele>
        <time>2025-08-06T09:44:13Z</time>
      </trkpt>
      <trkpt lat="45.71439" lon="4.67856">
        <ele>348.6</ele>
        <time>2025-08-06T09:44:14Z</time>
      </trkpt>
      <trkpt lat="45.71443" lon="4.67863">
        <ele>348.2</ele>
        <time>2025-08-06T09:44:15Z</time>
      </trkpt>
      <trkpt lat="45.71446" lon="4.67871">
        <ele>348</ele>
        <time>2025-08-06T09:44:16Z</time>
      </trkpt>
      <trkpt lat="45.71449" lon="4.67878">
        <ele>347.6</ele>
        <time>2025-08-06T09:44:17Z</time>
      </trkpt>
      <trkpt lat="45.71452" lon="4.67887">
        <ele>347</ele>
        <time>2025-08-06T09:44:18Z</time>
      </trkpt>
      <trkpt lat="45.71456" lon="4.67895">
        <ele>346.6</ele>
        <time>2025-08-06T09:44:19Z</time>
      </trkpt>
      <trkpt lat="45.71459" lon="4.67904">
        <ele>346.2</ele>
        <time>2025-08-06T09:44:20Z</time>
      </trkpt>
      <trkpt lat="45.71462" lon="4.67913">
        <ele>345.8</ele>
        <time>2025-08-06T09:44:21Z</time>
      </trkpt>
      <trkpt lat="45.71465" lon="4.67923">
        <ele>345.2</ele>
        <time>2025-08-06T09:44:22Z</time>
      </trkpt>
      <trkpt lat="45.71468" lon="4.67932">
        <ele>344.8</ele>
        <time>2025-08-06T09:44:23Z</time>
      </trkpt>
      <trkpt lat="45.7147" lon="4.67942">
        <ele>344.2</ele>
        <time>2025-08-06T09:44:24Z</time>
      </trkpt>
      <trkpt lat="45.71473" lon="4.67951">
        <ele>343.8</ele>
        <time>2025-08-06T09:44:25Z</time>
      </trkpt>
      <trkpt lat="45.71476" lon="4.67961">
        <ele>343.6</ele>
        <time>2025-08-06T09:44:26Z</time>
      </trkpt>
      <trkpt lat="45.71479" lon="4.67971">
        <ele>343.2</ele>
        <time>2025-08-06T09:44:27Z</time>
      </trkpt>
      <trkpt lat="45.71482" lon="4.67981">
        <ele>342.8</ele>
        <time>2025-08-06T09:44:28Z</time>
      </trkpt>
      <trkpt lat="45.71485" lon="4.67991">
        <ele>342.4</ele>
        <time>2025-08-06T09:44:29Z</time>
      </trkpt>
      <trkpt lat="45.71488" lon="4.68">
        <ele>342</ele>
        <time>2025-08-06T09:44:30Z</time>
      </trkpt>
      <trkpt lat="45.71491" lon="4.6801">
        <ele>341.6</ele>
        <time>2025-08-06T09:44:31Z</time>
      </trkpt>
      <trkpt lat="45.71494" lon="4.6802">
        <ele>341.2</ele>
        <time>2025-08-06T09:44:32Z</time>
      </trkpt>
      <trkpt lat="45.71497" lon="4.68029">
        <ele>341</ele>
        <time>2025-08-06T09:44:33Z</time>
      </trkpt>
      <trkpt lat="45.71499" lon="4.68039">
        <ele>340.8</ele>
        <time>2025-08-06T09:44:34Z</time>
      </trkpt>
      <trkpt lat="45.71501" lon="4.68049">
        <ele>340.4</ele>
        <time>2025-08-06T09:44:35Z</time>
      </trkpt>
      <trkpt lat="45.71503" lon="4.68058">
        <ele>340</ele>
        <time>2025-08-06T09:44:36Z</time>
      </trkpt>
      <trkpt lat="45.71506" lon="4.68068">
        <ele>339.6</ele>
        <time>2025-08-06T09:44:37Z</time>
      </trkpt>
      <trkpt lat="45.71508" lon="4.68077">
        <ele>339.2</ele>
        <time>2025-08-06T09:44:38Z</time>
      </trkpt>
      <trkpt lat="45.7151" lon="4.68087">
        <ele>338.6</ele>
        <time>2025-08-06T09:44:39Z</time>
      </trkpt>
      <trkpt lat="45.71511" lon="4.68097">
        <ele>338.2</ele>
        <time>2025-08-06T09:44:40Z</time>
      </trkpt>
      <trkpt lat="45.71512" lon="4.68107">
        <ele>337.6</ele>
        <time>2025-08-06T09:44:41Z</time>
      </trkpt>
      <trkpt lat="45.71513" lon="4.68117">
        <ele>337.2</ele>
        <time>2025-08-06T09:44:42Z</time>
      </trkpt>
      <trkpt lat="45.71514" lon="4.68127">
        <ele>336.8</ele>
        <time>2025-08-06T09:44:43Z</time>
      </trkpt>
      <trkpt lat="45.71515" lon="4.68136">
        <ele>336.4</ele>
        <time>2025-08-06T09:44:44Z</time>
      </trkpt>
      <trkpt lat="45.71516" lon="4.68146">
        <ele>336.2</ele>
        <time>2025-08-06T09:44:45Z</time>
      </trkpt>
      <trkpt lat="45.71516" lon="4.68155">
        <ele>336</ele>
        <time>2025-08-06T09:44:46Z</time>
      </trkpt>
      <trkpt lat="45.71516" lon="4.68164">
        <ele>335.6</ele>
        <time>2025-08-06T09:44:47Z</time>
      </trkpt>
      <trkpt lat="45.71517" lon="4.68173">
        <ele>335.2</ele>
        <time>2025-08-06T09:44:48Z</time>
      </trkpt>
      <trkpt lat="45.71517" lon="4.68182">
        <ele>334.8</ele>
        <time>2025-08-06T09:44:49Z</time>
      </trkpt>
      <trkpt lat="45.71519" lon="4.68192">
        <ele>334.4</ele>
        <time>2025-08-06T09:44:50Z</time>
      </trkpt>
      <trkpt lat="45.71521" lon="4.682">
        <ele>333.8</ele>
        <time>2025-08-06T09:44:51Z</time>
      </trkpt>
      <trkpt lat="45.71524" lon="4.68209">
        <ele>333.4</ele>
        <time>2025-08-06T09:44:52Z</time>
      </trkpt>
      <trkpt lat="45.71527" lon="4.68216">
        <ele>332.8</ele>
        <time>2025-08-06T09:44:53Z</time>
      </trkpt>
      <trkpt lat="45.7153" lon="4.68224">
        <ele>332.4</ele>
        <time>2025-08-06T09:44:54Z</time>
      </trkpt>
      <trkpt lat="45.71534" lon="4.6823">
        <ele>332</ele>
        <time>2025-08-06T09:44:55Z</time>
      </trkpt>
      <trkpt lat="45.71538" lon="4.68236">
        <ele>331.8</ele>
        <time>2025-08-06T09:44:56Z</time>
      </trkpt>
      <trkpt lat="45.71542" lon="4.68241">
        <ele>331.6</ele>
        <time>2025-08-06T09:44:57Z</time>
      </trkpt>
      <trkpt lat="45.71546" lon="4.68247">
        <ele>331.6</ele>
        <time>2025-08-06T09:44:58Z</time>
      </trkpt>
      <trkpt lat="45.7155" lon="4.68251">
        <ele>331.8</ele>
        <time>2025-08-06T09:44:59Z</time>
      </trkpt>
      <trkpt lat="45.71555" lon="4.68255">
        <ele>331.8</ele>
        <time>2025-08-06T09:45:00Z</time>
      </trkpt>
      <trkpt lat="45.7156" lon="4.68258">
        <ele>331.8</ele>
        <time>2025-08-06T09:45:01Z</time>
      </trkpt>
      <trkpt lat="45.71565" lon="4.68262">
        <ele>331.8</ele>
        <time>2025-08-06T09:45:02Z</time>
      </trkpt>
      <trkpt lat="45.7157" lon="4.68266">
        <ele>331.6</ele>
        <time>2025-08-06T09:45:03Z</time>
      </trkpt>
      <trkpt lat="45.71575" lon="4.68271">
        <ele>331.4</ele>
        <time>2025-08-06T09:45:04Z</time>
      </trkpt>
      <trkpt lat="45.7158" lon="4.68276">
        <ele>331</ele>
        <time>2025-08-06T09:45:05Z</time>
      </trkpt>
      <trkpt lat="45.71586" lon="4.68282">
        <ele>330.4</ele>
        <time>2025-08-06T09:45:06Z</time>
      </trkpt>
      <trkpt lat="45.71592" lon="4.68288">
        <ele>329.6</ele>
        <time>2025-08-06T09:45:07Z</time>
      </trkpt>
      <trkpt lat="45.71598" lon="4.68296">
        <ele>328.8</ele>
        <time>2025-08-06T09:45:08Z</time>
      </trkpt>
      <trkpt lat="45.71604" lon="4.68303">
        <ele>328</ele>
        <time>2025-08-06T09:45:09Z</time>
      </trkpt>
      <trkpt lat="45.7161" lon="4.68311">
        <ele>327</ele>
        <time>2025-08-06T09:45:10Z</time>
      </trkpt>
      <trkpt lat="45.71617" lon="4.68319">
        <ele>326.2</ele>
        <time>2025-08-06T09:45:11Z</time>
      </trkpt>
      <trkpt lat="45.71624" lon="4.68328">
        <ele>325.4</ele>
        <time>2025-08-06T09:45:12Z</time>
      </trkpt>
      <trkpt lat="45.71631" lon="4.68336">
        <ele>324.4</ele>
        <time>2025-08-06T09:45:13Z</time>
      </trkpt>
      <trkpt lat="45.71637" lon="4.68345">
        <ele>323.6</ele>
        <time>2025-08-06T09:45:14Z</time>
      </trkpt>
      <trkpt lat="45.71644" lon="4.68353">
        <ele>323</ele>
        <time>2025-08-06T09:45:15Z</time>
      </trkpt>
      <trkpt lat="45.7165" lon="4.68361">
        <ele>322.2</ele>
        <time>2025-08-06T09:45:16Z</time>
      </trkpt>
      <trkpt lat="45.71657" lon="4.68369">
        <ele>321.8</ele>
        <time>2025-08-06T09:45:17Z</time>
      </trkpt>
      <trkpt lat="45.71663" lon="4.68377">
        <ele>321.4</ele>
        <time>2025-08-06T09:45:18Z</time>
      </trkpt>
      <trkpt lat="45.71668" lon="4.68385">
        <ele>321.2</ele>
        <time>2025-08-06T09:45:19Z</time>
      </trkpt>
      <trkpt lat="45.71674" lon="4.68392">
        <ele>321.2</ele>
        <time>2025-08-06T09:45:20Z</time>
      </trkpt>
      <trkpt lat="45.71679" lon="4.68399">
        <ele>321</ele>
        <time>2025-08-06T09:45:21Z</time>
      </trkpt>
      <trkpt lat="45.71684" lon="4.68406">
        <ele>321</ele>
        <time>2025-08-06T09:45:22Z</time>
      </trkpt>
      <trkpt lat="45.71689" lon="4.68412">
        <ele>321</ele>
        <time>2025-08-06T09:45:23Z</time>
      </trkpt>
      <trkpt lat="45.71694" lon="4.68418">
        <ele>321</ele>
        <time>2025-08-06T09:45:24Z</time>
      </trkpt>
      <trkpt lat="45.71699" lon="4.68425">
        <ele>320.8</ele>
        <time>2025-08-06T09:45:25Z</time>
      </trkpt>
      <trkpt lat="45.71703" lon="4.68431">
        <ele>320.8</ele>
        <time>2025-08-06T09:45:26Z</time>
      </trkpt>
      <trkpt lat="45.71708" lon="4.68436">
        <ele>320.6</ele>
        <time>2025-08-06T09:45:27Z</time>
      </trkpt>
      <trkpt lat="45.71712" lon="4.68442">
        <ele>320.6</ele>
        <time>2025-08-06T09:45:28Z</time>
      </trkpt>
      <trkpt lat="45.71717" lon="4.68448">
        <ele>320.6</ele>
        <time>2025-08-06T09:45:29Z</time>
      </trkpt>
      <trkpt lat="45.71721" lon="4.68454">
        <ele>320.6</ele>
        <time>2025-08-06T09:45:30Z</time>
      </trkpt>
      <trkpt lat="45.71725" lon="4.6846">
        <ele>320.8</ele>
        <time>2025-08-06T09:45:31Z</time>
      </trkpt>
      <trkpt lat="45.7173" lon="4.68466">
        <ele>320.8</ele>
        <time>2025-08-06T09:45:32Z</time>
      </trkpt>
      <trkpt lat="45.71734" lon="4.68472">
        <ele>320.8</ele>
        <time>2025-08-06T09:45:33Z</time>
      </trkpt>
      <trkpt lat="45.71739" lon="4.68478">
        <ele>321</ele>
        <time>2025-08-06T09:45:34Z</time>
      </trkpt>
      <trkpt lat="45.71743" lon="4.68484">
        <ele>320.8</ele>
        <time>2025-08-06T09:45:35Z</time>
      </trkpt>
      <trkpt lat="45.71748" lon="4.68489">
        <ele>320.8</ele>
        <time>2025-08-06T09:45:36Z</time>
      </trkpt>
      <trkpt lat="45.71752" lon="4.68495">
        <ele>320.6</ele>
        <time>2025-08-06T09:45:37Z</time>
      </trkpt>
      <trkpt lat="45.71756" lon="4.68502">
        <ele>320.8</ele>
        <time>2025-08-06T09:45:38Z</time>
      </trkpt>
      <trkpt lat="45.7176" lon="4.68508">
        <ele>321</ele>
        <time>2025-08-06T09:45:39Z</time>
      </trkpt>
      <trkpt lat="45.71764" lon="4.68515">
        <ele>321.2</ele>
        <time>2025-08-06T09:45:40Z</time>
      </trkpt>
      <trkpt lat="45.71768" lon="4.68521">
        <ele>321.4</ele>
        <time>2025-08-06T09:45:41Z</time>
      </trkpt>
      <trkpt lat="45.71772" lon="4.68528">
        <ele>321.6</ele>
        <time>2025-08-06T09:45:42Z</time>
      </trkpt>
      <trkpt lat="45.71775" lon="4.68534">
        <ele>321.8</ele>
        <time>2025-08-06T09:45:43Z</time>
      </trkpt>
      <trkpt lat="45.71778" lon="4.68541">
        <ele>322</ele>
        <time>2025-08-06T09:45:44Z</time>
      </trkpt>
      <trkpt lat="45.7178" lon="4.68548">
        <ele>322</ele>
        <time>2025-08-06T09:45:45Z</time>
      </trkpt>
      <trkpt lat="45.71783" lon="4.68554">
        <ele>322.2</ele>
        <time>2025-08-06T09:45:46Z</time>
      </trkpt>
      <trkpt lat="45.71786" lon="4.68561">
        <ele>322.4</ele>
        <time>2025-08-06T09:45:47Z</time>
      </trkpt>
      <trkpt lat="45.71789" lon="4.68568">
        <ele>322.6</ele>
        <time>2025-08-06T09:45:48Z</time>
      </trkpt>
      <trkpt lat="45.71791" lon="4.68575">
        <ele>322.8</ele>
        <time>2025-08-06T09:45:49Z</time>
      </trkpt>
      <trkpt lat="45.71793" lon="4.68581">
        <ele>323.2</ele>
        <time>2025-08-06T09:45:50Z</time>
      </trkpt>
      <trkpt lat="45.71796" lon="4.68587">
        <ele>323.4</ele>
        <time>2025-08-06T09:45:51Z</time>
      </trkpt>
      <trkpt lat="45.71798" lon="4.68592">
        <ele>323.8</ele>
        <time>2025-08-06T09:45:52Z</time>
      </trkpt>
      <trkpt lat="45.718" lon="4.68598">
        <ele>324</ele>
        <time>2025-08-06T09:45:53Z</time>
      </trkpt>
      <trkpt lat="45.71802" lon="4.68603">
        <ele>324.4</ele>
        <time>2025-08-06T09:45:54Z</time>
      </trkpt>
      <trkpt lat="45.71803" lon="4.68608">
        <ele>324.8</ele>
        <time>2025-08-06T09:45:55Z</time>
      </trkpt>
      <trkpt lat="45.71805" lon="4.68613">
        <ele>325.2</ele>
        <time>2025-08-06T09:45:56Z</time>
      </trkpt>
      <trkpt lat="45.71806" lon="4.68617">
        <ele>325.6</ele>
        <time>2025-08-06T09:45:57Z</time>
      </trkpt>
      <trkpt lat="45.71808" lon="4.68621">
        <ele>326</ele>
        <time>2025-08-06T09:45:58Z</time>
      </trkpt>
      <trkpt lat="45.71809" lon="4.68625">
        <ele>326.4</ele>
        <time>2025-08-06T09:45:59Z</time>
      </trkpt>
      <trkpt lat="45.7181" lon="4.68629">
        <ele>326.6</ele>
        <time>2025-08-06T09:46:00Z</time>
      </trkpt>
      <trkpt lat="45.71811" lon="4.68634">
        <ele>327</ele>
        <time>2025-08-06T09:46:01Z</time>
      </trkpt>
      <trkpt lat="45.71811" lon="4.68638">
        <ele>327.2</ele>
        <time>2025-08-06T09:46:02Z</time>
      </trkpt>
      <trkpt lat="45.71812" lon="4.68643">
        <ele>327.4</ele>
        <time>2025-08-06T09:46:03Z</time>
      </trkpt>
      <trkpt lat="45.71812" lon="4.68648">
        <ele>327.6</ele>
        <time>2025-08-06T09:46:04Z</time>
      </trkpt>
      <trkpt lat="45.71812" lon="4.68653">
        <ele>327.8</ele>
        <time>2025-08-06T09:46:05Z</time>
      </trkpt>
      <trkpt lat="45.71812" lon="4.68658">
        <ele>328</ele>
        <time>2025-08-06T09:46:06Z</time>
      </trkpt>
      <trkpt lat="45.71811" lon="4.68663">
        <ele>328.2</ele>
        <time>2025-08-06T09:46:07Z</time>
      </trkpt>
      <trkpt lat="45.7181" lon="4.68668">
        <ele>328.2</ele>
        <time>2025-08-06T09:46:08Z</time>
      </trkpt>
      <trkpt lat="45.71808" lon="4.68673">
        <ele>328.4</ele>
        <time>2025-08-06T09:46:09Z</time>
      </trkpt>
      <trkpt lat="45.71806" lon="4.68679">
        <ele>328.4</ele>
        <time>2025-08-06T09:46:10Z</time>
      </trkpt>
      <trkpt lat="45.71805" lon="4.68684">
        <ele>328.4</ele>
        <time>2025-08-06T09:46:11Z</time>
      </trkpt>
      <trkpt lat="45.71803" lon="4.6869">
        <ele>328.4</ele>
        <time>2025-08-06T09:46:12Z</time>
      </trkpt>
      <trkpt lat="45.71802" lon="4.68696">
        <ele>328.4</ele>
        <time>2025-08-06T09:46:13Z</time>
      </trkpt>
      <trkpt lat="45.71801" lon="4.68702">
        <ele>328.4</ele>
        <time>2025-08-06T09:46:14Z</time>
      </trkpt>
      <trkpt lat="45.718" lon="4.68708">
        <ele>328.6</ele>
        <time>2025-08-06T09:46:15Z</time>
      </trkpt>
      <trkpt lat="45.71798" lon="4.68712">
        <ele>328.6</ele>
        <time>2025-08-06T09:46:16Z</time>
      </trkpt>
      <trkpt lat="45.71795" lon="4.68715">
        <ele>328.6</ele>
        <time>2025-08-06T09:46:17Z</time>
      </trkpt>
      <trkpt lat="45.71792" lon="4.68718">
        <ele>328.6</ele>
        <time>2025-08-06T09:46:18Z</time>
      </trkpt>
      <trkpt lat="45.71789" lon="4.68722">
        <ele>328.4</ele>
        <time>2025-08-06T09:46:19Z</time>
      </trkpt>
      <trkpt lat="45.71785" lon="4.68728">
        <ele>328</ele>
        <time>2025-08-06T09:46:20Z</time>
      </trkpt>
      <trkpt lat="45.71781" lon="4.68735">
        <ele>327.6</ele>
        <time>2025-08-06T09:46:21Z</time>
      </trkpt>
      <trkpt lat="45.71777" lon="4.68743">
        <ele>327</ele>
        <time>2025-08-06T09:46:22Z</time>
      </trkpt>
      <trkpt lat="45.71773" lon="4.68751">
        <ele>326.2</ele>
        <time>2025-08-06T09:46:23Z</time>
      </trkpt>
      <trkpt lat="45.71769" lon="4.6876">
        <ele>325.4</ele>
        <time>2025-08-06T09:46:24Z</time>
      </trkpt>
      <trkpt lat="45.71764" lon="4.68769">
        <ele>324.8</ele>
        <time>2025-08-06T09:46:25Z</time>
      </trkpt>
      <trkpt lat="45.71759" lon="4.68777">
        <ele>324</ele>
        <time>2025-08-06T09:46:26Z</time>
      </trkpt>
      <trkpt lat="45.71755" lon="4.68786">
        <ele>323.2</ele>
        <time>2025-08-06T09:46:27Z</time>
      </trkpt>
      <trkpt lat="45.7175" lon="4.68794">
        <ele>322.6</ele>
        <time>2025-08-06T09:46:28Z</time>
      </trkpt>
      <trkpt lat="45.71746" lon="4.68803">
        <ele>322.2</ele>
        <time>2025-08-06T09:46:29Z</time>
      </trkpt>
      <trkpt lat="45.71741" lon="4.68811">
        <ele>321.8</ele>
        <time>2025-08-06T09:46:30Z</time>
      </trkpt>
      <trkpt lat="45.71737" lon="4.68819">
        <ele>321.8</ele>
        <time>2025-08-06T09:46:31Z</time>
      </trkpt>
      <trkpt lat="45.71733" lon="4.68827">
        <ele>321.8</ele>
        <time>2025-08-06T09:46:32Z</time>
      </trkpt>
      <trkpt lat="45.71728" lon="4.68835">
        <ele>322</ele>
        <time>2025-08-06T09:46:33Z</time>
      </trkpt>
      <trkpt lat="45.71724" lon="4.68842">
        <ele>322</ele>
        <time>2025-08-06T09:46:34Z</time>
      </trkpt>
      <trkpt lat="45.7172" lon="4.6885">
        <ele>322.2</ele>
        <time>2025-08-06T09:46:35Z</time>
      </trkpt>
      <trkpt lat="45.71716" lon="4.68857">
        <ele>322</ele>
        <time>2025-08-06T09:46:36Z</time>
      </trkpt>
      <trkpt lat="45.71712" lon="4.68865">
        <ele>321.8</ele>
        <time>2025-08-06T09:46:37Z</time>
      </trkpt>
      <trkpt lat="45.71708" lon="4.68872">
        <ele>321.8</ele>
        <time>2025-08-06T09:46:38Z</time>
      </trkpt>
      <trkpt lat="45.71703" lon="4.68879">
        <ele>322</ele>
        <time>2025-08-06T09:46:39Z</time>
      </trkpt>
      <trkpt lat="45.71699" lon="4.68886">
        <ele>322</ele>
        <time>2025-08-06T09:46:40Z</time>
      </trkpt>
      <trkpt lat="45.71695" lon="4.68893">
        <ele>322.2</ele>
        <time>2025-08-06T09:46:41Z</time>
      </trkpt>
      <trkpt lat="45.71691" lon="4.68899">
        <ele>322.2</ele>
        <time>2025-08-06T09:46:42Z</time>
      </trkpt>
      <trkpt lat="45.71687" lon="4.68906">
        <ele>322.4</ele>
        <time>2025-08-06T09:46:43Z</time>
      </trkpt>
      <trkpt lat="45.71683" lon="4.68913">
        <ele>322.6</ele>
        <time>2025-08-06T09:46:44Z</time>
      </trkpt>
      <trkpt lat="45.7168" lon="4.6892">
        <ele>323</ele>
        <time>2025-08-06T09:46:45Z</time>
      </trkpt>
      <trkpt lat="45.71676" lon="4.68927">
        <ele>323.2</ele>
        <time>2025-08-06T09:46:46Z</time>
      </trkpt>
      <trkpt lat="45.71673" lon="4.68934">
        <ele>323.6</ele>
        <time>2025-08-06T09:46:47Z</time>
      </trkpt>
      <trkpt lat="45.71669" lon="4.68941">
        <ele>323.8</ele>
        <time>2025-08-06T09:46:48Z</time>
      </trkpt>
      <trkpt lat="45.71666" lon="4.68947">
        <ele>323.8</ele>
        <time>2025-08-06T09:46:49Z</time>
      </trkpt>
      <trkpt lat="45.71663" lon="4.68954">
        <ele>323.8</ele>
        <time>2025-08-06T09:46:50Z</time>
      </trkpt>
      <trkpt lat="45.7166" lon="4.6896">
        <ele>324</ele>
        <time>2025-08-06T09:46:51Z</time>
      </trkpt>
      <trkpt lat="45.71657" lon="4.68967">
        <ele>324</ele>
        <time>2025-08-06T09:46:52Z</time>
      </trkpt>
      <trkpt lat="45.71653" lon="4.68973">
        <ele>324</ele>
        <time>2025-08-06T09:46:53Z</time>
      </trkpt>
      <trkpt lat="45.7165" lon="4.6898">
        <ele>324</ele>
        <time>2025-08-06T09:46:54Z</time>
      </trkpt>
      <trkpt lat="45.71647" lon="4.68986">
        <ele>324</ele>
        <time>2025-08-06T09:46:55Z</time>
      </trkpt>
      <trkpt lat="45.71643" lon="4.68993">
        <ele>324</ele>
        <time>2025-08-06T09:46:56Z</time>
      </trkpt>
      <trkpt lat="45.7164" lon="4.69">
        <ele>324</ele>
        <time>2025-08-06T09:46:57Z</time>
      </trkpt>
      <trkpt lat="45.71637" lon="4.69007">
        <ele>324</ele>
        <time>2025-08-06T09:46:58Z</time>
      </trkpt>
      <trkpt lat="45.71633" lon="4.69014">
        <ele>324.2</ele>
        <time>2025-08-06T09:46:59Z</time>
      </trkpt>
      <trkpt lat="45.7163" lon="4.69021">
        <ele>324.4</ele>
        <time>2025-08-06T09:47:00Z</time>
      </trkpt>
      <trkpt lat="45.71626" lon="4.69028">
        <ele>324.4</ele>
        <time>2025-08-06T09:47:01Z</time>
      </trkpt>
      <trkpt lat="45.71623" lon="4.69035">
        <ele>324.4</ele>
        <time>2025-08-06T09:47:02Z</time>
      </trkpt>
      <trkpt lat="45.7162" lon="4.69042">
        <ele>324.4</ele>
        <time>2025-08-06T09:47:03Z</time>
      </trkpt>
      <trkpt lat="45.71617" lon="4.69048">
        <ele>324.4</ele>
        <time>2025-08-06T09:47:04Z</time>
      </trkpt>
      <trkpt lat="45.71614" lon="4.69054">
        <ele>324.4</ele>
        <time>2025-08-06T09:47:05Z</time>
      </trkpt>
      <trkpt lat="45.71611" lon="4.69061">
        <ele>324.4</ele>
        <time>2025-08-06T09:47:06Z</time>
      </trkpt>
      <trkpt lat="45.71609" lon="4.69066">
        <ele>324.4</ele>
        <time>2025-08-06T09:47:07Z</time>
      </trkpt>
      <trkpt lat="45.71606" lon="4.69072">
        <ele>324.4</ele>
        <time>2025-08-06T09:47:08Z</time>
      </trkpt>
      <trkpt lat="45.71604" lon="4.69077">
        <ele>324.4</ele>
        <time>2025-08-06T09:47:09Z</time>
      </trkpt>
      <trkpt lat="45.71601" lon="4.69082">
        <ele>324.4</ele>
        <time>2025-08-06T09:47:10Z</time>
      </trkpt>
      <trkpt lat="45.71599" lon="4.69088">
        <ele>324.4</ele>
        <time>2025-08-06T09:47:11Z</time>
      </trkpt>
      <trkpt lat="45.71598" lon="4.69093">
        <ele>324.4</ele>
        <time>2025-08-06T09:47:12Z</time>
      </trkpt>
      <trkpt lat="45.71597" lon="4.69097">
        <ele>324.4</ele>
        <time>2025-08-06T09:47:13Z</time>
      </trkpt>
      <trkpt lat="45.71596" lon="4.69101">
        <ele>324.4</ele>
        <time>2025-08-06T09:47:14Z</time>
      </trkpt>
      <trkpt lat="45.71594" lon="4.69105">
        <ele>324.4</ele>
        <time>2025-08-06T09:47:15Z</time>
      </trkpt>
      <trkpt lat="45.71592" lon="4.69111">
        <ele>324.2</ele>
        <time>2025-08-06T09:47:16Z</time>
      </trkpt>
      <trkpt lat="45.7159" lon="4.69117">
        <ele>324</ele>
        <time>2025-08-06T09:47:17Z</time>
      </trkpt>
      <trkpt lat="45.71587" lon="4.69123">
        <ele>323.8</ele>
        <time>2025-08-06T09:47:18Z</time>
      </trkpt>
      <trkpt lat="45.71584" lon="4.6913">
        <ele>323.4</ele>
        <time>2025-08-06T09:47:19Z</time>
      </trkpt>
      <trkpt lat="45.7158" lon="4.69137">
        <ele>323.2</ele>
        <time>2025-08-06T09:47:20Z</time>
      </trkpt>
      <trkpt lat="45.71576" lon="4.69144">
        <ele>322.8</ele>
        <time>2025-08-06T09:47:21Z</time>
      </trkpt>
      <trkpt lat="45.71572" lon="4.69151">
        <ele>322.6</ele>
        <time>2025-08-06T09:47:22Z</time>
      </trkpt>
      <trkpt lat="45.71569" lon="4.69158">
        <ele>322.4</ele>
        <time>2025-08-06T09:47:23Z</time>
      </trkpt>
      <trkpt lat="45.71565" lon="4.69166">
        <ele>322.2</ele>
        <time>2025-08-06T09:47:24Z</time>
      </trkpt>
      <trkpt lat="45.71561" lon="4.69173">
        <ele>322.2</ele>
        <time>2025-08-06T09:47:25Z</time>
      </trkpt>
      <trkpt lat="45.71557" lon="4.6918">
        <ele>322</ele>
        <time>2025-08-06T09:47:26Z</time>
      </trkpt>
      <trkpt lat="45.71553" lon="4.69187">
        <ele>322</ele>
        <time>2025-08-06T09:47:27Z</time>
      </trkpt>
      <trkpt lat="45.71549" lon="4.69195">
        <ele>321.8</ele>
        <time>2025-08-06T09:47:28Z</time>
      </trkpt>
      <trkpt lat="45.71546" lon="4.69202">
        <ele>321.8</ele>
        <time>2025-08-06T09:47:29Z</time>
      </trkpt>
      <trkpt lat="45.71542" lon="4.69209">
        <ele>321.6</ele>
        <time>2025-08-06T09:47:30Z</time>
      </trkpt>
      <trkpt lat="45.71539" lon="4.69216">
        <ele>321.6</ele>
        <time>2025-08-06T09:47:31Z</time>
      </trkpt>
      <trkpt lat="45.71535" lon="4.69223">
        <ele>321.6</ele>
        <time>2025-08-06T09:47:32Z</time>
      </trkpt>
      <trkpt lat="45.71531" lon="4.6923">
        <ele>321.4</ele>
        <time>2025-08-06T09:47:33Z</time>
      </trkpt>
      <trkpt lat="45.71528" lon="4.69237">
        <ele>321.2</ele>
        <time>2025-08-06T09:47:34Z</time>
      </trkpt>
      <trkpt lat="45.71524" lon="4.69244">
        <ele>321</ele>
        <time>2025-08-06T09:47:35Z</time>
      </trkpt>
      <trkpt lat="45.7152" lon="4.69251">
        <ele>320.6</ele>
        <time>2025-08-06T09:47:36Z</time>
      </trkpt>
      <trkpt lat="45.71517" lon="4.69259">
        <ele>320.4</ele>
        <time>2025-08-06T09:47:37Z</time>
      </trkpt>
      <trkpt lat="45.71514" lon="4.69266">
        <ele>320.2</ele>
        <time>2025-08-06T09:47:38Z</time>
      </trkpt>
      <trkpt lat="45.7151" lon="4.69273">
        <ele>320</ele>
        <time>2025-08-06T09:47:39Z</time>
      </trkpt>
      <trkpt lat="45.71507" lon="4.6928">
        <ele>320</ele>
        <time>2025-08-06T09:47:40Z</time>
      </trkpt>
      <trkpt lat="45.71503" lon="4.69287">
        <ele>320</ele>
        <time>2025-08-06T09:47:41Z</time>
      </trkpt>
      <trkpt lat="45.715" lon="4.69294">
        <ele>320.2</ele>
        <time>2025-08-06T09:47:42Z</time>
      </trkpt>
      <trkpt lat="45.71497" lon="4.693">
        <ele>320.2</ele>
        <time>2025-08-06T09:47:43Z</time>
      </trkpt>
      <trkpt lat="45.71494" lon="4.69306">
        <ele>320.2</ele>
        <time>2025-08-06T09:47:44Z</time>
      </trkpt>
      <trkpt lat="45.71492" lon="4.6931">
        <ele>320.4</ele>
        <time>2025-08-06T09:47:45Z</time>
      </trkpt>
      <trkpt lat="45.7149" lon="4.69314">
        <ele>320.2</ele>
        <time>2025-08-06T09:47:46Z</time>
      </trkpt>
      <trkpt lat="45.71489" lon="4.69317">
        <ele>320.4</ele>
        <time>2025-08-06T09:47:47Z</time>
      </trkpt>
      <trkpt lat="45.71487" lon="4.69319">
        <ele>320.4</ele>
        <time>2025-08-06T09:47:48Z</time>
      </trkpt>
      <trkpt lat="45.71486" lon="4.69322">
        <ele>320.4</ele>
        <time>2025-08-06T09:47:49Z</time>
      </trkpt>
      <trkpt lat="45.71484" lon="4.69326">
        <ele>320.4</ele>
        <time>2025-08-06T09:47:50Z</time>
      </trkpt>
      <trkpt lat="45.71482" lon="4.69331">
        <ele>320.2</ele>
        <time>2025-08-06T09:47:51Z</time>
      </trkpt>
      <trkpt lat="45.71479" lon="4.69335">
        <ele>320.2</ele>
        <time>2025-08-06T09:47:52Z</time>
      </trkpt>
      <trkpt lat="45.71476" lon="4.6934">
        <ele>320.2</ele>
        <time>2025-08-06T09:47:53Z</time>
      </trkpt>
      <trkpt lat="45.71473" lon="4.69345">
        <ele>320</ele>
        <time>2025-08-06T09:47:54Z</time>
      </trkpt>
      <trkpt lat="45.7147" lon="4.69351">
        <ele>320</ele>
        <time>2025-08-06T09:47:55Z</time>
      </trkpt>
      <trkpt lat="45.71466" lon="4.69356">
        <ele>319.8</ele>
        <time>2025-08-06T09:47:56Z</time>
      </trkpt>
      <trkpt lat="45.71463" lon="4.69361">
        <ele>319.8</ele>
        <time>2025-08-06T09:47:57Z</time>
      </trkpt>
      <trkpt lat="45.71459" lon="4.69367">
        <ele>319.8</ele>
        <time>2025-08-06T09:47:58Z</time>
      </trkpt>
      <trkpt lat="45.71456" lon="4.69372">
        <ele>319.8</ele>
        <time>2025-08-06T09:47:59Z</time>
      </trkpt>
      <trkpt lat="45.71452" lon="4.69378">
        <ele>320</ele>
        <time>2025-08-06T09:48:00Z</time>
      </trkpt>
      <trkpt lat="45.71448" lon="4.69384">
        <ele>320</ele>
        <time>2025-08-06T09:48:01Z</time>
      </trkpt>
      <trkpt lat="45.71445" lon="4.6939">
        <ele>320</ele>
        <time>2025-08-06T09:48:02Z</time>
      </trkpt>
      <trkpt lat="45.71441" lon="4.69396">
        <ele>320</ele>
        <time>2025-08-06T09:48:03Z</time>
      </trkpt>
      <trkpt lat="45.71437" lon="4.69402">
        <ele>320</ele>
        <time>2025-08-06T09:48:04Z</time>
      </trkpt>
      <trkpt lat="45.71433" lon="4.69408">
        <ele>319.8</ele>
        <time>2025-08-06T09:48:05Z</time>
      </trkpt>
      <trkpt lat="45.71429" lon="4.69414">
        <ele>319.8</ele>
        <time>2025-08-06T09:48:06Z</time>
      </trkpt>
      <trkpt lat="45.71425" lon="4.69421">
        <ele>319.6</ele>
        <time>2025-08-06T09:48:07Z</time>
      </trkpt>
      <trkpt lat="45.71422" lon="4.69427">
        <ele>319.6</ele>
        <time>2025-08-06T09:48:08Z</time>
      </trkpt>
      <trkpt lat="45.71418" lon="4.69434">
        <ele>319.6</ele>
        <time>2025-08-06T09:48:09Z</time>
      </trkpt>
      <trkpt lat="45.71414" lon="4.69441">
        <ele>319.6</ele>
        <time>2025-08-06T09:48:10Z</time>
      </trkpt>
      <trkpt lat="45.7141" lon="4.69448">
        <ele>319.6</ele>
        <time>2025-08-06T09:48:11Z</time>
      </trkpt>
      <trkpt lat="45.71406" lon="4.69455">
        <ele>319.6</ele>
        <time>2025-08-06T09:48:12Z</time>
      </trkpt>
      <trkpt lat="45.71403" lon="4.69462">
        <ele>319.4</ele>
        <time>2025-08-06T09:48:13Z</time>
      </trkpt>
      <trkpt lat="45.71399" lon="4.6947">
        <ele>319.4</ele>
        <time>2025-08-06T09:48:14Z</time>
      </trkpt>
      <trkpt lat="45.71396" lon="4.69477">
        <ele>319.2</ele>
        <time>2025-08-06T09:48:15Z</time>
      </trkpt>
      <trkpt lat="45.71392" lon="4.69484">
        <ele>319</ele>
        <time>2025-08-06T09:48:16Z</time>
      </trkpt>
      <trkpt lat="45.71388" lon="4.69491">
        <ele>318.8</ele>
        <time>2025-08-06T09:48:17Z</time>
      </trkpt>
      <trkpt lat="45.71385" lon="4.69499">
        <ele>318.8</ele>
        <time>2025-08-06T09:48:18Z</time>
      </trkpt>
      <trkpt lat="45.71381" lon="4.69506">
        <ele>318.8</ele>
        <time>2025-08-06T09:48:19Z</time>
      </trkpt>
      <trkpt lat="45.71378" lon="4.69514">
        <ele>318.6</ele>
        <time>2025-08-06T09:48:20Z</time>
      </trkpt>
      <trkpt lat="45.71374" lon="4.69521">
        <ele>318.4</ele>
        <time>2025-08-06T09:48:21Z</time>
      </trkpt>
      <trkpt lat="45.71371" lon="4.69529">
        <ele>318.2</ele>
        <time>2025-08-06T09:48:22Z</time>
      </trkpt>
      <trkpt lat="45.71367" lon="4.69537">
        <ele>318</ele>
        <time>2025-08-06T09:48:23Z</time>
      </trkpt>
      <trkpt lat="45.71363" lon="4.69545">
        <ele>317.8</ele>
        <time>2025-08-06T09:48:24Z</time>
      </trkpt>
      <trkpt lat="45.71359" lon="4.69553">
        <ele>317.8</ele>
        <time>2025-08-06T09:48:25Z</time>
      </trkpt>
      <trkpt lat="45.71356" lon="4.69561">
        <ele>317.6</ele>
        <time>2025-08-06T09:48:26Z</time>
      </trkpt>
      <trkpt lat="45.71352" lon="4.69569">
        <ele>317.4</ele>
        <time>2025-08-06T09:48:27Z</time>
      </trkpt>
      <trkpt lat="45.71348" lon="4.69577">
        <ele>317.2</ele>
        <time>2025-08-06T09:48:28Z</time>
      </trkpt>
      <trkpt lat="45.71344" lon="4.69585">
        <ele>317</ele>
        <time>2025-08-06T09:48:29Z</time>
      </trkpt>
      <trkpt lat="45.71341" lon="4.69593">
        <ele>316.8</ele>
        <time>2025-08-06T09:48:30Z</time>
      </trkpt>
      <trkpt lat="45.71337" lon="4.696">
        <ele>316.8</ele>
        <time>2025-08-06T09:48:31Z</time>
      </trkpt>
      <trkpt lat="45.71334" lon="4.69607">
        <ele>316.8</ele>
        <time>2025-08-06T09:48:32Z</time>
      </trkpt>
      <trkpt lat="45.7133" lon="4.69614">
        <ele>316.8</ele>
        <time>2025-08-06T09:48:33Z</time>
      </trkpt>
      <trkpt lat="45.71327" lon="4.69621">
        <ele>316.8</ele>
        <time>2025-08-06T09:48:34Z</time>
      </trkpt>
      <trkpt lat="45.71324" lon="4.69628">
        <ele>317</ele>
        <time>2025-08-06T09:48:35Z</time>
      </trkpt>
      <trkpt lat="45.71321" lon="4.69635">
        <ele>317</ele>
        <time>2025-08-06T09:48:36Z</time>
      </trkpt>
      <trkpt lat="45.71318" lon="4.69642">
        <ele>317</ele>
        <time>2025-08-06T09:48:37Z</time>
      </trkpt>
      <trkpt lat="45.71314" lon="4.69649">
        <ele>317</ele>
        <time>2025-08-06T09:48:38Z</time>
      </trkpt>
      <trkpt lat="45.71311" lon="4.69656">
        <ele>317</ele>
        <time>2025-08-06T09:48:39Z</time>
      </trkpt>
      <trkpt lat="45.71308" lon="4.69663">
        <ele>317</ele>
        <time>2025-08-06T09:48:40Z</time>
      </trkpt>
      <trkpt lat="45.71304" lon="4.69671">
        <ele>317</ele>
        <time>2025-08-06T09:48:41Z</time>
      </trkpt>
      <trkpt lat="45.71301" lon="4.69678">
        <ele>316.8</ele>
        <time>2025-08-06T09:48:42Z</time>
      </trkpt>
      <trkpt lat="45.71297" lon="4.69685">
        <ele>316.8</ele>
        <time>2025-08-06T09:48:43Z</time>
      </trkpt>
      <trkpt lat="45.71294" lon="4.69692">
        <ele>316.6</ele>
        <time>2025-08-06T09:48:44Z</time>
      </trkpt>
      <trkpt lat="45.71291" lon="4.69699">
        <ele>316.6</ele>
        <time>2025-08-06T09:48:45Z</time>
      </trkpt>
      <trkpt lat="45.71287" lon="4.69707">
        <ele>316.4</ele>
        <time>2025-08-06T09:48:46Z</time>
      </trkpt>
      <trkpt lat="45.71284" lon="4.69714">
        <ele>316.4</ele>
        <time>2025-08-06T09:48:47Z</time>
      </trkpt>
      <trkpt lat="45.7128" lon="4.69721">
        <ele>316.4</ele>
        <time>2025-08-06T09:48:48Z</time>
      </trkpt>
      <trkpt lat="45.71276" lon="4.69728">
        <ele>316.2</ele>
        <time>2025-08-06T09:48:49Z</time>
      </trkpt>
      <trkpt lat="45.71273" lon="4.69735">
        <ele>316.2</ele>
        <time>2025-08-06T09:48:50Z</time>
      </trkpt>
      <trkpt lat="45.71269" lon="4.69743">
        <ele>316</ele>
        <time>2025-08-06T09:48:51Z</time>
      </trkpt>
      <trkpt lat="45.71266" lon="4.6975">
        <ele>316</ele>
        <time>2025-08-06T09:48:52Z</time>
      </trkpt>
      <trkpt lat="45.71262" lon="4.69757">
        <ele>315.8</ele>
        <time>2025-08-06T09:48:53Z</time>
      </trkpt>
      <trkpt lat="45.71259" lon="4.69764">
        <ele>315.6</ele>
        <time>2025-08-06T09:48:54Z</time>
      </trkpt>
      <trkpt lat="45.71255" lon="4.69772">
        <ele>315.6</ele>
        <time>2025-08-06T09:48:55Z</time>
      </trkpt>
      <trkpt lat="45.71251" lon="4.69779">
        <ele>315.6</ele>
        <time>2025-08-06T09:48:56Z</time>
      </trkpt>
      <trkpt lat="45.71247" lon="4.69786">
        <ele>315.4</ele>
        <time>2025-08-06T09:48:57Z</time>
      </trkpt>
      <trkpt lat="45.71244" lon="4.69794">
        <ele>315.4</ele>
        <time>2025-08-06T09:48:58Z</time>
      </trkpt>
      <trkpt lat="45.71241" lon="4.69801">
        <ele>315.4</ele>
        <time>2025-08-06T09:48:59Z</time>
      </trkpt>
      <trkpt lat="45.71237" lon="4.69809">
        <ele>315.4</ele>
        <time>2025-08-06T09:49:00Z</time>
      </trkpt>
      <trkpt lat="45.71234" lon="4.69816">
        <ele>315.2</ele>
        <time>2025-08-06T09:49:01Z</time>
      </trkpt>
      <trkpt lat="45.7123" lon="4.69823">
        <ele>315.2</ele>
        <time>2025-08-06T09:49:02Z</time>
      </trkpt>
      <trkpt lat="45.71227" lon="4.69831">
        <ele>315.2</ele>
        <time>2025-08-06T09:49:03Z</time>
      </trkpt>
      <trkpt lat="45.71223" lon="4.69839">
        <ele>315</ele>
        <time>2025-08-06T09:49:04Z</time>
      </trkpt>
      <trkpt lat="45.7122" lon="4.69845">
        <ele>315</ele>
        <time>2025-08-06T09:49:05Z</time>
      </trkpt>
      <trkpt lat="45.71216" lon="4.69853">
        <ele>315</ele>
        <time>2025-08-06T09:49:06Z</time>
      </trkpt>
      <trkpt lat="45.71212" lon="4.69861">
        <ele>314.8</ele>
        <time>2025-08-06T09:49:07Z</time>
      </trkpt>
      <trkpt lat="45.71209" lon="4.69868">
        <ele>314.8</ele>
        <time>2025-08-06T09:49:08Z</time>
      </trkpt>
      <trkpt lat="45.71205" lon="4.69875">
        <ele>314.6</ele>
        <time>2025-08-06T09:49:09Z</time>
      </trkpt>
      <trkpt lat="45.71201" lon="4.69882">
        <ele>314.6</ele>
        <time>2025-08-06T09:49:10Z</time>
      </trkpt>
      <trkpt lat="45.71197" lon="4.69888">
        <ele>314.6</ele>
        <time>2025-08-06T09:49:11Z</time>
      </trkpt>
      <trkpt lat="45.71193" lon="4.69895">
        <ele>314.4</ele>
        <time>2025-08-06T09:49:12Z</time>
      </trkpt>
      <trkpt lat="45.71188" lon="4.69902">
        <ele>314.4</ele>
        <time>2025-08-06T09:49:13Z</time>
      </trkpt>
      <trkpt lat="45.71184" lon="4.69909">
        <ele>314.2</ele>
        <time>2025-08-06T09:49:14Z</time>
      </trkpt>
      <trkpt lat="45.7118" lon="4.69915">
        <ele>314.2</ele>
        <time>2025-08-06T09:49:15Z</time>
      </trkpt>
      <trkpt lat="45.71176" lon="4.69922">
        <ele>314.2</ele>
        <time>2025-08-06T09:49:16Z</time>
      </trkpt>
      <trkpt lat="45.71171" lon="4.69928">
        <ele>314.2</ele>
        <time>2025-08-06T09:49:17Z</time>
      </trkpt>
      <trkpt lat="45.71167" lon="4.69935">
        <ele>314.2</ele>
        <time>2025-08-06T09:49:18Z</time>
      </trkpt>
      <trkpt lat="45.71163" lon="4.69942">
        <ele>314.2</ele>
        <time>2025-08-06T09:49:19Z</time>
      </trkpt>
      <trkpt lat="45.71158" lon="4.69948">
        <ele>314.2</ele>
        <time>2025-08-06T09:49:20Z</time>
      </trkpt>
      <trkpt lat="45.71154" lon="4.69955">
        <ele>314</ele>
        <time>2025-08-06T09:49:21Z</time>
      </trkpt>
      <trkpt lat="45.7115" lon="4.69961">
        <ele>314</ele>
        <time>2025-08-06T09:49:22Z</time>
      </trkpt>
      <trkpt lat="45.71145" lon="4.69968">
        <ele>314</ele>
        <time>2025-08-06T09:49:23Z</time>
      </trkpt>
      <trkpt lat="45.71141" lon="4.69974">
        <ele>313.8</ele>
        <time>2025-08-06T09:49:24Z</time>
      </trkpt>
      <trkpt lat="45.71136" lon="4.6998">
        <ele>313.8</ele>
        <time>2025-08-06T09:49:25Z</time>
      </trkpt>
      <trkpt lat="45.71132" lon="4.69987">
        <ele>313.8</ele>
        <time>2025-08-06T09:49:26Z</time>
      </trkpt>
      <trkpt lat="45.71128" lon="4.69994">
        <ele>313.8</ele>
        <time>2025-08-06T09:49:27Z</time>
      </trkpt>
      <trkpt lat="45.71124" lon="4.70001">
        <ele>313.6</ele>
        <time>2025-08-06T09:49:28Z</time>
      </trkpt>
      <trkpt lat="45.71119" lon="4.70008">
        <ele>313.6</ele>
        <time>2025-08-06T09:49:29Z</time>
      </trkpt>
      <trkpt lat="45.71115" lon="4.70014">
        <ele>313.6</ele>
        <time>2025-08-06T09:49:30Z</time>
      </trkpt>
      <trkpt lat="45.71111" lon="4.70021">
        <ele>313.4</ele>
        <time>2025-08-06T09:49:31Z</time>
      </trkpt>
      <trkpt lat="45.71107" lon="4.70028">
        <ele>313.4</ele>
        <time>2025-08-06T09:49:32Z</time>
      </trkpt>
      <trkpt lat="45.71102" lon="4.70035">
        <ele>313.4</ele>
        <time>2025-08-06T09:49:33Z</time>
      </trkpt>
      <trkpt lat="45.71098" lon="4.70041">
        <ele>313.4</ele>
        <time>2025-08-06T09:49:34Z</time>
      </trkpt>
      <trkpt lat="45.71094" lon="4.70048">
        <ele>313.2</ele>
        <time>2025-08-06T09:49:35Z</time>
      </trkpt>
      <trkpt lat="45.7109" lon="4.70055">
        <ele>313.2</ele>
        <time>2025-08-06T09:49:36Z</time>
      </trkpt>
      <trkpt lat="45.71086" lon="4.70061">
        <ele>313.2</ele>
        <time>2025-08-06T09:49:37Z</time>
      </trkpt>
      <trkpt lat="45.71082" lon="4.70068">
        <ele>313</ele>
        <time>2025-08-06T09:49:38Z</time>
      </trkpt>
      <trkpt lat="45.71078" lon="4.70074">
        <ele>313</ele>
        <time>2025-08-06T09:49:39Z</time>
      </trkpt>
      <trkpt lat="45.71074" lon="4.70081">
        <ele>313</ele>
        <time>2025-08-06T09:49:40Z</time>
      </trkpt>
      <trkpt lat="45.7107" lon="4.70087">
        <ele>313</ele>
        <time>2025-08-06T09:49:41Z</time>
      </trkpt>
      <trkpt lat="45.71067" lon="4.70094">
        <ele>313</ele>
        <time>2025-08-06T09:49:42Z</time>
      </trkpt>
      <trkpt lat="45.71063" lon="4.70101">
        <ele>313.2</ele>
        <time>2025-08-06T09:49:43Z</time>
      </trkpt>
      <trkpt lat="45.7106" lon="4.70108">
        <ele>313.2</ele>
        <time>2025-08-06T09:49:44Z</time>
      </trkpt>
      <trkpt lat="45.71057" lon="4.70115">
        <ele>313</ele>
        <time>2025-08-06T09:49:45Z</time>
      </trkpt>
      <trkpt lat="45.71053" lon="4.70122">
        <ele>313</ele>
        <time>2025-08-06T09:49:46Z</time>
      </trkpt>
      <trkpt lat="45.7105" lon="4.70129">
        <ele>313</ele>
        <time>2025-08-06T09:49:47Z</time>
      </trkpt>
      <trkpt lat="45.71046" lon="4.70135">
        <ele>313</ele>
        <time>2025-08-06T09:49:48Z</time>
      </trkpt>
      <trkpt lat="45.71043" lon="4.70142">
        <ele>313.2</ele>
        <time>2025-08-06T09:49:49Z</time>
      </trkpt>
      <trkpt lat="45.71039" lon="4.70148">
        <ele>313.2</ele>
        <time>2025-08-06T09:49:50Z</time>
      </trkpt>
      <trkpt lat="45.71036" lon="4.70154">
        <ele>313.2</ele>
        <time>2025-08-06T09:49:51Z</time>
      </trkpt>
      <trkpt lat="45.71032" lon="4.70161">
        <ele>313.2</ele>
        <time>2025-08-06T09:49:52Z</time>
      </trkpt>
      <trkpt lat="45.71029" lon="4.70168">
        <ele>313.2</ele>
        <time>2025-08-06T09:49:53Z</time>
      </trkpt>
      <trkpt lat="45.71026" lon="4.70175">
        <ele>313.2</ele>
        <time>2025-08-06T09:49:54Z</time>
      </trkpt>
      <trkpt lat="45.71023" lon="4.70182">
        <ele>313.2</ele>
        <time>2025-08-06T09:49:55Z</time>
      </trkpt>
      <trkpt lat="45.7102" lon="4.70189">
        <ele>313.4</ele>
        <time>2025-08-06T09:49:56Z</time>
      </trkpt>
      <trkpt lat="45.71016" lon="4.70195">
        <ele>313.4</ele>
        <time>2025-08-06T09:49:57Z</time>
      </trkpt>
      <trkpt lat="45.71013" lon="4.70202">
        <ele>313.6</ele>
        <time>2025-08-06T09:49:58Z</time>
      </trkpt>
      <trkpt lat="45.7101" lon="4.70208">
        <ele>313.6</ele>
        <time>2025-08-06T09:49:59Z</time>
      </trkpt>
      <trkpt lat="45.71007" lon="4.70215">
        <ele>313.6</ele>
        <time>2025-08-06T09:50:00Z</time>
      </trkpt>
      <trkpt lat="45.71004" lon="4.70221">
        <ele>313.6</ele>
        <time>2025-08-06T09:50:01Z</time>
      </trkpt>
      <trkpt lat="45.71001" lon="4.70227">
        <ele>313.6</ele>
        <time>2025-08-06T09:50:02Z</time>
      </trkpt>
      <trkpt lat="45.70998" lon="4.70233">
        <ele>313.6</ele>
        <time>2025-08-06T09:50:03Z</time>
      </trkpt>
      <trkpt lat="45.70995" lon="4.70239">
        <ele>313.6</ele>
        <time>2025-08-06T09:50:04Z</time>
      </trkpt>
      <trkpt lat="45.70992" lon="4.70245">
        <ele>313.6</ele>
        <time>2025-08-06T09:50:05Z</time>
      </trkpt>
      <trkpt lat="45.70989" lon="4.70252">
        <ele>313.8</ele>
        <time>2025-08-06T09:50:06Z</time>
      </trkpt>
      <trkpt lat="45.70986" lon="4.70258">
        <ele>313.8</ele>
        <time>2025-08-06T09:50:07Z</time>
      </trkpt>
      <trkpt lat="45.70983" lon="4.70264">
        <ele>313.8</ele>
        <time>2025-08-06T09:50:08Z</time>
      </trkpt>
      <trkpt lat="45.7098" lon="4.70271">
        <ele>314</ele>
        <time>2025-08-06T09:50:09Z</time>
      </trkpt>
      <trkpt lat="45.70977" lon="4.70277">
        <ele>314</ele>
        <time>2025-08-06T09:50:10Z</time>
      </trkpt>
      <trkpt lat="45.70975" lon="4.70283">
        <ele>314.2</ele>
        <time>2025-08-06T09:50:11Z</time>
      </trkpt>
      <trkpt lat="45.70971" lon="4.7029">
        <ele>314.4</ele>
        <time>2025-08-06T09:50:12Z</time>
      </trkpt>
      <trkpt lat="45.70968" lon="4.70296">
        <ele>314.4</ele>
        <time>2025-08-06T09:50:13Z</time>
      </trkpt>
      <trkpt lat="45.70965" lon="4.70302">
        <ele>314.4</ele>
        <time>2025-08-06T09:50:14Z</time>
      </trkpt>
      <trkpt lat="45.70962" lon="4.70308">
        <ele>314.6</ele>
        <time>2025-08-06T09:50:15Z</time>
      </trkpt>
      <trkpt lat="45.7096" lon="4.70315">
        <ele>314.6</ele>
        <time>2025-08-06T09:50:16Z</time>
      </trkpt>
      <trkpt lat="45.70957" lon="4.70321">
        <ele>314.8</ele>
        <time>2025-08-06T09:50:17Z</time>
      </trkpt>
      <trkpt lat="45.70954" lon="4.70327">
        <ele>315.2</ele>
        <time>2025-08-06T09:50:18Z</time>
      </trkpt>
      <trkpt lat="45.70951" lon="4.70333">
        <ele>315.4</ele>
        <time>2025-08-06T09:50:19Z</time>
      </trkpt>
      <trkpt lat="45.70948" lon="4.70339">
        <ele>315.4</ele>
        <time>2025-08-06T09:50:20Z</time>
      </trkpt>
      <trkpt lat="45.70945" lon="4.70345">
        <ele>315.6</ele>
        <time>2025-08-06T09:50:21Z</time>
      </trkpt>
      <trkpt lat="45.70942" lon="4.70351">
        <ele>315.6</ele>
        <time>2025-08-06T09:50:22Z</time>
      </trkpt>
      <trkpt lat="45.7094" lon="4.70357">
        <ele>315.8</ele>
        <time>2025-08-06T09:50:23Z</time>
      </trkpt>
      <trkpt lat="45.70937" lon="4.70363">
        <ele>315.8</ele>
        <time>2025-08-06T09:50:24Z</time>
      </trkpt>
      <trkpt lat="45.70934" lon="4.70368">
        <ele>315.8</ele>
        <time>2025-08-06T09:50:25Z</time>
      </trkpt>
      <trkpt lat="45.70932" lon="4.70374">
        <ele>316</ele>
        <time>2025-08-06T09:50:26Z</time>
      </trkpt>
      <trkpt lat="45.70929" lon="4.70379">
        <ele>316.2</ele>
        <time>2025-08-06T09:50:27Z</time>
      </trkpt>
      <trkpt lat="45.70926" lon="4.70383">
        <ele>316.2</ele>
        <time>2025-08-06T09:50:28Z</time>
      </trkpt>
      <trkpt lat="45.70923" lon="4.70387">
        <ele>316.4</ele>
        <time>2025-08-06T09:50:29Z</time>
      </trkpt>
      <trkpt lat="45.70921" lon="4.7039">
        <ele>316.6</ele>
        <time>2025-08-06T09:50:30Z</time>
      </trkpt>
      <trkpt lat="45.7092" lon="4.70394">
        <ele>317</ele>
        <time>2025-08-06T09:50:31Z</time>
      </trkpt>
      <trkpt lat="45.70919" lon="4.70398">
        <ele>317.2</ele>
        <time>2025-08-06T09:50:32Z</time>
      </trkpt>
      <trkpt lat="45.70919" lon="4.70402">
        <ele>317.4</ele>
        <time>2025-08-06T09:50:33Z</time>
      </trkpt>
      <trkpt lat="45.70919" lon="4.70408">
        <ele>317.2</ele>
        <time>2025-08-06T09:50:34Z</time>
      </trkpt>
      <trkpt lat="45.70919" lon="4.70413">
        <ele>317</ele>
        <time>2025-08-06T09:50:35Z</time>
      </trkpt>
      <trkpt lat="45.70918" lon="4.70419">
        <ele>316.8</ele>
        <time>2025-08-06T09:50:36Z</time>
      </trkpt>
      <trkpt lat="45.70917" lon="4.70426">
        <ele>316.6</ele>
        <time>2025-08-06T09:50:37Z</time>
      </trkpt>
      <trkpt lat="45.70914" lon="4.70431">
        <ele>316.6</ele>
        <time>2025-08-06T09:50:38Z</time>
      </trkpt>
      <trkpt lat="45.70911" lon="4.70436">
        <ele>316.6</ele>
        <time>2025-08-06T09:50:39Z</time>
      </trkpt>
      <trkpt lat="45.70908" lon="4.70441">
        <ele>316.8</ele>
        <time>2025-08-06T09:50:40Z</time>
      </trkpt>
      <trkpt lat="45.70905" lon="4.70447">
        <ele>317.2</ele>
        <time>2025-08-06T09:50:41Z</time>
      </trkpt>
      <trkpt lat="45.70902" lon="4.70452">
        <ele>317.4</ele>
        <time>2025-08-06T09:50:42Z</time>
      </trkpt>
      <trkpt lat="45.70899" lon="4.70458">
        <ele>317.6</ele>
        <time>2025-08-06T09:50:43Z</time>
      </trkpt>
      <trkpt lat="45.70895" lon="4.70462">
        <ele>317.8</ele>
        <time>2025-08-06T09:50:44Z</time>
      </trkpt>
      <trkpt lat="45.70892" lon="4.70467">
        <ele>318</ele>
        <time>2025-08-06T09:50:45Z</time>
      </trkpt>
      <trkpt lat="45.70888" lon="4.7047">
        <ele>318</ele>
        <time>2025-08-06T09:50:46Z</time>
      </trkpt>
      <trkpt lat="45.70883" lon="4.70472">
        <ele>318</ele>
        <time>2025-08-06T09:50:47Z</time>
      </trkpt>
      <trkpt lat="45.70879" lon="4.70471">
        <ele>318.2</ele>
        <time>2025-08-06T09:50:48Z</time>
      </trkpt>
      <trkpt lat="45.70874" lon="4.70469">
        <ele>318.2</ele>
        <time>2025-08-06T09:50:49Z</time>
      </trkpt>
      <trkpt lat="45.7087" lon="4.70465">
        <ele>318.2</ele>
        <time>2025-08-06T09:50:50Z</time>
      </trkpt>
      <trkpt lat="45.70866" lon="4.70461">
        <ele>318.2</ele>
        <time>2025-08-06T09:50:51Z</time>
      </trkpt>
      <trkpt lat="45.70862" lon="4.70457">
        <ele>318.2</ele>
        <time>2025-08-06T09:50:52Z</time>
      </trkpt>
      <trkpt lat="45.70858" lon="4.70452">
        <ele>318.2</ele>
        <time>2025-08-06T09:50:53Z</time>
      </trkpt>
      <trkpt lat="45.70854" lon="4.70448">
        <ele>318.4</ele>
        <time>2025-08-06T09:50:54Z</time>
      </trkpt>
      <trkpt lat="45.7085" lon="4.70443">
        <ele>318.4</ele>
        <time>2025-08-06T09:50:55Z</time>
      </trkpt>
      <trkpt lat="45.70846" lon="4.70439">
        <ele>318.6</ele>
        <time>2025-08-06T09:50:56Z</time>
      </trkpt>
      <trkpt lat="45.70842" lon="4.70434">
        <ele>318.6</ele>
        <time>2025-08-06T09:50:57Z</time>
      </trkpt>
      <trkpt lat="45.70838" lon="4.7043">
        <ele>318.8</ele>
        <time>2025-08-06T09:50:58Z</time>
      </trkpt>
      <trkpt lat="45.70834" lon="4.70425">
        <ele>319</ele>
        <time>2025-08-06T09:50:59Z</time>
      </trkpt>
      <trkpt lat="45.70829" lon="4.70421">
        <ele>319.2</ele>
        <time>2025-08-06T09:51:00Z</time>
      </trkpt>
      <trkpt lat="45.70825" lon="4.70417">
        <ele>319.2</ele>
        <time>2025-08-06T09:51:01Z</time>
      </trkpt>
      <trkpt lat="45.70821" lon="4.70414">
        <ele>319.4</ele>
        <time>2025-08-06T09:51:02Z</time>
      </trkpt>
      <trkpt lat="45.70816" lon="4.70415">
        <ele>319.4</ele>
        <time>2025-08-06T09:51:03Z</time>
      </trkpt>
      <trkpt lat="45.70813" lon="4.70418">
        <ele>319.6</ele>
        <time>2025-08-06T09:51:04Z</time>
      </trkpt>
      <trkpt lat="45.7081" lon="4.70423">
        <ele>319.4</ele>
        <time>2025-08-06T09:51:05Z</time>
      </trkpt>
      <trkpt lat="45.70809" lon="4.70429">
        <ele>319.4</ele>
        <time>2025-08-06T09:51:06Z</time>
      </trkpt>
      <trkpt lat="45.70807" lon="4.70436">
        <ele>319.4</ele>
        <time>2025-08-06T09:51:07Z</time>
      </trkpt>
      <trkpt lat="45.70806" lon="4.70442">
        <ele>319.2</ele>
        <time>2025-08-06T09:51:08Z</time>
      </trkpt>
      <trkpt lat="45.70805" lon="4.70449">
        <ele>319.2</ele>
        <time>2025-08-06T09:51:09Z</time>
      </trkpt>
      <trkpt lat="45.70804" lon="4.70457">
        <ele>319.2</ele>
        <time>2025-08-06T09:51:10Z</time>
      </trkpt>
      <trkpt lat="45.70803" lon="4.70464">
        <ele>319.2</ele>
        <time>2025-08-06T09:51:11Z</time>
      </trkpt>
      <trkpt lat="45.70802" lon="4.70472">
        <ele>319.2</ele>
        <time>2025-08-06T09:51:12Z</time>
      </trkpt>
      <trkpt lat="45.708" lon="4.70479">
        <ele>319.2</ele>
        <time>2025-08-06T09:51:13Z</time>
      </trkpt>
      <trkpt lat="45.70798" lon="4.70487">
        <ele>319.2</ele>
        <time>2025-08-06T09:51:14Z</time>
      </trkpt>
      <trkpt lat="45.70797" lon="4.70494">
        <ele>319.2</ele>
        <time>2025-08-06T09:51:15Z</time>
      </trkpt>
      <trkpt lat="45.70796" lon="4.70502">
        <ele>319.4</ele>
        <time>2025-08-06T09:51:16Z</time>
      </trkpt>
      <trkpt lat="45.70794" lon="4.70509">
        <ele>319.4</ele>
        <time>2025-08-06T09:51:17Z</time>
      </trkpt>
      <trkpt lat="45.70792" lon="4.70517">
        <ele>319.4</ele>
        <time>2025-08-06T09:51:18Z</time>
      </trkpt>
      <trkpt lat="45.7079" lon="4.70524">
        <ele>319.2</ele>
        <time>2025-08-06T09:51:19Z</time>
      </trkpt>
      <trkpt lat="45.70788" lon="4.70531">
        <ele>319.2</ele>
        <time>2025-08-06T09:51:20Z</time>
      </trkpt>
      <trkpt lat="45.70786" lon="4.70539">
        <ele>319.2</ele>
        <time>2025-08-06T09:51:21Z</time>
      </trkpt>
      <trkpt lat="45.70784" lon="4.70546">
        <ele>319.4</ele>
        <time>2025-08-06T09:51:22Z</time>
      </trkpt>
      <trkpt lat="45.70781" lon="4.70553">
        <ele>319.4</ele>
        <time>2025-08-06T09:51:23Z</time>
      </trkpt>
      <trkpt lat="45.70778" lon="4.7056">
        <ele>319.4</ele>
        <time>2025-08-06T09:51:24Z</time>
      </trkpt>
      <trkpt lat="45.70775" lon="4.70567">
        <ele>319.4</ele>
        <time>2025-08-06T09:51:25Z</time>
      </trkpt>
      <trkpt lat="45.70771" lon="4.70574">
        <ele>319.4</ele>
        <time>2025-08-06T09:51:26Z</time>
      </trkpt>
      <trkpt lat="45.70768" lon="4.70581">
        <ele>319.4</ele>
        <time>2025-08-06T09:51:27Z</time>
      </trkpt>
      <trkpt lat="45.70764" lon="4.70588">
        <ele>319.2</ele>
        <time>2025-08-06T09:51:28Z</time>
      </trkpt>
      <trkpt lat="45.7076" lon="4.70595">
        <ele>319.2</ele>
        <time>2025-08-06T09:51:29Z</time>
      </trkpt>
      <trkpt lat="45.70757" lon="4.70602">
        <ele>319.2</ele>
        <time>2025-08-06T09:51:30Z</time>
      </trkpt>
      <trkpt lat="45.70753" lon="4.70609">
        <ele>319</ele>
        <time>2025-08-06T09:51:31Z</time>
      </trkpt>
      <trkpt lat="45.70748" lon="4.70616">
        <ele>318.8</ele>
        <time>2025-08-06T09:51:32Z</time>
      </trkpt>
      <trkpt lat="45.70745" lon="4.70623">
        <ele>318.6</ele>
        <time>2025-08-06T09:51:33Z</time>
      </trkpt>
      <trkpt lat="45.70741" lon="4.7063">
        <ele>318.2</ele>
        <time>2025-08-06T09:51:34Z</time>
      </trkpt>
      <trkpt lat="45.70736" lon="4.70637">
        <ele>318</ele>
        <time>2025-08-06T09:51:35Z</time>
      </trkpt>
      <trkpt lat="45.70732" lon="4.70644">
        <ele>317.6</ele>
        <time>2025-08-06T09:51:36Z</time>
      </trkpt>
      <trkpt lat="45.70728" lon="4.70652">
        <ele>317.2</ele>
        <time>2025-08-06T09:51:37Z</time>
      </trkpt>
      <trkpt lat="45.70723" lon="4.7066">
        <ele>316.8</ele>
        <time>2025-08-06T09:51:38Z</time>
      </trkpt>
      <trkpt lat="45.70719" lon="4.70668">
        <ele>316.4</ele>
        <time>2025-08-06T09:51:39Z</time>
      </trkpt>
      <trkpt lat="45.70714" lon="4.70676">
        <ele>315.8</ele>
        <time>2025-08-06T09:51:40Z</time>
      </trkpt>
      <trkpt lat="45.70709" lon="4.70684">
        <ele>315.4</ele>
        <time>2025-08-06T09:51:41Z</time>
      </trkpt>
      <trkpt lat="45.70704" lon="4.70692">
        <ele>314.8</ele>
        <time>2025-08-06T09:51:42Z</time>
      </trkpt>
      <trkpt lat="45.70699" lon="4.70701">
        <ele>314.2</ele>
        <time>2025-08-06T09:51:43Z</time>
      </trkpt>
      <trkpt lat="45.70693" lon="4.70709">
        <ele>313.8</ele>
        <time>2025-08-06T09:51:44Z</time>
      </trkpt>
      <trkpt lat="45.70687" lon="4.70717">
        <ele>313.4</ele>
        <time>2025-08-06T09:51:45Z</time>
      </trkpt>
      <trkpt lat="45.70681" lon="4.70725">
        <ele>312.8</ele>
        <time>2025-08-06T09:51:46Z</time>
      </trkpt>
      <trkpt lat="45.70675" lon="4.70733">
        <ele>312.4</ele>
        <time>2025-08-06T09:51:47Z</time>
      </trkpt>
      <trkpt lat="45.70669" lon="4.70741">
        <ele>312.2</ele>
        <time>2025-08-06T09:51:48Z</time>
      </trkpt>
      <trkpt lat="45.70663" lon="4.70748">
        <ele>312</ele>
        <time>2025-08-06T09:51:49Z</time>
      </trkpt>
      <trkpt lat="45.70656" lon="4.70756">
        <ele>312</ele>
        <time>2025-08-06T09:51:50Z</time>
      </trkpt>
      <trkpt lat="45.70651" lon="4.70765">
        <ele>311.6</ele>
        <time>2025-08-06T09:51:51Z</time>
      </trkpt>
      <trkpt lat="45.70645" lon="4.70773">
        <ele>311.4</ele>
        <time>2025-08-06T09:51:52Z</time>
      </trkpt>
      <trkpt lat="45.70639" lon="4.70781">
        <ele>311.2</ele>
        <time>2025-08-06T09:51:53Z</time>
      </trkpt>
      <trkpt lat="45.70633" lon="4.7079">
        <ele>310.8</ele>
        <time>2025-08-06T09:51:54Z</time>
      </trkpt>
      <trkpt lat="45.70628" lon="4.70798">
        <ele>310.4</ele>
        <time>2025-08-06T09:51:55Z</time>
      </trkpt>
      <trkpt lat="45.70622" lon="4.70806">
        <ele>310</ele>
        <time>2025-08-06T09:51:56Z</time>
      </trkpt>
      <trkpt lat="45.70616" lon="4.70814">
        <ele>309.8</ele>
        <time>2025-08-06T09:51:57Z</time>
      </trkpt>
      <trkpt lat="45.70611" lon="4.70822">
        <ele>309.6</ele>
        <time>2025-08-06T09:51:58Z</time>
      </trkpt>
      <trkpt lat="45.70605" lon="4.7083">
        <ele>309.4</ele>
        <time>2025-08-06T09:51:59Z</time>
      </trkpt>
      <trkpt lat="45.706" lon="4.70837">
        <ele>309.4</ele>
        <time>2025-08-06T09:52:00Z</time>
      </trkpt>
      <trkpt lat="45.70595" lon="4.70845">
        <ele>309.2</ele>
        <time>2025-08-06T09:52:01Z</time>
      </trkpt>
      <trkpt lat="45.70589" lon="4.70853">
        <ele>309.2</ele>
        <time>2025-08-06T09:52:02Z</time>
      </trkpt>
      <trkpt lat="45.70584" lon="4.7086">
        <ele>309</ele>
        <time>2025-08-06T09:52:03Z</time>
      </trkpt>
      <trkpt lat="45.7058" lon="4.70867">
        <ele>309</ele>
        <time>2025-08-06T09:52:04Z</time>
      </trkpt>
      <trkpt lat="45.70575" lon="4.70874">
        <ele>309</ele>
        <time>2025-08-06T09:52:05Z</time>
      </trkpt>
      <trkpt lat="45.7057" lon="4.70881">
        <ele>309</ele>
        <time>2025-08-06T09:52:06Z</time>
      </trkpt>
      <trkpt lat="45.70566" lon="4.70888">
        <ele>309.2</ele>
        <time>2025-08-06T09:52:07Z</time>
      </trkpt>
      <trkpt lat="45.70562" lon="4.70895">
        <ele>309.2</ele>
        <time>2025-08-06T09:52:08Z</time>
      </trkpt>
      <trkpt lat="45.70558" lon="4.70902">
        <ele>309.2</ele>
        <time>2025-08-06T09:52:09Z</time>
      </trkpt>
      <trkpt lat="45.70555" lon="4.7091">
        <ele>309.2</ele>
        <time>2025-08-06T09:52:10Z</time>
      </trkpt>
      <trkpt lat="45.70552" lon="4.70917">
        <ele>309.2</ele>
        <time>2025-08-06T09:52:11Z</time>
      </trkpt>
      <trkpt lat="45.7055" lon="4.70926">
        <ele>309.4</ele>
        <time>2025-08-06T09:52:12Z</time>
      </trkpt>
      <trkpt lat="45.70549" lon="4.70935">
        <ele>309.4</ele>
        <time>2025-08-06T09:52:13Z</time>
      </trkpt>
      <trkpt lat="45.70548" lon="4.70944">
        <ele>309.4</ele>
        <time>2025-08-06T09:52:14Z</time>
      </trkpt>
      <trkpt lat="45.70547" lon="4.70953">
        <ele>309.4</ele>
        <time>2025-08-06T09:52:15Z</time>
      </trkpt>
      <trkpt lat="45.70546" lon="4.70961">
        <ele>309.2</ele>
        <time>2025-08-06T09:52:16Z</time>
      </trkpt>
      <trkpt lat="45.70545" lon="4.7097">
        <ele>309</ele>
        <time>2025-08-06T09:52:17Z</time>
      </trkpt>
      <trkpt lat="45.70544" lon="4.70979">
        <ele>308.6</ele>
        <time>2025-08-06T09:52:18Z</time>
      </trkpt>
      <trkpt lat="45.70543" lon="4.70987">
        <ele>308.4</ele>
        <time>2025-08-06T09:52:19Z</time>
      </trkpt>
      <trkpt lat="45.70542" lon="4.70996">
        <ele>308</ele>
        <time>2025-08-06T09:52:20Z</time>
      </trkpt>
      <trkpt lat="45.70541" lon="4.71004">
        <ele>308</ele>
        <time>2025-08-06T09:52:21Z</time>
      </trkpt>
      <trkpt lat="45.7054" lon="4.71013">
        <ele>308</ele>
        <time>2025-08-06T09:52:22Z</time>
      </trkpt>
      <trkpt lat="45.70539" lon="4.71022">
        <ele>308.2</ele>
        <time>2025-08-06T09:52:23Z</time>
      </trkpt>
      <trkpt lat="45.70538" lon="4.7103">
        <ele>308.4</ele>
        <time>2025-08-06T09:52:24Z</time>
      </trkpt>
      <trkpt lat="45.70538" lon="4.71039">
        <ele>308.8</ele>
        <time>2025-08-06T09:52:25Z</time>
      </trkpt>
      <trkpt lat="45.70539" lon="4.71047">
        <ele>309</ele>
        <time>2025-08-06T09:52:26Z</time>
      </trkpt>
      <trkpt lat="45.7054" lon="4.71056">
        <ele>309.2</ele>
        <time>2025-08-06T09:52:27Z</time>
      </trkpt>
      <trkpt lat="45.70541" lon="4.71065">
        <ele>309</ele>
        <time>2025-08-06T09:52:28Z</time>
      </trkpt>
      <trkpt lat="45.70543" lon="4.71073">
        <ele>309</ele>
        <time>2025-08-06T09:52:29Z</time>
      </trkpt>
      <trkpt lat="45.70544" lon="4.71081">
        <ele>308.8</ele>
        <time>2025-08-06T09:52:30Z</time>
      </trkpt>
      <trkpt lat="45.70545" lon="4.71088">
        <ele>308.8</ele>
        <time>2025-08-06T09:52:31Z</time>
      </trkpt>
      <trkpt lat="45.70547" lon="4.71097">
        <ele>308.6</ele>
        <time>2025-08-06T09:52:32Z</time>
      </trkpt>
      <trkpt lat="45.70548" lon="4.71105">
        <ele>308.8</ele>
        <time>2025-08-06T09:52:33Z</time>
      </trkpt>
      <trkpt lat="45.70548" lon="4.71112">
        <ele>309</ele>
        <time>2025-08-06T09:52:34Z</time>
      </trkpt>
      <trkpt lat="45.70549" lon="4.7112">
        <ele>309.2</ele>
        <time>2025-08-06T09:52:35Z</time>
      </trkpt>
      <trkpt lat="45.7055" lon="4.71128">
        <ele>309.4</ele>
        <time>2025-08-06T09:52:36Z</time>
      </trkpt>
      <trkpt lat="45.70551" lon="4.71136">
        <ele>309.6</ele>
        <time>2025-08-06T09:52:37Z</time>
      </trkpt>
      <trkpt lat="45.70552" lon="4.71143">
        <ele>309.6</ele>
        <time>2025-08-06T09:52:38Z</time>
      </trkpt>
      <trkpt lat="45.70554" lon="4.71149">
        <ele>309.8</ele>
        <time>2025-08-06T09:52:39Z</time>
      </trkpt>
      <trkpt lat="45.70557" lon="4.71155">
        <ele>309.8</ele>
        <time>2025-08-06T09:52:40Z</time>
      </trkpt>
      <trkpt lat="45.70559" lon="4.7116">
        <ele>309.8</ele>
        <time>2025-08-06T09:52:41Z</time>
      </trkpt>
      <trkpt lat="45.70561" lon="4.71165">
        <ele>310</ele>
        <time>2025-08-06T09:52:42Z</time>
      </trkpt>
      <trkpt lat="45.70565" lon="4.71173">
        <ele>309.8</ele>
        <time>2025-08-06T09:52:43Z</time>
      </trkpt>
      <trkpt lat="45.70568" lon="4.71179">
        <ele>309.8</ele>
        <time>2025-08-06T09:52:44Z</time>
      </trkpt>
      <trkpt lat="45.70571" lon="4.71184">
        <ele>309.8</ele>
        <time>2025-08-06T09:52:45Z</time>
      </trkpt>
      <trkpt lat="45.70573" lon="4.7119">
        <ele>309.8</ele>
        <time>2025-08-06T09:52:46Z</time>
      </trkpt>
      <trkpt lat="45.70576" lon="4.71196">
        <ele>309.8</ele>
        <time>2025-08-06T09:52:47Z</time>
      </trkpt>
      <trkpt lat="45.70579" lon="4.71202">
        <ele>310</ele>
        <time>2025-08-06T09:52:48Z</time>
      </trkpt>
      <trkpt lat="45.70582" lon="4.71208">
        <ele>310.2</ele>
        <time>2025-08-06T09:52:49Z</time>
      </trkpt>
      <trkpt lat="45.70585" lon="4.71214">
        <ele>310.4</ele>
        <time>2025-08-06T09:52:50Z</time>
      </trkpt>
      <trkpt lat="45.70588" lon="4.7122">
        <ele>310.6</ele>
        <time>2025-08-06T09:52:51Z</time>
      </trkpt>
      <trkpt lat="45.70591" lon="4.71226">
        <ele>310.8</ele>
        <time>2025-08-06T09:52:52Z</time>
      </trkpt>
      <trkpt lat="45.70594" lon="4.71232">
        <ele>311</ele>
        <time>2025-08-06T09:52:53Z</time>
      </trkpt>
      <trkpt lat="45.70597" lon="4.71238">
        <ele>311.2</ele>
        <time>2025-08-06T09:52:54Z</time>
      </trkpt>
      <trkpt lat="45.706" lon="4.71244">
        <ele>311.4</ele>
        <time>2025-08-06T09:52:55Z</time>
      </trkpt>
      <trkpt lat="45.70603" lon="4.7125">
        <ele>311.6</ele>
        <time>2025-08-06T09:52:56Z</time>
      </trkpt>
      <trkpt lat="45.70605" lon="4.71257">
        <ele>312</ele>
        <time>2025-08-06T09:52:57Z</time>
      </trkpt>
      <trkpt lat="45.70608" lon="4.71263">
        <ele>312.2</ele>
        <time>2025-08-06T09:52:58Z</time>
      </trkpt>
      <trkpt lat="45.70611" lon="4.7127">
        <ele>312.6</ele>
        <time>2025-08-06T09:52:59Z</time>
      </trkpt>
      <trkpt lat="45.70614" lon="4.71276">
        <ele>312.8</ele>
        <time>2025-08-06T09:53:00Z</time>
      </trkpt>
      <trkpt lat="45.70618" lon="4.71282">
        <ele>313</ele>
        <time>2025-08-06T09:53:01Z</time>
      </trkpt>
      <trkpt lat="45.70621" lon="4.71289">
        <ele>313.2</ele>
        <time>2025-08-06T09:53:02Z</time>
      </trkpt>
      <trkpt lat="45.70623" lon="4.71295">
        <ele>313.2</ele>
        <time>2025-08-06T09:53:03Z</time>
      </trkpt>
      <trkpt lat="45.70626" lon="4.71301">
        <ele>313.2</ele>
        <time>2025-08-06T09:53:04Z</time>
      </trkpt>
      <trkpt lat="45.70629" lon="4.71308">
        <ele>313.2</ele>
        <time>2025-08-06T09:53:05Z</time>
      </trkpt>
      <trkpt lat="45.70632" lon="4.71314">
        <ele>313.2</ele>
        <time>2025-08-06T09:53:06Z</time>
      </trkpt>
      <trkpt lat="45.70634" lon="4.71319">
        <ele>313.2</ele>
        <time>2025-08-06T09:53:07Z</time>
      </trkpt>
      <trkpt lat="45.70637" lon="4.71325">
        <ele>313.2</ele>
        <time>2025-08-06T09:53:08Z</time>
      </trkpt>
      <trkpt lat="45.70639" lon="4.71331">
        <ele>313.2</ele>
        <time>2025-08-06T09:53:09Z</time>
      </trkpt>
      <trkpt lat="45.70642" lon="4.71337">
        <ele>313.4</ele>
        <time>2025-08-06T09:53:10Z</time>
      </trkpt>
      <trkpt lat="45.70644" lon="4.71343">
        <ele>313.6</ele>
        <time>2025-08-06T09:53:11Z</time>
      </trkpt>
      <trkpt lat="45.70647" lon="4.71349">
        <ele>313.6</ele>
        <time>2025-08-06T09:53:12Z</time>
      </trkpt>
      <trkpt lat="45.70649" lon="4.71355">
        <ele>313.6</ele>
        <time>2025-08-06T09:53:13Z</time>
      </trkpt>
      <trkpt lat="45.70651" lon="4.71361">
        <ele>313.8</ele>
        <time>2025-08-06T09:53:14Z</time>
      </trkpt>
      <trkpt lat="45.70653" lon="4.71366">
        <ele>313.8</ele>
        <time>2025-08-06T09:53:15Z</time>
      </trkpt>
      <trkpt lat="45.70655" lon="4.71372">
        <ele>313.8</ele>
        <time>2025-08-06T09:53:16Z</time>
      </trkpt>
      <trkpt lat="45.70657" lon="4.71378">
        <ele>314</ele>
        <time>2025-08-06T09:53:17Z</time>
      </trkpt>
      <trkpt lat="45.70659" lon="4.71384">
        <ele>314</ele>
        <time>2025-08-06T09:53:18Z</time>
      </trkpt>
      <trkpt lat="45.7066" lon="4.7139">
        <ele>314.4</ele>
        <time>2025-08-06T09:53:19Z</time>
      </trkpt>
      <trkpt lat="45.70662" lon="4.71396">
        <ele>314.6</ele>
        <time>2025-08-06T09:53:20Z</time>
      </trkpt>
      <trkpt lat="45.70663" lon="4.71402">
        <ele>314.8</ele>
        <time>2025-08-06T09:53:21Z</time>
      </trkpt>
      <trkpt lat="45.70664" lon="4.71408">
        <ele>315.2</ele>
        <time>2025-08-06T09:53:22Z</time>
      </trkpt>
      <trkpt lat="45.70665" lon="4.71414">
        <ele>315.6</ele>
        <time>2025-08-06T09:53:23Z</time>
      </trkpt>
      <trkpt lat="45.70666" lon="4.71419">
        <ele>316</ele>
        <time>2025-08-06T09:53:24Z</time>
      </trkpt>
      <trkpt lat="45.70667" lon="4.71425">
        <ele>316.2</ele>
        <time>2025-08-06T09:53:25Z</time>
      </trkpt>
      <trkpt lat="45.70668" lon="4.71431">
        <ele>316.6</ele>
        <time>2025-08-06T09:53:26Z</time>
      </trkpt>
      <trkpt lat="45.70669" lon="4.71436">
        <ele>316.6</ele>
        <time>2025-08-06T09:53:27Z</time>
      </trkpt>
      <trkpt lat="45.7067" lon="4.71441">
        <ele>316.8</ele>
        <time>2025-08-06T09:53:28Z</time>
      </trkpt>
      <trkpt lat="45.70672" lon="4.71446">
        <ele>317</ele>
        <time>2025-08-06T09:53:29Z</time>
      </trkpt>
      <trkpt lat="45.70673" lon="4.71451">
        <ele>317</ele>
        <time>2025-08-06T09:53:30Z</time>
      </trkpt>
      <trkpt lat="45.70674" lon="4.71456">
        <ele>317</ele>
        <time>2025-08-06T09:53:31Z</time>
      </trkpt>
      <trkpt lat="45.70676" lon="4.71462">
        <ele>317.2</ele>
        <time>2025-08-06T09:53:32Z</time>
      </trkpt>
      <trkpt lat="45.70677" lon="4.71467">
        <ele>317</ele>
        <time>2025-08-06T09:53:33Z</time>
      </trkpt>
      <trkpt lat="45.70679" lon="4.71473">
        <ele>317</ele>
        <time>2025-08-06T09:53:34Z</time>
      </trkpt>
      <trkpt lat="45.70681" lon="4.71479">
        <ele>317</ele>
        <time>2025-08-06T09:53:35Z</time>
      </trkpt>
      <trkpt lat="45.70682" lon="4.71485">
        <ele>316.8</ele>
        <time>2025-08-06T09:53:36Z</time>
      </trkpt>
      <trkpt lat="45.70684" lon="4.71492">
        <ele>316.6</ele>
        <time>2025-08-06T09:53:37Z</time>
      </trkpt>
      <trkpt lat="45.70686" lon="4.71498">
        <ele>316.4</ele>
        <time>2025-08-06T09:53:38Z</time>
      </trkpt>
      <trkpt lat="45.70688" lon="4.71505">
        <ele>316.2</ele>
        <time>2025-08-06T09:53:39Z</time>
      </trkpt>
      <trkpt lat="45.7069" lon="4.71513">
        <ele>315.8</ele>
        <time>2025-08-06T09:53:40Z</time>
      </trkpt>
      <trkpt lat="45.70691" lon="4.7152">
        <ele>315.6</ele>
        <time>2025-08-06T09:53:41Z</time>
      </trkpt>
      <trkpt lat="45.70693" lon="4.71528">
        <ele>315.4</ele>
        <time>2025-08-06T09:53:42Z</time>
      </trkpt>
      <trkpt lat="45.70695" lon="4.71535">
        <ele>315.2</ele>
        <time>2025-08-06T09:53:43Z</time>
      </trkpt>
      <trkpt lat="45.70696" lon="4.71543">
        <ele>315</ele>
        <time>2025-08-06T09:53:44Z</time>
      </trkpt>
      <trkpt lat="45.70697" lon="4.71551">
        <ele>315</ele>
        <time>2025-08-06T09:53:45Z</time>
      </trkpt>
      <trkpt lat="45.70698" lon="4.71558">
        <ele>315</ele>
        <time>2025-08-06T09:53:46Z</time>
      </trkpt>
      <trkpt lat="45.70699" lon="4.71566">
        <ele>314.8</ele>
        <time>2025-08-06T09:53:47Z</time>
      </trkpt>
      <trkpt lat="45.707" lon="4.71573">
        <ele>314.8</ele>
        <time>2025-08-06T09:53:48Z</time>
      </trkpt>
      <trkpt lat="45.70701" lon="4.71581">
        <ele>314.8</ele>
        <time>2025-08-06T09:53:49Z</time>
      </trkpt>
      <trkpt lat="45.70702" lon="4.71588">
        <ele>314.8</ele>
        <time>2025-08-06T09:53:50Z</time>
      </trkpt>
      <trkpt lat="45.70704" lon="4.71596">
        <ele>314.8</ele>
        <time>2025-08-06T09:53:51Z</time>
      </trkpt>
      <trkpt lat="45.70704" lon="4.71603">
        <ele>314.8</ele>
        <time>2025-08-06T09:53:52Z</time>
      </trkpt>
      <trkpt lat="45.70705" lon="4.7161">
        <ele>314.8</ele>
        <time>2025-08-06T09:53:53Z</time>
      </trkpt>
      <trkpt lat="45.70706" lon="4.71616">
        <ele>315</ele>
        <time>2025-08-06T09:53:54Z</time>
      </trkpt>
      <trkpt lat="45.70707" lon="4.71623">
        <ele>315</ele>
        <time>2025-08-06T09:53:55Z</time>
      </trkpt>
      <trkpt lat="45.70708" lon="4.71629">
        <ele>315</ele>
        <time>2025-08-06T09:53:56Z</time>
      </trkpt>
      <trkpt lat="45.70709" lon="4.71635">
        <ele>315.2</ele>
        <time>2025-08-06T09:53:57Z</time>
      </trkpt>
      <trkpt lat="45.7071" lon="4.71642">
        <ele>315.2</ele>
        <time>2025-08-06T09:53:58Z</time>
      </trkpt>
      <trkpt lat="45.70711" lon="4.71647">
        <ele>315.2</ele>
        <time>2025-08-06T09:53:59Z</time>
      </trkpt>
      <trkpt lat="45.70712" lon="4.71653">
        <ele>315.4</ele>
        <time>2025-08-06T09:54:00Z</time>
      </trkpt>
      <trkpt lat="45.70713" lon="4.71659">
        <ele>315.4</ele>
        <time>2025-08-06T09:54:01Z</time>
      </trkpt>
      <trkpt lat="45.70714" lon="4.71665">
        <ele>315.6</ele>
        <time>2025-08-06T09:54:02Z</time>
      </trkpt>
      <trkpt lat="45.70715" lon="4.71671">
        <ele>315.6</ele>
        <time>2025-08-06T09:54:03Z</time>
      </trkpt>
      <trkpt lat="45.70716" lon="4.71677">
        <ele>315.8</ele>
        <time>2025-08-06T09:54:04Z</time>
      </trkpt>
      <trkpt lat="45.70717" lon="4.71683">
        <ele>316</ele>
        <time>2025-08-06T09:54:05Z</time>
      </trkpt>
      <trkpt lat="45.70718" lon="4.71689">
        <ele>316.2</ele>
        <time>2025-08-06T09:54:06Z</time>
      </trkpt>
      <trkpt lat="45.70718" lon="4.71694">
        <ele>316.4</ele>
        <time>2025-08-06T09:54:07Z</time>
      </trkpt>
      <trkpt lat="45.70719" lon="4.71701">
        <ele>316.6</ele>
        <time>2025-08-06T09:54:08Z</time>
      </trkpt>
      <trkpt lat="45.70719" lon="4.71707">
        <ele>316.8</ele>
        <time>2025-08-06T09:54:09Z</time>
      </trkpt>
      <trkpt lat="45.7072" lon="4.71713">
        <ele>317</ele>
        <time>2025-08-06T09:54:10Z</time>
      </trkpt>
      <trkpt lat="45.7072" lon="4.71719">
        <ele>317.2</ele>
        <time>2025-08-06T09:54:11Z</time>
      </trkpt>
      <trkpt lat="45.70721" lon="4.71725">
        <ele>317.4</ele>
        <time>2025-08-06T09:54:12Z</time>
      </trkpt>
      <trkpt lat="45.70721" lon="4.71731">
        <ele>317.6</ele>
        <time>2025-08-06T09:54:13Z</time>
      </trkpt>
      <trkpt lat="45.70722" lon="4.71737">
        <ele>317.6</ele>
        <time>2025-08-06T09:54:14Z</time>
      </trkpt>
      <trkpt lat="45.70723" lon="4.71742">
        <ele>317.8</ele>
        <time>2025-08-06T09:54:15Z</time>
      </trkpt>
      <trkpt lat="45.70723" lon="4.71746">
        <ele>317.8</ele>
        <time>2025-08-06T09:54:16Z</time>
      </trkpt>
      <trkpt lat="45.70724" lon="4.71751">
        <ele>317.8</ele>
        <time>2025-08-06T09:54:17Z</time>
      </trkpt>
      <trkpt lat="45.70725" lon="4.71756">
        <ele>318</ele>
        <time>2025-08-06T09:54:18Z</time>
      </trkpt>
      <trkpt lat="45.70727" lon="4.71762">
        <ele>318</ele>
        <time>2025-08-06T09:54:19Z</time>
      </trkpt>
      <trkpt lat="45.70728" lon="4.71767">
        <ele>318</ele>
        <time>2025-08-06T09:54:20Z</time>
      </trkpt>
      <trkpt lat="45.7073" lon="4.71772">
        <ele>318</ele>
        <time>2025-08-06T09:54:21Z</time>
      </trkpt>
      <trkpt lat="45.70731" lon="4.71776">
        <ele>318.2</ele>
        <time>2025-08-06T09:54:22Z</time>
      </trkpt>
      <trkpt lat="45.70733" lon="4.71781">
        <ele>318.2</ele>
        <time>2025-08-06T09:54:23Z</time>
      </trkpt>
      <trkpt lat="45.70736" lon="4.71786">
        <ele>318.2</ele>
        <time>2025-08-06T09:54:24Z</time>
      </trkpt>
      <trkpt lat="45.70739" lon="4.71791">
        <ele>318.2</ele>
        <time>2025-08-06T09:54:25Z</time>
      </trkpt>
      <trkpt lat="45.70741" lon="4.71796">
        <ele>318.2</ele>
        <time>2025-08-06T09:54:26Z</time>
      </trkpt>
      <trkpt lat="45.70743" lon="4.71801">
        <ele>318.2</ele>
        <time>2025-08-06T09:54:27Z</time>
      </trkpt>
      <trkpt lat="45.70746" lon="4.71806">
        <ele>318.2</ele>
        <time>2025-08-06T09:54:28Z</time>
      </trkpt>
      <trkpt lat="45.70749" lon="4.71811">
        <ele>318.2</ele>
        <time>2025-08-06T09:54:29Z</time>
      </trkpt>
      <trkpt lat="45.70752" lon="4.71816">
        <ele>318</ele>
        <time>2025-08-06T09:54:30Z</time>
      </trkpt>
      <trkpt lat="45.70756" lon="4.71822">
        <ele>317.8</ele>
        <time>2025-08-06T09:54:31Z</time>
      </trkpt>
      <trkpt lat="45.70759" lon="4.71827">
        <ele>317.6</ele>
        <time>2025-08-06T09:54:32Z</time>
      </trkpt>
      <trkpt lat="45.70762" lon="4.71833">
        <ele>317.4</ele>
        <time>2025-08-06T09:54:33Z</time>
      </trkpt>
      <trkpt lat="45.70766" lon="4.71839">
        <ele>317.4</ele>
        <time>2025-08-06T09:54:34Z</time>
      </trkpt>
      <trkpt lat="45.7077" lon="4.71844">
        <ele>317.2</ele>
        <time>2025-08-06T09:54:35Z</time>
      </trkpt>
      <trkpt lat="45.70773" lon="4.7185">
        <ele>317.2</ele>
        <time>2025-08-06T09:54:36Z</time>
      </trkpt>
      <trkpt lat="45.70777" lon="4.71855">
        <ele>317</ele>
        <time>2025-08-06T09:54:37Z</time>
      </trkpt>
      <trkpt lat="45.70781" lon="4.71861">
        <ele>316.8</ele>
        <time>2025-08-06T09:54:38Z</time>
      </trkpt>
      <trkpt lat="45.70785" lon="4.71867">
        <ele>316.4</ele>
        <time>2025-08-06T09:54:39Z</time>
      </trkpt>
      <trkpt lat="45.70788" lon="4.71873">
        <ele>316.2</ele>
        <time>2025-08-06T09:54:40Z</time>
      </trkpt>
      <trkpt lat="45.70792" lon="4.71879">
        <ele>315.8</ele>
        <time>2025-08-06T09:54:41Z</time>
      </trkpt>
      <trkpt lat="45.70796" lon="4.71884">
        <ele>315.4</ele>
        <time>2025-08-06T09:54:42Z</time>
      </trkpt>
      <trkpt lat="45.708" lon="4.7189">
        <ele>315.2</ele>
        <time>2025-08-06T09:54:43Z</time>
      </trkpt>
      <trkpt lat="45.70804" lon="4.71896">
        <ele>315</ele>
        <time>2025-08-06T09:54:44Z</time>
      </trkpt>
      <trkpt lat="45.70808" lon="4.71901">
        <ele>314.8</ele>
        <time>2025-08-06T09:54:45Z</time>
      </trkpt>
      <trkpt lat="45.70812" lon="4.71907">
        <ele>314.8</ele>
        <time>2025-08-06T09:54:46Z</time>
      </trkpt>
      <trkpt lat="45.70816" lon="4.71912">
        <ele>314.8</ele>
        <time>2025-08-06T09:54:47Z</time>
      </trkpt>
      <trkpt lat="45.70819" lon="4.71918">
        <ele>314.8</ele>
        <time>2025-08-06T09:54:48Z</time>
      </trkpt>
      <trkpt lat="45.70823" lon="4.71924">
        <ele>315</ele>
        <time>2025-08-06T09:54:49Z</time>
      </trkpt>
      <trkpt lat="45.70826" lon="4.7193">
        <ele>315.2</ele>
        <time>2025-08-06T09:54:50Z</time>
      </trkpt>
      <trkpt lat="45.7083" lon="4.71936">
        <ele>315.2</ele>
        <time>2025-08-06T09:54:51Z</time>
      </trkpt>
      <trkpt lat="45.70834" lon="4.71942">
        <ele>315.4</ele>
        <time>2025-08-06T09:54:52Z</time>
      </trkpt>
      <trkpt lat="45.70838" lon="4.71947">
        <ele>315.4</ele>
        <time>2025-08-06T09:54:53Z</time>
      </trkpt>
      <trkpt lat="45.70841" lon="4.71954">
        <ele>315.4</ele>
        <time>2025-08-06T09:54:54Z</time>
      </trkpt>
      <trkpt lat="45.70845" lon="4.7196">
        <ele>315.2</ele>
        <time>2025-08-06T09:54:55Z</time>
      </trkpt>
      <trkpt lat="45.70848" lon="4.71966">
        <ele>315.2</ele>
        <time>2025-08-06T09:54:56Z</time>
      </trkpt>
      <trkpt lat="45.70852" lon="4.71972">
        <ele>315.2</ele>
        <time>2025-08-06T09:54:57Z</time>
      </trkpt>
      <trkpt lat="45.70855" lon="4.71978">
        <ele>315.2</ele>
        <time>2025-08-06T09:54:58Z</time>
      </trkpt>
      <trkpt lat="45.70859" lon="4.71984">
        <ele>315</ele>
        <time>2025-08-06T09:54:59Z</time>
      </trkpt>
      <trkpt lat="45.70862" lon="4.7199">
        <ele>315</ele>
        <time>2025-08-06T09:55:00Z</time>
      </trkpt>
      <trkpt lat="45.70864" lon="4.71997">
        <ele>314.8</ele>
        <time>2025-08-06T09:55:01Z</time>
      </trkpt>
      <trkpt lat="45.70864" lon="4.72003">
        <ele>314.8</ele>
        <time>2025-08-06T09:55:02Z</time>
      </trkpt>
      <trkpt lat="45.70862" lon="4.72008">
        <ele>315</ele>
        <time>2025-08-06T09:55:03Z</time>
      </trkpt>
      <trkpt lat="45.70859" lon="4.72013">
        <ele>315</ele>
        <time>2025-08-06T09:55:04Z</time>
      </trkpt>
      <trkpt lat="45.70856" lon="4.72018">
        <ele>315.2</ele>
        <time>2025-08-06T09:55:05Z</time>
      </trkpt>
      <trkpt lat="45.70854" lon="4.72023">
        <ele>315.4</ele>
        <time>2025-08-06T09:55:06Z</time>
      </trkpt>
      <trkpt lat="45.70851" lon="4.72027">
        <ele>315.4</ele>
        <time>2025-08-06T09:55:07Z</time>
      </trkpt>
      <trkpt lat="45.70848" lon="4.7203">
        <ele>315.4</ele>
        <time>2025-08-06T09:55:08Z</time>
      </trkpt>
      <trkpt lat="45.70846" lon="4.72032">
        <ele>315.6</ele>
        <time>2025-08-06T09:55:09Z</time>
      </trkpt>
      <trkpt lat="45.70844" lon="4.72034">
        <ele>315.6</ele>
        <time>2025-08-06T09:55:10Z</time>
      </trkpt>
      <trkpt lat="45.70842" lon="4.72038">
        <ele>315.6</ele>
        <time>2025-08-06T09:55:11Z</time>
      </trkpt>
      <trkpt lat="45.70841" lon="4.72043">
        <ele>315.6</ele>
        <time>2025-08-06T09:55:12Z</time>
      </trkpt>
      <trkpt lat="45.70839" lon="4.72048">
        <ele>315.4</ele>
        <time>2025-08-06T09:55:13Z</time>
      </trkpt>
      <trkpt lat="45.70837" lon="4.72054">
        <ele>315.4</ele>
        <time>2025-08-06T09:55:14Z</time>
      </trkpt>
      <trkpt lat="45.70835" lon="4.7206">
        <ele>315</ele>
        <time>2025-08-06T09:55:15Z</time>
      </trkpt>
      <trkpt lat="45.70832" lon="4.72066">
        <ele>315</ele>
        <time>2025-08-06T09:55:16Z</time>
      </trkpt>
      <trkpt lat="45.7083" lon="4.72071">
        <ele>314.8</ele>
        <time>2025-08-06T09:55:17Z</time>
      </trkpt>
      <trkpt lat="45.70828" lon="4.72076">
        <ele>314.8</ele>
        <time>2025-08-06T09:55:18Z</time>
      </trkpt>
      <trkpt lat="45.70826" lon="4.72081">
        <ele>314.8</ele>
        <time>2025-08-06T09:55:19Z</time>
      </trkpt>
      <trkpt lat="45.70824" lon="4.72087">
        <ele>314.8</ele>
        <time>2025-08-06T09:55:20Z</time>
      </trkpt>
      <trkpt lat="45.70823" lon="4.72092">
        <ele>314.8</ele>
        <time>2025-08-06T09:55:21Z</time>
      </trkpt>
      <trkpt lat="45.70821" lon="4.72097">
        <ele>314.6</ele>
        <time>2025-08-06T09:55:22Z</time>
      </trkpt>
      <trkpt lat="45.70819" lon="4.72102">
        <ele>314.6</ele>
        <time>2025-08-06T09:55:23Z</time>
      </trkpt>
      <trkpt lat="45.70817" lon="4.72107">
        <ele>314.6</ele>
        <time>2025-08-06T09:55:24Z</time>
      </trkpt>
      <trkpt lat="45.70814" lon="4.72111">
        <ele>314.4</ele>
        <time>2025-08-06T09:55:25Z</time>
      </trkpt>
      <trkpt lat="45.70812" lon="4.72116">
        <ele>314.4</ele>
        <time>2025-08-06T09:55:26Z</time>
      </trkpt>
      <trkpt lat="45.70811" lon="4.72121">
        <ele>314.4</ele>
        <time>2025-08-06T09:55:27Z</time>
      </trkpt>
      <trkpt lat="45.70809" lon="4.72126">
        <ele>314.4</ele>
        <time>2025-08-06T09:55:28Z</time>
      </trkpt>
      <trkpt lat="45.70807" lon="4.72131">
        <ele>314.2</ele>
        <time>2025-08-06T09:55:29Z</time>
      </trkpt>
      <trkpt lat="45.70805" lon="4.72137">
        <ele>314</ele>
        <time>2025-08-06T09:55:30Z</time>
      </trkpt>
      <trkpt lat="45.70802" lon="4.72142">
        <ele>313.8</ele>
        <time>2025-08-06T09:55:31Z</time>
      </trkpt>
      <trkpt lat="45.70801" lon="4.72147">
        <ele>313.6</ele>
        <time>2025-08-06T09:55:32Z</time>
      </trkpt>
      <trkpt lat="45.70799" lon="4.72151">
        <ele>313.4</ele>
        <time>2025-08-06T09:55:33Z</time>
      </trkpt>
      <trkpt lat="45.70797" lon="4.72156">
        <ele>313.2</ele>
        <time>2025-08-06T09:55:34Z</time>
      </trkpt>
      <trkpt lat="45.70796" lon="4.72161">
        <ele>313.2</ele>
        <time>2025-08-06T09:55:35Z</time>
      </trkpt>
      <trkpt lat="45.70795" lon="4.72165">
        <ele>313.2</ele>
        <time>2025-08-06T09:55:36Z</time>
      </trkpt>
      <trkpt lat="45.70794" lon="4.7217">
        <ele>313.2</ele>
        <time>2025-08-06T09:55:37Z</time>
      </trkpt>
      <trkpt lat="45.70793" lon="4.72174">
        <ele>313.2</ele>
        <time>2025-08-06T09:55:38Z</time>
      </trkpt>
      <trkpt lat="45.70792" lon="4.72178">
        <ele>313.2</ele>
        <time>2025-08-06T09:55:39Z</time>
      </trkpt>
      <trkpt lat="45.70792" lon="4.72183">
        <ele>313</ele>
        <time>2025-08-06T09:55:40Z</time>
      </trkpt>
      <trkpt lat="45.7079" lon="4.72188">
        <ele>313</ele>
        <time>2025-08-06T09:55:41Z</time>
      </trkpt>
      <trkpt lat="45.70789" lon="4.72193">
        <ele>313</ele>
        <time>2025-08-06T09:55:42Z</time>
      </trkpt>
      <trkpt lat="45.70788" lon="4.722">
        <ele>312.8</ele>
        <time>2025-08-06T09:55:43Z</time>
      </trkpt>
      <trkpt lat="45.70787" lon="4.72207">
        <ele>312.6</ele>
        <time>2025-08-06T09:55:44Z</time>
      </trkpt>
      <trkpt lat="45.70785" lon="4.72213">
        <ele>312.4</ele>
        <time>2025-08-06T09:55:45Z</time>
      </trkpt>
      <trkpt lat="45.70783" lon="4.7222">
        <ele>312.4</ele>
        <time>2025-08-06T09:55:46Z</time>
      </trkpt>
      <trkpt lat="45.70781" lon="4.72227">
        <ele>312.4</ele>
        <time>2025-08-06T09:55:47Z</time>
      </trkpt>
      <trkpt lat="45.7078" lon="4.72234">
        <ele>312.4</ele>
        <time>2025-08-06T09:55:48Z</time>
      </trkpt>
      <trkpt lat="45.70778" lon="4.72241">
        <ele>312.4</ele>
        <time>2025-08-06T09:55:49Z</time>
      </trkpt>
      <trkpt lat="45.70777" lon="4.72247">
        <ele>312.4</ele>
        <time>2025-08-06T09:55:50Z</time>
      </trkpt>
      <trkpt lat="45.70775" lon="4.72253">
        <ele>312.4</ele>
        <time>2025-08-06T09:55:51Z</time>
      </trkpt>
      <trkpt lat="45.70773" lon="4.7226">
        <ele>312.4</ele>
        <time>2025-08-06T09:55:52Z</time>
      </trkpt>
      <trkpt lat="45.70772" lon="4.72267">
        <ele>312.2</ele>
        <time>2025-08-06T09:55:53Z</time>
      </trkpt>
      <trkpt lat="45.7077" lon="4.72274">
        <ele>312.2</ele>
        <time>2025-08-06T09:55:54Z</time>
      </trkpt>
      <trkpt lat="45.70769" lon="4.72281">
        <ele>312</ele>
        <time>2025-08-06T09:55:55Z</time>
      </trkpt>
      <trkpt lat="45.70768" lon="4.72288">
        <ele>312</ele>
        <time>2025-08-06T09:55:56Z</time>
      </trkpt>
      <trkpt lat="45.70766" lon="4.72295">
        <ele>312</ele>
        <time>2025-08-06T09:55:57Z</time>
      </trkpt>
      <trkpt lat="45.70765" lon="4.72301">
        <ele>311.8</ele>
        <time>2025-08-06T09:55:58Z</time>
      </trkpt>
      <trkpt lat="45.70763" lon="4.72307">
        <ele>311.8</ele>
        <time>2025-08-06T09:55:59Z</time>
      </trkpt>
      <trkpt lat="45.7076" lon="4.72313">
        <ele>312</ele>
        <time>2025-08-06T09:56:00Z</time>
      </trkpt>
      <trkpt lat="45.70757" lon="4.72319">
        <ele>311.8</ele>
        <time>2025-08-06T09:56:01Z</time>
      </trkpt>
      <trkpt lat="45.70755" lon="4.72323">
        <ele>312</ele>
        <time>2025-08-06T09:56:02Z</time>
      </trkpt>
      <trkpt lat="45.70752" lon="4.72328">
        <ele>312</ele>
        <time>2025-08-06T09:56:03Z</time>
      </trkpt>
      <trkpt lat="45.70749" lon="4.72334">
        <ele>312</ele>
        <time>2025-08-06T09:56:04Z</time>
      </trkpt>
      <trkpt lat="45.70746" lon="4.72339">
        <ele>311.8</ele>
        <time>2025-08-06T09:56:05Z</time>
      </trkpt>
      <trkpt lat="45.70742" lon="4.72344">
        <ele>311.8</ele>
        <time>2025-08-06T09:56:06Z</time>
      </trkpt>
      <trkpt lat="45.70739" lon="4.7235">
        <ele>311.6</ele>
        <time>2025-08-06T09:56:07Z</time>
      </trkpt>
      <trkpt lat="45.70737" lon="4.72355">
        <ele>311.6</ele>
        <time>2025-08-06T09:56:08Z</time>
      </trkpt>
      <trkpt lat="45.70734" lon="4.72361">
        <ele>311.8</ele>
        <time>2025-08-06T09:56:09Z</time>
      </trkpt>
      <trkpt lat="45.70731" lon="4.72366">
        <ele>311.8</ele>
        <time>2025-08-06T09:56:10Z</time>
      </trkpt>
      <trkpt lat="45.70729" lon="4.7237">
        <ele>311.8</ele>
        <time>2025-08-06T09:56:11Z</time>
      </trkpt>
      <trkpt lat="45.70726" lon="4.72374">
        <ele>312</ele>
        <time>2025-08-06T09:56:12Z</time>
      </trkpt>
      <trkpt lat="45.70723" lon="4.7238">
        <ele>312</ele>
        <time>2025-08-06T09:56:13Z</time>
      </trkpt>
      <trkpt lat="45.7072" lon="4.72385">
        <ele>311.8</ele>
        <time>2025-08-06T09:56:14Z</time>
      </trkpt>
      <trkpt lat="45.70717" lon="4.7239">
        <ele>311.8</ele>
        <time>2025-08-06T09:56:15Z</time>
      </trkpt>
      <trkpt lat="45.70714" lon="4.72395">
        <ele>311.8</ele>
        <time>2025-08-06T09:56:16Z</time>
      </trkpt>
      <trkpt lat="45.70711" lon="4.72401">
        <ele>311.6</ele>
        <time>2025-08-06T09:56:17Z</time>
      </trkpt>
      <trkpt lat="45.70708" lon="4.72407">
        <ele>311.6</ele>
        <time>2025-08-06T09:56:18Z</time>
      </trkpt>
      <trkpt lat="45.70705" lon="4.72412">
        <ele>311.4</ele>
        <time>2025-08-06T09:56:19Z</time>
      </trkpt>
      <trkpt lat="45.70703" lon="4.72418">
        <ele>311.4</ele>
        <time>2025-08-06T09:56:20Z</time>
      </trkpt>
      <trkpt lat="45.707" lon="4.72423">
        <ele>311.4</ele>
        <time>2025-08-06T09:56:21Z</time>
      </trkpt>
      <trkpt lat="45.70696" lon="4.72428">
        <ele>311.4</ele>
        <time>2025-08-06T09:56:22Z</time>
      </trkpt>
      <trkpt lat="45.70693" lon="4.72433">
        <ele>311.4</ele>
        <time>2025-08-06T09:56:23Z</time>
      </trkpt>
      <trkpt lat="45.70689" lon="4.72438">
        <ele>311.4</ele>
        <time>2025-08-06T09:56:24Z</time>
      </trkpt>
      <trkpt lat="45.70687" lon="4.72444">
        <ele>311.6</ele>
        <time>2025-08-06T09:56:25Z</time>
      </trkpt>
      <trkpt lat="45.70684" lon="4.7245">
        <ele>311.6</ele>
        <time>2025-08-06T09:56:26Z</time>
      </trkpt>
      <trkpt lat="45.70681" lon="4.72456">
        <ele>311.6</ele>
        <time>2025-08-06T09:56:27Z</time>
      </trkpt>
      <trkpt lat="45.70678" lon="4.72462">
        <ele>311.4</ele>
        <time>2025-08-06T09:56:28Z</time>
      </trkpt>
      <trkpt lat="45.70675" lon="4.72469">
        <ele>311.4</ele>
        <time>2025-08-06T09:56:29Z</time>
      </trkpt>
      <trkpt lat="45.70672" lon="4.72475">
        <ele>311.2</ele>
        <time>2025-08-06T09:56:30Z</time>
      </trkpt>
      <trkpt lat="45.70669" lon="4.72481">
        <ele>311.2</ele>
        <time>2025-08-06T09:56:31Z</time>
      </trkpt>
      <trkpt lat="45.70666" lon="4.72487">
        <ele>311.2</ele>
        <time>2025-08-06T09:56:32Z</time>
      </trkpt>
      <trkpt lat="45.70662" lon="4.72493">
        <ele>311.2</ele>
        <time>2025-08-06T09:56:33Z</time>
      </trkpt>
      <trkpt lat="45.70659" lon="4.725">
        <ele>311.2</ele>
        <time>2025-08-06T09:56:34Z</time>
      </trkpt>
      <trkpt lat="45.70656" lon="4.72506">
        <ele>311.2</ele>
        <time>2025-08-06T09:56:35Z</time>
      </trkpt>
      <trkpt lat="45.70654" lon="4.72513">
        <ele>311.4</ele>
        <time>2025-08-06T09:56:36Z</time>
      </trkpt>
      <trkpt lat="45.7065" lon="4.72519">
        <ele>311.4</ele>
        <time>2025-08-06T09:56:37Z</time>
      </trkpt>
      <trkpt lat="45.70647" lon="4.72526">
        <ele>311.4</ele>
        <time>2025-08-06T09:56:38Z</time>
      </trkpt>
      <trkpt lat="45.70644" lon="4.72532">
        <ele>311.6</ele>
        <time>2025-08-06T09:56:39Z</time>
      </trkpt>
      <trkpt lat="45.7064" lon="4.72538">
        <ele>311.6</ele>
        <time>2025-08-06T09:56:40Z</time>
      </trkpt>
      <trkpt lat="45.70638" lon="4.72542">
        <ele>311.8</ele>
        <time>2025-08-06T09:56:41Z</time>
      </trkpt>
      <trkpt lat="45.70636" lon="4.72545">
        <ele>311.8</ele>
        <time>2025-08-06T09:56:42Z</time>
      </trkpt>
      <trkpt lat="45.70636" lon="4.72545">
        <ele>312</ele>
        <time>2025-08-06T09:56:43Z</time>
      </trkpt>
      <trkpt lat="45.70636" lon="4.72545">
        <ele>312</ele>
        <time>2025-08-06T09:56:44Z</time>
      </trkpt>
      <trkpt lat="45.70633" lon="4.7255">
        <ele>311.6</ele>
        <time>2025-08-06T09:57:32Z</time>
      </trkpt>
      <trkpt lat="45.70631" lon="4.72554">
        <ele>311.6</ele>
        <time>2025-08-06T09:57:33Z</time>
      </trkpt>
      <trkpt lat="45.7063" lon="4.72559">
        <ele>311.4</ele>
        <time>2025-08-06T09:57:34Z</time>
      </trkpt>
      <trkpt lat="45.70627" lon="4.72565">
        <ele>311.2</ele>
        <time>2025-08-06T09:57:35Z</time>
      </trkpt>
      <trkpt lat="45.70625" lon="4.72571">
        <ele>311.2</ele>
        <time>2025-08-06T09:57:36Z</time>
      </trkpt>
      <trkpt lat="45.70622" lon="4.72577">
        <ele>311.2</ele>
        <time>2025-08-06T09:57:37Z</time>
      </trkpt>
      <trkpt lat="45.70619" lon="4.72582">
        <ele>311</ele>
        <time>2025-08-06T09:57:38Z</time>
      </trkpt>
      <trkpt lat="45.70616" lon="4.72587">
        <ele>311</ele>
        <time>2025-08-06T09:57:39Z</time>
      </trkpt>
      <trkpt lat="45.70613" lon="4.72592">
        <ele>311.2</ele>
        <time>2025-08-06T09:57:40Z</time>
      </trkpt>
      <trkpt lat="45.7061" lon="4.72597">
        <ele>311</ele>
        <time>2025-08-06T09:57:41Z</time>
      </trkpt>
      <trkpt lat="45.70608" lon="4.72602">
        <ele>311</ele>
        <time>2025-08-06T09:57:42Z</time>
      </trkpt>
      <trkpt lat="45.70606" lon="4.72608">
        <ele>311</ele>
        <time>2025-08-06T09:57:43Z</time>
      </trkpt>
      <trkpt lat="45.70603" lon="4.72614">
        <ele>311</ele>
        <time>2025-08-06T09:57:44Z</time>
      </trkpt>
      <trkpt lat="45.70601" lon="4.7262">
        <ele>311</ele>
        <time>2025-08-06T09:57:45Z</time>
      </trkpt>
      <trkpt lat="45.70598" lon="4.72625">
        <ele>311</ele>
        <time>2025-08-06T09:57:46Z</time>
      </trkpt>
      <trkpt lat="45.70595" lon="4.72631">
        <ele>311</ele>
        <time>2025-08-06T09:57:47Z</time>
      </trkpt>
      <trkpt lat="45.70592" lon="4.72637">
        <ele>310.8</ele>
        <time>2025-08-06T09:57:48Z</time>
      </trkpt>
      <trkpt lat="45.70589" lon="4.72642">
        <ele>310.8</ele>
        <time>2025-08-06T09:57:49Z</time>
      </trkpt>
      <trkpt lat="45.70585" lon="4.72648">
        <ele>310.6</ele>
        <time>2025-08-06T09:57:50Z</time>
      </trkpt>
      <trkpt lat="45.70582" lon="4.72655">
        <ele>310.4</ele>
        <time>2025-08-06T09:57:51Z</time>
      </trkpt>
      <trkpt lat="45.70579" lon="4.72661">
        <ele>310.2</ele>
        <time>2025-08-06T09:57:52Z</time>
      </trkpt>
      <trkpt lat="45.70576" lon="4.72668">
        <ele>310</ele>
        <time>2025-08-06T09:57:53Z</time>
      </trkpt>
      <trkpt lat="45.70572" lon="4.72674">
        <ele>309.8</ele>
        <time>2025-08-06T09:57:54Z</time>
      </trkpt>
      <trkpt lat="45.70568" lon="4.72681">
        <ele>309.6</ele>
        <time>2025-08-06T09:57:55Z</time>
      </trkpt>
      <trkpt lat="45.70564" lon="4.72688">
        <ele>309.4</ele>
        <time>2025-08-06T09:57:56Z</time>
      </trkpt>
      <trkpt lat="45.70561" lon="4.72694">
        <ele>309.4</ele>
        <time>2025-08-06T09:57:57Z</time>
      </trkpt>
      <trkpt lat="45.70557" lon="4.72701">
        <ele>309.2</ele>
        <time>2025-08-06T09:57:58Z</time>
      </trkpt>
      <trkpt lat="45.70553" lon="4.72708">
        <ele>309.2</ele>
        <time>2025-08-06T09:57:59Z</time>
      </trkpt>
      <trkpt lat="45.70549" lon="4.72715">
        <ele>309.2</ele>
        <time>2025-08-06T09:58:00Z</time>
      </trkpt>
      <trkpt lat="45.70546" lon="4.72722">
        <ele>309.2</ele>
        <time>2025-08-06T09:58:01Z</time>
      </trkpt>
      <trkpt lat="45.70542" lon="4.72728">
        <ele>309.2</ele>
        <time>2025-08-06T09:58:02Z</time>
      </trkpt>
      <trkpt lat="45.70538" lon="4.72734">
        <ele>309.2</ele>
        <time>2025-08-06T09:58:03Z</time>
      </trkpt>
      <trkpt lat="45.70534" lon="4.7274">
        <ele>309.2</ele>
        <time>2025-08-06T09:58:04Z</time>
      </trkpt>
      <trkpt lat="45.7053" lon="4.72745">
        <ele>309.4</ele>
        <time>2025-08-06T09:58:05Z</time>
      </trkpt>
      <trkpt lat="45.70526" lon="4.72749">
        <ele>309.4</ele>
        <time>2025-08-06T09:58:06Z</time>
      </trkpt>
      <trkpt lat="45.70521" lon="4.72752">
        <ele>309.6</ele>
        <time>2025-08-06T09:58:07Z</time>
      </trkpt>
      <trkpt lat="45.70517" lon="4.72755">
        <ele>309.6</ele>
        <time>2025-08-06T09:58:08Z</time>
      </trkpt>
      <trkpt lat="45.70512" lon="4.72757">
        <ele>309.6</ele>
        <time>2025-08-06T09:58:09Z</time>
      </trkpt>
      <trkpt lat="45.70508" lon="4.72759">
        <ele>309.8</ele>
        <time>2025-08-06T09:58:10Z</time>
      </trkpt>
      <trkpt lat="45.70503" lon="4.72762">
        <ele>309.8</ele>
        <time>2025-08-06T09:58:11Z</time>
      </trkpt>
      <trkpt lat="45.70499" lon="4.72764">
        <ele>309.8</ele>
        <time>2025-08-06T09:58:12Z</time>
      </trkpt>
      <trkpt lat="45.70494" lon="4.72766">
        <ele>309.8</ele>
        <time>2025-08-06T09:58:13Z</time>
      </trkpt>
      <trkpt lat="45.70489" lon="4.72767">
        <ele>309.8</ele>
        <time>2025-08-06T09:58:14Z</time>
      </trkpt>
      <trkpt lat="45.70484" lon="4.7277">
        <ele>309.8</ele>
        <time>2025-08-06T09:58:15Z</time>
      </trkpt>
      <trkpt lat="45.7048" lon="4.72772">
        <ele>309.6</ele>
        <time>2025-08-06T09:58:16Z</time>
      </trkpt>
      <trkpt lat="45.70475" lon="4.72774">
        <ele>309.6</ele>
        <time>2025-08-06T09:58:17Z</time>
      </trkpt>
      <trkpt lat="45.7047" lon="4.72777">
        <ele>309.6</ele>
        <time>2025-08-06T09:58:18Z</time>
      </trkpt>
      <trkpt lat="45.70466" lon="4.7278">
        <ele>309.6</ele>
        <time>2025-08-06T09:58:19Z</time>
      </trkpt>
      <trkpt lat="45.70461" lon="4.72784">
        <ele>309.6</ele>
        <time>2025-08-06T09:58:20Z</time>
      </trkpt>
      <trkpt lat="45.70457" lon="4.72788">
        <ele>309.6</ele>
        <time>2025-08-06T09:58:21Z</time>
      </trkpt>
      <trkpt lat="45.70453" lon="4.72791">
        <ele>309.6</ele>
        <time>2025-08-06T09:58:22Z</time>
      </trkpt>
      <trkpt lat="45.70449" lon="4.72792">
        <ele>309.6</ele>
        <time>2025-08-06T09:58:23Z</time>
      </trkpt>
      <trkpt lat="45.70445" lon="4.72795">
        <ele>309.8</ele>
        <time>2025-08-06T09:58:24Z</time>
      </trkpt>
      <trkpt lat="45.70441" lon="4.72799">
        <ele>309.8</ele>
        <time>2025-08-06T09:58:25Z</time>
      </trkpt>
      <trkpt lat="45.70439" lon="4.72804">
        <ele>309.8</ele>
        <time>2025-08-06T09:58:26Z</time>
      </trkpt>
      <trkpt lat="45.70437" lon="4.72811">
        <ele>309.6</ele>
        <time>2025-08-06T09:58:27Z</time>
      </trkpt>
      <trkpt lat="45.70435" lon="4.72818">
        <ele>309.4</ele>
        <time>2025-08-06T09:58:28Z</time>
      </trkpt>
      <trkpt lat="45.70433" lon="4.72825">
        <ele>309.2</ele>
        <time>2025-08-06T09:58:29Z</time>
      </trkpt>
      <trkpt lat="45.70431" lon="4.72831">
        <ele>309</ele>
        <time>2025-08-06T09:58:30Z</time>
      </trkpt>
      <trkpt lat="45.70428" lon="4.72838">
        <ele>308.8</ele>
        <time>2025-08-06T09:58:31Z</time>
      </trkpt>
      <trkpt lat="45.70426" lon="4.72844">
        <ele>308.6</ele>
        <time>2025-08-06T09:58:32Z</time>
      </trkpt>
      <trkpt lat="45.70423" lon="4.72851">
        <ele>308.6</ele>
        <time>2025-08-06T09:58:33Z</time>
      </trkpt>
      <trkpt lat="45.7042" lon="4.72857">
        <ele>308.6</ele>
        <time>2025-08-06T09:58:34Z</time>
      </trkpt>
      <trkpt lat="45.70416" lon="4.72863">
        <ele>308.6</ele>
        <time>2025-08-06T09:58:35Z</time>
      </trkpt>
      <trkpt lat="45.70413" lon="4.7287">
        <ele>308.6</ele>
        <time>2025-08-06T09:58:36Z</time>
      </trkpt>
      <trkpt lat="45.7041" lon="4.72876">
        <ele>308.6</ele>
        <time>2025-08-06T09:58:37Z</time>
      </trkpt>
      <trkpt lat="45.70407" lon="4.72882">
        <ele>308.6</ele>
        <time>2025-08-06T09:58:38Z</time>
      </trkpt>
      <trkpt lat="45.70404" lon="4.72888">
        <ele>308.8</ele>
        <time>2025-08-06T09:58:39Z</time>
      </trkpt>
      <trkpt lat="45.70401" lon="4.72893">
        <ele>309.2</ele>
        <time>2025-08-06T09:58:40Z</time>
      </trkpt>
      <trkpt lat="45.70398" lon="4.72899">
        <ele>309.4</ele>
        <time>2025-08-06T09:58:41Z</time>
      </trkpt>
      <trkpt lat="45.70395" lon="4.72904">
        <ele>309.4</ele>
        <time>2025-08-06T09:58:42Z</time>
      </trkpt>
      <trkpt lat="45.70393" lon="4.72909">
        <ele>309.4</ele>
        <time>2025-08-06T09:58:43Z</time>
      </trkpt>
      <trkpt lat="45.7039" lon="4.72914">
        <ele>309.4</ele>
        <time>2025-08-06T09:58:44Z</time>
      </trkpt>
      <trkpt lat="45.70387" lon="4.7292">
        <ele>309.2</ele>
        <time>2025-08-06T09:58:45Z</time>
      </trkpt>
      <trkpt lat="45.70385" lon="4.72926">
        <ele>309.2</ele>
        <time>2025-08-06T09:58:46Z</time>
      </trkpt>
      <trkpt lat="45.70382" lon="4.72932">
        <ele>309</ele>
        <time>2025-08-06T09:58:47Z</time>
      </trkpt>
      <trkpt lat="45.70379" lon="4.72938">
        <ele>308.8</ele>
        <time>2025-08-06T09:58:48Z</time>
      </trkpt>
      <trkpt lat="45.70376" lon="4.72944">
        <ele>308.8</ele>
        <time>2025-08-06T09:58:49Z</time>
      </trkpt>
      <trkpt lat="45.70373" lon="4.7295">
        <ele>308.6</ele>
        <time>2025-08-06T09:58:50Z</time>
      </trkpt>
      <trkpt lat="45.70371" lon="4.72957">
        <ele>308.6</ele>
        <time>2025-08-06T09:58:51Z</time>
      </trkpt>
      <trkpt lat="45.70368" lon="4.72964">
        <ele>308.6</ele>
        <time>2025-08-06T09:58:52Z</time>
      </trkpt>
      <trkpt lat="45.70365" lon="4.72971">
        <ele>308.6</ele>
        <time>2025-08-06T09:58:53Z</time>
      </trkpt>
      <trkpt lat="45.70362" lon="4.72977">
        <ele>308.6</ele>
        <time>2025-08-06T09:58:54Z</time>
      </trkpt>
      <trkpt lat="45.7036" lon="4.72984">
        <ele>308.6</ele>
        <time>2025-08-06T09:58:55Z</time>
      </trkpt>
      <trkpt lat="45.70357" lon="4.72991">
        <ele>308.6</ele>
        <time>2025-08-06T09:58:56Z</time>
      </trkpt>
      <trkpt lat="45.70354" lon="4.72998">
        <ele>308.6</ele>
        <time>2025-08-06T09:58:57Z</time>
      </trkpt>
      <trkpt lat="45.70351" lon="4.73005">
        <ele>308.6</ele>
        <time>2025-08-06T09:58:58Z</time>
      </trkpt>
      <trkpt lat="45.70348" lon="4.73011">
        <ele>308.6</ele>
        <time>2025-08-06T09:58:59Z</time>
      </trkpt>
      <trkpt lat="45.70346" lon="4.73018">
        <ele>308.6</ele>
        <time>2025-08-06T09:59:00Z</time>
      </trkpt>
      <trkpt lat="45.70343" lon="4.73024">
        <ele>308.6</ele>
        <time>2025-08-06T09:59:01Z</time>
      </trkpt>
      <trkpt lat="45.70341" lon="4.7303">
        <ele>308.6</ele>
        <time>2025-08-06T09:59:02Z</time>
      </trkpt>
      <trkpt lat="45.70338" lon="4.73036">
        <ele>308.6</ele>
        <time>2025-08-06T09:59:03Z</time>
      </trkpt>
      <trkpt lat="45.70336" lon="4.73043">
        <ele>308.2</ele>
        <time>2025-08-06T09:59:04Z</time>
      </trkpt>
      <trkpt lat="45.70334" lon="4.73049">
        <ele>308</ele>
        <time>2025-08-06T09:59:05Z</time>
      </trkpt>
      <trkpt lat="45.70333" lon="4.73055">
        <ele>308</ele>
        <time>2025-08-06T09:59:06Z</time>
      </trkpt>
      <trkpt lat="45.70331" lon="4.73061">
        <ele>308</ele>
        <time>2025-08-06T09:59:07Z</time>
      </trkpt>
      <trkpt lat="45.7033" lon="4.73067">
        <ele>308.2</ele>
        <time>2025-08-06T09:59:08Z</time>
      </trkpt>
      <trkpt lat="45.70328" lon="4.73072">
        <ele>308.6</ele>
        <time>2025-08-06T09:59:09Z</time>
      </trkpt>
      <trkpt lat="45.70326" lon="4.73076">
        <ele>309</ele>
        <time>2025-08-06T09:59:10Z</time>
      </trkpt>
      <trkpt lat="45.70325" lon="4.7308">
        <ele>309.4</ele>
        <time>2025-08-06T09:59:11Z</time>
      </trkpt>
      <trkpt lat="45.70324" lon="4.73084">
        <ele>309.6</ele>
        <time>2025-08-06T09:59:12Z</time>
      </trkpt>
      <trkpt lat="45.70323" lon="4.73089">
        <ele>309.8</ele>
        <time>2025-08-06T09:59:13Z</time>
      </trkpt>
      <trkpt lat="45.70323" lon="4.73093">
        <ele>309.8</ele>
        <time>2025-08-06T09:59:14Z</time>
      </trkpt>
      <trkpt lat="45.70323" lon="4.73097">
        <ele>309.8</ele>
        <time>2025-08-06T09:59:15Z</time>
      </trkpt>
      <trkpt lat="45.70323" lon="4.731">
        <ele>309.6</ele>
        <time>2025-08-06T09:59:16Z</time>
      </trkpt>
      <trkpt lat="45.70323" lon="4.73101">
        <ele>309.6</ele>
        <time>2025-08-06T09:59:17Z</time>
      </trkpt>
      <trkpt lat="45.70323" lon="4.73101">
        <ele>309.6</ele>
        <time>2025-08-06T09:59:18Z</time>
      </trkpt>
      <trkpt lat="45.70326" lon="4.73102">
        <ele>308.8</ele>
        <time>2025-08-06T10:01:15Z</time>
      </trkpt>
      <trkpt lat="45.70328" lon="4.73103">
        <ele>308.8</ele>
        <time>2025-08-06T10:01:16Z</time>
      </trkpt>
      <trkpt lat="45.70331" lon="4.73105">
        <ele>308.6</ele>
        <time>2025-08-06T10:01:17Z</time>
      </trkpt>
      <trkpt lat="45.70335" lon="4.73107">
        <ele>308.4</ele>
        <time>2025-08-06T10:01:18Z</time>
      </trkpt>
      <trkpt lat="45.70338" lon="4.7311">
        <ele>308.2</ele>
        <time>2025-08-06T10:01:19Z</time>
      </trkpt>
      <trkpt lat="45.70342" lon="4.73114">
        <ele>308</ele>
        <time>2025-08-06T10:01:20Z</time>
      </trkpt>
      <trkpt lat="45.70345" lon="4.73118">
        <ele>307.8</ele>
        <time>2025-08-06T10:01:21Z</time>
      </trkpt>
      <trkpt lat="45.70349" lon="4.73123">
        <ele>307.8</ele>
        <time>2025-08-06T10:01:22Z</time>
      </trkpt>
      <trkpt lat="45.70352" lon="4.73127">
        <ele>307.6</ele>
        <time>2025-08-06T10:01:23Z</time>
      </trkpt>
      <trkpt lat="45.70356" lon="4.73131">
        <ele>307.6</ele>
        <time>2025-08-06T10:01:24Z</time>
      </trkpt>
      <trkpt lat="45.70359" lon="4.73135">
        <ele>307.6</ele>
        <time>2025-08-06T10:01:25Z</time>
      </trkpt>
      <trkpt lat="45.70362" lon="4.7314">
        <ele>307.6</ele>
        <time>2025-08-06T10:01:26Z</time>
      </trkpt>
      <trkpt lat="45.70366" lon="4.73144">
        <ele>307.6</ele>
        <time>2025-08-06T10:01:27Z</time>
      </trkpt>
      <trkpt lat="45.70371" lon="4.73149">
        <ele>307.6</ele>
        <time>2025-08-06T10:01:28Z</time>
      </trkpt>
      <trkpt lat="45.70375" lon="4.73153">
        <ele>307.6</ele>
        <time>2025-08-06T10:01:29Z</time>
      </trkpt>
      <trkpt lat="45.7038" lon="4.73157">
        <ele>307.4</ele>
        <time>2025-08-06T10:01:30Z</time>
      </trkpt>
      <trkpt lat="45.70384" lon="4.73161">
        <ele>307.4</ele>
        <time>2025-08-06T10:01:31Z</time>
      </trkpt>
      <trkpt lat="45.70389" lon="4.73165">
        <ele>307.4</ele>
        <time>2025-08-06T10:01:32Z</time>
      </trkpt>
      <trkpt lat="45.70394" lon="4.73169">
        <ele>307.4</ele>
        <time>2025-08-06T10:01:33Z</time>
      </trkpt>
      <trkpt lat="45.704" lon="4.73173">
        <ele>307.4</ele>
        <time>2025-08-06T10:01:34Z</time>
      </trkpt>
      <trkpt lat="45.70405" lon="4.73176">
        <ele>307.2</ele>
        <time>2025-08-06T10:01:35Z</time>
      </trkpt>
      <trkpt lat="45.7041" lon="4.7318">
        <ele>307.2</ele>
        <time>2025-08-06T10:01:36Z</time>
      </trkpt>
      <trkpt lat="45.70415" lon="4.73184">
        <ele>307.2</ele>
        <time>2025-08-06T10:01:37Z</time>
      </trkpt>
      <trkpt lat="45.70421" lon="4.73188">
        <ele>307.2</ele>
        <time>2025-08-06T10:01:38Z</time>
      </trkpt>
      <trkpt lat="45.70426" lon="4.73191">
        <ele>307.2</ele>
        <time>2025-08-06T10:01:39Z</time>
      </trkpt>
      <trkpt lat="45.70431" lon="4.73195">
        <ele>307.2</ele>
        <time>2025-08-06T10:01:40Z</time>
      </trkpt>
      <trkpt lat="45.70437" lon="4.73198">
        <ele>307.2</ele>
        <time>2025-08-06T10:01:41Z</time>
      </trkpt>
      <trkpt lat="45.70442" lon="4.73202">
        <ele>307.2</ele>
        <time>2025-08-06T10:01:42Z</time>
      </trkpt>
      <trkpt lat="45.70447" lon="4.73205">
        <ele>307.2</ele>
        <time>2025-08-06T10:01:43Z</time>
      </trkpt>
      <trkpt lat="45.70452" lon="4.73209">
        <ele>307.2</ele>
        <time>2025-08-06T10:01:44Z</time>
      </trkpt>
      <trkpt lat="45.70457" lon="4.73213">
        <ele>307.2</ele>
        <time>2025-08-06T10:01:45Z</time>
      </trkpt>
      <trkpt lat="45.70462" lon="4.73216">
        <ele>307</ele>
        <time>2025-08-06T10:01:46Z</time>
      </trkpt>
      <trkpt lat="45.70467" lon="4.7322">
        <ele>307</ele>
        <time>2025-08-06T10:01:47Z</time>
      </trkpt>
      <trkpt lat="45.70473" lon="4.73223">
        <ele>307</ele>
        <time>2025-08-06T10:01:48Z</time>
      </trkpt>
      <trkpt lat="45.70478" lon="4.73227">
        <ele>307</ele>
        <time>2025-08-06T10:01:49Z</time>
      </trkpt>
      <trkpt lat="45.70483" lon="4.7323">
        <ele>307</ele>
        <time>2025-08-06T10:01:50Z</time>
      </trkpt>
      <trkpt lat="45.70489" lon="4.73234">
        <ele>307.2</ele>
        <time>2025-08-06T10:01:51Z</time>
      </trkpt>
      <trkpt lat="45.70494" lon="4.73238">
        <ele>307.2</ele>
        <time>2025-08-06T10:01:52Z</time>
      </trkpt>
      <trkpt lat="45.70499" lon="4.73242">
        <ele>307.2</ele>
        <time>2025-08-06T10:01:53Z</time>
      </trkpt>
      <trkpt lat="45.70505" lon="4.73245">
        <ele>307</ele>
        <time>2025-08-06T10:01:54Z</time>
      </trkpt>
      <trkpt lat="45.7051" lon="4.73249">
        <ele>307</ele>
        <time>2025-08-06T10:01:55Z</time>
      </trkpt>
      <trkpt lat="45.70516" lon="4.73253">
        <ele>307</ele>
        <time>2025-08-06T10:01:56Z</time>
      </trkpt>
      <trkpt lat="45.70521" lon="4.73257">
        <ele>306.8</ele>
        <time>2025-08-06T10:01:57Z</time>
      </trkpt>
      <trkpt lat="45.70526" lon="4.73261">
        <ele>306.8</ele>
        <time>2025-08-06T10:01:58Z</time>
      </trkpt>
      <trkpt lat="45.70532" lon="4.73264">
        <ele>306.6</ele>
        <time>2025-08-06T10:01:59Z</time>
      </trkpt>
      <trkpt lat="45.70537" lon="4.73268">
        <ele>306.4</ele>
        <time>2025-08-06T10:02:00Z</time>
      </trkpt>
      <trkpt lat="45.70542" lon="4.73272">
        <ele>306.2</ele>
        <time>2025-08-06T10:02:01Z</time>
      </trkpt>
      <trkpt lat="45.70547" lon="4.73276">
        <ele>306.2</ele>
        <time>2025-08-06T10:02:02Z</time>
      </trkpt>
      <trkpt lat="45.70552" lon="4.7328">
        <ele>306.2</ele>
        <time>2025-08-06T10:02:03Z</time>
      </trkpt>
      <trkpt lat="45.70557" lon="4.73284">
        <ele>306.4</ele>
        <time>2025-08-06T10:02:04Z</time>
      </trkpt>
      <trkpt lat="45.70562" lon="4.73289">
        <ele>306.6</ele>
        <time>2025-08-06T10:02:05Z</time>
      </trkpt>
      <trkpt lat="45.70567" lon="4.73293">
        <ele>306.8</ele>
        <time>2025-08-06T10:02:06Z</time>
      </trkpt>
      <trkpt lat="45.70571" lon="4.73298">
        <ele>306.8</ele>
        <time>2025-08-06T10:02:07Z</time>
      </trkpt>
      <trkpt lat="45.70575" lon="4.73303">
        <ele>307</ele>
        <time>2025-08-06T10:02:08Z</time>
      </trkpt>
      <trkpt lat="45.7058" lon="4.73309">
        <ele>307</ele>
        <time>2025-08-06T10:02:09Z</time>
      </trkpt>
      <trkpt lat="45.70584" lon="4.73315">
        <ele>307</ele>
        <time>2025-08-06T10:02:10Z</time>
      </trkpt>
      <trkpt lat="45.70588" lon="4.73321">
        <ele>307</ele>
        <time>2025-08-06T10:02:11Z</time>
      </trkpt>
      <trkpt lat="45.70592" lon="4.73326">
        <ele>307</ele>
        <time>2025-08-06T10:02:12Z</time>
      </trkpt>
      <trkpt lat="45.70596" lon="4.73332">
        <ele>307</ele>
        <time>2025-08-06T10:02:13Z</time>
      </trkpt>
      <trkpt lat="45.706" lon="4.73338">
        <ele>307.2</ele>
        <time>2025-08-06T10:02:14Z</time>
      </trkpt>
      <trkpt lat="45.70604" lon="4.73343">
        <ele>307.2</ele>
        <time>2025-08-06T10:02:15Z</time>
      </trkpt>
      <trkpt lat="45.70608" lon="4.73349">
        <ele>307.2</ele>
        <time>2025-08-06T10:02:16Z</time>
      </trkpt>
      <trkpt lat="45.70612" lon="4.73355">
        <ele>307.2</ele>
        <time>2025-08-06T10:02:17Z</time>
      </trkpt>
      <trkpt lat="45.70615" lon="4.7336">
        <ele>307.2</ele>
        <time>2025-08-06T10:02:18Z</time>
      </trkpt>
      <trkpt lat="45.70618" lon="4.73365">
        <ele>307</ele>
        <time>2025-08-06T10:02:19Z</time>
      </trkpt>
      <trkpt lat="45.70622" lon="4.73371">
        <ele>307</ele>
        <time>2025-08-06T10:02:20Z</time>
      </trkpt>
      <trkpt lat="45.70625" lon="4.73376">
        <ele>306.8</ele>
        <time>2025-08-06T10:02:21Z</time>
      </trkpt>
      <trkpt lat="45.70628" lon="4.73381">
        <ele>306.6</ele>
        <time>2025-08-06T10:02:22Z</time>
      </trkpt>
      <trkpt lat="45.70632" lon="4.73387">
        <ele>306.6</ele>
        <time>2025-08-06T10:02:23Z</time>
      </trkpt>
      <trkpt lat="45.70635" lon="4.73392">
        <ele>306.6</ele>
        <time>2025-08-06T10:02:24Z</time>
      </trkpt>
      <trkpt lat="45.70639" lon="4.73397">
        <ele>306.8</ele>
        <time>2025-08-06T10:02:25Z</time>
      </trkpt>
      <trkpt lat="45.70642" lon="4.73401">
        <ele>307</ele>
        <time>2025-08-06T10:02:26Z</time>
      </trkpt>
      <trkpt lat="45.70646" lon="4.73406">
        <ele>307.2</ele>
        <time>2025-08-06T10:02:27Z</time>
      </trkpt>
      <trkpt lat="45.70649" lon="4.73411">
        <ele>307.6</ele>
        <time>2025-08-06T10:02:28Z</time>
      </trkpt>
      <trkpt lat="45.70653" lon="4.73415">
        <ele>307.8</ele>
        <time>2025-08-06T10:02:29Z</time>
      </trkpt>
      <trkpt lat="45.70656" lon="4.73419">
        <ele>308</ele>
        <time>2025-08-06T10:02:30Z</time>
      </trkpt>
      <trkpt lat="45.70659" lon="4.73424">
        <ele>308.2</ele>
        <time>2025-08-06T10:02:31Z</time>
      </trkpt>
      <trkpt lat="45.70662" lon="4.73429">
        <ele>308.4</ele>
        <time>2025-08-06T10:02:32Z</time>
      </trkpt>
      <trkpt lat="45.70665" lon="4.73433">
        <ele>308.6</ele>
        <time>2025-08-06T10:02:33Z</time>
      </trkpt>
      <trkpt lat="45.70669" lon="4.73437">
        <ele>308.8</ele>
        <time>2025-08-06T10:02:34Z</time>
      </trkpt>
      <trkpt lat="45.70672" lon="4.73441">
        <ele>309.2</ele>
        <time>2025-08-06T10:02:35Z</time>
      </trkpt>
      <trkpt lat="45.70676" lon="4.73445">
        <ele>309.4</ele>
        <time>2025-08-06T10:02:36Z</time>
      </trkpt>
      <trkpt lat="45.70679" lon="4.7345">
        <ele>309.8</ele>
        <time>2025-08-06T10:02:37Z</time>
      </trkpt>
      <trkpt lat="45.70683" lon="4.73455">
        <ele>309.8</ele>
        <time>2025-08-06T10:02:38Z</time>
      </trkpt>
      <trkpt lat="45.70686" lon="4.73459">
        <ele>310</ele>
        <time>2025-08-06T10:02:39Z</time>
      </trkpt>
      <trkpt lat="45.7069" lon="4.73464">
        <ele>310</ele>
        <time>2025-08-06T10:02:40Z</time>
      </trkpt>
      <trkpt lat="45.70694" lon="4.73468">
        <ele>310</ele>
        <time>2025-08-06T10:02:41Z</time>
      </trkpt>
      <trkpt lat="45.70697" lon="4.73472">
        <ele>310.2</ele>
        <time>2025-08-06T10:02:42Z</time>
      </trkpt>
      <trkpt lat="45.70701" lon="4.73476">
        <ele>310.2</ele>
        <time>2025-08-06T10:02:43Z</time>
      </trkpt>
      <trkpt lat="45.70705" lon="4.7348">
        <ele>310.2</ele>
        <time>2025-08-06T10:02:44Z</time>
      </trkpt>
      <trkpt lat="45.70709" lon="4.73484">
        <ele>310</ele>
        <time>2025-08-06T10:02:45Z</time>
      </trkpt>
      <trkpt lat="45.70713" lon="4.73489">
        <ele>310.2</ele>
        <time>2025-08-06T10:02:46Z</time>
      </trkpt>
      <trkpt lat="45.70717" lon="4.73493">
        <ele>310.2</ele>
        <time>2025-08-06T10:02:47Z</time>
      </trkpt>
      <trkpt lat="45.70721" lon="4.73497">
        <ele>310.2</ele>
        <time>2025-08-06T10:02:48Z</time>
      </trkpt>
      <trkpt lat="45.70725" lon="4.735">
        <ele>310.4</ele>
        <time>2025-08-06T10:02:49Z</time>
      </trkpt>
      <trkpt lat="45.70729" lon="4.73504">
        <ele>310.6</ele>
        <time>2025-08-06T10:02:50Z</time>
      </trkpt>
      <trkpt lat="45.70733" lon="4.73509">
        <ele>310.6</ele>
        <time>2025-08-06T10:02:51Z</time>
      </trkpt>
      <trkpt lat="45.70736" lon="4.73513">
        <ele>310.8</ele>
        <time>2025-08-06T10:02:52Z</time>
      </trkpt>
      <trkpt lat="45.7074" lon="4.73517">
        <ele>310.8</ele>
        <time>2025-08-06T10:02:53Z</time>
      </trkpt>
      <trkpt lat="45.70744" lon="4.73522">
        <ele>310.8</ele>
        <time>2025-08-06T10:02:54Z</time>
      </trkpt>
      <trkpt lat="45.70749" lon="4.73526">
        <ele>311</ele>
        <time>2025-08-06T10:02:55Z</time>
      </trkpt>
      <trkpt lat="45.70753" lon="4.73529">
        <ele>311.2</ele>
        <time>2025-08-06T10:02:56Z</time>
      </trkpt>
      <trkpt lat="45.70757" lon="4.73533">
        <ele>311.2</ele>
        <time>2025-08-06T10:02:57Z</time>
      </trkpt>
      <trkpt lat="45.70761" lon="4.73538">
        <ele>311.4</ele>
        <time>2025-08-06T10:02:58Z</time>
      </trkpt>
      <trkpt lat="45.70765" lon="4.73542">
        <ele>311.6</ele>
        <time>2025-08-06T10:02:59Z</time>
      </trkpt>
      <trkpt lat="45.70769" lon="4.73546">
        <ele>311.6</ele>
        <time>2025-08-06T10:03:00Z</time>
      </trkpt>
      <trkpt lat="45.70773" lon="4.7355">
        <ele>311.6</ele>
        <time>2025-08-06T10:03:01Z</time>
      </trkpt>
      <trkpt lat="45.70777" lon="4.73554">
        <ele>311.8</ele>
        <time>2025-08-06T10:03:02Z</time>
      </trkpt>
      <trkpt lat="45.7078" lon="4.73558">
        <ele>311.6</ele>
        <time>2025-08-06T10:03:03Z</time>
      </trkpt>
      <trkpt lat="45.70784" lon="4.73562">
        <ele>311.6</ele>
        <time>2025-08-06T10:03:04Z</time>
      </trkpt>
      <trkpt lat="45.70788" lon="4.73566">
        <ele>311.4</ele>
        <time>2025-08-06T10:03:05Z</time>
      </trkpt>
      <trkpt lat="45.70792" lon="4.73569">
        <ele>311.4</ele>
        <time>2025-08-06T10:03:06Z</time>
      </trkpt>
      <trkpt lat="45.70796" lon="4.73573">
        <ele>311.2</ele>
        <time>2025-08-06T10:03:07Z</time>
      </trkpt>
      <trkpt lat="45.708" lon="4.73577">
        <ele>311.2</ele>
        <time>2025-08-06T10:03:08Z</time>
      </trkpt>
      <trkpt lat="45.70804" lon="4.73581">
        <ele>311.2</ele>
        <time>2025-08-06T10:03:09Z</time>
      </trkpt>
      <trkpt lat="45.70808" lon="4.73585">
        <ele>311</ele>
        <time>2025-08-06T10:03:10Z</time>
      </trkpt>
      <trkpt lat="45.70812" lon="4.73589">
        <ele>311</ele>
        <time>2025-08-06T10:03:11Z</time>
      </trkpt>
      <trkpt lat="45.70817" lon="4.73594">
        <ele>310.8</ele>
        <time>2025-08-06T10:03:12Z</time>
      </trkpt>
      <trkpt lat="45.70821" lon="4.73598">
        <ele>310.8</ele>
        <time>2025-08-06T10:03:13Z</time>
      </trkpt>
      <trkpt lat="45.70825" lon="4.73602">
        <ele>310.6</ele>
        <time>2025-08-06T10:03:14Z</time>
      </trkpt>
      <trkpt lat="45.70829" lon="4.73606">
        <ele>310.6</ele>
        <time>2025-08-06T10:03:15Z</time>
      </trkpt>
      <trkpt lat="45.70833" lon="4.7361">
        <ele>310.8</ele>
        <time>2025-08-06T10:03:16Z</time>
      </trkpt>
      <trkpt lat="45.70837" lon="4.73614">
        <ele>310.8</ele>
        <time>2025-08-06T10:03:17Z</time>
      </trkpt>
      <trkpt lat="45.70841" lon="4.73618">
        <ele>311</ele>
        <time>2025-08-06T10:03:18Z</time>
      </trkpt>
      <trkpt lat="45.70845" lon="4.73622">
        <ele>311.2</ele>
        <time>2025-08-06T10:03:19Z</time>
      </trkpt>
      <trkpt lat="45.70849" lon="4.73626">
        <ele>311.2</ele>
        <time>2025-08-06T10:03:20Z</time>
      </trkpt>
      <trkpt lat="45.70853" lon="4.7363">
        <ele>311.4</ele>
        <time>2025-08-06T10:03:21Z</time>
      </trkpt>
      <trkpt lat="45.70857" lon="4.73634">
        <ele>311.6</ele>
        <time>2025-08-06T10:03:22Z</time>
      </trkpt>
      <trkpt lat="45.70861" lon="4.73638">
        <ele>311.6</ele>
        <time>2025-08-06T10:03:23Z</time>
      </trkpt>
      <trkpt lat="45.70865" lon="4.73643">
        <ele>312</ele>
        <time>2025-08-06T10:03:24Z</time>
      </trkpt>
      <trkpt lat="45.70869" lon="4.73647">
        <ele>312.2</ele>
        <time>2025-08-06T10:03:25Z</time>
      </trkpt>
      <trkpt lat="45.70873" lon="4.73653">
        <ele>312.2</ele>
        <time>2025-08-06T10:03:26Z</time>
      </trkpt>
      <trkpt lat="45.70876" lon="4.73659">
        <ele>312.2</ele>
        <time>2025-08-06T10:03:27Z</time>
      </trkpt>
      <trkpt lat="45.70878" lon="4.73666">
        <ele>312.2</ele>
        <time>2025-08-06T10:03:28Z</time>
      </trkpt>
      <trkpt lat="45.70879" lon="4.73673">
        <ele>312.2</ele>
        <time>2025-08-06T10:03:29Z</time>
      </trkpt>
      <trkpt lat="45.7088" lon="4.7368">
        <ele>312</ele>
        <time>2025-08-06T10:03:30Z</time>
      </trkpt>
      <trkpt lat="45.70882" lon="4.73686">
        <ele>312</ele>
        <time>2025-08-06T10:03:31Z</time>
      </trkpt>
      <trkpt lat="45.70885" lon="4.73691">
        <ele>311.8</ele>
        <time>2025-08-06T10:03:32Z</time>
      </trkpt>
      <trkpt lat="45.7089" lon="4.73694">
        <ele>312</ele>
        <time>2025-08-06T10:03:33Z</time>
      </trkpt>
      <trkpt lat="45.70895" lon="4.73695">
        <ele>312</ele>
        <time>2025-08-06T10:03:34Z</time>
      </trkpt>
      <trkpt lat="45.709" lon="4.73695">
        <ele>312</ele>
        <time>2025-08-06T10:03:35Z</time>
      </trkpt>
      <trkpt lat="45.70905" lon="4.73695">
        <ele>311.8</ele>
        <time>2025-08-06T10:03:36Z</time>
      </trkpt>
      <trkpt lat="45.7091" lon="4.73697">
        <ele>311.8</ele>
        <time>2025-08-06T10:03:37Z</time>
      </trkpt>
      <trkpt lat="45.70914" lon="4.73699">
        <ele>311.8</ele>
        <time>2025-08-06T10:03:38Z</time>
      </trkpt>
      <trkpt lat="45.70918" lon="4.73702">
        <ele>311.8</ele>
        <time>2025-08-06T10:03:39Z</time>
      </trkpt>
      <trkpt lat="45.70922" lon="4.73705">
        <ele>311.8</ele>
        <time>2025-08-06T10:03:40Z</time>
      </trkpt>
      <trkpt lat="45.70926" lon="4.7371">
        <ele>311.8</ele>
        <time>2025-08-06T10:03:41Z</time>
      </trkpt>
      <trkpt lat="45.7093" lon="4.73714">
        <ele>311.8</ele>
        <time>2025-08-06T10:03:42Z</time>
      </trkpt>
      <trkpt lat="45.70933" lon="4.73718">
        <ele>312</ele>
        <time>2025-08-06T10:03:43Z</time>
      </trkpt>
      <trkpt lat="45.70936" lon="4.73723">
        <ele>312.2</ele>
        <time>2025-08-06T10:03:44Z</time>
      </trkpt>
      <trkpt lat="45.7094" lon="4.73727">
        <ele>312.4</ele>
        <time>2025-08-06T10:03:45Z</time>
      </trkpt>
      <trkpt lat="45.70943" lon="4.73731">
        <ele>312.6</ele>
        <time>2025-08-06T10:03:46Z</time>
      </trkpt>
      <trkpt lat="45.70947" lon="4.73736">
        <ele>312.8</ele>
        <time>2025-08-06T10:03:47Z</time>
      </trkpt>
      <trkpt lat="45.7095" lon="4.7374">
        <ele>313</ele>
        <time>2025-08-06T10:03:48Z</time>
      </trkpt>
      <trkpt lat="45.70954" lon="4.73744">
        <ele>313</ele>
        <time>2025-08-06T10:03:49Z</time>
      </trkpt>
      <trkpt lat="45.70957" lon="4.73748">
        <ele>313.2</ele>
        <time>2025-08-06T10:03:50Z</time>
      </trkpt>
      <trkpt lat="45.70961" lon="4.73753">
        <ele>313.2</ele>
        <time>2025-08-06T10:03:51Z</time>
      </trkpt>
      <trkpt lat="45.70964" lon="4.73757">
        <ele>313.2</ele>
        <time>2025-08-06T10:03:52Z</time>
      </trkpt>
      <trkpt lat="45.70967" lon="4.73761">
        <ele>313.2</ele>
        <time>2025-08-06T10:03:53Z</time>
      </trkpt>
      <trkpt lat="45.70971" lon="4.73764">
        <ele>313.2</ele>
        <time>2025-08-06T10:03:54Z</time>
      </trkpt>
      <trkpt lat="45.70974" lon="4.73769">
        <ele>313.4</ele>
        <time>2025-08-06T10:03:55Z</time>
      </trkpt>
      <trkpt lat="45.70978" lon="4.73773">
        <ele>313.6</ele>
        <time>2025-08-06T10:03:56Z</time>
      </trkpt>
      <trkpt lat="45.70981" lon="4.73777">
        <ele>313.6</ele>
        <time>2025-08-06T10:03:57Z</time>
      </trkpt>
      <trkpt lat="45.70985" lon="4.73782">
        <ele>313.8</ele>
        <time>2025-08-06T10:03:58Z</time>
      </trkpt>
      <trkpt lat="45.70988" lon="4.73786">
        <ele>314</ele>
        <time>2025-08-06T10:03:59Z</time>
      </trkpt>
      <trkpt lat="45.70991" lon="4.7379">
        <ele>314</ele>
        <time>2025-08-06T10:04:00Z</time>
      </trkpt>
      <trkpt lat="45.70995" lon="4.73794">
        <ele>314.2</ele>
        <time>2025-08-06T10:04:01Z</time>
      </trkpt>
      <trkpt lat="45.70998" lon="4.73798">
        <ele>314.4</ele>
        <time>2025-08-06T10:04:02Z</time>
      </trkpt>
      <trkpt lat="45.71002" lon="4.73802">
        <ele>314.6</ele>
        <time>2025-08-06T10:04:03Z</time>
      </trkpt>
      <trkpt lat="45.71006" lon="4.73806">
        <ele>314.8</ele>
        <time>2025-08-06T10:04:04Z</time>
      </trkpt>
      <trkpt lat="45.7101" lon="4.7381">
        <ele>315</ele>
        <time>2025-08-06T10:04:05Z</time>
      </trkpt>
      <trkpt lat="45.71013" lon="4.73814">
        <ele>315.2</ele>
        <time>2025-08-06T10:04:06Z</time>
      </trkpt>
      <trkpt lat="45.71017" lon="4.73818">
        <ele>315.4</ele>
        <time>2025-08-06T10:04:07Z</time>
      </trkpt>
      <trkpt lat="45.71021" lon="4.73822">
        <ele>315.4</ele>
        <time>2025-08-06T10:04:08Z</time>
      </trkpt>
      <trkpt lat="45.71025" lon="4.73826">
        <ele>315.4</ele>
        <time>2025-08-06T10:04:09Z</time>
      </trkpt>
      <trkpt lat="45.71029" lon="4.73831">
        <ele>315.6</ele>
        <time>2025-08-06T10:04:10Z</time>
      </trkpt>
      <trkpt lat="45.71033" lon="4.73835">
        <ele>315.6</ele>
        <time>2025-08-06T10:04:11Z</time>
      </trkpt>
      <trkpt lat="45.71037" lon="4.73839">
        <ele>315.6</ele>
        <time>2025-08-06T10:04:12Z</time>
      </trkpt>
      <trkpt lat="45.71041" lon="4.73843">
        <ele>315.6</ele>
        <time>2025-08-06T10:04:13Z</time>
      </trkpt>
      <trkpt lat="45.71044" lon="4.73847">
        <ele>315.6</ele>
        <time>2025-08-06T10:04:14Z</time>
      </trkpt>
      <trkpt lat="45.71048" lon="4.7385">
        <ele>315.8</ele>
        <time>2025-08-06T10:04:15Z</time>
      </trkpt>
      <trkpt lat="45.71052" lon="4.73854">
        <ele>315.8</ele>
        <time>2025-08-06T10:04:16Z</time>
      </trkpt>
      <trkpt lat="45.71055" lon="4.73858">
        <ele>315.8</ele>
        <time>2025-08-06T10:04:17Z</time>
      </trkpt>
      <trkpt lat="45.71059" lon="4.73861">
        <ele>316</ele>
        <time>2025-08-06T10:04:18Z</time>
      </trkpt>
      <trkpt lat="45.71063" lon="4.73864">
        <ele>316</ele>
        <time>2025-08-06T10:04:19Z</time>
      </trkpt>
      <trkpt lat="45.71066" lon="4.73867">
        <ele>316.2</ele>
        <time>2025-08-06T10:04:20Z</time>
      </trkpt>
      <trkpt lat="45.71069" lon="4.73869">
        <ele>316.4</ele>
        <time>2025-08-06T10:04:21Z</time>
      </trkpt>
      <trkpt lat="45.71072" lon="4.73871">
        <ele>316.8</ele>
        <time>2025-08-06T10:04:22Z</time>
      </trkpt>
      <trkpt lat="45.71075" lon="4.73874">
        <ele>317</ele>
        <time>2025-08-06T10:04:23Z</time>
      </trkpt>
      <trkpt lat="45.71079" lon="4.73878">
        <ele>317.2</ele>
        <time>2025-08-06T10:04:24Z</time>
      </trkpt>
      <trkpt lat="45.71082" lon="4.73883">
        <ele>317.2</ele>
        <time>2025-08-06T10:04:25Z</time>
      </trkpt>
      <trkpt lat="45.71085" lon="4.73888">
        <ele>317.2</ele>
        <time>2025-08-06T10:04:26Z</time>
      </trkpt>
      <trkpt lat="45.71088" lon="4.73894">
        <ele>317.2</ele>
        <time>2025-08-06T10:04:27Z</time>
      </trkpt>
      <trkpt lat="45.71091" lon="4.739">
        <ele>317</ele>
        <time>2025-08-06T10:04:28Z</time>
      </trkpt>
      <trkpt lat="45.71094" lon="4.73906">
        <ele>317</ele>
        <time>2025-08-06T10:04:29Z</time>
      </trkpt>
      <trkpt lat="45.71097" lon="4.73911">
        <ele>317.2</ele>
        <time>2025-08-06T10:04:30Z</time>
      </trkpt>
      <trkpt lat="45.711" lon="4.73915">
        <ele>317.2</ele>
        <time>2025-08-06T10:04:31Z</time>
      </trkpt>
      <trkpt lat="45.71105" lon="4.73917">
        <ele>317.2</ele>
        <time>2025-08-06T10:04:32Z</time>
      </trkpt>
      <trkpt lat="45.7111" lon="4.73917">
        <ele>317.2</ele>
        <time>2025-08-06T10:04:33Z</time>
      </trkpt>
      <trkpt lat="45.71115" lon="4.73916">
        <ele>317.2</ele>
        <time>2025-08-06T10:04:34Z</time>
      </trkpt>
      <trkpt lat="45.71119" lon="4.73917">
        <ele>317.4</ele>
        <time>2025-08-06T10:04:35Z</time>
      </trkpt>
      <trkpt lat="45.71123" lon="4.7392">
        <ele>317.6</ele>
        <time>2025-08-06T10:04:36Z</time>
      </trkpt>
      <trkpt lat="45.71127" lon="4.73923">
        <ele>317.8</ele>
        <time>2025-08-06T10:04:37Z</time>
      </trkpt>
      <trkpt lat="45.71131" lon="4.73927">
        <ele>318</ele>
        <time>2025-08-06T10:04:38Z</time>
      </trkpt>
      <trkpt lat="45.71135" lon="4.7393">
        <ele>318.2</ele>
        <time>2025-08-06T10:04:39Z</time>
      </trkpt>
      <trkpt lat="45.71139" lon="4.73934">
        <ele>318.4</ele>
        <time>2025-08-06T10:04:40Z</time>
      </trkpt>
      <trkpt lat="45.71143" lon="4.73938">
        <ele>318.4</ele>
        <time>2025-08-06T10:04:41Z</time>
      </trkpt>
      <trkpt lat="45.71147" lon="4.73941">
        <ele>318.6</ele>
        <time>2025-08-06T10:04:42Z</time>
      </trkpt>
      <trkpt lat="45.71151" lon="4.73944">
        <ele>318.6</ele>
        <time>2025-08-06T10:04:43Z</time>
      </trkpt>
      <trkpt lat="45.71155" lon="4.73948">
        <ele>318.6</ele>
        <time>2025-08-06T10:04:44Z</time>
      </trkpt>
      <trkpt lat="45.71159" lon="4.73951">
        <ele>318.8</ele>
        <time>2025-08-06T10:04:45Z</time>
      </trkpt>
      <trkpt lat="45.71163" lon="4.73954">
        <ele>318.8</ele>
        <time>2025-08-06T10:04:46Z</time>
      </trkpt>
      <trkpt lat="45.71167" lon="4.73958">
        <ele>318.8</ele>
        <time>2025-08-06T10:04:47Z</time>
      </trkpt>
      <trkpt lat="45.71171" lon="4.73963">
        <ele>319</ele>
        <time>2025-08-06T10:04:48Z</time>
      </trkpt>
      <trkpt lat="45.71172" lon="4.73969">
        <ele>319.2</ele>
        <time>2025-08-06T10:04:49Z</time>
      </trkpt>
      <trkpt lat="45.71172" lon="4.73976">
        <ele>319.6</ele>
        <time>2025-08-06T10:04:50Z</time>
      </trkpt>
      <trkpt lat="45.71171" lon="4.73983">
        <ele>319.8</ele>
        <time>2025-08-06T10:04:51Z</time>
      </trkpt>
      <trkpt lat="45.7117" lon="4.7399">
        <ele>319.8</ele>
        <time>2025-08-06T10:04:52Z</time>
      </trkpt>
      <trkpt lat="45.71169" lon="4.73997">
        <ele>320</ele>
        <time>2025-08-06T10:04:53Z</time>
      </trkpt>
      <trkpt lat="45.71168" lon="4.74004">
        <ele>320</ele>
        <time>2025-08-06T10:04:54Z</time>
      </trkpt>
      <trkpt lat="45.71167" lon="4.74011">
        <ele>320</ele>
        <time>2025-08-06T10:04:55Z</time>
      </trkpt>
      <trkpt lat="45.71166" lon="4.74018">
        <ele>320</ele>
        <time>2025-08-06T10:04:56Z</time>
      </trkpt>
      <trkpt lat="45.71165" lon="4.74025">
        <ele>320.2</ele>
        <time>2025-08-06T10:04:57Z</time>
      </trkpt>
      <trkpt lat="45.71164" lon="4.74033">
        <ele>320.2</ele>
        <time>2025-08-06T10:04:58Z</time>
      </trkpt>
      <trkpt lat="45.71164" lon="4.74041">
        <ele>320.4</ele>
        <time>2025-08-06T10:04:59Z</time>
      </trkpt>
      <trkpt lat="45.71163" lon="4.74049">
        <ele>320.4</ele>
        <time>2025-08-06T10:05:00Z</time>
      </trkpt>
      <trkpt lat="45.71162" lon="4.74057">
        <ele>320.4</ele>
        <time>2025-08-06T10:05:01Z</time>
      </trkpt>
      <trkpt lat="45.71162" lon="4.74065">
        <ele>320.4</ele>
        <time>2025-08-06T10:05:02Z</time>
      </trkpt>
      <trkpt lat="45.71162" lon="4.74072">
        <ele>320.2</ele>
        <time>2025-08-06T10:05:03Z</time>
      </trkpt>
      <trkpt lat="45.71162" lon="4.7408">
        <ele>320</ele>
        <time>2025-08-06T10:05:04Z</time>
      </trkpt>
      <trkpt lat="45.71162" lon="4.74088">
        <ele>320</ele>
        <time>2025-08-06T10:05:05Z</time>
      </trkpt>
      <trkpt lat="45.71163" lon="4.74096">
        <ele>319.8</ele>
        <time>2025-08-06T10:05:06Z</time>
      </trkpt>
      <trkpt lat="45.71165" lon="4.74104">
        <ele>319.6</ele>
        <time>2025-08-06T10:05:07Z</time>
      </trkpt>
      <trkpt lat="45.71167" lon="4.74113">
        <ele>319.4</ele>
        <time>2025-08-06T10:05:08Z</time>
      </trkpt>
      <trkpt lat="45.71169" lon="4.74121">
        <ele>319</ele>
        <time>2025-08-06T10:05:09Z</time>
      </trkpt>
      <trkpt lat="45.7117" lon="4.74129">
        <ele>318.8</ele>
        <time>2025-08-06T10:05:10Z</time>
      </trkpt>
      <trkpt lat="45.71172" lon="4.74138">
        <ele>318.4</ele>
        <time>2025-08-06T10:05:11Z</time>
      </trkpt>
      <trkpt lat="45.71174" lon="4.74147">
        <ele>317.8</ele>
        <time>2025-08-06T10:05:12Z</time>
      </trkpt>
      <trkpt lat="45.71175" lon="4.74156">
        <ele>317.4</ele>
        <time>2025-08-06T10:05:13Z</time>
      </trkpt>
      <trkpt lat="45.71177" lon="4.74164">
        <ele>317</ele>
        <time>2025-08-06T10:05:14Z</time>
      </trkpt>
      <trkpt lat="45.71179" lon="4.74173">
        <ele>316.8</ele>
        <time>2025-08-06T10:05:15Z</time>
      </trkpt>
      <trkpt lat="45.71181" lon="4.74182">
        <ele>316.4</ele>
        <time>2025-08-06T10:05:16Z</time>
      </trkpt>
      <trkpt lat="45.71182" lon="4.74191">
        <ele>316.2</ele>
        <time>2025-08-06T10:05:17Z</time>
      </trkpt>
      <trkpt lat="45.71183" lon="4.74199">
        <ele>316.2</ele>
        <time>2025-08-06T10:05:18Z</time>
      </trkpt>
      <trkpt lat="45.71185" lon="4.74208">
        <ele>316.2</ele>
        <time>2025-08-06T10:05:19Z</time>
      </trkpt>
      <trkpt lat="45.71186" lon="4.74216">
        <ele>316.2</ele>
        <time>2025-08-06T10:05:20Z</time>
      </trkpt>
      <trkpt lat="45.71187" lon="4.74224">
        <ele>316.2</ele>
        <time>2025-08-06T10:05:21Z</time>
      </trkpt>
      <trkpt lat="45.71189" lon="4.74233">
        <ele>316.2</ele>
        <time>2025-08-06T10:05:22Z</time>
      </trkpt>
      <trkpt lat="45.71191" lon="4.74242">
        <ele>316</ele>
        <time>2025-08-06T10:05:23Z</time>
      </trkpt>
      <trkpt lat="45.71193" lon="4.7425">
        <ele>315.8</ele>
        <time>2025-08-06T10:05:24Z</time>
      </trkpt>
      <trkpt lat="45.71195" lon="4.74259">
        <ele>315.6</ele>
        <time>2025-08-06T10:05:25Z</time>
      </trkpt>
      <trkpt lat="45.71197" lon="4.74267">
        <ele>315.6</ele>
        <time>2025-08-06T10:05:26Z</time>
      </trkpt>
      <trkpt lat="45.71199" lon="4.74276">
        <ele>315.8</ele>
        <time>2025-08-06T10:05:27Z</time>
      </trkpt>
      <trkpt lat="45.71201" lon="4.74284">
        <ele>315.6</ele>
        <time>2025-08-06T10:05:28Z</time>
      </trkpt>
      <trkpt lat="45.71203" lon="4.74293">
        <ele>315.6</ele>
        <time>2025-08-06T10:05:29Z</time>
      </trkpt>
      <trkpt lat="45.71205" lon="4.74301">
        <ele>315.4</ele>
        <time>2025-08-06T10:05:30Z</time>
      </trkpt>
      <trkpt lat="45.71207" lon="4.74309">
        <ele>315.2</ele>
        <time>2025-08-06T10:05:31Z</time>
      </trkpt>
      <trkpt lat="45.71209" lon="4.74317">
        <ele>315.2</ele>
        <time>2025-08-06T10:05:32Z</time>
      </trkpt>
      <trkpt lat="45.71211" lon="4.74324">
        <ele>315</ele>
        <time>2025-08-06T10:05:33Z</time>
      </trkpt>
      <trkpt lat="45.71213" lon="4.74331">
        <ele>315</ele>
        <time>2025-08-06T10:05:34Z</time>
      </trkpt>
      <trkpt lat="45.71215" lon="4.74338">
        <ele>315.2</ele>
        <time>2025-08-06T10:05:35Z</time>
      </trkpt>
      <trkpt lat="45.71217" lon="4.74345">
        <ele>315.4</ele>
        <time>2025-08-06T10:05:36Z</time>
      </trkpt>
      <trkpt lat="45.71219" lon="4.74352">
        <ele>316</ele>
        <time>2025-08-06T10:05:37Z</time>
      </trkpt>
      <trkpt lat="45.7122" lon="4.74358">
        <ele>316.4</ele>
        <time>2025-08-06T10:05:38Z</time>
      </trkpt>
      <trkpt lat="45.71221" lon="4.74365">
        <ele>316.8</ele>
        <time>2025-08-06T10:05:39Z</time>
      </trkpt>
      <trkpt lat="45.71222" lon="4.74372">
        <ele>317</ele>
        <time>2025-08-06T10:05:40Z</time>
      </trkpt>
      <trkpt lat="45.71223" lon="4.74378">
        <ele>317.2</ele>
        <time>2025-08-06T10:05:41Z</time>
      </trkpt>
      <trkpt lat="45.71225" lon="4.74385">
        <ele>317.2</ele>
        <time>2025-08-06T10:05:42Z</time>
      </trkpt>
      <trkpt lat="45.71226" lon="4.74392">
        <ele>317.2</ele>
        <time>2025-08-06T10:05:43Z</time>
      </trkpt>
      <trkpt lat="45.71227" lon="4.74399">
        <ele>317.4</ele>
        <time>2025-08-06T10:05:44Z</time>
      </trkpt>
      <trkpt lat="45.71227" lon="4.74405">
        <ele>317.8</ele>
        <time>2025-08-06T10:05:45Z</time>
      </trkpt>
      <trkpt lat="45.71227" lon="4.74411">
        <ele>318</ele>
        <time>2025-08-06T10:05:46Z</time>
      </trkpt>
      <trkpt lat="45.71228" lon="4.74418">
        <ele>318.4</ele>
        <time>2025-08-06T10:05:47Z</time>
      </trkpt>
      <trkpt lat="45.71228" lon="4.74424">
        <ele>318.6</ele>
        <time>2025-08-06T10:05:48Z</time>
      </trkpt>
      <trkpt lat="45.71227" lon="4.74429">
        <ele>318.6</ele>
        <time>2025-08-06T10:05:49Z</time>
      </trkpt>
      <trkpt lat="45.71227" lon="4.74436">
        <ele>318.8</ele>
        <time>2025-08-06T10:05:50Z</time>
      </trkpt>
      <trkpt lat="45.71227" lon="4.74442">
        <ele>319</ele>
        <time>2025-08-06T10:05:51Z</time>
      </trkpt>
      <trkpt lat="45.71226" lon="4.74448">
        <ele>319</ele>
        <time>2025-08-06T10:05:52Z</time>
      </trkpt>
      <trkpt lat="45.71226" lon="4.74455">
        <ele>319</ele>
        <time>2025-08-06T10:05:53Z</time>
      </trkpt>
      <trkpt lat="45.71226" lon="4.74461">
        <ele>319.2</ele>
        <time>2025-08-06T10:05:54Z</time>
      </trkpt>
      <trkpt lat="45.71225" lon="4.74468">
        <ele>319.2</ele>
        <time>2025-08-06T10:05:55Z</time>
      </trkpt>
      <trkpt lat="45.71225" lon="4.74475">
        <ele>319.4</ele>
        <time>2025-08-06T10:05:56Z</time>
      </trkpt>
      <trkpt lat="45.71224" lon="4.74482">
        <ele>319.4</ele>
        <time>2025-08-06T10:05:57Z</time>
      </trkpt>
      <trkpt lat="45.71224" lon="4.74488">
        <ele>319.6</ele>
        <time>2025-08-06T10:05:58Z</time>
      </trkpt>
      <trkpt lat="45.71223" lon="4.74495">
        <ele>319.6</ele>
        <time>2025-08-06T10:05:59Z</time>
      </trkpt>
      <trkpt lat="45.71223" lon="4.74502">
        <ele>319.8</ele>
        <time>2025-08-06T10:06:00Z</time>
      </trkpt>
      <trkpt lat="45.71222" lon="4.74509">
        <ele>319.8</ele>
        <time>2025-08-06T10:06:01Z</time>
      </trkpt>
      <trkpt lat="45.71222" lon="4.74516">
        <ele>320</ele>
        <time>2025-08-06T10:06:02Z</time>
      </trkpt>
      <trkpt lat="45.71221" lon="4.74523">
        <ele>320</ele>
        <time>2025-08-06T10:06:03Z</time>
      </trkpt>
      <trkpt lat="45.7122" lon="4.74529">
        <ele>320.2</ele>
        <time>2025-08-06T10:06:04Z</time>
      </trkpt>
      <trkpt lat="45.71219" lon="4.74536">
        <ele>320.2</ele>
        <time>2025-08-06T10:06:05Z</time>
      </trkpt>
      <trkpt lat="45.71218" lon="4.74543">
        <ele>320</ele>
        <time>2025-08-06T10:06:06Z</time>
      </trkpt>
      <trkpt lat="45.71217" lon="4.7455">
        <ele>319.8</ele>
        <time>2025-08-06T10:06:07Z</time>
      </trkpt>
      <trkpt lat="45.71215" lon="4.74557">
        <ele>319.6</ele>
        <time>2025-08-06T10:06:08Z</time>
      </trkpt>
      <trkpt lat="45.71214" lon="4.74564">
        <ele>319.6</ele>
        <time>2025-08-06T10:06:09Z</time>
      </trkpt>
      <trkpt lat="45.71212" lon="4.74571">
        <ele>319.6</ele>
        <time>2025-08-06T10:06:10Z</time>
      </trkpt>
      <trkpt lat="45.7121" lon="4.74578">
        <ele>319.6</ele>
        <time>2025-08-06T10:06:11Z</time>
      </trkpt>
      <trkpt lat="45.71208" lon="4.74585">
        <ele>319.4</ele>
        <time>2025-08-06T10:06:12Z</time>
      </trkpt>
      <trkpt lat="45.71207" lon="4.74593">
        <ele>319.4</ele>
        <time>2025-08-06T10:06:13Z</time>
      </trkpt>
      <trkpt lat="45.71206" lon="4.746">
        <ele>319.2</ele>
        <time>2025-08-06T10:06:14Z</time>
      </trkpt>
      <trkpt lat="45.71205" lon="4.74608">
        <ele>319</ele>
        <time>2025-08-06T10:06:15Z</time>
      </trkpt>
      <trkpt lat="45.71205" lon="4.74615">
        <ele>318.8</ele>
        <time>2025-08-06T10:06:16Z</time>
      </trkpt>
      <trkpt lat="45.71205" lon="4.74622">
        <ele>318.8</ele>
        <time>2025-08-06T10:06:17Z</time>
      </trkpt>
      <trkpt lat="45.71205" lon="4.7463">
        <ele>318.8</ele>
        <time>2025-08-06T10:06:18Z</time>
      </trkpt>
      <trkpt lat="45.71204" lon="4.74637">
        <ele>318.8</ele>
        <time>2025-08-06T10:06:19Z</time>
      </trkpt>
      <trkpt lat="45.71204" lon="4.74645">
        <ele>318.8</ele>
        <time>2025-08-06T10:06:20Z</time>
      </trkpt>
      <trkpt lat="45.71203" lon="4.74652">
        <ele>318.6</ele>
        <time>2025-08-06T10:06:21Z</time>
      </trkpt>
      <trkpt lat="45.71203" lon="4.7466">
        <ele>318.4</ele>
        <time>2025-08-06T10:06:22Z</time>
      </trkpt>
      <trkpt lat="45.71203" lon="4.74667">
        <ele>318.4</ele>
        <time>2025-08-06T10:06:23Z</time>
      </trkpt>
      <trkpt lat="45.71203" lon="4.74674">
        <ele>318.4</ele>
        <time>2025-08-06T10:06:24Z</time>
      </trkpt>
      <trkpt lat="45.71202" lon="4.7468">
        <ele>318.4</ele>
        <time>2025-08-06T10:06:25Z</time>
      </trkpt>
      <trkpt lat="45.71202" lon="4.74687">
        <ele>318.6</ele>
        <time>2025-08-06T10:06:26Z</time>
      </trkpt>
      <trkpt lat="45.71202" lon="4.74694">
        <ele>318.6</ele>
        <time>2025-08-06T10:06:27Z</time>
      </trkpt>
      <trkpt lat="45.71202" lon="4.74701">
        <ele>318.4</ele>
        <time>2025-08-06T10:06:28Z</time>
      </trkpt>
      <trkpt lat="45.71201" lon="4.74708">
        <ele>318.2</ele>
        <time>2025-08-06T10:06:29Z</time>
      </trkpt>
      <trkpt lat="45.71201" lon="4.74716">
        <ele>318.2</ele>
        <time>2025-08-06T10:06:30Z</time>
      </trkpt>
      <trkpt lat="45.712" lon="4.74722">
        <ele>318.2</ele>
        <time>2025-08-06T10:06:31Z</time>
      </trkpt>
      <trkpt lat="45.71199" lon="4.74729">
        <ele>318.2</ele>
        <time>2025-08-06T10:06:32Z</time>
      </trkpt>
      <trkpt lat="45.71198" lon="4.74734">
        <ele>318</ele>
        <time>2025-08-06T10:06:33Z</time>
      </trkpt>
      <trkpt lat="45.71196" lon="4.7474">
        <ele>318</ele>
        <time>2025-08-06T10:06:34Z</time>
      </trkpt>
      <trkpt lat="45.71197" lon="4.74746">
        <ele>318</ele>
        <time>2025-08-06T10:06:35Z</time>
      </trkpt>
      <trkpt lat="45.71199" lon="4.74752">
        <ele>317.8</ele>
        <time>2025-08-06T10:06:36Z</time>
      </trkpt>
      <trkpt lat="45.71202" lon="4.74757">
        <ele>317.4</ele>
        <time>2025-08-06T10:06:37Z</time>
      </trkpt>
      <trkpt lat="45.71206" lon="4.74763">
        <ele>317.2</ele>
        <time>2025-08-06T10:06:38Z</time>
      </trkpt>
      <trkpt lat="45.71209" lon="4.7477">
        <ele>317</ele>
        <time>2025-08-06T10:06:39Z</time>
      </trkpt>
      <trkpt lat="45.71211" lon="4.74777">
        <ele>316.8</ele>
        <time>2025-08-06T10:06:40Z</time>
      </trkpt>
      <trkpt lat="45.71213" lon="4.74785">
        <ele>316.6</ele>
        <time>2025-08-06T10:06:41Z</time>
      </trkpt>
      <trkpt lat="45.71216" lon="4.74793">
        <ele>316.4</ele>
        <time>2025-08-06T10:06:42Z</time>
      </trkpt>
      <trkpt lat="45.71218" lon="4.748">
        <ele>316.2</ele>
        <time>2025-08-06T10:06:43Z</time>
      </trkpt>
      <trkpt lat="45.7122" lon="4.74809">
        <ele>316</ele>
        <time>2025-08-06T10:06:44Z</time>
      </trkpt>
      <trkpt lat="45.71223" lon="4.74817">
        <ele>315.8</ele>
        <time>2025-08-06T10:06:45Z</time>
      </trkpt>
      <trkpt lat="45.71225" lon="4.74825">
        <ele>315.6</ele>
        <time>2025-08-06T10:06:46Z</time>
      </trkpt>
      <trkpt lat="45.71228" lon="4.74833">
        <ele>315.4</ele>
        <time>2025-08-06T10:06:47Z</time>
      </trkpt>
      <trkpt lat="45.7123" lon="4.74841">
        <ele>315.2</ele>
        <time>2025-08-06T10:06:48Z</time>
      </trkpt>
      <trkpt lat="45.71231" lon="4.74849">
        <ele>315</ele>
        <time>2025-08-06T10:06:49Z</time>
      </trkpt>
      <trkpt lat="45.71232" lon="4.74858">
        <ele>314.8</ele>
        <time>2025-08-06T10:06:50Z</time>
      </trkpt>
      <trkpt lat="45.71232" lon="4.74866">
        <ele>314.6</ele>
        <time>2025-08-06T10:06:51Z</time>
      </trkpt>
      <trkpt lat="45.71232" lon="4.74874">
        <ele>314.6</ele>
        <time>2025-08-06T10:06:52Z</time>
      </trkpt>
      <trkpt lat="45.71231" lon="4.74882">
        <ele>314.6</ele>
        <time>2025-08-06T10:06:53Z</time>
      </trkpt>
      <trkpt lat="45.71229" lon="4.74889">
        <ele>314.6</ele>
        <time>2025-08-06T10:06:54Z</time>
      </trkpt>
      <trkpt lat="45.71229" lon="4.74896">
        <ele>314.8</ele>
        <time>2025-08-06T10:06:55Z</time>
      </trkpt>
      <trkpt lat="45.71228" lon="4.74903">
        <ele>315</ele>
        <time>2025-08-06T10:06:56Z</time>
      </trkpt>
      <trkpt lat="45.71228" lon="4.7491">
        <ele>315.4</ele>
        <time>2025-08-06T10:06:57Z</time>
      </trkpt>
      <trkpt lat="45.71227" lon="4.74917">
        <ele>315.8</ele>
        <time>2025-08-06T10:06:58Z</time>
      </trkpt>
      <trkpt lat="45.71224" lon="4.74922">
        <ele>316.4</ele>
        <time>2025-08-06T10:06:59Z</time>
      </trkpt>
      <trkpt lat="45.7122" lon="4.74927">
        <ele>317</ele>
        <time>2025-08-06T10:07:00Z</time>
      </trkpt>
      <trkpt lat="45.71216" lon="4.74931">
        <ele>317.4</ele>
        <time>2025-08-06T10:07:01Z</time>
      </trkpt>
      <trkpt lat="45.71211" lon="4.74934">
        <ele>317.8</ele>
        <time>2025-08-06T10:07:02Z</time>
      </trkpt>
      <trkpt lat="45.71205" lon="4.74938">
        <ele>318.2</ele>
        <time>2025-08-06T10:07:03Z</time>
      </trkpt>
      <trkpt lat="45.712" lon="4.74942">
        <ele>318.2</ele>
        <time>2025-08-06T10:07:04Z</time>
      </trkpt>
      <trkpt lat="45.71194" lon="4.74946">
        <ele>318.2</ele>
        <time>2025-08-06T10:07:05Z</time>
      </trkpt>
      <trkpt lat="45.71188" lon="4.74949">
        <ele>317.8</ele>
        <time>2025-08-06T10:07:06Z</time>
      </trkpt>
      <trkpt lat="45.71181" lon="4.74952">
        <ele>317.4</ele>
        <time>2025-08-06T10:07:07Z</time>
      </trkpt>
      <trkpt lat="45.71175" lon="4.74955">
        <ele>317</ele>
        <time>2025-08-06T10:07:08Z</time>
      </trkpt>
      <trkpt lat="45.71168" lon="4.74958">
        <ele>316.6</ele>
        <time>2025-08-06T10:07:09Z</time>
      </trkpt>
      <trkpt lat="45.71162" lon="4.74961">
        <ele>316.2</ele>
        <time>2025-08-06T10:07:10Z</time>
      </trkpt>
      <trkpt lat="45.71155" lon="4.74964">
        <ele>316</ele>
        <time>2025-08-06T10:07:11Z</time>
      </trkpt>
      <trkpt lat="45.71149" lon="4.74967">
        <ele>315.8</ele>
        <time>2025-08-06T10:07:12Z</time>
      </trkpt>
      <trkpt lat="45.71143" lon="4.74971">
        <ele>315.4</ele>
        <time>2025-08-06T10:07:13Z</time>
      </trkpt>
      <trkpt lat="45.71138" lon="4.74978">
        <ele>315.2</ele>
        <time>2025-08-06T10:07:14Z</time>
      </trkpt>
      <trkpt lat="45.71134" lon="4.74986">
        <ele>314.8</ele>
        <time>2025-08-06T10:07:15Z</time>
      </trkpt>
      <trkpt lat="45.71133" lon="4.74997">
        <ele>314.4</ele>
        <time>2025-08-06T10:07:16Z</time>
      </trkpt>
      <trkpt lat="45.71132" lon="4.75008">
        <ele>314</ele>
        <time>2025-08-06T10:07:17Z</time>
      </trkpt>
      <trkpt lat="45.71131" lon="4.75019">
        <ele>313.8</ele>
        <time>2025-08-06T10:07:18Z</time>
      </trkpt>
      <trkpt lat="45.71129" lon="4.75031">
        <ele>313.2</ele>
        <time>2025-08-06T10:07:19Z</time>
      </trkpt>
      <trkpt lat="45.71126" lon="4.75042">
        <ele>312.6</ele>
        <time>2025-08-06T10:07:20Z</time>
      </trkpt>
      <trkpt lat="45.71122" lon="4.75053">
        <ele>311.8</ele>
        <time>2025-08-06T10:07:21Z</time>
      </trkpt>
      <trkpt lat="45.71117" lon="4.75064">
        <ele>310.8</ele>
        <time>2025-08-06T10:07:22Z</time>
      </trkpt>
      <trkpt lat="45.71112" lon="4.75075">
        <ele>309.8</ele>
        <time>2025-08-06T10:07:23Z</time>
      </trkpt>
      <trkpt lat="45.71108" lon="4.75088">
        <ele>308.6</ele>
        <time>2025-08-06T10:07:24Z</time>
      </trkpt>
      <trkpt lat="45.71105" lon="4.75102">
        <ele>307.4</ele>
        <time>2025-08-06T10:07:25Z</time>
      </trkpt>
      <trkpt lat="45.71103" lon="4.75118">
        <ele>305.8</ele>
        <time>2025-08-06T10:07:26Z</time>
      </trkpt>
      <trkpt lat="45.71103" lon="4.75134">
        <ele>304</ele>
        <time>2025-08-06T10:07:27Z</time>
      </trkpt>
      <trkpt lat="45.71105" lon="4.7515">
        <ele>302.4</ele>
        <time>2025-08-06T10:07:28Z</time>
      </trkpt>
      <trkpt lat="45.71108" lon="4.75166">
        <ele>300.8</ele>
        <time>2025-08-06T10:07:29Z</time>
      </trkpt>
      <trkpt lat="45.71112" lon="4.75182">
        <ele>298.8</ele>
        <time>2025-08-06T10:07:30Z</time>
      </trkpt>
      <trkpt lat="45.71114" lon="4.75198">
        <ele>297.2</ele>
        <time>2025-08-06T10:07:31Z</time>
      </trkpt>
      <trkpt lat="45.71115" lon="4.75213">
        <ele>296.2</ele>
        <time>2025-08-06T10:07:32Z</time>
      </trkpt>
      <trkpt lat="45.71114" lon="4.75228">
        <ele>295.8</ele>
        <time>2025-08-06T10:07:33Z</time>
      </trkpt>
      <trkpt lat="45.71113" lon="4.75241">
        <ele>295.8</ele>
        <time>2025-08-06T10:07:34Z</time>
      </trkpt>
      <trkpt lat="45.7111" lon="4.75253">
        <ele>296.2</ele>
        <time>2025-08-06T10:07:35Z</time>
      </trkpt>
      <trkpt lat="45.71107" lon="4.75264">
        <ele>296.8</ele>
        <time>2025-08-06T10:07:36Z</time>
      </trkpt>
      <trkpt lat="45.71104" lon="4.75273">
        <ele>297.6</ele>
        <time>2025-08-06T10:07:37Z</time>
      </trkpt>
      <trkpt lat="45.711" lon="4.75281">
        <ele>298.4</ele>
        <time>2025-08-06T10:07:38Z</time>
      </trkpt>
      <trkpt lat="45.71097" lon="4.75289">
        <ele>299.4</ele>
        <time>2025-08-06T10:07:39Z</time>
      </trkpt>
      <trkpt lat="45.71095" lon="4.75296">
        <ele>300.6</ele>
        <time>2025-08-06T10:07:40Z</time>
      </trkpt>
      <trkpt lat="45.71092" lon="4.75301">
        <ele>301.6</ele>
        <time>2025-08-06T10:07:41Z</time>
      </trkpt>
      <trkpt lat="45.7109" lon="4.75307">
        <ele>302.8</ele>
        <time>2025-08-06T10:07:42Z</time>
      </trkpt>
      <trkpt lat="45.71088" lon="4.75313">
        <ele>303.8</ele>
        <time>2025-08-06T10:07:43Z</time>
      </trkpt>
      <trkpt lat="45.71086" lon="4.75319">
        <ele>304.6</ele>
        <time>2025-08-06T10:07:44Z</time>
      </trkpt>
      <trkpt lat="45.71084" lon="4.75324">
        <ele>305.4</ele>
        <time>2025-08-06T10:07:45Z</time>
      </trkpt>
      <trkpt lat="45.71082" lon="4.7533">
        <ele>306.2</ele>
        <time>2025-08-06T10:07:46Z</time>
      </trkpt>
      <trkpt lat="45.71081" lon="4.75335">
        <ele>307</ele>
        <time>2025-08-06T10:07:47Z</time>
      </trkpt>
      <trkpt lat="45.71079" lon="4.75341">
        <ele>307.8</ele>
        <time>2025-08-06T10:07:48Z</time>
      </trkpt>
      <trkpt lat="45.71077" lon="4.75345">
        <ele>308.6</ele>
        <time>2025-08-06T10:07:49Z</time>
      </trkpt>
      <trkpt lat="45.71075" lon="4.75351">
        <ele>309.2</ele>
        <time>2025-08-06T10:07:50Z</time>
      </trkpt>
      <trkpt lat="45.71073" lon="4.75356">
        <ele>310</ele>
        <time>2025-08-06T10:07:51Z</time>
      </trkpt>
      <trkpt lat="45.71072" lon="4.75362">
        <ele>310.6</ele>
        <time>2025-08-06T10:07:52Z</time>
      </trkpt>
      <trkpt lat="45.7107" lon="4.75368">
        <ele>311.2</ele>
        <time>2025-08-06T10:07:53Z</time>
      </trkpt>
      <trkpt lat="45.71069" lon="4.75374">
        <ele>311.8</ele>
        <time>2025-08-06T10:07:54Z</time>
      </trkpt>
      <trkpt lat="45.71068" lon="4.75381">
        <ele>312.2</ele>
        <time>2025-08-06T10:07:55Z</time>
      </trkpt>
      <trkpt lat="45.71066" lon="4.75387">
        <ele>312.6</ele>
        <time>2025-08-06T10:07:56Z</time>
      </trkpt>
      <trkpt lat="45.71065" lon="4.75393">
        <ele>313.2</ele>
        <time>2025-08-06T10:07:57Z</time>
      </trkpt>
      <trkpt lat="45.71063" lon="4.75399">
        <ele>313.6</ele>
        <time>2025-08-06T10:07:58Z</time>
      </trkpt>
      <trkpt lat="45.71062" lon="4.75404">
        <ele>313.8</ele>
        <time>2025-08-06T10:07:59Z</time>
      </trkpt>
      <trkpt lat="45.7106" lon="4.7541">
        <ele>314</ele>
        <time>2025-08-06T10:08:00Z</time>
      </trkpt>
      <trkpt lat="45.71059" lon="4.75416">
        <ele>314.2</ele>
        <time>2025-08-06T10:08:01Z</time>
      </trkpt>
      <trkpt lat="45.71057" lon="4.75423">
        <ele>314.2</ele>
        <time>2025-08-06T10:08:02Z</time>
      </trkpt>
      <trkpt lat="45.71056" lon="4.7543">
        <ele>314.2</ele>
        <time>2025-08-06T10:08:03Z</time>
      </trkpt>
      <trkpt lat="45.71055" lon="4.75436">
        <ele>314.2</ele>
        <time>2025-08-06T10:08:04Z</time>
      </trkpt>
      <trkpt lat="45.71055" lon="4.75444">
        <ele>314.2</ele>
        <time>2025-08-06T10:08:05Z</time>
      </trkpt>
      <trkpt lat="45.71055" lon="4.75451">
        <ele>314.4</ele>
        <time>2025-08-06T10:08:06Z</time>
      </trkpt>
      <trkpt lat="45.71055" lon="4.75458">
        <ele>314.4</ele>
        <time>2025-08-06T10:08:07Z</time>
      </trkpt>
      <trkpt lat="45.71054" lon="4.75466">
        <ele>314.6</ele>
        <time>2025-08-06T10:08:08Z</time>
      </trkpt>
      <trkpt lat="45.71054" lon="4.75473">
        <ele>314.6</ele>
        <time>2025-08-06T10:08:09Z</time>
      </trkpt>
      <trkpt lat="45.71054" lon="4.7548">
        <ele>314.4</ele>
        <time>2025-08-06T10:08:10Z</time>
      </trkpt>
      <trkpt lat="45.71054" lon="4.75488">
        <ele>314.2</ele>
        <time>2025-08-06T10:08:11Z</time>
      </trkpt>
      <trkpt lat="45.71054" lon="4.75495">
        <ele>314</ele>
        <time>2025-08-06T10:08:12Z</time>
      </trkpt>
      <trkpt lat="45.71054" lon="4.75502">
        <ele>313.8</ele>
        <time>2025-08-06T10:08:13Z</time>
      </trkpt>
      <trkpt lat="45.71054" lon="4.75508">
        <ele>313.4</ele>
        <time>2025-08-06T10:08:14Z</time>
      </trkpt>
      <trkpt lat="45.71054" lon="4.75514">
        <ele>313.2</ele>
        <time>2025-08-06T10:08:15Z</time>
      </trkpt>
      <trkpt lat="45.71054" lon="4.75521">
        <ele>313</ele>
        <time>2025-08-06T10:08:16Z</time>
      </trkpt>
      <trkpt lat="45.71054" lon="4.75527">
        <ele>313</ele>
        <time>2025-08-06T10:08:17Z</time>
      </trkpt>
      <trkpt lat="45.71056" lon="4.75533">
        <ele>312.8</ele>
        <time>2025-08-06T10:08:18Z</time>
      </trkpt>
      <trkpt lat="45.71058" lon="4.75538">
        <ele>313</ele>
        <time>2025-08-06T10:08:19Z</time>
      </trkpt>
      <trkpt lat="45.71061" lon="4.75541">
        <ele>313.2</ele>
        <time>2025-08-06T10:08:20Z</time>
      </trkpt>
      <trkpt lat="45.71064" lon="4.75543">
        <ele>313.4</ele>
        <time>2025-08-06T10:08:21Z</time>
      </trkpt>
      <trkpt lat="45.71067" lon="4.75544">
        <ele>313.8</ele>
        <time>2025-08-06T10:08:22Z</time>
      </trkpt>
      <trkpt lat="45.7107" lon="4.75544">
        <ele>314.2</ele>
        <time>2025-08-06T10:08:23Z</time>
      </trkpt>
      <trkpt lat="45.71072" lon="4.75544">
        <ele>314.6</ele>
        <time>2025-08-06T10:08:24Z</time>
      </trkpt>
      <trkpt lat="45.71074" lon="4.75543">
        <ele>314.8</ele>
        <time>2025-08-06T10:08:25Z</time>
      </trkpt>
      <trkpt lat="45.71076" lon="4.75543">
        <ele>315</ele>
        <time>2025-08-06T10:08:26Z</time>
      </trkpt>
      <trkpt lat="45.71078" lon="4.75543">
        <ele>315.2</ele>
        <time>2025-08-06T10:08:27Z</time>
      </trkpt>
      <trkpt lat="45.7108" lon="4.75543">
        <ele>315.2</ele>
        <time>2025-08-06T10:08:28Z</time>
      </trkpt>
      <trkpt lat="45.71082" lon="4.75544">
        <ele>315.2</ele>
        <time>2025-08-06T10:08:29Z</time>
      </trkpt>
      <trkpt lat="45.71084" lon="4.75544">
        <ele>315.4</ele>
        <time>2025-08-06T10:08:30Z</time>
      </trkpt>
      <trkpt lat="45.71085" lon="4.75544">
        <ele>315.4</ele>
        <time>2025-08-06T10:08:31Z</time>
      </trkpt>
      <trkpt lat="45.71087" lon="4.75545">
        <ele>315.6</ele>
        <time>2025-08-06T10:08:32Z</time>
      </trkpt>
      <trkpt lat="45.71088" lon="4.75545">
        <ele>315.6</ele>
        <time>2025-08-06T10:08:33Z</time>
      </trkpt>
      <trkpt lat="45.71089" lon="4.75545">
        <ele>315.8</ele>
        <time>2025-08-06T10:08:34Z</time>
      </trkpt>
      <trkpt lat="45.71089" lon="4.75545">
        <ele>315.8</ele>
        <time>2025-08-06T10:08:35Z</time>
      </trkpt>
      <trkpt lat="45.71089" lon="4.75545">
        <ele>315.8</ele>
        <time>2025-08-06T10:08:36Z</time>
      </trkpt>
    </trkseg>
  </trk>
</gpx>